<?xml version='1.0' encoding='UTF-8'?><gpx version="1.1" creator="JPX - https://github.com/jenetics/jpx" xmlns="http://www.topografix.com/GPX/1/1"><trk><trkseg><trkpt lat="43.50487313395777" lon="10.620430864749277"><ele>304.0</ele><time>2026-04-18T06:53:46.999Z</time></trkpt><trkpt lat="43.504938929455285" lon="10.620460299022032"><ele>304.0</ele><time>2026-04-18T06:53:52.999Z</time></trkpt><trkpt lat="43.50496538683402" lon="10.620549476687525"><ele>304.0</ele><time>2026-04-18T06:53:58.999Z</time></trkpt><trkpt lat="43.50500166656014" lon="10.620632597583779"><ele>304.0</ele><time>2026-04-18T06:54:04.999Z</time></trkpt><trkpt lat="43.50500583333334" lon="10.620542499999999"><ele>304.0</ele><time>2026-04-18T06:55:55.936Z</time></trkpt><trkpt lat="43.50496466666667" lon="10.62046"><ele>304.0</ele><time>2026-04-18T06:56:01.947Z</time></trkpt><trkpt lat="43.5048975" lon="10.620433"><ele>304.0</ele><time>2026-04-18T06:56:08.936Z</time></trkpt><trkpt lat="43.504831" lon="10.620424833333333"><ele>304.0</ele><time>2026-04-18T06:56:17.939Z</time></trkpt><trkpt lat="43.504765833333344" lon="10.620417999999999"><ele>304.0</ele><time>2026-04-18T06:57:06.883Z</time></trkpt><trkpt lat="43.5047145" lon="10.620353166666666"><ele>304.0</ele><time>2026-04-18T06:57:11.91Z</time></trkpt><trkpt lat="43.50473449999999" lon="10.620260666666665"><ele>304.0</ele><time>2026-04-18T06:57:23.892Z</time></trkpt><trkpt lat="43.504745500000006" lon="10.620162333333333"><ele>304.0</ele><time>2026-04-18T06:58:07.882Z</time></trkpt><trkpt lat="43.50476033333332" lon="10.620061666666667"><ele>304.0</ele><time>2026-04-18T06:58:12.9Z</time></trkpt><trkpt lat="43.50482816666666" lon="10.619972166666667"><ele>304.0</ele><time>2026-04-18T06:58:45.152Z</time></trkpt><trkpt lat="43.504890499999995" lon="10.619913666666665"><ele>305.0</ele><time>2026-04-18T06:58:46.891Z</time></trkpt><trkpt lat="43.50495583333333" lon="10.619846833333334"><ele>306.0</ele><time>2026-04-18T06:58:48.889Z</time></trkpt><trkpt lat="43.50500583333334" lon="10.619758833333332"><ele>307.0</ele><time>2026-04-18T06:58:50.894Z</time></trkpt><trkpt lat="43.50504216666666" lon="10.619637"><ele>308.0</ele><time>2026-04-18T06:58:52.891Z</time></trkpt><trkpt lat="43.505129759492746" lon="10.619539511453535"><ele>309.0</ele><time>2026-04-18T06:58:54.894Z</time></trkpt><trkpt lat="43.50517648877156" lon="10.619422873250587"><ele>309.75</ele><time>2026-04-18T06:58:56.89Z</time></trkpt><trkpt lat="43.505264030766" lon="10.619365825787286"><ele>310.5</ele><time>2026-04-18T06:58:59.897Z</time></trkpt><trkpt lat="43.50537599999999" lon="10.619371999999998"><ele>311.25</ele><time>2026-04-18T06:59:01.897Z</time></trkpt><trkpt lat="43.50549433333334" lon="10.619414833333334"><ele>312.0</ele><time>2026-04-18T06:59:03.889Z</time></trkpt><trkpt lat="43.50561233333333" lon="10.619459166666665"><ele>310.0</ele><time>2026-04-18T06:59:05.888Z</time></trkpt><trkpt lat="43.50567071368486" lon="10.619492602620722"><ele>308.0</ele><time>2026-04-18T06:59:06.888Z</time></trkpt><trkpt lat="43.505733827055415" lon="10.6194988645791"><ele>306.0</ele><time>2026-04-18T06:59:07.894Z</time></trkpt><trkpt lat="43.505856725161536" lon="10.619471737998538"><ele>304.0</ele><time>2026-04-18T06:59:09.891Z</time></trkpt><trkpt lat="43.505976028886" lon="10.61942986534822"><ele>302.0</ele><time>2026-04-18T06:59:11.894Z</time></trkpt><trkpt lat="43.506038368748214" lon="10.619409841999298"><ele>300.0</ele><time>2026-04-18T06:59:12.894Z</time></trkpt><trkpt lat="43.506160193977855" lon="10.619370712088887"><ele>297.25</ele><time>2026-04-18T06:59:14.893Z</time></trkpt><trkpt lat="43.50627836100364" lon="10.619340418932476"><ele>294.5</ele><time>2026-04-18T06:59:16.884Z</time></trkpt><trkpt lat="43.506390434372584" lon="10.619342961548961"><ele>291.75</ele><time>2026-04-18T06:59:18.901Z</time></trkpt><trkpt lat="43.50650399999999" lon="10.6193571751109"><ele>289.0</ele><time>2026-04-18T06:59:20.906Z</time></trkpt><trkpt lat="43.50662360445587" lon="10.619340883644613"><ele>289.0</ele><time>2026-04-18T06:59:22.899Z</time></trkpt><trkpt lat="43.50673879949333" lon="10.619295948347421"><ele>289.0</ele><time>2026-04-18T06:59:24.889Z</time></trkpt><trkpt lat="43.50682543394687" lon="10.61925772896236"><ele>289.0</ele><time>2026-04-18T06:59:26.887Z</time></trkpt><trkpt lat="43.506937174642495" lon="10.619166745752802"><ele>289.0</ele><time>2026-04-18T06:59:29.891Z</time></trkpt><trkpt lat="43.50701446958438" lon="10.619058257288904"><ele>287.0</ele><time>2026-04-18T06:59:31.891Z</time></trkpt><trkpt lat="43.50710241271962" lon="10.618952949880045"><ele>285.0</ele><time>2026-04-18T06:59:33.892Z</time></trkpt><trkpt lat="43.507156675217644" lon="10.618902262861038"><ele>283.0</ele><time>2026-04-18T06:59:34.891Z</time></trkpt><trkpt lat="43.507264499989205" lon="10.61882727059461"><ele>281.0</ele><time>2026-04-18T06:59:36.893Z</time></trkpt><trkpt lat="43.507381631006325" lon="10.618789328595104"><ele>279.0</ele><time>2026-04-18T06:59:39.428Z</time></trkpt><trkpt lat="43.50751530839361" lon="10.618723972803611"><ele>279.0</ele><time>2026-04-18T06:59:40.893Z</time></trkpt><trkpt lat="43.507575776603545" lon="10.6186787527512"><ele>279.0</ele><time>2026-04-18T06:59:41.899Z</time></trkpt><trkpt lat="43.507634371220284" lon="10.618630436068324"><ele>279.0</ele><time>2026-04-18T06:59:42.899Z</time></trkpt><trkpt lat="43.507697019448024" lon="10.61857439500815"><ele>279.0</ele><time>2026-04-18T06:59:43.901Z</time></trkpt><trkpt lat="43.50775577951413" lon="10.618508252012651"><ele>279.0</ele><time>2026-04-18T06:59:44.891Z</time></trkpt><trkpt lat="43.507866051516956" lon="10.618346924777672"><ele>279.0</ele><time>2026-04-18T06:59:46.89Z</time></trkpt><trkpt lat="43.507914129195186" lon="10.618259070592702"><ele>279.0</ele><time>2026-04-18T06:59:47.897Z</time></trkpt><trkpt lat="43.508002478569445" lon="10.618068871278524"><ele>279.0</ele><time>2026-04-18T06:59:49.895Z</time></trkpt><trkpt lat="43.508040540379106" lon="10.617957833978148"><ele>279.0</ele><time>2026-04-18T06:59:50.895Z</time></trkpt><trkpt lat="43.50807961135935" lon="10.61785325951232"><ele>279.0</ele><time>2026-04-18T06:59:51.892Z</time></trkpt><trkpt lat="43.508120769638246" lon="10.617745809797631"><ele>279.0</ele><time>2026-04-18T06:59:52.9Z</time></trkpt><trkpt lat="43.50816152661141" lon="10.617635625513248"><ele>281.0</ele><time>2026-04-18T06:59:53.897Z</time></trkpt><trkpt lat="43.508231901824686" lon="10.61742202236829"><ele>283.0</ele><time>2026-04-18T06:59:55.892Z</time></trkpt><trkpt lat="43.50826519380909" lon="10.617328047353071"><ele>285.0</ele><time>2026-04-18T06:59:56.892Z</time></trkpt><trkpt lat="43.50830458881704" lon="10.617241804710426"><ele>287.0</ele><time>2026-04-18T06:59:57.889Z</time></trkpt><trkpt lat="43.5083750782958" lon="10.617110846625511"><ele>289.0</ele><time>2026-04-18T06:59:59.894Z</time></trkpt><trkpt lat="43.50845545518577" lon="10.616980651759235"><ele>289.5</ele><time>2026-04-18T07:00:00.889Z</time></trkpt><trkpt lat="43.50851535141764" lon="10.616896090188963"><ele>290.0</ele><time>2026-04-18T07:00:01.889Z</time></trkpt><trkpt lat="43.50858055112376" lon="10.616812898425836"><ele>290.5</ele><time>2026-04-18T07:00:02.887Z</time></trkpt><trkpt lat="43.50864899580377" lon="10.616730882086605"><ele>291.0</ele><time>2026-04-18T07:00:03.894Z</time></trkpt><trkpt lat="43.50871673352669" lon="10.61665501853709"><ele>291.5</ele><time>2026-04-18T07:00:04.897Z</time></trkpt><trkpt lat="43.50878714155518" lon="10.616578480325709"><ele>292.0</ele><time>2026-04-18T07:00:05.889Z</time></trkpt><trkpt lat="43.50884033273131" lon="10.616506781976282"><ele>292.0</ele><time>2026-04-18T07:00:06.899Z</time></trkpt><trkpt lat="43.50891818320971" lon="10.616421135448357"><ele>292.0</ele><time>2026-04-18T07:00:08.888Z</time></trkpt><trkpt lat="43.50899016666668" lon="10.616387333333334"><ele>292.0</ele><time>2026-04-18T07:00:10.892Z</time></trkpt><trkpt lat="43.509040166666665" lon="10.616452666666664"><ele>292.0</ele><time>2026-04-18T07:00:12.901Z</time></trkpt><trkpt lat="43.509087" lon="10.616542333333333"><ele>292.0</ele><time>2026-04-18T07:00:13.89Z</time></trkpt><trkpt lat="43.50916399999999" lon="10.616678166666667"><ele>292.0</ele><time>2026-04-18T07:00:15.892Z</time></trkpt><trkpt lat="43.50920250000001" lon="10.616762000000001"><ele>292.0</ele><time>2026-04-18T07:00:16.894Z</time></trkpt><trkpt lat="43.50929083333334" lon="10.616945666666668"><ele>292.0</ele><time>2026-04-18T07:00:18.892Z</time></trkpt><trkpt lat="43.50934316666667" lon="10.6170445"><ele>292.0</ele><time>2026-04-18T07:00:19.902Z</time></trkpt><trkpt lat="43.509397666666665" lon="10.617147666666664"><ele>292.0</ele><time>2026-04-18T07:00:20.894Z</time></trkpt><trkpt lat="43.5094515" lon="10.617253166666668"><ele>291.0</ele><time>2026-04-18T07:00:21.894Z</time></trkpt><trkpt lat="43.50950583333333" lon="10.617358333333335"><ele>290.0</ele><time>2026-04-18T07:00:22.896Z</time></trkpt><trkpt lat="43.50956133333334" lon="10.617463333333333"><ele>289.0</ele><time>2026-04-18T07:00:23.889Z</time></trkpt><trkpt lat="43.5096185" lon="10.617566500000002"><ele>288.0</ele><time>2026-04-18T07:00:24.89Z</time></trkpt><trkpt lat="43.50967666666667" lon="10.617668499999997"><ele>287.0</ele><time>2026-04-18T07:00:25.891Z</time></trkpt><trkpt lat="43.5097285" lon="10.61777"><ele>286.42857142857144</ele><time>2026-04-18T07:00:26.893Z</time></trkpt><trkpt lat="43.509768666666666" lon="10.617870833333333"><ele>285.8571428571429</ele><time>2026-04-18T07:00:27.89Z</time></trkpt><trkpt lat="43.50980150000001" lon="10.617963666666666"><ele>285.2857142857143</ele><time>2026-04-18T07:00:28.897Z</time></trkpt><trkpt lat="43.509832333333335" lon="10.618047166666669"><ele>284.7142857142857</ele><time>2026-04-18T07:00:29.889Z</time></trkpt><trkpt lat="43.509865999999995" lon="10.618125999999998"><ele>284.14285714285717</ele><time>2026-04-18T07:00:30.899Z</time></trkpt><trkpt lat="43.50989599999999" lon="10.618206833333334"><ele>283.57142857142856</ele><time>2026-04-18T07:00:31.889Z</time></trkpt><trkpt lat="43.50991749999999" lon="10.618298166666666"><ele>283.0</ele><time>2026-04-18T07:00:32.897Z</time></trkpt><trkpt lat="43.50994266666667" lon="10.618391333333333"><ele>283.0</ele><time>2026-04-18T07:00:33.888Z</time></trkpt><trkpt lat="43.50997766666666" lon="10.618472333333333"><ele>283.0</ele><time>2026-04-18T07:00:34.893Z</time></trkpt><trkpt lat="43.51002183333333" lon="10.618534499999999"><ele>283.0</ele><time>2026-04-18T07:00:35.895Z</time></trkpt><trkpt lat="43.51014866477297" lon="10.618610555834579"><ele>283.0</ele><time>2026-04-18T07:00:37.897Z</time></trkpt><trkpt lat="43.5102281687907" lon="10.618587841945992"><ele>283.0</ele><time>2026-04-18T07:00:38.891Z</time></trkpt><trkpt lat="43.51030760204962" lon="10.618534836602521"><ele>283.0</ele><time>2026-04-18T07:00:39.911Z</time></trkpt><trkpt lat="43.51038532960898" lon="10.6184671941789"><ele>281.0</ele><time>2026-04-18T07:00:40.892Z</time></trkpt><trkpt lat="43.51046972391564" lon="10.618395015424353"><ele>279.0</ele><time>2026-04-18T07:00:41.888Z</time></trkpt><trkpt lat="43.510555738676004" lon="10.618322532226388"><ele>277.0</ele><time>2026-04-18T07:00:42.919Z</time></trkpt><trkpt lat="43.51064367858913" lon="10.61826480031447"><ele>275.0</ele><time>2026-04-18T07:00:43.89Z</time></trkpt><trkpt lat="43.51073551637604" lon="10.61822157488102"><ele>273.0</ele><time>2026-04-18T07:00:44.896Z</time></trkpt><trkpt lat="43.51083449999999" lon="10.61820107687964"><ele>273.0</ele><time>2026-04-18T07:00:45.897Z</time></trkpt><trkpt lat="43.5109384464843" lon="10.618208646411416"><ele>273.0</ele><time>2026-04-18T07:00:46.941Z</time></trkpt><trkpt lat="43.511044657778484" lon="10.61822859846925"><ele>273.0</ele><time>2026-04-18T07:00:47.885Z</time></trkpt><trkpt lat="43.51115213439961" lon="10.618249492148765"><ele>273.0</ele><time>2026-04-18T07:00:48.891Z</time></trkpt><trkpt lat="43.51125972881036" lon="10.61827040873732"><ele>273.0</ele><time>2026-04-18T07:00:49.89Z</time></trkpt><trkpt lat="43.51136645133968" lon="10.618291971661376"><ele>270.75</ele><time>2026-04-18T07:00:50.894Z</time></trkpt><trkpt lat="43.511471093955784" lon="10.618318489364228"><ele>268.5</ele><time>2026-04-18T07:00:51.888Z</time></trkpt><trkpt lat="43.51157358848882" lon="10.618345630768284"><ele>266.25</ele><time>2026-04-18T07:00:52.892Z</time></trkpt><trkpt lat="43.5116745" lon="10.618364833333333"><ele>264.0</ele><time>2026-04-18T07:00:53.89Z</time></trkpt><trkpt lat="43.5118515" lon="10.618486333333333"><ele>264.0</ele><time>2026-04-18T07:00:55.888Z</time></trkpt><trkpt lat="43.511929499999994" lon="10.618561000000001"><ele>264.0</ele><time>2026-04-18T07:00:56.889Z</time></trkpt><trkpt lat="43.51200633333333" lon="10.618639499999999"><ele>264.0</ele><time>2026-04-18T07:00:57.883Z</time></trkpt><trkpt lat="43.51208616666666" lon="10.618714333333333"><ele>264.0</ele><time>2026-04-18T07:00:59.959Z</time></trkpt><trkpt lat="43.512213833333334" lon="10.618811999999998"><ele>264.0</ele><time>2026-04-18T07:01:00.89Z</time></trkpt><trkpt lat="43.51235283333334" lon="10.618896166666664"><ele>261.75</ele><time>2026-04-18T07:01:01.882Z</time></trkpt><trkpt lat="43.51245116666667" lon="10.618948666666665"><ele>259.5</ele><time>2026-04-18T07:01:02.893Z</time></trkpt><trkpt lat="43.51255549999999" lon="10.618997999999998"><ele>257.25</ele><time>2026-04-18T07:01:03.894Z</time></trkpt><trkpt lat="43.51266366666667" lon="10.619045833333335"><ele>255.0</ele><time>2026-04-18T07:01:04.895Z</time></trkpt><trkpt lat="43.5128295" lon="10.619121333333332"><ele>250.5</ele><time>2026-04-18T07:01:09.009Z</time></trkpt><trkpt lat="43.51323233333332" lon="10.619319333333333"><ele>246.0</ele><time>2026-04-18T07:01:09.899Z</time></trkpt><trkpt lat="43.51346783333334" lon="10.619431666666665"><ele>246.0</ele><time>2026-04-18T07:01:11.893Z</time></trkpt><trkpt lat="43.51357966666666" lon="10.619483333333335"><ele>246.0</ele><time>2026-04-18T07:01:12.884Z</time></trkpt><trkpt lat="43.51368649999999" lon="10.619528833333334"><ele>246.0</ele><time>2026-04-18T07:01:13.893Z</time></trkpt><trkpt lat="43.513831166666655" lon="10.619591833333333"><ele>246.0</ele><time>2026-04-18T07:01:15.928Z</time></trkpt><trkpt lat="43.51391216666666" lon="10.619637833333336"><ele>244.0</ele><time>2026-04-18T07:01:16.887Z</time></trkpt><trkpt lat="43.513976" lon="10.619705666666668"><ele>242.00000000000003</ele><time>2026-04-18T07:01:17.893Z</time></trkpt><trkpt lat="43.51401916666667" lon="10.619788666666665"><ele>240.00000000000003</ele><time>2026-04-18T07:01:18.893Z</time></trkpt><trkpt lat="43.514068716331224" lon="10.619931434331289"><ele>238.0</ele><time>2026-04-18T07:01:19.889Z</time></trkpt><trkpt lat="43.51405782527079" lon="10.620053091706708"><ele>236.0</ele><time>2026-04-18T07:01:20.893Z</time></trkpt><trkpt lat="43.51402388592889" lon="10.620170833706128"><ele>236.0</ele><time>2026-04-18T07:01:21.898Z</time></trkpt><trkpt lat="43.51397887375851" lon="10.620288750323978"><ele>236.00000000000003</ele><time>2026-04-18T07:01:22.886Z</time></trkpt><trkpt lat="43.51392021902998" lon="10.620401901595816"><ele>236.00000000000003</ele><time>2026-04-18T07:01:23.89Z</time></trkpt><trkpt lat="43.51384326374248" lon="10.620502155316162"><ele>236.0</ele><time>2026-04-18T07:01:24.887Z</time></trkpt><trkpt lat="43.513755499999995" lon="10.620590333333332"><ele>236.0</ele><time>2026-04-18T07:01:25.895Z</time></trkpt><trkpt lat="43.51367950000001" lon="10.620699666666667"><ele>235.60000000000002</ele><time>2026-04-18T07:01:26.886Z</time></trkpt><trkpt lat="43.5136" lon="10.620805166666667"><ele>235.20000000000002</ele><time>2026-04-18T07:01:27.907Z</time></trkpt><trkpt lat="43.51352466666667" lon="10.620904166666666"><ele>234.79999999999998</ele><time>2026-04-18T07:01:28.892Z</time></trkpt><trkpt lat="43.51347387484218" lon="10.62101453431081"><ele>234.39999999999998</ele><time>2026-04-18T07:01:29.891Z</time></trkpt><trkpt lat="43.51343257800238" lon="10.621113009686313"><ele>234.0</ele><time>2026-04-18T07:01:30.89Z</time></trkpt><trkpt lat="43.5134085" lon="10.621272166666664"><ele>232.0</ele><time>2026-04-18T07:01:32.888Z</time></trkpt><trkpt lat="43.513474499999994" lon="10.621422666666668"><ele>230.0</ele><time>2026-04-18T07:01:33.892Z</time></trkpt><trkpt lat="43.51358920652847" lon="10.6215547111365"><ele>228.0</ele><time>2026-04-18T07:01:35.968Z</time></trkpt><trkpt lat="43.51369433423151" lon="10.621599871093421"><ele>226.0</ele><time>2026-04-18T07:01:36.887Z</time></trkpt><trkpt lat="43.513803936982086" lon="10.621632222833194"><ele>225.0</ele><time>2026-04-18T07:01:38.424Z</time></trkpt><trkpt lat="43.51391555686923" lon="10.621661525778135"><ele>224.0</ele><time>2026-04-18T07:01:39.338Z</time></trkpt><trkpt lat="43.514138" lon="10.6217685"><ele>223.0</ele><time>2026-04-18T07:01:40.889Z</time></trkpt><trkpt lat="43.51424316666666" lon="10.621847999999998"><ele>223.0</ele><time>2026-04-18T07:01:41.901Z</time></trkpt><trkpt lat="43.51435083333334" lon="10.621923166666667"><ele>223.0</ele><time>2026-04-18T07:01:42.885Z</time></trkpt><trkpt lat="43.514462" lon="10.621988333333336"><ele>223.0</ele><time>2026-04-18T07:01:43.89Z</time></trkpt><trkpt lat="43.51457186823189" lon="10.622067075355446"><ele>223.0</ele><time>2026-04-18T07:01:44.885Z</time></trkpt><trkpt lat="43.51469294836107" lon="10.622108604843605"><ele>220.75</ele><time>2026-04-18T07:01:45.891Z</time></trkpt><trkpt lat="43.5148178149852" lon="10.622141447626342"><ele>218.5</ele><time>2026-04-18T07:01:46.902Z</time></trkpt><trkpt lat="43.51494614250975" lon="10.62217057562358"><ele>216.25</ele><time>2026-04-18T07:01:47.894Z</time></trkpt><trkpt lat="43.51507705717866" lon="10.62219551064599"><ele>214.0</ele><time>2026-04-18T07:01:48.902Z</time></trkpt><trkpt lat="43.51521143369053" lon="10.622215113819504"><ele>214.0</ele><time>2026-04-18T07:01:49.907Z</time></trkpt><trkpt lat="43.51534906959265" lon="10.622224722685791"><ele>214.0</ele><time>2026-04-18T07:01:50.903Z</time></trkpt><trkpt lat="43.51548859625071" lon="10.622227689165168"><ele>214.0</ele><time>2026-04-18T07:01:51.887Z</time></trkpt><trkpt lat="43.515629499999996" lon="10.622227478927373"><ele>214.0</ele><time>2026-04-18T07:01:52.897Z</time></trkpt><trkpt lat="43.51577132354022" lon="10.62222323722444"><ele>212.5</ele><time>2026-04-18T07:01:53.899Z</time></trkpt><trkpt lat="43.515912381133184" lon="10.62222829487905"><ele>211.0</ele><time>2026-04-18T07:01:54.892Z</time></trkpt><trkpt lat="43.51605083333334" lon="10.622236999999998"><ele>209.5</ele><time>2026-04-18T07:01:55.899Z</time></trkpt><trkpt lat="43.51617783333332" lon="10.622295000000001"><ele>208.0</ele><time>2026-04-18T07:01:56.901Z</time></trkpt><trkpt lat="43.516294" lon="10.622372666666667"><ele>206.75</ele><time>2026-04-18T07:01:57.893Z</time></trkpt><trkpt lat="43.516397999999995" lon="10.622466666666666"><ele>205.5</ele><time>2026-04-18T07:01:58.888Z</time></trkpt><trkpt lat="43.516492333333325" lon="10.622575666666668"><ele>204.25</ele><time>2026-04-18T07:01:59.895Z</time></trkpt><trkpt lat="43.51657749999999" lon="10.622698500000002"><ele>203.0</ele><time>2026-04-18T07:02:00.892Z</time></trkpt><trkpt lat="43.516652166666674" lon="10.622835666666667"><ele>202.66666666666669</ele><time>2026-04-18T07:02:01.889Z</time></trkpt><trkpt lat="43.516715000000005" lon="10.622984833333332"><ele>202.33333333333331</ele><time>2026-04-18T07:02:02.895Z</time></trkpt><trkpt lat="43.51676900000001" lon="10.623142833333336"><ele>202.0</ele><time>2026-04-18T07:02:03.9Z</time></trkpt><trkpt lat="43.51686183333333" lon="10.623467999999999"><ele>202.0</ele><time>2026-04-18T07:02:05.893Z</time></trkpt><trkpt lat="43.516900166666666" lon="10.623622166666665"><ele>202.0</ele><time>2026-04-18T07:02:06.892Z</time></trkpt><trkpt lat="43.516940000000005" lon="10.623764999999999"><ele>202.0</ele><time>2026-04-18T07:02:08.673Z</time></trkpt><trkpt lat="43.51712633333333" lon="10.624026833333335"><ele>199.5</ele><time>2026-04-18T07:02:09.896Z</time></trkpt><trkpt lat="43.5172335" lon="10.624089833333334"><ele>197.0</ele><time>2026-04-18T07:02:10.916Z</time></trkpt><trkpt lat="43.51735433333334" lon="10.624134333333332"><ele>194.5</ele><time>2026-04-18T07:02:11.897Z</time></trkpt><trkpt lat="43.51748583333333" lon="10.624169166666665"><ele>192.0</ele><time>2026-04-18T07:02:13.343Z</time></trkpt><trkpt lat="43.51769366666667" lon="10.624219833333333"><ele>192.0</ele><time>2026-04-18T07:02:14.893Z</time></trkpt><trkpt lat="43.517836" lon="10.624255833333333"><ele>192.0</ele><time>2026-04-18T07:02:15.892Z</time></trkpt><trkpt lat="43.51798099999999" lon="10.624291999999999"><ele>192.0</ele><time>2026-04-18T07:02:16.904Z</time></trkpt><trkpt lat="43.51812224450129" lon="10.624350402918274"><ele>192.0</ele><time>2026-04-18T07:02:17.894Z</time></trkpt><trkpt lat="43.518268666666664" lon="10.624365666666666"><ele>189.0</ele><time>2026-04-18T07:02:18.893Z</time></trkpt><trkpt lat="43.518410333333335" lon="10.624402166666668"><ele>186.0</ele><time>2026-04-18T07:02:19.904Z</time></trkpt><trkpt lat="43.518549666666665" lon="10.624439"><ele>183.0</ele><time>2026-04-18T07:02:20.898Z</time></trkpt><trkpt lat="43.518685166666664" lon="10.6244745"><ele>180.0</ele><time>2026-04-18T07:02:21.888Z</time></trkpt><trkpt lat="43.51881616666667" lon="10.624508666666667"><ele>178.0</ele><time>2026-04-18T07:02:22.892Z</time></trkpt><trkpt lat="43.518941500000004" lon="10.624543166666669"><ele>176.0</ele><time>2026-04-18T07:02:24.138Z</time></trkpt><trkpt lat="43.519152" lon="10.6246055"><ele>174.0</ele><time>2026-04-18T07:02:25.896Z</time></trkpt><trkpt lat="43.51923566666666" lon="10.62463733333333"><ele>172.0</ele><time>2026-04-18T07:02:26.892Z</time></trkpt><trkpt lat="43.51930033333333" lon="10.624668499999999"><ele>172.0</ele><time>2026-04-18T07:02:27.887Z</time></trkpt><trkpt lat="43.519376666666666" lon="10.624711999999999"><ele>172.0</ele><time>2026-04-18T07:02:29.885Z</time></trkpt><trkpt lat="43.51947100000001" lon="10.6247445"><ele>172.0</ele><time>2026-04-18T07:02:32.979Z</time></trkpt><trkpt lat="43.51956666666667" lon="10.624780999999999"><ele>172.0</ele><time>2026-04-18T07:02:34.888Z</time></trkpt><trkpt lat="43.519654333333335" lon="10.624859333333331"><ele>172.0</ele><time>2026-04-18T07:02:35.898Z</time></trkpt><trkpt lat="43.51975866666667" lon="10.624961499999998"><ele>170.25</ele><time>2026-04-18T07:02:37.884Z</time></trkpt><trkpt lat="43.519836166666664" lon="10.625035833333333"><ele>168.5</ele><time>2026-04-18T07:02:38.89Z</time></trkpt><trkpt lat="43.519919333333334" lon="10.625112333333334"><ele>166.75</ele><time>2026-04-18T07:02:39.884Z</time></trkpt><trkpt lat="43.5200075" lon="10.625191833333334"><ele>165.0</ele><time>2026-04-18T07:02:40.895Z</time></trkpt><trkpt lat="43.520145666666664" lon="10.625311833333335"><ele>164.75</ele><time>2026-04-18T07:02:41.891Z</time></trkpt><trkpt lat="43.520286500000005" lon="10.625419166666665"><ele>164.5</ele><time>2026-04-18T07:02:43.906Z</time></trkpt><trkpt lat="43.520373166666666" lon="10.625480000000001"><ele>164.25</ele><time>2026-04-18T07:02:44.885Z</time></trkpt><trkpt lat="43.52044949999999" lon="10.6255405"><ele>164.0</ele><time>2026-04-18T07:02:45.889Z</time></trkpt><trkpt lat="43.520529833333335" lon="10.625671833333335"><ele>164.0</ele><time>2026-04-18T07:02:46.898Z</time></trkpt><trkpt lat="43.5205825" lon="10.625825666666666"><ele>164.0</ele><time>2026-04-18T07:02:48.89Z</time></trkpt><trkpt lat="43.520613166666664" lon="10.625928833333335"><ele>164.0</ele><time>2026-04-18T07:02:49.891Z</time></trkpt><trkpt lat="43.52066133333333" lon="10.626074500000001"><ele>164.0</ele><time>2026-04-18T07:02:50.881Z</time></trkpt><trkpt lat="43.52070266666666" lon="10.626161000000002"><ele>164.0</ele><time>2026-04-18T07:02:51.886Z</time></trkpt><trkpt lat="43.5207535" lon="10.626230166666668"><ele>164.0</ele><time>2026-04-18T07:02:52.896Z</time></trkpt><trkpt lat="43.52080966666667" lon="10.626279166666665"><ele>164.0</ele><time>2026-04-18T07:02:53.892Z</time></trkpt><trkpt lat="43.520869833333336" lon="10.626317166666668"><ele>164.0</ele><time>2026-04-18T07:02:54.913Z</time></trkpt><trkpt lat="43.52093433333333" lon="10.626352666666666"><ele>164.0</ele><time>2026-04-18T07:02:55.883Z</time></trkpt><trkpt lat="43.52100166666668" lon="10.626391166666668"><ele>164.0</ele><time>2026-04-18T07:02:56.899Z</time></trkpt><trkpt lat="43.52107266666667" lon="10.626432833333334"><ele>164.0</ele><time>2026-04-18T07:02:57.891Z</time></trkpt><trkpt lat="43.52118399999999" lon="10.626504"><ele>163.39999999999998</ele><time>2026-04-18T07:02:59.898Z</time></trkpt><trkpt lat="43.52126283333334" lon="10.626555666666665"><ele>162.8</ele><time>2026-04-18T07:03:00.899Z</time></trkpt><trkpt lat="43.5213465" lon="10.626610999999999"><ele>162.2</ele><time>2026-04-18T07:03:01.899Z</time></trkpt><trkpt lat="43.521436166666675" lon="10.626666166666666"><ele>161.60000000000002</ele><time>2026-04-18T07:03:02.897Z</time></trkpt><trkpt lat="43.5215305" lon="10.626721333333334"><ele>161.0</ele><time>2026-04-18T07:03:03.887Z</time></trkpt><trkpt lat="43.52162750000001" lon="10.626776833333333"><ele>161.0</ele><time>2026-04-18T07:03:04.887Z</time></trkpt><trkpt lat="43.52172616666666" lon="10.6268315"><ele>161.0</ele><time>2026-04-18T07:03:05.887Z</time></trkpt><trkpt lat="43.52182666666666" lon="10.626881500000001"><ele>161.0</ele><time>2026-04-18T07:03:06.889Z</time></trkpt><trkpt lat="43.521928499999994" lon="10.626926166666665"><ele>161.0</ele><time>2026-04-18T07:03:07.886Z</time></trkpt><trkpt lat="43.522031166666665" lon="10.626966666666664"><ele>161.0</ele><time>2026-04-18T07:03:08.9Z</time></trkpt><trkpt lat="43.52213533333334" lon="10.6269995"><ele>160.20000000000002</ele><time>2026-04-18T07:03:09.904Z</time></trkpt><trkpt lat="43.52224133333334" lon="10.627032000000002"><ele>159.4</ele><time>2026-04-18T07:03:10.886Z</time></trkpt><trkpt lat="43.5223479196255" lon="10.627085115963759"><ele>158.6</ele><time>2026-04-18T07:03:11.884Z</time></trkpt><trkpt lat="43.52245877298654" lon="10.627118073098558"><ele>157.8</ele><time>2026-04-18T07:03:12.892Z</time></trkpt><trkpt lat="43.52256569904463" lon="10.627148286782159"><ele>157.0</ele><time>2026-04-18T07:03:13.884Z</time></trkpt><trkpt lat="43.522670075359656" lon="10.627177779995694"><ele>157.0</ele><time>2026-04-18T07:03:14.891Z</time></trkpt><trkpt lat="43.522773523764016" lon="10.627207011013072"><ele>157.0</ele><time>2026-04-18T07:03:15.91Z</time></trkpt><trkpt lat="43.52287833333333" lon="10.627215333333334"><ele>157.0</ele><time>2026-04-18T07:03:16.89Z</time></trkpt><trkpt lat="43.522975499999994" lon="10.6272515"><ele>157.0</ele><time>2026-04-18T07:03:17.893Z</time></trkpt><trkpt lat="43.52306616666666" lon="10.627286333333332"><ele>157.0</ele><time>2026-04-18T07:03:18.892Z</time></trkpt><trkpt lat="43.52314933333334" lon="10.627330333333335"><ele>155.83333333333334</ele><time>2026-04-18T07:03:19.888Z</time></trkpt><trkpt lat="43.52322083333333" lon="10.627397833333335"><ele>154.66666666666669</ele><time>2026-04-18T07:03:20.886Z</time></trkpt><trkpt lat="43.52328083333334" lon="10.627481499999998"><ele>153.5</ele><time>2026-04-18T07:03:21.897Z</time></trkpt><trkpt lat="43.523337000000005" lon="10.627567833333334"><ele>152.33333333333334</ele><time>2026-04-18T07:03:22.894Z</time></trkpt><trkpt lat="43.523393500000005" lon="10.6276505"><ele>151.16666666666666</ele><time>2026-04-18T07:03:23.906Z</time></trkpt><trkpt lat="43.52345566666666" lon="10.62771616666667"><ele>150.0</ele><time>2026-04-18T07:03:24.894Z</time></trkpt><trkpt lat="43.523524" lon="10.627755166666669"><ele>150.0</ele><time>2026-04-18T07:03:25.902Z</time></trkpt><trkpt lat="43.523592344070366" lon="10.627801580912042"><ele>150.0</ele><time>2026-04-18T07:03:26.896Z</time></trkpt><trkpt lat="43.523677780282696" lon="10.627809783681586"><ele>150.0</ele><time>2026-04-18T07:03:27.89Z</time></trkpt><trkpt lat="43.523757256785814" lon="10.627798706819522"><ele>150.0</ele><time>2026-04-18T07:03:28.897Z</time></trkpt><trkpt lat="43.523873197182" lon="10.627792135801494"><ele>150.0</ele><time>2026-04-18T07:03:29.891Z</time></trkpt><trkpt lat="43.52397944578811" lon="10.627800230189127"><ele>148.8</ele><time>2026-04-18T07:03:31.896Z</time></trkpt><trkpt lat="43.52404297812547" lon="10.627811038001687"><ele>147.6</ele><time>2026-04-18T07:03:32.894Z</time></trkpt><trkpt lat="43.524150876421665" lon="10.627824386919977"><ele>146.4</ele><time>2026-04-18T07:03:34.886Z</time></trkpt><trkpt lat="43.52421393338045" lon="10.627811751910116"><ele>145.2</ele><time>2026-04-18T07:03:36.893Z</time></trkpt><trkpt lat="43.52427860939014" lon="10.627653147328969"><ele>144.0</ele><time>2026-04-18T07:03:37.885Z</time></trkpt><trkpt lat="43.524263649504285" lon="10.627521258000018"><ele>143.83333333333334</ele><time>2026-04-18T07:03:39.914Z</time></trkpt><trkpt lat="43.524262986110486" lon="10.627377686574787"><ele>143.66666666666666</ele><time>2026-04-18T07:03:41.883Z</time></trkpt><trkpt lat="43.52427299832133" lon="10.62727889125081"><ele>143.5</ele><time>2026-04-18T07:03:42.895Z</time></trkpt><trkpt lat="43.52428458800983" lon="10.627173472723047"><ele>143.33333333333331</ele><time>2026-04-18T07:03:43.889Z</time></trkpt><trkpt lat="43.52429706666269" lon="10.627064920957201"><ele>143.16666666666666</ele><time>2026-04-18T07:03:44.888Z</time></trkpt><trkpt lat="43.52430967106943" lon="10.626956100041"><ele>143.0</ele><time>2026-04-18T07:03:45.892Z</time></trkpt><trkpt lat="43.52432185406779" lon="10.626846641846406"><ele>143.0</ele><time>2026-04-18T07:03:46.89Z</time></trkpt><trkpt lat="43.52433335204149" lon="10.626739564504016"><ele>143.0</ele><time>2026-04-18T07:03:47.901Z</time></trkpt><trkpt lat="43.524344663960896" lon="10.626634219829231"><ele>143.0</ele><time>2026-04-18T07:03:48.897Z</time></trkpt><trkpt lat="43.524360281205205" lon="10.626481158305639"><ele>143.0</ele><time>2026-04-18T07:03:49.898Z</time></trkpt><trkpt lat="43.52440386400942" lon="10.626332622399278"><ele>143.0</ele><time>2026-04-18T07:03:51.892Z</time></trkpt><trkpt lat="43.52444630543423" lon="10.626256674435723"><ele>143.0</ele><time>2026-04-18T07:03:53.89Z</time></trkpt><trkpt lat="43.5245107810167" lon="10.626160806010397"><ele>143.0</ele><time>2026-04-18T07:03:55.885Z</time></trkpt><trkpt lat="43.52456287062496" lon="10.626080793551044"><ele>143.0</ele><time>2026-04-18T07:03:58.891Z</time></trkpt><trkpt lat="43.524622526596296" lon="10.62598111426295"><ele>143.0</ele><time>2026-04-18T07:04:00.889Z</time></trkpt><trkpt lat="43.52470961679819" lon="10.625848303827134"><ele>143.0</ele><time>2026-04-18T07:04:02.893Z</time></trkpt><trkpt lat="43.52476374055646" lon="10.625768021420312"><ele>141.16666666666666</ele><time>2026-04-18T07:04:03.89Z</time></trkpt><trkpt lat="43.5248195816659" lon="10.625680649558259"><ele>139.33333333333331</ele><time>2026-04-18T07:04:04.892Z</time></trkpt><trkpt lat="43.52487368709305" lon="10.625592696013479"><ele>137.5</ele><time>2026-04-18T07:04:05.895Z</time></trkpt><trkpt lat="43.524926958911436" lon="10.625506097579272"><ele>135.66666666666666</ele><time>2026-04-18T07:04:06.885Z</time></trkpt><trkpt lat="43.524978271332735" lon="10.625421396535616"><ele>133.83333333333334</ele><time>2026-04-18T07:04:07.881Z</time></trkpt><trkpt lat="43.52502702532674" lon="10.625338774971821"><ele>132.0</ele><time>2026-04-18T07:04:08.895Z</time></trkpt><trkpt lat="43.52507405694676" lon="10.625259072250474"><ele>131.33333333333334</ele><time>2026-04-18T07:04:09.897Z</time></trkpt><trkpt lat="43.52512138926229" lon="10.625182974936182"><ele>130.66666666666666</ele><time>2026-04-18T07:04:10.895Z</time></trkpt><trkpt lat="43.525169241145825" lon="10.625108164440242"><ele>130.0</ele><time>2026-04-18T07:04:11.88Z</time></trkpt><trkpt lat="43.525218729063695" lon="10.625035434456157"><ele>129.33333333333331</ele><time>2026-04-18T07:04:12.879Z</time></trkpt><trkpt lat="43.52527110588353" lon="10.624963683057624"><ele>128.66666666666666</ele><time>2026-04-18T07:04:13.888Z</time></trkpt><trkpt lat="43.525329983941724" lon="10.624890577401217"><ele>128.0</ele><time>2026-04-18T07:04:14.901Z</time></trkpt><trkpt lat="43.52539309413387" lon="10.624812216934815"><ele>127.4</ele><time>2026-04-18T07:04:15.885Z</time></trkpt><trkpt lat="43.52546033707786" lon="10.624728725058068"><ele>126.80000000000001</ele><time>2026-04-18T07:04:16.892Z</time></trkpt><trkpt lat="43.52552910867902" lon="10.624643141656433"><ele>126.2</ele><time>2026-04-18T07:04:17.894Z</time></trkpt><trkpt lat="43.52559906880432" lon="10.624556075294295"><ele>125.6</ele><time>2026-04-18T07:04:18.893Z</time></trkpt><trkpt lat="43.525703296824425" lon="10.624423371399569"><ele>125.0</ele><time>2026-04-18T07:04:19.898Z</time></trkpt><trkpt lat="43.52577341000027" lon="10.624336457803327"><ele>123.25</ele><time>2026-04-18T07:04:20.904Z</time></trkpt><trkpt lat="43.525846219444915" lon="10.624250519829022"><ele>121.5</ele><time>2026-04-18T07:04:21.897Z</time></trkpt><trkpt lat="43.52591978982255" lon="10.624154280216786"><ele>119.75</ele><time>2026-04-18T07:04:22.9Z</time></trkpt><trkpt lat="43.526047734599" lon="10.623945514202534"><ele>118.0</ele><time>2026-04-18T07:04:24.898Z</time></trkpt><trkpt lat="43.526104900083304" lon="10.62384767956442"><ele>118.00000000000001</ele><time>2026-04-18T07:04:25.891Z</time></trkpt><trkpt lat="43.526157457235456" lon="10.623759006271941"><ele>118.0</ele><time>2026-04-18T07:04:26.889Z</time></trkpt><trkpt lat="43.526204948102254" lon="10.623678480735078"><ele>118.0</ele><time>2026-04-18T07:04:27.907Z</time></trkpt><trkpt lat="43.52624193414812" lon="10.623605156102869"><ele>118.0</ele><time>2026-04-18T07:04:28.889Z</time></trkpt><trkpt lat="43.52627088047279" lon="10.623419161506126"><ele>118.00000000000001</ele><time>2026-04-18T07:04:30.886Z</time></trkpt><trkpt lat="43.52625819847067" lon="10.623318751625094"><ele>118.0</ele><time>2026-04-18T07:04:31.888Z</time></trkpt><trkpt lat="43.52621937790376" lon="10.623220085373598"><ele>117.83333333333334</ele><time>2026-04-18T07:04:32.892Z</time></trkpt><trkpt lat="43.52617357178527" lon="10.623133410455296"><ele>117.66666666666667</ele><time>2026-04-18T07:04:33.894Z</time></trkpt><trkpt lat="43.526121810370945" lon="10.623046287151753"><ele>117.5</ele><time>2026-04-18T07:04:34.897Z</time></trkpt><trkpt lat="43.52606569370216" lon="10.622960131465051"><ele>117.33333333333334</ele><time>2026-04-18T07:04:35.889Z</time></trkpt><trkpt lat="43.52600870614939" lon="10.622879150255068"><ele>117.16666666666667</ele><time>2026-04-18T07:04:36.907Z</time></trkpt><trkpt lat="43.52594669297555" lon="10.62280003350156"><ele>117.0</ele><time>2026-04-18T07:04:37.897Z</time></trkpt><trkpt lat="43.52588277889604" lon="10.622727606009823"><ele>115.83333333333333</ele><time>2026-04-18T07:04:38.891Z</time></trkpt><trkpt lat="43.52581287508699" lon="10.622662080632823"><ele>114.66666666666666</ele><time>2026-04-18T07:04:39.91Z</time></trkpt><trkpt lat="43.525741908371955" lon="10.622600375776056"><ele>113.5</ele><time>2026-04-18T07:04:40.891Z</time></trkpt><trkpt lat="43.52566580616408" lon="10.622538869002861"><ele>112.33333333333333</ele><time>2026-04-18T07:04:41.901Z</time></trkpt><trkpt lat="43.52559173123898" lon="10.62247535507123"><ele>111.16666666666666</ele><time>2026-04-18T07:04:42.885Z</time></trkpt><trkpt lat="43.52552460543291" lon="10.62240609642713"><ele>110.0</ele><time>2026-04-18T07:04:43.897Z</time></trkpt><trkpt lat="43.525461160833785" lon="10.622338752128854"><ele>110.0</ele><time>2026-04-18T07:04:44.892Z</time></trkpt><trkpt lat="43.52539049003932" lon="10.622246020746895"><ele>110.0</ele><time>2026-04-18T07:04:46.893Z</time></trkpt><trkpt lat="43.52531316666666" lon="10.6221135"><ele>110.0</ele><time>2026-04-18T07:04:48.9Z</time></trkpt><trkpt lat="43.52525874163489" lon="10.621916131031474"><ele>110.0</ele><time>2026-04-18T07:04:50.9Z</time></trkpt><trkpt lat="43.52523965093351" lon="10.621761666666664"><ele>110.49999999999999</ele><time>2026-04-18T07:04:52.888Z</time></trkpt><trkpt lat="43.52526937871442" lon="10.621679737578788"><ele>111.0</ele><time>2026-04-18T07:04:54.893Z</time></trkpt><trkpt lat="43.52532413102069" lon="10.621584450114028"><ele>111.5</ele><time>2026-04-18T07:04:56.912Z</time></trkpt><trkpt lat="43.5254275" lon="10.621531666666666"><ele>112.0</ele><time>2026-04-18T07:04:59.902Z</time></trkpt><trkpt lat="43.52549470252227" lon="10.621554761303408"><ele>112.49999999999999</ele><time>2026-04-18T07:05:00.909Z</time></trkpt><trkpt lat="43.52557750005174" lon="10.621556614980515"><ele>113.0</ele><time>2026-04-18T07:05:01.909Z</time></trkpt><trkpt lat="43.525672958911926" lon="10.621558752120608"><ele>113.0</ele><time>2026-04-18T07:05:02.896Z</time></trkpt><trkpt lat="43.52577722900995" lon="10.621561086527223"><ele>113.0</ele><time>2026-04-18T07:05:03.923Z</time></trkpt><trkpt lat="43.52588791155805" lon="10.621563380062744"><ele>113.0</ele><time>2026-04-18T07:05:04.884Z</time></trkpt><trkpt lat="43.526002242941594" lon="10.621565572125604"><ele>113.0</ele><time>2026-04-18T07:05:05.896Z</time></trkpt><trkpt lat="43.52624111607124" lon="10.621570152013307"><ele>112.25</ele><time>2026-04-18T07:05:07.894Z</time></trkpt><trkpt lat="43.526364489686074" lon="10.621572517441718"><ele>111.5</ele><time>2026-04-18T07:05:08.943Z</time></trkpt><trkpt lat="43.52648836827852" lon="10.621574892551685"><ele>110.75</ele><time>2026-04-18T07:05:09.883Z</time></trkpt><trkpt lat="43.526609458152805" lon="10.621578420997134"><ele>110.0</ele><time>2026-04-18T07:05:10.911Z</time></trkpt><trkpt lat="43.52683699999999" lon="10.621563666666667"><ele>110.0</ele><time>2026-04-18T07:05:12.893Z</time></trkpt><trkpt lat="43.526992333333325" lon="10.621566333333332"><ele>110.0</ele><time>2026-04-18T07:05:14.887Z</time></trkpt><trkpt lat="43.5270905" lon="10.621567833333332"><ele>110.0</ele><time>2026-04-18T07:05:15.902Z</time></trkpt><trkpt lat="43.527187833333336" lon="10.621570833333333"><ele>110.0</ele><time>2026-04-18T07:05:16.888Z</time></trkpt><trkpt lat="43.52733266666667" lon="10.621576000000001"><ele>108.75</ele><time>2026-04-18T07:05:17.89Z</time></trkpt><trkpt lat="43.52747833333333" lon="10.621566833333334"><ele>107.5</ele><time>2026-04-18T07:05:19.89Z</time></trkpt><trkpt lat="43.52757566666667" lon="10.621540999999997"><ele>106.25</ele><time>2026-04-18T07:05:20.895Z</time></trkpt><trkpt lat="43.527679905383195" lon="10.621533274732757"><ele>105.0</ele><time>2026-04-18T07:05:21.891Z</time></trkpt><trkpt lat="43.527778175074474" lon="10.621481917533316"><ele>105.0</ele><time>2026-04-18T07:05:22.891Z</time></trkpt><trkpt lat="43.52787629101139" lon="10.621429072979392"><ele>105.0</ele><time>2026-04-18T07:05:23.895Z</time></trkpt><trkpt lat="43.527976718561376" lon="10.621374983406582"><ele>105.0</ele><time>2026-04-18T07:05:24.898Z</time></trkpt><trkpt lat="43.52812955040398" lon="10.621293483455263"><ele>105.0</ele><time>2026-04-18T07:05:25.906Z</time></trkpt><trkpt lat="43.52823334674399" lon="10.621238785686867"><ele>105.0</ele><time>2026-04-18T07:05:26.896Z</time></trkpt><trkpt lat="43.528337624249104" lon="10.621185354356678"><ele>105.0</ele><time>2026-04-18T07:05:27.909Z</time></trkpt><trkpt lat="43.52844463463352" lon="10.62113490538672"><ele>105.0</ele><time>2026-04-18T07:05:28.887Z</time></trkpt><trkpt lat="43.52855238588929" lon="10.6210872912059"><ele>105.0</ele><time>2026-04-18T07:05:29.914Z</time></trkpt><trkpt lat="43.52866219349123" lon="10.621040321141932"><ele>103.5</ele><time>2026-04-18T07:05:30.891Z</time></trkpt><trkpt lat="43.528772978182104" lon="10.620994397588142"><ele>102.0</ele><time>2026-04-18T07:05:31.894Z</time></trkpt><trkpt lat="43.52888547090645" lon="10.620950881546953"><ele>100.5</ele><time>2026-04-18T07:05:32.889Z</time></trkpt><trkpt lat="43.52899792176956" lon="10.62091395137461"><ele>99.0</ele><time>2026-04-18T07:05:33.892Z</time></trkpt><trkpt lat="43.52911116270618" lon="10.620888202281463"><ele>99.0</ele><time>2026-04-18T07:05:34.893Z</time></trkpt><trkpt lat="43.52921932878992" lon="10.620874522423623"><ele>99.0</ele><time>2026-04-18T07:05:35.895Z</time></trkpt><trkpt lat="43.529379166666665" lon="10.620864784806972"><ele>99.0</ele><time>2026-04-18T07:05:37.895Z</time></trkpt><trkpt lat="43.52948368796911" lon="10.620865532504208"><ele>99.0</ele><time>2026-04-18T07:05:38.893Z</time></trkpt><trkpt lat="43.52958605214783" lon="10.620874943418434"><ele>98.0</ele><time>2026-04-18T07:05:39.894Z</time></trkpt><trkpt lat="43.529691500000006" lon="10.620867833333334"><ele>97.0</ele><time>2026-04-18T07:05:40.889Z</time></trkpt><trkpt lat="43.52979125734665" lon="10.620918439631298"><ele>96.0</ele><time>2026-04-18T07:05:41.916Z</time></trkpt><trkpt lat="43.52989523147409" lon="10.620947613805848"><ele>95.0</ele><time>2026-04-18T07:05:42.893Z</time></trkpt><trkpt lat="43.53005326160904" lon="10.620991955599727"><ele>95.0</ele><time>2026-04-18T07:05:43.893Z</time></trkpt><trkpt lat="43.53015494823153" lon="10.621020487923479"><ele>95.0</ele><time>2026-04-18T07:05:44.885Z</time></trkpt><trkpt lat="43.53025147841472" lon="10.621047573399855"><ele>95.0</ele><time>2026-04-18T07:05:45.89Z</time></trkpt><trkpt lat="43.53034621402697" lon="10.621073305262316"><ele>95.0</ele><time>2026-04-18T07:05:46.887Z</time></trkpt><trkpt lat="43.53044099270515" lon="10.62109330145259"><ele>95.0</ele><time>2026-04-18T07:05:47.905Z</time></trkpt><trkpt lat="43.530539166666664" lon="10.621103584834913"><ele>93.6</ele><time>2026-04-18T07:05:48.895Z</time></trkpt><trkpt lat="43.530635648035116" lon="10.621098343610756"><ele>92.2</ele><time>2026-04-18T07:05:49.896Z</time></trkpt><trkpt lat="43.530732306176894" lon="10.621074508391525"><ele>90.80000000000001</ele><time>2026-04-18T07:05:50.903Z</time></trkpt><trkpt lat="43.530824606819394" lon="10.621037669444645"><ele>89.4</ele><time>2026-04-18T07:05:51.892Z</time></trkpt><trkpt lat="43.530908966051435" lon="10.620971696790141"><ele>88.0</ele><time>2026-04-18T07:05:52.899Z</time></trkpt><trkpt lat="43.53098213897714" lon="10.620883579606033"><ele>88.0</ele><time>2026-04-18T07:05:53.885Z</time></trkpt><trkpt lat="43.531042277365074" lon="10.620781761327837"><ele>88.0</ele><time>2026-04-18T07:05:54.885Z</time></trkpt><trkpt lat="43.53109312339179" lon="10.62067546653788"><ele>88.0</ele><time>2026-04-18T07:05:55.896Z</time></trkpt><trkpt lat="43.531139816823014" lon="10.620571101581406"><ele>88.0</ele><time>2026-04-18T07:05:56.891Z</time></trkpt><trkpt lat="43.531183277802626" lon="10.620469899263314"><ele>88.0</ele><time>2026-04-18T07:05:57.89Z</time></trkpt><trkpt lat="43.53122332093444" lon="10.620376095413901"><ele>88.0</ele><time>2026-04-18T07:05:58.9Z</time></trkpt><trkpt lat="43.53126111554531" lon="10.620287558894239"><ele>86.66666666666666</ele><time>2026-04-18T07:05:59.887Z</time></trkpt><trkpt lat="43.53129854824962" lon="10.62019987023759"><ele>85.33333333333333</ele><time>2026-04-18T07:06:00.882Z</time></trkpt><trkpt lat="43.53133433679915" lon="10.620116033066823"><ele>84.0</ele><time>2026-04-18T07:06:01.892Z</time></trkpt><trkpt lat="43.53138862741048" lon="10.619988853634032"><ele>82.66666666666667</ele><time>2026-04-18T07:06:03.907Z</time></trkpt><trkpt lat="43.53142371782106" lon="10.619912206218066"><ele>81.33333333333334</ele><time>2026-04-18T07:06:05.889Z</time></trkpt><trkpt lat="43.53147836972115" lon="10.619807511338836"><ele>80.0</ele><time>2026-04-18T07:06:08.884Z</time></trkpt><trkpt lat="43.531530147590146" lon="10.61972530275397"><ele>80.0</ele><time>2026-04-18T07:06:10.892Z</time></trkpt><trkpt lat="43.53159179347455" lon="10.619648968312832"><ele>80.0</ele><time>2026-04-18T07:06:12.891Z</time></trkpt><trkpt lat="43.53167193612074" lon="10.619562607691307"><ele>80.0</ele><time>2026-04-18T07:06:13.89Z</time></trkpt><trkpt lat="43.53173568467348" lon="10.619517308154187"><ele>80.0</ele><time>2026-04-18T07:06:14.885Z</time></trkpt><trkpt lat="43.531803183938145" lon="10.619476456210355"><ele>80.0</ele><time>2026-04-18T07:06:15.899Z</time></trkpt><trkpt lat="43.53187671987394" lon="10.619437748577566"><ele>80.0</ele><time>2026-04-18T07:06:16.911Z</time></trkpt><trkpt lat="43.53195348513805" lon="10.61940275969912"><ele>80.2</ele><time>2026-04-18T07:06:17.891Z</time></trkpt><trkpt lat="43.532034358430316" lon="10.619372616143274"><ele>80.4</ele><time>2026-04-18T07:06:18.892Z</time></trkpt><trkpt lat="43.53212066666667" lon="10.6193295"><ele>80.6</ele><time>2026-04-18T07:06:19.895Z</time></trkpt><trkpt lat="43.53221436350819" lon="10.619343165433255"><ele>80.8</ele><time>2026-04-18T07:06:20.891Z</time></trkpt><trkpt lat="43.532308179030025" lon="10.619347623876324"><ele>81.0</ele><time>2026-04-18T07:06:21.888Z</time></trkpt><trkpt lat="43.53240541066874" lon="10.619364938694694"><ele>79.0</ele><time>2026-04-18T07:06:22.881Z</time></trkpt><trkpt lat="43.53250510713679" lon="10.619386648681761"><ele>77.0</ele><time>2026-04-18T07:06:23.888Z</time></trkpt><trkpt lat="43.53271144498893" lon="10.619442086280614"><ele>75.0</ele><time>2026-04-18T07:06:25.89Z</time></trkpt><trkpt lat="43.532817476542206" lon="10.61947170625352"><ele>73.0</ele><time>2026-04-18T07:06:26.907Z</time></trkpt><trkpt lat="43.532924295986504" lon="10.619501546200372"><ele>72.0</ele><time>2026-04-18T07:06:27.896Z</time></trkpt><trkpt lat="43.53303085094349" lon="10.619535944387732"><ele>71.0</ele><time>2026-04-18T07:06:28.884Z</time></trkpt><trkpt lat="43.53319225323229" lon="10.61958658199739"><ele>70.0</ele><time>2026-04-18T07:06:30.894Z</time></trkpt><trkpt lat="43.533357725449434" lon="10.619637863990391"><ele>69.0</ele><time>2026-04-18T07:06:31.889Z</time></trkpt><trkpt lat="43.533474" lon="10.619649166666667"><ele>69.0</ele><time>2026-04-18T07:06:32.887Z</time></trkpt><trkpt lat="43.53358916666666" lon="10.619682333333332"><ele>69.0</ele><time>2026-04-18T07:06:33.887Z</time></trkpt><trkpt lat="43.533702554023634" lon="10.619738754669761"><ele>69.0</ele><time>2026-04-18T07:06:34.889Z</time></trkpt><trkpt lat="43.53394049730989" lon="10.619809776527381"><ele>68.66666666666667</ele><time>2026-04-18T07:06:36.892Z</time></trkpt><trkpt lat="43.53412034596819" lon="10.619862008569811"><ele>68.33333333333334</ele><time>2026-04-18T07:06:38.893Z</time></trkpt><trkpt lat="43.534240584009275" lon="10.619894135920083"><ele>68.0</ele><time>2026-04-18T07:06:39.899Z</time></trkpt><trkpt lat="43.534423655688606" lon="10.619926546242954"><ele>68.0</ele><time>2026-04-18T07:06:40.891Z</time></trkpt><trkpt lat="43.534550516551704" lon="10.61992206576648"><ele>68.0</ele><time>2026-04-18T07:06:41.895Z</time></trkpt><trkpt lat="43.534677828512905" lon="10.619902618297738"><ele>68.0</ele><time>2026-04-18T07:06:42.888Z</time></trkpt><trkpt lat="43.534804833333325" lon="10.6198395"><ele>68.0</ele><time>2026-04-18T07:06:43.889Z</time></trkpt><trkpt lat="43.534938" lon="10.619806166666669"><ele>67.75</ele><time>2026-04-18T07:06:44.889Z</time></trkpt><trkpt lat="43.53507466666667" lon="10.619768333333333"><ele>67.5</ele><time>2026-04-18T07:06:45.891Z</time></trkpt><trkpt lat="43.53521383333334" lon="10.619732666666668"><ele>67.25</ele><time>2026-04-18T07:06:46.907Z</time></trkpt><trkpt lat="43.53528802604329" lon="10.61974274063396"><ele>67.0</ele><time>2026-04-18T07:06:47.895Z</time></trkpt><trkpt lat="43.53542825746006" lon="10.619705842198579"><ele>66.0</ele><time>2026-04-18T07:06:48.891Z</time></trkpt><trkpt lat="43.53563483333334" lon="10.619622"><ele>65.0</ele><time>2026-04-18T07:06:49.896Z</time></trkpt><trkpt lat="43.53577683333334" lon="10.619588666666667"><ele>64.0</ele><time>2026-04-18T07:06:50.892Z</time></trkpt><trkpt lat="43.53591933333333" lon="10.619547333333333"><ele>64.0</ele><time>2026-04-18T07:06:51.893Z</time></trkpt><trkpt lat="43.53606333333334" lon="10.61951"><ele>64.0</ele><time>2026-04-18T07:06:52.891Z</time></trkpt><trkpt lat="43.53620816666667" lon="10.6194755"><ele>64.0</ele><time>2026-04-18T07:06:53.895Z</time></trkpt><trkpt lat="43.53635216666667" lon="10.619434666666667"><ele>64.0</ele><time>2026-04-18T07:06:54.89Z</time></trkpt><trkpt lat="43.53649683333334" lon="10.619397833333334"><ele>64.25</ele><time>2026-04-18T07:06:55.883Z</time></trkpt><trkpt lat="43.536641333333336" lon="10.619359666666666"><ele>64.5</ele><time>2026-04-18T07:06:56.891Z</time></trkpt><trkpt lat="43.53671383333334" lon="10.6193435"><ele>64.75</ele><time>2026-04-18T07:06:57.891Z</time></trkpt><trkpt lat="43.536859166666666" lon="10.619314000000001"><ele>65.0</ele><time>2026-04-18T07:06:58.89Z</time></trkpt><trkpt lat="43.53707866666667" lon="10.6192815"><ele>65.0</ele><time>2026-04-18T07:06:59.893Z</time></trkpt><trkpt lat="43.5372275" lon="10.619269166666667"><ele>65.0</ele><time>2026-04-18T07:07:00.893Z</time></trkpt><trkpt lat="43.537377333333346" lon="10.619256333333333"><ele>65.0</ele><time>2026-04-18T07:07:01.896Z</time></trkpt><trkpt lat="43.53745266666667" lon="10.619251"><ele>65.0</ele><time>2026-04-18T07:07:02.886Z</time></trkpt><trkpt lat="43.53768116666667" lon="10.619238"><ele>65.0</ele><time>2026-04-18T07:07:03.907Z</time></trkpt><trkpt lat="43.53783466666667" lon="10.619229666666667"><ele>65.0</ele><time>2026-04-18T07:07:04.888Z</time></trkpt><trkpt lat="43.5379885" lon="10.619220666666669"><ele>65.0</ele><time>2026-04-18T07:07:05.894Z</time></trkpt><trkpt lat="43.538065499999995" lon="10.619217166666667"><ele>65.0</ele><time>2026-04-18T07:07:06.895Z</time></trkpt><trkpt lat="43.53829533333332" lon="10.619215999999998"><ele>64.0</ele><time>2026-04-18T07:07:07.9Z</time></trkpt><trkpt lat="43.53844716666667" lon="10.619219666666668"><ele>63.0</ele><time>2026-04-18T07:07:08.89Z</time></trkpt><trkpt lat="43.53852216666668" lon="10.619224"><ele>62.0</ele><time>2026-04-18T07:07:09.889Z</time></trkpt><trkpt lat="43.538744" lon="10.619245833333332"><ele>61.0</ele><time>2026-04-18T07:07:10.892Z</time></trkpt><trkpt lat="43.53889083333333" lon="10.619262499999998"><ele>61.0</ele><time>2026-04-18T07:07:11.887Z</time></trkpt><trkpt lat="43.538964333333325" lon="10.619271833333334"><ele>61.0</ele><time>2026-04-18T07:07:12.893Z</time></trkpt><trkpt lat="43.53911033333334" lon="10.619292333333332"><ele>61.0</ele><time>2026-04-18T07:07:13.894Z</time></trkpt><trkpt lat="43.539256333333334" lon="10.619315166666668"><ele>61.0</ele><time>2026-04-18T07:07:14.899Z</time></trkpt><trkpt lat="43.53940333333334" lon="10.619334333333333"><ele>61.0</ele><time>2026-04-18T07:07:15.894Z</time></trkpt><trkpt lat="43.53955066666668" lon="10.619344833333331"><ele>61.0</ele><time>2026-04-18T07:07:16.895Z</time></trkpt><trkpt lat="43.53969816666666" lon="10.619342166666668"><ele>61.0</ele><time>2026-04-18T07:07:17.89Z</time></trkpt><trkpt lat="43.53984566666666" lon="10.619325166666666"><ele>61.0</ele><time>2026-04-18T07:07:18.885Z</time></trkpt><trkpt lat="43.540067" lon="10.619288"><ele>61.0</ele><time>2026-04-18T07:07:19.883Z</time></trkpt><trkpt lat="43.54021533333333" lon="10.619263166666666"><ele>61.0</ele><time>2026-04-18T07:07:20.891Z</time></trkpt><trkpt lat="43.54036416666666" lon="10.619239833333332"><ele>61.0</ele><time>2026-04-18T07:07:21.894Z</time></trkpt><trkpt lat="43.54043866666666" lon="10.61922816666667"><ele>61.0</ele><time>2026-04-18T07:07:22.889Z</time></trkpt><trkpt lat="43.54066266666667" lon="10.619189999999998"><ele>60.666666666666664</ele><time>2026-04-18T07:07:23.894Z</time></trkpt><trkpt lat="43.54081333333334" lon="10.619161499999999"><ele>60.33333333333333</ele><time>2026-04-18T07:07:24.897Z</time></trkpt><trkpt lat="43.540966" lon="10.619140666666665"><ele>60.0</ele><time>2026-04-18T07:07:25.885Z</time></trkpt><trkpt lat="43.541120666666664" lon="10.619132333333333"><ele>59.66666666666667</ele><time>2026-04-18T07:07:26.893Z</time></trkpt><trkpt lat="43.5412765" lon="10.619135833333331"><ele>59.333333333333336</ele><time>2026-04-18T07:07:27.899Z</time></trkpt><trkpt lat="43.541431833333334" lon="10.619149833333331"><ele>59.0</ele><time>2026-04-18T07:07:28.912Z</time></trkpt><trkpt lat="43.541586833333334" lon="10.6191745"><ele>59.0</ele><time>2026-04-18T07:07:29.917Z</time></trkpt><trkpt lat="43.54174033333334" lon="10.619211833333335"><ele>59.0</ele><time>2026-04-18T07:07:30.904Z</time></trkpt><trkpt lat="43.54189249999999" lon="10.619258333333335"><ele>59.0</ele><time>2026-04-18T07:07:31.891Z</time></trkpt><trkpt lat="43.542044" lon="10.619311999999999"><ele>59.0</ele><time>2026-04-18T07:07:32.884Z</time></trkpt><trkpt lat="43.54219499999999" lon="10.619373333333334"><ele>59.0</ele><time>2026-04-18T07:07:33.896Z</time></trkpt><trkpt lat="43.54234483333333" lon="10.619445"><ele>59.0</ele><time>2026-04-18T07:07:34.893Z</time></trkpt><trkpt lat="43.54249533333333" lon="10.619520666666665"><ele>59.0</ele><time>2026-04-18T07:07:35.896Z</time></trkpt><trkpt lat="43.54264866666667" lon="10.619598833333336"><ele>59.0</ele><time>2026-04-18T07:07:36.888Z</time></trkpt><trkpt lat="43.54280533333334" lon="10.619679"><ele>59.0</ele><time>2026-04-18T07:07:37.904Z</time></trkpt><trkpt lat="43.542965333333335" lon="10.619759833333333"><ele>58.333333333333336</ele><time>2026-04-18T07:07:38.885Z</time></trkpt><trkpt lat="43.54312783333333" lon="10.619839666666667"><ele>57.66666666666667</ele><time>2026-04-18T07:07:39.896Z</time></trkpt><trkpt lat="43.5432915" lon="10.619920666666665"><ele>57.0</ele><time>2026-04-18T07:07:40.894Z</time></trkpt><trkpt lat="43.54345433333333" lon="10.62000233333333"><ele>57.0</ele><time>2026-04-18T07:07:41.891Z</time></trkpt><trkpt lat="43.54361633333333" lon="10.620082500000002"><ele>57.0</ele><time>2026-04-18T07:07:42.904Z</time></trkpt><trkpt lat="43.543777166666665" lon="10.620162666666666"><ele>57.0</ele><time>2026-04-18T07:07:43.891Z</time></trkpt><trkpt lat="43.54393583333334" lon="10.620245166666665"><ele>56.66666666666667</ele><time>2026-04-18T07:07:44.889Z</time></trkpt><trkpt lat="43.54409166666666" lon="10.620333166666668"><ele>56.333333333333336</ele><time>2026-04-18T07:07:45.891Z</time></trkpt><trkpt lat="43.54424416666668" lon="10.620429999999999"><ele>56.0</ele><time>2026-04-18T07:07:46.894Z</time></trkpt><trkpt lat="43.54439349999999" lon="10.620533833333333"><ele>56.0</ele><time>2026-04-18T07:07:47.891Z</time></trkpt><trkpt lat="43.54454066666667" lon="10.620637666666669"><ele>56.0</ele><time>2026-04-18T07:07:48.894Z</time></trkpt><trkpt lat="43.544685333333334" lon="10.620739833333335"><ele>56.0</ele><time>2026-04-18T07:07:49.89Z</time></trkpt><trkpt lat="43.54482866666667" lon="10.620840500000002"><ele>55.333333333333336</ele><time>2026-04-18T07:07:50.905Z</time></trkpt><trkpt lat="43.54497133333333" lon="10.620947999999997"><ele>54.66666666666667</ele><time>2026-04-18T07:07:51.896Z</time></trkpt><trkpt lat="43.54511083333333" lon="10.621070166666668"><ele>54.0</ele><time>2026-04-18T07:07:52.891Z</time></trkpt><trkpt lat="43.54525033333332" lon="10.621200500000002"><ele>53.0</ele><time>2026-04-18T07:07:53.893Z</time></trkpt><trkpt lat="43.54539083333334" lon="10.621333000000002"><ele>52.0</ele><time>2026-04-18T07:07:54.892Z</time></trkpt><trkpt lat="43.54553166666666" lon="10.62146616666667"><ele>51.0</ele><time>2026-04-18T07:07:55.893Z</time></trkpt><trkpt lat="43.54566583333333" lon="10.621594"><ele>51.0</ele><time>2026-04-18T07:07:56.899Z</time></trkpt><trkpt lat="43.54579166666667" lon="10.621720166666668"><ele>51.0</ele><time>2026-04-18T07:07:57.904Z</time></trkpt><trkpt lat="43.5459125" lon="10.621841166666664"><ele>51.0</ele><time>2026-04-18T07:07:58.896Z</time></trkpt><trkpt lat="43.54603433333333" lon="10.6219515"><ele>51.0</ele><time>2026-04-18T07:07:59.904Z</time></trkpt><trkpt lat="43.546096333333324" lon="10.622001666666664"><ele>51.0</ele><time>2026-04-18T07:08:00.904Z</time></trkpt><trkpt lat="43.546224833333326" lon="10.622090333333333"><ele>51.0</ele><time>2026-04-18T07:08:01.892Z</time></trkpt><trkpt lat="43.546356833333334" lon="10.622168833333333"><ele>51.0</ele><time>2026-04-18T07:08:02.897Z</time></trkpt><trkpt lat="43.54649033333333" lon="10.622244833333331"><ele>51.0</ele><time>2026-04-18T07:08:03.923Z</time></trkpt><trkpt lat="43.54662366666666" lon="10.6223175"><ele>51.0</ele><time>2026-04-18T07:08:04.901Z</time></trkpt><trkpt lat="43.54675766666666" lon="10.622384166666667"><ele>51.0</ele><time>2026-04-18T07:08:05.888Z</time></trkpt><trkpt lat="43.5468925" lon="10.622442333333334"><ele>51.0</ele><time>2026-04-18T07:08:06.905Z</time></trkpt><trkpt lat="43.547029333333334" lon="10.622488333333335"><ele>53.25</ele><time>2026-04-18T07:08:07.898Z</time></trkpt><trkpt lat="43.547169000000004" lon="10.622528333333333"><ele>55.5</ele><time>2026-04-18T07:08:08.891Z</time></trkpt><trkpt lat="43.54731016666666" lon="10.622562666666665"><ele>57.75</ele><time>2026-04-18T07:08:09.889Z</time></trkpt><trkpt lat="43.5474515" lon="10.622600499999999"><ele>60.0</ele><time>2026-04-18T07:08:10.887Z</time></trkpt><trkpt lat="43.54766" lon="10.622685333333335"><ele>60.0</ele><time>2026-04-18T07:08:11.891Z</time></trkpt><trkpt lat="43.5477965" lon="10.622755166666666"><ele>60.0</ele><time>2026-04-18T07:08:12.907Z</time></trkpt><trkpt lat="43.547929833333335" lon="10.622828666666665"><ele>60.0</ele><time>2026-04-18T07:08:13.891Z</time></trkpt><trkpt lat="43.54805916666666" lon="10.622900333333334"><ele>60.0</ele><time>2026-04-18T07:08:14.899Z</time></trkpt><trkpt lat="43.548185333333336" lon="10.622972166666667"><ele>59.25</ele><time>2026-04-18T07:08:15.899Z</time></trkpt><trkpt lat="43.548304166666675" lon="10.623065"><ele>58.5</ele><time>2026-04-18T07:08:16.887Z</time></trkpt><trkpt lat="43.54841033333334" lon="10.623184166666666"><ele>57.75</ele><time>2026-04-18T07:08:17.894Z</time></trkpt><trkpt lat="43.548497166666664" lon="10.623331166666667"><ele>57.0</ele><time>2026-04-18T07:08:18.884Z</time></trkpt><trkpt lat="43.54856633333334" lon="10.623497833333333"><ele>56.25</ele><time>2026-04-18T07:08:19.914Z</time></trkpt><trkpt lat="43.54862383333334" lon="10.623675833333333"><ele>55.5</ele><time>2026-04-18T07:08:20.891Z</time></trkpt><trkpt lat="43.54867683333333" lon="10.623857833333334"><ele>54.75</ele><time>2026-04-18T07:08:21.896Z</time></trkpt><trkpt lat="43.548729" lon="10.624036166666667"><ele>54.0</ele><time>2026-04-18T07:08:22.892Z</time></trkpt><trkpt lat="43.54878399999999" lon="10.624207166666668"><ele>54.75</ele><time>2026-04-18T07:08:23.896Z</time></trkpt><trkpt lat="43.54885216666667" lon="10.624363166666669"><ele>55.5</ele><time>2026-04-18T07:08:24.897Z</time></trkpt><trkpt lat="43.54893216666666" lon="10.624507333333334"><ele>56.25</ele><time>2026-04-18T07:08:25.897Z</time></trkpt><trkpt lat="43.54902366666666" lon="10.624641833333332"><ele>57.0</ele><time>2026-04-18T07:08:26.898Z</time></trkpt><trkpt lat="43.54912216666666" lon="10.624770833333333"><ele>57.0</ele><time>2026-04-18T07:08:27.906Z</time></trkpt><trkpt lat="43.5492225" lon="10.624898666666663"><ele>57.0</ele><time>2026-04-18T07:08:28.905Z</time></trkpt><trkpt lat="43.549322333333336" lon="10.625027499999998"><ele>57.0</ele><time>2026-04-18T07:08:29.895Z</time></trkpt><trkpt lat="43.549422500000006" lon="10.625154833333333"><ele>57.0</ele><time>2026-04-18T07:08:30.895Z</time></trkpt><trkpt lat="43.54952466666667" lon="10.625273666666665"><ele>56.25</ele><time>2026-04-18T07:08:31.889Z</time></trkpt><trkpt lat="43.54963250000001" lon="10.625376333333334"><ele>55.5</ele><time>2026-04-18T07:08:32.895Z</time></trkpt><trkpt lat="43.54974950000001" lon="10.625458166666665"><ele>54.75</ele><time>2026-04-18T07:08:33.912Z</time></trkpt><trkpt lat="43.54987733333334" lon="10.625515166666666"><ele>54.0</ele><time>2026-04-18T07:08:34.906Z</time></trkpt><trkpt lat="43.549944666666676" lon="10.625535833333334"><ele>54.0</ele><time>2026-04-18T07:08:35.905Z</time></trkpt><trkpt lat="43.55015483333333" lon="10.625592666666668"><ele>54.0</ele><time>2026-04-18T07:08:36.892Z</time></trkpt><trkpt lat="43.55029983333334" lon="10.625630000000001"><ele>54.0</ele><time>2026-04-18T07:08:37.893Z</time></trkpt><trkpt lat="43.55044533333333" lon="10.625670166666666"><ele>53.66666666666667</ele><time>2026-04-18T07:08:38.894Z</time></trkpt><trkpt lat="43.55059200000001" lon="10.625709833333332"><ele>53.333333333333336</ele><time>2026-04-18T07:08:39.895Z</time></trkpt><trkpt lat="43.550740499999996" lon="10.625742833333334"><ele>53.0</ele><time>2026-04-18T07:08:40.897Z</time></trkpt><trkpt lat="43.55089233333333" lon="10.625756833333332"><ele>53.0</ele><time>2026-04-18T07:08:41.893Z</time></trkpt><trkpt lat="43.55104766666667" lon="10.625754500000001"><ele>53.0</ele><time>2026-04-18T07:08:42.886Z</time></trkpt><trkpt lat="43.55120566666666" lon="10.6257405"><ele>53.0</ele><time>2026-04-18T07:08:43.91Z</time></trkpt><trkpt lat="43.5512855" lon="10.625729833333333"><ele>53.0</ele><time>2026-04-18T07:08:44.908Z</time></trkpt><trkpt lat="43.55144633333333" lon="10.6257085"><ele>52.333333333333336</ele><time>2026-04-18T07:08:45.896Z</time></trkpt><trkpt lat="43.551684166666675" lon="10.625678500000001"><ele>51.66666666666667</ele><time>2026-04-18T07:08:46.899Z</time></trkpt><trkpt lat="43.55183333333333" lon="10.625665166666666"><ele>51.0</ele><time>2026-04-18T07:08:47.889Z</time></trkpt><trkpt lat="43.55197833333333" lon="10.625675833333332"><ele>51.75</ele><time>2026-04-18T07:08:48.906Z</time></trkpt><trkpt lat="43.55211733333334" lon="10.625715999999999"><ele>52.5</ele><time>2026-04-18T07:08:49.888Z</time></trkpt><trkpt lat="43.55218466666667" lon="10.625746333333332"><ele>53.25</ele><time>2026-04-18T07:08:50.897Z</time></trkpt><trkpt lat="43.552381499999996" lon="10.625867000000003"><ele>54.0</ele><time>2026-04-18T07:08:51.884Z</time></trkpt><trkpt lat="43.55251033333334" lon="10.625962"><ele>54.0</ele><time>2026-04-18T07:08:52.894Z</time></trkpt><trkpt lat="43.552637666666676" lon="10.626064833333333"><ele>54.0</ele><time>2026-04-18T07:08:53.887Z</time></trkpt><trkpt lat="43.552761" lon="10.626176166666669"><ele>54.0</ele><time>2026-04-18T07:08:54.9Z</time></trkpt><trkpt lat="43.55287799999999" lon="10.626295"><ele>54.0</ele><time>2026-04-18T07:08:55.901Z</time></trkpt><trkpt lat="43.55298983333334" lon="10.626417333333332"><ele>54.0</ele><time>2026-04-18T07:08:56.895Z</time></trkpt><trkpt lat="43.553101" lon="10.626535333333335"><ele>54.0</ele><time>2026-04-18T07:08:57.908Z</time></trkpt><trkpt lat="43.55321133333334" lon="10.626648000000001"><ele>54.0</ele><time>2026-04-18T07:08:58.902Z</time></trkpt><trkpt lat="43.55332566666666" lon="10.626746500000003"><ele>54.0</ele><time>2026-04-18T07:08:59.892Z</time></trkpt><trkpt lat="43.553446833333325" lon="10.626822833333332"><ele>54.0</ele><time>2026-04-18T07:09:00.893Z</time></trkpt><trkpt lat="43.553574666666655" lon="10.626869833333334"><ele>54.0</ele><time>2026-04-18T07:09:01.893Z</time></trkpt><trkpt lat="43.553707" lon="10.626885333333332"><ele>54.0</ele><time>2026-04-18T07:09:02.901Z</time></trkpt><trkpt lat="43.55383933333332" lon="10.626893833333334"><ele>54.0</ele><time>2026-04-18T07:09:03.895Z</time></trkpt><trkpt lat="43.553968" lon="10.62692333333333"><ele>55.75</ele><time>2026-04-18T07:09:04.891Z</time></trkpt><trkpt lat="43.554029166666666" lon="10.626949166666668"><ele>57.5</ele><time>2026-04-18T07:09:05.887Z</time></trkpt><trkpt lat="43.554197499999994" lon="10.627061166666664"><ele>59.25</ele><time>2026-04-18T07:09:06.906Z</time></trkpt><trkpt lat="43.55430107551029" lon="10.627151860058383"><ele>61.0</ele><time>2026-04-18T07:09:07.894Z</time></trkpt><trkpt lat="43.55441789866202" lon="10.627193846115203"><ele>58.666666666666664</ele><time>2026-04-18T07:09:08.904Z</time></trkpt><trkpt lat="43.5545300400683" lon="10.627215976115524"><ele>56.33333333333333</ele><time>2026-04-18T07:09:09.892Z</time></trkpt><trkpt lat="43.5546295" lon="10.627219694171828"><ele>54.0</ele><time>2026-04-18T07:09:10.884Z</time></trkpt><trkpt lat="43.55471257113337" lon="10.62721076921787"><ele>51.666666666666664</ele><time>2026-04-18T07:09:11.894Z</time></trkpt><trkpt lat="43.55477817707246" lon="10.627202424908608"><ele>49.33333333333333</ele><time>2026-04-18T07:09:12.898Z</time></trkpt><trkpt lat="43.55484433333333" lon="10.627224333333332"><ele>47.0</ele><time>2026-04-18T07:09:14.907Z</time></trkpt><trkpt lat="43.554820348145675" lon="10.627312722083271"><ele>47.0</ele><time>2026-04-18T07:09:16.892Z</time></trkpt><trkpt lat="43.55476266666666" lon="10.627435833333333"><ele>47.0</ele><time>2026-04-18T07:09:18.886Z</time></trkpt><trkpt lat="43.554714166666656" lon="10.627503333333333"><ele>47.0</ele><time>2026-04-18T07:09:19.901Z</time></trkpt><trkpt lat="43.55465983333334" lon="10.627583000000001"><ele>47.0</ele><time>2026-04-18T07:09:20.907Z</time></trkpt><trkpt lat="43.554603666666665" lon="10.627672333333331"><ele>47.0</ele><time>2026-04-18T07:09:21.898Z</time></trkpt><trkpt lat="43.554547166666666" lon="10.6277705"><ele>47.0</ele><time>2026-04-18T07:09:22.893Z</time></trkpt><trkpt lat="43.55448333333334" lon="10.627869833333333"><ele>46.2</ele><time>2026-04-18T07:09:23.889Z</time></trkpt><trkpt lat="43.554415166666665" lon="10.627965500000002"><ele>45.400000000000006</ele><time>2026-04-18T07:09:24.906Z</time></trkpt><trkpt lat="43.55435333333333" lon="10.628049666666668"><ele>44.599999999999994</ele><time>2026-04-18T07:09:25.895Z</time></trkpt><trkpt lat="43.55429516666667" lon="10.628116333333333"><ele>43.8</ele><time>2026-04-18T07:09:26.895Z</time></trkpt><trkpt lat="43.55420000000001" lon="10.628175166666665"><ele>43.0</ele><time>2026-04-18T07:09:28.906Z</time></trkpt><trkpt lat="43.554104833333334" lon="10.628207000000002"><ele>43.0</ele><time>2026-04-18T07:09:29.908Z</time></trkpt><trkpt lat="43.55404266666666" lon="10.628236000000001"><ele>43.0</ele><time>2026-04-18T07:09:30.888Z</time></trkpt><trkpt lat="43.55398283333334" lon="10.6282815"><ele>43.0</ele><time>2026-04-18T07:09:31.906Z</time></trkpt><trkpt lat="43.5539182026793" lon="10.628333641728114"><ele>43.0</ele><time>2026-04-18T07:09:32.894Z</time></trkpt><trkpt lat="43.55387360054091" lon="10.628427669234547"><ele>43.0</ele><time>2026-04-18T07:09:33.908Z</time></trkpt><trkpt lat="43.553810268654075" lon="10.628644112130083"><ele>43.0</ele><time>2026-04-18T07:09:35.905Z</time></trkpt><trkpt lat="43.553784724360845" lon="10.628768360936004"><ele>43.0</ele><time>2026-04-18T07:09:36.896Z</time></trkpt><trkpt lat="43.55376108475284" lon="10.628901164593497"><ele>43.0</ele><time>2026-04-18T07:09:37.944Z</time></trkpt><trkpt lat="43.55372701665455" lon="10.62910333965093"><ele>43.0</ele><time>2026-04-18T07:09:39.891Z</time></trkpt><trkpt lat="43.55369451745253" lon="10.62930735271815"><ele>43.599999999999994</ele><time>2026-04-18T07:09:40.887Z</time></trkpt><trkpt lat="43.553673697967824" lon="10.629436917710176"><ele>44.199999999999996</ele><time>2026-04-18T07:09:41.902Z</time></trkpt><trkpt lat="43.553651289674185" lon="10.62956439229638"><ele>44.8</ele><time>2026-04-18T07:09:42.903Z</time></trkpt><trkpt lat="43.553629506338375" lon="10.629692928816073"><ele>45.4</ele><time>2026-04-18T07:09:43.916Z</time></trkpt><trkpt lat="43.55360133672892" lon="10.629898006537136"><ele>46.0</ele><time>2026-04-18T07:09:45.887Z</time></trkpt><trkpt lat="43.55357532377482" lon="10.630119983443642"><ele>46.0</ele><time>2026-04-18T07:09:46.891Z</time></trkpt><trkpt lat="43.553558250736344" lon="10.63027342439131"><ele>46.0</ele><time>2026-04-18T07:09:47.903Z</time></trkpt><trkpt lat="43.553540680788466" lon="10.630431330929934"><ele>46.0</ele><time>2026-04-18T07:09:48.923Z</time></trkpt><trkpt lat="43.553513454706625" lon="10.630676020157487"><ele>46.0</ele><time>2026-04-18T07:09:50.893Z</time></trkpt><trkpt lat="43.55349319109768" lon="10.630842923218225"><ele>46.0</ele><time>2026-04-18T07:09:51.921Z</time></trkpt><trkpt lat="43.55348733333334" lon="10.631014666666665"><ele>46.0</ele><time>2026-04-18T07:09:52.892Z</time></trkpt><trkpt lat="43.55346183333332" lon="10.631183833333333"><ele>46.0</ele><time>2026-04-18T07:09:53.898Z</time></trkpt><trkpt lat="43.55343616666668" lon="10.631354333333336"><ele>46.0</ele><time>2026-04-18T07:09:54.885Z</time></trkpt><trkpt lat="43.55341000000001" lon="10.6315255"><ele>46.0</ele><time>2026-04-18T07:09:55.889Z</time></trkpt><trkpt lat="43.55337833333333" lon="10.631695500000001"><ele>46.0</ele><time>2026-04-18T07:09:56.896Z</time></trkpt><trkpt lat="43.55334016666668" lon="10.631863333333335"><ele>46.0</ele><time>2026-04-18T07:09:57.891Z</time></trkpt><trkpt lat="43.553297166666674" lon="10.6320285"><ele>46.0</ele><time>2026-04-18T07:09:58.904Z</time></trkpt><trkpt lat="43.553228833333336" lon="10.632270666666667"><ele>46.0</ele><time>2026-04-18T07:09:59.926Z</time></trkpt><trkpt lat="43.55318616666667" lon="10.632427833333333"><ele>46.0</ele><time>2026-04-18T07:10:00.894Z</time></trkpt><trkpt lat="43.553146000000005" lon="10.632580333333333"><ele>46.0</ele><time>2026-04-18T07:10:01.89Z</time></trkpt><trkpt lat="43.55310899999999" lon="10.632726500000002"><ele>46.0</ele><time>2026-04-18T07:10:02.902Z</time></trkpt><trkpt lat="43.553078166666666" lon="10.6328615"><ele>46.66666666666667</ele><time>2026-04-18T07:10:03.892Z</time></trkpt><trkpt lat="43.553050333333346" lon="10.632975166666665"><ele>47.333333333333336</ele><time>2026-04-18T07:10:04.892Z</time></trkpt><trkpt lat="43.55300999999999" lon="10.633058666666667"><ele>48.0</ele><time>2026-04-18T07:10:05.887Z</time></trkpt><trkpt lat="43.55289316666667" lon="10.633122166666665"><ele>48.66666666666667</ele><time>2026-04-18T07:10:07.912Z</time></trkpt><trkpt lat="43.552826833333334" lon="10.6331055"><ele>49.333333333333336</ele><time>2026-04-18T07:10:08.895Z</time></trkpt><trkpt lat="43.552756833333326" lon="10.63306683333333"><ele>50.0</ele><time>2026-04-18T07:10:09.904Z</time></trkpt><trkpt lat="43.552598666666675" lon="10.632965666666665"><ele>49.4</ele><time>2026-04-18T07:10:11.906Z</time></trkpt><trkpt lat="43.55250816666667" lon="10.632912833333334"><ele>48.8</ele><time>2026-04-18T07:10:12.887Z</time></trkpt><trkpt lat="43.552411666666664" lon="10.632857999999999"><ele>48.2</ele><time>2026-04-18T07:10:13.902Z</time></trkpt><trkpt lat="43.552311833333334" lon="10.632800000000001"><ele>47.6</ele><time>2026-04-18T07:10:14.892Z</time></trkpt><trkpt lat="43.552209833333336" lon="10.632733833333337"><ele>47.0</ele><time>2026-04-18T07:10:15.892Z</time></trkpt><trkpt lat="43.55210733333333" lon="10.63265566666667"><ele>48.33333333333333</ele><time>2026-04-18T07:10:16.887Z</time></trkpt><trkpt lat="43.55196642925586" lon="10.632500427767322"><ele>49.666666666666664</ele><time>2026-04-18T07:10:18.893Z</time></trkpt><trkpt lat="43.551821023831785" lon="10.6323502726984"><ele>51.0</ele><time>2026-04-18T07:10:19.894Z</time></trkpt><trkpt lat="43.551716" lon="10.632260166666667"><ele>51.0</ele><time>2026-04-18T07:10:20.889Z</time></trkpt><trkpt lat="43.55162099999999" lon="10.6321545"><ele>51.0</ele><time>2026-04-18T07:10:21.895Z</time></trkpt><trkpt lat="43.551472" lon="10.632010666666668"><ele>51.0</ele><time>2026-04-18T07:10:23.892Z</time></trkpt><trkpt lat="43.55136516666666" lon="10.6319275"><ele>51.0</ele><time>2026-04-18T07:10:24.905Z</time></trkpt><trkpt lat="43.55119266666668" lon="10.631830333333333"><ele>50.75</ele><time>2026-04-18T07:10:25.897Z</time></trkpt><trkpt lat="43.551071666666665" lon="10.631785500000001"><ele>50.5</ele><time>2026-04-18T07:10:26.92Z</time></trkpt><trkpt lat="43.550947166666674" lon="10.631756166666666"><ele>50.25</ele><time>2026-04-18T07:10:27.9Z</time></trkpt><trkpt lat="43.55081933333332" lon="10.631740833333334"><ele>50.0</ele><time>2026-04-18T07:10:28.889Z</time></trkpt><trkpt lat="43.55068933333333" lon="10.631736666666665"><ele>50.0</ele><time>2026-04-18T07:10:29.93Z</time></trkpt><trkpt lat="43.5505575" lon="10.6317475"><ele>50.0</ele><time>2026-04-18T07:10:30.899Z</time></trkpt><trkpt lat="43.55042400000001" lon="10.631764333333335"><ele>50.0</ele><time>2026-04-18T07:10:31.898Z</time></trkpt><trkpt lat="43.550288833333326" lon="10.631781000000002"><ele>50.0</ele><time>2026-04-18T07:10:32.896Z</time></trkpt><trkpt lat="43.55015233333334" lon="10.631798666666668"><ele>50.5</ele><time>2026-04-18T07:10:33.904Z</time></trkpt><trkpt lat="43.550015" lon="10.631816499999998"><ele>51.0</ele><time>2026-04-18T07:10:34.9Z</time></trkpt><trkpt lat="43.549877833333326" lon="10.631832833333332"><ele>51.5</ele><time>2026-04-18T07:10:35.914Z</time></trkpt><trkpt lat="43.549743" lon="10.6318475"><ele>52.0</ele><time>2026-04-18T07:10:36.892Z</time></trkpt><trkpt lat="43.549677" lon="10.631854333333335"><ele>52.25</ele><time>2026-04-18T07:10:37.893Z</time></trkpt><trkpt lat="43.54948483333333" lon="10.631872333333334"><ele>52.5</ele><time>2026-04-18T07:10:38.902Z</time></trkpt><trkpt lat="43.54936333333334" lon="10.631891"><ele>52.75</ele><time>2026-04-18T07:10:39.886Z</time></trkpt><trkpt lat="43.54924933333333" lon="10.631929333333336"><ele>53.0</ele><time>2026-04-18T07:10:40.893Z</time></trkpt><trkpt lat="43.549140666666666" lon="10.63199"><ele>52.75</ele><time>2026-04-18T07:10:41.907Z</time></trkpt><trkpt lat="43.54898166666667" lon="10.632111833333333"><ele>52.5</ele><time>2026-04-18T07:10:43.903Z</time></trkpt><trkpt lat="43.54887133333333" lon="10.632197333333334"><ele>52.25</ele><time>2026-04-18T07:10:44.903Z</time></trkpt><trkpt lat="43.548757666666674" lon="10.632285000000003"><ele>52.0</ele><time>2026-04-18T07:10:45.89Z</time></trkpt><trkpt lat="43.54864116666666" lon="10.632374333333333"><ele>52.0</ele><time>2026-04-18T07:10:46.893Z</time></trkpt><trkpt lat="43.548522999999996" lon="10.632465333333334"><ele>52.0</ele><time>2026-04-18T07:10:47.891Z</time></trkpt><trkpt lat="43.548343833333334" lon="10.632605333333334"><ele>52.0</ele><time>2026-04-18T07:10:48.908Z</time></trkpt><trkpt lat="43.54828366666667" lon="10.632653833333332"><ele>52.0</ele><time>2026-04-18T07:10:49.91Z</time></trkpt><trkpt lat="43.548161500000006" lon="10.632751166666665"><ele>53.0</ele><time>2026-04-18T07:10:50.904Z</time></trkpt><trkpt lat="43.54803700000001" lon="10.6328495"><ele>54.0</ele><time>2026-04-18T07:10:51.89Z</time></trkpt><trkpt lat="43.54791" lon="10.632947833333333"><ele>55.0</ele><time>2026-04-18T07:10:52.901Z</time></trkpt><trkpt lat="43.54771466666666" lon="10.633087666666666"><ele>55.0</ele><time>2026-04-18T07:10:53.889Z</time></trkpt><trkpt lat="43.54764866666666" lon="10.633132166666668"><ele>55.0</ele><time>2026-04-18T07:10:54.897Z</time></trkpt><trkpt lat="43.547517" lon="10.633222166666668"><ele>55.0</ele><time>2026-04-18T07:10:55.899Z</time></trkpt><trkpt lat="43.547385000000006" lon="10.633311333333332"><ele>55.0</ele><time>2026-04-18T07:10:56.892Z</time></trkpt><trkpt lat="43.54725199999999" lon="10.633398833333334"><ele>55.0</ele><time>2026-04-18T07:10:57.891Z</time></trkpt><trkpt lat="43.54712116666666" lon="10.633490166666665"><ele>55.0</ele><time>2026-04-18T07:10:58.929Z</time></trkpt><trkpt lat="43.54699600000001" lon="10.633591166666667"><ele>55.0</ele><time>2026-04-18T07:10:59.898Z</time></trkpt><trkpt lat="43.5468175" lon="10.633762333333333"><ele>55.0</ele><time>2026-04-18T07:11:00.9Z</time></trkpt><trkpt lat="43.54670483333333" lon="10.633891333333334"><ele>55.0</ele><time>2026-04-18T07:11:01.906Z</time></trkpt><trkpt lat="43.5465965" lon="10.634030166666665"><ele>55.0</ele><time>2026-04-18T07:11:02.906Z</time></trkpt><trkpt lat="43.54648916666667" lon="10.634173500000001"><ele>55.0</ele><time>2026-04-18T07:11:03.915Z</time></trkpt><trkpt lat="43.546381000000004" lon="10.634317833333334"><ele>55.0</ele><time>2026-04-18T07:11:04.921Z</time></trkpt><trkpt lat="43.546273" lon="10.634462333333332"><ele>55.0</ele><time>2026-04-18T07:11:05.921Z</time></trkpt><trkpt lat="43.546165666666674" lon="10.634607166666667"><ele>55.0</ele><time>2026-04-18T07:11:06.893Z</time></trkpt><trkpt lat="43.546059666666665" lon="10.634751166666668"><ele>55.0</ele><time>2026-04-18T07:11:07.892Z</time></trkpt><trkpt lat="43.54595533333333" lon="10.634892666666667"><ele>54.5</ele><time>2026-04-18T07:11:08.899Z</time></trkpt><trkpt lat="43.54585066666667" lon="10.635028"><ele>54.0</ele><time>2026-04-18T07:11:09.896Z</time></trkpt><trkpt lat="43.54579766666667" lon="10.635091666666666"><ele>53.5</ele><time>2026-04-18T07:11:10.886Z</time></trkpt><trkpt lat="43.54568899999999" lon="10.635208833333335"><ele>53.0</ele><time>2026-04-18T07:11:11.907Z</time></trkpt><trkpt lat="43.54557783333333" lon="10.635312166666665"><ele>54.0</ele><time>2026-04-18T07:11:12.889Z</time></trkpt><trkpt lat="43.545400333333326" lon="10.635436"><ele>55.0</ele><time>2026-04-18T07:11:13.896Z</time></trkpt><trkpt lat="43.54533766666667" lon="10.635467333333334"><ele>56.0</ele><time>2026-04-18T07:11:14.897Z</time></trkpt><trkpt lat="43.54520616666667" lon="10.635508333333334"><ele>57.0</ele><time>2026-04-18T07:11:15.906Z</time></trkpt><trkpt lat="43.54507016666667" lon="10.635529"><ele>56.75</ele><time>2026-04-18T07:11:16.918Z</time></trkpt><trkpt lat="43.54493233333333" lon="10.6355425"><ele>56.5</ele><time>2026-04-18T07:11:17.888Z</time></trkpt><trkpt lat="43.54479533333333" lon="10.635564333333331"><ele>56.25</ele><time>2026-04-18T07:11:18.911Z</time></trkpt><trkpt lat="43.54466233333333" lon="10.635599666666668"><ele>56.0</ele><time>2026-04-18T07:11:19.9Z</time></trkpt><trkpt lat="43.54453516666668" lon="10.635658333333334"><ele>56.0</ele><time>2026-04-18T07:11:20.89Z</time></trkpt><trkpt lat="43.54441266666666" lon="10.635738833333336"><ele>56.0</ele><time>2026-04-18T07:11:21.901Z</time></trkpt><trkpt lat="43.54429783333333" lon="10.635845833333333"><ele>56.0</ele><time>2026-04-18T07:11:22.892Z</time></trkpt><trkpt lat="43.54418616666667" lon="10.635967666666666"><ele>56.0</ele><time>2026-04-18T07:11:23.895Z</time></trkpt><trkpt lat="43.544072166666666" lon="10.636093166666667"><ele>56.333333333333336</ele><time>2026-04-18T07:11:24.899Z</time></trkpt><trkpt lat="43.543956333333334" lon="10.636222666666667"><ele>56.66666666666667</ele><time>2026-04-18T07:11:25.902Z</time></trkpt><trkpt lat="43.54378166666667" lon="10.636428333333333"><ele>57.0</ele><time>2026-04-18T07:11:26.9Z</time></trkpt><trkpt lat="43.54366466666667" lon="10.636568833333335"><ele>57.0</ele><time>2026-04-18T07:11:27.9Z</time></trkpt><trkpt lat="43.543547000000004" lon="10.636709166666666"><ele>57.0</ele><time>2026-04-18T07:11:28.887Z</time></trkpt><trkpt lat="43.54348816666667" lon="10.636779333333333"><ele>57.0</ele><time>2026-04-18T07:11:29.898Z</time></trkpt><trkpt lat="43.54336983333333" lon="10.636918166666666"><ele>57.0</ele><time>2026-04-18T07:11:30.89Z</time></trkpt><trkpt lat="43.54325233333334" lon="10.637057333333333"><ele>57.66666666666667</ele><time>2026-04-18T07:11:31.907Z</time></trkpt><trkpt lat="43.543136000000004" lon="10.637198000000001"><ele>58.333333333333336</ele><time>2026-04-18T07:11:32.913Z</time></trkpt><trkpt lat="43.54296183333333" lon="10.637407666666665"><ele>59.0</ele><time>2026-04-18T07:11:33.898Z</time></trkpt><trkpt lat="43.54290433333334" lon="10.637476666666666"><ele>59.66666666666667</ele><time>2026-04-18T07:11:34.89Z</time></trkpt><trkpt lat="43.54273033333334" lon="10.637679333333333"><ele>60.33333333333333</ele><time>2026-04-18T07:11:35.893Z</time></trkpt><trkpt lat="43.54267183333333" lon="10.637746"><ele>61.0</ele><time>2026-04-18T07:11:36.9Z</time></trkpt><trkpt lat="43.54249583333334" lon="10.637945333333334"><ele>61.0</ele><time>2026-04-18T07:11:37.904Z</time></trkpt><trkpt lat="43.54237799999999" lon="10.638079166666666"><ele>61.0</ele><time>2026-04-18T07:11:38.915Z</time></trkpt><trkpt lat="43.542259333333334" lon="10.638213"><ele>61.0</ele><time>2026-04-18T07:11:39.896Z</time></trkpt><trkpt lat="43.54214066666667" lon="10.638347999999999"><ele>60.0</ele><time>2026-04-18T07:11:40.9Z</time></trkpt><trkpt lat="43.542021999999996" lon="10.638482333333332"><ele>59.0</ele><time>2026-04-18T07:11:41.894Z</time></trkpt><trkpt lat="43.541903166666664" lon="10.638616666666667"><ele>58.0</ele><time>2026-04-18T07:11:42.899Z</time></trkpt><trkpt lat="43.541784166666666" lon="10.638750666666667"><ele>58.0</ele><time>2026-04-18T07:11:43.896Z</time></trkpt><trkpt lat="43.541666333333325" lon="10.638885833333331"><ele>58.0</ele><time>2026-04-18T07:11:44.896Z</time></trkpt><trkpt lat="43.54154983333333" lon="10.639023166666668"><ele>58.0</ele><time>2026-04-18T07:11:45.893Z</time></trkpt><trkpt lat="43.541435333333325" lon="10.639162833333334"><ele>58.0</ele><time>2026-04-18T07:11:46.916Z</time></trkpt><trkpt lat="43.54132066666666" lon="10.639303500000002"><ele>58.0</ele><time>2026-04-18T07:11:47.906Z</time></trkpt><trkpt lat="43.541210166666666" lon="10.639450333333333"><ele>58.0</ele><time>2026-04-18T07:11:48.899Z</time></trkpt><trkpt lat="43.54110383333334" lon="10.639601833333332"><ele>57.33333333333333</ele><time>2026-04-18T07:11:49.89Z</time></trkpt><trkpt lat="43.5410055" lon="10.639761333333336"><ele>56.66666666666667</ele><time>2026-04-18T07:11:50.902Z</time></trkpt><trkpt lat="43.5409135" lon="10.639928999999999"><ele>56.0</ele><time>2026-04-18T07:11:51.902Z</time></trkpt><trkpt lat="43.54082483333333" lon="10.64010183333333"><ele>56.0</ele><time>2026-04-18T07:11:52.888Z</time></trkpt><trkpt lat="43.5407805" lon="10.640188833333333"><ele>56.0</ele><time>2026-04-18T07:11:53.9Z</time></trkpt><trkpt lat="43.54069166666667" lon="10.640363333333335"><ele>56.0</ele><time>2026-04-18T07:11:54.899Z</time></trkpt><trkpt lat="43.54060183333333" lon="10.640538166666666"><ele>56.0</ele><time>2026-04-18T07:11:55.917Z</time></trkpt><trkpt lat="43.54051166666667" lon="10.640714"><ele>56.0</ele><time>2026-04-18T07:11:56.904Z</time></trkpt><trkpt lat="43.54042033333334" lon="10.64088983333333"><ele>56.0</ele><time>2026-04-18T07:11:57.894Z</time></trkpt><trkpt lat="43.540326333333326" lon="10.641063999999998"><ele>56.0</ele><time>2026-04-18T07:11:58.893Z</time></trkpt><trkpt lat="43.54022816666667" lon="10.641235333333334"><ele>56.66666666666667</ele><time>2026-04-18T07:11:59.898Z</time></trkpt><trkpt lat="43.54012666666666" lon="10.641404833333334"><ele>57.33333333333333</ele><time>2026-04-18T07:12:00.888Z</time></trkpt><trkpt lat="43.54002266666666" lon="10.641573833333332"><ele>58.0</ele><time>2026-04-18T07:12:01.897Z</time></trkpt><trkpt lat="43.539914499999995" lon="10.641739666666668"><ele>58.0</ele><time>2026-04-18T07:12:02.892Z</time></trkpt><trkpt lat="43.539742833333335" lon="10.641979000000001"><ele>58.0</ele><time>2026-04-18T07:12:03.897Z</time></trkpt><trkpt lat="43.53962849999999" lon="10.642137833333333"><ele>58.0</ele><time>2026-04-18T07:12:04.896Z</time></trkpt><trkpt lat="43.53951366666667" lon="10.6422955"><ele>58.0</ele><time>2026-04-18T07:12:05.891Z</time></trkpt><trkpt lat="43.539456" lon="10.6423735"><ele>58.0</ele><time>2026-04-18T07:12:06.89Z</time></trkpt><trkpt lat="43.539340833333334" lon="10.642528833333332"><ele>58.0</ele><time>2026-04-18T07:12:07.92Z</time></trkpt><trkpt lat="43.539170500000004" lon="10.642762333333334"><ele>62.666666666666664</ele><time>2026-04-18T07:12:08.901Z</time></trkpt><trkpt lat="43.53905983333333" lon="10.642918666666667"><ele>67.33333333333333</ele><time>2026-04-18T07:12:09.937Z</time></trkpt><trkpt lat="43.53895266666667" lon="10.643076333333331"><ele>72.0</ele><time>2026-04-18T07:12:10.916Z</time></trkpt><trkpt lat="43.538849666666664" lon="10.643236166666668"><ele>72.0</ele><time>2026-04-18T07:12:11.893Z</time></trkpt><trkpt lat="43.53875333333334" lon="10.643400166666668"><ele>72.0</ele><time>2026-04-18T07:12:12.913Z</time></trkpt><trkpt lat="43.53866166666667" lon="10.643566666666668"><ele>72.0</ele><time>2026-04-18T07:12:13.891Z</time></trkpt><trkpt lat="43.538574833333335" lon="10.643735166666666"><ele>70.25</ele><time>2026-04-18T07:12:14.901Z</time></trkpt><trkpt lat="43.538532000000004" lon="10.643818999999999"><ele>68.5</ele><time>2026-04-18T07:12:15.891Z</time></trkpt><trkpt lat="43.53840483333333" lon="10.644069166666668"><ele>66.75</ele><time>2026-04-18T07:12:16.888Z</time></trkpt><trkpt lat="43.53832633333333" lon="10.644236666666664"><ele>65.0</ele><time>2026-04-18T07:12:17.895Z</time></trkpt><trkpt lat="43.538251" lon="10.644401666666665"><ele>66.75</ele><time>2026-04-18T07:12:18.886Z</time></trkpt><trkpt lat="43.538179166666666" lon="10.644562833333335"><ele>68.5</ele><time>2026-04-18T07:12:19.887Z</time></trkpt><trkpt lat="43.538110833333334" lon="10.644720166666666"><ele>70.25</ele><time>2026-04-18T07:12:20.899Z</time></trkpt><trkpt lat="43.538045666666655" lon="10.644875"><ele>72.0</ele><time>2026-04-18T07:12:21.909Z</time></trkpt><trkpt lat="43.537987666666666" lon="10.645029333333332"><ele>72.0</ele><time>2026-04-18T07:12:22.897Z</time></trkpt><trkpt lat="43.53794249999999" lon="10.645182166666666"><ele>72.0</ele><time>2026-04-18T07:12:23.915Z</time></trkpt><trkpt lat="43.53791683333334" lon="10.645304833333332"><ele>72.0</ele><time>2026-04-18T07:12:24.895Z</time></trkpt><trkpt lat="43.537915" lon="10.645403166666664"><ele>72.0</ele><time>2026-04-18T07:12:25.901Z</time></trkpt><trkpt lat="43.53793866666667" lon="10.645484500000002"><ele>72.0</ele><time>2026-04-18T07:12:26.916Z</time></trkpt><trkpt lat="43.538003833333335" lon="10.645626499999999"><ele>72.42857142857143</ele><time>2026-04-18T07:12:28.903Z</time></trkpt><trkpt lat="43.53802883333333" lon="10.645711833333333"><ele>72.85714285714286</ele><time>2026-04-18T07:12:29.911Z</time></trkpt><trkpt lat="43.538051833333334" lon="10.645807666666666"><ele>73.28571428571428</ele><time>2026-04-18T07:12:30.889Z</time></trkpt><trkpt lat="43.53806899999999" lon="10.645911"><ele>73.71428571428572</ele><time>2026-04-18T07:12:31.904Z</time></trkpt><trkpt lat="43.53808066666667" lon="10.646016166666668"><ele>74.14285714285714</ele><time>2026-04-18T07:12:32.901Z</time></trkpt><trkpt lat="43.538106640777904" lon="10.646112071721504"><ele>74.57142857142857</ele><time>2026-04-18T07:12:33.889Z</time></trkpt><trkpt lat="43.53813260456794" lon="10.646200630355207"><ele>75.0</ele><time>2026-04-18T07:12:34.899Z</time></trkpt><trkpt lat="43.538164163080666" lon="10.646283962834296"><ele>75.0</ele><time>2026-04-18T07:12:35.9Z</time></trkpt><trkpt lat="43.53819566666666" lon="10.646379833333334"><ele>75.0</ele><time>2026-04-18T07:12:36.891Z</time></trkpt><trkpt lat="43.53825833333334" lon="10.64645683333333"><ele>75.0</ele><time>2026-04-18T07:12:37.914Z</time></trkpt><trkpt lat="43.538323999999996" lon="10.64653816666667"><ele>75.0</ele><time>2026-04-18T07:12:38.9Z</time></trkpt><trkpt lat="43.538389499999994" lon="10.646623666666668"><ele>75.0</ele><time>2026-04-18T07:12:39.89Z</time></trkpt><trkpt lat="43.53845766666667" lon="10.646710166666665"><ele>75.0</ele><time>2026-04-18T07:12:40.895Z</time></trkpt><trkpt lat="43.538524499999994" lon="10.646799333333336"><ele>75.0</ele><time>2026-04-18T07:12:41.889Z</time></trkpt><trkpt lat="43.5385945" lon="10.646886333333335"><ele>75.0</ele><time>2026-04-18T07:12:42.896Z</time></trkpt><trkpt lat="43.53866383333334" lon="10.646974000000002"><ele>75.0</ele><time>2026-04-18T07:12:43.906Z</time></trkpt><trkpt lat="43.538729499999995" lon="10.647060166666666"><ele>75.0</ele><time>2026-04-18T07:12:44.909Z</time></trkpt><trkpt lat="43.53879383333333" lon="10.647138166666666"><ele>75.0</ele><time>2026-04-18T07:12:45.898Z</time></trkpt><trkpt lat="43.53886550000001" lon="10.647196166666665"><ele>75.0</ele><time>2026-04-18T07:12:46.898Z</time></trkpt><trkpt lat="43.53894066666667" lon="10.647239333333333"><ele>76.0</ele><time>2026-04-18T07:12:47.899Z</time></trkpt><trkpt lat="43.53901916666667" lon="10.647271"><ele>77.0</ele><time>2026-04-18T07:12:48.901Z</time></trkpt><trkpt lat="43.539102333333325" lon="10.64729316666667"><ele>78.0</ele><time>2026-04-18T07:12:49.905Z</time></trkpt><trkpt lat="43.53918066666667" lon="10.647321166666666"><ele>79.0</ele><time>2026-04-18T07:12:50.888Z</time></trkpt><trkpt lat="43.539257166666665" lon="10.647358333333333"><ele>80.0</ele><time>2026-04-18T07:12:51.904Z</time></trkpt><trkpt lat="43.539325833333336" lon="10.647417833333336"><ele>81.0</ele><time>2026-04-18T07:12:52.912Z</time></trkpt><trkpt lat="43.53939316666666" lon="10.647481999999998"><ele>81.0</ele><time>2026-04-18T07:12:53.911Z</time></trkpt><trkpt lat="43.53945716666667" lon="10.647552166666667"><ele>81.0</ele><time>2026-04-18T07:12:54.887Z</time></trkpt><trkpt lat="43.53958166666666" lon="10.6477015"><ele>81.0</ele><time>2026-04-18T07:12:56.905Z</time></trkpt><trkpt lat="43.53962883333334" lon="10.647795"><ele>81.0</ele><time>2026-04-18T07:12:57.891Z</time></trkpt><trkpt lat="43.53967683333334" lon="10.647953500000002"><ele>84.19999999999999</ele><time>2026-04-18T07:12:59.894Z</time></trkpt><trkpt lat="43.53971799999999" lon="10.648125333333333"><ele>87.39999999999999</ele><time>2026-04-18T07:13:00.911Z</time></trkpt><trkpt lat="43.539748833333334" lon="10.648236666666666"><ele>90.6</ele><time>2026-04-18T07:13:01.905Z</time></trkpt><trkpt lat="43.53977866666667" lon="10.648344333333334"><ele>93.8</ele><time>2026-04-18T07:13:02.903Z</time></trkpt><trkpt lat="43.53980433333333" lon="10.648450500000001"><ele>97.0</ele><time>2026-04-18T07:13:03.9Z</time></trkpt><trkpt lat="43.539829" lon="10.648553333333334"><ele>97.00000000000001</ele><time>2026-04-18T07:13:04.896Z</time></trkpt><trkpt lat="43.53985550000001" lon="10.648656166666669"><ele>97.0</ele><time>2026-04-18T07:13:05.902Z</time></trkpt><trkpt lat="43.539880666666676" lon="10.648763166666667"><ele>97.0</ele><time>2026-04-18T07:13:06.891Z</time></trkpt><trkpt lat="43.53990616666666" lon="10.648873"><ele>97.0</ele><time>2026-04-18T07:13:07.899Z</time></trkpt><trkpt lat="43.539937666666674" lon="10.648981666666668"><ele>97.00000000000001</ele><time>2026-04-18T07:13:08.893Z</time></trkpt><trkpt lat="43.539970833333335" lon="10.649090166666667"><ele>97.0</ele><time>2026-04-18T07:13:09.894Z</time></trkpt><trkpt lat="43.54000766666667" lon="10.649193166666665"><ele>97.00000000000001</ele><time>2026-04-18T07:13:10.897Z</time></trkpt><trkpt lat="43.54004983333332" lon="10.649291166666668"><ele>97.0</ele><time>2026-04-18T07:13:11.904Z</time></trkpt><trkpt lat="43.540094" lon="10.649388166666666"><ele>97.0</ele><time>2026-04-18T07:13:12.893Z</time></trkpt><trkpt lat="43.54014133333334" lon="10.649486166666668"><ele>97.0</ele><time>2026-04-18T07:13:13.912Z</time></trkpt><trkpt lat="43.54018683333334" lon="10.649588833333334"><ele>97.00000000000001</ele><time>2026-04-18T07:13:14.897Z</time></trkpt><trkpt lat="43.54023166666666" lon="10.649692833333331"><ele>97.0</ele><time>2026-04-18T07:13:15.916Z</time></trkpt><trkpt lat="43.54027333333333" lon="10.649796666666667"><ele>97.33333333333334</ele><time>2026-04-18T07:13:16.888Z</time></trkpt><trkpt lat="43.54031866666666" lon="10.649898"><ele>97.66666666666667</ele><time>2026-04-18T07:13:17.891Z</time></trkpt><trkpt lat="43.54036466666666" lon="10.649996999999999"><ele>98.0</ele><time>2026-04-18T07:13:18.89Z</time></trkpt><trkpt lat="43.54040716666667" lon="10.650092166666665"><ele>98.33333333333334</ele><time>2026-04-18T07:13:19.896Z</time></trkpt><trkpt lat="43.54044916666667" lon="10.650181666666667"><ele>98.66666666666667</ele><time>2026-04-18T07:13:20.894Z</time></trkpt><trkpt lat="43.540483166666675" lon="10.650273166666667"><ele>99.0</ele><time>2026-04-18T07:13:21.896Z</time></trkpt><trkpt lat="43.54050233333334" lon="10.650365500000001"><ele>101.33333333333333</ele><time>2026-04-18T07:13:22.902Z</time></trkpt><trkpt lat="43.54050133333334" lon="10.650458333333331"><ele>103.66666666666666</ele><time>2026-04-18T07:13:23.917Z</time></trkpt><trkpt lat="43.5404595" lon="10.650639333333332"><ele>106.0</ele><time>2026-04-18T07:13:25.897Z</time></trkpt><trkpt lat="43.54043733333333" lon="10.650729166666666"><ele>108.33333333333333</ele><time>2026-04-18T07:13:26.904Z</time></trkpt><trkpt lat="43.540397999462236" lon="10.65080885940034"><ele>110.66666666666666</ele><time>2026-04-18T07:13:27.888Z</time></trkpt><trkpt lat="43.540386500000004" lon="10.650896666666666"><ele>113.0</ele><time>2026-04-18T07:13:28.898Z</time></trkpt><trkpt lat="43.540306166666674" lon="10.650922411806397"><ele>112.99999999999999</ele><time>2026-04-18T07:13:30.89Z</time></trkpt><trkpt lat="43.540205734142596" lon="10.650928895936891"><ele>113.0</ele><time>2026-04-18T07:13:31.89Z</time></trkpt><trkpt lat="43.5401383098535" lon="10.650951465329255"><ele>113.0</ele><time>2026-04-18T07:13:32.9Z</time></trkpt><trkpt lat="43.54003771706852" lon="10.650986463964303"><ele>113.0</ele><time>2026-04-18T07:13:34.912Z</time></trkpt><trkpt lat="43.539949642669775" lon="10.650968821630064"><ele>112.99999999999999</ele><time>2026-04-18T07:13:35.9Z</time></trkpt><trkpt lat="43.53989674421041" lon="10.65089627458716"><ele>113.0</ele><time>2026-04-18T07:13:37.9Z</time></trkpt><trkpt lat="43.53984002545732" lon="10.650844821253369"><ele>112.99999999999999</ele><time>2026-04-18T07:13:38.896Z</time></trkpt><trkpt lat="43.53976554911228" lon="10.650826151129616"><ele>113.0</ele><time>2026-04-18T07:13:39.921Z</time></trkpt><trkpt lat="43.539699500000005" lon="10.650854833333335"><ele>113.0</ele><time>2026-04-18T07:13:40.902Z</time></trkpt><trkpt lat="43.53954227915726" lon="10.650893273645034"><ele>113.0</ele><time>2026-04-18T07:13:42.91Z</time></trkpt><trkpt lat="43.53948139306535" lon="10.650922989616902"><ele>112.99999999999999</ele><time>2026-04-18T07:13:43.913Z</time></trkpt><trkpt lat="43.53942345941869" lon="10.650958956057826"><ele>113.0</ele><time>2026-04-18T07:13:44.89Z</time></trkpt><trkpt lat="43.53936719935645" lon="10.65099836860365"><ele>114.4</ele><time>2026-04-18T07:13:45.896Z</time></trkpt><trkpt lat="43.53930998393668" lon="10.651039897966685"><ele>115.80000000000001</ele><time>2026-04-18T07:13:46.918Z</time></trkpt><trkpt lat="43.539202461607736" lon="10.651126136765367"><ele>117.2</ele><time>2026-04-18T07:13:48.9Z</time></trkpt><trkpt lat="43.53910888131184" lon="10.651199282870618"><ele>118.6</ele><time>2026-04-18T07:13:50.904Z</time></trkpt><trkpt lat="43.53903515895961" lon="10.651259679977342"><ele>120.0</ele><time>2026-04-18T07:13:52.9Z</time></trkpt><trkpt lat="43.539035833333344" lon="10.651373833333333"><ele>122.6</ele><time>2026-04-18T07:13:54.892Z</time></trkpt><trkpt lat="43.53911066666666" lon="10.651448"><ele>125.2</ele><time>2026-04-18T07:13:56.897Z</time></trkpt><trkpt lat="43.53921016666666" lon="10.651538333333333"><ele>127.80000000000001</ele><time>2026-04-18T07:13:58.903Z</time></trkpt><trkpt lat="43.539276833333325" lon="10.651667333333334"><ele>130.4</ele><time>2026-04-18T07:14:00.898Z</time></trkpt><trkpt lat="43.53925845402424" lon="10.651766928219262"><ele>133.0</ele><time>2026-04-18T07:14:02.906Z</time></trkpt><trkpt lat="43.539165367902804" lon="10.651831872810321"><ele>133.0</ele><time>2026-04-18T07:14:04.895Z</time></trkpt><trkpt lat="43.53907386011519" lon="10.651820349126911"><ele>133.0</ele><time>2026-04-18T07:14:06.901Z</time></trkpt><trkpt lat="43.53897753341825" lon="10.651740846503893"><ele>133.0</ele><time>2026-04-18T07:14:08.903Z</time></trkpt><trkpt lat="43.53892221784713" lon="10.651697167141316"><ele>133.0</ele><time>2026-04-18T07:14:09.92Z</time></trkpt><trkpt lat="43.53881260968128" lon="10.651604899099956"><ele>133.0</ele><time>2026-04-18T07:14:11.897Z</time></trkpt><trkpt lat="43.53875296857195" lon="10.65155449670948"><ele>137.0</ele><time>2026-04-18T07:14:12.898Z</time></trkpt><trkpt lat="43.538692361243406" lon="10.651507020242322"><ele>141.0</ele><time>2026-04-18T07:14:13.911Z</time></trkpt><trkpt lat="43.538633082475" lon="10.651460584564672"><ele>145.0</ele><time>2026-04-18T07:14:14.9Z</time></trkpt><trkpt lat="43.538513644341954" lon="10.65136702315809"><ele>149.0</ele><time>2026-04-18T07:14:16.896Z</time></trkpt><trkpt lat="43.53845159796393" lon="10.651319760164087"><ele>153.0</ele><time>2026-04-18T07:14:17.901Z</time></trkpt><trkpt lat="43.538328851994265" lon="10.651235739857045"><ele>153.0</ele><time>2026-04-18T07:14:19.891Z</time></trkpt><trkpt lat="43.53826822609209" lon="10.651205122014662"><ele>153.0</ele><time>2026-04-18T07:14:20.902Z</time></trkpt><trkpt lat="43.538159666666665" lon="10.651178333333332"><ele>153.0</ele><time>2026-04-18T07:14:22.921Z</time></trkpt><trkpt lat="43.538055166666666" lon="10.651187833333331"><ele>153.0</ele><time>2026-04-18T07:14:24.901Z</time></trkpt><trkpt lat="43.53796166666666" lon="10.651279333333331"><ele>153.0</ele><time>2026-04-18T07:14:26.891Z</time></trkpt><trkpt lat="43.53791116666667" lon="10.651340666666666"><ele>153.0</ele><time>2026-04-18T07:14:27.899Z</time></trkpt><trkpt lat="43.537857" lon="10.651404833333332"><ele>153.0</ele><time>2026-04-18T07:14:28.89Z</time></trkpt><trkpt lat="43.53780033333334" lon="10.6514725"><ele>153.0</ele><time>2026-04-18T07:14:29.9Z</time></trkpt><trkpt lat="43.537742" lon="10.651539166666666"><ele>153.0</ele><time>2026-04-18T07:14:30.886Z</time></trkpt><trkpt lat="43.537610938262816" lon="10.651623972169194"><ele>153.0</ele><time>2026-04-18T07:14:32.897Z</time></trkpt><trkpt lat="43.537522216857035" lon="10.651663487957428"><ele>153.0</ele><time>2026-04-18T07:14:34.897Z</time></trkpt><trkpt lat="43.53744116666667" lon="10.651673611983025"><ele>153.0</ele><time>2026-04-18T07:14:35.911Z</time></trkpt><trkpt lat="43.53736570288833" lon="10.651661117759275"><ele>153.0</ele><time>2026-04-18T07:14:37.899Z</time></trkpt><trkpt lat="43.53727355108579" lon="10.651619261088305"><ele>153.0</ele><time>2026-04-18T07:14:39.902Z</time></trkpt><trkpt lat="43.53717558400689" lon="10.651548982365448"><ele>153.0</ele><time>2026-04-18T07:14:41.889Z</time></trkpt><trkpt lat="43.537121173340346" lon="10.651504515708895"><ele>153.0</ele><time>2026-04-18T07:14:42.907Z</time></trkpt><trkpt lat="43.53701564287104" lon="10.65141896285822"><ele>152.5</ele><time>2026-04-18T07:14:44.899Z</time></trkpt><trkpt lat="43.53696017643758" lon="10.651377860624828"><ele>152.0</ele><time>2026-04-18T07:14:45.9Z</time></trkpt><trkpt lat="43.53687441622286" lon="10.651311903727372"><ele>151.5</ele><time>2026-04-18T07:14:46.912Z</time></trkpt><trkpt lat="43.5367551915266" lon="10.651223136560823"><ele>151.0</ele><time>2026-04-18T07:14:48.896Z</time></trkpt><trkpt lat="43.53659046858523" lon="10.651167100115545"><ele>151.00000000000003</ele><time>2026-04-18T07:14:51.89Z</time></trkpt><trkpt lat="43.536520185412066" lon="10.651172500011127"><ele>151.0</ele><time>2026-04-18T07:14:52.903Z</time></trkpt><trkpt lat="43.53645514110521" lon="10.651183692567498"><ele>151.0</ele><time>2026-04-18T07:14:53.888Z</time></trkpt><trkpt lat="43.53638812849087" lon="10.651195223821462"><ele>151.0</ele><time>2026-04-18T07:14:54.886Z</time></trkpt><trkpt lat="43.536321952432495" lon="10.651204178318697"><ele>151.0</ele><time>2026-04-18T07:14:55.887Z</time></trkpt><trkpt lat="43.53621755724497" lon="10.65121652324312"><ele>151.00000000000003</ele><time>2026-04-18T07:14:57.89Z</time></trkpt><trkpt lat="43.53614677812879" lon="10.651224893005038"><ele>151.0</ele><time>2026-04-18T07:14:58.891Z</time></trkpt><trkpt lat="43.53604064938262" lon="10.65123498008421"><ele>149.2</ele><time>2026-04-18T07:14:59.899Z</time></trkpt><trkpt lat="43.53594608513125" lon="10.651241806050352"><ele>147.39999999999998</ele><time>2026-04-18T07:15:01.89Z</time></trkpt><trkpt lat="43.53586591163489" lon="10.651241436093546"><ele>145.6</ele><time>2026-04-18T07:15:02.904Z</time></trkpt><trkpt lat="43.53576527337179" lon="10.651240971709834"><ele>143.79999999999998</ele><time>2026-04-18T07:15:04.895Z</time></trkpt><trkpt lat="43.535649975933346" lon="10.651240439684047"><ele>142.0</ele><time>2026-04-18T07:15:06.903Z</time></trkpt><trkpt lat="43.53558474554356" lon="10.651241375751912"><ele>142.0</ele><time>2026-04-18T07:15:07.901Z</time></trkpt><trkpt lat="43.5355153968396" lon="10.651243361345038"><ele>142.0</ele><time>2026-04-18T07:15:08.911Z</time></trkpt><trkpt lat="43.53541057627775" lon="10.651247205190716"><ele>142.0</ele><time>2026-04-18T07:15:10.9Z</time></trkpt><trkpt lat="43.53530994576163" lon="10.651260085930815"><ele>142.0</ele><time>2026-04-18T07:15:11.899Z</time></trkpt><trkpt lat="43.53523975985696" lon="10.651283893815272"><ele>142.0</ele><time>2026-04-18T07:15:12.893Z</time></trkpt><trkpt lat="43.53517248597782" lon="10.65132702586476"><ele>142.0</ele><time>2026-04-18T07:15:13.89Z</time></trkpt><trkpt lat="43.535049736441685" lon="10.651441058991038"><ele>139.16666666666669</ele><time>2026-04-18T07:15:15.899Z</time></trkpt><trkpt lat="43.53499238935394" lon="10.651498022689134"><ele>136.33333333333334</ele><time>2026-04-18T07:15:16.89Z</time></trkpt><trkpt lat="43.5349303069724" lon="10.651547161802053"><ele>133.5</ele><time>2026-04-18T07:15:17.89Z</time></trkpt><trkpt lat="43.53486981424522" lon="10.65159760873653"><ele>130.66666666666666</ele><time>2026-04-18T07:15:18.9Z</time></trkpt><trkpt lat="43.53481865855387" lon="10.651668052762897"><ele>127.83333333333333</ele><time>2026-04-18T07:15:19.897Z</time></trkpt><trkpt lat="43.53476661319135" lon="10.651786424332052"><ele>125.0</ele><time>2026-04-18T07:15:21.908Z</time></trkpt><trkpt lat="43.534745255060955" lon="10.651877461838788"><ele>124.16666666666666</ele><time>2026-04-18T07:15:22.897Z</time></trkpt><trkpt lat="43.53474394916263" lon="10.651980833333333"><ele>123.33333333333333</ele><time>2026-04-18T07:15:23.903Z</time></trkpt><trkpt lat="43.534771000000006" lon="10.652133499999998"><ele>122.5</ele><time>2026-04-18T07:15:24.898Z</time></trkpt><trkpt lat="43.534758753056586" lon="10.652235683605536"><ele>121.66666666666666</ele><time>2026-04-18T07:15:25.906Z</time></trkpt><trkpt lat="43.534762339268276" lon="10.652329539127107"><ele>120.83333333333333</ele><time>2026-04-18T07:15:26.905Z</time></trkpt><trkpt lat="43.53477566666667" lon="10.652416000000002"><ele>120.0</ele><time>2026-04-18T07:15:27.9Z</time></trkpt><trkpt lat="43.534777500000004" lon="10.652571333333333"><ele>120.0</ele><time>2026-04-18T07:15:29.908Z</time></trkpt><trkpt lat="43.53479516666666" lon="10.652655666666666"><ele>120.0</ele><time>2026-04-18T07:15:30.908Z</time></trkpt><trkpt lat="43.534819500000005" lon="10.6527485"><ele>120.0</ele><time>2026-04-18T07:15:31.897Z</time></trkpt><trkpt lat="43.534849666666666" lon="10.652845999999998"><ele>120.0</ele><time>2026-04-18T07:15:32.898Z</time></trkpt><trkpt lat="43.53487933333334" lon="10.652941666666667"><ele>120.0</ele><time>2026-04-18T07:15:33.897Z</time></trkpt><trkpt lat="43.534907833333335" lon="10.653035"><ele>120.0</ele><time>2026-04-18T07:15:34.904Z</time></trkpt><trkpt lat="43.534936" lon="10.653128166666665"><ele>120.0</ele><time>2026-04-18T07:15:35.897Z</time></trkpt><trkpt lat="43.53496366666666" lon="10.653221166666667"><ele>118.2</ele><time>2026-04-18T07:15:36.904Z</time></trkpt><trkpt lat="43.534992166666676" lon="10.6533115"><ele>116.4</ele><time>2026-04-18T07:15:37.89Z</time></trkpt><trkpt lat="43.5350165" lon="10.653402333333334"><ele>114.6</ele><time>2026-04-18T07:15:38.903Z</time></trkpt><trkpt lat="43.53503616666667" lon="10.653494"><ele>112.8</ele><time>2026-04-18T07:15:39.894Z</time></trkpt><trkpt lat="43.53505116666667" lon="10.653583333333332"><ele>111.0</ele><time>2026-04-18T07:15:40.906Z</time></trkpt><trkpt lat="43.53503601883275" lon="10.653834830493954"><ele>110.66666666666667</ele><time>2026-04-18T07:15:43.896Z</time></trkpt><trkpt lat="43.535002551749685" lon="10.653996348401222"><ele>110.33333333333334</ele><time>2026-04-18T07:15:45.904Z</time></trkpt><trkpt lat="43.53499199999999" lon="10.654088666666667"><ele>110.0</ele><time>2026-04-18T07:15:46.894Z</time></trkpt><trkpt lat="43.53496383333333" lon="10.654170500000003"><ele>109.66666666666667</ele><time>2026-04-18T07:15:47.906Z</time></trkpt><trkpt lat="43.534934" lon="10.654250333333334"><ele>109.33333333333334</ele><time>2026-04-18T07:15:48.897Z</time></trkpt><trkpt lat="43.534903333333325" lon="10.654329833333334"><ele>109.0</ele><time>2026-04-18T07:15:49.902Z</time></trkpt><trkpt lat="43.53487016666666" lon="10.654409999999999"><ele>109.00000000000001</ele><time>2026-04-18T07:15:50.897Z</time></trkpt><trkpt lat="43.5348315" lon="10.654489333333332"><ele>109.0</ele><time>2026-04-18T07:15:51.894Z</time></trkpt><trkpt lat="43.53478583333334" lon="10.654568666666668"><ele>109.0</ele><time>2026-04-18T07:15:52.908Z</time></trkpt><trkpt lat="43.53473733333334" lon="10.654648833333331"><ele>109.0</ele><time>2026-04-18T07:15:53.9Z</time></trkpt><trkpt lat="43.534683166666674" lon="10.654725833333336"><ele>109.00000000000001</ele><time>2026-04-18T07:15:54.893Z</time></trkpt><trkpt lat="43.5346114037818" lon="10.654774378931267"><ele>109.0</ele><time>2026-04-18T07:15:55.901Z</time></trkpt><trkpt lat="43.534509870284424" lon="10.654865504390173"><ele>109.0</ele><time>2026-04-18T07:15:57.895Z</time></trkpt><trkpt lat="43.53443949249711" lon="10.65492527539392"><ele>109.0</ele><time>2026-04-18T07:15:58.898Z</time></trkpt><trkpt lat="43.534367365211466" lon="10.654985495936662"><ele>109.0</ele><time>2026-04-18T07:15:59.889Z</time></trkpt><trkpt lat="43.53430199999999" lon="10.655062333333335"><ele>109.0</ele><time>2026-04-18T07:16:00.899Z</time></trkpt><trkpt lat="43.534187173826545" lon="10.65512208028848"><ele>109.0</ele><time>2026-04-18T07:16:01.903Z</time></trkpt><trkpt lat="43.53412516666667" lon="10.655197666666668"><ele>109.00000000000001</ele><time>2026-04-18T07:16:02.903Z</time></trkpt><trkpt lat="43.534058" lon="10.655258666666668"><ele>109.0</ele><time>2026-04-18T07:16:03.9Z</time></trkpt><trkpt lat="43.533982826712496" lon="10.655308281903025"><ele>109.0</ele><time>2026-04-18T07:16:04.901Z</time></trkpt><trkpt lat="43.533920522112105" lon="10.65538716694164"><ele>109.0</ele><time>2026-04-18T07:16:05.901Z</time></trkpt><trkpt lat="43.53386704386872" lon="10.655482108776747"><ele>109.00000000000001</ele><time>2026-04-18T07:16:06.911Z</time></trkpt><trkpt lat="43.53382122743899" lon="10.65558164420324"><ele>109.0</ele><time>2026-04-18T07:16:07.905Z</time></trkpt><trkpt lat="43.53378308418808" lon="10.65568816767282"><ele>109.6</ele><time>2026-04-18T07:16:08.905Z</time></trkpt><trkpt lat="43.53375093079964" lon="10.655796548473376"><ele>110.2</ele><time>2026-04-18T07:16:09.899Z</time></trkpt><trkpt lat="43.53372550092545" lon="10.65590963858836"><ele>110.79999999999998</ele><time>2026-04-18T07:16:10.902Z</time></trkpt><trkpt lat="43.533701880843694" lon="10.656022614713327"><ele>111.39999999999999</ele><time>2026-04-18T07:16:12.66Z</time></trkpt><trkpt lat="43.53364986008187" lon="10.656257090042144"><ele>112.0</ele><time>2026-04-18T07:16:13.9Z</time></trkpt><trkpt lat="43.53362134142094" lon="10.656374335562846"><ele>114.19999999999999</ele><time>2026-04-18T07:16:14.898Z</time></trkpt><trkpt lat="43.5335891457138" lon="10.65649133038418"><ele>116.39999999999999</ele><time>2026-04-18T07:16:15.902Z</time></trkpt><trkpt lat="43.533552032363446" lon="10.656606561312396"><ele>118.60000000000001</ele><time>2026-04-18T07:16:16.908Z</time></trkpt><trkpt lat="43.53351163861894" lon="10.656720519710742"><ele>120.80000000000001</ele><time>2026-04-18T07:16:17.915Z</time></trkpt><trkpt lat="43.53346818601829" lon="10.65683136361284"><ele>123.0</ele><time>2026-04-18T07:16:18.903Z</time></trkpt><trkpt lat="43.533423881984255" lon="10.65693679143178"><ele>124.80000000000001</ele><time>2026-04-18T07:16:19.907Z</time></trkpt><trkpt lat="43.533376948892105" lon="10.657038494079146"><ele>126.60000000000001</ele><time>2026-04-18T07:16:20.905Z</time></trkpt><trkpt lat="43.53333079159089" lon="10.657129790119614"><ele>128.39999999999998</ele><time>2026-04-18T07:16:21.902Z</time></trkpt><trkpt lat="43.53328832384746" lon="10.65720066229371"><ele>130.2</ele><time>2026-04-18T07:16:22.903Z</time></trkpt><trkpt lat="43.533156751674206" lon="10.657381225977721"><ele>132.0</ele><time>2026-04-18T07:16:25.907Z</time></trkpt><trkpt lat="43.53310443131895" lon="10.657437313423438"><ele>132.0</ele><time>2026-04-18T07:16:26.905Z</time></trkpt><trkpt lat="43.53299467740346" lon="10.657503309934379"><ele>132.0</ele><time>2026-04-18T07:16:28.896Z</time></trkpt><trkpt lat="43.532932630357855" lon="10.657523650560776"><ele>132.0</ele><time>2026-04-18T07:16:29.898Z</time></trkpt><trkpt lat="43.5328129302589" lon="10.657550062376771"><ele>132.0</ele><time>2026-04-18T07:16:31.896Z</time></trkpt><trkpt lat="43.53268704422937" lon="10.657575048167075"><ele>132.0</ele><time>2026-04-18T07:16:33.899Z</time></trkpt><trkpt lat="43.53261995420052" lon="10.657588364158139"><ele>133.16666666666666</ele><time>2026-04-18T07:16:34.901Z</time></trkpt><trkpt lat="43.532556871075414" lon="10.657597179539227"><ele>134.33333333333334</ele><time>2026-04-18T07:16:35.906Z</time></trkpt><trkpt lat="43.53244661400753" lon="10.657605513089386"><ele>135.5</ele><time>2026-04-18T07:16:37.9Z</time></trkpt><trkpt lat="43.53236807579482" lon="10.657616482704904"><ele>136.66666666666669</ele><time>2026-04-18T07:16:39.899Z</time></trkpt><trkpt lat="43.53231576176779" lon="10.657667344095906"><ele>137.83333333333334</ele><time>2026-04-18T07:16:42.897Z</time></trkpt><trkpt lat="43.53239266666666" lon="10.657792833333334"><ele>139.0</ele><time>2026-04-18T07:16:51.936Z</time></trkpt><trkpt lat="43.53246466666666" lon="10.657811666666666"><ele>141.8</ele><time>2026-04-18T07:16:54.901Z</time></trkpt><trkpt lat="43.53251400000001" lon="10.657888666666667"><ele>144.60000000000002</ele><time>2026-04-18T07:16:56.888Z</time></trkpt><trkpt lat="43.53251883333334" lon="10.658004666666667"><ele>147.4</ele><time>2026-04-18T07:16:58.907Z</time></trkpt><trkpt lat="43.53245179107995" lon="10.658112106812613"><ele>150.20000000000002</ele><time>2026-04-18T07:17:00.901Z</time></trkpt><trkpt lat="43.532358624405205" lon="10.658169410999607"><ele>153.0</ele><time>2026-04-18T07:17:02.903Z</time></trkpt><trkpt lat="43.53225442633148" lon="10.658163877398323"><ele>153.0</ele><time>2026-04-18T07:17:04.905Z</time></trkpt><trkpt lat="43.53218486825224" lon="10.658110621243893"><ele>153.0</ele><time>2026-04-18T07:17:06.899Z</time></trkpt><trkpt lat="43.53212752804014" lon="10.658068540552668"><ele>153.0</ele><time>2026-04-18T07:17:07.9Z</time></trkpt><trkpt lat="43.53202826263373" lon="10.657996631404334"><ele>153.0</ele><time>2026-04-18T07:17:08.901Z</time></trkpt><trkpt lat="43.53195668371423" lon="10.657947924259037"><ele>153.0</ele><time>2026-04-18T07:17:09.896Z</time></trkpt><trkpt lat="43.53188651668868" lon="10.657908043372712"><ele>153.0</ele><time>2026-04-18T07:17:10.907Z</time></trkpt><trkpt lat="43.53174014455496" lon="10.65789437660735"><ele>154.20000000000002</ele><time>2026-04-18T07:17:12.901Z</time></trkpt><trkpt lat="43.531678859658186" lon="10.657944105903894"><ele>155.4</ele><time>2026-04-18T07:17:13.898Z</time></trkpt><trkpt lat="43.53163433333334" lon="10.6580845"><ele>156.60000000000002</ele><time>2026-04-18T07:17:15.904Z</time></trkpt><trkpt lat="43.53163883333334" lon="10.658212666666667"><ele>157.8</ele><time>2026-04-18T07:17:17.888Z</time></trkpt><trkpt lat="43.5317" lon="10.658332"><ele>159.0</ele><time>2026-04-18T07:17:19.9Z</time></trkpt><trkpt lat="43.531808000000005" lon="10.65843"><ele>159.0</ele><time>2026-04-18T07:17:21.896Z</time></trkpt><trkpt lat="43.53187249999999" lon="10.658484833333334"><ele>159.0</ele><time>2026-04-18T07:17:22.906Z</time></trkpt><trkpt lat="43.53196433333333" lon="10.658589666666666"><ele>159.0</ele><time>2026-04-18T07:17:24.905Z</time></trkpt><trkpt lat="43.532033500000004" lon="10.658730166666665"><ele>159.0</ele><time>2026-04-18T07:17:25.888Z</time></trkpt><trkpt lat="43.53207466666666" lon="10.658830333333333"><ele>159.0</ele><time>2026-04-18T07:17:26.905Z</time></trkpt><trkpt lat="43.53216166666666" lon="10.6590335"><ele>159.4</ele><time>2026-04-18T07:17:28.904Z</time></trkpt><trkpt lat="43.532213333333324" lon="10.659133999999998"><ele>159.8</ele><time>2026-04-18T07:17:29.907Z</time></trkpt><trkpt lat="43.53227066666666" lon="10.659235999999998"><ele>160.20000000000002</ele><time>2026-04-18T07:17:30.91Z</time></trkpt><trkpt lat="43.53233283333334" lon="10.659337999999998"><ele>160.60000000000002</ele><time>2026-04-18T07:17:31.906Z</time></trkpt><trkpt lat="43.53239833333334" lon="10.659441833333334"><ele>161.0</ele><time>2026-04-18T07:17:32.905Z</time></trkpt><trkpt lat="43.532499333333334" lon="10.65960383333333"><ele>160.0</ele><time>2026-04-18T07:17:34.904Z</time></trkpt><trkpt lat="43.53256816666667" lon="10.659714666666666"><ele>159.0</ele><time>2026-04-18T07:17:35.898Z</time></trkpt><trkpt lat="43.53263933333333" lon="10.659824666666667"><ele>158.0</ele><time>2026-04-18T07:17:36.902Z</time></trkpt><trkpt lat="43.532711666666664" lon="10.659933999999998"><ele>157.0</ele><time>2026-04-18T07:17:37.907Z</time></trkpt><trkpt lat="43.53278433333333" lon="10.660043166666666"><ele>156.0</ele><time>2026-04-18T07:17:38.908Z</time></trkpt><trkpt lat="43.532891333333325" lon="10.660209166666668"><ele>158.6</ele><time>2026-04-18T07:17:39.907Z</time></trkpt><trkpt lat="43.53296083333333" lon="10.660317500000001"><ele>161.2</ele><time>2026-04-18T07:17:40.901Z</time></trkpt><trkpt lat="43.533027499999996" lon="10.660422333333333"><ele>163.79999999999998</ele><time>2026-04-18T07:17:41.9Z</time></trkpt><trkpt lat="43.533092" lon="10.660523"><ele>166.39999999999998</ele><time>2026-04-18T07:17:42.898Z</time></trkpt><trkpt lat="43.53315483333334" lon="10.660617333333334"><ele>169.0</ele><time>2026-04-18T07:17:43.901Z</time></trkpt><trkpt lat="43.53321883333333" lon="10.6606985"><ele>169.0</ele><time>2026-04-18T07:17:44.901Z</time></trkpt><trkpt lat="43.53327966666667" lon="10.660766666666666"><ele>169.0</ele><time>2026-04-18T07:17:45.888Z</time></trkpt><trkpt lat="43.53333633333333" lon="10.660819833333335"><ele>169.0</ele><time>2026-04-18T07:17:46.916Z</time></trkpt><trkpt lat="43.533438666666676" lon="10.660891666666664"><ele>169.0</ele><time>2026-04-18T07:17:48.91Z</time></trkpt><trkpt lat="43.53351783333333" lon="10.660953833333332"><ele>169.0</ele><time>2026-04-18T07:17:50.906Z</time></trkpt><trkpt lat="43.533704705092404" lon="10.661104567646525"><ele>167.5</ele><time>2026-04-18T07:17:56.998Z</time></trkpt><trkpt lat="43.53380521682908" lon="10.661130486002161"><ele>166.0</ele><time>2026-04-18T07:17:58.998Z</time></trkpt><trkpt lat="43.53392517525856" lon="10.661161064794488"><ele>164.5</ele><time>2026-04-18T07:18:00.998Z</time></trkpt><trkpt lat="43.53404722814856" lon="10.661190431972443"><ele>163.0</ele><time>2026-04-18T07:18:02.998Z</time></trkpt><trkpt lat="43.53415519790007" lon="10.661213788069478"><ele>163.0</ele><time>2026-04-18T07:18:04.998Z</time></trkpt><trkpt lat="43.53422465264983" lon="10.66124588193262"><ele>163.0</ele><time>2026-04-18T07:18:06.998Z</time></trkpt><trkpt lat="43.534263188574315" lon="10.661323978507966"><ele>163.0</ele><time>2026-04-18T07:18:10.648Z</time></trkpt><trkpt lat="43.53419050000001" lon="10.6612225"><ele>163.0</ele><time>2026-04-18T07:18:11.907Z</time></trkpt><trkpt lat="43.534253" lon="10.661316666666668"><ele>163.0</ele><time>2026-04-18T07:18:12.792Z</time></trkpt><trkpt lat="43.53403908562359" lon="10.661942504395231"><ele>161.8</ele><time>2026-04-18T07:18:17.998Z</time></trkpt><trkpt lat="43.533995390930336" lon="10.66207009998372"><ele>160.60000000000002</ele><time>2026-04-18T07:18:19Z</time></trkpt><trkpt lat="43.533949340517196" lon="10.662199605830525"><ele>159.39999999999998</ele><time>2026-04-18T07:18:20Z</time></trkpt><trkpt lat="43.53388783982824" lon="10.662323230385924"><ele>158.2</ele><time>2026-04-18T07:18:21Z</time></trkpt><trkpt lat="43.53385310553559" lon="10.66246788467206"><ele>157.0</ele><time>2026-04-18T07:18:22Z</time></trkpt><trkpt lat="43.53380489384139" lon="10.662606842826836"><ele>157.0</ele><time>2026-04-18T07:18:23Z</time></trkpt><trkpt lat="43.533755892303134" lon="10.662751485264508"><ele>157.0</ele><time>2026-04-18T07:18:24Z</time></trkpt><trkpt lat="43.533702269960386" lon="10.66289771555596"><ele>157.0</ele><time>2026-04-18T07:18:25Z</time></trkpt><trkpt lat="43.533661339968795" lon="10.663053330679105"><ele>157.0</ele><time>2026-04-18T07:18:26Z</time></trkpt><trkpt lat="43.53362037366434" lon="10.663210491017583"><ele>159.0</ele><time>2026-04-18T07:18:27Z</time></trkpt><trkpt lat="43.53358660716189" lon="10.66336894910142"><ele>161.0</ele><time>2026-04-18T07:18:28Z</time></trkpt><trkpt lat="43.53355544824841" lon="10.663530053892742"><ele>163.0</ele><time>2026-04-18T07:18:29Z</time></trkpt><trkpt lat="43.533528551788876" lon="10.663680234335894"><ele>165.0</ele><time>2026-04-18T07:18:30Z</time></trkpt><trkpt lat="43.533503328434215" lon="10.663820884942858"><ele>165.0</ele><time>2026-04-18T07:18:31Z</time></trkpt><trkpt lat="43.53348372024197" lon="10.663958821906602"><ele>165.0</ele><time>2026-04-18T07:18:32Z</time></trkpt><trkpt lat="43.53346790691594" lon="10.664094644462471"><ele>165.0</ele><time>2026-04-18T07:18:33Z</time></trkpt><trkpt lat="43.53345618801941" lon="10.66422193454609"><ele>165.0</ele><time>2026-04-18T07:18:34Z</time></trkpt><trkpt lat="43.53344225571059" lon="10.664345953157564"><ele>165.0</ele><time>2026-04-18T07:18:35Z</time></trkpt><trkpt lat="43.53341878807026" lon="10.664469997189439"><ele>163.0</ele><time>2026-04-18T07:18:36Z</time></trkpt><trkpt lat="43.533379198774995" lon="10.66458846740641"><ele>161.0</ele><time>2026-04-18T07:18:37Z</time></trkpt><trkpt lat="43.53332060528198" lon="10.664697767118977"><ele>159.0</ele><time>2026-04-18T07:18:38Z</time></trkpt><trkpt lat="43.533248265553844" lon="10.664793774894259"><ele>157.0</ele><time>2026-04-18T07:18:39Z</time></trkpt><trkpt lat="43.53316397077218" lon="10.664884886302005"><ele>155.0</ele><time>2026-04-18T07:18:40Z</time></trkpt><trkpt lat="43.53307530852218" lon="10.664963807827737"><ele>155.0</ele><time>2026-04-18T07:18:41Z</time></trkpt><trkpt lat="43.53298385889409" lon="10.665024174092046"><ele>155.0</ele><time>2026-04-18T07:18:42Z</time></trkpt><trkpt lat="43.532885195743106" lon="10.665054387467956"><ele>155.0</ele><time>2026-04-18T07:18:43Z</time></trkpt><trkpt lat="43.53278885740102" lon="10.665057451676384"><ele>155.0</ele><time>2026-04-18T07:18:44Z</time></trkpt><trkpt lat="43.53269194918247" lon="10.665036937389996"><ele>155.0</ele><time>2026-04-18T07:18:45Z</time></trkpt><trkpt lat="43.53260006044387" lon="10.665005558943694"><ele>154.66666666666666</ele><time>2026-04-18T07:18:46Z</time></trkpt><trkpt lat="43.53251135602732" lon="10.664983875717033"><ele>154.33333333333331</ele><time>2026-04-18T07:18:47Z</time></trkpt><trkpt lat="43.532431168310964" lon="10.664971543852483"><ele>154.0</ele><time>2026-04-18T07:18:48Z</time></trkpt><trkpt lat="43.532359950259675" lon="10.664967617326168"><ele>153.66666666666666</ele><time>2026-04-18T07:18:49Z</time></trkpt><trkpt lat="43.53225592956031" lon="10.66497413063043"><ele>153.33333333333334</ele><time>2026-04-18T07:18:51Z</time></trkpt><trkpt lat="43.532195948151866" lon="10.66501238800692"><ele>153.0</ele><time>2026-04-18T07:18:58.999Z</time></trkpt><trkpt lat="43.53213023964872" lon="10.665112539246172"><ele>153.0</ele><time>2026-04-18T07:19:02.999Z</time></trkpt><trkpt lat="43.53206551112538" lon="10.665221271016394"><ele>153.0</ele><time>2026-04-18T07:19:04.999Z</time></trkpt><trkpt lat="43.53199250121815" lon="10.665372549507628"><ele>153.0</ele><time>2026-04-18T07:19:06.999Z</time></trkpt><trkpt lat="43.53195213278486" lon="10.665463729779313"><ele>153.0</ele><time>2026-04-18T07:19:07.999Z</time></trkpt><trkpt lat="43.53190765250625" lon="10.665565433233658"><ele>153.0</ele><time>2026-04-18T07:19:08.999Z</time></trkpt><trkpt lat="43.53185950499391" lon="10.665674710346476"><ele>151.8</ele><time>2026-04-18T07:19:09.999Z</time></trkpt><trkpt lat="43.53180730017945" lon="10.665787599964762"><ele>150.60000000000002</ele><time>2026-04-18T07:19:10.999Z</time></trkpt><trkpt lat="43.53175266503989" lon="10.665905448303965"><ele>149.39999999999998</ele><time>2026-04-18T07:19:11.999Z</time></trkpt><trkpt lat="43.531696735049266" lon="10.666029220651017"><ele>148.2</ele><time>2026-04-18T07:19:12.999Z</time></trkpt><trkpt lat="43.53164091451834" lon="10.666155827813304"><ele>147.0</ele><time>2026-04-18T07:19:13.999Z</time></trkpt><trkpt lat="43.531579858412265" lon="10.66628212089343"><ele>147.0</ele><time>2026-04-18T07:19:14.999Z</time></trkpt><trkpt lat="43.53151082664044" lon="10.666401926001713"><ele>147.0</ele><time>2026-04-18T07:19:15.999Z</time></trkpt><trkpt lat="43.53143546913787" lon="10.66651872415693"><ele>147.0</ele><time>2026-04-18T07:19:16.999Z</time></trkpt><trkpt lat="43.5313593670431" lon="10.666637637648932"><ele>147.0</ele><time>2026-04-18T07:19:17.999Z</time></trkpt><trkpt lat="43.531276251577" lon="10.666755872401591"><ele>147.75</ele><time>2026-04-18T07:19:18.999Z</time></trkpt><trkpt lat="43.5311986933692" lon="10.666873584726508"><ele>148.5</ele><time>2026-04-18T07:19:19.999Z</time></trkpt><trkpt lat="43.531120221161416" lon="10.666986453632502"><ele>149.25</ele><time>2026-04-18T07:19:20.999Z</time></trkpt><trkpt lat="43.531032982261195" lon="10.66709054658855"><ele>150.0</ele><time>2026-04-18T07:19:21.999Z</time></trkpt><trkpt lat="43.530958312103664" lon="10.667202481695012"><ele>151.8</ele><time>2026-04-18T07:19:22.999Z</time></trkpt><trkpt lat="43.530884833026306" lon="10.667316963714265"><ele>153.6</ele><time>2026-04-18T07:19:23.999Z</time></trkpt><trkpt lat="43.53080992461286" lon="10.667427416258633"><ele>155.4</ele><time>2026-04-18T07:19:24.999Z</time></trkpt><trkpt lat="43.530727522302016" lon="10.667529444482097"><ele>157.2</ele><time>2026-04-18T07:19:25.999Z</time></trkpt><trkpt lat="43.530634763643825" lon="10.667617411459164"><ele>159.0</ele><time>2026-04-18T07:19:26.999Z</time></trkpt><trkpt lat="43.53053882596701" lon="10.667702885621836"><ele>159.8</ele><time>2026-04-18T07:19:27.999Z</time></trkpt><trkpt lat="43.53043711453956" lon="10.667788090324876"><ele>160.60000000000002</ele><time>2026-04-18T07:19:28.999Z</time></trkpt><trkpt lat="43.53034309814416" lon="10.667873002903661"><ele>161.4</ele><time>2026-04-18T07:19:29.999Z</time></trkpt><trkpt lat="43.53026174689798" lon="10.667965655154191"><ele>162.20000000000002</ele><time>2026-04-18T07:19:30.999Z</time></trkpt><trkpt lat="43.53019106793506" lon="10.668076141039917"><ele>163.0</ele><time>2026-04-18T07:19:31.999Z</time></trkpt><trkpt lat="43.53012083117837" lon="10.668193127338421"><ele>163.0</ele><time>2026-04-18T07:19:32.999Z</time></trkpt><trkpt lat="43.53004211837655" lon="10.668317390345313"><ele>163.0</ele><time>2026-04-18T07:19:33.999Z</time></trkpt><trkpt lat="43.52995979844581" lon="10.668443947702993"><ele>163.0</ele><time>2026-04-18T07:19:34.999Z</time></trkpt><trkpt lat="43.52987410829802" lon="10.668574685338747"><ele>163.0</ele><time>2026-04-18T07:19:35.999Z</time></trkpt><trkpt lat="43.52978571031527" lon="10.668705636712884"><ele>162.5</ele><time>2026-04-18T07:19:36.999Z</time></trkpt><trkpt lat="43.52969776617344" lon="10.66883434168592"><ele>162.0</ele><time>2026-04-18T07:19:37.999Z</time></trkpt><trkpt lat="43.529609090007796" lon="10.668962495569236"><ele>161.5</ele><time>2026-04-18T07:19:38.999Z</time></trkpt><trkpt lat="43.52951902073846" lon="10.669088073858331"><ele>161.0</ele><time>2026-04-18T07:19:39.999Z</time></trkpt><trkpt lat="43.52942355943576" lon="10.669206304156925"><ele>161.0</ele><time>2026-04-18T07:19:40.999Z</time></trkpt><trkpt lat="43.529326343292496" lon="10.669316818309872"><ele>161.0</ele><time>2026-04-18T07:19:41.999Z</time></trkpt><trkpt lat="43.529227614564164" lon="10.669421343480263"><ele>161.0</ele><time>2026-04-18T07:19:42.999Z</time></trkpt><trkpt lat="43.529129615935986" lon="10.669522220494375"><ele>161.0</ele><time>2026-04-18T07:19:43.999Z</time></trkpt><trkpt lat="43.52902836219963" lon="10.66962480702546"><ele>161.5</ele><time>2026-04-18T07:19:44.999Z</time></trkpt><trkpt lat="43.52892519006965" lon="10.669728013274243"><ele>162.0</ele><time>2026-04-18T07:19:45.999Z</time></trkpt><trkpt lat="43.528823533826326" lon="10.669843871827062"><ele>162.5</ele><time>2026-04-18T07:19:46.998Z</time></trkpt><trkpt lat="43.5287244346981" lon="10.669964719883481"><ele>163.0</ele><time>2026-04-18T07:19:47.998Z</time></trkpt><trkpt lat="43.52862182142403" lon="10.670086928884759"><ele>162.5</ele><time>2026-04-18T07:19:48.998Z</time></trkpt><trkpt lat="43.52852085621398" lon="10.670207452665187"><ele>162.0</ele><time>2026-04-18T07:19:49.998Z</time></trkpt><trkpt lat="43.528418726595675" lon="10.67033051611563"><ele>161.5</ele><time>2026-04-18T07:19:50.998Z</time></trkpt><trkpt lat="43.5283154450048" lon="10.670457896138283"><ele>161.0</ele><time>2026-04-18T07:19:51.998Z</time></trkpt><trkpt lat="43.528210271728064" lon="10.670586490152077"><ele>161.0</ele><time>2026-04-18T07:19:52.998Z</time></trkpt><trkpt lat="43.52810893708765" lon="10.670713519284362"><ele>161.0</ele><time>2026-04-18T07:19:53.998Z</time></trkpt><trkpt lat="43.528009218222756" lon="10.670844076711854"><ele>161.0</ele><time>2026-04-18T07:19:54.998Z</time></trkpt><trkpt lat="43.52790886044357" lon="10.670973386789464"><ele>161.0</ele><time>2026-04-18T07:19:55.998Z</time></trkpt><trkpt lat="43.52780705119728" lon="10.671097259763002"><ele>162.25</ele><time>2026-04-18T07:19:56.998Z</time></trkpt><trkpt lat="43.52770708190325" lon="10.671218324147985"><ele>163.5</ele><time>2026-04-18T07:19:57.998Z</time></trkpt><trkpt lat="43.52761332896457" lon="10.671342327942094"><ele>164.75</ele><time>2026-04-18T07:19:58.998Z</time></trkpt><trkpt lat="43.52752692135589" lon="10.6714770184524"><ele>166.0</ele><time>2026-04-18T07:19:59.998Z</time></trkpt><trkpt lat="43.52744818915689" lon="10.671627503214683"><ele>166.0</ele><time>2026-04-18T07:20:00.998Z</time></trkpt><trkpt lat="43.527378047849155" lon="10.671787420633972"><ele>166.0</ele><time>2026-04-18T07:20:01.998Z</time></trkpt><trkpt lat="43.527312149136584" lon="10.671943758236097"><ele>166.0</ele><time>2026-04-18T07:20:02.998Z</time></trkpt><trkpt lat="43.527242706240266" lon="10.672087138469784"><ele>166.0</ele><time>2026-04-18T07:20:03.998Z</time></trkpt><trkpt lat="43.527171335416845" lon="10.672223255319894"><ele>167.25</ele><time>2026-04-18T07:20:04.998Z</time></trkpt><trkpt lat="43.52709000459308" lon="10.672337809754621"><ele>168.5</ele><time>2026-04-18T07:20:05.998Z</time></trkpt><trkpt lat="43.52699525032356" lon="10.672426240805603"><ele>169.75</ele><time>2026-04-18T07:20:06.998Z</time></trkpt><trkpt lat="43.526885493284716" lon="10.672475091886746"><ele>171.0</ele><time>2026-04-18T07:20:07.998Z</time></trkpt><trkpt lat="43.52677485768689" lon="10.672477730931664"><ele>171.0</ele><time>2026-04-18T07:20:08.998Z</time></trkpt><trkpt lat="43.52666204043888" lon="10.672476626624373"><ele>171.0</ele><time>2026-04-18T07:20:09.998Z</time></trkpt><trkpt lat="43.526555520831" lon="10.672459539523018"><ele>171.0</ele><time>2026-04-18T07:20:10.998Z</time></trkpt><trkpt lat="43.526453272822714" lon="10.672464100604431"><ele>171.0</ele><time>2026-04-18T07:20:11.998Z</time></trkpt><trkpt lat="43.52635206181581" lon="10.672454704019009"><ele>171.0</ele><time>2026-04-18T07:20:12.998Z</time></trkpt><trkpt lat="43.52625798520949" lon="10.672509803022116"><ele>170.8</ele><time>2026-04-18T07:20:13.998Z</time></trkpt><trkpt lat="43.52617191191666" lon="10.672575307543669"><ele>170.60000000000002</ele><time>2026-04-18T07:20:14.998Z</time></trkpt><trkpt lat="43.526088372113506" lon="10.672641893189512"><ele>170.4</ele><time>2026-04-18T07:20:15.998Z</time></trkpt><trkpt lat="43.526013969191645" lon="10.672717517782328"><ele>170.2</ele><time>2026-04-18T07:20:16.998Z</time></trkpt><trkpt lat="43.5259453085557" lon="10.672800894922577"><ele>170.0</ele><time>2026-04-18T07:20:17.998Z</time></trkpt><trkpt lat="43.52589600948946" lon="10.672912189310686"><ele>170.0</ele><time>2026-04-18T07:20:18.998Z</time></trkpt><trkpt lat="43.525857827300825" lon="10.67304041050261"><ele>170.0</ele><time>2026-04-18T07:20:19.998Z</time></trkpt><trkpt lat="43.52583799487692" lon="10.673183959829698"><ele>170.0</ele><time>2026-04-18T07:20:20.998Z</time></trkpt><trkpt lat="43.52582655897953" lon="10.67333312056407"><ele>170.0</ele><time>2026-04-18T07:20:21.998Z</time></trkpt><trkpt lat="43.52581862745413" lon="10.673491109943994"><ele>170.0</ele><time>2026-04-18T07:20:22.998Z</time></trkpt><trkpt lat="43.52580667449119" lon="10.673648771908853"><ele>172.0</ele><time>2026-04-18T07:20:23.998Z</time></trkpt><trkpt lat="43.52579085651222" lon="10.673804949363479"><ele>174.0</ele><time>2026-04-18T07:20:25Z</time></trkpt><trkpt lat="43.52577495117999" lon="10.673956730484399"><ele>176.0</ele><time>2026-04-18T07:20:26Z</time></trkpt><trkpt lat="43.525755083800384" lon="10.67410952156857"><ele>178.0</ele><time>2026-04-18T07:20:27Z</time></trkpt><trkpt lat="43.525734391825765" lon="10.674260832349786"><ele>178.0</ele><time>2026-04-18T07:20:28Z</time></trkpt><trkpt lat="43.52571156285811" lon="10.674409217590954"><ele>178.0</ele><time>2026-04-18T07:20:29Z</time></trkpt><trkpt lat="43.52568830664841" lon="10.674553932074934"><ele>178.0</ele><time>2026-04-18T07:20:30Z</time></trkpt><trkpt lat="43.525664368513624" lon="10.674696132511036"><ele>178.0</ele><time>2026-04-18T07:20:31Z</time></trkpt><trkpt lat="43.525642038671485" lon="10.67483518010373"><ele>178.0</ele><time>2026-04-18T07:20:32Z</time></trkpt><trkpt lat="43.52562289045725" lon="10.674969817124015"><ele>178.83333333333334</ele><time>2026-04-18T07:20:33Z</time></trkpt><trkpt lat="43.525608098040394" lon="10.675099017259441"><ele>179.66666666666669</ele><time>2026-04-18T07:20:34Z</time></trkpt><trkpt lat="43.525592827619256" lon="10.67522188827285"><ele>180.5</ele><time>2026-04-18T07:20:35Z</time></trkpt><trkpt lat="43.52555703119073" lon="10.67532865943289"><ele>181.33333333333334</ele><time>2026-04-18T07:20:36Z</time></trkpt><trkpt lat="43.52552935402924" lon="10.675428150508255"><ele>182.16666666666666</ele><time>2026-04-18T07:20:37Z</time></trkpt><trkpt lat="43.525495857540676" lon="10.675518551022229"><ele>183.0</ele><time>2026-04-18T07:20:38Z</time></trkpt><trkpt lat="43.52546018700172" lon="10.675611850586296"><ele>183.0</ele><time>2026-04-18T07:20:39Z</time></trkpt><trkpt lat="43.52542396909441" lon="10.675695667417083"><ele>183.0</ele><time>2026-04-18T07:20:40Z</time></trkpt><trkpt lat="43.52538435313894" lon="10.675773311272168"><ele>183.0</ele><time>2026-04-18T07:20:41Z</time></trkpt><trkpt lat="43.52533754349876" lon="10.675831610907247"><ele>183.0</ele><time>2026-04-18T07:20:42Z</time></trkpt><trkpt lat="43.52528121256636" lon="10.675899363760342"><ele>183.0</ele><time>2026-04-18T07:20:43Z</time></trkpt><trkpt lat="43.525226615610265" lon="10.675952292907594"><ele>183.0</ele><time>2026-04-18T07:20:44Z</time></trkpt><trkpt lat="43.525171849330924" lon="10.676005543368479"><ele>183.0</ele><time>2026-04-18T07:20:45Z</time></trkpt><trkpt lat="43.52511519102709" lon="10.676058206066733"><ele>182.8</ele><time>2026-04-18T07:20:46Z</time></trkpt><trkpt lat="43.52503140049863" lon="10.67613204916957"><ele>182.60000000000002</ele><time>2026-04-18T07:20:48Z</time></trkpt><trkpt lat="43.524975559475436" lon="10.676180668741766"><ele>182.39999999999998</ele><time>2026-04-18T07:20:52.999Z</time></trkpt><trkpt lat="43.524919155677914" lon="10.676229778254214"><ele>182.2</ele><time>2026-04-18T07:20:54.999Z</time></trkpt><trkpt lat="43.52483893622671" lon="10.676332114434514"><ele>182.0</ele><time>2026-04-18T07:20:56.999Z</time></trkpt><trkpt lat="43.524747050037504" lon="10.676431239136901"><ele>182.0</ele><time>2026-04-18T07:20:58.999Z</time></trkpt><trkpt lat="43.52465421589603" lon="10.676549647589521"><ele>182.0</ele><time>2026-04-18T07:21:00.999Z</time></trkpt><trkpt lat="43.52461770794816" lon="10.676621939883589"><ele>182.0</ele><time>2026-04-18T07:21:01.999Z</time></trkpt><trkpt lat="43.524556377706695" lon="10.676764766611283"><ele>182.0</ele><time>2026-04-18T07:21:03.999Z</time></trkpt><trkpt lat="43.524522563025734" lon="10.676910097293636"><ele>182.0</ele><time>2026-04-18T07:21:05.999Z</time></trkpt><trkpt lat="43.524514129356554" lon="10.677000995739352"><ele>181.5</ele><time>2026-04-18T07:21:08.999Z</time></trkpt><trkpt lat="43.524515104804046" lon="10.677116767048801"><ele>181.0</ele><time>2026-04-18T07:21:11.999Z</time></trkpt><trkpt lat="43.52453924412929" lon="10.67720935159289"><ele>180.5</ele><time>2026-04-18T07:21:13.999Z</time></trkpt><trkpt lat="43.524616175967076" lon="10.677283889254188"><ele>180.0</ele><time>2026-04-18T07:21:15.999Z</time></trkpt><trkpt lat="43.524676510924735" lon="10.677390286013441"><ele>179.5</ele><time>2026-04-18T07:21:17.999Z</time></trkpt><trkpt lat="43.524722795969495" lon="10.677509089122168"><ele>179.0</ele><time>2026-04-18T07:21:19.999Z</time></trkpt><trkpt lat="43.524742401615605" lon="10.677641243146708"><ele>177.83333333333331</ele><time>2026-04-18T07:21:21.999Z</time></trkpt><trkpt lat="43.524735878627425" lon="10.677801765548724"><ele>176.66666666666666</ele><time>2026-04-18T07:21:23.999Z</time></trkpt><trkpt lat="43.524766911412556" lon="10.677892831348395"><ele>175.5</ele><time>2026-04-18T07:21:24.999Z</time></trkpt><trkpt lat="43.52476058035193" lon="10.67798272336263"><ele>174.33333333333334</ele><time>2026-04-18T07:21:25.999Z</time></trkpt><trkpt lat="43.52475599303524" lon="10.678075951112278"><ele>173.16666666666669</ele><time>2026-04-18T07:21:26.999Z</time></trkpt><trkpt lat="43.52475465821725" lon="10.678170161430335"><ele>172.0</ele><time>2026-04-18T07:21:27.999Z</time></trkpt><trkpt lat="43.52475403445766" lon="10.678265181875767"><ele>172.0</ele><time>2026-04-18T07:21:28.999Z</time></trkpt><trkpt lat="43.52475642753029" lon="10.678359038893788"><ele>172.0</ele><time>2026-04-18T07:21:29.999Z</time></trkpt><trkpt lat="43.524766778682476" lon="10.67844931214586"><ele>172.0</ele><time>2026-04-18T07:21:30.999Z</time></trkpt><trkpt lat="43.52477948052092" lon="10.678534637157604"><ele>172.0</ele><time>2026-04-18T07:21:31.999Z</time></trkpt><trkpt lat="43.524806294515976" lon="10.678685184236338"><ele>172.0</ele><time>2026-04-18T07:21:33.999Z</time></trkpt><trkpt lat="43.5248521432984" lon="10.678823539901233"><ele>172.0</ele><time>2026-04-18T07:21:35.999Z</time></trkpt><trkpt lat="43.524837600943506" lon="10.678910884933119"><ele>173.16666666666669</ele><time>2026-04-18T07:21:36.999Z</time></trkpt><trkpt lat="43.524854525852135" lon="10.679082842482474"><ele>174.33333333333334</ele><time>2026-04-18T07:21:38.999Z</time></trkpt><trkpt lat="43.52485971210598" lon="10.679178335395342"><ele>175.5</ele><time>2026-04-18T07:21:39.999Z</time></trkpt><trkpt lat="43.524864129541555" lon="10.679273542606012"><ele>176.66666666666666</ele><time>2026-04-18T07:21:40.999Z</time></trkpt><trkpt lat="43.52486510028709" lon="10.679369840710763"><ele>177.83333333333331</ele><time>2026-04-18T07:21:41.999Z</time></trkpt><trkpt lat="43.52485935353056" lon="10.679467563508995"><ele>179.0</ele><time>2026-04-18T07:21:42.999Z</time></trkpt><trkpt lat="43.524845218311185" lon="10.679567782780085"><ele>179.5</ele><time>2026-04-18T07:21:43.998Z</time></trkpt><trkpt lat="43.52483389656103" lon="10.679672182596889"><ele>180.0</ele><time>2026-04-18T07:21:44.998Z</time></trkpt><trkpt lat="43.524822861395336" lon="10.679776986918254"><ele>180.5</ele><time>2026-04-18T07:21:45.998Z</time></trkpt><trkpt lat="43.52482032323073" lon="10.679892681264432"><ele>181.0</ele><time>2026-04-18T07:21:46.998Z</time></trkpt><trkpt lat="43.52483713995518" lon="10.680016611353379"><ele>181.5</ele><time>2026-04-18T07:21:47.998Z</time></trkpt><trkpt lat="43.5248618069371" lon="10.680136688143637"><ele>182.0</ele><time>2026-04-18T07:21:48.998Z</time></trkpt><trkpt lat="43.52490770099261" lon="10.680253316810003"><ele>180.6</ele><time>2026-04-18T07:21:49.998Z</time></trkpt><trkpt lat="43.5249345909344" lon="10.680376973651626"><ele>179.2</ele><time>2026-04-18T07:21:50.998Z</time></trkpt><trkpt lat="43.52493878691802" lon="10.680501326254973"><ele>177.8</ele><time>2026-04-18T07:21:51.998Z</time></trkpt><trkpt lat="43.524951550987645" lon="10.680619689332639"><ele>176.4</ele><time>2026-04-18T07:21:52.998Z</time></trkpt><trkpt lat="43.52495375511776" lon="10.680847345156979"><ele>175.0</ele><time>2026-04-18T07:21:54.998Z</time></trkpt><trkpt lat="43.52495225787353" lon="10.680958396723302"><ele>175.0</ele><time>2026-04-18T07:21:55.998Z</time></trkpt><trkpt lat="43.52496350177211" lon="10.681069781732068"><ele>175.0</ele><time>2026-04-18T07:21:56.998Z</time></trkpt><trkpt lat="43.52495235044535" lon="10.681178720319167"><ele>175.0</ele><time>2026-04-18T07:21:57.998Z</time></trkpt><trkpt lat="43.524945464754424" lon="10.681289191098315"><ele>175.0</ele><time>2026-04-18T07:21:58.998Z</time></trkpt><trkpt lat="43.5249455129359" lon="10.681405593545428"><ele>175.0</ele><time>2026-04-18T07:21:59.998Z</time></trkpt><trkpt lat="43.524946479933455" lon="10.681525383262668"><ele>175.0</ele><time>2026-04-18T07:22:00.998Z</time></trkpt><trkpt lat="43.52494770167796" lon="10.681644127164533"><ele>174.5</ele><time>2026-04-18T07:22:01.998Z</time></trkpt><trkpt lat="43.52494763956638" lon="10.681764398790659"><ele>174.0</ele><time>2026-04-18T07:22:02.998Z</time></trkpt><trkpt lat="43.52494888263134" lon="10.681885015851073"><ele>173.5</ele><time>2026-04-18T07:22:03.998Z</time></trkpt><trkpt lat="43.52493448186439" lon="10.68200096393962"><ele>173.0</ele><time>2026-04-18T07:22:04.998Z</time></trkpt><trkpt lat="43.52493243975964" lon="10.682117364378117"><ele>172.5</ele><time>2026-04-18T07:22:05.998Z</time></trkpt><trkpt lat="43.5249459629207" lon="10.682231234867444"><ele>172.0</ele><time>2026-04-18T07:22:06.998Z</time></trkpt><trkpt lat="43.52494756904185" lon="10.682338913426142"><ele>171.71428571428572</ele><time>2026-04-18T07:22:07.998Z</time></trkpt><trkpt lat="43.52496392117749" lon="10.682431036847175"><ele>171.42857142857144</ele><time>2026-04-18T07:22:08.998Z</time></trkpt><trkpt lat="43.5249984364835" lon="10.682513517076599"><ele>171.14285714285717</ele><time>2026-04-18T07:22:09.998Z</time></trkpt><trkpt lat="43.52504804469074" lon="10.682576944317812"><ele>170.85714285714286</ele><time>2026-04-18T07:22:10.998Z</time></trkpt><trkpt lat="43.52511303502352" lon="10.682601317286535"><ele>170.57142857142856</ele><time>2026-04-18T07:22:11.998Z</time></trkpt><trkpt lat="43.52518321496714" lon="10.68264009026997"><ele>170.2857142857143</ele><time>2026-04-18T07:22:12.998Z</time></trkpt><trkpt lat="43.525256504640495" lon="10.682641050983351"><ele>170.0</ele><time>2026-04-18T07:22:13.998Z</time></trkpt><trkpt lat="43.525329412636395" lon="10.682674909351348"><ele>170.0</ele><time>2026-04-18T07:22:14.998Z</time></trkpt><trkpt lat="43.525394646709806" lon="10.682725749727988"><ele>170.0</ele><time>2026-04-18T07:22:15.998Z</time></trkpt><trkpt lat="43.52545442733992" lon="10.682788302750007"><ele>170.0</ele><time>2026-04-18T07:22:16.998Z</time></trkpt><trkpt lat="43.52550086035824" lon="10.682863005377197"><ele>170.0</ele><time>2026-04-18T07:22:17.998Z</time></trkpt><trkpt lat="43.525523450834996" lon="10.6829496961967"><ele>170.0</ele><time>2026-04-18T07:22:18.998Z</time></trkpt><trkpt lat="43.5255776341457" lon="10.683092042812259"><ele>170.0</ele><time>2026-04-18T07:22:20.998Z</time></trkpt><trkpt lat="43.52561658081462" lon="10.68322123177821"><ele>169.0</ele><time>2026-04-18T07:22:22.998Z</time></trkpt><trkpt lat="43.52562367262849" lon="10.6833393012019"><ele>168.0</ele><time>2026-04-18T07:22:24.998Z</time></trkpt><trkpt lat="43.52561033804424" lon="10.683443668423376"><ele>167.0</ele><time>2026-04-18T07:22:26.998Z</time></trkpt><trkpt lat="43.525507651971964" lon="10.68349255831276"><ele>166.0</ele><time>2026-04-18T07:22:27.998Z</time></trkpt><trkpt lat="43.52543675515061" lon="10.683512877098313"><ele>165.0</ele><time>2026-04-18T07:22:28.998Z</time></trkpt><trkpt lat="43.52536391577903" lon="10.683564747068289"><ele>164.0</ele><time>2026-04-18T07:22:29.998Z</time></trkpt><trkpt lat="43.52528544427026" lon="10.683623210295764"><ele>162.16666666666666</ele><time>2026-04-18T07:22:31Z</time></trkpt><trkpt lat="43.525204896865105" lon="10.683683220104735"><ele>160.33333333333331</ele><time>2026-04-18T07:22:32Z</time></trkpt><trkpt lat="43.525122530603205" lon="10.68374255792324"><ele>158.5</ele><time>2026-04-18T07:22:33Z</time></trkpt><trkpt lat="43.525040046684694" lon="10.68379967260499"><ele>156.66666666666666</ele><time>2026-04-18T07:22:34Z</time></trkpt><trkpt lat="43.524962175183354" lon="10.683853355386926"><ele>154.83333333333334</ele><time>2026-04-18T07:22:35Z</time></trkpt><trkpt lat="43.52489469962409" lon="10.683897313869906"><ele>153.0</ele><time>2026-04-18T07:22:36Z</time></trkpt><trkpt lat="43.52483407888668" lon="10.683922274738244"><ele>153.0</ele><time>2026-04-18T07:22:37Z</time></trkpt><trkpt lat="43.52474859203555" lon="10.683934040265346"><ele>153.0</ele><time>2026-04-18T07:22:39Z</time></trkpt><trkpt lat="43.524684311743286" lon="10.68390888474186"><ele>153.0</ele><time>2026-04-18T07:22:41Z</time></trkpt><trkpt lat="43.52463074737033" lon="10.683840486098587"><ele>153.0</ele><time>2026-04-18T07:22:44Z</time></trkpt><trkpt lat="43.524534009835676" lon="10.68399106516839"><ele>153.0</ele><time>2026-04-18T07:22:46Z</time></trkpt><trkpt lat="43.52450912353079" lon="10.684133052755662"><ele>151.66666666666666</ele><time>2026-04-18T07:22:48Z</time></trkpt><trkpt lat="43.52449738426055" lon="10.68429761776168"><ele>150.33333333333334</ele><time>2026-04-18T07:22:50Z</time></trkpt><trkpt lat="43.52451891610028" lon="10.684380794015642"><ele>149.0</ele><time>2026-04-18T07:22:51Z</time></trkpt><trkpt lat="43.524557502163155" lon="10.684450965758902"><ele>147.66666666666669</ele><time>2026-04-18T07:22:52Z</time></trkpt><trkpt lat="43.52461299144203" lon="10.684500122978754"><ele>146.33333333333334</ele><time>2026-04-18T07:22:53Z</time></trkpt><trkpt lat="43.52467755221945" lon="10.68452961060132"><ele>145.0</ele><time>2026-04-18T07:22:54Z</time></trkpt><trkpt lat="43.524748304444266" lon="10.684537144046915"><ele>145.0</ele><time>2026-04-18T07:22:55Z</time></trkpt><trkpt lat="43.52482535343473" lon="10.684545251450004"><ele>145.0</ele><time>2026-04-18T07:22:56Z</time></trkpt><trkpt lat="43.52489716091673" lon="10.684580366556371"><ele>145.0</ele><time>2026-04-18T07:22:57Z</time></trkpt><trkpt lat="43.52497286486344" lon="10.684607035502893"><ele>145.0</ele><time>2026-04-18T07:22:57.999Z</time></trkpt><trkpt lat="43.52504781542952" lon="10.684643938587845"><ele>145.0</ele><time>2026-04-18T07:22:58.999Z</time></trkpt><trkpt lat="43.52512701837529" lon="10.68467418637595"><ele>145.0</ele><time>2026-04-18T07:22:59.999Z</time></trkpt><trkpt lat="43.525190176321665" lon="10.684750039935059"><ele>145.0</ele><time>2026-04-18T07:23:00.999Z</time></trkpt><trkpt lat="43.52524401028649" lon="10.684841383737188"><ele>145.0</ele><time>2026-04-18T07:23:01.999Z</time></trkpt><trkpt lat="43.52527225484858" lon="10.684952480597566"><ele>145.0</ele><time>2026-04-18T07:23:02.999Z</time></trkpt><trkpt lat="43.52530146339334" lon="10.685070355527904"><ele>145.0</ele><time>2026-04-18T07:23:03.999Z</time></trkpt><trkpt lat="43.52534277934265" lon="10.685196941267296"><ele>145.0</ele><time>2026-04-18T07:23:04.999Z</time></trkpt><trkpt lat="43.52535116860525" lon="10.685342927595029"><ele>145.8</ele><time>2026-04-18T07:23:05.999Z</time></trkpt><trkpt lat="43.525377537525266" lon="10.685482072736558"><ele>146.6</ele><time>2026-04-18T07:23:06.999Z</time></trkpt><trkpt lat="43.52542476982704" lon="10.685615721857404"><ele>147.4</ele><time>2026-04-18T07:23:07.999Z</time></trkpt><trkpt lat="43.5254587002096" lon="10.685758475303105"><ele>148.2</ele><time>2026-04-18T07:23:08.999Z</time></trkpt><trkpt lat="43.52549286029119" lon="10.685905138409149"><ele>149.0</ele><time>2026-04-18T07:23:09.999Z</time></trkpt><trkpt lat="43.52552277083806" lon="10.686056909746048"><ele>146.0</ele><time>2026-04-18T07:23:10.999Z</time></trkpt><trkpt lat="43.52554914939865" lon="10.68621448739076"><ele>143.0</ele><time>2026-04-18T07:23:11.999Z</time></trkpt><trkpt lat="43.52556566280933" lon="10.686373681254947"><ele>140.0</ele><time>2026-04-18T07:23:12.999Z</time></trkpt><trkpt lat="43.525577992577325" lon="10.686536272125707"><ele>137.0</ele><time>2026-04-18T07:23:13.999Z</time></trkpt><trkpt lat="43.52558450302045" lon="10.68669956213817"><ele>137.0</ele><time>2026-04-18T07:23:14.999Z</time></trkpt><trkpt lat="43.52557684780383" lon="10.68686285418451"><ele>137.0</ele><time>2026-04-18T07:23:15.999Z</time></trkpt><trkpt lat="43.52555359473884" lon="10.687019488840718"><ele>137.0</ele><time>2026-04-18T07:23:16.999Z</time></trkpt><trkpt lat="43.52550306211823" lon="10.687163022806784"><ele>137.0</ele><time>2026-04-18T07:23:17.999Z</time></trkpt><trkpt lat="43.525459083194626" lon="10.687307225863924"><ele>135.6</ele><time>2026-04-18T07:23:18.999Z</time></trkpt><trkpt lat="43.52541372852099" lon="10.687448768977886"><ele>134.2</ele><time>2026-04-18T07:23:19.999Z</time></trkpt><trkpt lat="43.5253697398395" lon="10.687591117346779"><ele>132.8</ele><time>2026-04-18T07:23:20.999Z</time></trkpt><trkpt lat="43.52532800926495" lon="10.687733072942352"><ele>131.4</ele><time>2026-04-18T07:23:21.999Z</time></trkpt><trkpt lat="43.525288797279686" lon="10.687877581821999"><ele>130.0</ele><time>2026-04-18T07:23:22.999Z</time></trkpt><trkpt lat="43.525252785925304" lon="10.688022501779644"><ele>127.75</ele><time>2026-04-18T07:23:23.999Z</time></trkpt><trkpt lat="43.525216678018154" lon="10.68817038305914"><ele>125.5</ele><time>2026-04-18T07:23:24.999Z</time></trkpt><trkpt lat="43.525185368659265" lon="10.688321226788501"><ele>123.25</ele><time>2026-04-18T07:23:25.999Z</time></trkpt><trkpt lat="43.525160035709696" lon="10.688476979036844"><ele>121.0</ele><time>2026-04-18T07:23:26.999Z</time></trkpt><trkpt lat="43.52516102189475" lon="10.688640108081012"><ele>120.8</ele><time>2026-04-18T07:23:27.999Z</time></trkpt><trkpt lat="43.52514389740542" lon="10.688795087725936"><ele>120.6</ele><time>2026-04-18T07:23:28.999Z</time></trkpt><trkpt lat="43.52512473831312" lon="10.688947891936225"><ele>120.4</ele><time>2026-04-18T07:23:29.999Z</time></trkpt><trkpt lat="43.525102662195614" lon="10.68909848430988"><ele>120.2</ele><time>2026-04-18T07:23:30.999Z</time></trkpt><trkpt lat="43.525080018773465" lon="10.689247067509813"><ele>120.0</ele><time>2026-04-18T07:23:31.999Z</time></trkpt><trkpt lat="43.525055352395604" lon="10.689394760978573"><ele>120.0</ele><time>2026-04-18T07:23:32.999Z</time></trkpt><trkpt lat="43.5250338925973" lon="10.689540466803278"><ele>120.0</ele><time>2026-04-18T07:23:33.999Z</time></trkpt><trkpt lat="43.52501185942966" lon="10.689690441185178"><ele>120.0</ele><time>2026-04-18T07:23:34.999Z</time></trkpt><trkpt lat="43.5249946744424" lon="10.68983574817279"><ele>120.0</ele><time>2026-04-18T07:23:35.999Z</time></trkpt><trkpt lat="43.52498680690119" lon="10.689985830755605"><ele>120.0</ele><time>2026-04-18T07:23:36.999Z</time></trkpt><trkpt lat="43.5249789805562" lon="10.690142935762914"><ele>119.0</ele><time>2026-04-18T07:23:37.999Z</time></trkpt><trkpt lat="43.525018149508945" lon="10.690299847560206"><ele>118.0</ele><time>2026-04-18T07:23:38.999Z</time></trkpt><trkpt lat="43.525025677496295" lon="10.690467825770039"><ele>117.0</ele><time>2026-04-18T07:23:39.999Z</time></trkpt><trkpt lat="43.52504922099691" lon="10.690631581119533"><ele>116.0</ele><time>2026-04-18T07:23:40.999Z</time></trkpt><trkpt lat="43.52508529764398" lon="10.690793358742967"><ele>116.0</ele><time>2026-04-18T07:23:41.999Z</time></trkpt><trkpt lat="43.525104565680024" lon="10.690960635919922"><ele>116.0</ele><time>2026-04-18T07:23:42.999Z</time></trkpt><trkpt lat="43.52512303005323" lon="10.69112936703428"><ele>116.0</ele><time>2026-04-18T07:23:43.999Z</time></trkpt><trkpt lat="43.52514901544458" lon="10.69129692640757"><ele>116.0</ele><time>2026-04-18T07:23:44.999Z</time></trkpt><trkpt lat="43.525185168792056" lon="10.69146117267869"><ele>114.5</ele><time>2026-04-18T07:23:45.999Z</time></trkpt><trkpt lat="43.52522813258015" lon="10.691622420936069"><ele>113.0</ele><time>2026-04-18T07:23:46.999Z</time></trkpt><trkpt lat="43.525268114207755" lon="10.691786702877426"><ele>111.5</ele><time>2026-04-18T07:23:47.999Z</time></trkpt><trkpt lat="43.525307113631065" lon="10.691945088313261"><ele>110.0</ele><time>2026-04-18T07:23:48.998Z</time></trkpt><trkpt lat="43.52534023033936" lon="10.692105168507036"><ele>109.75</ele><time>2026-04-18T07:23:49.998Z</time></trkpt><trkpt lat="43.52536313158244" lon="10.692269155616335"><ele>109.5</ele><time>2026-04-18T07:23:50.998Z</time></trkpt><trkpt lat="43.5253807999677" lon="10.692432428942437"><ele>109.25</ele><time>2026-04-18T07:23:51.998Z</time></trkpt><trkpt lat="43.525394249528816" lon="10.692595672517525"><ele>109.0</ele><time>2026-04-18T07:23:52.998Z</time></trkpt><trkpt lat="43.525402001184" lon="10.692758621204428"><ele>109.0</ele><time>2026-04-18T07:23:53.998Z</time></trkpt><trkpt lat="43.525405885569754" lon="10.692919136462676"><ele>109.0</ele><time>2026-04-18T07:23:54.998Z</time></trkpt><trkpt lat="43.525408076261776" lon="10.693078204242106"><ele>109.0</ele><time>2026-04-18T07:23:55.998Z</time></trkpt><trkpt lat="43.52541463406733" lon="10.693233061711572"><ele>109.0</ele><time>2026-04-18T07:23:56.998Z</time></trkpt><trkpt lat="43.52543645018369" lon="10.693383811776346"><ele>109.0</ele><time>2026-04-18T07:23:57.998Z</time></trkpt><trkpt lat="43.52548003891765" lon="10.693523179342968"><ele>109.0</ele><time>2026-04-18T07:23:58.998Z</time></trkpt><trkpt lat="43.52554090986866" lon="10.69365395809913"><ele>109.0</ele><time>2026-04-18T07:23:59.998Z</time></trkpt><trkpt lat="43.52560557514391" lon="10.693782051566574"><ele>109.0</ele><time>2026-04-18T07:24:00.998Z</time></trkpt><trkpt lat="43.52566755815326" lon="10.693911396173267"><ele>109.0</ele><time>2026-04-18T07:24:01.998Z</time></trkpt><trkpt lat="43.525725966042714" lon="10.694040550919636"><ele>108.6</ele><time>2026-04-18T07:24:02.998Z</time></trkpt><trkpt lat="43.525776882994556" lon="10.69417282287084"><ele>108.2</ele><time>2026-04-18T07:24:03.998Z</time></trkpt><trkpt lat="43.52581847624513" lon="10.69430973495594"><ele>107.79999999999998</ele><time>2026-04-18T07:24:04.998Z</time></trkpt><trkpt lat="43.52584845935596" lon="10.69445413144611"><ele>107.39999999999999</ele><time>2026-04-18T07:24:05.998Z</time></trkpt><trkpt lat="43.52586198615666" lon="10.69459691012763"><ele>107.0</ele><time>2026-04-18T07:24:06.998Z</time></trkpt><trkpt lat="43.52586118928612" lon="10.694725876417385"><ele>106.66666666666666</ele><time>2026-04-18T07:24:07.998Z</time></trkpt><trkpt lat="43.52584723949802" lon="10.69484640174977"><ele>106.33333333333333</ele><time>2026-04-18T07:24:08.998Z</time></trkpt><trkpt lat="43.52582801515922" lon="10.694954660716544"><ele>106.0</ele><time>2026-04-18T07:24:09.998Z</time></trkpt><trkpt lat="43.52579924239953" lon="10.69505437528886"><ele>105.66666666666666</ele><time>2026-04-18T07:24:10.998Z</time></trkpt><trkpt lat="43.52576198794444" lon="10.695135071264465"><ele>105.33333333333333</ele><time>2026-04-18T07:24:11.998Z</time></trkpt><trkpt lat="43.52571582419532" lon="10.69520670567349"><ele>105.0</ele><time>2026-04-18T07:24:12.998Z</time></trkpt><trkpt lat="43.525666314232616" lon="10.695277787635012"><ele>104.16666666666667</ele><time>2026-04-18T07:24:13.998Z</time></trkpt><trkpt lat="43.52562780816778" lon="10.695367007404045"><ele>103.33333333333334</ele><time>2026-04-18T07:24:14.998Z</time></trkpt><trkpt lat="43.5256101772971" lon="10.695473674233146"><ele>102.5</ele><time>2026-04-18T07:24:15.998Z</time></trkpt><trkpt lat="43.525615678597354" lon="10.695584351700063"><ele>101.66666666666667</ele><time>2026-04-18T07:24:16.998Z</time></trkpt><trkpt lat="43.525645648831066" lon="10.695699759359128"><ele>100.83333333333334</ele><time>2026-04-18T07:24:17.998Z</time></trkpt><trkpt lat="43.525683639320945" lon="10.695816721767303"><ele>100.0</ele><time>2026-04-18T07:24:18.998Z</time></trkpt><trkpt lat="43.52571802192301" lon="10.695934984804545"><ele>100.0</ele><time>2026-04-18T07:24:19.998Z</time></trkpt><trkpt lat="43.52574245192853" lon="10.69605975391795"><ele>100.0</ele><time>2026-04-18T07:24:20.998Z</time></trkpt><trkpt lat="43.52575358551034" lon="10.696190097543488"><ele>100.0</ele><time>2026-04-18T07:24:21.998Z</time></trkpt><trkpt lat="43.52575129466194" lon="10.696331386819239"><ele>100.0</ele><time>2026-04-18T07:24:22.998Z</time></trkpt><trkpt lat="43.525740227600636" lon="10.696477449139035"><ele>100.0</ele><time>2026-04-18T07:24:23.998Z</time></trkpt><trkpt lat="43.525705679770944" lon="10.696622323679629"><ele>99.0</ele><time>2026-04-18T07:24:24.998Z</time></trkpt><trkpt lat="43.52569587137511" lon="10.696775864072928"><ele>98.0</ele><time>2026-04-18T07:24:25.998Z</time></trkpt><trkpt lat="43.52566610011519" lon="10.696918678963055"><ele>97.0</ele><time>2026-04-18T07:24:26.998Z</time></trkpt><trkpt lat="43.52563105118997" lon="10.697060255933506"><ele>96.0</ele><time>2026-04-18T07:24:27.998Z</time></trkpt><trkpt lat="43.52558447718691" lon="10.697192152279024"><ele>95.0</ele><time>2026-04-18T07:24:28.998Z</time></trkpt><trkpt lat="43.52552717395649" lon="10.697312638881447"><ele>94.6</ele><time>2026-04-18T07:24:29.998Z</time></trkpt><trkpt lat="43.52547181433293" lon="10.697426887925449"><ele>94.2</ele><time>2026-04-18T07:24:30.998Z</time></trkpt><trkpt lat="43.52542642303156" lon="10.697547880661546"><ele>93.80000000000001</ele><time>2026-04-18T07:24:31.998Z</time></trkpt><trkpt lat="43.525399485122456" lon="10.697673244956896"><ele>93.4</ele><time>2026-04-18T07:24:32.998Z</time></trkpt><trkpt lat="43.52538931199472" lon="10.697800823112278"><ele>93.0</ele><time>2026-04-18T07:24:33.998Z</time></trkpt><trkpt lat="43.525391660698226" lon="10.697932579169505"><ele>92.2</ele><time>2026-04-18T07:24:34.998Z</time></trkpt><trkpt lat="43.52540899834036" lon="10.698065523925365"><ele>91.4</ele><time>2026-04-18T07:24:35.998Z</time></trkpt><trkpt lat="43.52543819532588" lon="10.698199905336661"><ele>90.60000000000001</ele><time>2026-04-18T07:24:37Z</time></trkpt><trkpt lat="43.525473502998324" lon="10.698332832455556"><ele>89.80000000000001</ele><time>2026-04-18T07:24:38Z</time></trkpt><trkpt lat="43.525500757323954" lon="10.698471450418749"><ele>89.0</ele><time>2026-04-18T07:24:39Z</time></trkpt><trkpt lat="43.52551770454067" lon="10.698611167820985"><ele>88.4</ele><time>2026-04-18T07:24:40Z</time></trkpt><trkpt lat="43.52551507730994" lon="10.698745488563882"><ele>87.80000000000001</ele><time>2026-04-18T07:24:41Z</time></trkpt><trkpt lat="43.525495213966686" lon="10.698877937058526"><ele>87.19999999999999</ele><time>2026-04-18T07:24:42Z</time></trkpt><trkpt lat="43.52547047108036" lon="10.699012301816925"><ele>86.6</ele><time>2026-04-18T07:24:43Z</time></trkpt><trkpt lat="43.5254332376032" lon="10.699136757025682"><ele>86.0</ele><time>2026-04-18T07:24:44Z</time></trkpt><trkpt lat="43.52538927113243" lon="10.699247007061832"><ele>82.5</ele><time>2026-04-18T07:24:45Z</time></trkpt><trkpt lat="43.52534448993139" lon="10.699348003870842"><ele>79.0</ele><time>2026-04-18T07:24:46Z</time></trkpt><trkpt lat="43.52530438038345" lon="10.699446054126536"><ele>75.5</ele><time>2026-04-18T07:24:47Z</time></trkpt><trkpt lat="43.5252829620188" lon="10.699551057689654"><ele>72.0</ele><time>2026-04-18T07:24:48Z</time></trkpt><trkpt lat="43.525278616900174" lon="10.699658364302048"><ele>68.5</ele><time>2026-04-18T07:24:49Z</time></trkpt><trkpt lat="43.5252981006457" lon="10.69976726540733"><ele>65.0</ele><time>2026-04-18T07:24:50Z</time></trkpt><trkpt lat="43.5253356591617" lon="10.69987802759851"><ele>65.2</ele><time>2026-04-18T07:24:51Z</time></trkpt><trkpt lat="43.52537855924632" lon="10.699993536686693"><ele>65.4</ele><time>2026-04-18T07:24:52Z</time></trkpt><trkpt lat="43.52542196335015" lon="10.700120758490725"><ele>65.6</ele><time>2026-04-18T07:24:53Z</time></trkpt><trkpt lat="43.52546861921827" lon="10.700258161722935"><ele>65.8</ele><time>2026-04-18T07:24:54Z</time></trkpt><trkpt lat="43.52551624062045" lon="10.700398266169882"><ele>66.0</ele><time>2026-04-18T07:24:55Z</time></trkpt><trkpt lat="43.525567416305385" lon="10.700538816854188"><ele>66.0</ele><time>2026-04-18T07:24:55.999Z</time></trkpt><trkpt lat="43.52561484781107" lon="10.700674157975566"><ele>66.0</ele><time>2026-04-18T07:24:56.999Z</time></trkpt><trkpt lat="43.52565294442525" lon="10.700808115703495"><ele>66.0</ele><time>2026-04-18T07:24:57.999Z</time></trkpt><trkpt lat="43.52568264681419" lon="10.700941063706129"><ele>66.0</ele><time>2026-04-18T07:24:58.999Z</time></trkpt><trkpt lat="43.52570469154015" lon="10.701070172925538"><ele>66.0</ele><time>2026-04-18T07:24:59.999Z</time></trkpt><trkpt lat="43.52572045388673" lon="10.701195575464507"><ele>65.0</ele><time>2026-04-18T07:25:00.999Z</time></trkpt><trkpt lat="43.52572719748619" lon="10.701313887878529"><ele>64.0</ele><time>2026-04-18T07:25:01.999Z</time></trkpt><trkpt lat="43.52572963003729" lon="10.701424968510532"><ele>63.0</ele><time>2026-04-18T07:25:02.999Z</time></trkpt><trkpt lat="43.52573132332178" lon="10.701535875336768"><ele>62.0</ele><time>2026-04-18T07:25:03.999Z</time></trkpt><trkpt lat="43.52573221224383" lon="10.701649119529325"><ele>61.0</ele><time>2026-04-18T07:25:04.999Z</time></trkpt><trkpt lat="43.525732612302264" lon="10.701765671108152"><ele>60.0</ele><time>2026-04-18T07:25:05.999Z</time></trkpt><trkpt lat="43.52573938912403" lon="10.701883561888922"><ele>59.5</ele><time>2026-04-18T07:25:06.999Z</time></trkpt><trkpt lat="43.52575608543886" lon="10.702000855544062"><ele>59.0</ele><time>2026-04-18T07:25:07.999Z</time></trkpt><trkpt lat="43.52578095503597" lon="10.702120055586485"><ele>58.5</ele><time>2026-04-18T07:25:08.999Z</time></trkpt><trkpt lat="43.52581500949842" lon="10.702236713034914"><ele>58.0</ele><time>2026-04-18T07:25:09.999Z</time></trkpt><trkpt lat="43.52585199090448" lon="10.702345465869882"><ele>57.5</ele><time>2026-04-18T07:25:10.999Z</time></trkpt><trkpt lat="43.52588074364884" lon="10.702433761883736"><ele>57.0</ele><time>2026-04-18T07:25:11.999Z</time></trkpt><trkpt lat="43.52591523508353" lon="10.702558442170725"><ele>57.0</ele><time>2026-04-18T07:25:13.999Z</time></trkpt><trkpt lat="43.5259440531765" lon="10.702673263273873"><ele>57.0</ele><time>2026-04-18T07:25:16.999Z</time></trkpt><trkpt lat="43.525989590983876" lon="10.702743012258646"><ele>57.0</ele><time>2026-04-18T07:25:19.999Z</time></trkpt><trkpt lat="43.52609631137997" lon="10.702707444921494"><ele>57.0</ele><time>2026-04-18T07:25:21.999Z</time></trkpt><trkpt lat="43.526210221775486" lon="10.702608171534976"><ele>57.0</ele><time>2026-04-18T07:25:23.999Z</time></trkpt><trkpt lat="43.5262813312877" lon="10.70254898643619"><ele>56.8</ele><time>2026-04-18T07:25:24.999Z</time></trkpt><trkpt lat="43.52636397171245" lon="10.702487695176334"><ele>56.6</ele><time>2026-04-18T07:25:25.999Z</time></trkpt><trkpt lat="43.52645479322077" lon="10.70242844493234"><ele>56.39999999999999</ele><time>2026-04-18T07:25:26.999Z</time></trkpt><trkpt lat="43.52655748644235" lon="10.702373629748479"><ele>56.199999999999996</ele><time>2026-04-18T07:25:27.999Z</time></trkpt><trkpt lat="43.5266701240851" lon="10.702330102879746"><ele>56.0</ele><time>2026-04-18T07:25:28.999Z</time></trkpt><trkpt lat="43.52678863891057" lon="10.702304904182323"><ele>56.0</ele><time>2026-04-18T07:25:29.999Z</time></trkpt><trkpt lat="43.526911772307244" lon="10.702295563680284"><ele>56.0</ele><time>2026-04-18T07:25:30.999Z</time></trkpt><trkpt lat="43.52704124747087" lon="10.702291569436332"><ele>56.0</ele><time>2026-04-18T07:25:31.999Z</time></trkpt><trkpt lat="43.527173969011" lon="10.702288001998605"><ele>56.0</ele><time>2026-04-18T07:25:32.999Z</time></trkpt><trkpt lat="43.52731124962969" lon="10.70228526623428"><ele>56.0</ele><time>2026-04-18T07:25:33.999Z</time></trkpt><trkpt lat="43.52745321051515" lon="10.702281468082482"><ele>56.0</ele><time>2026-04-18T07:25:34.999Z</time></trkpt><trkpt lat="43.52759887772331" lon="10.702276490777319"><ele>56.0</ele><time>2026-04-18T07:25:35.999Z</time></trkpt><trkpt lat="43.527749386673065" lon="10.70227292073023"><ele>56.0</ele><time>2026-04-18T07:25:36.999Z</time></trkpt><trkpt lat="43.527905283736196" lon="10.702265393408167"><ele>56.66666666666667</ele><time>2026-04-18T07:25:37.999Z</time></trkpt><trkpt lat="43.52806728428781" lon="10.702260706023987"><ele>57.33333333333333</ele><time>2026-04-18T07:25:38.999Z</time></trkpt><trkpt lat="43.52823178384979" lon="10.702256997545396"><ele>58.0</ele><time>2026-04-18T07:25:39.999Z</time></trkpt><trkpt lat="43.528397511346554" lon="10.702251136967716"><ele>58.0</ele><time>2026-04-18T07:25:40.999Z</time></trkpt><trkpt lat="43.52856187557918" lon="10.70224538227451"><ele>58.0</ele><time>2026-04-18T07:25:41.999Z</time></trkpt><trkpt lat="43.52872611873697" lon="10.702240679856933"><ele>58.0</ele><time>2026-04-18T07:25:42.999Z</time></trkpt><trkpt lat="43.52888919598007" lon="10.702235543265715"><ele>57.0</ele><time>2026-04-18T07:25:43.999Z</time></trkpt><trkpt lat="43.529052704459374" lon="10.702226451264744"><ele>56.0</ele><time>2026-04-18T07:25:44.999Z</time></trkpt><trkpt lat="43.52921598115399" lon="10.702213668235776"><ele>55.0</ele><time>2026-04-18T07:25:45.999Z</time></trkpt><trkpt lat="43.52938022777533" lon="10.702197352586603"><ele>55.0</ele><time>2026-04-18T07:25:46.998Z</time></trkpt><trkpt lat="43.52954527712117" lon="10.702178756969793"><ele>55.0</ele><time>2026-04-18T07:25:47.998Z</time></trkpt><trkpt lat="43.52971087917289" lon="10.702158756399374"><ele>55.0</ele><time>2026-04-18T07:25:48.998Z</time></trkpt><trkpt lat="43.52987704255152" lon="10.702135671202864"><ele>54.666666666666664</ele><time>2026-04-18T07:25:49.998Z</time></trkpt><trkpt lat="43.53004318370808" lon="10.702112368364789"><ele>54.33333333333333</ele><time>2026-04-18T07:25:50.998Z</time></trkpt><trkpt lat="43.530211761524036" lon="10.702088670983915"><ele>54.0</ele><time>2026-04-18T07:25:51.998Z</time></trkpt><trkpt lat="43.53038151773281" lon="10.702065861531063"><ele>54.33333333333333</ele><time>2026-04-18T07:25:52.998Z</time></trkpt><trkpt lat="43.53055415289586" lon="10.702042778717415"><ele>54.666666666666664</ele><time>2026-04-18T07:25:53.998Z</time></trkpt><trkpt lat="43.53073002948755" lon="10.702016520612796"><ele>55.0</ele><time>2026-04-18T07:25:54.998Z</time></trkpt><trkpt lat="43.530907437752866" lon="10.701988244456865"><ele>55.0</ele><time>2026-04-18T07:25:55.998Z</time></trkpt><trkpt lat="43.53108646040273" lon="10.701958417257561"><ele>55.0</ele><time>2026-04-18T07:25:56.998Z</time></trkpt><trkpt lat="43.53126733458357" lon="10.701928587814324"><ele>55.0</ele><time>2026-04-18T07:25:57.998Z</time></trkpt><trkpt lat="43.53144978447695" lon="10.701892811378102"><ele>55.0</ele><time>2026-04-18T07:25:58.998Z</time></trkpt><trkpt lat="43.53163433419901" lon="10.701851975901667"><ele>55.0</ele><time>2026-04-18T07:25:59.998Z</time></trkpt><trkpt lat="43.53182124896632" lon="10.70181199417478"><ele>55.0</ele><time>2026-04-18T07:26:00.998Z</time></trkpt><trkpt lat="43.53200900685104" lon="10.70177346538576"><ele>55.0</ele><time>2026-04-18T07:26:01.998Z</time></trkpt><trkpt lat="43.532197049963266" lon="10.701735408648446"><ele>55.0</ele><time>2026-04-18T07:26:02.998Z</time></trkpt><trkpt lat="43.53238500450884" lon="10.701697223207628"><ele>55.0</ele><time>2026-04-18T07:26:03.998Z</time></trkpt><trkpt lat="43.532572914037786" lon="10.701658055577468"><ele>55.0</ele><time>2026-04-18T07:26:04.998Z</time></trkpt><trkpt lat="43.53276015660868" lon="10.701619238561372"><ele>55.0</ele><time>2026-04-18T07:26:05.998Z</time></trkpt><trkpt lat="43.532946735931674" lon="10.70158151755876"><ele>55.0</ele><time>2026-04-18T07:26:06.998Z</time></trkpt><trkpt lat="43.53312978789244" lon="10.701543729769792"><ele>55.33333333333333</ele><time>2026-04-18T07:26:07.998Z</time></trkpt><trkpt lat="43.533311853933654" lon="10.701507477240247"><ele>55.66666666666667</ele><time>2026-04-18T07:26:08.998Z</time></trkpt><trkpt lat="43.53349007769596" lon="10.701474355694772"><ele>56.0</ele><time>2026-04-18T07:26:09.998Z</time></trkpt><trkpt lat="43.53366451236223" lon="10.701439401643205"><ele>56.66666666666667</ele><time>2026-04-18T07:26:10.998Z</time></trkpt><trkpt lat="43.53383678061611" lon="10.70140558511717"><ele>57.33333333333333</ele><time>2026-04-18T07:26:11.998Z</time></trkpt><trkpt lat="43.53400746230914" lon="10.70136941487235"><ele>58.0</ele><time>2026-04-18T07:26:12.998Z</time></trkpt><trkpt lat="43.53417632116366" lon="10.70133308628573"><ele>58.0</ele><time>2026-04-18T07:26:13.998Z</time></trkpt><trkpt lat="43.53434374817238" lon="10.701292658097724"><ele>58.0</ele><time>2026-04-18T07:26:14.998Z</time></trkpt><trkpt lat="43.534510528301574" lon="10.701258875052883"><ele>58.0</ele><time>2026-04-18T07:26:15.998Z</time></trkpt><trkpt lat="43.53467685677771" lon="10.701223179049995"><ele>57.33333333333333</ele><time>2026-04-18T07:26:16.998Z</time></trkpt><trkpt lat="43.53484301282099" lon="10.701187273743002"><ele>56.66666666666667</ele><time>2026-04-18T07:26:17.998Z</time></trkpt><trkpt lat="43.53500777921349" lon="10.701152375870775"><ele>56.0</ele><time>2026-04-18T07:26:18.998Z</time></trkpt><trkpt lat="43.535172715501986" lon="10.701121543642286"><ele>56.0</ele><time>2026-04-18T07:26:19.998Z</time></trkpt><trkpt lat="43.53533636891506" lon="10.70108968909766"><ele>56.0</ele><time>2026-04-18T07:26:20.998Z</time></trkpt><trkpt lat="43.53549798156235" lon="10.701055535360313"><ele>56.0</ele><time>2026-04-18T07:26:21.998Z</time></trkpt><trkpt lat="43.535657197288145" lon="10.701022756704024"><ele>56.333333333333336</ele><time>2026-04-18T07:26:22.998Z</time></trkpt><trkpt lat="43.53581293868722" lon="10.700989641038525"><ele>56.66666666666667</ele><time>2026-04-18T07:26:23.998Z</time></trkpt><trkpt lat="43.53596655067415" lon="10.700954094111266"><ele>57.0</ele><time>2026-04-18T07:26:24.998Z</time></trkpt><trkpt lat="43.53611698504777" lon="10.70091740342938"><ele>56.5</ele><time>2026-04-18T07:26:25.998Z</time></trkpt><trkpt lat="43.536265173908895" lon="10.700886517784578"><ele>56.0</ele><time>2026-04-18T07:26:26.998Z</time></trkpt><trkpt lat="43.53641024889957" lon="10.700856377371208"><ele>55.5</ele><time>2026-04-18T07:26:27.998Z</time></trkpt><trkpt lat="43.53654852228683" lon="10.700829186154007"><ele>55.0</ele><time>2026-04-18T07:26:28.998Z</time></trkpt><trkpt lat="43.5366770610314" lon="10.700805729179216"><ele>55.0</ele><time>2026-04-18T07:26:29.998Z</time></trkpt><trkpt lat="43.53679757389217" lon="10.700780629205038"><ele>55.0</ele><time>2026-04-18T07:26:30.998Z</time></trkpt><trkpt lat="43.53690670440376" lon="10.700755362408385"><ele>55.0</ele><time>2026-04-18T07:26:31.998Z</time></trkpt><trkpt lat="43.537003300300206" lon="10.700734324885165"><ele>55.0</ele><time>2026-04-18T07:26:32.998Z</time></trkpt><trkpt lat="43.53708063788364" lon="10.700719699015973"><ele>55.0</ele><time>2026-04-18T07:26:33.998Z</time></trkpt><trkpt lat="43.53718485328232" lon="10.700699563670604"><ele>55.33333333333333</ele><time>2026-04-18T07:26:35.998Z</time></trkpt><trkpt lat="43.53725379812509" lon="10.700686929148661"><ele>55.666666666666664</ele><time>2026-04-18T07:26:38.997Z</time></trkpt><trkpt lat="43.53731877829447" lon="10.700675890922831"><ele>56.0</ele><time>2026-04-18T07:26:46Z</time></trkpt><trkpt lat="43.53740420248529" lon="10.700659890349817"><ele>56.33333333333333</ele><time>2026-04-18T07:26:51Z</time></trkpt><trkpt lat="43.53753421257349" lon="10.70063711456074"><ele>56.666666666666664</ele><time>2026-04-18T07:26:53Z</time></trkpt><trkpt lat="43.53762048574192" lon="10.700626365467716"><ele>57.0</ele><time>2026-04-18T07:26:54Z</time></trkpt><trkpt lat="43.537718864621404" lon="10.700611332387902"><ele>57.0</ele><time>2026-04-18T07:26:55Z</time></trkpt><trkpt lat="43.5378266021448" lon="10.700596636001396"><ele>57.0</ele><time>2026-04-18T07:26:56Z</time></trkpt><trkpt lat="43.53794397727271" lon="10.70057913699457"><ele>57.0</ele><time>2026-04-18T07:26:56.999Z</time></trkpt><trkpt lat="43.53806886517727" lon="10.700561845972535"><ele>57.0</ele><time>2026-04-18T07:26:57.999Z</time></trkpt><trkpt lat="43.53820093777385" lon="10.70054284211853"><ele>57.0</ele><time>2026-04-18T07:26:58.999Z</time></trkpt><trkpt lat="43.53834320973569" lon="10.700522835004868"><ele>57.0</ele><time>2026-04-18T07:26:59.999Z</time></trkpt><trkpt lat="43.53848755392598" lon="10.700503817604297"><ele>57.0</ele><time>2026-04-18T07:27:00.999Z</time></trkpt><trkpt lat="43.5386352610652" lon="10.700484556352118"><ele>57.0</ele><time>2026-04-18T07:27:01.999Z</time></trkpt><trkpt lat="43.53878525071203" lon="10.70046458002807"><ele>56.66666666666667</ele><time>2026-04-18T07:27:02.999Z</time></trkpt><trkpt lat="43.53893617847339" lon="10.700443778600059"><ele>56.333333333333336</ele><time>2026-04-18T07:27:03.999Z</time></trkpt><trkpt lat="43.53908715870377" lon="10.700421892682071"><ele>56.0</ele><time>2026-04-18T07:27:04.999Z</time></trkpt><trkpt lat="43.53923740513186" lon="10.700402490499602"><ele>56.0</ele><time>2026-04-18T07:27:05.999Z</time></trkpt><trkpt lat="43.5393871277317" lon="10.700382725873835"><ele>56.0</ele><time>2026-04-18T07:27:06.999Z</time></trkpt><trkpt lat="43.539536443929926" lon="10.700365478611248"><ele>56.0</ele><time>2026-04-18T07:27:07.999Z</time></trkpt><trkpt lat="43.539685976143524" lon="10.700348710977217"><ele>56.25</ele><time>2026-04-18T07:27:08.999Z</time></trkpt><trkpt lat="43.53983416385385" lon="10.700330602445893"><ele>56.5</ele><time>2026-04-18T07:27:09.999Z</time></trkpt><trkpt lat="43.53998173177253" lon="10.700312877392602"><ele>56.75</ele><time>2026-04-18T07:27:10.999Z</time></trkpt><trkpt lat="43.54012797908931" lon="10.700294528991082"><ele>57.0</ele><time>2026-04-18T07:27:11.999Z</time></trkpt><trkpt lat="43.54027243202778" lon="10.700273909888306"><ele>56.75</ele><time>2026-04-18T07:27:12.999Z</time></trkpt><trkpt lat="43.540413058430765" lon="10.700253157289088"><ele>56.5</ele><time>2026-04-18T07:27:13.999Z</time></trkpt><trkpt lat="43.540552297843305" lon="10.700234080245217"><ele>56.25</ele><time>2026-04-18T07:27:14.999Z</time></trkpt><trkpt lat="43.540689789081846" lon="10.7002138847419"><ele>56.0</ele><time>2026-04-18T07:27:15.999Z</time></trkpt><trkpt lat="43.54082467561627" lon="10.700194643797683"><ele>56.0</ele><time>2026-04-18T07:27:16.999Z</time></trkpt><trkpt lat="43.540953652121686" lon="10.70017400055229"><ele>56.0</ele><time>2026-04-18T07:27:17.999Z</time></trkpt><trkpt lat="43.541073637760356" lon="10.700153845591656"><ele>56.0</ele><time>2026-04-18T07:27:18.999Z</time></trkpt><trkpt lat="43.541181745154276" lon="10.7001351330687"><ele>56.0</ele><time>2026-04-18T07:27:19.999Z</time></trkpt><trkpt lat="43.54128256002399" lon="10.700116305627633"><ele>56.00000000000001</ele><time>2026-04-18T07:27:20.999Z</time></trkpt><trkpt lat="43.54137236732782" lon="10.700099991052486"><ele>56.0</ele><time>2026-04-18T07:27:21.999Z</time></trkpt><trkpt lat="43.541454228122284" lon="10.700091597080684"><ele>56.0</ele><time>2026-04-18T07:27:22.999Z</time></trkpt><trkpt lat="43.54153081244437" lon="10.700097427649018"><ele>56.0</ele><time>2026-04-18T07:27:23.999Z</time></trkpt><trkpt lat="43.541600991217834" lon="10.700130341650498"><ele>56.00000000000001</ele><time>2026-04-18T07:27:24.999Z</time></trkpt><trkpt lat="43.541677529010286" lon="10.700161639516397"><ele>56.0</ele><time>2026-04-18T07:27:25.999Z</time></trkpt><trkpt lat="43.54173917929524" lon="10.700220506151004"><ele>56.0</ele><time>2026-04-18T07:27:26.999Z</time></trkpt><trkpt lat="43.541743885467014" lon="10.700376728037567"><ele>55.99999999999999</ele><time>2026-04-18T07:27:27.999Z</time></trkpt><trkpt lat="43.541758890632345" lon="10.700498287862297"><ele>55.99999999999999</ele><time>2026-04-18T07:27:28.999Z</time></trkpt><trkpt lat="43.54177589289384" lon="10.70063213467494"><ele>56.0</ele><time>2026-04-18T07:27:29.999Z</time></trkpt><trkpt lat="43.541795303437674" lon="10.700769217147041"><ele>56.0</ele><time>2026-04-18T07:27:30.999Z</time></trkpt><trkpt lat="43.54181573818363" lon="10.700906642818495"><ele>56.0</ele><time>2026-04-18T07:27:31.999Z</time></trkpt><trkpt lat="43.54183654331021" lon="10.701042225964011"><ele>55.99999999999999</ele><time>2026-04-18T07:27:32.999Z</time></trkpt><trkpt lat="43.54185540415682" lon="10.701180790311122"><ele>55.99999999999999</ele><time>2026-04-18T07:27:33.999Z</time></trkpt><trkpt lat="43.54187305103517" lon="10.70131833215407"><ele>56.0</ele><time>2026-04-18T07:27:34.999Z</time></trkpt><trkpt lat="43.541890732871465" lon="10.701461459417406"><ele>56.0</ele><time>2026-04-18T07:27:35.999Z</time></trkpt><trkpt lat="43.5419097506656" lon="10.701606728067096"><ele>55.599999999999994</ele><time>2026-04-18T07:27:36.999Z</time></trkpt><trkpt lat="43.54192953697242" lon="10.701752244232848"><ele>55.199999999999996</ele><time>2026-04-18T07:27:37.999Z</time></trkpt><trkpt lat="43.541949464949546" lon="10.701899239074951"><ele>54.800000000000004</ele><time>2026-04-18T07:27:38.999Z</time></trkpt><trkpt lat="43.54197015673515" lon="10.702048071774632"><ele>54.400000000000006</ele><time>2026-04-18T07:27:39.999Z</time></trkpt><trkpt lat="43.54199000818862" lon="10.7021998235803"><ele>54.0</ele><time>2026-04-18T07:27:40.999Z</time></trkpt><trkpt lat="43.54201208137012" lon="10.702352951364514"><ele>54.0</ele><time>2026-04-18T07:27:41.999Z</time></trkpt><trkpt lat="43.54203312210824" lon="10.70251092894271"><ele>54.0</ele><time>2026-04-18T07:27:42.999Z</time></trkpt><trkpt lat="43.54205512329668" lon="10.702668383819358"><ele>54.0</ele><time>2026-04-18T07:27:43.999Z</time></trkpt><trkpt lat="43.542076202212485" lon="10.70282624805594"><ele>54.0</ele><time>2026-04-18T07:27:44.999Z</time></trkpt><trkpt lat="43.542096455738786" lon="10.70298107097731"><ele>53.25</ele><time>2026-04-18T07:27:45.999Z</time></trkpt><trkpt lat="43.5421166227395" lon="10.70313825963904"><ele>52.5</ele><time>2026-04-18T07:27:46.999Z</time></trkpt><trkpt lat="43.542136710718324" lon="10.703295185463066"><ele>51.75</ele><time>2026-04-18T07:27:47.999Z</time></trkpt><trkpt lat="43.54215889064092" lon="10.703455383143954"><ele>51.0</ele><time>2026-04-18T07:27:48.999Z</time></trkpt><trkpt lat="43.542180755687816" lon="10.703619008820551"><ele>51.0</ele><time>2026-04-18T07:27:49.999Z</time></trkpt><trkpt lat="43.5422009594973" lon="10.703784903678088"><ele>51.0</ele><time>2026-04-18T07:27:50.998Z</time></trkpt><trkpt lat="43.542222518924135" lon="10.703950703306688"><ele>51.0</ele><time>2026-04-18T07:27:51.998Z</time></trkpt><trkpt lat="43.542244668762976" lon="10.704117607401072"><ele>51.0</ele><time>2026-04-18T07:27:52.998Z</time></trkpt><trkpt lat="43.54226847134593" lon="10.704283641877234"><ele>50.5</ele><time>2026-04-18T07:27:53.998Z</time></trkpt><trkpt lat="43.54229074664121" lon="10.704446519414425"><ele>50.0</ele><time>2026-04-18T07:27:54.998Z</time></trkpt><trkpt lat="43.54231302664885" lon="10.704607431081357"><ele>49.5</ele><time>2026-04-18T07:27:55.998Z</time></trkpt><trkpt lat="43.542335077562534" lon="10.704770747801025"><ele>49.0</ele><time>2026-04-18T07:27:56.998Z</time></trkpt><trkpt lat="43.542356500400906" lon="10.704934094909417"><ele>49.0</ele><time>2026-04-18T07:27:57.998Z</time></trkpt><trkpt lat="43.542378334631564" lon="10.705095328305246"><ele>49.0</ele><time>2026-04-18T07:27:58.998Z</time></trkpt><trkpt lat="43.54239940255681" lon="10.70525409468989"><ele>49.0</ele><time>2026-04-18T07:27:59.998Z</time></trkpt><trkpt lat="43.54241983424213" lon="10.705404005602096"><ele>49.0</ele><time>2026-04-18T07:28:00.998Z</time></trkpt><trkpt lat="43.54244110877699" lon="10.705549337096164"><ele>49.25</ele><time>2026-04-18T07:28:01.998Z</time></trkpt><trkpt lat="43.542460453092126" lon="10.705696074982551"><ele>49.5</ele><time>2026-04-18T07:28:02.998Z</time></trkpt><trkpt lat="43.54247705478079" lon="10.705848177983805"><ele>49.75</ele><time>2026-04-18T07:28:03.998Z</time></trkpt><trkpt lat="43.54249645699463" lon="10.706007830212448"><ele>50.0</ele><time>2026-04-18T07:28:04.998Z</time></trkpt><trkpt lat="43.54251752446492" lon="10.706178926024485"><ele>50.25</ele><time>2026-04-18T07:28:05.998Z</time></trkpt><trkpt lat="43.54254162445855" lon="10.706346170450832"><ele>50.5</ele><time>2026-04-18T07:28:06.998Z</time></trkpt><trkpt lat="43.54256273096111" lon="10.706505874341515"><ele>50.75</ele><time>2026-04-18T07:28:07.998Z</time></trkpt><trkpt lat="43.54257930964965" lon="10.706657571044998"><ele>51.0</ele><time>2026-04-18T07:28:08.998Z</time></trkpt><trkpt lat="43.54260298537205" lon="10.706812946643916"><ele>50.5</ele><time>2026-04-18T07:28:09.998Z</time></trkpt><trkpt lat="43.542629908766365" lon="10.70697556602818"><ele>50.0</ele><time>2026-04-18T07:28:10.998Z</time></trkpt><trkpt lat="43.54265783648763" lon="10.707150992666568"><ele>49.5</ele><time>2026-04-18T07:28:11.998Z</time></trkpt><trkpt lat="43.542685268421586" lon="10.70733675015786"><ele>49.0</ele><time>2026-04-18T07:28:12.998Z</time></trkpt><trkpt lat="43.542714491408084" lon="10.707532135981635"><ele>49.0</ele><time>2026-04-18T07:28:13.998Z</time></trkpt><trkpt lat="43.542744232617515" lon="10.707737602646363"><ele>49.0</ele><time>2026-04-18T07:28:14.998Z</time></trkpt><trkpt lat="43.54277561162809" lon="10.70795379187638"><ele>49.0</ele><time>2026-04-18T07:28:15.998Z</time></trkpt><trkpt lat="43.54280125127281" lon="10.708174942674857"><ele>49.0</ele><time>2026-04-18T07:28:16.998Z</time></trkpt><trkpt lat="43.542830101610264" lon="10.708409993848909"><ele>49.0</ele><time>2026-04-18T07:28:17.998Z</time></trkpt><trkpt lat="43.54285899276196" lon="10.708652401008257"><ele>49.0</ele><time>2026-04-18T07:28:18.998Z</time></trkpt><trkpt lat="43.54289037400815" lon="10.708897306272283"><ele>49.0</ele><time>2026-04-18T07:28:19.998Z</time></trkpt><trkpt lat="43.542923416346135" lon="10.709145167744813"><ele>49.0</ele><time>2026-04-18T07:28:20.998Z</time></trkpt><trkpt lat="43.54295836695616" lon="10.709396605798263"><ele>49.0</ele><time>2026-04-18T07:28:21.998Z</time></trkpt><trkpt lat="43.5429903883037" lon="10.70965526980224"><ele>48.666666666666664</ele><time>2026-04-18T07:28:22.998Z</time></trkpt><trkpt lat="43.543024586408876" lon="10.709919613625777"><ele>48.33333333333333</ele><time>2026-04-18T07:28:23.998Z</time></trkpt><trkpt lat="43.543059711507446" lon="10.710184639848869"><ele>48.0</ele><time>2026-04-18T07:28:24.998Z</time></trkpt><trkpt lat="43.54309809933651" lon="10.710452666636481"><ele>46.5</ele><time>2026-04-18T07:28:25.998Z</time></trkpt><trkpt lat="43.54313394437959" lon="10.710723497779327"><ele>45.0</ele><time>2026-04-18T07:28:26.998Z</time></trkpt><trkpt lat="43.54320996444568" lon="10.711255041057811"><ele>44.333333333333336</ele><time>2026-04-18T07:28:28.998Z</time></trkpt><trkpt lat="43.5432444729986" lon="10.711512162487942"><ele>43.66666666666667</ele><time>2026-04-18T07:28:29.998Z</time></trkpt><trkpt lat="43.54328073484972" lon="10.711768298456535"><ele>43.0</ele><time>2026-04-18T07:28:30.998Z</time></trkpt><trkpt lat="43.54331393910057" lon="10.712021001584398"><ele>43.0</ele><time>2026-04-18T07:28:31.998Z</time></trkpt><trkpt lat="43.54334531139662" lon="10.712268755493588"><ele>43.0</ele><time>2026-04-18T07:28:32.998Z</time></trkpt><trkpt lat="43.543377404829116" lon="10.712509924355265"><ele>43.0</ele><time>2026-04-18T07:28:33.998Z</time></trkpt><trkpt lat="43.543407855395365" lon="10.712746061432593"><ele>42.66666666666667</ele><time>2026-04-18T07:28:34.998Z</time></trkpt><trkpt lat="43.54344132494069" lon="10.712978143436684"><ele>42.333333333333336</ele><time>2026-04-18T07:28:35.998Z</time></trkpt><trkpt lat="43.54347412105102" lon="10.713206880470048"><ele>42.0</ele><time>2026-04-18T07:28:36.998Z</time></trkpt><trkpt lat="43.54350433651548" lon="10.713430490882873"><ele>41.666666666666664</ele><time>2026-04-18T07:28:37.998Z</time></trkpt><trkpt lat="43.5435330851912" lon="10.7136471664217"><ele>41.33333333333333</ele><time>2026-04-18T07:28:38.998Z</time></trkpt><trkpt lat="43.543562704694054" lon="10.713852586734234"><ele>41.0</ele><time>2026-04-18T07:28:39.998Z</time></trkpt><trkpt lat="43.543589423270895" lon="10.714045706651689"><ele>41.0</ele><time>2026-04-18T07:28:40.998Z</time></trkpt><trkpt lat="43.543614695011904" lon="10.71423251294291"><ele>41.0</ele><time>2026-04-18T07:28:41.998Z</time></trkpt><trkpt lat="43.54363869528105" lon="10.714407001141357"><ele>41.0</ele><time>2026-04-18T07:28:42.997Z</time></trkpt><trkpt lat="43.543662507292645" lon="10.71455961120871"><ele>41.0</ele><time>2026-04-18T07:28:43.997Z</time></trkpt><trkpt lat="43.54368743266441" lon="10.714695161278858"><ele>41.83333333333333</ele><time>2026-04-18T07:28:44.997Z</time></trkpt><trkpt lat="43.54371595015373" lon="10.7148082333834"><ele>42.666666666666664</ele><time>2026-04-18T07:28:45.997Z</time></trkpt><trkpt lat="43.54374440847167" lon="10.714903257795536"><ele>43.5</ele><time>2026-04-18T07:28:46.997Z</time></trkpt><trkpt lat="43.54376702028384" lon="10.714989592302594"><ele>44.333333333333336</ele><time>2026-04-18T07:28:47.999Z</time></trkpt><trkpt lat="43.54376171798466" lon="10.715120658782348"><ele>45.16666666666667</ele><time>2026-04-18T07:28:49.999Z</time></trkpt><trkpt lat="43.543691529914696" lon="10.715164299255111"><ele>46.0</ele><time>2026-04-18T07:28:53.999Z</time></trkpt><trkpt lat="43.543657374470754" lon="10.71505231592653"><ele>46.0</ele><time>2026-04-18T07:28:55.999Z</time></trkpt><trkpt lat="43.543619284638815" lon="10.71490062808556"><ele>46.0</ele><time>2026-04-18T07:28:57.999Z</time></trkpt><trkpt lat="43.543594711510906" lon="10.714816934781691"><ele>46.0</ele><time>2026-04-18T07:28:58.999Z</time></trkpt><trkpt lat="43.543568731522164" lon="10.71472958112116"><ele>46.0</ele><time>2026-04-18T07:28:59.999Z</time></trkpt><trkpt lat="43.5435429646988" lon="10.714640541626274"><ele>46.0</ele><time>2026-04-18T07:29:00.999Z</time></trkpt><trkpt lat="43.54351775886703" lon="10.71455255388975"><ele>46.0</ele><time>2026-04-18T07:29:01.999Z</time></trkpt><trkpt lat="43.54349247267872" lon="10.71446402432666"><ele>45.285714285714285</ele><time>2026-04-18T07:29:02.999Z</time></trkpt><trkpt lat="43.543466963094254" lon="10.71437796408414"><ele>44.57142857142857</ele><time>2026-04-18T07:29:03.999Z</time></trkpt><trkpt lat="43.543435617371216" lon="10.714302161113288"><ele>43.857142857142854</ele><time>2026-04-18T07:29:04.999Z</time></trkpt><trkpt lat="43.54339693938754" lon="10.714231098251009"><ele>43.14285714285714</ele><time>2026-04-18T07:29:05.999Z</time></trkpt><trkpt lat="43.543349606417685" lon="10.714171265915928"><ele>42.42857142857143</ele><time>2026-04-18T07:29:06.999Z</time></trkpt><trkpt lat="43.54330687986553" lon="10.71410110659138"><ele>41.71428571428571</ele><time>2026-04-18T07:29:07.999Z</time></trkpt><trkpt lat="43.54324664539855" lon="10.714063218011805"><ele>41.0</ele><time>2026-04-18T07:29:08.999Z</time></trkpt><trkpt lat="43.5431795429246" lon="10.71404031112317"><ele>40.99999999999999</ele><time>2026-04-18T07:29:09.999Z</time></trkpt><trkpt lat="43.54310894571789" lon="10.714026549572852"><ele>41.0</ele><time>2026-04-18T07:29:10.999Z</time></trkpt><trkpt lat="43.54303808992598" lon="10.714022103090928"><ele>41.0</ele><time>2026-04-18T07:29:11.999Z</time></trkpt><trkpt lat="43.54296519572008" lon="10.71402165193527"><ele>41.0</ele><time>2026-04-18T07:29:12.999Z</time></trkpt><trkpt lat="43.5428920485252" lon="10.714023068036727"><ele>41.0</ele><time>2026-04-18T07:29:13.999Z</time></trkpt><trkpt lat="43.54281794499231" lon="10.71402628302801"><ele>40.99999999999999</ele><time>2026-04-18T07:29:14.999Z</time></trkpt><trkpt lat="43.54274120236032" lon="10.714029612515185"><ele>41.0</ele><time>2026-04-18T07:29:15.999Z</time></trkpt><trkpt lat="43.542666372282376" lon="10.714052775111279"><ele>41.0</ele><time>2026-04-18T07:29:16.999Z</time></trkpt><trkpt lat="43.54258638493882" lon="10.714051252916393"><ele>41.0</ele><time>2026-04-18T07:29:17.999Z</time></trkpt><trkpt lat="43.54250271040693" lon="10.714050699482287"><ele>41.0</ele><time>2026-04-18T07:29:18.999Z</time></trkpt><trkpt lat="43.5424138427665" lon="10.714057124783821"><ele>41.0</ele><time>2026-04-18T07:29:19.999Z</time></trkpt><trkpt lat="43.54232515077085" lon="10.714063653734271"><ele>41.0</ele><time>2026-04-18T07:29:20.999Z</time></trkpt><trkpt lat="43.54223621515863" lon="10.714077869945251"><ele>41.0</ele><time>2026-04-18T07:29:21.999Z</time></trkpt><trkpt lat="43.54214955939832" lon="10.714096194945274"><ele>41.0</ele><time>2026-04-18T07:29:22.999Z</time></trkpt><trkpt lat="43.54206494133126" lon="10.714114557067662"><ele>41.0</ele><time>2026-04-18T07:29:23.999Z</time></trkpt><trkpt lat="43.54198413183951" lon="10.714134633756558"><ele>41.0</ele><time>2026-04-18T07:29:24.999Z</time></trkpt><trkpt lat="43.54190209194209" lon="10.714163248571563"><ele>41.0</ele><time>2026-04-18T07:29:25.999Z</time></trkpt><trkpt lat="43.54182729581481" lon="10.714183662263174"><ele>41.0</ele><time>2026-04-18T07:29:26.999Z</time></trkpt><trkpt lat="43.5417545610084" lon="10.71420564395931"><ele>41.0</ele><time>2026-04-18T07:29:27.999Z</time></trkpt><trkpt lat="43.54168306581744" lon="10.714231171979907"><ele>40.83333333333333</ele><time>2026-04-18T07:29:28.999Z</time></trkpt><trkpt lat="43.54161144227801" lon="10.714261147326436"><ele>40.666666666666664</ele><time>2026-04-18T07:29:29.999Z</time></trkpt><trkpt lat="43.541554259829404" lon="10.71431971396846"><ele>40.5</ele><time>2026-04-18T07:29:30.999Z</time></trkpt><trkpt lat="43.54146729885912" lon="10.71431469398473"><ele>40.333333333333336</ele><time>2026-04-18T07:29:31.999Z</time></trkpt><trkpt lat="43.541396163209015" lon="10.714340722537887"><ele>40.16666666666667</ele><time>2026-04-18T07:29:32.999Z</time></trkpt><trkpt lat="43.541321509853894" lon="10.714370206155074"><ele>40.0</ele><time>2026-04-18T07:29:33.999Z</time></trkpt><trkpt lat="43.54125036493015" lon="10.714398946496182"><ele>40.0</ele><time>2026-04-18T07:29:34.999Z</time></trkpt><trkpt lat="43.54117288590116" lon="10.7144046541038"><ele>40.0</ele><time>2026-04-18T07:29:35.999Z</time></trkpt><trkpt lat="43.541105240665374" lon="10.714449511972667"><ele>40.0</ele><time>2026-04-18T07:29:36.999Z</time></trkpt><trkpt lat="43.54103592106086" lon="10.71446716820984"><ele>40.0</ele><time>2026-04-18T07:29:37.999Z</time></trkpt><trkpt lat="43.540967998566956" lon="10.714480366660304"><ele>40.0</ele><time>2026-04-18T07:29:38.999Z</time></trkpt><trkpt lat="43.54090175803324" lon="10.71449141742676"><ele>40.0</ele><time>2026-04-18T07:29:39.999Z</time></trkpt><trkpt lat="43.54083407665257" lon="10.714499696053672"><ele>40.0</ele><time>2026-04-18T07:29:40.999Z</time></trkpt><trkpt lat="43.54076839149384" lon="10.714502008875828"><ele>40.857142857142854</ele><time>2026-04-18T07:29:41.999Z</time></trkpt><trkpt lat="43.54070396879285" lon="10.714506113648428"><ele>41.714285714285715</ele><time>2026-04-18T07:29:42.999Z</time></trkpt><trkpt lat="43.54063635932563" lon="10.714511514938692"><ele>42.57142857142857</ele><time>2026-04-18T07:29:43.999Z</time></trkpt><trkpt lat="43.54056916004399" lon="10.714518671156414"><ele>43.42857142857143</ele><time>2026-04-18T07:29:44.999Z</time></trkpt><trkpt lat="43.540498248281885" lon="10.714530341789553"><ele>44.285714285714285</ele><time>2026-04-18T07:29:45.999Z</time></trkpt><trkpt lat="43.5404258654594" lon="10.714538699031312"><ele>45.142857142857146</ele><time>2026-04-18T07:29:46.999Z</time></trkpt><trkpt lat="43.5403553989069" lon="10.714541796311407"><ele>46.0</ele><time>2026-04-18T07:29:47.999Z</time></trkpt><trkpt lat="43.540291644593594" lon="10.714540213068355"><ele>47.0</ele><time>2026-04-18T07:29:48.999Z</time></trkpt><trkpt lat="43.54022994988623" lon="10.714517445332403"><ele>48.0</ele><time>2026-04-18T07:29:49.999Z</time></trkpt><trkpt lat="43.54012063774677" lon="10.714500485482068"><ele>49.0</ele><time>2026-04-18T07:29:51.998Z</time></trkpt><trkpt lat="43.5400236763033" lon="10.714482969481615"><ele>50.0</ele><time>2026-04-18T07:29:53.998Z</time></trkpt><trkpt lat="43.539937036143556" lon="10.714464346709354"><ele>50.99999999999999</ele><time>2026-04-18T07:29:55.998Z</time></trkpt><trkpt lat="43.53985414418965" lon="10.714443329777627"><ele>52.0</ele><time>2026-04-18T07:29:57.998Z</time></trkpt><trkpt lat="43.53976140599703" lon="10.71442198575393"><ele>52.0</ele><time>2026-04-18T07:29:59.998Z</time></trkpt><trkpt lat="43.539662650644054" lon="10.714438981274487"><ele>52.0</ele><time>2026-04-18T07:30:01.999Z</time></trkpt><trkpt lat="43.53956329540545" lon="10.71446876243273"><ele>52.0</ele><time>2026-04-18T07:30:03.999Z</time></trkpt><trkpt lat="43.53946671289782" lon="10.714548243159355"><ele>52.0</ele><time>2026-04-18T07:30:05.999Z</time></trkpt><trkpt lat="43.53939975967315" lon="10.714675233750297"><ele>52.0</ele><time>2026-04-18T07:30:07.999Z</time></trkpt><trkpt lat="43.53932440536161" lon="10.714772796479961"><ele>51.83333333333333</ele><time>2026-04-18T07:30:09.999Z</time></trkpt><trkpt lat="43.53926299565546" lon="10.714885721156493"><ele>51.666666666666664</ele><time>2026-04-18T07:30:11.999Z</time></trkpt><trkpt lat="43.53919583577203" lon="10.714935683000526"><ele>51.5</ele><time>2026-04-18T07:30:13.999Z</time></trkpt><trkpt lat="43.539133667390765" lon="10.714903744125293"><ele>51.33333333333333</ele><time>2026-04-18T07:30:15.999Z</time></trkpt><trkpt lat="43.53910348068531" lon="10.714779217650898"><ele>51.166666666666664</ele><time>2026-04-18T07:30:18.999Z</time></trkpt><trkpt lat="43.53907556107412" lon="10.714645506706105"><ele>51.0</ele><time>2026-04-18T07:30:20.999Z</time></trkpt><trkpt lat="43.53902839491023" lon="10.714494707985992"><ele>51.0</ele><time>2026-04-18T07:30:22.999Z</time></trkpt><trkpt lat="43.53899230913863" lon="10.714420895766645"><ele>51.0</ele><time>2026-04-18T07:30:23.999Z</time></trkpt><trkpt lat="43.538910497712045" lon="10.714300682764229"><ele>51.0</ele><time>2026-04-18T07:30:25.999Z</time></trkpt><trkpt lat="43.538831492804036" lon="10.714188488637692"><ele>51.0</ele><time>2026-04-18T07:30:27.999Z</time></trkpt><trkpt lat="43.53874868894304" lon="10.714115293166143"><ele>51.0</ele><time>2026-04-18T07:30:29.999Z</time></trkpt><trkpt lat="43.538674741097225" lon="10.714050932870418"><ele>49.666666666666664</ele><time>2026-04-18T07:30:31.999Z</time></trkpt><trkpt lat="43.5386043131248" lon="10.713981590742423"><ele>48.333333333333336</ele><time>2026-04-18T07:30:33.999Z</time></trkpt><trkpt lat="43.53854548557744" lon="10.71391269012892"><ele>47.0</ele><time>2026-04-18T07:30:35.999Z</time></trkpt><trkpt lat="43.5384857431408" lon="10.713839973003662"><ele>45.66666666666667</ele><time>2026-04-18T07:30:37.999Z</time></trkpt><trkpt lat="43.53842471316191" lon="10.71376404181281"><ele>44.333333333333336</ele><time>2026-04-18T07:30:39.999Z</time></trkpt><trkpt lat="43.53836862673537" lon="10.713695773578038"><ele>43.0</ele><time>2026-04-18T07:30:41.999Z</time></trkpt><trkpt lat="43.53832144995723" lon="10.713616001638279"><ele>42.8</ele><time>2026-04-18T07:30:43.999Z</time></trkpt><trkpt lat="43.53829389881977" lon="10.713531156487258"><ele>42.599999999999994</ele><time>2026-04-18T07:30:45.998Z</time></trkpt><trkpt lat="43.53830702562815" lon="10.713394341193865"><ele>42.400000000000006</ele><time>2026-04-18T07:30:48.998Z</time></trkpt><trkpt lat="43.53833680408148" lon="10.713280061069794"><ele>42.2</ele><time>2026-04-18T07:30:50.998Z</time></trkpt><trkpt lat="43.53827553875706" lon="10.713160096493642"><ele>42.0</ele><time>2026-04-18T07:30:52.998Z</time></trkpt><trkpt lat="43.53819435089299" lon="10.713090093297117"><ele>42.0</ele><time>2026-04-18T07:30:55Z</time></trkpt><trkpt lat="43.538114546109455" lon="10.713028266071607"><ele>42.0</ele><time>2026-04-18T07:30:57Z</time></trkpt><trkpt lat="43.53804454123834" lon="10.712957518431695"><ele>42.0</ele><time>2026-04-18T07:30:59Z</time></trkpt><trkpt lat="43.537975439805436" lon="10.712869652254282"><ele>42.0</ele><time>2026-04-18T07:31:01Z</time></trkpt><trkpt lat="43.537886673685236" lon="10.712795969356325"><ele>42.0</ele><time>2026-04-18T07:31:03Z</time></trkpt><trkpt lat="43.537804547266255" lon="10.712699116781804"><ele>42.0</ele><time>2026-04-18T07:31:05Z</time></trkpt><trkpt lat="43.5377115949163" lon="10.712617254502401"><ele>42.0</ele><time>2026-04-18T07:31:07Z</time></trkpt><trkpt lat="43.53762639914497" lon="10.712519967312268"><ele>42.0</ele><time>2026-04-18T07:31:09Z</time></trkpt><trkpt lat="43.53752144151249" lon="10.712440894921356"><ele>42.0</ele><time>2026-04-18T07:31:11Z</time></trkpt><trkpt lat="43.53742704099957" lon="10.71234402379358"><ele>42.0</ele><time>2026-04-18T07:31:13Z</time></trkpt><trkpt lat="43.53732944781358" lon="10.71224997398472"><ele>42.0</ele><time>2026-04-18T07:31:15Z</time></trkpt><trkpt lat="43.53724182767026" lon="10.712136329702938"><ele>42.0</ele><time>2026-04-18T07:31:17Z</time></trkpt><trkpt lat="43.53714450140714" lon="10.71204014641021"><ele>42.0</ele><time>2026-04-18T07:31:19Z</time></trkpt><trkpt lat="43.53703588617976" lon="10.711971074879807"><ele>42.0</ele><time>2026-04-18T07:31:21Z</time></trkpt><trkpt lat="43.536932718436866" lon="10.7119000562743"><ele>42.0</ele><time>2026-04-18T07:31:23Z</time></trkpt><trkpt lat="43.536826148073075" lon="10.711843620746912"><ele>42.0</ele><time>2026-04-18T07:31:25Z</time></trkpt><trkpt lat="43.53671365183247" lon="10.711807713825465"><ele>42.0</ele><time>2026-04-18T07:31:27Z</time></trkpt><trkpt lat="43.53659797578978" lon="10.711782470284033"><ele>42.0</ele><time>2026-04-18T07:31:29Z</time></trkpt><trkpt lat="43.53648782101225" lon="10.71176360595439"><ele>42.0</ele><time>2026-04-18T07:31:31Z</time></trkpt><trkpt lat="43.53638172948879" lon="10.711750029121642"><ele>42.0</ele><time>2026-04-18T07:31:33Z</time></trkpt><trkpt lat="43.53627568693529" lon="10.71171410543295"><ele>42.0</ele><time>2026-04-18T07:31:35Z</time></trkpt><trkpt lat="43.536172915480016" lon="10.711723282059989"><ele>42.0</ele><time>2026-04-18T07:31:37Z</time></trkpt><trkpt lat="43.53607010256017" lon="10.711687217578858"><ele>41.8</ele><time>2026-04-18T07:31:39Z</time></trkpt><trkpt lat="43.535971296368324" lon="10.711693733298654"><ele>41.6</ele><time>2026-04-18T07:31:41Z</time></trkpt><trkpt lat="43.53586889744194" lon="10.71165388948688"><ele>41.4</ele><time>2026-04-18T07:31:43Z</time></trkpt><trkpt lat="43.535758755341774" lon="10.711643402900345"><ele>41.199999999999996</ele><time>2026-04-18T07:31:45Z</time></trkpt><trkpt lat="43.535660745299644" lon="10.711600326439019"><ele>41.0</ele><time>2026-04-18T07:31:47Z</time></trkpt><trkpt lat="43.53556326359364" lon="10.711555138593715"><ele>41.0</ele><time>2026-04-18T07:31:49Z</time></trkpt><trkpt lat="43.53546708188893" lon="10.711507566715776"><ele>41.0</ele><time>2026-04-18T07:31:51Z</time></trkpt><trkpt lat="43.5353730241318" lon="10.711464947829922"><ele>41.0</ele><time>2026-04-18T07:31:53Z</time></trkpt><trkpt lat="43.535272761648194" lon="10.711396371918276"><ele>41.0</ele><time>2026-04-18T07:31:55Z</time></trkpt><trkpt lat="43.53516872810724" lon="10.711345208818543"><ele>41.0</ele><time>2026-04-18T07:31:57Z</time></trkpt><trkpt lat="43.53507080098534" lon="10.71129557719141"><ele>41.0</ele><time>2026-04-18T07:31:59Z</time></trkpt><trkpt lat="43.53497442556255" lon="10.711246129054315"><ele>41.0</ele><time>2026-04-18T07:32:01Z</time></trkpt><trkpt lat="43.53488491644436" lon="10.711199138344908"><ele>41.0</ele><time>2026-04-18T07:32:02.999Z</time></trkpt><trkpt lat="43.53481766388317" lon="10.711162268309485"><ele>41.0</ele><time>2026-04-18T07:32:04.999Z</time></trkpt><trkpt lat="43.53475037412061" lon="10.71112492382618"><ele>41.0</ele><time>2026-04-18T07:32:18.999Z</time></trkpt><trkpt lat="43.53466148164906" lon="10.711075296835762"><ele>41.0</ele><time>2026-04-18T07:32:21.999Z</time></trkpt><trkpt lat="43.534579219561685" lon="10.711053488452382"><ele>41.166666666666664</ele><time>2026-04-18T07:32:23.999Z</time></trkpt><trkpt lat="43.53449778708778" lon="10.71100657157691"><ele>41.33333333333333</ele><time>2026-04-18T07:32:25.999Z</time></trkpt><trkpt lat="43.534417295387215" lon="10.710950600806466"><ele>41.5</ele><time>2026-04-18T07:32:27.999Z</time></trkpt><trkpt lat="43.53435084505848" lon="10.710890178422881"><ele>41.666666666666664</ele><time>2026-04-18T07:32:29.999Z</time></trkpt><trkpt lat="43.53427302172856" lon="10.710883634113378"><ele>41.833333333333336</ele><time>2026-04-18T07:32:31.999Z</time></trkpt><trkpt lat="43.53421585346679" lon="10.710953378732116"><ele>42.0</ele><time>2026-04-18T07:32:33.999Z</time></trkpt><trkpt lat="43.53418659773829" lon="10.711058415741316"><ele>41.8</ele><time>2026-04-18T07:32:35.999Z</time></trkpt><trkpt lat="43.534160639150166" lon="10.71117806467934"><ele>41.6</ele><time>2026-04-18T07:32:37.999Z</time></trkpt><trkpt lat="43.534130184952616" lon="10.711304567605236"><ele>41.4</ele><time>2026-04-18T07:32:39.999Z</time></trkpt><trkpt lat="43.53409299557213" lon="10.711430277609495"><ele>41.199999999999996</ele><time>2026-04-18T07:32:41.999Z</time></trkpt><trkpt lat="43.53405354972855" lon="10.711551523629211"><ele>41.0</ele><time>2026-04-18T07:32:43.999Z</time></trkpt><trkpt lat="43.534009340317596" lon="10.71165558928349"><ele>41.0</ele><time>2026-04-18T07:32:45.999Z</time></trkpt><trkpt lat="43.53396896513505" lon="10.71175236444587"><ele>41.0</ele><time>2026-04-18T07:32:47.999Z</time></trkpt><trkpt lat="43.53382840971641" lon="10.711781021111454"><ele>41.0</ele><time>2026-04-18T07:32:50.999Z</time></trkpt><trkpt lat="43.53372184177699" lon="10.71180679511371"><ele>41.0</ele><time>2026-04-18T07:32:52.999Z</time></trkpt><trkpt lat="43.53361079280932" lon="10.711855244561939"><ele>41.0</ele><time>2026-04-18T07:32:54.999Z</time></trkpt><trkpt lat="43.53349578708102" lon="10.711903692476335"><ele>41.8</ele><time>2026-04-18T07:32:56.999Z</time></trkpt><trkpt lat="43.533377295066835" lon="10.711946809538759"><ele>42.599999999999994</ele><time>2026-04-18T07:32:59.001Z</time></trkpt><trkpt lat="43.53325788660957" lon="10.711992771641084"><ele>43.4</ele><time>2026-04-18T07:33:01.001Z</time></trkpt><trkpt lat="43.533142325984144" lon="10.712042201908792"><ele>44.2</ele><time>2026-04-18T07:33:03.001Z</time></trkpt><trkpt lat="43.53308047536061" lon="10.712067105048687"><ele>45.0</ele><time>2026-04-18T07:33:04Z</time></trkpt><trkpt lat="43.53296148330769" lon="10.712110216649636"><ele>45.0</ele><time>2026-04-18T07:33:06.001Z</time></trkpt><trkpt lat="43.532898909487365" lon="10.712136214898049"><ele>45.0</ele><time>2026-04-18T07:33:07Z</time></trkpt><trkpt lat="43.53283380822376" lon="10.712161075510796"><ele>45.0</ele><time>2026-04-18T07:33:08.001Z</time></trkpt><trkpt lat="43.53276811354269" lon="10.71218658900396"><ele>45.0</ele><time>2026-04-18T07:33:09.001Z</time></trkpt><trkpt lat="43.53270256832703" lon="10.71221172461308"><ele>45.0</ele><time>2026-04-18T07:33:10Z</time></trkpt><trkpt lat="43.532632926660526" lon="10.7122377866313"><ele>45.0</ele><time>2026-04-18T07:33:11Z</time></trkpt><trkpt lat="43.53256500496965" lon="10.712264027335948"><ele>45.0</ele><time>2026-04-18T07:33:12.001Z</time></trkpt><trkpt lat="43.532495357528724" lon="10.71229366077159"><ele>44.857142857142854</ele><time>2026-04-18T07:33:13Z</time></trkpt><trkpt lat="43.532425671719906" lon="10.712322604288426"><ele>44.714285714285715</ele><time>2026-04-18T07:33:14Z</time></trkpt><trkpt lat="43.53235388139494" lon="10.712351979978859"><ele>44.57142857142857</ele><time>2026-04-18T07:33:15Z</time></trkpt><trkpt lat="43.53228333810387" lon="10.712380275743518"><ele>44.42857142857143</ele><time>2026-04-18T07:33:16Z</time></trkpt><trkpt lat="43.532216591473144" lon="10.712404356014785"><ele>44.285714285714285</ele><time>2026-04-18T07:33:17Z</time></trkpt><trkpt lat="43.53214829979073" lon="10.712431154810337"><ele>44.142857142857146</ele><time>2026-04-18T07:33:18Z</time></trkpt><trkpt lat="43.53208145559758" lon="10.712458291363994"><ele>44.0</ele><time>2026-04-18T07:33:19Z</time></trkpt><trkpt lat="43.532017134806324" lon="10.71248446981534"><ele>43.714285714285715</ele><time>2026-04-18T07:33:20Z</time></trkpt><trkpt lat="43.531952215422294" lon="10.712510116548758"><ele>43.42857142857143</ele><time>2026-04-18T07:33:21Z</time></trkpt><trkpt lat="43.531887610077675" lon="10.712535282065328"><ele>43.14285714285714</ele><time>2026-04-18T07:33:22Z</time></trkpt><trkpt lat="43.53182237211567" lon="10.712560450835555"><ele>42.85714285714286</ele><time>2026-04-18T07:33:23Z</time></trkpt><trkpt lat="43.53175713492191" lon="10.71258888543031"><ele>42.57142857142857</ele><time>2026-04-18T07:33:24Z</time></trkpt><trkpt lat="43.531690478719426" lon="10.712616474655125"><ele>42.285714285714285</ele><time>2026-04-18T07:33:25Z</time></trkpt><trkpt lat="43.53162285874829" lon="10.712644843361632"><ele>42.0</ele><time>2026-04-18T07:33:26Z</time></trkpt><trkpt lat="43.53155803184303" lon="10.712675450650643"><ele>42.0</ele><time>2026-04-18T07:33:27Z</time></trkpt><trkpt lat="43.531493758467235" lon="10.712703988127947"><ele>42.0</ele><time>2026-04-18T07:33:28Z</time></trkpt><trkpt lat="43.53142757330575" lon="10.712728205334278"><ele>42.0</ele><time>2026-04-18T07:33:29Z</time></trkpt><trkpt lat="43.53136326713393" lon="10.712752050004314"><ele>42.0</ele><time>2026-04-18T07:33:30Z</time></trkpt><trkpt lat="43.53129925017507" lon="10.712777919831678"><ele>42.0</ele><time>2026-04-18T07:33:31Z</time></trkpt><trkpt lat="43.53123610007473" lon="10.712805370389328"><ele>42.0</ele><time>2026-04-18T07:33:32Z</time></trkpt><trkpt lat="43.531116028698456" lon="10.712855918760088"><ele>42.166666666666664</ele><time>2026-04-18T07:33:34Z</time></trkpt><trkpt lat="43.53105386294051" lon="10.712883783131934"><ele>42.333333333333336</ele><time>2026-04-18T07:33:35Z</time></trkpt><trkpt lat="43.530990636290085" lon="10.712911442180038"><ele>42.5</ele><time>2026-04-18T07:33:36Z</time></trkpt><trkpt lat="43.53092537549449" lon="10.712938723011604"><ele>42.66666666666667</ele><time>2026-04-18T07:33:37Z</time></trkpt><trkpt lat="43.530863384265174" lon="10.712962902691308"><ele>42.833333333333336</ele><time>2026-04-18T07:33:38Z</time></trkpt><trkpt lat="43.53075092952839" lon="10.713008532199837"><ele>43.0</ele><time>2026-04-18T07:33:40Z</time></trkpt><trkpt lat="43.53063609784769" lon="10.713059242076918"><ele>43.0</ele><time>2026-04-18T07:33:42Z</time></trkpt><trkpt lat="43.5305173148487" lon="10.713106781175748"><ele>43.0</ele><time>2026-04-18T07:33:44Z</time></trkpt><trkpt lat="43.5304561909592" lon="10.713131706899748"><ele>43.0</ele><time>2026-04-18T07:33:45Z</time></trkpt><trkpt lat="43.5303958597653" lon="10.713157106883626"><ele>43.0</ele><time>2026-04-18T07:33:46Z</time></trkpt><trkpt lat="43.530334926222736" lon="10.713180435980105"><ele>43.0</ele><time>2026-04-18T07:33:47Z</time></trkpt><trkpt lat="43.530212915157236" lon="10.713224203184707"><ele>43.0</ele><time>2026-04-18T07:33:49Z</time></trkpt><trkpt lat="43.53009151876771" lon="10.71327002581103"><ele>43.25</ele><time>2026-04-18T07:33:51Z</time></trkpt><trkpt lat="43.5299719368269" lon="10.713316217933318"><ele>43.5</ele><time>2026-04-18T07:33:53Z</time></trkpt><trkpt lat="43.5298506463555" lon="10.71336442287388"><ele>43.75</ele><time>2026-04-18T07:33:55Z</time></trkpt><trkpt lat="43.52973305439513" lon="10.713413927392956"><ele>44.0</ele><time>2026-04-18T07:33:57Z</time></trkpt><trkpt lat="43.52961994470876" lon="10.713455243913984"><ele>44.2</ele><time>2026-04-18T07:33:59Z</time></trkpt><trkpt lat="43.5295125496164" lon="10.713494798902634"><ele>44.400000000000006</ele><time>2026-04-18T07:34:01Z</time></trkpt><trkpt lat="43.52940812370912" lon="10.713538862787829"><ele>44.6</ele><time>2026-04-18T07:34:03Z</time></trkpt><trkpt lat="43.52930979056295" lon="10.713577710958681"><ele>44.8</ele><time>2026-04-18T07:34:04.999Z</time></trkpt><trkpt lat="43.52920821216189" lon="10.713619057093315"><ele>45.0</ele><time>2026-04-18T07:34:06.999Z</time></trkpt><trkpt lat="43.529115036307616" lon="10.71365456416878"><ele>45.0</ele><time>2026-04-18T07:34:08.999Z</time></trkpt><trkpt lat="43.52902378103886" lon="10.713676221716067"><ele>45.0</ele><time>2026-04-18T07:34:10.999Z</time></trkpt><trkpt lat="43.52894951709027" lon="10.713695074366285"><ele>45.0</ele><time>2026-04-18T07:34:13.999Z</time></trkpt><trkpt lat="43.52888323163028" lon="10.71374379639324"><ele>45.0</ele><time>2026-04-18T07:34:15.999Z</time></trkpt><trkpt lat="43.52878155765494" lon="10.71378600948972"><ele>45.0</ele><time>2026-04-18T07:34:17.999Z</time></trkpt><trkpt lat="43.528656758671374" lon="10.713834287138598"><ele>45.0</ele><time>2026-04-18T07:34:19.999Z</time></trkpt><trkpt lat="43.528588337487705" lon="10.713861442429963"><ele>45.0</ele><time>2026-04-18T07:34:20.999Z</time></trkpt><trkpt lat="43.52851532577802" lon="10.71388967977841"><ele>45.0</ele><time>2026-04-18T07:34:21.999Z</time></trkpt><trkpt lat="43.528439094705725" lon="10.713919594369855"><ele>45.0</ele><time>2026-04-18T07:34:22.999Z</time></trkpt><trkpt lat="43.528361999892155" lon="10.713950487078746"><ele>45.0</ele><time>2026-04-18T07:34:23.999Z</time></trkpt><trkpt lat="43.528283593299435" lon="10.71398189766901"><ele>45.0</ele><time>2026-04-18T07:34:24.999Z</time></trkpt><trkpt lat="43.528205628209726" lon="10.714013078063806"><ele>45.0</ele><time>2026-04-18T07:34:25.999Z</time></trkpt><trkpt lat="43.52812641559345" lon="10.714043827323481"><ele>45.0</ele><time>2026-04-18T07:34:26.999Z</time></trkpt><trkpt lat="43.528046811450174" lon="10.714075492074961"><ele>45.0</ele><time>2026-04-18T07:34:27.999Z</time></trkpt><trkpt lat="43.52796949755553" lon="10.714107371143596"><ele>45.0</ele><time>2026-04-18T07:34:28.999Z</time></trkpt><trkpt lat="43.527892692197646" lon="10.714138038733198"><ele>45.0</ele><time>2026-04-18T07:34:29.999Z</time></trkpt><trkpt lat="43.527816056619365" lon="10.714169271434088"><ele>45.0</ele><time>2026-04-18T07:34:30.999Z</time></trkpt><trkpt lat="43.52773927250752" lon="10.714198990830404"><ele>45.0</ele><time>2026-04-18T07:34:31.999Z</time></trkpt><trkpt lat="43.52766207673453" lon="10.714230914192619"><ele>45.0</ele><time>2026-04-18T07:34:32.999Z</time></trkpt><trkpt lat="43.52758517056005" lon="10.714260550258572"><ele>45.0</ele><time>2026-04-18T07:34:33.999Z</time></trkpt><trkpt lat="43.52750969691657" lon="10.714293180883313"><ele>45.0</ele><time>2026-04-18T07:34:34.999Z</time></trkpt><trkpt lat="43.52743104927568" lon="10.714326860674918"><ele>45.0</ele><time>2026-04-18T07:34:35.999Z</time></trkpt><trkpt lat="43.52735138262098" lon="10.7143595126798"><ele>45.0</ele><time>2026-04-18T07:34:36.999Z</time></trkpt><trkpt lat="43.52727076887034" lon="10.71439261188425"><ele>46.166666666666664</ele><time>2026-04-18T07:34:37.999Z</time></trkpt><trkpt lat="43.52719038386481" lon="10.71442688916276"><ele>47.33333333333333</ele><time>2026-04-18T07:34:38.999Z</time></trkpt><trkpt lat="43.52710901005238" lon="10.714461354028053"><ele>48.5</ele><time>2026-04-18T07:34:39.999Z</time></trkpt><trkpt lat="43.52702485048114" lon="10.71449627217103"><ele>49.666666666666664</ele><time>2026-04-18T07:34:40.999Z</time></trkpt><trkpt lat="43.52694257743043" lon="10.714529306168119"><ele>50.83333333333333</ele><time>2026-04-18T07:34:41.999Z</time></trkpt><trkpt lat="43.526857948275115" lon="10.714563806653423"><ele>52.0</ele><time>2026-04-18T07:34:42.999Z</time></trkpt><trkpt lat="43.52677498145727" lon="10.71459719339059"><ele>51.99999999999999</ele><time>2026-04-18T07:34:43.999Z</time></trkpt><trkpt lat="43.526690240677254" lon="10.714631191415947"><ele>52.0</ele><time>2026-04-18T07:34:44.999Z</time></trkpt><trkpt lat="43.526607437096395" lon="10.714666107123533"><ele>52.0</ele><time>2026-04-18T07:34:45.999Z</time></trkpt><trkpt lat="43.52652513876436" lon="10.714699481849964"><ele>52.0</ele><time>2026-04-18T07:34:46.999Z</time></trkpt><trkpt lat="43.52644612108271" lon="10.714732276115612"><ele>51.99999999999999</ele><time>2026-04-18T07:34:47.999Z</time></trkpt><trkpt lat="43.52637371795833" lon="10.714763137411936"><ele>52.0</ele><time>2026-04-18T07:34:48.999Z</time></trkpt><trkpt lat="43.526303285442886" lon="10.714792950366945"><ele>51.99999999999999</ele><time>2026-04-18T07:34:49.999Z</time></trkpt><trkpt lat="43.52623249127116" lon="10.714823143123786"><ele>52.0</ele><time>2026-04-18T07:34:50.999Z</time></trkpt><trkpt lat="43.52617192151353" lon="10.714847318798048"><ele>52.0</ele><time>2026-04-18T07:34:51.999Z</time></trkpt><trkpt lat="43.526090566184415" lon="10.714877656665589"><ele>52.0</ele><time>2026-04-18T07:34:53.999Z</time></trkpt><trkpt lat="43.526010863209116" lon="10.714914067825278"><ele>51.99999999999999</ele><time>2026-04-18T07:34:56.999Z</time></trkpt><trkpt lat="43.52593933470089" lon="10.714946670992145"><ele>52.0</ele><time>2026-04-18T07:34:58.998Z</time></trkpt><trkpt lat="43.52585861082675" lon="10.714979946561396"><ele>50.5</ele><time>2026-04-18T07:35:00.998Z</time></trkpt><trkpt lat="43.525761669872146" lon="10.715018246830493"><ele>49.0</ele><time>2026-04-18T07:35:02.998Z</time></trkpt><trkpt lat="43.52565715405472" lon="10.715058787005734"><ele>47.5</ele><time>2026-04-18T07:35:05Z</time></trkpt><trkpt lat="43.52554706954323" lon="10.715100756532237"><ele>46.0</ele><time>2026-04-18T07:35:07Z</time></trkpt><trkpt lat="43.52542398556689" lon="10.715146415691798"><ele>45.66666666666667</ele><time>2026-04-18T07:35:09Z</time></trkpt><trkpt lat="43.52536244467845" lon="10.715169449512407"><ele>45.333333333333336</ele><time>2026-04-18T07:35:10Z</time></trkpt><trkpt lat="43.5253015993975" lon="10.715193275188094"><ele>45.0</ele><time>2026-04-18T07:35:11Z</time></trkpt><trkpt lat="43.52519346516881" lon="10.715238699052179"><ele>44.666666666666664</ele><time>2026-04-18T07:35:13Z</time></trkpt><trkpt lat="43.52511899669537" lon="10.715247884455326"><ele>44.33333333333333</ele><time>2026-04-18T07:35:15Z</time></trkpt><trkpt lat="43.52504850010667" lon="10.715288334266479"><ele>44.0</ele><time>2026-04-18T07:36:01Z</time></trkpt><trkpt lat="43.52496625260212" lon="10.715356087438964"><ele>44.666666666666664</ele><time>2026-04-18T07:36:03Z</time></trkpt><trkpt lat="43.52488860488489" lon="10.71537293866619"><ele>45.33333333333333</ele><time>2026-04-18T07:36:04Z</time></trkpt><trkpt lat="43.524818006656055" lon="10.715378706816054"><ele>46.0</ele><time>2026-04-18T07:36:05Z</time></trkpt><trkpt lat="43.52475215180191" lon="10.715417224168677"><ele>46.666666666666664</ele><time>2026-04-18T07:36:06Z</time></trkpt><trkpt lat="43.52469142675437" lon="10.715483990165108"><ele>47.333333333333336</ele><time>2026-04-18T07:36:07Z</time></trkpt><trkpt lat="43.52463795498643" lon="10.715597943952108"><ele>48.0</ele><time>2026-04-18T07:36:08Z</time></trkpt><trkpt lat="43.52461718424824" lon="10.715699811929777"><ele>48.0</ele><time>2026-04-18T07:36:14.999Z</time></trkpt><trkpt lat="43.52460453078064" lon="10.715787241349172"><ele>48.0</ele><time>2026-04-18T07:36:19.999Z</time></trkpt><trkpt lat="43.5245965568529" lon="10.715885710436547"><ele>48.0</ele><time>2026-04-18T07:36:24.999Z</time></trkpt><trkpt lat="43.524590578114626" lon="10.715994996293905"><ele>48.0</ele><time>2026-04-18T07:36:29.999Z</time></trkpt><trkpt lat="43.52458633196963" lon="10.716100044679639"><ele>48.0</ele><time>2026-04-18T07:36:35.999Z</time></trkpt><trkpt lat="43.52458704945186" lon="10.716226289047055"><ele>48.0</ele><time>2026-04-18T07:36:38.999Z</time></trkpt><trkpt lat="43.524584177334724" lon="10.716347179428857"><ele>47.2</ele><time>2026-04-18T07:36:41.999Z</time></trkpt><trkpt lat="43.52457607664572" lon="10.716477993034161"><ele>46.4</ele><time>2026-04-18T07:36:44.999Z</time></trkpt><trkpt lat="43.52456121657708" lon="10.716596489207022"><ele>45.6</ele><time>2026-04-18T07:36:46.999Z</time></trkpt><trkpt lat="43.52453482902279" lon="10.716735400881534"><ele>44.800000000000004</ele><time>2026-04-18T07:36:48.999Z</time></trkpt><trkpt lat="43.52449328963959" lon="10.716861902475431"><ele>44.0</ele><time>2026-04-18T07:36:50.999Z</time></trkpt><trkpt lat="43.52445490183814" lon="10.716933177085394"><ele>44.0</ele><time>2026-04-18T07:36:53.999Z</time></trkpt><trkpt lat="43.524437742051084" lon="10.717039265100238"><ele>44.0</ele><time>2026-04-18T07:37:02.999Z</time></trkpt><trkpt lat="43.524401966348385" lon="10.717152727361945"><ele>44.0</ele><time>2026-04-18T07:37:04.998Z</time></trkpt><trkpt lat="43.524347169154964" lon="10.717301311019034"><ele>44.0</ele><time>2026-04-18T07:37:06.998Z</time></trkpt><trkpt lat="43.52431427931292" lon="10.717389172295393"><ele>44.0</ele><time>2026-04-18T07:37:07.998Z</time></trkpt><trkpt lat="43.52428335376171" lon="10.717480984142549"><ele>44.0</ele><time>2026-04-18T07:37:08.998Z</time></trkpt><trkpt lat="43.52425629341647" lon="10.717566205434746"><ele>44.0</ele><time>2026-04-18T07:37:09.998Z</time></trkpt><trkpt lat="43.524229536736875" lon="10.717649593080075"><ele>44.0</ele><time>2026-04-18T07:37:11.001Z</time></trkpt><trkpt lat="43.52420537536707" lon="10.717734597492838"><ele>44.0</ele><time>2026-04-18T07:37:12.001Z</time></trkpt><trkpt lat="43.52418234849962" lon="10.717817536807363"><ele>44.0</ele><time>2026-04-18T07:37:13.001Z</time></trkpt><trkpt lat="43.5241601613149" lon="10.717900545112677"><ele>44.0</ele><time>2026-04-18T07:37:14.001Z</time></trkpt><trkpt lat="43.52413968967465" lon="10.7179835371281"><ele>44.0</ele><time>2026-04-18T07:37:15.001Z</time></trkpt><trkpt lat="43.52410331684838" lon="10.71814305015373"><ele>44.0</ele><time>2026-04-18T07:37:17.001Z</time></trkpt><trkpt lat="43.524072032236234" lon="10.718275878610237"><ele>44.5</ele><time>2026-04-18T07:37:19Z</time></trkpt><trkpt lat="43.52404309113874" lon="10.718397016644426"><ele>45.0</ele><time>2026-04-18T07:37:21Z</time></trkpt><trkpt lat="43.524015659236326" lon="10.718516367410675"><ele>45.5</ele><time>2026-04-18T07:37:23Z</time></trkpt><trkpt lat="43.52398610414457" lon="10.718632917623749"><ele>46.0</ele><time>2026-04-18T07:37:25Z</time></trkpt><trkpt lat="43.52395234890683" lon="10.718745303578379"><ele>46.5</ele><time>2026-04-18T07:37:27Z</time></trkpt><trkpt lat="43.523916076408234" lon="10.718854252718893"><ele>47.0</ele><time>2026-04-18T07:37:29Z</time></trkpt><trkpt lat="43.52388779538497" lon="10.718951916403599"><ele>47.14285714285714</ele><time>2026-04-18T07:37:31Z</time></trkpt><trkpt lat="43.52386161220363" lon="10.719034596395009"><ele>47.285714285714285</ele><time>2026-04-18T07:37:33Z</time></trkpt><trkpt lat="43.523824746723065" lon="10.719138904808117"><ele>47.42857142857143</ele><time>2026-04-18T07:37:36Z</time></trkpt><trkpt lat="43.523801489896805" lon="10.719219646449142"><ele>47.57142857142857</ele><time>2026-04-18T07:38:11.999Z</time></trkpt><trkpt lat="43.523782459087094" lon="10.719316631055884"><ele>47.714285714285715</ele><time>2026-04-18T07:39:07.998Z</time></trkpt><trkpt lat="43.523762468362605" lon="10.719408660845232"><ele>47.857142857142854</ele><time>2026-04-18T07:39:13.998Z</time></trkpt><trkpt lat="43.5237284172166" lon="10.719519195165972"><ele>48.0</ele><time>2026-04-18T07:39:26Z</time></trkpt><trkpt lat="43.52370466629256" lon="10.719602502305465"><ele>47.5</ele><time>2026-04-18T07:39:28Z</time></trkpt><trkpt lat="43.52367110791636" lon="10.719710560071025"><ele>47.0</ele><time>2026-04-18T07:39:30Z</time></trkpt><trkpt lat="43.52363799984508" lon="10.71980323122229"><ele>46.5</ele><time>2026-04-18T07:39:32Z</time></trkpt><trkpt lat="43.52360996970305" lon="10.719892140212831"><ele>46.0</ele><time>2026-04-18T07:39:34Z</time></trkpt><trkpt lat="43.52357668526941" lon="10.719986958935435"><ele>45.5</ele><time>2026-04-18T07:39:36Z</time></trkpt><trkpt lat="43.523531879130694" lon="10.720096921651342"><ele>45.0</ele><time>2026-04-18T07:39:38Z</time></trkpt><trkpt lat="43.52347583568402" lon="10.720226091683944"><ele>45.25</ele><time>2026-04-18T07:39:40Z</time></trkpt><trkpt lat="43.523413866381446" lon="10.720364071058352"><ele>45.5</ele><time>2026-04-18T07:39:42Z</time></trkpt><trkpt lat="43.52336092123367" lon="10.720516501016235"><ele>45.75</ele><time>2026-04-18T07:39:44Z</time></trkpt><trkpt lat="43.52332611360128" lon="10.720681498023348"><ele>46.0</ele><time>2026-04-18T07:39:46Z</time></trkpt><trkpt lat="43.52329863198111" lon="10.720844103119086"><ele>46.0</ele><time>2026-04-18T07:39:48Z</time></trkpt><trkpt lat="43.523269960631296" lon="10.72100407333561"><ele>46.0</ele><time>2026-04-18T07:39:50Z</time></trkpt><trkpt lat="43.52323274726505" lon="10.721154912877019"><ele>46.0</ele><time>2026-04-18T07:39:52Z</time></trkpt><trkpt lat="43.52319246653817" lon="10.721295102499106"><ele>46.0</ele><time>2026-04-18T07:39:54Z</time></trkpt><trkpt lat="43.523139946603415" lon="10.721434468928093"><ele>46.0</ele><time>2026-04-18T07:39:56Z</time></trkpt><trkpt lat="43.523081456294804" lon="10.7215723576972"><ele>46.0</ele><time>2026-04-18T07:39:58Z</time></trkpt><trkpt lat="43.52301745501549" lon="10.721705727111706"><ele>46.0</ele><time>2026-04-18T07:40:00Z</time></trkpt><trkpt lat="43.522945607192575" lon="10.72183771313243"><ele>46.0</ele><time>2026-04-18T07:40:02Z</time></trkpt><trkpt lat="43.52286992544336" lon="10.721970808533548"><ele>46.8</ele><time>2026-04-18T07:40:04Z</time></trkpt><trkpt lat="43.52279976799695" lon="10.722095677274634"><ele>47.599999999999994</ele><time>2026-04-18T07:40:06Z</time></trkpt><trkpt lat="43.522727747495495" lon="10.722216795687554"><ele>48.4</ele><time>2026-04-18T07:40:08Z</time></trkpt><trkpt lat="43.522645313560396" lon="10.722339910757444"><ele>49.2</ele><time>2026-04-18T07:40:10Z</time></trkpt><trkpt lat="43.522592189316185" lon="10.722395563139576"><ele>50.0</ele><time>2026-04-18T07:40:11Z</time></trkpt><trkpt lat="43.52254043579279" lon="10.722450446323933"><ele>50.00000000000001</ele><time>2026-04-18T07:40:12Z</time></trkpt><trkpt lat="43.52248440360297" lon="10.722506826086766"><ele>50.0</ele><time>2026-04-18T07:40:13Z</time></trkpt><trkpt lat="43.522429077938604" lon="10.722564606917608"><ele>50.0</ele><time>2026-04-18T07:40:14Z</time></trkpt><trkpt lat="43.52237575341074" lon="10.72262777600343"><ele>50.0</ele><time>2026-04-18T07:40:15Z</time></trkpt><trkpt lat="43.52232238204307" lon="10.722685550335912"><ele>50.0</ele><time>2026-04-18T07:40:16Z</time></trkpt><trkpt lat="43.52227074545694" lon="10.722739029936335"><ele>50.00000000000001</ele><time>2026-04-18T07:40:17Z</time></trkpt><trkpt lat="43.52221623578491" lon="10.72279224128468"><ele>50.0</ele><time>2026-04-18T07:40:18Z</time></trkpt><trkpt lat="43.52216107974718" lon="10.72283993429747"><ele>50.0</ele><time>2026-04-18T07:40:18.999Z</time></trkpt><trkpt lat="43.52205780800311" lon="10.722928778711587"><ele>50.0</ele><time>2026-04-18T07:40:20.999Z</time></trkpt><trkpt lat="43.521965207817026" lon="10.72300526827842"><ele>50.0</ele><time>2026-04-18T07:40:22.999Z</time></trkpt><trkpt lat="43.52187579091187" lon="10.723077139971771"><ele>50.0</ele><time>2026-04-18T07:40:24.999Z</time></trkpt><trkpt lat="43.52178659498607" lon="10.723154564463789"><ele>50.0</ele><time>2026-04-18T07:40:26.999Z</time></trkpt><trkpt lat="43.52170127501698" lon="10.723240528167063"><ele>50.0</ele><time>2026-04-18T07:40:28.999Z</time></trkpt><trkpt lat="43.52161541581933" lon="10.723331527084376"><ele>50.0</ele><time>2026-04-18T07:40:30.999Z</time></trkpt><trkpt lat="43.52153005323667" lon="10.723428789106954"><ele>50.0</ele><time>2026-04-18T07:40:32.999Z</time></trkpt><trkpt lat="43.52145959060053" lon="10.723519754082677"><ele>50.0</ele><time>2026-04-18T07:40:34.999Z</time></trkpt><trkpt lat="43.52140657939775" lon="10.72360110075295"><ele>50.0</ele><time>2026-04-18T07:40:36.999Z</time></trkpt><trkpt lat="43.52134781753214" lon="10.723679346808575"><ele>49.85714285714286</ele><time>2026-04-18T07:40:39.999Z</time></trkpt><trkpt lat="43.521275143561205" lon="10.723681417602474"><ele>49.714285714285715</ele><time>2026-04-18T07:40:51.999Z</time></trkpt><trkpt lat="43.521226317777845" lon="10.723618478942836"><ele>49.57142857142857</ele><time>2026-04-18T07:40:58.999Z</time></trkpt><trkpt lat="43.52118878751149" lon="10.723536620045357"><ele>49.42857142857143</ele><time>2026-04-18T07:41:04.999Z</time></trkpt><trkpt lat="43.521171094245" lon="10.723452999570103"><ele>49.285714285714285</ele><time>2026-04-18T07:41:10.999Z</time></trkpt><trkpt lat="43.521148178957816" lon="10.723359072482063"><ele>49.142857142857146</ele><time>2026-04-18T07:41:19.998Z</time></trkpt><trkpt lat="43.52113593903439" lon="10.723264852676518"><ele>49.0</ele><time>2026-04-18T07:41:23Z</time></trkpt><trkpt lat="43.521121405318354" lon="10.723166250867372"><ele>49.0</ele><time>2026-04-18T07:41:27Z</time></trkpt><trkpt lat="43.5211246587091" lon="10.723079479557573"><ele>49.0</ele><time>2026-04-18T07:41:30Z</time></trkpt><trkpt lat="43.52116000260374" lon="10.723006719668682"><ele>49.0</ele><time>2026-04-18T07:41:33Z</time></trkpt><trkpt lat="43.521200528335726" lon="10.72293186619624"><ele>49.0</ele><time>2026-04-18T07:41:37Z</time></trkpt><trkpt lat="43.521234403748835" lon="10.722844454723857"><ele>49.0</ele><time>2026-04-18T07:41:42Z</time></trkpt><trkpt lat="43.52124893319954" lon="10.722759436568802"><ele>49.0</ele><time>2026-04-18T07:41:46Z</time></trkpt><trkpt lat="43.521284672836536" lon="10.722663729634677"><ele>49.0</ele><time>2026-04-18T07:41:59Z</time></trkpt><trkpt lat="43.521337092264865" lon="10.722595153171357"><ele>49.0</ele><time>2026-04-18T07:42:03Z</time></trkpt><trkpt lat="43.52139486997897" lon="10.722640977638019"><ele>49.0</ele><time>2026-04-18T07:42:08Z</time></trkpt><trkpt lat="43.521391841081964" lon="10.722730182572478"><ele>49.0</ele><time>2026-04-18T07:42:13Z</time></trkpt><trkpt lat="43.52133733105056" lon="10.722780452050692"><ele>49.0</ele><time>2026-04-18T07:42:18Z</time></trkpt><trkpt lat="43.52126490312226" lon="10.722833078202475"><ele>49.0</ele><time>2026-04-18T07:42:22Z</time></trkpt><trkpt lat="43.52121352123417" lon="10.72292796441315"><ele>49.0</ele><time>2026-04-18T07:42:24.999Z</time></trkpt><trkpt lat="43.521166994155074" lon="10.723023142439049"><ele>49.0</ele><time>2026-04-18T07:42:27.999Z</time></trkpt><trkpt lat="43.52112625141098" lon="10.72310436086586"><ele>48.99999999999999</ele><time>2026-04-18T07:42:37.999Z</time></trkpt><trkpt lat="43.521074430292046" lon="10.723189213274678"><ele>49.0</ele><time>2026-04-18T07:42:43.999Z</time></trkpt><trkpt lat="43.521007793939546" lon="10.72324276641088"><ele>49.0</ele><time>2026-04-18T07:42:46.999Z</time></trkpt><trkpt lat="43.520938220683156" lon="10.723245597890958"><ele>49.0</ele><time>2026-04-18T07:42:50.999Z</time></trkpt><trkpt lat="43.520859514801316" lon="10.723237163005765"><ele>48.99999999999999</ele><time>2026-04-18T07:42:53.999Z</time></trkpt><trkpt lat="43.52076732552845" lon="10.72324879663074"><ele>49.0</ele><time>2026-04-18T07:42:56.999Z</time></trkpt><trkpt lat="43.520699437994786" lon="10.723212747654093"><ele>48.99999999999999</ele><time>2026-04-18T07:43:00.999Z</time></trkpt><trkpt lat="43.52064134973167" lon="10.723150985759865"><ele>49.0</ele><time>2026-04-18T07:43:23.998Z</time></trkpt><trkpt lat="43.52074653693459" lon="10.72321601610919"><ele>49.0</ele><time>2026-04-18T07:43:52Z</time></trkpt><trkpt lat="43.52082459827068" lon="10.723221723386505"><ele>49.0</ele><time>2026-04-18T07:43:56Z</time></trkpt><trkpt lat="43.52089849162005" lon="10.723227308802448"><ele>48.99999999999999</ele><time>2026-04-18T07:43:59Z</time></trkpt><trkpt lat="43.5209838603641" lon="10.723217981588096"><ele>49.0</ele><time>2026-04-18T07:44:04Z</time></trkpt><trkpt lat="43.52104660238041" lon="10.723229391568024"><ele>48.99999999999999</ele><time>2026-04-18T07:44:07Z</time></trkpt><trkpt lat="43.52109895011285" lon="10.723297306996924"><ele>49.0</ele><time>2026-04-18T07:44:11Z</time></trkpt><trkpt lat="43.5211395069734" lon="10.723379496817559"><ele>49.0</ele><time>2026-04-18T07:44:15Z</time></trkpt><trkpt lat="43.521176250587764" lon="10.723469150393065"><ele>49.0</ele><time>2026-04-18T07:44:19Z</time></trkpt><trkpt lat="43.521215420958036" lon="10.723552055354466"><ele>48.99999999999999</ele><time>2026-04-18T07:44:22Z</time></trkpt><trkpt lat="43.52125554017533" lon="10.72363553365695"><ele>49.0</ele><time>2026-04-18T07:44:25Z</time></trkpt><trkpt lat="43.52128797432383" lon="10.72375407910217"><ele>48.99999999999999</ele><time>2026-04-18T07:44:27.999Z</time></trkpt><trkpt lat="43.5212575866289" lon="10.723864438701478"><ele>49.0</ele><time>2026-04-18T07:44:29.999Z</time></trkpt><trkpt lat="43.52121534600683" lon="10.72394712951424"><ele>49.0</ele><time>2026-04-18T07:44:31.999Z</time></trkpt><trkpt lat="43.52116288860607" lon="10.72403313176559"><ele>49.0</ele><time>2026-04-18T07:44:33.999Z</time></trkpt><trkpt lat="43.52110690982966" lon="10.724124759613783"><ele>48.99999999999999</ele><time>2026-04-18T07:44:35.999Z</time></trkpt><trkpt lat="43.52105559280604" lon="10.724191230305202"><ele>49.0</ele><time>2026-04-18T07:44:37.999Z</time></trkpt><trkpt lat="43.52099581476111" lon="10.724295754043876"><ele>48.800000000000004</ele><time>2026-04-18T07:44:43.999Z</time></trkpt><trkpt lat="43.52094947330842" lon="10.724389362153511"><ele>48.6</ele><time>2026-04-18T07:44:45.999Z</time></trkpt><trkpt lat="43.520883333904095" lon="10.724486971777528"><ele>48.4</ele><time>2026-04-18T07:44:47.999Z</time></trkpt><trkpt lat="43.520821640096635" lon="10.72458365665039"><ele>48.2</ele><time>2026-04-18T07:44:49.999Z</time></trkpt><trkpt lat="43.52077184923645" lon="10.724689835996749"><ele>48.0</ele><time>2026-04-18T07:44:51.999Z</time></trkpt><trkpt lat="43.520751986363116" lon="10.724826891130194"><ele>48.0</ele><time>2026-04-18T07:44:53.999Z</time></trkpt><trkpt lat="43.520768778883244" lon="10.724978194037043"><ele>48.0</ele><time>2026-04-18T07:44:55.999Z</time></trkpt><trkpt lat="43.52078218914617" lon="10.725136829794852"><ele>48.0</ele><time>2026-04-18T07:44:57.999Z</time></trkpt><trkpt lat="43.520792306831865" lon="10.725283878907693"><ele>48.0</ele><time>2026-04-18T07:44:59.999Z</time></trkpt><trkpt lat="43.520796922847516" lon="10.725431114276887"><ele>48.0</ele><time>2026-04-18T07:45:01.999Z</time></trkpt><trkpt lat="43.52080074206553" lon="10.725566798370991"><ele>48.166666666666664</ele><time>2026-04-18T07:45:03.999Z</time></trkpt><trkpt lat="43.52082601548186" lon="10.725696580874523"><ele>48.33333333333333</ele><time>2026-04-18T07:45:05.999Z</time></trkpt><trkpt lat="43.52086367039062" lon="10.725827554662962"><ele>48.5</ele><time>2026-04-18T07:45:07.999Z</time></trkpt><trkpt lat="43.52090337082414" lon="10.725976002955939"><ele>48.666666666666664</ele><time>2026-04-18T07:45:09.999Z</time></trkpt><trkpt lat="43.52092654740368" lon="10.726066610196929"><ele>48.83333333333333</ele><time>2026-04-18T07:45:10.999Z</time></trkpt><trkpt lat="43.520948326203005" lon="10.726150398506858"><ele>49.0</ele><time>2026-04-18T07:45:11.999Z</time></trkpt><trkpt lat="43.52096972068691" lon="10.726283464364974"><ele>49.33333333333333</ele><time>2026-04-18T07:45:13.999Z</time></trkpt><trkpt lat="43.52091128290827" lon="10.726374752431923"><ele>49.666666666666664</ele><time>2026-04-18T07:45:15.999Z</time></trkpt><trkpt lat="43.520834544856264" lon="10.726429745334693"><ele>50.0</ele><time>2026-04-18T07:45:17.999Z</time></trkpt><trkpt lat="43.52075874703239" lon="10.726496168989835"><ele>50.33333333333333</ele><time>2026-04-18T07:45:20.998Z</time></trkpt><trkpt lat="43.52068357927823" lon="10.726562419425296"><ele>50.666666666666664</ele><time>2026-04-18T07:45:23.998Z</time></trkpt><trkpt lat="43.52060922600275" lon="10.726586548564471"><ele>51.0</ele><time>2026-04-18T07:45:25.998Z</time></trkpt><trkpt lat="43.52053644528139" lon="10.726631695926999"><ele>51.0</ele><time>2026-04-18T07:45:27.998Z</time></trkpt><trkpt lat="43.52046462077857" lon="10.726696239643221"><ele>51.0</ele><time>2026-04-18T07:45:29.998Z</time></trkpt><trkpt lat="43.52039350683297" lon="10.726756490220014"><ele>51.0</ele><time>2026-04-18T07:45:31.998Z</time></trkpt><trkpt lat="43.52031790091958" lon="10.726827056477603"><ele>51.0</ele><time>2026-04-18T07:45:34Z</time></trkpt><trkpt lat="43.520232598688104" lon="10.726900112779514"><ele>51.0</ele><time>2026-04-18T07:45:36Z</time></trkpt><trkpt lat="43.52014013766032" lon="10.72698366434825"><ele>51.0</ele><time>2026-04-18T07:45:38Z</time></trkpt><trkpt lat="43.52005043221811" lon="10.727064717621746"><ele>51.0</ele><time>2026-04-18T07:45:40Z</time></trkpt><trkpt lat="43.51996940830009" lon="10.727131579245814"><ele>51.0</ele><time>2026-04-18T07:45:42Z</time></trkpt><trkpt lat="43.519901058755785" lon="10.727187833492446"><ele>51.0</ele><time>2026-04-18T07:45:44Z</time></trkpt><trkpt lat="43.519834675873085" lon="10.727250560141787"><ele>51.0</ele><time>2026-04-18T07:45:46Z</time></trkpt><trkpt lat="43.51977512159791" lon="10.727310168457754"><ele>51.0</ele><time>2026-04-18T07:45:48Z</time></trkpt><trkpt lat="43.51972023007843" lon="10.727373940113699"><ele>51.0</ele><time>2026-04-18T07:45:50Z</time></trkpt><trkpt lat="43.51968607324925" lon="10.727454709484778"><ele>51.0</ele><time>2026-04-18T07:45:52Z</time></trkpt><trkpt lat="43.51966398625039" lon="10.727574061675426"><ele>51.0</ele><time>2026-04-18T07:45:55Z</time></trkpt><trkpt lat="43.5196441085784" lon="10.727659032489113"><ele>51.0</ele><time>2026-04-18T07:45:57Z</time></trkpt><trkpt lat="43.51964287782417" lon="10.727766071307453"><ele>51.0</ele><time>2026-04-18T07:46:00Z</time></trkpt><trkpt lat="43.51964458171459" lon="10.727863687932546"><ele>51.0</ele><time>2026-04-18T07:46:05Z</time></trkpt><trkpt lat="43.51963837363816" lon="10.727966110861793"><ele>51.0</ele><time>2026-04-18T07:46:08Z</time></trkpt><trkpt lat="43.51963053939445" lon="10.72805992840193"><ele>51.833333333333336</ele><time>2026-04-18T07:46:10Z</time></trkpt><trkpt lat="43.519622336209004" lon="10.728176896073471"><ele>52.66666666666667</ele><time>2026-04-18T07:46:12Z</time></trkpt><trkpt lat="43.5196216967481" lon="10.728294170395634"><ele>53.5</ele><time>2026-04-18T07:46:14Z</time></trkpt><trkpt lat="43.51961703597347" lon="10.728407196953276"><ele>54.333333333333336</ele><time>2026-04-18T07:46:16Z</time></trkpt><trkpt lat="43.5195983088963" lon="10.728541873120404"><ele>55.16666666666667</ele><time>2026-04-18T07:46:18Z</time></trkpt><trkpt lat="43.51958033815863" lon="10.72866578776523"><ele>56.0</ele><time>2026-04-18T07:46:20Z</time></trkpt><trkpt lat="43.51958902733276" lon="10.72879302229236"><ele>56.8</ele><time>2026-04-18T07:46:22Z</time></trkpt><trkpt lat="43.519610284740345" lon="10.728922359719897"><ele>57.599999999999994</ele><time>2026-04-18T07:46:24Z</time></trkpt><trkpt lat="43.51962606766058" lon="10.729049804880834"><ele>58.4</ele><time>2026-04-18T07:46:25.999Z</time></trkpt><trkpt lat="43.51964358864938" lon="10.729182306259526"><ele>59.2</ele><time>2026-04-18T07:46:27.999Z</time></trkpt><trkpt lat="43.5196591728598" lon="10.729305551787915"><ele>60.0</ele><time>2026-04-18T07:46:29.999Z</time></trkpt><trkpt lat="43.51966803395446" lon="10.729408285717353"><ele>60.28571428571429</ele><time>2026-04-18T07:46:31.999Z</time></trkpt><trkpt lat="43.519682575845934" lon="10.729499447428363"><ele>60.57142857142857</ele><time>2026-04-18T07:46:33.999Z</time></trkpt><trkpt lat="43.5196934039435" lon="10.72959671890768"><ele>60.85714285714286</ele><time>2026-04-18T07:46:36.999Z</time></trkpt><trkpt lat="43.51970258454234" lon="10.729695255107412"><ele>61.142857142857146</ele><time>2026-04-18T07:46:39.999Z</time></trkpt><trkpt lat="43.51966648863599" lon="10.72979190137925"><ele>61.42857142857143</ele><time>2026-04-18T07:46:48.999Z</time></trkpt><trkpt lat="43.519637558420094" lon="10.72989728524663"><ele>61.714285714285715</ele><time>2026-04-18T07:46:51.999Z</time></trkpt><trkpt lat="43.5196115249198" lon="10.729982616480752"><ele>62.0</ele><time>2026-04-18T07:46:54.999Z</time></trkpt><trkpt lat="43.519599223215465" lon="10.73007151056375"><ele>62.0</ele><time>2026-04-18T07:46:57.999Z</time></trkpt><trkpt lat="43.51958278339788" lon="10.730157305898517"><ele>62.00000000000001</ele><time>2026-04-18T07:47:39Z</time></trkpt><trkpt lat="43.51957991844942" lon="10.730255991967534"><ele>62.0</ele><time>2026-04-18T07:47:43Z</time></trkpt><trkpt lat="43.51960432896329" lon="10.730352346253355"><ele>62.0</ele><time>2026-04-18T07:47:47Z</time></trkpt><trkpt lat="43.519614181550956" lon="10.730444409013433"><ele>62.00000000000001</ele><time>2026-04-18T07:47:50Z</time></trkpt><trkpt lat="43.51961553139282" lon="10.73054129404859"><ele>62.0</ele><time>2026-04-18T07:47:53Z</time></trkpt><trkpt lat="43.51962541943332" lon="10.730652578621566"><ele>62.0</ele><time>2026-04-18T07:47:57Z</time></trkpt><trkpt lat="43.5196382672469" lon="10.7307623831755"><ele>62.833333333333336</ele><time>2026-04-18T07:48:01Z</time></trkpt><trkpt lat="43.51965120946269" lon="10.730860553205511"><ele>63.66666666666667</ele><time>2026-04-18T07:48:05Z</time></trkpt><trkpt lat="43.519665691901764" lon="10.73095765021098"><ele>64.5</ele><time>2026-04-18T07:48:08Z</time></trkpt><trkpt lat="43.519669206583835" lon="10.73107182307247"><ele>65.33333333333333</ele><time>2026-04-18T07:48:12Z</time></trkpt><trkpt lat="43.519666813529106" lon="10.731179093733678"><ele>66.16666666666666</ele><time>2026-04-18T07:48:16Z</time></trkpt><trkpt lat="43.519673493500136" lon="10.731290512558735"><ele>67.0</ele><time>2026-04-18T07:48:20Z</time></trkpt><trkpt lat="43.51968177607203" lon="10.731389113967928"><ele>68.71428571428572</ele><time>2026-04-18T07:48:23.999Z</time></trkpt><trkpt lat="43.51968446181733" lon="10.731476910827134"><ele>70.42857142857143</ele><time>2026-04-18T07:48:27.999Z</time></trkpt><trkpt lat="43.519703407240904" lon="10.731577484803312"><ele>72.14285714285714</ele><time>2026-04-18T07:48:32.999Z</time></trkpt><trkpt lat="43.51973647452023" lon="10.731671652226819"><ele>73.85714285714286</ele><time>2026-04-18T07:48:36.999Z</time></trkpt><trkpt lat="43.51976111317336" lon="10.73175943045053"><ele>75.57142857142857</ele><time>2026-04-18T07:48:39.999Z</time></trkpt><trkpt lat="43.519784930843855" lon="10.731855805295178"><ele>77.28571428571429</ele><time>2026-04-18T07:48:42.999Z</time></trkpt><trkpt lat="43.519812276485226" lon="10.731962800072377"><ele>79.0</ele><time>2026-04-18T07:48:45.999Z</time></trkpt><trkpt lat="43.519832202465814" lon="10.732045358896196"><ele>80.00000000000001</ele><time>2026-04-18T07:48:47.999Z</time></trkpt><trkpt lat="43.519850017510755" lon="10.732135033476371"><ele>81.0</ele><time>2026-04-18T07:48:49.999Z</time></trkpt><trkpt lat="43.51986658337809" lon="10.732223826017943"><ele>82.0</ele><time>2026-04-18T07:48:51.999Z</time></trkpt><trkpt lat="43.51987970723593" lon="10.732325271333151"><ele>83.0</ele><time>2026-04-18T07:48:53.999Z</time></trkpt><trkpt lat="43.51988036729357" lon="10.732423634490742"><ele>84.0</ele><time>2026-04-18T07:48:55.999Z</time></trkpt><trkpt lat="43.51987968562539" lon="10.732521311031695"><ele>85.00000000000001</ele><time>2026-04-18T07:48:57.999Z</time></trkpt><trkpt lat="43.519869316098564" lon="10.732617850572101"><ele>86.0</ele><time>2026-04-18T07:48:59.999Z</time></trkpt><trkpt lat="43.519851102134375" lon="10.73272543606307"><ele>87.42857142857143</ele><time>2026-04-18T07:49:01.999Z</time></trkpt><trkpt lat="43.5198458378798" lon="10.732812086912759"><ele>88.85714285714286</ele><time>2026-04-18T07:49:04.999Z</time></trkpt><trkpt lat="43.51985444849021" lon="10.732928782018018"><ele>90.28571428571428</ele><time>2026-04-18T07:49:08.999Z</time></trkpt><trkpt lat="43.519861006974374" lon="10.733019321645472"><ele>91.71428571428572</ele><time>2026-04-18T07:49:10.999Z</time></trkpt><trkpt lat="43.519867205469815" lon="10.733111884972008"><ele>93.14285714285714</ele><time>2026-04-18T07:49:12.999Z</time></trkpt><trkpt lat="43.51987283563334" lon="10.73320930865479"><ele>94.57142857142857</ele><time>2026-04-18T07:49:14.999Z</time></trkpt><trkpt lat="43.51987828464003" lon="10.733307401452528"><ele>96.0</ele><time>2026-04-18T07:49:16.998Z</time></trkpt><trkpt lat="43.519883444685014" lon="10.73340707015954"><ele>95.99999999999999</ele><time>2026-04-18T07:49:18.998Z</time></trkpt><trkpt lat="43.51988740099438" lon="10.73350612674745"><ele>96.0</ele><time>2026-04-18T07:49:20.998Z</time></trkpt><trkpt lat="43.51987895019459" lon="10.733607975126667"><ele>96.0</ele><time>2026-04-18T07:49:22.998Z</time></trkpt><trkpt lat="43.519856219777026" lon="10.733708886553192"><ele>96.0</ele><time>2026-04-18T07:49:24.998Z</time></trkpt><trkpt lat="43.5198398215177" lon="10.733812023550293"><ele>96.0</ele><time>2026-04-18T07:49:26.998Z</time></trkpt><trkpt lat="43.51983328115972" lon="10.733913352709807"><ele>95.99999999999999</ele><time>2026-04-18T07:49:28.998Z</time></trkpt><trkpt lat="43.51982793357719" lon="10.73400285720017"><ele>96.0</ele><time>2026-04-18T07:49:30.998Z</time></trkpt><trkpt lat="43.51982141910502" lon="10.734098913383315"><ele>96.28571428571428</ele><time>2026-04-18T07:49:32.998Z</time></trkpt><trkpt lat="43.51981549433638" lon="10.734204811923968"><ele>96.57142857142857</ele><time>2026-04-18T07:49:34.998Z</time></trkpt><trkpt lat="43.519816051948276" lon="10.734294537757828"><ele>96.85714285714286</ele><time>2026-04-18T07:49:36.998Z</time></trkpt><trkpt lat="43.51986165330134" lon="10.734368628071826"><ele>97.14285714285714</ele><time>2026-04-18T07:49:39.998Z</time></trkpt><trkpt lat="43.519930116147464" lon="10.734411753285716"><ele>97.42857142857143</ele><time>2026-04-18T07:49:42.998Z</time></trkpt><trkpt lat="43.51999225905925" lon="10.734444682876765"><ele>97.71428571428571</ele><time>2026-04-18T07:49:46Z</time></trkpt><trkpt lat="43.52005354996233" lon="10.734488217681255"><ele>98.0</ele><time>2026-04-18T07:49:51Z</time></trkpt><trkpt lat="43.52013115187725" lon="10.73454925449063"><ele>98.0</ele><time>2026-04-18T07:49:54Z</time></trkpt><trkpt lat="43.52019753462477" lon="10.734599709634791"><ele>98.0</ele><time>2026-04-18T07:49:56Z</time></trkpt><trkpt lat="43.52025779846431" lon="10.73465075733865"><ele>98.0</ele><time>2026-04-18T07:49:58Z</time></trkpt><trkpt lat="43.520317838770936" lon="10.734699051503334"><ele>98.0</ele><time>2026-04-18T07:50:00Z</time></trkpt><trkpt lat="43.52038403438542" lon="10.734758706024323"><ele>98.0</ele><time>2026-04-18T07:50:04Z</time></trkpt><trkpt lat="43.520440466091934" lon="10.734804235820901"><ele>98.0</ele><time>2026-04-18T07:50:06Z</time></trkpt><trkpt lat="43.5205115380692" lon="10.734862433301574"><ele>98.0</ele><time>2026-04-18T07:50:08Z</time></trkpt><trkpt lat="43.520580754550515" lon="10.734927981314971"><ele>100.33333333333333</ele><time>2026-04-18T07:50:10Z</time></trkpt><trkpt lat="43.52064938922541" lon="10.735006883766745"><ele>102.66666666666666</ele><time>2026-04-18T07:50:12Z</time></trkpt><trkpt lat="43.52070818382362" lon="10.735104042642812"><ele>105.0</ele><time>2026-04-18T07:50:14Z</time></trkpt><trkpt lat="43.52074144732517" lon="10.735217287048355"><ele>107.33333333333334</ele><time>2026-04-18T07:50:16Z</time></trkpt><trkpt lat="43.52075956703655" lon="10.73532978359824"><ele>109.66666666666667</ele><time>2026-04-18T07:50:18Z</time></trkpt><trkpt lat="43.52078789095507" lon="10.735436290781625"><ele>112.0</ele><time>2026-04-18T07:50:20Z</time></trkpt><trkpt lat="43.52084299963818" lon="10.735527045284124"><ele>112.50000000000001</ele><time>2026-04-18T07:50:22Z</time></trkpt><trkpt lat="43.52090291451209" lon="10.73560385803063"><ele>113.0</ele><time>2026-04-18T07:50:23.999Z</time></trkpt><trkpt lat="43.52095898048742" lon="10.735681416581194"><ele>113.5</ele><time>2026-04-18T07:50:25.999Z</time></trkpt><trkpt lat="43.521008302612806" lon="10.73575727603143"><ele>114.0</ele><time>2026-04-18T07:50:27.999Z</time></trkpt><trkpt lat="43.52106130287491" lon="10.735826657053842"><ele>114.50000000000001</ele><time>2026-04-18T07:50:29.999Z</time></trkpt><trkpt lat="43.52112795087926" lon="10.735887589922138"><ele>115.0</ele><time>2026-04-18T07:50:31.999Z</time></trkpt><trkpt lat="43.521198763026455" lon="10.73593902940593"><ele>117.83333333333334</ele><time>2026-04-18T07:50:33.999Z</time></trkpt><trkpt lat="43.52125785862548" lon="10.73598153780086"><ele>120.66666666666667</ele><time>2026-04-18T07:50:35.999Z</time></trkpt><trkpt lat="43.52131235916264" lon="10.736031125553085"><ele>123.5</ele><time>2026-04-18T07:50:37.999Z</time></trkpt><trkpt lat="43.5213769888167" lon="10.736091336093223"><ele>126.33333333333334</ele><time>2026-04-18T07:50:40.999Z</time></trkpt><trkpt lat="43.52144945126545" lon="10.736175399742484"><ele>129.16666666666666</ele><time>2026-04-18T07:50:43.999Z</time></trkpt><trkpt lat="43.52150852409796" lon="10.736246890531847"><ele>132.0</ele><time>2026-04-18T07:50:45.999Z</time></trkpt><trkpt lat="43.52155674951592" lon="10.7363121563471"><ele>132.33333333333334</ele><time>2026-04-18T07:50:47.999Z</time></trkpt><trkpt lat="43.521608856348145" lon="10.736370242587736"><ele>132.66666666666666</ele><time>2026-04-18T07:50:49.999Z</time></trkpt><trkpt lat="43.52166707173407" lon="10.73645635313253"><ele>133.0</ele><time>2026-04-18T07:50:52.999Z</time></trkpt><trkpt lat="43.52169985920412" lon="10.73653155390535"><ele>133.33333333333331</ele><time>2026-04-18T07:50:56.999Z</time></trkpt><trkpt lat="43.52176985395905" lon="10.736640876823355"><ele>133.66666666666666</ele><time>2026-04-18T07:51:10.999Z</time></trkpt><trkpt lat="43.52184427015283" lon="10.736748567680232"><ele>134.0</ele><time>2026-04-18T07:51:12.999Z</time></trkpt><trkpt lat="43.52192708260521" lon="10.736874440309325"><ele>133.6</ele><time>2026-04-18T07:51:14.999Z</time></trkpt><trkpt lat="43.522010749315065" lon="10.736985769316021"><ele>133.2</ele><time>2026-04-18T07:51:16.999Z</time></trkpt><trkpt lat="43.52208046077043" lon="10.737061668892567"><ele>132.79999999999998</ele><time>2026-04-18T07:51:18.998Z</time></trkpt><trkpt lat="43.5221547298141" lon="10.737148332368808"><ele>132.4</ele><time>2026-04-18T07:51:21.998Z</time></trkpt><trkpt lat="43.52210762188741" lon="10.737231602123455"><ele>132.0</ele><time>2026-04-18T07:51:22.998Z</time></trkpt><trkpt lat="43.52208514342115" lon="10.737324492618342"><ele>132.0</ele><time>2026-04-18T07:51:23.998Z</time></trkpt><trkpt lat="43.522076109811486" lon="10.737429675278705"><ele>132.0</ele><time>2026-04-18T07:51:24.998Z</time></trkpt><trkpt lat="43.522046139364186" lon="10.737535179877257"><ele>132.0</ele><time>2026-04-18T07:51:25.998Z</time></trkpt><trkpt lat="43.522014260414736" lon="10.737642997458664"><ele>132.0</ele><time>2026-04-18T07:51:26.998Z</time></trkpt><trkpt lat="43.521971331079136" lon="10.73774434592977"><ele>132.0</ele><time>2026-04-18T07:51:27.998Z</time></trkpt><trkpt lat="43.521916540019774" lon="10.73783738773021"><ele>132.0</ele><time>2026-04-18T07:51:28.998Z</time></trkpt><trkpt lat="43.521853229673034" lon="10.737910330144862"><ele>134.0</ele><time>2026-04-18T07:51:29.998Z</time></trkpt><trkpt lat="43.52179461782589" lon="10.737973504915944"><ele>136.0</ele><time>2026-04-18T07:51:30.998Z</time></trkpt><trkpt lat="43.521746433379896" lon="10.738030044417707"><ele>138.0</ele><time>2026-04-18T07:51:31.998Z</time></trkpt><trkpt lat="43.52171385396042" lon="10.73818802828045"><ele>140.0</ele><time>2026-04-18T07:51:33.998Z</time></trkpt><trkpt lat="43.52172578394002" lon="10.738284859106631"><ele>142.0</ele><time>2026-04-18T07:51:34.998Z</time></trkpt><trkpt lat="43.52173909148962" lon="10.738392127635088"><ele>144.0</ele><time>2026-04-18T07:51:35.998Z</time></trkpt><trkpt lat="43.5217596998014" lon="10.738505642727494"><ele>144.0</ele><time>2026-04-18T07:51:36.998Z</time></trkpt><trkpt lat="43.52178269333455" lon="10.738627111835786"><ele>144.0</ele><time>2026-04-18T07:51:37.998Z</time></trkpt><trkpt lat="43.521831609480444" lon="10.738864593368262"><ele>144.0</ele><time>2026-04-18T07:51:39.998Z</time></trkpt><trkpt lat="43.52185255300267" lon="10.73895866108671"><ele>144.0</ele><time>2026-04-18T07:51:40.998Z</time></trkpt><trkpt lat="43.52187362409373" lon="10.739074124342183"><ele>144.0</ele><time>2026-04-18T07:51:42.998Z</time></trkpt><trkpt lat="43.52187868421495" lon="10.739171538503799"><ele>144.0</ele><time>2026-04-18T07:51:47.998Z</time></trkpt><trkpt lat="43.52188773799613" lon="10.739295230952337"><ele>144.0</ele><time>2026-04-18T07:51:51Z</time></trkpt><trkpt lat="43.52189345191678" lon="10.739409377354084"><ele>144.0</ele><time>2026-04-18T07:51:53Z</time></trkpt><trkpt lat="43.52189221739631" lon="10.739519330939832"><ele>144.0</ele><time>2026-04-18T07:51:55Z</time></trkpt><trkpt lat="43.52188133938274" lon="10.73963265605871"><ele>144.0</ele><time>2026-04-18T07:51:57Z</time></trkpt><trkpt lat="43.52187297843718" lon="10.739745416922519"><ele>144.0</ele><time>2026-04-18T07:51:59Z</time></trkpt><trkpt lat="43.52186351001632" lon="10.739832464196052"><ele>143.66666666666666</ele><time>2026-04-18T07:52:01Z</time></trkpt><trkpt lat="43.52188419342894" lon="10.739915252003806"><ele>143.33333333333334</ele><time>2026-04-18T07:52:03Z</time></trkpt><trkpt lat="43.521898881818665" lon="10.74003758261622"><ele>143.0</ele><time>2026-04-18T07:52:06Z</time></trkpt><trkpt lat="43.52191460766442" lon="10.740136109079568"><ele>142.66666666666669</ele><time>2026-04-18T07:52:08Z</time></trkpt><trkpt lat="43.52191439506709" lon="10.740247369454655"><ele>142.33333333333334</ele><time>2026-04-18T07:52:10Z</time></trkpt><trkpt lat="43.52191569189978" lon="10.740355450013753"><ele>142.0</ele><time>2026-04-18T07:52:12Z</time></trkpt><trkpt lat="43.52193554108153" lon="10.740457711078406"><ele>142.0</ele><time>2026-04-18T07:52:14Z</time></trkpt><trkpt lat="43.52195402177473" lon="10.740577378661866"><ele>142.0</ele><time>2026-04-18T07:52:17Z</time></trkpt><trkpt lat="43.52197388286062" lon="10.740686842866959"><ele>142.0</ele><time>2026-04-18T07:52:25.999Z</time></trkpt><trkpt lat="43.52197150360855" lon="10.740784008214927"><ele>142.0</ele><time>2026-04-18T07:52:27.999Z</time></trkpt><trkpt lat="43.521985541593665" lon="10.740881760818226"><ele>142.0</ele><time>2026-04-18T07:52:29.999Z</time></trkpt><trkpt lat="43.52200091973267" lon="10.740988846050142"><ele>142.0</ele><time>2026-04-18T07:52:32.999Z</time></trkpt><trkpt lat="43.52198456887399" lon="10.740874987279506"><ele>142.0</ele><time>2026-04-18T07:53:35.998Z</time></trkpt><trkpt lat="43.52196705137443" lon="10.740753005145804"><ele>142.0</ele><time>2026-04-18T07:53:38.998Z</time></trkpt><trkpt lat="43.521964270051186" lon="10.740660403152438"><ele>142.0</ele><time>2026-04-18T07:53:41.998Z</time></trkpt><trkpt lat="43.521948033815406" lon="10.740559895602956"><ele>142.0</ele><time>2026-04-18T07:53:48.998Z</time></trkpt><trkpt lat="43.5219235362367" lon="10.74044999157952"><ele>142.0</ele><time>2026-04-18T07:53:51.998Z</time></trkpt><trkpt lat="43.5219124795773" lon="10.740310499316093"><ele>142.0</ele><time>2026-04-18T07:53:53.998Z</time></trkpt><trkpt lat="43.52191558428827" lon="10.74019628070499"><ele>141.83333333333334</ele><time>2026-04-18T07:53:56Z</time></trkpt><trkpt lat="43.52190575713876" lon="10.740092706565042"><ele>141.66666666666669</ele><time>2026-04-18T07:53:58Z</time></trkpt><trkpt lat="43.52189550966197" lon="10.73999079423692"><ele>141.5</ele><time>2026-04-18T07:54:00Z</time></trkpt><trkpt lat="43.521882875329624" lon="10.739879441493636"><ele>141.33333333333334</ele><time>2026-04-18T07:54:02Z</time></trkpt><trkpt lat="43.52187215148038" lon="10.739765316020502"><ele>141.16666666666666</ele><time>2026-04-18T07:54:04Z</time></trkpt><trkpt lat="43.52186602041817" lon="10.739650809330678"><ele>141.0</ele><time>2026-04-18T07:54:06Z</time></trkpt><trkpt lat="43.521873006476284" lon="10.739537009041685"><ele>141.0</ele><time>2026-04-18T07:54:08Z</time></trkpt><trkpt lat="43.5218849790202" lon="10.739422637892872"><ele>141.0</ele><time>2026-04-18T07:54:10Z</time></trkpt><trkpt lat="43.52188757607111" lon="10.739303157899252"><ele>141.0</ele><time>2026-04-18T07:54:12Z</time></trkpt><trkpt lat="43.52187869230097" lon="10.739205868621362"><ele>141.0</ele><time>2026-04-18T07:54:14Z</time></trkpt><trkpt lat="43.52186532069473" lon="10.739114137709992"><ele>141.0</ele><time>2026-04-18T07:54:26Z</time></trkpt><trkpt lat="43.521925024885924" lon="10.739083133011952"><ele>141.0</ele><time>2026-04-18T07:54:44.999Z</time></trkpt><trkpt lat="43.521952049729535" lon="10.739185702375893"><ele>141.0</ele><time>2026-04-18T07:54:53.999Z</time></trkpt><trkpt lat="43.5219918176237" lon="10.739324835120351"><ele>141.0</ele><time>2026-04-18T07:54:55.999Z</time></trkpt><trkpt lat="43.522039492253505" lon="10.739473488951864"><ele>141.0</ele><time>2026-04-18T07:54:56.999Z</time></trkpt><trkpt lat="43.5220714320167" lon="10.7395690131554"><ele>141.0</ele><time>2026-04-18T07:54:57.999Z</time></trkpt><trkpt lat="43.52210703556672" lon="10.739669642464035"><ele>141.0</ele><time>2026-04-18T07:54:58.999Z</time></trkpt><trkpt lat="43.52214260701846" lon="10.739775819293795"><ele>143.5</ele><time>2026-04-18T07:54:59.999Z</time></trkpt><trkpt lat="43.52218187277916" lon="10.73988230751136"><ele>146.0</ele><time>2026-04-18T07:55:00.999Z</time></trkpt><trkpt lat="43.522223688221764" lon="10.739985772386188"><ele>148.5</ele><time>2026-04-18T07:55:01.999Z</time></trkpt><trkpt lat="43.52226308718291" lon="10.740087489948882"><ele>151.0</ele><time>2026-04-18T07:55:02.999Z</time></trkpt><trkpt lat="43.522302152185524" lon="10.740183573847935"><ele>153.5</ele><time>2026-04-18T07:55:03.999Z</time></trkpt><trkpt lat="43.52233943856187" lon="10.74027853087953"><ele>156.0</ele><time>2026-04-18T07:55:04.999Z</time></trkpt><trkpt lat="43.52237960446608" lon="10.740375671934803"><ele>156.66666666666666</ele><time>2026-04-18T07:55:05.999Z</time></trkpt><trkpt lat="43.522422716423655" lon="10.740474549264338"><ele>157.33333333333334</ele><time>2026-04-18T07:55:06.999Z</time></trkpt><trkpt lat="43.52246546469734" lon="10.740571958050664"><ele>158.0</ele><time>2026-04-18T07:55:07.999Z</time></trkpt><trkpt lat="43.522505262859994" lon="10.740662454734505"><ele>158.66666666666669</ele><time>2026-04-18T07:55:08.999Z</time></trkpt><trkpt lat="43.52254126980393" lon="10.740739928646079"><ele>159.33333333333334</ele><time>2026-04-18T07:55:09.999Z</time></trkpt><trkpt lat="43.52260546042975" lon="10.740872482596412"><ele>160.0</ele><time>2026-04-18T07:55:11.999Z</time></trkpt><trkpt lat="43.52264082359014" lon="10.740944791331628"><ele>160.0</ele><time>2026-04-18T07:55:12.999Z</time></trkpt><trkpt lat="43.52267840037264" lon="10.741020908188514"><ele>160.0</ele><time>2026-04-18T07:55:13.999Z</time></trkpt><trkpt lat="43.522715867903436" lon="10.741103056315785"><ele>160.0</ele><time>2026-04-18T07:55:14.999Z</time></trkpt><trkpt lat="43.52276148120687" lon="10.741184993329732"><ele>160.0</ele><time>2026-04-18T07:55:15.999Z</time></trkpt><trkpt lat="43.52281151564629" lon="10.741260845162369"><ele>160.0</ele><time>2026-04-18T07:55:16.999Z</time></trkpt><trkpt lat="43.52286366473168" lon="10.741331695332969"><ele>160.0</ele><time>2026-04-18T07:55:17.999Z</time></trkpt><trkpt lat="43.522916660367606" lon="10.741396257050383"><ele>160.0</ele><time>2026-04-18T07:55:18.999Z</time></trkpt><trkpt lat="43.52297169885209" lon="10.741458138856586"><ele>159.83333333333334</ele><time>2026-04-18T07:55:19.999Z</time></trkpt><trkpt lat="43.52302991079049" lon="10.74151514106892"><ele>159.66666666666669</ele><time>2026-04-18T07:55:20.999Z</time></trkpt><trkpt lat="43.52308759711589" lon="10.741564558012595"><ele>159.5</ele><time>2026-04-18T07:55:21.999Z</time></trkpt><trkpt lat="43.52318435096672" lon="10.74165281241605"><ele>159.33333333333334</ele><time>2026-04-18T07:55:23.999Z</time></trkpt><trkpt lat="43.52326593509249" lon="10.741726548270059"><ele>159.16666666666666</ele><time>2026-04-18T07:55:25.999Z</time></trkpt><trkpt lat="43.523340025456186" lon="10.741797650103308"><ele>159.0</ele><time>2026-04-18T07:55:27.999Z</time></trkpt><trkpt lat="43.523416821003146" lon="10.741866593909148"><ele>159.6</ele><time>2026-04-18T07:55:29.999Z</time></trkpt><trkpt lat="43.523494892358" lon="10.741935312359972"><ele>160.2</ele><time>2026-04-18T07:55:31.999Z</time></trkpt><trkpt lat="43.523571101557664" lon="10.74201516610428"><ele>160.79999999999998</ele><time>2026-04-18T07:55:33.998Z</time></trkpt><trkpt lat="43.523673401020474" lon="10.742053357408915"><ele>161.4</ele><time>2026-04-18T07:55:35.998Z</time></trkpt><trkpt lat="43.52379655190975" lon="10.742045808631705"><ele>162.0</ele><time>2026-04-18T07:55:37.998Z</time></trkpt><trkpt lat="43.52385716724649" lon="10.74201846631078"><ele>162.0</ele><time>2026-04-18T07:55:38.998Z</time></trkpt><trkpt lat="43.52397511782355" lon="10.74196795967944"><ele>162.0</ele><time>2026-04-18T07:55:40.998Z</time></trkpt><trkpt lat="43.52403757282465" lon="10.741941230631324"><ele>162.0</ele><time>2026-04-18T07:55:41.998Z</time></trkpt><trkpt lat="43.5241032517021" lon="10.74191312184398"><ele>162.0</ele><time>2026-04-18T07:55:42.998Z</time></trkpt><trkpt lat="43.52416273922643" lon="10.741865767992756"><ele>162.0</ele><time>2026-04-18T07:55:43.998Z</time></trkpt><trkpt lat="43.524280252458944" lon="10.741816876540218"><ele>162.0</ele><time>2026-04-18T07:55:45.998Z</time></trkpt><trkpt lat="43.52438820068265" lon="10.741774402850254"><ele>162.75</ele><time>2026-04-18T07:55:47.998Z</time></trkpt><trkpt lat="43.524498353083736" lon="10.741769862217852"><ele>163.5</ele><time>2026-04-18T07:55:49.998Z</time></trkpt><trkpt lat="43.524614766772004" lon="10.741776462222294"><ele>164.25</ele><time>2026-04-18T07:55:51.998Z</time></trkpt><trkpt lat="43.524733608836534" lon="10.741799068586735"><ele>165.0</ele><time>2026-04-18T07:55:53.998Z</time></trkpt><trkpt lat="43.52486264633768" lon="10.741827158767503"><ele>166.16666666666666</ele><time>2026-04-18T07:55:55.998Z</time></trkpt><trkpt lat="43.524933757206185" lon="10.741827718474848"><ele>167.33333333333334</ele><time>2026-04-18T07:55:56.998Z</time></trkpt><trkpt lat="43.52501100966009" lon="10.741820736526208"><ele>168.5</ele><time>2026-04-18T07:55:57.998Z</time></trkpt><trkpt lat="43.52508905735303" lon="10.741811177622623"><ele>169.66666666666669</ele><time>2026-04-18T07:55:58.998Z</time></trkpt><trkpt lat="43.52516839749645" lon="10.741793418459777"><ele>170.83333333333334</ele><time>2026-04-18T07:55:59.998Z</time></trkpt><trkpt lat="43.52524942171914" lon="10.741772749044701"><ele>172.0</ele><time>2026-04-18T07:56:01Z</time></trkpt><trkpt lat="43.5253343358093" lon="10.741739613185116"><ele>171.5</ele><time>2026-04-18T07:56:02Z</time></trkpt><trkpt lat="43.52541823124523" lon="10.74169688610265"><ele>171.0</ele><time>2026-04-18T07:56:03Z</time></trkpt><trkpt lat="43.52549770875065" lon="10.741639533882694"><ele>170.5</ele><time>2026-04-18T07:56:04Z</time></trkpt><trkpt lat="43.52557191761281" lon="10.741579180915199"><ele>170.0</ele><time>2026-04-18T07:56:05Z</time></trkpt><trkpt lat="43.52563147641882" lon="10.74150292264089"><ele>169.5</ele><time>2026-04-18T07:56:06Z</time></trkpt><trkpt lat="43.525693865204474" lon="10.741453046543143"><ele>169.0</ele><time>2026-04-18T07:56:07Z</time></trkpt><trkpt lat="43.525749169636846" lon="10.741408271132247"><ele>169.0</ele><time>2026-04-18T07:56:08Z</time></trkpt><trkpt lat="43.52582137305622" lon="10.741335533015151"><ele>169.0</ele><time>2026-04-18T07:56:10Z</time></trkpt><trkpt lat="43.52589046737066" lon="10.741295961901764"><ele>169.0</ele><time>2026-04-18T07:56:12Z</time></trkpt><trkpt lat="43.52595507291346" lon="10.741253366792968"><ele>169.0</ele><time>2026-04-18T07:56:16Z</time></trkpt><trkpt lat="43.5260035844771" lon="10.741400953218548"><ele>169.0</ele><time>2026-04-18T07:56:19Z</time></trkpt><trkpt lat="43.526078535825356" lon="10.741523727719029"><ele>169.0</ele><time>2026-04-18T07:56:20.999Z</time></trkpt><trkpt lat="43.52612725874842" lon="10.741582470425396"><ele>169.0</ele><time>2026-04-18T07:56:21.999Z</time></trkpt><trkpt lat="43.52622472844868" lon="10.74169253372298"><ele>169.0</ele><time>2026-04-18T07:56:23.999Z</time></trkpt><trkpt lat="43.52631462637402" lon="10.741798436776659"><ele>169.0</ele><time>2026-04-18T07:56:25.999Z</time></trkpt><trkpt lat="43.526401961485654" lon="10.741919607024375"><ele>169.0</ele><time>2026-04-18T07:56:27.999Z</time></trkpt><trkpt lat="43.52645078524462" lon="10.741986524383023"><ele>169.33333333333334</ele><time>2026-04-18T07:56:28.999Z</time></trkpt><trkpt lat="43.52650092728951" lon="10.742053631026227"><ele>169.66666666666669</ele><time>2026-04-18T07:56:29.999Z</time></trkpt><trkpt lat="43.52655307291869" lon="10.742122924582342"><ele>170.0</ele><time>2026-04-18T07:56:30.999Z</time></trkpt><trkpt lat="43.52661624904229" lon="10.742183773770112"><ele>170.33333333333334</ele><time>2026-04-18T07:56:31.999Z</time></trkpt><trkpt lat="43.526669601224" lon="10.742263839984036"><ele>170.66666666666666</ele><time>2026-04-18T07:56:32.999Z</time></trkpt><trkpt lat="43.52671596690906" lon="10.74236143564176"><ele>171.0</ele><time>2026-04-18T07:56:33.999Z</time></trkpt><trkpt lat="43.52677151846876" lon="10.742448579616822"><ele>171.0</ele><time>2026-04-18T07:56:34.999Z</time></trkpt><trkpt lat="43.52683139498847" lon="10.74253757745492"><ele>171.0</ele><time>2026-04-18T07:56:35.999Z</time></trkpt><trkpt lat="43.526889838592545" lon="10.742629111683124"><ele>171.0</ele><time>2026-04-18T07:56:36.999Z</time></trkpt><trkpt lat="43.52693923439866" lon="10.742731324032675"><ele>171.0</ele><time>2026-04-18T07:56:37.999Z</time></trkpt><trkpt lat="43.526978339027515" lon="10.742847111792353"><ele>171.0</ele><time>2026-04-18T07:56:38.999Z</time></trkpt><trkpt lat="43.52701397732229" lon="10.742967935027751"><ele>171.0</ele><time>2026-04-18T07:56:39.999Z</time></trkpt><trkpt lat="43.527048267620636" lon="10.743086824391067"><ele>171.0</ele><time>2026-04-18T07:56:40.999Z</time></trkpt><trkpt lat="43.52708207901241" lon="10.743203538767242"><ele>171.0</ele><time>2026-04-18T07:56:41.999Z</time></trkpt><trkpt lat="43.527114558517965" lon="10.743315527481748"><ele>171.0</ele><time>2026-04-18T07:56:42.999Z</time></trkpt><trkpt lat="43.52714424140428" lon="10.743420272534467"><ele>171.0</ele><time>2026-04-18T07:56:43.999Z</time></trkpt><trkpt lat="43.52717147248714" lon="10.743522991856434"><ele>171.0</ele><time>2026-04-18T07:56:44.999Z</time></trkpt><trkpt lat="43.52719571903113" lon="10.743614453128993"><ele>171.0</ele><time>2026-04-18T07:56:45.999Z</time></trkpt><trkpt lat="43.527251379869675" lon="10.743759622817796"><ele>171.0</ele><time>2026-04-18T07:56:47.999Z</time></trkpt><trkpt lat="43.527269935701696" lon="10.74390777979877"><ele>171.0</ele><time>2026-04-18T07:56:49.999Z</time></trkpt><trkpt lat="43.527318092637714" lon="10.744035573897579"><ele>171.0</ele><time>2026-04-18T07:56:51.999Z</time></trkpt><trkpt lat="43.527380741189354" lon="10.744141114861423"><ele>171.0</ele><time>2026-04-18T07:56:53.999Z</time></trkpt><trkpt lat="43.52745449973632" lon="10.744225334908203"><ele>171.0</ele><time>2026-04-18T07:56:55.999Z</time></trkpt><trkpt lat="43.527539019756226" lon="10.744270892616257"><ele>171.0</ele><time>2026-04-18T07:56:57.998Z</time></trkpt><trkpt lat="43.52761510189869" lon="10.744323176626818"><ele>171.0</ele><time>2026-04-18T07:56:59.998Z</time></trkpt><trkpt lat="43.527704501466836" lon="10.74437070229441"><ele>171.0</ele><time>2026-04-18T07:57:01.998Z</time></trkpt><trkpt lat="43.527794701381026" lon="10.74443076091087"><ele>171.0</ele><time>2026-04-18T07:57:03.998Z</time></trkpt><trkpt lat="43.527885503760224" lon="10.744494761626834"><ele>169.8</ele><time>2026-04-18T07:57:05.998Z</time></trkpt><trkpt lat="43.52797701744435" lon="10.74456246353997"><ele>168.60000000000002</ele><time>2026-04-18T07:57:07.998Z</time></trkpt><trkpt lat="43.52806869768343" lon="10.744634392787292"><ele>167.4</ele><time>2026-04-18T07:57:09.998Z</time></trkpt><trkpt lat="43.52815149160949" lon="10.744716007084781"><ele>166.2</ele><time>2026-04-18T07:57:11.998Z</time></trkpt><trkpt lat="43.528207252188004" lon="10.74482656344999"><ele>165.0</ele><time>2026-04-18T07:57:13.998Z</time></trkpt><trkpt lat="43.52825637930896" lon="10.744930539460274"><ele>165.0</ele><time>2026-04-18T07:57:15.998Z</time></trkpt><trkpt lat="43.52827712830235" lon="10.745051931620006"><ele>165.0</ele><time>2026-04-18T07:57:17.998Z</time></trkpt><trkpt lat="43.528338697429746" lon="10.745155768738806"><ele>165.0</ele><time>2026-04-18T07:57:19.998Z</time></trkpt><trkpt lat="43.52838432964734" lon="10.745255275863705"><ele>165.0</ele><time>2026-04-18T07:57:21.998Z</time></trkpt><trkpt lat="43.52842755914653" lon="10.74535117305569"><ele>165.0</ele><time>2026-04-18T07:57:38.998Z</time></trkpt><trkpt lat="43.52847077308899" lon="10.745439177869645"><ele>165.0</ele><time>2026-04-18T07:57:48.998Z</time></trkpt><trkpt lat="43.528510553804324" lon="10.745532103504505"><ele>163.83333333333334</ele><time>2026-04-18T07:57:53.998Z</time></trkpt><trkpt lat="43.528515098576364" lon="10.745630976247611"><ele>162.66666666666666</ele><time>2026-04-18T07:57:55.997Z</time></trkpt><trkpt lat="43.528496128057164" lon="10.745763153025877"><ele>161.5</ele><time>2026-04-18T07:57:57.997Z</time></trkpt><trkpt lat="43.52846689665636" lon="10.745930095265368"><ele>160.33333333333331</ele><time>2026-04-18T07:57:59.997Z</time></trkpt><trkpt lat="43.52846974566246" lon="10.746023577085952"><ele>159.16666666666666</ele><time>2026-04-18T07:58:00.997Z</time></trkpt><trkpt lat="43.528468053475066" lon="10.746112123564432"><ele>158.0</ele><time>2026-04-18T07:58:01.997Z</time></trkpt><trkpt lat="43.52846008302168" lon="10.746198336679479"><ele>156.8</ele><time>2026-04-18T07:58:02.997Z</time></trkpt><trkpt lat="43.528470514004795" lon="10.7463596912797"><ele>155.60000000000002</ele><time>2026-04-18T07:58:04.997Z</time></trkpt><trkpt lat="43.52848635593443" lon="10.746523245620217"><ele>154.39999999999998</ele><time>2026-04-18T07:58:06.999Z</time></trkpt><trkpt lat="43.528508512506015" lon="10.746703814706958"><ele>153.2</ele><time>2026-04-18T07:58:08.999Z</time></trkpt><trkpt lat="43.528553065825385" lon="10.746771983430335"><ele>152.0</ele><time>2026-04-18T07:58:09.999Z</time></trkpt><trkpt lat="43.52856034889358" lon="10.746922766118407"><ele>152.0</ele><time>2026-04-18T07:58:11.999Z</time></trkpt><trkpt lat="43.528569668291325" lon="10.747075665456851"><ele>152.0</ele><time>2026-04-18T07:58:13.999Z</time></trkpt><trkpt lat="43.528600024289254" lon="10.747226444292217"><ele>152.0</ele><time>2026-04-18T07:58:15.999Z</time></trkpt><trkpt lat="43.528626801946245" lon="10.747379248181193"><ele>152.0</ele><time>2026-04-18T07:58:17.999Z</time></trkpt><trkpt lat="43.528708918845595" lon="10.747488419070374"><ele>154.0</ele><time>2026-04-18T07:58:20Z</time></trkpt><trkpt lat="43.528786125176154" lon="10.747580170737105"><ele>156.0</ele><time>2026-04-18T07:58:22Z</time></trkpt><trkpt lat="43.528861840711116" lon="10.747636591512492"><ele>158.0</ele><time>2026-04-18T07:58:24Z</time></trkpt><trkpt lat="43.528924244567406" lon="10.74757975369543"><ele>160.0</ele><time>2026-04-18T07:58:26Z</time></trkpt><trkpt lat="43.5289751183263" lon="10.74746273664818"><ele>162.0</ele><time>2026-04-18T07:58:29Z</time></trkpt><trkpt lat="43.52902541034267" lon="10.747319402512614"><ele>162.0</ele><time>2026-04-18T07:58:31Z</time></trkpt><trkpt lat="43.529059906623154" lon="10.747171159957205"><ele>162.0</ele><time>2026-04-18T07:58:33Z</time></trkpt><trkpt lat="43.529090304789136" lon="10.74702898326405"><ele>162.0</ele><time>2026-04-18T07:58:35Z</time></trkpt><trkpt lat="43.5291199794563" lon="10.74689018988126"><ele>162.0</ele><time>2026-04-18T07:58:36.999Z</time></trkpt><trkpt lat="43.5291516194384" lon="10.746742204397764"><ele>162.0</ele><time>2026-04-18T07:58:38.999Z</time></trkpt><trkpt lat="43.52937423443683" lon="10.746666918245461"><ele>162.8</ele><time>2026-04-18T07:58:40.999Z</time></trkpt><trkpt lat="43.52944481495395" lon="10.746539683580338"><ele>163.6</ele><time>2026-04-18T07:58:42.999Z</time></trkpt><trkpt lat="43.529524145840114" lon="10.746428572059873"><ele>164.4</ele><time>2026-04-18T07:58:44.999Z</time></trkpt><trkpt lat="43.52959965834884" lon="10.74632795484429"><ele>165.20000000000002</ele><time>2026-04-18T07:58:46.999Z</time></trkpt><trkpt lat="43.529634165093555" lon="10.746191102394906"><ele>166.0</ele><time>2026-04-18T07:58:48.999Z</time></trkpt><trkpt lat="43.52962971804766" lon="10.746042620766218"><ele>164.5</ele><time>2026-04-18T07:58:50.999Z</time></trkpt><trkpt lat="43.52963389276536" lon="10.745947466847893"><ele>163.0</ele><time>2026-04-18T07:58:51.999Z</time></trkpt><trkpt lat="43.529643060651566" lon="10.745851063641524"><ele>161.5</ele><time>2026-04-18T07:58:52.999Z</time></trkpt><trkpt lat="43.529660921657715" lon="10.745752144686568"><ele>160.0</ele><time>2026-04-18T07:58:53.999Z</time></trkpt><trkpt lat="43.52967891026906" lon="10.74565632919499"><ele>158.5</ele><time>2026-04-18T07:58:54.999Z</time></trkpt><trkpt lat="43.52968962224146" lon="10.745566807615784"><ele>157.0</ele><time>2026-04-18T07:58:55.999Z</time></trkpt><trkpt lat="43.52970096419655" lon="10.74540737102934"><ele>156.99999999999997</ele><time>2026-04-18T07:58:57.999Z</time></trkpt><trkpt lat="43.52975942266182" lon="10.74529373123331"><ele>157.0</ele><time>2026-04-18T07:58:59.999Z</time></trkpt><trkpt lat="43.52981816314877" lon="10.745261178173225"><ele>157.0</ele><time>2026-04-18T07:59:00.999Z</time></trkpt><trkpt lat="43.5298810383622" lon="10.745234290713277"><ele>157.0</ele><time>2026-04-18T07:59:01.999Z</time></trkpt><trkpt lat="43.52994453674172" lon="10.745207948441076"><ele>157.0</ele><time>2026-04-18T07:59:02.999Z</time></trkpt><trkpt lat="43.53000820598885" lon="10.745176916600355"><ele>156.99999999999997</ele><time>2026-04-18T07:59:03.999Z</time></trkpt><trkpt lat="43.53006943497245" lon="10.745142059081946"><ele>157.0</ele><time>2026-04-18T07:59:04.999Z</time></trkpt><trkpt lat="43.53014698765371" lon="10.745149509557132"><ele>156.83333333333334</ele><time>2026-04-18T07:59:05.999Z</time></trkpt><trkpt lat="43.53020668237963" lon="10.745095663327277"><ele>156.66666666666669</ele><time>2026-04-18T07:59:06.999Z</time></trkpt><trkpt lat="43.53025935569347" lon="10.7450426752469"><ele>156.5</ele><time>2026-04-18T07:59:07.999Z</time></trkpt><trkpt lat="43.53031839716925" lon="10.744975453900201"><ele>156.33333333333334</ele><time>2026-04-18T07:59:08.999Z</time></trkpt><trkpt lat="43.53036874662224" lon="10.744904901754792"><ele>156.16666666666666</ele><time>2026-04-18T07:59:09.999Z</time></trkpt><trkpt lat="43.53045931835553" lon="10.744810222503068"><ele>156.0</ele><time>2026-04-18T07:59:11.999Z</time></trkpt><trkpt lat="43.53057739097749" lon="10.744773343944258"><ele>156.0</ele><time>2026-04-18T07:59:13.999Z</time></trkpt><trkpt lat="43.53064334409463" lon="10.744755305032546"><ele>156.0</ele><time>2026-04-18T07:59:14.999Z</time></trkpt><trkpt lat="43.53076499554866" lon="10.744689018894698"><ele>156.0</ele><time>2026-04-18T07:59:16.999Z</time></trkpt><trkpt lat="43.530817423371936" lon="10.74462730290175"><ele>156.0</ele><time>2026-04-18T07:59:17.999Z</time></trkpt><trkpt lat="43.53089802117672" lon="10.744493086780913"><ele>156.0</ele><time>2026-04-18T07:59:19.999Z</time></trkpt><trkpt lat="43.53092731571965" lon="10.74439517117062"><ele>156.0</ele><time>2026-04-18T07:59:20.999Z</time></trkpt><trkpt lat="43.53094009991398" lon="10.744298595823267"><ele>156.0</ele><time>2026-04-18T07:59:21.999Z</time></trkpt><trkpt lat="43.53095453916634" lon="10.744186107678726"><ele>156.0</ele><time>2026-04-18T07:59:24.999Z</time></trkpt><trkpt lat="43.530969827207414" lon="10.744054351227208"><ele>156.0</ele><time>2026-04-18T07:59:27.999Z</time></trkpt><trkpt lat="43.53097982561843" lon="10.743933276644189"><ele>156.0</ele><time>2026-04-18T07:59:29.999Z</time></trkpt><trkpt lat="43.53096452633821" lon="10.743802394095182"><ele>156.0</ele><time>2026-04-18T07:59:31.999Z</time></trkpt><trkpt lat="43.53095377656181" lon="10.743674373370464"><ele>157.2</ele><time>2026-04-18T07:59:33.999Z</time></trkpt><trkpt lat="43.53093531048074" lon="10.743532876061177"><ele>158.39999999999998</ele><time>2026-04-18T07:59:35.999Z</time></trkpt><trkpt lat="43.53090801627777" lon="10.74340058197557"><ele>159.6</ele><time>2026-04-18T07:59:37.999Z</time></trkpt><trkpt lat="43.53087222426802" lon="10.743277898055467"><ele>160.79999999999998</ele><time>2026-04-18T07:59:39.999Z</time></trkpt><trkpt lat="43.53085048054109" lon="10.743140111325726"><ele>162.0</ele><time>2026-04-18T07:59:41.999Z</time></trkpt><trkpt lat="43.530836382672916" lon="10.74299045295826"><ele>162.0</ele><time>2026-04-18T07:59:43.999Z</time></trkpt><trkpt lat="43.53086514022653" lon="10.742851438487849"><ele>162.0</ele><time>2026-04-18T07:59:45.999Z</time></trkpt><trkpt lat="43.53089958255952" lon="10.742718157310426"><ele>162.0</ele><time>2026-04-18T07:59:47.998Z</time></trkpt><trkpt lat="43.53093470016032" lon="10.742614977256759"><ele>162.0</ele><time>2026-04-18T07:59:49.998Z</time></trkpt><trkpt lat="43.53097159673966" lon="10.742510539222947"><ele>162.0</ele><time>2026-04-18T07:59:51.998Z</time></trkpt><trkpt lat="43.53092784740948" lon="10.742398490546167"><ele>162.57142857142858</ele><time>2026-04-18T07:59:52.998Z</time></trkpt><trkpt lat="43.53089330916921" lon="10.742325072443014"><ele>163.14285714285714</ele><time>2026-04-18T07:59:53.998Z</time></trkpt><trkpt lat="43.5308720012516" lon="10.742234360700104"><ele>163.71428571428572</ele><time>2026-04-18T07:59:54.998Z</time></trkpt><trkpt lat="43.53084867346387" lon="10.74214027358072"><ele>164.28571428571428</ele><time>2026-04-18T07:59:55.998Z</time></trkpt><trkpt lat="43.53082218864785" lon="10.742043232140318"><ele>164.85714285714286</ele><time>2026-04-18T07:59:56.998Z</time></trkpt><trkpt lat="43.53079918349913" lon="10.741947456783468"><ele>165.42857142857142</ele><time>2026-04-18T07:59:57.998Z</time></trkpt><trkpt lat="43.530773420761484" lon="10.741857180933415"><ele>166.0</ele><time>2026-04-18T07:59:58.998Z</time></trkpt><trkpt lat="43.530748295630346" lon="10.741775582659127"><ele>166.5</ele><time>2026-04-18T07:59:59.998Z</time></trkpt><trkpt lat="43.53073607944219" lon="10.741646731376774"><ele>167.0</ele><time>2026-04-18T08:00:01.998Z</time></trkpt><trkpt lat="43.53071851760963" lon="10.741545012819605"><ele>167.5</ele><time>2026-04-18T08:00:03.998Z</time></trkpt><trkpt lat="43.530698386970755" lon="10.741433016961487"><ele>168.0</ele><time>2026-04-18T08:00:05.998Z</time></trkpt><trkpt lat="43.530727231433346" lon="10.741289324440412"><ele>168.5</ele><time>2026-04-18T08:00:07.998Z</time></trkpt><trkpt lat="43.530797920976944" lon="10.741250486120348"><ele>169.0</ele><time>2026-04-18T08:00:08.998Z</time></trkpt><trkpt lat="43.53083698462654" lon="10.74116958972792"><ele>169.0</ele><time>2026-04-18T08:00:09.998Z</time></trkpt><trkpt lat="43.530875162801415" lon="10.741077416615012"><ele>169.0</ele><time>2026-04-18T08:00:10.998Z</time></trkpt><trkpt lat="43.530908290464744" lon="10.740991277789062"><ele>169.0</ele><time>2026-04-18T08:00:11.998Z</time></trkpt><trkpt lat="43.53093753005031" lon="10.740904384346196"><ele>169.0</ele><time>2026-04-18T08:00:13Z</time></trkpt><trkpt lat="43.53096220819668" lon="10.740819347067754"><ele>169.0</ele><time>2026-04-18T08:00:14Z</time></trkpt><trkpt lat="43.53097350439805" lon="10.740719448027086"><ele>169.0</ele><time>2026-04-18T08:00:15Z</time></trkpt><trkpt lat="43.53099163135397" lon="10.740620073119732"><ele>169.0</ele><time>2026-04-18T08:00:16Z</time></trkpt><trkpt lat="43.531009502837044" lon="10.740522780991757"><ele>169.0</ele><time>2026-04-18T08:00:17Z</time></trkpt><trkpt lat="43.531028299710194" lon="10.740429500593459"><ele>169.0</ele><time>2026-04-18T08:00:18Z</time></trkpt><trkpt lat="43.53105268475546" lon="10.740338506842535"><ele>169.0</ele><time>2026-04-18T08:00:19Z</time></trkpt><trkpt lat="43.53107543437307" lon="10.740247902828404"><ele>169.0</ele><time>2026-04-18T08:00:20Z</time></trkpt><trkpt lat="43.53110122535446" lon="10.74016307335138"><ele>169.0</ele><time>2026-04-18T08:00:21Z</time></trkpt><trkpt lat="43.531126143189475" lon="10.740077157297424"><ele>169.0</ele><time>2026-04-18T08:00:22Z</time></trkpt><trkpt lat="43.53116712727331" lon="10.74000490690088"><ele>169.0</ele><time>2026-04-18T08:00:23Z</time></trkpt><trkpt lat="43.53121512514085" lon="10.739863938230842"><ele>167.16666666666669</ele><time>2026-04-18T08:00:25Z</time></trkpt><trkpt lat="43.5312818521879" lon="10.739723977598015"><ele>165.33333333333334</ele><time>2026-04-18T08:00:27Z</time></trkpt><trkpt lat="43.53132570911904" lon="10.739654217650362"><ele>163.5</ele><time>2026-04-18T08:00:28Z</time></trkpt><trkpt lat="43.5313738968785" lon="10.73958755528022"><ele>161.66666666666666</ele><time>2026-04-18T08:00:29Z</time></trkpt><trkpt lat="43.53141524071619" lon="10.739512003266693"><ele>159.83333333333331</ele><time>2026-04-18T08:00:30Z</time></trkpt><trkpt lat="43.53147191524803" lon="10.739436310798718"><ele>158.0</ele><time>2026-04-18T08:00:31Z</time></trkpt><trkpt lat="43.53153869882722" lon="10.739361937524851"><ele>158.0</ele><time>2026-04-18T08:00:32Z</time></trkpt><trkpt lat="43.531607090687736" lon="10.73928258854238"><ele>158.0</ele><time>2026-04-18T08:00:33Z</time></trkpt><trkpt lat="43.5316811697812" lon="10.739211996976852"><ele>158.0</ele><time>2026-04-18T08:00:34Z</time></trkpt><trkpt lat="43.53175170711351" lon="10.739131258369204"><ele>158.0</ele><time>2026-04-18T08:00:35Z</time></trkpt><trkpt lat="43.531829560430644" lon="10.739060736810362"><ele>158.0</ele><time>2026-04-18T08:00:36Z</time></trkpt><trkpt lat="43.53190490204603" lon="10.738991128270618"><ele>158.0</ele><time>2026-04-18T08:00:37Z</time></trkpt><trkpt lat="43.53197741955154" lon="10.738927049470131"><ele>158.0</ele><time>2026-04-18T08:00:38Z</time></trkpt><trkpt lat="43.53205133848207" lon="10.738865466617217"><ele>158.0</ele><time>2026-04-18T08:00:39Z</time></trkpt><trkpt lat="43.53213062092829" lon="10.738807944500172"><ele>158.0</ele><time>2026-04-18T08:00:40Z</time></trkpt><trkpt lat="43.53220322010829" lon="10.738751805083513"><ele>158.0</ele><time>2026-04-18T08:00:41Z</time></trkpt><trkpt lat="43.53228564482638" lon="10.738719221531916"><ele>158.0</ele><time>2026-04-18T08:00:42Z</time></trkpt><trkpt lat="43.53236286269221" lon="10.738669968531969"><ele>156.8</ele><time>2026-04-18T08:00:43Z</time></trkpt><trkpt lat="43.532436307124726" lon="10.7385970759766"><ele>155.60000000000002</ele><time>2026-04-18T08:00:44Z</time></trkpt><trkpt lat="43.53251959631708" lon="10.738534909663016"><ele>154.39999999999998</ele><time>2026-04-18T08:00:45Z</time></trkpt><trkpt lat="43.532614650175205" lon="10.738487846623897"><ele>153.2</ele><time>2026-04-18T08:00:46Z</time></trkpt><trkpt lat="43.532704021621036" lon="10.738423514703861"><ele>152.0</ele><time>2026-04-18T08:00:47Z</time></trkpt><trkpt lat="43.53279330931325" lon="10.73835944712164"><ele>152.0</ele><time>2026-04-18T08:00:48Z</time></trkpt><trkpt lat="43.53287990970149" lon="10.73829238118134"><ele>152.0</ele><time>2026-04-18T08:00:49Z</time></trkpt><trkpt lat="43.53295260709309" lon="10.738201570208776"><ele>152.0</ele><time>2026-04-18T08:00:50Z</time></trkpt><trkpt lat="43.533028104912745" lon="10.738121699322244"><ele>152.0</ele><time>2026-04-18T08:00:51Z</time></trkpt><trkpt lat="43.53309994919833" lon="10.738041980743041"><ele>152.0</ele><time>2026-04-18T08:00:51.999Z</time></trkpt><trkpt lat="43.53318168050878" lon="10.737983409403373"><ele>151.33333333333331</ele><time>2026-04-18T08:00:52.999Z</time></trkpt><trkpt lat="43.533250723377634" lon="10.73791114290864"><ele>150.66666666666666</ele><time>2026-04-18T08:00:53.999Z</time></trkpt><trkpt lat="43.53331527443891" lon="10.737846448472226"><ele>150.0</ele><time>2026-04-18T08:00:54.999Z</time></trkpt><trkpt lat="43.5333797224502" lon="10.737788744169626"><ele>149.33333333333334</ele><time>2026-04-18T08:00:55.999Z</time></trkpt><trkpt lat="43.53344098918702" lon="10.73774438068157"><ele>148.66666666666669</ele><time>2026-04-18T08:00:56.999Z</time></trkpt><trkpt lat="43.5335340365589" lon="10.73770002784341"><ele>148.0</ele><time>2026-04-18T08:00:58.999Z</time></trkpt><trkpt lat="43.53362574262448" lon="10.73765211815658"><ele>147.33333333333334</ele><time>2026-04-18T08:01:00.999Z</time></trkpt><trkpt lat="43.53372898202564" lon="10.737616153305789"><ele>146.66666666666669</ele><time>2026-04-18T08:01:02.999Z</time></trkpt><trkpt lat="43.533837531368675" lon="10.737567836022738"><ele>146.0</ele><time>2026-04-18T08:01:04.999Z</time></trkpt><trkpt lat="43.533897445111215" lon="10.737539709769623"><ele>145.33333333333334</ele><time>2026-04-18T08:01:05.999Z</time></trkpt><trkpt lat="43.53395973015771" lon="10.737507678560899"><ele>144.66666666666666</ele><time>2026-04-18T08:01:06.999Z</time></trkpt><trkpt lat="43.534025813668094" lon="10.73747341205229"><ele>144.0</ele><time>2026-04-18T08:01:07.999Z</time></trkpt><trkpt lat="43.53408887506161" lon="10.737442892390458"><ele>144.00000000000003</ele><time>2026-04-18T08:01:08.999Z</time></trkpt><trkpt lat="43.53415146731592" lon="10.737413163469032"><ele>144.0</ele><time>2026-04-18T08:01:09.999Z</time></trkpt><trkpt lat="43.534214073990256" lon="10.737383726775068"><ele>144.0</ele><time>2026-04-18T08:01:10.999Z</time></trkpt><trkpt lat="43.5342744000869" lon="10.737350640384422"><ele>144.0</ele><time>2026-04-18T08:01:11.999Z</time></trkpt><trkpt lat="43.534335629438544" lon="10.737313888488893"><ele>144.0</ele><time>2026-04-18T08:01:12.999Z</time></trkpt><trkpt lat="43.534394630449086" lon="10.737274909912811"><ele>144.00000000000003</ele><time>2026-04-18T08:01:13.999Z</time></trkpt><trkpt lat="43.534462063187256" lon="10.737260155336486"><ele>144.0</ele><time>2026-04-18T08:01:14.999Z</time></trkpt><trkpt lat="43.534522722361515" lon="10.737225931544154"><ele>143.0</ele><time>2026-04-18T08:01:15.999Z</time></trkpt><trkpt lat="43.534578682715384" lon="10.73717256532162"><ele>142.0</ele><time>2026-04-18T08:01:16.999Z</time></trkpt><trkpt lat="43.53464607176944" lon="10.737164552605782"><ele>141.0</ele><time>2026-04-18T08:01:17.999Z</time></trkpt><trkpt lat="43.53476434669555" lon="10.737108787601262"><ele>140.0</ele><time>2026-04-18T08:01:19.999Z</time></trkpt><trkpt lat="43.53487868913105" lon="10.73704817422842"><ele>139.0</ele><time>2026-04-18T08:01:21.999Z</time></trkpt><trkpt lat="43.53498568814744" lon="10.736969263697315"><ele>138.8</ele><time>2026-04-18T08:01:23.999Z</time></trkpt><trkpt lat="43.535069694527614" lon="10.736869799682244"><ele>138.60000000000002</ele><time>2026-04-18T08:01:25.999Z</time></trkpt><trkpt lat="43.5351528181511" lon="10.736794162963378"><ele>138.4</ele><time>2026-04-18T08:01:27.999Z</time></trkpt><trkpt lat="43.53522601796385" lon="10.736723690966253"><ele>138.20000000000002</ele><time>2026-04-18T08:01:29.999Z</time></trkpt><trkpt lat="43.535301158495706" lon="10.73667864499029"><ele>138.0</ele><time>2026-04-18T08:01:31.999Z</time></trkpt><trkpt lat="43.53536067870527" lon="10.73662224708054"><ele>137.66666666666666</ele><time>2026-04-18T08:01:33.999Z</time></trkpt><trkpt lat="43.53540803793353" lon="10.736549680041524"><ele>137.33333333333334</ele><time>2026-04-18T08:01:35.999Z</time></trkpt><trkpt lat="43.53546762150042" lon="10.736497275425583"><ele>137.0</ele><time>2026-04-18T08:01:37.999Z</time></trkpt><trkpt lat="43.535525114020665" lon="10.736441661183408"><ele>136.66666666666669</ele><time>2026-04-18T08:01:39.999Z</time></trkpt><trkpt lat="43.53559831670023" lon="10.736400009988825"><ele>136.33333333333334</ele><time>2026-04-18T08:01:41.999Z</time></trkpt><trkpt lat="43.53566500126618" lon="10.736340236714122"><ele>136.0</ele><time>2026-04-18T08:01:43.999Z</time></trkpt><trkpt lat="43.53573413018224" lon="10.736278272419536"><ele>136.0</ele><time>2026-04-18T08:01:45.999Z</time></trkpt><trkpt lat="43.53580971259327" lon="10.736210627281435"><ele>136.0</ele><time>2026-04-18T08:01:47.999Z</time></trkpt><trkpt lat="43.53589090210159" lon="10.736135284634626"><ele>136.0</ele><time>2026-04-18T08:01:49.999Z</time></trkpt><trkpt lat="43.53595593811752" lon="10.736074471867195"><ele>136.0</ele><time>2026-04-18T08:01:51.999Z</time></trkpt><trkpt lat="43.53601578932932" lon="10.736017666412073"><ele>136.0</ele><time>2026-04-18T08:01:55.998Z</time></trkpt><trkpt lat="43.536070007391324" lon="10.735966207317247"><ele>136.0</ele><time>2026-04-18T08:01:58.998Z</time></trkpt><trkpt lat="43.53612300250667" lon="10.735915909108522"><ele>135.42857142857142</ele><time>2026-04-18T08:02:01.998Z</time></trkpt><trkpt lat="43.53617513613124" lon="10.735866428421405"><ele>134.85714285714286</ele><time>2026-04-18T08:02:04.998Z</time></trkpt><trkpt lat="43.53623007210376" lon="10.735814287985638"><ele>134.28571428571428</ele><time>2026-04-18T08:02:07.998Z</time></trkpt><trkpt lat="43.53629981712634" lon="10.735748092235616"><ele>133.71428571428572</ele><time>2026-04-18T08:02:11.998Z</time></trkpt><trkpt lat="43.53636075342857" lon="10.735691277082964"><ele>133.14285714285714</ele><time>2026-04-18T08:02:14.998Z</time></trkpt><trkpt lat="43.53642674589661" lon="10.735629951129846"><ele>132.57142857142856</ele><time>2026-04-18T08:02:17.998Z</time></trkpt><trkpt lat="43.536480817559614" lon="10.7355805281966"><ele>132.0</ele><time>2026-04-18T08:02:20Z</time></trkpt><trkpt lat="43.536545657523796" lon="10.735521961854076"><ele>131.14285714285714</ele><time>2026-04-18T08:02:23Z</time></trkpt><trkpt lat="43.536605003517586" lon="10.73546835780749"><ele>130.28571428571428</ele><time>2026-04-18T08:02:26Z</time></trkpt><trkpt lat="43.536675055506166" lon="10.735403290817862"><ele>129.42857142857144</ele><time>2026-04-18T08:02:29Z</time></trkpt><trkpt lat="43.536726551288986" lon="10.735353094479557"><ele>128.57142857142856</ele><time>2026-04-18T08:02:31Z</time></trkpt><trkpt lat="43.53680395051842" lon="10.73527621941579"><ele>127.71428571428572</ele><time>2026-04-18T08:02:34Z</time></trkpt><trkpt lat="43.53685686026015" lon="10.735223667908453"><ele>126.85714285714286</ele><time>2026-04-18T08:02:36Z</time></trkpt><trkpt lat="43.536912276833945" lon="10.735168626588017"><ele>126.0</ele><time>2026-04-18T08:02:38Z</time></trkpt><trkpt lat="43.536966181050396" lon="10.7351174355914"><ele>125.42857142857143</ele><time>2026-04-18T08:02:40Z</time></trkpt><trkpt lat="43.53704054127756" lon="10.735048019162617"><ele>124.85714285714286</ele><time>2026-04-18T08:02:43Z</time></trkpt><trkpt lat="43.53710235950721" lon="10.73499031083597"><ele>124.28571428571428</ele><time>2026-04-18T08:02:46Z</time></trkpt><trkpt lat="43.53716496807237" lon="10.734931864760744"><ele>123.71428571428571</ele><time>2026-04-18T08:02:49Z</time></trkpt><trkpt lat="43.5372164156979" lon="10.734881688909052"><ele>123.14285714285714</ele><time>2026-04-18T08:02:51Z</time></trkpt><trkpt lat="43.53726923590594" lon="10.734829027267017"><ele>122.57142857142856</ele><time>2026-04-18T08:02:53Z</time></trkpt><trkpt lat="43.53732159665013" lon="10.734776701724728"><ele>121.99999999999999</ele><time>2026-04-18T08:02:55Z</time></trkpt><trkpt lat="43.53737884490137" lon="10.73471836607578"><ele>122.0</ele><time>2026-04-18T08:02:57Z</time></trkpt><trkpt lat="43.53744491907219" lon="10.734649993842112"><ele>121.99999999999999</ele><time>2026-04-18T08:02:59Z</time></trkpt><trkpt lat="43.53751810651595" lon="10.734571253305388"><ele>121.99999999999999</ele><time>2026-04-18T08:03:01Z</time></trkpt><trkpt lat="43.53759818246455" lon="10.734480911417899"><ele>122.0</ele><time>2026-04-18T08:03:03Z</time></trkpt><trkpt lat="43.53767941408605" lon="10.73437205362826"><ele>122.0</ele><time>2026-04-18T08:03:05Z</time></trkpt><trkpt lat="43.53774391210586" lon="10.73422208556027"><ele>120.49999999999999</ele><time>2026-04-18T08:03:07Z</time></trkpt><trkpt lat="43.53778178191019" lon="10.734048786061706"><ele>119.0</ele><time>2026-04-18T08:03:09Z</time></trkpt><trkpt lat="43.53779429402102" lon="10.733960681164838"><ele>117.5</ele><time>2026-04-18T08:03:09.999Z</time></trkpt><trkpt lat="43.53780669583829" lon="10.733874641095516"><ele>116.0</ele><time>2026-04-18T08:03:10.999Z</time></trkpt><trkpt lat="43.53782059030283" lon="10.733782443634409"><ele>114.49999999999999</ele><time>2026-04-18T08:03:11.999Z</time></trkpt><trkpt lat="43.5378329989254" lon="10.733683707580047"><ele>113.0</ele><time>2026-04-18T08:03:12.999Z</time></trkpt><trkpt lat="43.537841065050564" lon="10.733583624435623"><ele>111.4</ele><time>2026-04-18T08:03:13.999Z</time></trkpt><trkpt lat="43.537827021835255" lon="10.73349038025322"><ele>109.80000000000001</ele><time>2026-04-18T08:03:14.999Z</time></trkpt><trkpt lat="43.537811170840364" lon="10.733326015601117"><ele>108.2</ele><time>2026-04-18T08:03:16.999Z</time></trkpt><trkpt lat="43.537788024052574" lon="10.733171409671934"><ele>106.6</ele><time>2026-04-18T08:03:18.999Z</time></trkpt><trkpt lat="43.537761925289836" lon="10.733014344360893"><ele>105.0</ele><time>2026-04-18T08:03:20.999Z</time></trkpt><trkpt lat="43.53774941782521" lon="10.732850539620301"><ele>103.5</ele><time>2026-04-18T08:03:22.999Z</time></trkpt><trkpt lat="43.53774097247446" lon="10.732681151894376"><ele>102.0</ele><time>2026-04-18T08:03:24.999Z</time></trkpt><trkpt lat="43.53776311371703" lon="10.73252027198499"><ele>100.5</ele><time>2026-04-18T08:03:26.999Z</time></trkpt><trkpt lat="43.53777531885389" lon="10.732364443998266"><ele>99.0</ele><time>2026-04-18T08:03:28.999Z</time></trkpt><trkpt lat="43.53780204553645" lon="10.732213765252894"><ele>99.0</ele><time>2026-04-18T08:03:30.999Z</time></trkpt><trkpt lat="43.53785410001558" lon="10.732079143468642"><ele>99.0</ele><time>2026-04-18T08:03:32.999Z</time></trkpt><trkpt lat="43.537919773771094" lon="10.731943073304045"><ele>99.0</ele><time>2026-04-18T08:03:34.999Z</time></trkpt><trkpt lat="43.53799479936935" lon="10.731807486622492"><ele>99.0</ele><time>2026-04-18T08:03:36.999Z</time></trkpt><trkpt lat="43.538038048353194" lon="10.731739436768066"><ele>99.0</ele><time>2026-04-18T08:03:37.999Z</time></trkpt><trkpt lat="43.53813274352274" lon="10.73163669056858"><ele>99.66666666666667</ele><time>2026-04-18T08:03:39.999Z</time></trkpt><trkpt lat="43.53824149112537" lon="10.731562297960094"><ele>100.33333333333334</ele><time>2026-04-18T08:03:41.999Z</time></trkpt><trkpt lat="43.53830154879398" lon="10.731527840548564"><ele>101.0</ele><time>2026-04-18T08:03:42.999Z</time></trkpt><trkpt lat="43.538364193420925" lon="10.731489008547845"><ele>101.66666666666667</ele><time>2026-04-18T08:03:43.999Z</time></trkpt><trkpt lat="43.53842408838802" lon="10.731446751797847"><ele>102.33333333333334</ele><time>2026-04-18T08:03:44.999Z</time></trkpt><trkpt lat="43.53848118580204" lon="10.73140488145926"><ele>103.0</ele><time>2026-04-18T08:03:45.999Z</time></trkpt><trkpt lat="43.538591821963514" lon="10.731322870493834"><ele>103.00000000000001</ele><time>2026-04-18T08:03:47.999Z</time></trkpt><trkpt lat="43.53870445336978" lon="10.731235283125594"><ele>103.0</ele><time>2026-04-18T08:03:49.999Z</time></trkpt><trkpt lat="43.53876184076592" lon="10.73119048567458"><ele>103.0</ele><time>2026-04-18T08:03:50.999Z</time></trkpt><trkpt lat="43.53882011893793" lon="10.731143978757835"><ele>103.0</ele><time>2026-04-18T08:03:51.999Z</time></trkpt><trkpt lat="43.53887678406611" lon="10.731097708436229"><ele>103.00000000000001</ele><time>2026-04-18T08:03:52.999Z</time></trkpt><trkpt lat="43.53893085021438" lon="10.731049825229396"><ele>103.0</ele><time>2026-04-18T08:03:53.999Z</time></trkpt><trkpt lat="43.53898779429308" lon="10.73099397217264"><ele>101.42857142857142</ele><time>2026-04-18T08:03:54.999Z</time></trkpt><trkpt lat="43.53904346553546" lon="10.73093381112446"><ele>99.85714285714286</ele><time>2026-04-18T08:03:55.999Z</time></trkpt><trkpt lat="43.53909546495076" lon="10.730869867430698"><ele>98.28571428571428</ele><time>2026-04-18T08:03:56.999Z</time></trkpt><trkpt lat="43.53914625203752" lon="10.7307975326032"><ele>96.71428571428571</ele><time>2026-04-18T08:03:57.999Z</time></trkpt><trkpt lat="43.539192700436345" lon="10.730720601759282"><ele>95.14285714285714</ele><time>2026-04-18T08:03:58.999Z</time></trkpt><trkpt lat="43.539234005257946" lon="10.730650055425063"><ele>93.57142857142857</ele><time>2026-04-18T08:03:59.999Z</time></trkpt><trkpt lat="43.53927233059555" lon="10.730580475518419"><ele>92.0</ele><time>2026-04-18T08:04:00.999Z</time></trkpt><trkpt lat="43.53933501821189" lon="10.730464095458919"><ele>92.0</ele><time>2026-04-18T08:04:02.999Z</time></trkpt><trkpt lat="43.539393643100546" lon="10.730355257911537"><ele>92.0</ele><time>2026-04-18T08:04:04.999Z</time></trkpt><trkpt lat="43.53945168606486" lon="10.73025410152356"><ele>92.0</ele><time>2026-04-18T08:04:06.999Z</time></trkpt><trkpt lat="43.53950669144403" lon="10.730161974700982"><ele>92.0</ele><time>2026-04-18T08:04:08.999Z</time></trkpt><trkpt lat="43.5395620106099" lon="10.73007708794005"><ele>92.0</ele><time>2026-04-18T08:04:10.999Z</time></trkpt><trkpt lat="43.53962327773773" lon="10.729998926090854"><ele>92.0</ele><time>2026-04-18T08:04:12.998Z</time></trkpt><trkpt lat="43.53969005310269" lon="10.729929379577795"><ele>89.19999999999999</ele><time>2026-04-18T08:04:14.998Z</time></trkpt><trkpt lat="43.53976480930809" lon="10.729864738952056"><ele>86.39999999999999</ele><time>2026-04-18T08:04:16.998Z</time></trkpt><trkpt lat="43.53985457235486" lon="10.729809632258508"><ele>83.6</ele><time>2026-04-18T08:04:18.998Z</time></trkpt><trkpt lat="43.53995812915308" lon="10.729761447290134"><ele>80.8</ele><time>2026-04-18T08:04:20.998Z</time></trkpt><trkpt lat="43.540059059179264" lon="10.729700369385359"><ele>78.0</ele><time>2026-04-18T08:04:22.998Z</time></trkpt><trkpt lat="43.540156499498075" lon="10.729638397347983"><ele>78.0</ele><time>2026-04-18T08:04:25Z</time></trkpt><trkpt lat="43.54025441438824" lon="10.729578036574654"><ele>78.0</ele><time>2026-04-18T08:04:27Z</time></trkpt><trkpt lat="43.540354057424764" lon="10.729538794822558"><ele>78.0</ele><time>2026-04-18T08:04:29Z</time></trkpt><trkpt lat="43.54044464244102" lon="10.72952113223089"><ele>78.0</ele><time>2026-04-18T08:04:31Z</time></trkpt><trkpt lat="43.54053201038325" lon="10.729506068800001"><ele>78.0</ele><time>2026-04-18T08:04:33Z</time></trkpt><trkpt lat="43.540617786306186" lon="10.72948949596603"><ele>78.0</ele><time>2026-04-18T08:04:36Z</time></trkpt><trkpt lat="43.540686766196146" lon="10.729471562436125"><ele>78.0</ele><time>2026-04-18T08:04:39Z</time></trkpt><trkpt lat="43.54075640868645" lon="10.729432736523217"><ele>78.0</ele><time>2026-04-18T08:04:41Z</time></trkpt><trkpt lat="43.54082561176751" lon="10.729343875389521"><ele>78.0</ele><time>2026-04-18T08:04:43Z</time></trkpt><trkpt lat="43.54088111484403" lon="10.729229725804284"><ele>78.0</ele><time>2026-04-18T08:04:45Z</time></trkpt><trkpt lat="43.54092514694446" lon="10.729119355151996"><ele>78.0</ele><time>2026-04-18T08:04:47Z</time></trkpt><trkpt lat="43.54095953967545" lon="10.729016947982002"><ele>76.0</ele><time>2026-04-18T08:04:49Z</time></trkpt><trkpt lat="43.54099330359519" lon="10.728913943012508"><ele>74.0</ele><time>2026-04-18T08:04:51Z</time></trkpt><trkpt lat="43.541027650544635" lon="10.72880641563672"><ele>72.0</ele><time>2026-04-18T08:04:53Z</time></trkpt><trkpt lat="43.541063968769016" lon="10.728692716210434"><ele>70.0</ele><time>2026-04-18T08:04:55Z</time></trkpt><trkpt lat="43.5411060217323" lon="10.728560517490147"><ele>68.0</ele><time>2026-04-18T08:04:57Z</time></trkpt><trkpt lat="43.54115244248894" lon="10.728414384833828"><ele>66.25</ele><time>2026-04-18T08:04:59Z</time></trkpt><trkpt lat="43.54120049669185" lon="10.728263111213254"><ele>64.5</ele><time>2026-04-18T08:05:01Z</time></trkpt><trkpt lat="43.54124947408037" lon="10.728111906523589"><ele>62.75</ele><time>2026-04-18T08:05:03Z</time></trkpt><trkpt lat="43.541280826881525" lon="10.72796264890549"><ele>61.0</ele><time>2026-04-18T08:05:05Z</time></trkpt><trkpt lat="43.541321752042236" lon="10.72783049599102"><ele>60.199999999999996</ele><time>2026-04-18T08:05:07Z</time></trkpt><trkpt lat="43.54134416866483" lon="10.727682873536498"><ele>59.39999999999999</ele><time>2026-04-18T08:05:09Z</time></trkpt><trkpt lat="43.54137009667055" lon="10.72753932347559"><ele>58.6</ele><time>2026-04-18T08:05:11Z</time></trkpt><trkpt lat="43.54139296434655" lon="10.727395697824601"><ele>57.8</ele><time>2026-04-18T08:05:13Z</time></trkpt><trkpt lat="43.54143519661178" lon="10.727266443888336"><ele>57.0</ele><time>2026-04-18T08:05:15Z</time></trkpt><trkpt lat="43.541496361686676" lon="10.72713576996066"><ele>57.0</ele><time>2026-04-18T08:05:16.999Z</time></trkpt><trkpt lat="43.54157055645368" lon="10.727019954046813"><ele>57.0</ele><time>2026-04-18T08:05:18.999Z</time></trkpt><trkpt lat="43.54164322903488" lon="10.726914501428489"><ele>57.0</ele><time>2026-04-18T08:05:20.999Z</time></trkpt><trkpt lat="43.54170928239298" lon="10.726810979967967"><ele>57.0</ele><time>2026-04-18T08:05:22.999Z</time></trkpt><trkpt lat="43.541774857439634" lon="10.726713001787598"><ele>57.0</ele><time>2026-04-18T08:05:24.999Z</time></trkpt><trkpt lat="43.54184716259672" lon="10.726602361002628"><ele>57.400000000000006</ele><time>2026-04-18T08:05:26.999Z</time></trkpt><trkpt lat="43.541929062847785" lon="10.726482885516129"><ele>57.800000000000004</ele><time>2026-04-18T08:05:28.999Z</time></trkpt><trkpt lat="43.542012060069474" lon="10.726358531078235"><ele>58.2</ele><time>2026-04-18T08:05:30.999Z</time></trkpt><trkpt lat="43.5420940702667" lon="10.726218790618518"><ele>58.6</ele><time>2026-04-18T08:05:32.999Z</time></trkpt><trkpt lat="43.542137482315304" lon="10.726152340052272"><ele>59.0</ele><time>2026-04-18T08:05:33.999Z</time></trkpt><trkpt lat="43.54218326565399" lon="10.726082839027677"><ele>60.16666666666667</ele><time>2026-04-18T08:05:34.999Z</time></trkpt><trkpt lat="43.542230452420235" lon="10.726013083071122"><ele>61.333333333333336</ele><time>2026-04-18T08:05:35.999Z</time></trkpt><trkpt lat="43.54227705823664" lon="10.725943094474314"><ele>62.5</ele><time>2026-04-18T08:05:36.999Z</time></trkpt><trkpt lat="43.542321702678656" lon="10.725877084108228"><ele>63.66666666666667</ele><time>2026-04-18T08:05:37.999Z</time></trkpt><trkpt lat="43.542367269259756" lon="10.725809814560957"><ele>64.83333333333333</ele><time>2026-04-18T08:05:38.999Z</time></trkpt><trkpt lat="43.54241362704317" lon="10.725747074420699"><ele>66.0</ele><time>2026-04-18T08:05:39.999Z</time></trkpt><trkpt lat="43.54250885027444" lon="10.725658316172343"><ele>66.0</ele><time>2026-04-18T08:05:41.999Z</time></trkpt><trkpt lat="43.542603969848535" lon="10.725689708588547"><ele>66.0</ele><time>2026-04-18T08:05:43.999Z</time></trkpt><trkpt lat="43.542736925778186" lon="10.725692775300107"><ele>66.0</ele><time>2026-04-18T08:05:45.999Z</time></trkpt><trkpt lat="43.54279124733915" lon="10.725619039229553"><ele>66.0</ele><time>2026-04-18T08:05:46.999Z</time></trkpt><trkpt lat="43.54286894016208" lon="10.72549902330162"><ele>66.0</ele><time>2026-04-18T08:05:48.999Z</time></trkpt><trkpt lat="43.542903046285886" lon="10.72538766993903"><ele>68.5</ele><time>2026-04-18T08:05:50.999Z</time></trkpt><trkpt lat="43.54292426472947" lon="10.725300396590848"><ele>71.0</ele><time>2026-04-18T08:05:52.999Z</time></trkpt><trkpt lat="43.542945413722435" lon="10.725186335489937"><ele>73.5</ele><time>2026-04-18T08:05:55.999Z</time></trkpt><trkpt lat="43.542961760602964" lon="10.725092317495726"><ele>76.0</ele><time>2026-04-18T08:05:58.999Z</time></trkpt><trkpt lat="43.54297470833706" lon="10.724994925250426"><ele>78.5</ele><time>2026-04-18T08:06:00.999Z</time></trkpt><trkpt lat="43.542984362826175" lon="10.724886019629638"><ele>81.0</ele><time>2026-04-18T08:06:02.999Z</time></trkpt><trkpt lat="43.542993482818204" lon="10.724772270807966"><ele>83.0</ele><time>2026-04-18T08:06:04.999Z</time></trkpt><trkpt lat="43.54301123650579" lon="10.724662021263697"><ele>85.0</ele><time>2026-04-18T08:06:06.999Z</time></trkpt><trkpt lat="43.543046771470756" lon="10.724587317237376"><ele>87.0</ele><time>2026-04-18T08:06:08.999Z</time></trkpt><trkpt lat="43.54309841130194" lon="10.724534329890286"><ele>89.0</ele><time>2026-04-18T08:06:10.999Z</time></trkpt><trkpt lat="43.54316158887635" lon="10.724497902590368"><ele>91.0</ele><time>2026-04-18T08:06:12.999Z</time></trkpt><trkpt lat="43.543229910708746" lon="10.724464619757441"><ele>93.0</ele><time>2026-04-18T08:06:14.999Z</time></trkpt><trkpt lat="43.54330296226112" lon="10.724429965168648"><ele>95.0</ele><time>2026-04-18T08:06:16.998Z</time></trkpt><trkpt lat="43.54338440210566" lon="10.724374770260738"><ele>95.5</ele><time>2026-04-18T08:06:18.998Z</time></trkpt><trkpt lat="43.543448698492064" lon="10.724289938702869"><ele>96.0</ele><time>2026-04-18T08:06:20.998Z</time></trkpt><trkpt lat="43.543484272967724" lon="10.724195280231264"><ele>96.5</ele><time>2026-04-18T08:06:22.998Z</time></trkpt><trkpt lat="43.54350961211819" lon="10.72410125625488"><ele>97.0</ele><time>2026-04-18T08:06:24.998Z</time></trkpt><trkpt lat="43.5435301233844" lon="10.72400545938667"><ele>97.49999999999999</ele><time>2026-04-18T08:06:26.998Z</time></trkpt><trkpt lat="43.543586988031535" lon="10.723924046023358"><ele>98.0</ele><time>2026-04-18T08:06:28.998Z</time></trkpt><trkpt lat="43.543641626733404" lon="10.723836550114935"><ele>98.0</ele><time>2026-04-18T08:06:31Z</time></trkpt><trkpt lat="43.54370940603547" lon="10.723744466658745"><ele>98.0</ele><time>2026-04-18T08:06:33Z</time></trkpt><trkpt lat="43.54378143847939" lon="10.723657084272123"><ele>98.0</ele><time>2026-04-18T08:06:35Z</time></trkpt><trkpt lat="43.5438336501496" lon="10.723557351707685"><ele>98.0</ele><time>2026-04-18T08:06:37Z</time></trkpt><trkpt lat="43.5438958512945" lon="10.723466617702298"><ele>98.0</ele><time>2026-04-18T08:06:39Z</time></trkpt><trkpt lat="43.54395935018495" lon="10.72336445206538"><ele>101.80000000000001</ele><time>2026-04-18T08:06:41Z</time></trkpt><trkpt lat="43.54401088961196" lon="10.723255986694934"><ele>105.6</ele><time>2026-04-18T08:06:43Z</time></trkpt><trkpt lat="43.5440392828082" lon="10.723168710453928"><ele>109.39999999999999</ele><time>2026-04-18T08:06:45Z</time></trkpt><trkpt lat="43.54406166810539" lon="10.7230620997243"><ele>113.19999999999999</ele><time>2026-04-18T08:06:47Z</time></trkpt><trkpt lat="43.54408666276844" lon="10.722917168896867"><ele>117.0</ele><time>2026-04-18T08:06:49Z</time></trkpt><trkpt lat="43.54414734764532" lon="10.722773989438936"><ele>117.83333333333333</ele><time>2026-04-18T08:06:51Z</time></trkpt><trkpt lat="43.544166779031904" lon="10.722680699868445"><ele>118.66666666666666</ele><time>2026-04-18T08:06:52Z</time></trkpt><trkpt lat="43.544218659161075" lon="10.722601869512138"><ele>119.5</ele><time>2026-04-18T08:06:53Z</time></trkpt><trkpt lat="43.544265568002345" lon="10.722499068535766"><ele>120.33333333333333</ele><time>2026-04-18T08:06:54Z</time></trkpt><trkpt lat="43.54431533211527" lon="10.72238933668964"><ele>121.16666666666666</ele><time>2026-04-18T08:06:55Z</time></trkpt><trkpt lat="43.54436537301006" lon="10.722284802755953"><ele>122.0</ele><time>2026-04-18T08:06:56Z</time></trkpt><trkpt lat="43.54441785233996" lon="10.722185469109771"><ele>121.99999999999999</ele><time>2026-04-18T08:06:57Z</time></trkpt><trkpt lat="43.544472201951905" lon="10.722089863449703"><ele>122.0</ele><time>2026-04-18T08:06:58Z</time></trkpt><trkpt lat="43.544531268934335" lon="10.722002827870503"><ele>122.0</ele><time>2026-04-18T08:06:59Z</time></trkpt><trkpt lat="43.54459896899128" lon="10.721921879282885"><ele>122.0</ele><time>2026-04-18T08:07:00Z</time></trkpt><trkpt lat="43.544667805937756" lon="10.721849641832655"><ele>121.99999999999999</ele><time>2026-04-18T08:07:01Z</time></trkpt><trkpt lat="43.54473782967882" lon="10.721772700982132"><ele>122.0</ele><time>2026-04-18T08:07:02Z</time></trkpt><trkpt lat="43.54480848776762" lon="10.721705264289673"><ele>121.6</ele><time>2026-04-18T08:07:03Z</time></trkpt><trkpt lat="43.544888391897196" lon="10.721646580338"><ele>121.19999999999999</ele><time>2026-04-18T08:07:04Z</time></trkpt><trkpt lat="43.544972940627694" lon="10.72160467400154"><ele>120.8</ele><time>2026-04-18T08:07:05Z</time></trkpt><trkpt lat="43.545059830585835" lon="10.721566552860219"><ele>120.4</ele><time>2026-04-18T08:07:06Z</time></trkpt><trkpt lat="43.54515161559452" lon="10.721524846474985"><ele>120.0</ele><time>2026-04-18T08:07:07Z</time></trkpt><trkpt lat="43.545243729556894" lon="10.721479731314542"><ele>120.0</ele><time>2026-04-18T08:07:08Z</time></trkpt><trkpt lat="43.545334908379616" lon="10.721426895056164"><ele>120.0</ele><time>2026-04-18T08:07:09Z</time></trkpt><trkpt lat="43.54542454847137" lon="10.721374701294609"><ele>120.0</ele><time>2026-04-18T08:07:10Z</time></trkpt><trkpt lat="43.5455032576024" lon="10.721330588430725"><ele>120.0</ele><time>2026-04-18T08:07:11Z</time></trkpt><trkpt lat="43.54557296043075" lon="10.721294291049206"><ele>120.0</ele><time>2026-04-18T08:07:12Z</time></trkpt><trkpt lat="43.54567766439319" lon="10.721243232904976"><ele>119.5</ele><time>2026-04-18T08:07:14Z</time></trkpt><trkpt lat="43.54574351896581" lon="10.721213931929942"><ele>119.0</ele><time>2026-04-18T08:07:16Z</time></trkpt><trkpt lat="43.545785694019" lon="10.721136555566444"><ele>118.5</ele><time>2026-04-18T08:07:19Z</time></trkpt><trkpt lat="43.545821662918954" lon="10.72105460004808"><ele>118.0</ele><time>2026-04-18T08:07:21Z</time></trkpt><trkpt lat="43.54572819095733" lon="10.720989328485283"><ele>117.5</ele><time>2026-04-18T08:07:22Z</time></trkpt><trkpt lat="43.545641344015394" lon="10.720857892413916"><ele>117.0</ele><time>2026-04-18T08:07:23.999Z</time></trkpt><trkpt lat="43.54557697500044" lon="10.720806507763976"><ele>117.66666666666667</ele><time>2026-04-18T08:07:24.999Z</time></trkpt><trkpt lat="43.54550369875979" lon="10.720761211695812"><ele>118.33333333333334</ele><time>2026-04-18T08:07:25.999Z</time></trkpt><trkpt lat="43.54542282333258" lon="10.720728557306462"><ele>119.0</ele><time>2026-04-18T08:07:26.999Z</time></trkpt><trkpt lat="43.54534188773071" lon="10.720705589097532"><ele>119.66666666666667</ele><time>2026-04-18T08:07:27.999Z</time></trkpt><trkpt lat="43.54526340668242" lon="10.720684554768122"><ele>120.33333333333334</ele><time>2026-04-18T08:07:28.999Z</time></trkpt><trkpt lat="43.545189880620086" lon="10.720660636071232"><ele>121.0</ele><time>2026-04-18T08:07:29.999Z</time></trkpt><trkpt lat="43.54512928215428" lon="10.720623571365786"><ele>121.00000000000001</ele><time>2026-04-18T08:07:30.999Z</time></trkpt><trkpt lat="43.54506647869819" lon="10.720605929136623"><ele>121.0</ele><time>2026-04-18T08:07:31.999Z</time></trkpt><trkpt lat="43.54504951078385" lon="10.72051458561397"><ele>121.0</ele><time>2026-04-18T08:07:32.999Z</time></trkpt><trkpt lat="43.5450541349228" lon="10.720370983733195"><ele>121.0</ele><time>2026-04-18T08:07:34.999Z</time></trkpt><trkpt lat="43.545113760409684" lon="10.72024112568128"><ele>121.00000000000001</ele><time>2026-04-18T08:07:36.999Z</time></trkpt><trkpt lat="43.545158695077134" lon="10.72017422441363"><ele>121.0</ele><time>2026-04-18T08:07:37.999Z</time></trkpt><trkpt lat="43.545208411507744" lon="10.72010427917148"><ele>120.71428571428571</ele><time>2026-04-18T08:07:38.999Z</time></trkpt><trkpt lat="43.54526085687914" lon="10.720036488996332"><ele>120.42857142857142</ele><time>2026-04-18T08:07:39.999Z</time></trkpt><trkpt lat="43.54531536480568" lon="10.71996886523421"><ele>120.14285714285714</ele><time>2026-04-18T08:07:40.999Z</time></trkpt><trkpt lat="43.54537325051012" lon="10.719904048741077"><ele>119.85714285714286</ele><time>2026-04-18T08:07:41.999Z</time></trkpt><trkpt lat="43.545435805810506" lon="10.719845534305044"><ele>119.57142857142857</ele><time>2026-04-18T08:07:42.999Z</time></trkpt><trkpt lat="43.54550455888252" lon="10.719796562325696"><ele>119.28571428571428</ele><time>2026-04-18T08:07:43.999Z</time></trkpt><trkpt lat="43.54557496313693" lon="10.719756283124186"><ele>119.0</ele><time>2026-04-18T08:07:44.999Z</time></trkpt><trkpt lat="43.54564694721885" lon="10.719719013249039"><ele>118.99999999999999</ele><time>2026-04-18T08:07:45.999Z</time></trkpt><trkpt lat="43.545721629700864" lon="10.719685268071919"><ele>119.0</ele><time>2026-04-18T08:07:46.999Z</time></trkpt><trkpt lat="43.54579712767474" lon="10.71965212975558"><ele>119.0</ele><time>2026-04-18T08:07:47.999Z</time></trkpt><trkpt lat="43.5458758491924" lon="10.71961787549466"><ele>119.0</ele><time>2026-04-18T08:07:48.999Z</time></trkpt><trkpt lat="43.545956874095516" lon="10.719580653673328"><ele>118.99999999999999</ele><time>2026-04-18T08:07:49.999Z</time></trkpt><trkpt lat="43.54603756058573" lon="10.719545921915788"><ele>119.0</ele><time>2026-04-18T08:07:50.999Z</time></trkpt><trkpt lat="43.54611879300613" lon="10.71951090369553"><ele>118.99999999999999</ele><time>2026-04-18T08:07:51.999Z</time></trkpt><trkpt lat="43.54619783291448" lon="10.71947631223987"><ele>119.0</ele><time>2026-04-18T08:07:52.999Z</time></trkpt><trkpt lat="43.54626877392989" lon="10.71944508106992"><ele>119.0</ele><time>2026-04-18T08:07:53.999Z</time></trkpt><trkpt lat="43.54637164642443" lon="10.71940074774021"><ele>119.0</ele><time>2026-04-18T08:07:55.999Z</time></trkpt><trkpt lat="43.5464449525694" lon="10.719379333945511"><ele>118.99999999999999</ele><time>2026-04-18T08:07:58.999Z</time></trkpt><trkpt lat="43.54652433214137" lon="10.719362255244931"><ele>119.0</ele><time>2026-04-18T08:08:02.999Z</time></trkpt><trkpt lat="43.546604082694664" lon="10.719361858704172"><ele>117.2</ele><time>2026-04-18T08:08:04.999Z</time></trkpt><trkpt lat="43.54668083391026" lon="10.719372514207452"><ele>115.4</ele><time>2026-04-18T08:08:07.999Z</time></trkpt><trkpt lat="43.54678643097555" lon="10.719368951214816"><ele>113.6</ele><time>2026-04-18T08:08:10.999Z</time></trkpt><trkpt lat="43.54690354196095" lon="10.719370024211926"><ele>111.8</ele><time>2026-04-18T08:08:12.999Z</time></trkpt><trkpt lat="43.54697445158298" lon="10.71937196821057"><ele>110.0</ele><time>2026-04-18T08:08:13.999Z</time></trkpt><trkpt lat="43.54705434325342" lon="10.719370422056352"><ele>109.6</ele><time>2026-04-18T08:08:14.999Z</time></trkpt><trkpt lat="43.54714142082665" lon="10.719366764201986"><ele>109.2</ele><time>2026-04-18T08:08:15.999Z</time></trkpt><trkpt lat="43.54723298702201" lon="10.719360741562303"><ele>108.80000000000001</ele><time>2026-04-18T08:08:16.999Z</time></trkpt><trkpt lat="43.54732681036863" lon="10.71935609359755"><ele>108.4</ele><time>2026-04-18T08:08:17.999Z</time></trkpt><trkpt lat="43.5474238691157" lon="10.719352866068949"><ele>108.0</ele><time>2026-04-18T08:08:18.999Z</time></trkpt><trkpt lat="43.547523594794434" lon="10.719349154598216"><ele>108.0</ele><time>2026-04-18T08:08:19.999Z</time></trkpt><trkpt lat="43.54762550074549" lon="10.71934224240151"><ele>108.00000000000001</ele><time>2026-04-18T08:08:20.998Z</time></trkpt><trkpt lat="43.54772849153082" lon="10.719337765222715"><ele>108.00000000000001</ele><time>2026-04-18T08:08:21.998Z</time></trkpt><trkpt lat="43.54783155564325" lon="10.719330612575655"><ele>108.0</ele><time>2026-04-18T08:08:22.998Z</time></trkpt><trkpt lat="43.54793430916596" lon="10.719325358764594"><ele>108.0</ele><time>2026-04-18T08:08:23.998Z</time></trkpt><trkpt lat="43.54803939486085" lon="10.719320965838847"><ele>109.5</ele><time>2026-04-18T08:08:24.998Z</time></trkpt><trkpt lat="43.5481477410372" lon="10.71931862778599"><ele>111.0</ele><time>2026-04-18T08:08:25.998Z</time></trkpt><trkpt lat="43.54826022181692" lon="10.719313817395026"><ele>112.5</ele><time>2026-04-18T08:08:26.998Z</time></trkpt><trkpt lat="43.54837385858624" lon="10.719307444420629"><ele>114.0</ele><time>2026-04-18T08:08:27.998Z</time></trkpt><trkpt lat="43.548489087852104" lon="10.719301661115459"><ele>114.0</ele><time>2026-04-18T08:08:28.998Z</time></trkpt><trkpt lat="43.54860326716464" lon="10.71929882371056"><ele>114.0</ele><time>2026-04-18T08:08:29.998Z</time></trkpt><trkpt lat="43.54871703754805" lon="10.719308385335507"><ele>114.0</ele><time>2026-04-18T08:08:30.998Z</time></trkpt><trkpt lat="43.548834126986286" lon="10.719327903639119"><ele>114.0</ele><time>2026-04-18T08:08:31.998Z</time></trkpt><trkpt lat="43.54894875991712" lon="10.71935771287133"><ele>114.4</ele><time>2026-04-18T08:08:32.998Z</time></trkpt><trkpt lat="43.54904982957855" lon="10.719394675083088"><ele>114.80000000000001</ele><time>2026-04-18T08:08:33.998Z</time></trkpt><trkpt lat="43.54913951531308" lon="10.719436041407702"><ele>115.19999999999999</ele><time>2026-04-18T08:08:34.998Z</time></trkpt><trkpt lat="43.549219078332044" lon="10.719487356279481"><ele>115.6</ele><time>2026-04-18T08:08:35.998Z</time></trkpt><trkpt lat="43.549288285103685" lon="10.719553417017499"><ele>116.0</ele><time>2026-04-18T08:08:37Z</time></trkpt><trkpt lat="43.54934880747516" lon="10.719633503277464"><ele>117.00000000000001</ele><time>2026-04-18T08:08:38Z</time></trkpt><trkpt lat="43.549398746297534" lon="10.71971688327137"><ele>118.0</ele><time>2026-04-18T08:08:39Z</time></trkpt><trkpt lat="43.54944373019456" lon="10.719794199712727"><ele>119.00000000000001</ele><time>2026-04-18T08:08:40Z</time></trkpt><trkpt lat="43.549493333851146" lon="10.719868721157635"><ele>120.00000000000001</ele><time>2026-04-18T08:08:41Z</time></trkpt><trkpt lat="43.54953029690138" lon="10.719959759824688"><ele>121.0</ele><time>2026-04-18T08:08:42Z</time></trkpt><trkpt lat="43.54957244723285" lon="10.720039112938258"><ele>122.00000000000001</ele><time>2026-04-18T08:08:43Z</time></trkpt><trkpt lat="43.54961794520083" lon="10.720122881239577"><ele>123.00000000000001</ele><time>2026-04-18T08:08:44Z</time></trkpt><trkpt lat="43.549663039692994" lon="10.720212912752864"><ele>123.83333333333333</ele><time>2026-04-18T08:08:45Z</time></trkpt><trkpt lat="43.54967974302127" lon="10.720326615662502"><ele>124.66666666666666</ele><time>2026-04-18T08:08:46Z</time></trkpt><trkpt lat="43.549682295926885" lon="10.720447491280776"><ele>125.5</ele><time>2026-04-18T08:08:47Z</time></trkpt><trkpt lat="43.54967781104949" lon="10.720571843274712"><ele>126.33333333333333</ele><time>2026-04-18T08:08:48Z</time></trkpt><trkpt lat="43.54967570136023" lon="10.720693181003046"><ele>127.16666666666666</ele><time>2026-04-18T08:08:49Z</time></trkpt><trkpt lat="43.54966948484531" lon="10.720815089331072"><ele>128.0</ele><time>2026-04-18T08:08:50Z</time></trkpt><trkpt lat="43.5496653811017" lon="10.720924631258846"><ele>127.99999999999999</ele><time>2026-04-18T08:08:51Z</time></trkpt><trkpt lat="43.54966433989479" lon="10.721026829983957"><ele>128.0</ele><time>2026-04-18T08:08:52Z</time></trkpt><trkpt lat="43.54965721535217" lon="10.721121041805029"><ele>128.0</ele><time>2026-04-18T08:08:53Z</time></trkpt><trkpt lat="43.54963233334333" lon="10.72123180409648"><ele>128.0</ele><time>2026-04-18T08:08:55Z</time></trkpt><trkpt lat="43.54959734515713" lon="10.721312587821949"><ele>127.99999999999999</ele><time>2026-04-18T08:08:58Z</time></trkpt><trkpt lat="43.54957381530382" lon="10.721399908440672"><ele>128.0</ele><time>2026-04-18T08:09:00Z</time></trkpt><trkpt lat="43.54958273192827" lon="10.721520540857425"><ele>129.0</ele><time>2026-04-18T08:09:02Z</time></trkpt><trkpt lat="43.54959537872411" lon="10.721660249287867"><ele>130.0</ele><time>2026-04-18T08:09:04Z</time></trkpt><trkpt lat="43.54964529022749" lon="10.7218080624692"><ele>131.0</ele><time>2026-04-18T08:09:06Z</time></trkpt><trkpt lat="43.54968564653151" lon="10.721881893185968"><ele>132.0</ele><time>2026-04-18T08:09:07Z</time></trkpt><trkpt lat="43.54971403046374" lon="10.72197108512565"><ele>133.0</ele><time>2026-04-18T08:09:08Z</time></trkpt><trkpt lat="43.54974339658491" lon="10.722061430344583"><ele>134.0</ele><time>2026-04-18T08:09:09Z</time></trkpt><trkpt lat="43.54977412030199" lon="10.722151414675444"><ele>133.83333333333331</ele><time>2026-04-18T08:09:10Z</time></trkpt><trkpt lat="43.54980279896274" lon="10.722247853600434"><ele>133.66666666666666</ele><time>2026-04-18T08:09:11Z</time></trkpt><trkpt lat="43.549826249378484" lon="10.72234593998384"><ele>133.5</ele><time>2026-04-18T08:09:12Z</time></trkpt><trkpt lat="43.54984306355664" lon="10.722452655717222"><ele>133.33333333333334</ele><time>2026-04-18T08:09:13Z</time></trkpt><trkpt lat="43.54984928955139" lon="10.72256370070257"><ele>133.16666666666669</ele><time>2026-04-18T08:09:14Z</time></trkpt><trkpt lat="43.54984329668827" lon="10.722676800627763"><ele>133.0</ele><time>2026-04-18T08:09:15Z</time></trkpt><trkpt lat="43.54983540868446" lon="10.72278898908824"><ele>133.0</ele><time>2026-04-18T08:09:16Z</time></trkpt><trkpt lat="43.549825222964564" lon="10.722913368400551"><ele>133.0</ele><time>2026-04-18T08:09:17Z</time></trkpt><trkpt lat="43.549878161339436" lon="10.723032495966063"><ele>133.0</ele><time>2026-04-18T08:09:18Z</time></trkpt><trkpt lat="43.54992311389449" lon="10.723143115290947"><ele>133.0</ele><time>2026-04-18T08:09:19Z</time></trkpt><trkpt lat="43.549965415515466" lon="10.723245340596877"><ele>133.0</ele><time>2026-04-18T08:09:20Z</time></trkpt><trkpt lat="43.549992825737554" lon="10.723358289137872"><ele>133.0</ele><time>2026-04-18T08:09:21Z</time></trkpt><trkpt lat="43.550006049415416" lon="10.723472063392402"><ele>133.0</ele><time>2026-04-18T08:09:22Z</time></trkpt><trkpt lat="43.550014463464" lon="10.723579345882431"><ele>133.0</ele><time>2026-04-18T08:09:22.999Z</time></trkpt><trkpt lat="43.550032020626205" lon="10.723682997149128"><ele>133.0</ele><time>2026-04-18T08:09:23.999Z</time></trkpt><trkpt lat="43.55005914341764" lon="10.723779670359868"><ele>133.0</ele><time>2026-04-18T08:09:24.999Z</time></trkpt><trkpt lat="43.55009658966144" lon="10.72386800038017"><ele>133.0</ele><time>2026-04-18T08:09:25.999Z</time></trkpt><trkpt lat="43.55014381254963" lon="10.72395190595655"><ele>131.83333333333334</ele><time>2026-04-18T08:09:26.999Z</time></trkpt><trkpt lat="43.55019243292357" lon="10.724029838292216"><ele>130.66666666666669</ele><time>2026-04-18T08:09:27.999Z</time></trkpt><trkpt lat="43.55023571872107" lon="10.72412033421287"><ele>129.5</ele><time>2026-04-18T08:09:28.999Z</time></trkpt><trkpt lat="43.55030588412732" lon="10.724172375231595"><ele>128.33333333333334</ele><time>2026-04-18T08:09:29.999Z</time></trkpt><trkpt lat="43.55038070004209" lon="10.724226656669337"><ele>127.16666666666667</ele><time>2026-04-18T08:09:30.999Z</time></trkpt><trkpt lat="43.55046669798524" lon="10.724251105562347"><ele>126.0</ele><time>2026-04-18T08:09:31.999Z</time></trkpt><trkpt lat="43.5505561306339" lon="10.724267754518648"><ele>126.0</ele><time>2026-04-18T08:09:32.999Z</time></trkpt><trkpt lat="43.55065404039492" lon="10.724284616402567"><ele>126.0</ele><time>2026-04-18T08:09:33.999Z</time></trkpt><trkpt lat="43.55075785947264" lon="10.724307870041605"><ele>126.0</ele><time>2026-04-18T08:09:34.999Z</time></trkpt><trkpt lat="43.550864223084524" lon="10.724323603206784"><ele>126.0</ele><time>2026-04-18T08:09:35.999Z</time></trkpt><trkpt lat="43.55097117299315" lon="10.724353714740932"><ele>126.0</ele><time>2026-04-18T08:09:36.999Z</time></trkpt><trkpt lat="43.55107578764244" lon="10.724386492129408"><ele>121.4</ele><time>2026-04-18T08:09:37.999Z</time></trkpt><trkpt lat="43.55117344361398" lon="10.724415775344648"><ele>116.8</ele><time>2026-04-18T08:09:38.999Z</time></trkpt><trkpt lat="43.551266750046025" lon="10.724444345014136"><ele>112.2</ele><time>2026-04-18T08:09:39.999Z</time></trkpt><trkpt lat="43.55135681328853" lon="10.72447492318516"><ele>107.60000000000001</ele><time>2026-04-18T08:09:40.999Z</time></trkpt><trkpt lat="43.55144288166245" lon="10.724506609361155"><ele>103.0</ele><time>2026-04-18T08:09:41.999Z</time></trkpt><trkpt lat="43.551523311154426" lon="10.724537684854116"><ele>102.66666666666667</ele><time>2026-04-18T08:09:42.999Z</time></trkpt><trkpt lat="43.55160731761777" lon="10.724570205045213"><ele>102.33333333333334</ele><time>2026-04-18T08:09:43.999Z</time></trkpt><trkpt lat="43.55169057668644" lon="10.724600089348357"><ele>102.0</ele><time>2026-04-18T08:09:44.999Z</time></trkpt><trkpt lat="43.55177667165534" lon="10.724620775853419"><ele>101.66666666666666</ele><time>2026-04-18T08:09:45.999Z</time></trkpt><trkpt lat="43.551866908749126" lon="10.724631638623187"><ele>101.33333333333333</ele><time>2026-04-18T08:09:46.999Z</time></trkpt><trkpt lat="43.55196147657335" lon="10.724635122919357"><ele>101.0</ele><time>2026-04-18T08:09:47.999Z</time></trkpt><trkpt lat="43.552059535131136" lon="10.724625827980564"><ele>99.8</ele><time>2026-04-18T08:09:48.999Z</time></trkpt><trkpt lat="43.552159388962735" lon="10.724608392548157"><ele>98.6</ele><time>2026-04-18T08:09:49.999Z</time></trkpt><trkpt lat="43.55226114147868" lon="10.724589745150872"><ele>97.4</ele><time>2026-04-18T08:09:50.999Z</time></trkpt><trkpt lat="43.55236649784766" lon="10.724574565556289"><ele>96.2</ele><time>2026-04-18T08:09:51.999Z</time></trkpt><trkpt lat="43.55247450073513" lon="10.724575450270509"><ele>95.0</ele><time>2026-04-18T08:09:52.999Z</time></trkpt><trkpt lat="43.55258350369468" lon="10.724589226925035"><ele>95.0</ele><time>2026-04-18T08:09:53.999Z</time></trkpt><trkpt lat="43.552695415040674" lon="10.72460971158729"><ele>95.0</ele><time>2026-04-18T08:09:54.999Z</time></trkpt><trkpt lat="43.552811803567735" lon="10.724632857093757"><ele>95.0</ele><time>2026-04-18T08:09:55.999Z</time></trkpt><trkpt lat="43.552932592509556" lon="10.724658561701984"><ele>95.0</ele><time>2026-04-18T08:09:56.999Z</time></trkpt><trkpt lat="43.553059242446054" lon="10.724686668071588"><ele>92.75</ele><time>2026-04-18T08:09:57.999Z</time></trkpt><trkpt lat="43.55319359565378" lon="10.724718007000703"><ele>90.5</ele><time>2026-04-18T08:09:58.999Z</time></trkpt><trkpt lat="43.553333814619215" lon="10.724752399062796"><ele>88.25</ele><time>2026-04-18T08:09:59.999Z</time></trkpt><trkpt lat="43.55347608008316" lon="10.724787911284649"><ele>86.0</ele><time>2026-04-18T08:10:00.999Z</time></trkpt><trkpt lat="43.55361800366313" lon="10.724819325723692"><ele>84.75</ele><time>2026-04-18T08:10:01.999Z</time></trkpt><trkpt lat="43.55376213042243" lon="10.724850822043646"><ele>83.5</ele><time>2026-04-18T08:10:02.999Z</time></trkpt><trkpt lat="43.55390797680703" lon="10.724879873409225"><ele>82.25</ele><time>2026-04-18T08:10:03.999Z</time></trkpt><trkpt lat="43.5540588070015" lon="10.724909724562018"><ele>81.0</ele><time>2026-04-18T08:10:04.999Z</time></trkpt><trkpt lat="43.554208719924276" lon="10.72492778087974"><ele>81.0</ele><time>2026-04-18T08:10:05.999Z</time></trkpt><trkpt lat="43.55434953987278" lon="10.724935628915748"><ele>81.0</ele><time>2026-04-18T08:10:06.999Z</time></trkpt><trkpt lat="43.55447856902357" lon="10.724934428915237"><ele>81.0</ele><time>2026-04-18T08:10:07.999Z</time></trkpt><trkpt lat="43.55460015761909" lon="10.724927742370673"><ele>81.0</ele><time>2026-04-18T08:10:08.999Z</time></trkpt><trkpt lat="43.55471389860453" lon="10.724921813516293"><ele>79.2</ele><time>2026-04-18T08:10:09.999Z</time></trkpt><trkpt lat="43.55482308614741" lon="10.72491677081881"><ele>77.39999999999999</ele><time>2026-04-18T08:10:10.999Z</time></trkpt><trkpt lat="43.55493178700677" lon="10.72491391167874"><ele>75.6</ele><time>2026-04-18T08:10:11.999Z</time></trkpt><trkpt lat="43.55504153090132" lon="10.724910938453881"><ele>73.8</ele><time>2026-04-18T08:10:12.999Z</time></trkpt><trkpt lat="43.555152387654914" lon="10.724909269217243"><ele>72.0</ele><time>2026-04-18T08:10:13.999Z</time></trkpt><trkpt lat="43.555265129392644" lon="10.724908411777553"><ele>70.75</ele><time>2026-04-18T08:10:14.999Z</time></trkpt><trkpt lat="43.55538153376068" lon="10.724908929719806"><ele>69.5</ele><time>2026-04-18T08:10:15.999Z</time></trkpt><trkpt lat="43.55549971376159" lon="10.724912268799741"><ele>68.25</ele><time>2026-04-18T08:10:16.998Z</time></trkpt><trkpt lat="43.55562123686989" lon="10.724913737914946"><ele>67.0</ele><time>2026-04-18T08:10:17.998Z</time></trkpt><trkpt lat="43.555745242193346" lon="10.724918409297326"><ele>67.0</ele><time>2026-04-18T08:10:18.998Z</time></trkpt><trkpt lat="43.55587009960342" lon="10.724934016637192"><ele>67.0</ele><time>2026-04-18T08:10:19.998Z</time></trkpt><trkpt lat="43.55600791214888" lon="10.724967163075812"><ele>67.0</ele><time>2026-04-18T08:10:20.998Z</time></trkpt><trkpt lat="43.556150388609886" lon="10.725012095693947"><ele>67.0</ele><time>2026-04-18T08:10:21.998Z</time></trkpt><trkpt lat="43.556291604520325" lon="10.725065410859981"><ele>66.5</ele><time>2026-04-18T08:10:22.998Z</time></trkpt><trkpt lat="43.55643270778304" lon="10.725117785453916"><ele>66.0</ele><time>2026-04-18T08:10:23.998Z</time></trkpt><trkpt lat="43.55656874730021" lon="10.725168549979356"><ele>65.5</ele><time>2026-04-18T08:10:24.998Z</time></trkpt><trkpt lat="43.5567019597979" lon="10.725218096228836"><ele>65.0</ele><time>2026-04-18T08:10:25.998Z</time></trkpt><trkpt lat="43.55683344738526" lon="10.725266235844364"><ele>61.75</ele><time>2026-04-18T08:10:26.998Z</time></trkpt><trkpt lat="43.556960665081256" lon="10.725316374918254"><ele>58.5</ele><time>2026-04-18T08:10:27.998Z</time></trkpt><trkpt lat="43.55707935854158" lon="10.725378065936924"><ele>55.25</ele><time>2026-04-18T08:10:28.998Z</time></trkpt><trkpt lat="43.55718981067946" lon="10.725451664731402"><ele>52.0</ele><time>2026-04-18T08:10:29.998Z</time></trkpt><trkpt lat="43.55728999311591" lon="10.725543980488926"><ele>51.5</ele><time>2026-04-18T08:10:30.998Z</time></trkpt><trkpt lat="43.55738285139478" lon="10.725648779779688"><ele>51.0</ele><time>2026-04-18T08:10:31.998Z</time></trkpt><trkpt lat="43.55747048000572" lon="10.725765951679401"><ele>50.5</ele><time>2026-04-18T08:10:32.998Z</time></trkpt><trkpt lat="43.55755421848213" lon="10.7258890474108"><ele>50.0</ele><time>2026-04-18T08:10:33.998Z</time></trkpt><trkpt lat="43.557632796797314" lon="10.726013340308004"><ele>49.5</ele><time>2026-04-18T08:10:34.998Z</time></trkpt><trkpt lat="43.55771168107847" lon="10.72614249003104"><ele>49.0</ele><time>2026-04-18T08:10:35.998Z</time></trkpt><trkpt lat="43.55779304100975" lon="10.726272646325471"><ele>48.5</ele><time>2026-04-18T08:10:36.998Z</time></trkpt><trkpt lat="43.557874613181454" lon="10.726400638523321"><ele>48.0</ele><time>2026-04-18T08:10:37.998Z</time></trkpt><trkpt lat="43.55795411121591" lon="10.726529019834285"><ele>47.75</ele><time>2026-04-18T08:10:38.998Z</time></trkpt><trkpt lat="43.55803313960922" lon="10.726660069290478"><ele>47.5</ele><time>2026-04-18T08:10:39.998Z</time></trkpt><trkpt lat="43.5581145202107" lon="10.72679373118011"><ele>47.25</ele><time>2026-04-18T08:10:40.998Z</time></trkpt><trkpt lat="43.55819933244818" lon="10.726930256386545"><ele>47.0</ele><time>2026-04-18T08:10:41.998Z</time></trkpt><trkpt lat="43.55828674695755" lon="10.72706968971035"><ele>47.0</ele><time>2026-04-18T08:10:43Z</time></trkpt><trkpt lat="43.5583748633307" lon="10.727211779285565"><ele>47.0</ele><time>2026-04-18T08:10:44Z</time></trkpt><trkpt lat="43.55846107655971" lon="10.72735157670829"><ele>47.0</ele><time>2026-04-18T08:10:45Z</time></trkpt><trkpt lat="43.55854961739557" lon="10.727488677045875"><ele>47.0</ele><time>2026-04-18T08:10:46Z</time></trkpt><trkpt lat="43.55863693811579" lon="10.727623276946613"><ele>47.0</ele><time>2026-04-18T08:10:47Z</time></trkpt><trkpt lat="43.55872400654604" lon="10.727761422769392"><ele>47.0</ele><time>2026-04-18T08:10:48Z</time></trkpt><trkpt lat="43.55880910102703" lon="10.727899482511681"><ele>47.0</ele><time>2026-04-18T08:10:49Z</time></trkpt><trkpt lat="43.55889220269343" lon="10.728036541752804"><ele>47.0</ele><time>2026-04-18T08:10:50Z</time></trkpt><trkpt lat="43.55897529588777" lon="10.728172419765103"><ele>47.0</ele><time>2026-04-18T08:10:51Z</time></trkpt><trkpt lat="43.559059231147515" lon="10.728305816360356"><ele>47.0</ele><time>2026-04-18T08:10:52Z</time></trkpt><trkpt lat="43.55914084396763" lon="10.728434521002614"><ele>47.0</ele><time>2026-04-18T08:10:53Z</time></trkpt><trkpt lat="43.55921950376923" lon="10.728560801335297"><ele>47.0</ele><time>2026-04-18T08:10:54Z</time></trkpt><trkpt lat="43.559296714201736" lon="10.728682968553027"><ele>47.5</ele><time>2026-04-18T08:10:55Z</time></trkpt><trkpt lat="43.559373099954094" lon="10.728800908203183"><ele>48.0</ele><time>2026-04-18T08:10:56Z</time></trkpt><trkpt lat="43.559449410902275" lon="10.728919100226172"><ele>48.5</ele><time>2026-04-18T08:10:57Z</time></trkpt><trkpt lat="43.55952479469657" lon="10.729037800873636"><ele>49.0</ele><time>2026-04-18T08:10:58Z</time></trkpt><trkpt lat="43.559600367157394" lon="10.729156029930614"><ele>48.0</ele><time>2026-04-18T08:10:59Z</time></trkpt><trkpt lat="43.55967323670185" lon="10.729277821645544"><ele>47.0</ele><time>2026-04-18T08:11:00Z</time></trkpt><trkpt lat="43.55974584726943" lon="10.729400049179235"><ele>46.0</ele><time>2026-04-18T08:11:01Z</time></trkpt><trkpt lat="43.5598183596944" lon="10.729518674433333"><ele>45.0</ele><time>2026-04-18T08:11:02Z</time></trkpt><trkpt lat="43.559889866929794" lon="10.72963347670019"><ele>45.0</ele><time>2026-04-18T08:11:03Z</time></trkpt><trkpt lat="43.55995814395201" lon="10.729744980830457"><ele>45.0</ele><time>2026-04-18T08:11:04Z</time></trkpt><trkpt lat="43.56002439784102" lon="10.72984706398681"><ele>45.0</ele><time>2026-04-18T08:11:05Z</time></trkpt><trkpt lat="43.56008826362804" lon="10.729946831933441"><ele>45.0</ele><time>2026-04-18T08:11:06Z</time></trkpt><trkpt lat="43.56014944257344" lon="10.730042313796693"><ele>45.0</ele><time>2026-04-18T08:11:07Z</time></trkpt><trkpt lat="43.56020802755223" lon="10.73013379540156"><ele>45.0</ele><time>2026-04-18T08:11:08Z</time></trkpt><trkpt lat="43.56026454103887" lon="10.73022235908056"><ele>45.0</ele><time>2026-04-18T08:11:09Z</time></trkpt><trkpt lat="43.56031937106508" lon="10.730308817043"><ele>45.0</ele><time>2026-04-18T08:11:10Z</time></trkpt><trkpt lat="43.56037578157446" lon="10.730397793798115"><ele>45.0</ele><time>2026-04-18T08:11:11Z</time></trkpt><trkpt lat="43.56043460804887" lon="10.730492428942132"><ele>45.0</ele><time>2026-04-18T08:11:12Z</time></trkpt><trkpt lat="43.56049483187241" lon="10.730587269358622"><ele>45.0</ele><time>2026-04-18T08:11:13Z</time></trkpt><trkpt lat="43.56055466491023" lon="10.73068283262528"><ele>45.0</ele><time>2026-04-18T08:11:14Z</time></trkpt><trkpt lat="43.56061454129597" lon="10.730781597927686"><ele>45.0</ele><time>2026-04-18T08:11:15Z</time></trkpt><trkpt lat="43.56067371934222" lon="10.730880234063495"><ele>45.0</ele><time>2026-04-18T08:11:16Z</time></trkpt><trkpt lat="43.56073677910395" lon="10.73098246800974"><ele>45.0</ele><time>2026-04-18T08:11:17Z</time></trkpt><trkpt lat="43.560802560598596" lon="10.731087399352216"><ele>45.0</ele><time>2026-04-18T08:11:18Z</time></trkpt><trkpt lat="43.56086642622659" lon="10.731188721731518"><ele>45.4</ele><time>2026-04-18T08:11:19Z</time></trkpt><trkpt lat="43.56093055682408" lon="10.731286270221016"><ele>45.8</ele><time>2026-04-18T08:11:20Z</time></trkpt><trkpt lat="43.56099237751252" lon="10.731379223333295"><ele>46.2</ele><time>2026-04-18T08:11:21Z</time></trkpt><trkpt lat="43.56105279385031" lon="10.731475984685863"><ele>46.6</ele><time>2026-04-18T08:11:22Z</time></trkpt><trkpt lat="43.56111321394527" lon="10.731572446934567"><ele>47.0</ele><time>2026-04-18T08:11:23Z</time></trkpt><trkpt lat="43.56117527115263" lon="10.731670314901896"><ele>46.6</ele><time>2026-04-18T08:11:24Z</time></trkpt><trkpt lat="43.56123792256912" lon="10.731769497214065"><ele>46.2</ele><time>2026-04-18T08:11:25Z</time></trkpt><trkpt lat="43.56130436479963" lon="10.731873402079577"><ele>45.8</ele><time>2026-04-18T08:11:26Z</time></trkpt><trkpt lat="43.56137469329341" lon="10.731981285314593"><ele>45.4</ele><time>2026-04-18T08:11:27Z</time></trkpt><trkpt lat="43.561445051678" lon="10.732092383212668"><ele>45.0</ele><time>2026-04-18T08:11:28Z</time></trkpt><trkpt lat="43.561513912099116" lon="10.732201978523987"><ele>45.0</ele><time>2026-04-18T08:11:29Z</time></trkpt><trkpt lat="43.56158187877957" lon="10.732310872991897"><ele>45.0</ele><time>2026-04-18T08:11:30Z</time></trkpt><trkpt lat="43.56165047709253" lon="10.732420964470888"><ele>45.0</ele><time>2026-04-18T08:11:31Z</time></trkpt><trkpt lat="43.56171950295386" lon="10.732533799502777"><ele>45.0</ele><time>2026-04-18T08:11:32Z</time></trkpt><trkpt lat="43.56179069482039" lon="10.732649141762362"><ele>45.0</ele><time>2026-04-18T08:11:32.999Z</time></trkpt><trkpt lat="43.56186351640624" lon="10.732764413442489"><ele>45.2</ele><time>2026-04-18T08:11:33.999Z</time></trkpt><trkpt lat="43.56193362607387" lon="10.73287812189138"><ele>45.4</ele><time>2026-04-18T08:11:34.999Z</time></trkpt><trkpt lat="43.562002669079924" lon="10.732989837347716"><ele>45.599999999999994</ele><time>2026-04-18T08:11:35.999Z</time></trkpt><trkpt lat="43.562071890402144" lon="10.733098986628667"><ele>45.8</ele><time>2026-04-18T08:11:36.999Z</time></trkpt><trkpt lat="43.5621408479469" lon="10.73320835993781"><ele>46.0</ele><time>2026-04-18T08:11:37.999Z</time></trkpt><trkpt lat="43.56220777649835" lon="10.733314635568215"><ele>46.16666666666667</ele><time>2026-04-18T08:11:38.999Z</time></trkpt><trkpt lat="43.562272776346205" lon="10.73341832567749"><ele>46.333333333333336</ele><time>2026-04-18T08:11:39.999Z</time></trkpt><trkpt lat="43.56233425038191" lon="10.733517296917505"><ele>46.5</ele><time>2026-04-18T08:11:40.999Z</time></trkpt><trkpt lat="43.56238318629378" lon="10.733591605923316"><ele>46.666666666666664</ele><time>2026-04-18T08:11:41.999Z</time></trkpt><trkpt lat="43.5624572482166" lon="10.733709065971693"><ele>46.83333333333333</ele><time>2026-04-18T08:11:43.999Z</time></trkpt><trkpt lat="43.562501093746135" lon="10.73378028091343"><ele>47.0</ele><time>2026-04-18T08:11:45.999Z</time></trkpt><trkpt lat="43.56254857075589" lon="10.73385849119129"><ele>47.0</ele><time>2026-04-18T08:11:47.999Z</time></trkpt><trkpt lat="43.562615037948454" lon="10.733958738370633"><ele>47.0</ele><time>2026-04-18T08:11:49.999Z</time></trkpt><trkpt lat="43.56265659278561" lon="10.734024951762171"><ele>47.0</ele><time>2026-04-18T08:11:50.999Z</time></trkpt><trkpt lat="43.562703405702074" lon="10.734097327436396"><ele>47.0</ele><time>2026-04-18T08:11:51.999Z</time></trkpt><trkpt lat="43.562758461015505" lon="10.734183836360149"><ele>47.0</ele><time>2026-04-18T08:11:52.999Z</time></trkpt><trkpt lat="43.56282128874942" lon="10.734279321023577"><ele>47.0</ele><time>2026-04-18T08:11:53.999Z</time></trkpt><trkpt lat="43.56288569036508" lon="10.734387474701634"><ele>47.25</ele><time>2026-04-18T08:11:54.999Z</time></trkpt><trkpt lat="43.562954547722505" lon="10.73450577486775"><ele>47.5</ele><time>2026-04-18T08:11:55.999Z</time></trkpt><trkpt lat="43.56302357390771" lon="10.73463177869454"><ele>47.75</ele><time>2026-04-18T08:11:56.999Z</time></trkpt><trkpt lat="43.56309154545253" lon="10.734771372680926"><ele>48.0</ele><time>2026-04-18T08:11:57.999Z</time></trkpt><trkpt lat="43.56315804877826" lon="10.734922488238476"><ele>48.0</ele><time>2026-04-18T08:11:58.999Z</time></trkpt><trkpt lat="43.56322466625781" lon="10.735085025708273"><ele>48.0</ele><time>2026-04-18T08:11:59.999Z</time></trkpt><trkpt lat="43.56329396366763" lon="10.735253538808426"><ele>48.0</ele><time>2026-04-18T08:12:00.999Z</time></trkpt><trkpt lat="43.56336643429588" lon="10.735425550414112"><ele>48.0</ele><time>2026-04-18T08:12:01.999Z</time></trkpt><trkpt lat="43.56344118867418" lon="10.735604326427586"><ele>48.0</ele><time>2026-04-18T08:12:02.999Z</time></trkpt><trkpt lat="43.56352090905483" lon="10.73578966755851"><ele>48.0</ele><time>2026-04-18T08:12:03.999Z</time></trkpt><trkpt lat="43.56360210806381" lon="10.73598157219326"><ele>48.0</ele><time>2026-04-18T08:12:04.999Z</time></trkpt><trkpt lat="43.563685222592845" lon="10.736180012728868"><ele>48.0</ele><time>2026-04-18T08:12:05.999Z</time></trkpt><trkpt lat="43.56376898333045" lon="10.736379961238097"><ele>48.0</ele><time>2026-04-18T08:12:06.999Z</time></trkpt><trkpt lat="43.56385499866392" lon="10.736580461508538"><ele>48.0</ele><time>2026-04-18T08:12:07.999Z</time></trkpt><trkpt lat="43.563940419426665" lon="10.736785973449894"><ele>48.0</ele><time>2026-04-18T08:12:08.999Z</time></trkpt><trkpt lat="43.564026222148655" lon="10.736992239894816"><ele>48.0</ele><time>2026-04-18T08:12:09.999Z</time></trkpt><trkpt lat="43.564111600429484" lon="10.737197572966089"><ele>48.0</ele><time>2026-04-18T08:12:10.999Z</time></trkpt><trkpt lat="43.56419815969875" lon="10.737402946522604"><ele>48.0</ele><time>2026-04-18T08:12:11.999Z</time></trkpt><trkpt lat="43.564285436361786" lon="10.737608697197588"><ele>48.0</ele><time>2026-04-18T08:12:12.999Z</time></trkpt><trkpt lat="43.564372004632986" lon="10.737811892524224"><ele>48.0</ele><time>2026-04-18T08:12:13.999Z</time></trkpt><trkpt lat="43.56445474246977" lon="10.73800968857357"><ele>48.33333333333333</ele><time>2026-04-18T08:12:14.999Z</time></trkpt><trkpt lat="43.564535638547156" lon="10.738201054879559"><ele>48.666666666666664</ele><time>2026-04-18T08:12:15.999Z</time></trkpt><trkpt lat="43.56461825800519" lon="10.738385297154347"><ele>49.0</ele><time>2026-04-18T08:12:16.999Z</time></trkpt><trkpt lat="43.56469834784645" lon="10.738556348861765"><ele>49.5</ele><time>2026-04-18T08:12:17.999Z</time></trkpt><trkpt lat="43.564781301099664" lon="10.738712052469026"><ele>50.0</ele><time>2026-04-18T08:12:18.999Z</time></trkpt><trkpt lat="43.56486638741361" lon="10.738843747442068"><ele>50.5</ele><time>2026-04-18T08:12:19.999Z</time></trkpt><trkpt lat="43.564943838835596" lon="10.738960840407833"><ele>51.0</ele><time>2026-04-18T08:12:20.999Z</time></trkpt><trkpt lat="43.56500482995578" lon="10.739066638333796"><ele>51.0</ele><time>2026-04-18T08:12:21.999Z</time></trkpt><trkpt lat="43.56505624684803" lon="10.739148378458713"><ele>51.0</ele><time>2026-04-18T08:12:22.999Z</time></trkpt><trkpt lat="43.56505621134849" lon="10.739248034552745"><ele>51.0</ele><time>2026-04-18T08:12:23.999Z</time></trkpt><trkpt lat="43.565046097515314" lon="10.739391999514869"><ele>51.0</ele><time>2026-04-18T08:12:25.999Z</time></trkpt><trkpt lat="43.56502050001936" lon="10.739477619856405"><ele>51.0</ele><time>2026-04-18T08:12:26.999Z</time></trkpt><trkpt lat="43.564996409100864" lon="10.739580083201469"><ele>51.0</ele><time>2026-04-18T08:12:27.998Z</time></trkpt><trkpt lat="43.564920657539744" lon="10.739673625658664"><ele>51.5</ele><time>2026-04-18T08:12:28.998Z</time></trkpt><trkpt lat="43.564856264656015" lon="10.739790893530284"><ele>52.0</ele><time>2026-04-18T08:12:29.998Z</time></trkpt><trkpt lat="43.564781934055446" lon="10.739921166527573"><ele>52.5</ele><time>2026-04-18T08:12:30.998Z</time></trkpt><trkpt lat="43.56470014749884" lon="10.740064457497745"><ele>53.0</ele><time>2026-04-18T08:12:31.998Z</time></trkpt><trkpt lat="43.5646156643564" lon="10.74021553424741"><ele>52.333333333333336</ele><time>2026-04-18T08:12:32.998Z</time></trkpt><trkpt lat="43.56452743835826" lon="10.740376054344352"><ele>51.66666666666667</ele><time>2026-04-18T08:12:33.998Z</time></trkpt><trkpt lat="43.5644338603445" lon="10.740544210977196"><ele>51.0</ele><time>2026-04-18T08:12:34.998Z</time></trkpt><trkpt lat="43.5643362926697" lon="10.740716050265766"><ele>51.0</ele><time>2026-04-18T08:12:35.998Z</time></trkpt><trkpt lat="43.564236256332244" lon="10.740893259126864"><ele>51.0</ele><time>2026-04-18T08:12:36.998Z</time></trkpt><trkpt lat="43.564135760881555" lon="10.741078420166168"><ele>51.0</ele><time>2026-04-18T08:12:37.998Z</time></trkpt><trkpt lat="43.56403396598216" lon="10.741269830615074"><ele>53.0</ele><time>2026-04-18T08:12:38.998Z</time></trkpt><trkpt lat="43.56392821911748" lon="10.741459875367209"><ele>55.0</ele><time>2026-04-18T08:12:39.998Z</time></trkpt><trkpt lat="43.563818500202615" lon="10.74164947021656"><ele>57.0</ele><time>2026-04-18T08:12:40.998Z</time></trkpt><trkpt lat="43.56370552497544" lon="10.741844368211853"><ele>56.33333333333333</ele><time>2026-04-18T08:12:41.998Z</time></trkpt><trkpt lat="43.5635904113518" lon="10.7420439666497"><ele>55.666666666666664</ele><time>2026-04-18T08:12:42.998Z</time></trkpt><trkpt lat="43.563473575155506" lon="10.742247840045897"><ele>55.0</ele><time>2026-04-18T08:12:43.998Z</time></trkpt><trkpt lat="43.56335538457924" lon="10.742453961549161"><ele>55.0</ele><time>2026-04-18T08:12:44.998Z</time></trkpt><trkpt lat="43.56323263924787" lon="10.742666261913373"><ele>55.0</ele><time>2026-04-18T08:12:45.998Z</time></trkpt><trkpt lat="43.56310956409227" lon="10.742880710773573"><ele>55.0</ele><time>2026-04-18T08:12:46.998Z</time></trkpt><trkpt lat="43.56298373066398" lon="10.743099678698501"><ele>55.0</ele><time>2026-04-18T08:12:47.998Z</time></trkpt><trkpt lat="43.56286085341862" lon="10.743317861085647"><ele>55.0</ele><time>2026-04-18T08:12:49Z</time></trkpt><trkpt lat="43.56273870637663" lon="10.74353210852677"><ele>55.0</ele><time>2026-04-18T08:12:50Z</time></trkpt><trkpt lat="43.562622027504204" lon="10.743744354055343"><ele>55.0</ele><time>2026-04-18T08:12:51Z</time></trkpt><trkpt lat="43.56251440154019" lon="10.743957081078573"><ele>55.0</ele><time>2026-04-18T08:12:52Z</time></trkpt><trkpt lat="43.56242333692645" lon="10.74417510408035"><ele>55.0</ele><time>2026-04-18T08:12:53Z</time></trkpt><trkpt lat="43.56234873051047" lon="10.744398262777691"><ele>56.0</ele><time>2026-04-18T08:12:54Z</time></trkpt><trkpt lat="43.56228692688035" lon="10.744620684292473"><ele>57.0</ele><time>2026-04-18T08:12:55Z</time></trkpt><trkpt lat="43.56223809549271" lon="10.74484502649899"><ele>58.0</ele><time>2026-04-18T08:12:56Z</time></trkpt><trkpt lat="43.5621987991783" lon="10.74507046154667"><ele>58.0</ele><time>2026-04-18T08:12:57Z</time></trkpt><trkpt lat="43.562170156941335" lon="10.74529843198663"><ele>58.0</ele><time>2026-04-18T08:12:58Z</time></trkpt><trkpt lat="43.562150475377514" lon="10.745533149558499"><ele>58.0</ele><time>2026-04-18T08:12:59Z</time></trkpt><trkpt lat="43.562137969881434" lon="10.745773224813991"><ele>58.0</ele><time>2026-04-18T08:13:00Z</time></trkpt><trkpt lat="43.56213305276982" lon="10.746015987605325"><ele>58.0</ele><time>2026-04-18T08:13:01Z</time></trkpt><trkpt lat="43.56213749334548" lon="10.746263972583973"><ele>58.0</ele><time>2026-04-18T08:13:02Z</time></trkpt><trkpt lat="43.56215366667049" lon="10.74651258724075"><ele>56.666666666666664</ele><time>2026-04-18T08:13:03Z</time></trkpt><trkpt lat="43.562185679418924" lon="10.746754198400138"><ele>55.33333333333333</ele><time>2026-04-18T08:13:04Z</time></trkpt><trkpt lat="43.56223367335135" lon="10.74698090820117"><ele>54.0</ele><time>2026-04-18T08:13:05Z</time></trkpt><trkpt lat="43.562286008162154" lon="10.747178163228739"><ele>53.66666666666667</ele><time>2026-04-18T08:13:06Z</time></trkpt><trkpt lat="43.5623435044847" lon="10.74736999679238"><ele>53.333333333333336</ele><time>2026-04-18T08:13:07Z</time></trkpt><trkpt lat="43.562407140166876" lon="10.747562385102766"><ele>53.0</ele><time>2026-04-18T08:13:08Z</time></trkpt><trkpt lat="43.56247258419135" lon="10.747752826950109"><ele>53.0</ele><time>2026-04-18T08:13:09Z</time></trkpt><trkpt lat="43.56253142996869" lon="10.747930963942274"><ele>53.0</ele><time>2026-04-18T08:13:10Z</time></trkpt><trkpt lat="43.56258539665665" lon="10.748096437987773"><ele>53.0</ele><time>2026-04-18T08:13:11Z</time></trkpt><trkpt lat="43.56263133787751" lon="10.748240115432278"><ele>53.0</ele><time>2026-04-18T08:13:12Z</time></trkpt><trkpt lat="43.562669585834875" lon="10.748355464709764"><ele>53.00000000000001</ele><time>2026-04-18T08:13:13Z</time></trkpt><trkpt lat="43.56270267316774" lon="10.748452336186205"><ele>53.0</ele><time>2026-04-18T08:13:14Z</time></trkpt><trkpt lat="43.5627262449374" lon="10.748533775945338"><ele>53.0</ele><time>2026-04-18T08:13:15Z</time></trkpt><trkpt lat="43.562728856674234" lon="10.748638704814475"><ele>53.0</ele><time>2026-04-18T08:13:17Z</time></trkpt><trkpt lat="43.56270230118245" lon="10.74873058669912"><ele>53.00000000000001</ele><time>2026-04-18T08:13:20Z</time></trkpt><trkpt lat="43.56266374527909" lon="10.748803982042443"><ele>53.0</ele><time>2026-04-18T08:13:22Z</time></trkpt><trkpt lat="43.56257500094804" lon="10.748890691744965"><ele>52.833333333333336</ele><time>2026-04-18T08:13:24Z</time></trkpt><trkpt lat="43.5625248694016" lon="10.748953192796748"><ele>52.66666666666667</ele><time>2026-04-18T08:13:25Z</time></trkpt><trkpt lat="43.56243691218904" lon="10.748924324574501"><ele>52.5</ele><time>2026-04-18T08:13:26Z</time></trkpt><trkpt lat="43.56235296493686" lon="10.748922575819558"><ele>52.33333333333333</ele><time>2026-04-18T08:13:27Z</time></trkpt><trkpt lat="43.562258419987174" lon="10.748911106293718"><ele>52.166666666666664</ele><time>2026-04-18T08:13:28Z</time></trkpt><trkpt lat="43.562155508630326" lon="10.748889903389193"><ele>52.0</ele><time>2026-04-18T08:13:29Z</time></trkpt><trkpt lat="43.56204037215656" lon="10.748867169580526"><ele>51.5</ele><time>2026-04-18T08:13:29.999Z</time></trkpt><trkpt lat="43.56191662910802" lon="10.748843345971148"><ele>51.0</ele><time>2026-04-18T08:13:30.999Z</time></trkpt><trkpt lat="43.56178842832522" lon="10.74881997334968"><ele>50.5</ele><time>2026-04-18T08:13:31.999Z</time></trkpt><trkpt lat="43.56166191129018" lon="10.748798758241259"><ele>50.0</ele><time>2026-04-18T08:13:32.999Z</time></trkpt><trkpt lat="43.561536517378784" lon="10.748781821854193"><ele>50.0</ele><time>2026-04-18T08:13:33.999Z</time></trkpt><trkpt lat="43.56141413702253" lon="10.748772469357348"><ele>50.0</ele><time>2026-04-18T08:13:34.999Z</time></trkpt><trkpt lat="43.56129165667371" lon="10.748779773539884"><ele>50.0</ele><time>2026-04-18T08:13:35.999Z</time></trkpt><trkpt lat="43.56116982200595" lon="10.748802261326393"><ele>50.0</ele><time>2026-04-18T08:13:36.999Z</time></trkpt><trkpt lat="43.56105432776213" lon="10.748835241942004"><ele>50.5</ele><time>2026-04-18T08:13:37.999Z</time></trkpt><trkpt lat="43.56093209155603" lon="10.748885412026729"><ele>51.0</ele><time>2026-04-18T08:13:38.999Z</time></trkpt><trkpt lat="43.56081696811557" lon="10.748918317741355"><ele>51.5</ele><time>2026-04-18T08:13:39.999Z</time></trkpt><trkpt lat="43.560696541350126" lon="10.748950411119546"><ele>52.0</ele><time>2026-04-18T08:13:40.999Z</time></trkpt><trkpt lat="43.56057653871117" lon="10.748976913122089"><ele>52.0</ele><time>2026-04-18T08:13:41.999Z</time></trkpt><trkpt lat="43.56045935084537" lon="10.749004345620863"><ele>52.0</ele><time>2026-04-18T08:13:42.999Z</time></trkpt><trkpt lat="43.56034620380547" lon="10.749032548660182"><ele>52.0</ele><time>2026-04-18T08:13:43.999Z</time></trkpt><trkpt lat="43.56023257239037" lon="10.749064050607714"><ele>52.0</ele><time>2026-04-18T08:13:44.999Z</time></trkpt><trkpt lat="43.560113792245986" lon="10.749102110518038"><ele>51.75</ele><time>2026-04-18T08:13:45.999Z</time></trkpt><trkpt lat="43.55999423847621" lon="10.749136600252394"><ele>51.5</ele><time>2026-04-18T08:13:46.999Z</time></trkpt><trkpt lat="43.55987644854914" lon="10.749176278034586"><ele>51.25</ele><time>2026-04-18T08:13:47.999Z</time></trkpt><trkpt lat="43.559762779135355" lon="10.749224596831715"><ele>51.0</ele><time>2026-04-18T08:13:48.999Z</time></trkpt><trkpt lat="43.559658147998476" lon="10.749296956552264"><ele>51.0</ele><time>2026-04-18T08:13:49.999Z</time></trkpt><trkpt lat="43.55956430202209" lon="10.74939990432203"><ele>51.0</ele><time>2026-04-18T08:13:50.999Z</time></trkpt><trkpt lat="43.55948146116714" lon="10.749518988380599"><ele>51.0</ele><time>2026-04-18T08:13:51.999Z</time></trkpt><trkpt lat="43.55940761363573" lon="10.749635508820969"><ele>51.0</ele><time>2026-04-18T08:13:52.999Z</time></trkpt><trkpt lat="43.55934597667654" lon="10.749733742769669"><ele>51.0</ele><time>2026-04-18T08:13:53.999Z</time></trkpt><trkpt lat="43.559297741155376" lon="10.749808655025735"><ele>51.0</ele><time>2026-04-18T08:13:54.999Z</time></trkpt><trkpt lat="43.55923059464236" lon="10.749913092033374"><ele>51.0</ele><time>2026-04-18T08:13:56.999Z</time></trkpt><trkpt lat="43.55918448365079" lon="10.749998932953902"><ele>51.0</ele><time>2026-04-18T08:14:09.999Z</time></trkpt><trkpt lat="43.559219960289106" lon="10.7501407639043"><ele>51.0</ele><time>2026-04-18T08:14:12.999Z</time></trkpt><trkpt lat="43.55929538574395" lon="10.75024725624733"><ele>51.0</ele><time>2026-04-18T08:14:14.999Z</time></trkpt><trkpt lat="43.55936275476836" lon="10.750375552210395"><ele>51.199999999999996</ele><time>2026-04-18T08:14:16.999Z</time></trkpt><trkpt lat="43.55942310121991" lon="10.750481610029782"><ele>51.4</ele><time>2026-04-18T08:14:18.999Z</time></trkpt><trkpt lat="43.55946496116886" lon="10.750552691187375"><ele>51.6</ele><time>2026-04-18T08:14:21.998Z</time></trkpt><trkpt lat="43.55953026165622" lon="10.750647228900757"><ele>51.8</ele><time>2026-04-18T08:14:35.998Z</time></trkpt><trkpt lat="43.55959147518169" lon="10.750735415416836"><ele>52.0</ele><time>2026-04-18T08:14:37.998Z</time></trkpt><trkpt lat="43.559666544717345" lon="10.75083280879277"><ele>51.99999999999999</ele><time>2026-04-18T08:14:39.998Z</time></trkpt><trkpt lat="43.55971335823336" lon="10.75090192115983"><ele>52.0</ele><time>2026-04-18T08:14:41.998Z</time></trkpt><trkpt lat="43.55977189615094" lon="10.750956916140817"><ele>52.0</ele><time>2026-04-18T08:15:46.999Z</time></trkpt><trkpt lat="43.559834231153985" lon="10.751011884498913"><ele>52.0</ele><time>2026-04-18T08:15:48.999Z</time></trkpt><trkpt lat="43.55990385164598" lon="10.751079946944754"><ele>51.99999999999999</ele><time>2026-04-18T08:15:50.999Z</time></trkpt><trkpt lat="43.55995817445541" lon="10.751169948905632"><ele>52.0</ele><time>2026-04-18T08:15:52.999Z</time></trkpt><trkpt lat="43.56000198190201" lon="10.75130218214156"><ele>52.71428571428571</ele><time>2026-04-18T08:15:54.999Z</time></trkpt><trkpt lat="43.56002395013116" lon="10.751385381326019"><ele>53.42857142857143</ele><time>2026-04-18T08:15:55.999Z</time></trkpt><trkpt lat="43.56004181837887" lon="10.751473010097461"><ele>54.14285714285714</ele><time>2026-04-18T08:15:56.999Z</time></trkpt><trkpt lat="43.560058847346966" lon="10.751561120956051"><ele>54.857142857142854</ele><time>2026-04-18T08:15:57.999Z</time></trkpt><trkpt lat="43.560075113467946" lon="10.751652751921856"><ele>55.57142857142857</ele><time>2026-04-18T08:15:58.999Z</time></trkpt><trkpt lat="43.56009160080631" lon="10.751745629527099"><ele>56.285714285714285</ele><time>2026-04-18T08:15:59.999Z</time></trkpt><trkpt lat="43.560107790372335" lon="10.751836829110115"><ele>57.0</ele><time>2026-04-18T08:16:00.999Z</time></trkpt><trkpt lat="43.56012381979474" lon="10.75192712661905"><ele>57.42857142857142</ele><time>2026-04-18T08:16:01.999Z</time></trkpt><trkpt lat="43.56013907313867" lon="10.752016740345098"><ele>57.85714285714285</ele><time>2026-04-18T08:16:02.999Z</time></trkpt><trkpt lat="43.56016784815504" lon="10.752102034774957"><ele>58.285714285714285</ele><time>2026-04-18T08:16:03.999Z</time></trkpt><trkpt lat="43.56018062092703" lon="10.752196615483847"><ele>58.71428571428571</ele><time>2026-04-18T08:16:04.999Z</time></trkpt><trkpt lat="43.56019614093943" lon="10.752293619289869"><ele>59.14285714285714</ele><time>2026-04-18T08:16:05.999Z</time></trkpt><trkpt lat="43.56019697034749" lon="10.752394877284685"><ele>59.57142857142857</ele><time>2026-04-18T08:16:06.999Z</time></trkpt><trkpt lat="43.560229253280575" lon="10.752484069062078"><ele>60.0</ele><time>2026-04-18T08:16:07.999Z</time></trkpt><trkpt lat="43.560243813150926" lon="10.752579825944139"><ele>60.0</ele><time>2026-04-18T08:16:08.999Z</time></trkpt><trkpt lat="43.560265019572746" lon="10.752671628099"><ele>60.0</ele><time>2026-04-18T08:16:09.999Z</time></trkpt><trkpt lat="43.5602819953967" lon="10.752768109006878"><ele>60.0</ele><time>2026-04-18T08:16:10.999Z</time></trkpt><trkpt lat="43.56030374517876" lon="10.752863616978292"><ele>60.0</ele><time>2026-04-18T08:16:11.999Z</time></trkpt><trkpt lat="43.56032531071307" lon="10.752955723844128"><ele>60.0</ele><time>2026-04-18T08:16:12.999Z</time></trkpt><trkpt lat="43.560343349376964" lon="10.75304919682305"><ele>60.0</ele><time>2026-04-18T08:16:13.999Z</time></trkpt><trkpt lat="43.5603683438169" lon="10.75314081296864"><ele>60.0</ele><time>2026-04-18T08:16:14.999Z</time></trkpt><trkpt lat="43.56037741793875" lon="10.753239046154647"><ele>59.666666666666664</ele><time>2026-04-18T08:16:15.999Z</time></trkpt><trkpt lat="43.560400450224364" lon="10.753329962825832"><ele>59.33333333333333</ele><time>2026-04-18T08:16:16.999Z</time></trkpt><trkpt lat="43.56043884678951" lon="10.753411239097051"><ele>59.0</ele><time>2026-04-18T08:16:17.998Z</time></trkpt><trkpt lat="43.56046100967979" lon="10.75349898480192"><ele>58.666666666666664</ele><time>2026-04-18T08:16:18.998Z</time></trkpt><trkpt lat="43.560483140152655" lon="10.753582660684776"><ele>58.33333333333333</ele><time>2026-04-18T08:16:19.998Z</time></trkpt><trkpt lat="43.560541602981324" lon="10.753725542654022"><ele>58.0</ele><time>2026-04-18T08:16:21.998Z</time></trkpt><trkpt lat="43.5606347614721" lon="10.753842342584248"><ele>57.99999999999999</ele><time>2026-04-18T08:16:23.998Z</time></trkpt><trkpt lat="43.56069916668968" lon="10.75387828033858"><ele>58.0</ele><time>2026-04-18T08:16:24.998Z</time></trkpt><trkpt lat="43.56077117257806" lon="10.75391342843657"><ele>58.0</ele><time>2026-04-18T08:16:25.998Z</time></trkpt><trkpt lat="43.56084849777525" lon="10.753931648154225"><ele>58.0</ele><time>2026-04-18T08:16:26.998Z</time></trkpt><trkpt lat="43.56092389008395" lon="10.75396862749086"><ele>57.99999999999999</ele><time>2026-04-18T08:16:27.998Z</time></trkpt><trkpt lat="43.5609981558945" lon="10.75400494141279"><ele>58.0</ele><time>2026-04-18T08:16:28.998Z</time></trkpt><trkpt lat="43.561065499874644" lon="10.754063393818539"><ele>57.99999999999999</ele><time>2026-04-18T08:16:29.998Z</time></trkpt><trkpt lat="43.561141841988395" lon="10.75411024613828"><ele>58.0</ele><time>2026-04-18T08:16:30.998Z</time></trkpt><trkpt lat="43.56122563053022" lon="10.754139425771344"><ele>58.0</ele><time>2026-04-18T08:16:31.998Z</time></trkpt><trkpt lat="43.5613034221157" lon="10.754189559195472"><ele>58.0</ele><time>2026-04-18T08:16:32.998Z</time></trkpt><trkpt lat="43.56137391740832" lon="10.754258383507834"><ele>57.99999999999999</ele><time>2026-04-18T08:16:33.998Z</time></trkpt><trkpt lat="43.56145519661516" lon="10.754284357227851"><ele>58.0</ele><time>2026-04-18T08:16:34.998Z</time></trkpt><trkpt lat="43.56152099320437" lon="10.754325801295607"><ele>56.8</ele><time>2026-04-18T08:16:35.998Z</time></trkpt><trkpt lat="43.5616216895696" lon="10.754389182574908"><ele>55.599999999999994</ele><time>2026-04-18T08:16:37.998Z</time></trkpt><trkpt lat="43.56169975008329" lon="10.754486116111604"><ele>54.400000000000006</ele><time>2026-04-18T08:16:39.998Z</time></trkpt><trkpt lat="43.561785146713284" lon="10.754583304850861"><ele>53.2</ele><time>2026-04-18T08:16:41.998Z</time></trkpt><trkpt lat="43.56187925596504" lon="10.754665510792734"><ele>52.0</ele><time>2026-04-18T08:16:43.998Z</time></trkpt><trkpt lat="43.56197240571058" lon="10.754765645628426"><ele>52.0</ele><time>2026-04-18T08:16:45.998Z</time></trkpt><trkpt lat="43.56202283790367" lon="10.75482104399658"><ele>52.0</ele><time>2026-04-18T08:16:46.998Z</time></trkpt><trkpt lat="43.562075217056" lon="10.754878954945578"><ele>52.0</ele><time>2026-04-18T08:16:47.998Z</time></trkpt><trkpt lat="43.562127133205216" lon="10.754936785227558"><ele>52.0</ele><time>2026-04-18T08:16:48.998Z</time></trkpt><trkpt lat="43.56217646960804" lon="10.754992255684535"><ele>52.0</ele><time>2026-04-18T08:16:49.998Z</time></trkpt><trkpt lat="43.56225534373446" lon="10.755079738866984"><ele>52.0</ele><time>2026-04-18T08:16:51.998Z</time></trkpt><trkpt lat="43.5623046572202" lon="10.755133997968246"><ele>52.0</ele><time>2026-04-18T08:16:56.998Z</time></trkpt><trkpt lat="43.56235817440755" lon="10.755188102580703"><ele>52.166666666666664</ele><time>2026-04-18T08:17:07Z</time></trkpt><trkpt lat="43.56241614244631" lon="10.755250313486446"><ele>52.33333333333333</ele><time>2026-04-18T08:17:09Z</time></trkpt><trkpt lat="43.562456320352894" lon="10.755323007767243"><ele>52.5</ele><time>2026-04-18T08:17:11Z</time></trkpt><trkpt lat="43.56240022649441" lon="10.755253375804394"><ele>52.66666666666667</ele><time>2026-04-18T08:17:27Z</time></trkpt><trkpt lat="43.56233660096388" lon="10.75518771634429"><ele>52.833333333333336</ele><time>2026-04-18T08:17:28.999Z</time></trkpt><trkpt lat="43.562250397261316" lon="10.755094782174687"><ele>53.0</ele><time>2026-04-18T08:17:30.999Z</time></trkpt><trkpt lat="43.562170373610094" lon="10.755006685983647"><ele>53.00000000000001</ele><time>2026-04-18T08:17:31.999Z</time></trkpt><trkpt lat="43.562117312567196" lon="10.754917659170905"><ele>53.0</ele><time>2026-04-18T08:17:32.999Z</time></trkpt><trkpt lat="43.56205801268327" lon="10.754848855658325"><ele>53.0</ele><time>2026-04-18T08:17:33.999Z</time></trkpt><trkpt lat="43.561995184033634" lon="10.754777877364628"><ele>53.0</ele><time>2026-04-18T08:17:34.999Z</time></trkpt><trkpt lat="43.5619301262928" lon="10.754706408954558"><ele>53.00000000000001</ele><time>2026-04-18T08:17:35.999Z</time></trkpt><trkpt lat="43.56186407991795" lon="10.754634219884844"><ele>53.0</ele><time>2026-04-18T08:17:36.999Z</time></trkpt><trkpt lat="43.56179812098522" lon="10.754558810460024"><ele>52.8</ele><time>2026-04-18T08:17:37.999Z</time></trkpt><trkpt lat="43.561729893546634" lon="10.754475832067651"><ele>52.599999999999994</ele><time>2026-04-18T08:17:38.999Z</time></trkpt><trkpt lat="43.56165355124412" lon="10.75439840386739"><ele>52.400000000000006</ele><time>2026-04-18T08:17:39.999Z</time></trkpt><trkpt lat="43.56156684770988" lon="10.754337167981094"><ele>52.2</ele><time>2026-04-18T08:17:40.999Z</time></trkpt><trkpt lat="43.56147638222176" lon="10.754289497666475"><ele>52.0</ele><time>2026-04-18T08:17:41.999Z</time></trkpt><trkpt lat="43.56139122305348" lon="10.754240745726898"><ele>51.8</ele><time>2026-04-18T08:17:42.999Z</time></trkpt><trkpt lat="43.56130467335407" lon="10.75418561873831"><ele>51.6</ele><time>2026-04-18T08:17:43.999Z</time></trkpt><trkpt lat="43.56121432657276" lon="10.754128077278548"><ele>51.4</ele><time>2026-04-18T08:17:44.999Z</time></trkpt><trkpt lat="43.561127025931974" lon="10.754070190927946"><ele>51.199999999999996</ele><time>2026-04-18T08:17:45.999Z</time></trkpt><trkpt lat="43.561043817156815" lon="10.754016608374478"><ele>51.0</ele><time>2026-04-18T08:17:46.999Z</time></trkpt><trkpt lat="43.56096184519949" lon="10.753974639022726"><ele>52.166666666666664</ele><time>2026-04-18T08:17:47.999Z</time></trkpt><trkpt lat="43.56088158104576" lon="10.753941118473984"><ele>53.33333333333333</ele><time>2026-04-18T08:17:48.999Z</time></trkpt><trkpt lat="43.56080564209345" lon="10.753898511946954"><ele>54.5</ele><time>2026-04-18T08:17:49.999Z</time></trkpt><trkpt lat="43.56072915270263" lon="10.75386258342435"><ele>55.666666666666664</ele><time>2026-04-18T08:17:50.999Z</time></trkpt><trkpt lat="43.56065567267616" lon="10.753820631930369"><ele>56.83333333333333</ele><time>2026-04-18T08:17:51.999Z</time></trkpt><trkpt lat="43.56058914132608" lon="10.753770042550517"><ele>58.0</ele><time>2026-04-18T08:17:52.999Z</time></trkpt><trkpt lat="43.56055384018408" lon="10.753682957874279"><ele>57.99999999999999</ele><time>2026-04-18T08:17:53.999Z</time></trkpt><trkpt lat="43.56051406450786" lon="10.753598481744698"><ele>58.0</ele><time>2026-04-18T08:17:54.999Z</time></trkpt><trkpt lat="43.560484943804795" lon="10.753506113229287"><ele>58.0</ele><time>2026-04-18T08:17:55.999Z</time></trkpt><trkpt lat="43.56044253347719" lon="10.753411618315777"><ele>58.0</ele><time>2026-04-18T08:17:56.999Z</time></trkpt><trkpt lat="43.56042685087466" lon="10.753294972904284"><ele>57.99999999999999</ele><time>2026-04-18T08:17:57.999Z</time></trkpt><trkpt lat="43.560396354994644" lon="10.753174594721209"><ele>58.0</ele><time>2026-04-18T08:17:58.999Z</time></trkpt><trkpt lat="43.56036581761911" lon="10.753052711581956"><ele>58.4</ele><time>2026-04-18T08:17:59.999Z</time></trkpt><trkpt lat="43.56033562331388" lon="10.752923214132169"><ele>58.8</ele><time>2026-04-18T08:18:00.999Z</time></trkpt><trkpt lat="43.56030633628347" lon="10.752786298627901"><ele>59.2</ele><time>2026-04-18T08:18:01.999Z</time></trkpt><trkpt lat="43.56027697336789" lon="10.752642622009908"><ele>59.6</ele><time>2026-04-18T08:18:02.999Z</time></trkpt><trkpt lat="43.56024944666081" lon="10.7524984994763"><ele>60.0</ele><time>2026-04-18T08:18:03.999Z</time></trkpt><trkpt lat="43.56022341601816" lon="10.752348456288688"><ele>60.0</ele><time>2026-04-18T08:18:04.999Z</time></trkpt><trkpt lat="43.56020006562372" lon="10.75219970280832"><ele>60.0</ele><time>2026-04-18T08:18:05.999Z</time></trkpt><trkpt lat="43.56017877946079" lon="10.752050406366296"><ele>60.0</ele><time>2026-04-18T08:18:06.999Z</time></trkpt><trkpt lat="43.56015332836771" lon="10.751900249262986"><ele>60.0</ele><time>2026-04-18T08:18:07.999Z</time></trkpt><trkpt lat="43.56012733159695" lon="10.75175380289213"><ele>60.0</ele><time>2026-04-18T08:18:08.999Z</time></trkpt><trkpt lat="43.56008763295081" lon="10.751626367499794"><ele>59.4</ele><time>2026-04-18T08:18:09.999Z</time></trkpt><trkpt lat="43.56007902318029" lon="10.751485530577824"><ele>58.8</ele><time>2026-04-18T08:18:10.999Z</time></trkpt><trkpt lat="43.56005230255038" lon="10.751356152091063"><ele>58.2</ele><time>2026-04-18T08:18:11.999Z</time></trkpt><trkpt lat="43.56000627361096" lon="10.75124697404317"><ele>57.6</ele><time>2026-04-18T08:18:12.999Z</time></trkpt><trkpt lat="43.559971260571785" lon="10.751140976696076"><ele>57.0</ele><time>2026-04-18T08:18:13.999Z</time></trkpt><trkpt lat="43.559917916264624" lon="10.751052360770007"><ele>56.166666666666664</ele><time>2026-04-18T08:18:14.999Z</time></trkpt><trkpt lat="43.55985095554765" lon="10.750981303425561"><ele>55.33333333333333</ele><time>2026-04-18T08:18:15.999Z</time></trkpt><trkpt lat="43.559780386607734" lon="10.750919055102276"><ele>54.5</ele><time>2026-04-18T08:18:16.998Z</time></trkpt><trkpt lat="43.559716272421674" lon="10.750856671098674"><ele>53.666666666666664</ele><time>2026-04-18T08:18:17.998Z</time></trkpt><trkpt lat="43.559654474891865" lon="10.750788479176764"><ele>52.83333333333333</ele><time>2026-04-18T08:18:18.998Z</time></trkpt><trkpt lat="43.559593719164035" lon="10.750711505586697"><ele>52.0</ele><time>2026-04-18T08:18:19.998Z</time></trkpt><trkpt lat="43.559535450919036" lon="10.750633007174885"><ele>51.83333333333333</ele><time>2026-04-18T08:18:20.998Z</time></trkpt><trkpt lat="43.55947992554818" lon="10.75055187990612"><ele>51.666666666666664</ele><time>2026-04-18T08:18:21.998Z</time></trkpt><trkpt lat="43.559428839944836" lon="10.75046755999894"><ele>51.5</ele><time>2026-04-18T08:18:22.998Z</time></trkpt><trkpt lat="43.559381426976856" lon="10.750382939895129"><ele>51.33333333333333</ele><time>2026-04-18T08:18:23.998Z</time></trkpt><trkpt lat="43.559335502520646" lon="10.750302462953531"><ele>51.166666666666664</ele><time>2026-04-18T08:18:24.998Z</time></trkpt><trkpt lat="43.559296148340046" lon="10.750230704671615"><ele>51.0</ele><time>2026-04-18T08:18:25.998Z</time></trkpt><trkpt lat="43.55923747759195" lon="10.75013128963476"><ele>51.0</ele><time>2026-04-18T08:18:27.998Z</time></trkpt><trkpt lat="43.55921081473933" lon="10.750051199613004"><ele>51.0</ele><time>2026-04-18T08:18:30.998Z</time></trkpt><trkpt lat="43.55911817023209" lon="10.75008116588776"><ele>51.0</ele><time>2026-04-18T08:18:33.998Z</time></trkpt><trkpt lat="43.55905250009438" lon="10.750140954236645"><ele>51.0</ele><time>2026-04-18T08:18:35.998Z</time></trkpt><trkpt lat="43.55898959962277" lon="10.750219614950588"><ele>51.0</ele><time>2026-04-18T08:18:37.998Z</time></trkpt><trkpt lat="43.558922603558585" lon="10.750300315204525"><ele>51.0</ele><time>2026-04-18T08:18:39.998Z</time></trkpt><trkpt lat="43.558854637385004" lon="10.75039546950407"><ele>51.833333333333336</ele><time>2026-04-18T08:18:41.998Z</time></trkpt><trkpt lat="43.55886304874992" lon="10.750536095320994"><ele>52.66666666666667</ele><time>2026-04-18T08:18:42.998Z</time></trkpt><trkpt lat="43.558902751541225" lon="10.75061569109973"><ele>53.5</ele><time>2026-04-18T08:18:43.998Z</time></trkpt><trkpt lat="43.55894698099794" lon="10.750699925883291"><ele>54.333333333333336</ele><time>2026-04-18T08:18:44.998Z</time></trkpt><trkpt lat="43.55899557198543" lon="10.75079176808873"><ele>55.16666666666667</ele><time>2026-04-18T08:18:45.998Z</time></trkpt><trkpt lat="43.559044872435166" lon="10.750891022784975"><ele>56.0</ele><time>2026-04-18T08:18:46.998Z</time></trkpt><trkpt lat="43.55908910089054" lon="10.750987048569478"><ele>57.0</ele><time>2026-04-18T08:18:47.998Z</time></trkpt><trkpt lat="43.55913360615927" lon="10.751084972147078"><ele>57.99999999999999</ele><time>2026-04-18T08:18:48.998Z</time></trkpt><trkpt lat="43.55914894866142" lon="10.751210556835149"><ele>58.99999999999999</ele><time>2026-04-18T08:18:49.998Z</time></trkpt><trkpt lat="43.55916002980272" lon="10.751350912513422"><ele>60.0</ele><time>2026-04-18T08:18:50.998Z</time></trkpt><trkpt lat="43.55917313072387" lon="10.751494227087628"><ele>61.0</ele><time>2026-04-18T08:18:51.998Z</time></trkpt><trkpt lat="43.55917206812723" lon="10.751638200335796"><ele>60.99999999999999</ele><time>2026-04-18T08:18:52.998Z</time></trkpt><trkpt lat="43.559180435332046" lon="10.751768654755654"><ele>61.0</ele><time>2026-04-18T08:18:53.998Z</time></trkpt><trkpt lat="43.55918982531371" lon="10.751888898561111"><ele>61.0</ele><time>2026-04-18T08:18:54.998Z</time></trkpt><trkpt lat="43.55918277309118" lon="10.751997599314771"><ele>61.0</ele><time>2026-04-18T08:18:55.998Z</time></trkpt><trkpt lat="43.55914949654154" lon="10.752101259260705"><ele>60.99999999999999</ele><time>2026-04-18T08:18:56.998Z</time></trkpt><trkpt lat="43.55909889527131" lon="10.752181210161847"><ele>61.0</ele><time>2026-04-18T08:18:57.998Z</time></trkpt><trkpt lat="43.558974576000345" lon="10.75220731154179"><ele>61.83333333333333</ele><time>2026-04-18T08:18:59.998Z</time></trkpt><trkpt lat="43.55891790313545" lon="10.752248172267096"><ele>62.666666666666664</ele><time>2026-04-18T08:19:00.998Z</time></trkpt><trkpt lat="43.558851324286465" lon="10.752291880694399"><ele>63.5</ele><time>2026-04-18T08:19:01.998Z</time></trkpt><trkpt lat="43.55877383124236" lon="10.752331743399091"><ele>64.33333333333333</ele><time>2026-04-18T08:19:02.998Z</time></trkpt><trkpt lat="43.55870827178644" lon="10.752379116446496"><ele>65.16666666666667</ele><time>2026-04-18T08:19:03.998Z</time></trkpt><trkpt lat="43.55865750343572" lon="10.752447420354674"><ele>66.0</ele><time>2026-04-18T08:19:04.998Z</time></trkpt><trkpt lat="43.55861704674791" lon="10.75255165968081"><ele>66.39999999999999</ele><time>2026-04-18T08:19:06Z</time></trkpt><trkpt lat="43.55858046153651" lon="10.752664860422112"><ele>66.8</ele><time>2026-04-18T08:19:07Z</time></trkpt><trkpt lat="43.55855415660572" lon="10.752783886669558"><ele>67.19999999999999</ele><time>2026-04-18T08:19:08Z</time></trkpt><trkpt lat="43.5585350806138" lon="10.752908955613371"><ele>67.6</ele><time>2026-04-18T08:19:09Z</time></trkpt><trkpt lat="43.55852195973566" lon="10.753035763778195"><ele>68.0</ele><time>2026-04-18T08:19:10Z</time></trkpt><trkpt lat="43.55851628927774" lon="10.753165698288473"><ele>69.0</ele><time>2026-04-18T08:19:11Z</time></trkpt><trkpt lat="43.558486921216605" lon="10.753296771287177"><ele>70.0</ele><time>2026-04-18T08:19:12Z</time></trkpt><trkpt lat="43.55848351166966" lon="10.753438459938462"><ele>71.0</ele><time>2026-04-18T08:19:13Z</time></trkpt><trkpt lat="43.55846499171632" lon="10.753580379849772"><ele>72.0</ele><time>2026-04-18T08:19:14Z</time></trkpt><trkpt lat="43.55844864358379" lon="10.75371608954284"><ele>73.0</ele><time>2026-04-18T08:19:15Z</time></trkpt><trkpt lat="43.55842916658888" lon="10.753851860685572"><ele>75.0</ele><time>2026-04-18T08:19:16Z</time></trkpt><trkpt lat="43.55840493734774" lon="10.75398868313423"><ele>77.0</ele><time>2026-04-18T08:19:17Z</time></trkpt><trkpt lat="43.55837495568783" lon="10.754128602515056"><ele>79.0</ele><time>2026-04-18T08:19:18Z</time></trkpt><trkpt lat="43.558345859567766" lon="10.754267975317916"><ele>81.0</ele><time>2026-04-18T08:19:19Z</time></trkpt><trkpt lat="43.55831399581589" lon="10.754408039631896"><ele>83.0</ele><time>2026-04-18T08:19:20Z</time></trkpt><trkpt lat="43.55828426650221" lon="10.754553082620994"><ele>84.4</ele><time>2026-04-18T08:19:21Z</time></trkpt><trkpt lat="43.55825463128515" lon="10.754700531753379"><ele>85.80000000000001</ele><time>2026-04-18T08:19:22Z</time></trkpt><trkpt lat="43.55822490378626" lon="10.754845521440538"><ele>87.2</ele><time>2026-04-18T08:19:23Z</time></trkpt><trkpt lat="43.558197018154395" lon="10.754989891061436"><ele>88.6</ele><time>2026-04-18T08:19:24Z</time></trkpt><trkpt lat="43.55816382157396" lon="10.755131250241819"><ele>90.0</ele><time>2026-04-18T08:19:25Z</time></trkpt><trkpt lat="43.558119894681106" lon="10.755274427661046"><ele>90.0</ele><time>2026-04-18T08:19:26Z</time></trkpt><trkpt lat="43.558062474120334" lon="10.755399387306227"><ele>90.0</ele><time>2026-04-18T08:19:27Z</time></trkpt><trkpt lat="43.55798721644664" lon="10.755510105867726"><ele>90.0</ele><time>2026-04-18T08:19:28Z</time></trkpt><trkpt lat="43.55793870225568" lon="10.75564591346853"><ele>90.0</ele><time>2026-04-18T08:19:28.999Z</time></trkpt><trkpt lat="43.55788302322056" lon="10.755770848843829"><ele>90.0</ele><time>2026-04-18T08:19:29.999Z</time></trkpt><trkpt lat="43.55782061352521" lon="10.755876171355167"><ele>90.0</ele><time>2026-04-18T08:19:30.999Z</time></trkpt><trkpt lat="43.55779624259039" lon="10.755995658995863"><ele>90.0</ele><time>2026-04-18T08:19:31.999Z</time></trkpt><trkpt lat="43.55776098538344" lon="10.75609162443681"><ele>90.0</ele><time>2026-04-18T08:19:32.999Z</time></trkpt><trkpt lat="43.55778925383759" lon="10.756195770404942"><ele>90.0</ele><time>2026-04-18T08:19:33.999Z</time></trkpt><trkpt lat="43.5578224444908" lon="10.756297207446305"><ele>90.0</ele><time>2026-04-18T08:19:34.999Z</time></trkpt><trkpt lat="43.55786495448332" lon="10.756396546133042"><ele>90.0</ele><time>2026-04-18T08:19:35.999Z</time></trkpt><trkpt lat="43.55790934017272" lon="10.75650581395072"><ele>91.6</ele><time>2026-04-18T08:19:36.999Z</time></trkpt><trkpt lat="43.55792717229516" lon="10.75663790928421"><ele>93.2</ele><time>2026-04-18T08:19:37.999Z</time></trkpt><trkpt lat="43.5579640613902" lon="10.756764749395595"><ele>94.80000000000001</ele><time>2026-04-18T08:19:38.999Z</time></trkpt><trkpt lat="43.557975421685114" lon="10.756898582772482"><ele>96.4</ele><time>2026-04-18T08:19:39.999Z</time></trkpt><trkpt lat="43.5579592050997" lon="10.757032227771083"><ele>98.0</ele><time>2026-04-18T08:19:40.999Z</time></trkpt><trkpt lat="43.557949382577995" lon="10.757173025376916"><ele>98.0</ele><time>2026-04-18T08:19:41.999Z</time></trkpt><trkpt lat="43.557929837962625" lon="10.757319811763622"><ele>98.0</ele><time>2026-04-18T08:19:42.999Z</time></trkpt><trkpt lat="43.55790275420218" lon="10.757471464753658"><ele>98.0</ele><time>2026-04-18T08:19:43.999Z</time></trkpt><trkpt lat="43.557892230788205" lon="10.757637895947111"><ele>98.0</ele><time>2026-04-18T08:19:44.999Z</time></trkpt><trkpt lat="43.55784844612757" lon="10.757800014589384"><ele>98.5</ele><time>2026-04-18T08:19:45.999Z</time></trkpt><trkpt lat="43.557818502794426" lon="10.757968740829865"><ele>99.0</ele><time>2026-04-18T08:19:46.999Z</time></trkpt><trkpt lat="43.55778845975107" lon="10.758135680587484"><ele>99.5</ele><time>2026-04-18T08:19:47.999Z</time></trkpt><trkpt lat="43.55775363354171" lon="10.7583001285006"><ele>100.0</ele><time>2026-04-18T08:19:48.999Z</time></trkpt><trkpt lat="43.55770506792837" lon="10.758453451957566"><ele>102.25</ele><time>2026-04-18T08:19:49.999Z</time></trkpt><trkpt lat="43.55764625751112" lon="10.758601437860902"><ele>104.5</ele><time>2026-04-18T08:19:50.999Z</time></trkpt><trkpt lat="43.557596291236095" lon="10.758754218219737"><ele>106.75</ele><time>2026-04-18T08:19:51.999Z</time></trkpt><trkpt lat="43.55752031199121" lon="10.758882598439248"><ele>109.0</ele><time>2026-04-18T08:19:52.999Z</time></trkpt><trkpt lat="43.55744077327665" lon="10.759002947015224"><ele>109.0</ele><time>2026-04-18T08:19:53.999Z</time></trkpt><trkpt lat="43.5573544896302" lon="10.759113794361852"><ele>109.0</ele><time>2026-04-18T08:19:54.999Z</time></trkpt><trkpt lat="43.557269647792026" lon="10.759213911779709"><ele>109.0</ele><time>2026-04-18T08:19:55.999Z</time></trkpt><trkpt lat="43.557192297728314" lon="10.759304090096187"><ele>109.0</ele><time>2026-04-18T08:19:56.999Z</time></trkpt><trkpt lat="43.55712783509656" lon="10.759391821613894"><ele>109.0</ele><time>2026-04-18T08:19:57.999Z</time></trkpt><trkpt lat="43.55708234755514" lon="10.759482926092645"><ele>110.2</ele><time>2026-04-18T08:19:58.999Z</time></trkpt><trkpt lat="43.557045569509874" lon="10.759575929159976"><ele>111.4</ele><time>2026-04-18T08:19:59.999Z</time></trkpt><trkpt lat="43.55706481918112" lon="10.759697701256496"><ele>112.6</ele><time>2026-04-18T08:20:00.999Z</time></trkpt><trkpt lat="43.5570912170388" lon="10.759816055626214"><ele>113.8</ele><time>2026-04-18T08:20:01.999Z</time></trkpt><trkpt lat="43.55710101922789" lon="10.759948276634608"><ele>115.0</ele><time>2026-04-18T08:20:02.999Z</time></trkpt><trkpt lat="43.557127466480935" lon="10.760087846073729"><ele>116.25</ele><time>2026-04-18T08:20:03.999Z</time></trkpt><trkpt lat="43.55715617036836" lon="10.760239324258176"><ele>117.5</ele><time>2026-04-18T08:20:04.999Z</time></trkpt><trkpt lat="43.557186930980116" lon="10.760400085453934"><ele>118.75</ele><time>2026-04-18T08:20:05.999Z</time></trkpt><trkpt lat="43.55722057908815" lon="10.760570535267732"><ele>120.0</ele><time>2026-04-18T08:20:06.999Z</time></trkpt><trkpt lat="43.55725549401159" lon="10.760747402465196"><ele>120.0</ele><time>2026-04-18T08:20:07.999Z</time></trkpt><trkpt lat="43.55729093349089" lon="10.760926926718705"><ele>120.0</ele><time>2026-04-18T08:20:08.999Z</time></trkpt><trkpt lat="43.55732677662328" lon="10.761108496042871"><ele>120.0</ele><time>2026-04-18T08:20:09.999Z</time></trkpt><trkpt lat="43.5573645693487" lon="10.761297457895523"><ele>120.0</ele><time>2026-04-18T08:20:10.999Z</time></trkpt><trkpt lat="43.557402532743154" lon="10.761482470127017"><ele>121.0</ele><time>2026-04-18T08:20:11.999Z</time></trkpt><trkpt lat="43.55744167273524" lon="10.761673216692369"><ele>122.0</ele><time>2026-04-18T08:20:12.999Z</time></trkpt><trkpt lat="43.557480360228524" lon="10.761861757915419"><ele>123.0</ele><time>2026-04-18T08:20:13.999Z</time></trkpt><trkpt lat="43.55751644986221" lon="10.762037638479768"><ele>124.0</ele><time>2026-04-18T08:20:14.999Z</time></trkpt><trkpt lat="43.557551539196275" lon="10.76220864440711"><ele>124.6</ele><time>2026-04-18T08:20:15.999Z</time></trkpt><trkpt lat="43.557584252562854" lon="10.76236807095177"><ele>125.2</ele><time>2026-04-18T08:20:16.999Z</time></trkpt><trkpt lat="43.55760393509355" lon="10.762514353202917"><ele>125.79999999999998</ele><time>2026-04-18T08:20:17.999Z</time></trkpt><trkpt lat="43.55760324477583" lon="10.762660629284602"><ele>126.39999999999999</ele><time>2026-04-18T08:20:18.999Z</time></trkpt><trkpt lat="43.55759698745744" lon="10.762808126906414"><ele>127.0</ele><time>2026-04-18T08:20:19.998Z</time></trkpt><trkpt lat="43.55758639701121" lon="10.762975590556813"><ele>127.83333333333334</ele><time>2026-04-18T08:20:20.998Z</time></trkpt><trkpt lat="43.55757644149554" lon="10.763117651978323"><ele>128.66666666666669</ele><time>2026-04-18T08:20:21.998Z</time></trkpt><trkpt lat="43.55756757001785" lon="10.763244244498372"><ele>129.5</ele><time>2026-04-18T08:20:22.998Z</time></trkpt><trkpt lat="43.55756204093736" lon="10.763358283066845"><ele>130.33333333333334</ele><time>2026-04-18T08:20:23.998Z</time></trkpt><trkpt lat="43.55756305343224" lon="10.763463408229352"><ele>131.16666666666666</ele><time>2026-04-18T08:20:24.998Z</time></trkpt><trkpt lat="43.55757190463117" lon="10.763579846783843"><ele>132.0</ele><time>2026-04-18T08:20:25.998Z</time></trkpt><trkpt lat="43.55759782479508" lon="10.763701915249637"><ele>133.16666666666666</ele><time>2026-04-18T08:20:26.998Z</time></trkpt><trkpt lat="43.5576329987705" lon="10.76381968160428"><ele>134.33333333333334</ele><time>2026-04-18T08:20:27.998Z</time></trkpt><trkpt lat="43.55767856073468" lon="10.76393321720377"><ele>135.5</ele><time>2026-04-18T08:20:28.998Z</time></trkpt><trkpt lat="43.55768627577148" lon="10.76405949346433"><ele>136.66666666666669</ele><time>2026-04-18T08:20:29.998Z</time></trkpt><trkpt lat="43.557657736704634" lon="10.764171927343831"><ele>137.83333333333334</ele><time>2026-04-18T08:20:30.998Z</time></trkpt><trkpt lat="43.5576262195394" lon="10.764265427095951"><ele>139.0</ele><time>2026-04-18T08:20:31.998Z</time></trkpt><trkpt lat="43.55757932206786" lon="10.764330968987375"><ele>140.33333333333334</ele><time>2026-04-18T08:20:32.998Z</time></trkpt><trkpt lat="43.557508067321" lon="10.764368015988303"><ele>141.66666666666669</ele><time>2026-04-18T08:20:33.998Z</time></trkpt><trkpt lat="43.557434692985375" lon="10.764424440491627"><ele>143.0</ele><time>2026-04-18T08:20:34.998Z</time></trkpt><trkpt lat="43.5573540560422" lon="10.76447547082929"><ele>144.33333333333334</ele><time>2026-04-18T08:20:35.998Z</time></trkpt><trkpt lat="43.5572868464227" lon="10.764561306078011"><ele>145.66666666666666</ele><time>2026-04-18T08:20:36.998Z</time></trkpt><trkpt lat="43.557233976595235" lon="10.76467904865814"><ele>147.0</ele><time>2026-04-18T08:20:37.998Z</time></trkpt><trkpt lat="43.557171910046385" lon="10.764801003525314"><ele>147.0</ele><time>2026-04-18T08:20:38.998Z</time></trkpt><trkpt lat="43.55712638028679" lon="10.76494477639907"><ele>147.0</ele><time>2026-04-18T08:20:39.998Z</time></trkpt><trkpt lat="43.55708250660338" lon="10.765094195608874"><ele>147.0</ele><time>2026-04-18T08:20:40.998Z</time></trkpt><trkpt lat="43.55704096994247" lon="10.765238282905319"><ele>147.0</ele><time>2026-04-18T08:20:41.998Z</time></trkpt><trkpt lat="43.557001140923816" lon="10.765376446442815"><ele>146.79999999999998</ele><time>2026-04-18T08:20:42.998Z</time></trkpt><trkpt lat="43.55696280578555" lon="10.765509427792834"><ele>146.6</ele><time>2026-04-18T08:20:43.998Z</time></trkpt><trkpt lat="43.556923800405706" lon="10.765627066430186"><ele>146.39999999999998</ele><time>2026-04-18T08:20:44.998Z</time></trkpt><trkpt lat="43.556882363428095" lon="10.765735393432347"><ele>146.2</ele><time>2026-04-18T08:20:45.998Z</time></trkpt><trkpt lat="43.55682647611678" lon="10.765834123341246"><ele>146.0</ele><time>2026-04-18T08:20:46.998Z</time></trkpt><trkpt lat="43.55675638815668" lon="10.765929772827908"><ele>146.0</ele><time>2026-04-18T08:20:47.998Z</time></trkpt><trkpt lat="43.55667421043138" lon="10.76601452945612"><ele>146.0</ele><time>2026-04-18T08:20:48.998Z</time></trkpt><trkpt lat="43.55659913644397" lon="10.766124842967836"><ele>146.0</ele><time>2026-04-18T08:20:49.998Z</time></trkpt><trkpt lat="43.556509791913214" lon="10.766219495176514"><ele>146.0</ele><time>2026-04-18T08:20:50.998Z</time></trkpt><trkpt lat="43.556414749898444" lon="10.766295557920953"><ele>146.0</ele><time>2026-04-18T08:20:51.998Z</time></trkpt><trkpt lat="43.556344127883925" lon="10.766398097318758"><ele>146.83333333333331</ele><time>2026-04-18T08:20:52.998Z</time></trkpt><trkpt lat="43.55626839947187" lon="10.766469024539559"><ele>147.66666666666666</ele><time>2026-04-18T08:20:53.998Z</time></trkpt><trkpt lat="43.55619460990863" lon="10.766519595738803"><ele>148.5</ele><time>2026-04-18T08:20:54.998Z</time></trkpt><trkpt lat="43.55612029181067" lon="10.766551523966246"><ele>149.33333333333334</ele><time>2026-04-18T08:20:55.998Z</time></trkpt><trkpt lat="43.55604402131292" lon="10.766576675546583"><ele>150.16666666666669</ele><time>2026-04-18T08:20:56.998Z</time></trkpt><trkpt lat="43.555961802906246" lon="10.766593950143461"><ele>151.0</ele><time>2026-04-18T08:20:57.998Z</time></trkpt><trkpt lat="43.55589051744374" lon="10.766612830316388"><ele>151.00000000000003</ele><time>2026-04-18T08:20:58.998Z</time></trkpt><trkpt lat="43.55582353594582" lon="10.766631191160233"><ele>151.0</ele><time>2026-04-18T08:20:59.998Z</time></trkpt><trkpt lat="43.5557591781804" lon="10.766685839984257"><ele>151.0</ele><time>2026-04-18T08:21:00.998Z</time></trkpt><trkpt lat="43.55571163947375" lon="10.766763153424733"><ele>151.0</ele><time>2026-04-18T08:21:01.998Z</time></trkpt><trkpt lat="43.555688837247196" lon="10.766848178723956"><ele>151.0</ele><time>2026-04-18T08:21:02.998Z</time></trkpt><trkpt lat="43.55569914196372" lon="10.766941011996208"><ele>151.00000000000003</ele><time>2026-04-18T08:21:03.998Z</time></trkpt><trkpt lat="43.55570391131666" lon="10.767033289226971"><ele>151.0</ele><time>2026-04-18T08:21:04.998Z</time></trkpt><trkpt lat="43.55574353897101" lon="10.767157759994468"><ele>150.83333333333334</ele><time>2026-04-18T08:21:06.998Z</time></trkpt><trkpt lat="43.55577329176186" lon="10.767252003392043"><ele>150.66666666666669</ele><time>2026-04-18T08:21:08.998Z</time></trkpt><trkpt lat="43.55581114757673" lon="10.767359865440556"><ele>150.5</ele><time>2026-04-18T08:21:10.997Z</time></trkpt><trkpt lat="43.5558418921559" lon="10.767438224952913"><ele>150.33333333333334</ele><time>2026-04-18T08:21:12Z</time></trkpt><trkpt lat="43.55588455431097" lon="10.767520515718013"><ele>150.16666666666666</ele><time>2026-04-18T08:21:13Z</time></trkpt><trkpt lat="43.555923593318006" lon="10.767612266727493"><ele>150.0</ele><time>2026-04-18T08:21:14Z</time></trkpt><trkpt lat="43.5559663928808" lon="10.767696116176637"><ele>149.0</ele><time>2026-04-18T08:21:15Z</time></trkpt><trkpt lat="43.55599792030408" lon="10.767787100996959"><ele>148.0</ele><time>2026-04-18T08:21:16Z</time></trkpt><trkpt lat="43.556054714146605" lon="10.767917897075796"><ele>147.0</ele><time>2026-04-18T08:21:18Z</time></trkpt><trkpt lat="43.55598550186815" lon="10.76806477081941"><ele>146.0</ele><time>2026-04-18T08:21:20Z</time></trkpt><trkpt lat="43.55591663101865" lon="10.768118461613346"><ele>145.0</ele><time>2026-04-18T08:21:21Z</time></trkpt><trkpt lat="43.55585892800219" lon="10.768210801407424"><ele>145.0</ele><time>2026-04-18T08:21:22Z</time></trkpt><trkpt lat="43.555790587131604" lon="10.768294356781238"><ele>145.0</ele><time>2026-04-18T08:21:23Z</time></trkpt><trkpt lat="43.55571656685321" lon="10.768385555966736"><ele>145.0</ele><time>2026-04-18T08:21:24Z</time></trkpt><trkpt lat="43.55563652711263" lon="10.768478432367964"><ele>145.0</ele><time>2026-04-18T08:21:25Z</time></trkpt><trkpt lat="43.55555559627572" lon="10.76857865726013"><ele>145.0</ele><time>2026-04-18T08:21:26Z</time></trkpt><trkpt lat="43.5554744262568" lon="10.768680869822651"><ele>144.0</ele><time>2026-04-18T08:21:27Z</time></trkpt><trkpt lat="43.55539172383422" lon="10.768784970193138"><ele>143.0</ele><time>2026-04-18T08:21:27.999Z</time></trkpt><trkpt lat="43.55531089192128" lon="10.76888786658076"><ele>142.0</ele><time>2026-04-18T08:21:28.999Z</time></trkpt><trkpt lat="43.5552302510127" lon="10.768990684777107"><ele>141.0</ele><time>2026-04-18T08:21:29.999Z</time></trkpt><trkpt lat="43.5551496830022" lon="10.769090638979437"><ele>140.0</ele><time>2026-04-18T08:21:30.999Z</time></trkpt><trkpt lat="43.555070464739764" lon="10.769190214829509"><ele>139.6</ele><time>2026-04-18T08:21:31.999Z</time></trkpt><trkpt lat="43.55499122075846" lon="10.769290827548646"><ele>139.2</ele><time>2026-04-18T08:21:32.999Z</time></trkpt><trkpt lat="43.55491160296474" lon="10.769390170085899"><ele>138.8</ele><time>2026-04-18T08:21:33.999Z</time></trkpt><trkpt lat="43.554831011931476" lon="10.769487512860932"><ele>138.4</ele><time>2026-04-18T08:21:34.999Z</time></trkpt><trkpt lat="43.55475050245744" lon="10.769583648847778"><ele>138.0</ele><time>2026-04-18T08:21:35.999Z</time></trkpt><trkpt lat="43.55467960511584" lon="10.769685510724328"><ele>137.4</ele><time>2026-04-18T08:21:36.999Z</time></trkpt><trkpt lat="43.55462847537175" lon="10.769797434616692"><ele>136.8</ele><time>2026-04-18T08:21:37.999Z</time></trkpt><trkpt lat="43.55458440585959" lon="10.769921022854515"><ele>136.2</ele><time>2026-04-18T08:21:38.999Z</time></trkpt><trkpt lat="43.55454077190275" lon="10.770049486025785"><ele>135.6</ele><time>2026-04-18T08:21:39.999Z</time></trkpt><trkpt lat="43.55448074880162" lon="10.770173503234636"><ele>135.0</ele><time>2026-04-18T08:21:40.999Z</time></trkpt><trkpt lat="43.55443000608958" lon="10.770311507057583"><ele>136.4</ele><time>2026-04-18T08:21:41.999Z</time></trkpt><trkpt lat="43.554382443967754" lon="10.770446817673495"><ele>137.8</ele><time>2026-04-18T08:21:42.999Z</time></trkpt><trkpt lat="43.55433440782976" lon="10.770586679068026"><ele>139.2</ele><time>2026-04-18T08:21:43.999Z</time></trkpt><trkpt lat="43.554287291358804" lon="10.770726781221338"><ele>140.6</ele><time>2026-04-18T08:21:44.999Z</time></trkpt><trkpt lat="43.554240871671375" lon="10.770864175331912"><ele>142.0</ele><time>2026-04-18T08:21:45.999Z</time></trkpt><trkpt lat="43.554195775980396" lon="10.770994870741326"><ele>142.2</ele><time>2026-04-18T08:21:46.999Z</time></trkpt><trkpt lat="43.5541525407918" lon="10.771117399266398"><ele>142.39999999999998</ele><time>2026-04-18T08:21:47.999Z</time></trkpt><trkpt lat="43.55412040275596" lon="10.771244701757427"><ele>142.60000000000002</ele><time>2026-04-18T08:21:48.999Z</time></trkpt><trkpt lat="43.55409886996084" lon="10.771381332087357"><ele>142.8</ele><time>2026-04-18T08:21:49.999Z</time></trkpt><trkpt lat="43.55409133050415" lon="10.771533406259778"><ele>143.0</ele><time>2026-04-18T08:21:50.999Z</time></trkpt><trkpt lat="43.55409763840442" lon="10.771689342915908"><ele>143.0</ele><time>2026-04-18T08:21:51.999Z</time></trkpt><trkpt lat="43.55410480408882" lon="10.771852018777505"><ele>143.0</ele><time>2026-04-18T08:21:52.999Z</time></trkpt><trkpt lat="43.55411769207523" lon="10.772019612708592"><ele>143.0</ele><time>2026-04-18T08:21:53.999Z</time></trkpt><trkpt lat="43.554121499554455" lon="10.77218615012113"><ele>143.0</ele><time>2026-04-18T08:21:54.999Z</time></trkpt><trkpt lat="43.554131906917085" lon="10.772356895394665"><ele>142.75</ele><time>2026-04-18T08:21:55.999Z</time></trkpt><trkpt lat="43.55414118787369" lon="10.772523539648235"><ele>142.5</ele><time>2026-04-18T08:21:56.999Z</time></trkpt><trkpt lat="43.554138816883274" lon="10.772694921359244"><ele>142.25</ele><time>2026-04-18T08:21:57.999Z</time></trkpt><trkpt lat="43.55414916866683" lon="10.772870669162538"><ele>142.0</ele><time>2026-04-18T08:21:58.999Z</time></trkpt><trkpt lat="43.55415439948543" lon="10.773049486392285"><ele>142.75</ele><time>2026-04-18T08:21:59.999Z</time></trkpt><trkpt lat="43.554162215901336" lon="10.773218536418295"><ele>143.5</ele><time>2026-04-18T08:22:00.999Z</time></trkpt><trkpt lat="43.55416124439806" lon="10.773400980222217"><ele>144.25</ele><time>2026-04-18T08:22:01.999Z</time></trkpt><trkpt lat="43.554167740176915" lon="10.773575704207426"><ele>145.0</ele><time>2026-04-18T08:22:02.999Z</time></trkpt><trkpt lat="43.554173790523144" lon="10.773751156572983"><ele>146.75</ele><time>2026-04-18T08:22:03.999Z</time></trkpt><trkpt lat="43.554181578744064" lon="10.773921534590862"><ele>148.5</ele><time>2026-04-18T08:22:04.999Z</time></trkpt><trkpt lat="43.55418120807612" lon="10.774088044139353"><ele>150.25</ele><time>2026-04-18T08:22:05.999Z</time></trkpt><trkpt lat="43.55417413590658" lon="10.774254935650111"><ele>152.0</ele><time>2026-04-18T08:22:06.999Z</time></trkpt><trkpt lat="43.55415673272782" lon="10.774418141858975"><ele>153.6</ele><time>2026-04-18T08:22:07.999Z</time></trkpt><trkpt lat="43.55413674701556" lon="10.77457477551744"><ele>155.2</ele><time>2026-04-18T08:22:08.999Z</time></trkpt><trkpt lat="43.55411358290403" lon="10.774723927684773"><ele>156.8</ele><time>2026-04-18T08:22:09.999Z</time></trkpt><trkpt lat="43.55409310215488" lon="10.774861526785669"><ele>158.4</ele><time>2026-04-18T08:22:10.999Z</time></trkpt><trkpt lat="43.5540805482559" lon="10.774979020514577"><ele>160.0</ele><time>2026-04-18T08:22:11.999Z</time></trkpt><trkpt lat="43.554076185976385" lon="10.775094499132063"><ele>160.0</ele><time>2026-04-18T08:22:12.999Z</time></trkpt><trkpt lat="43.55409291445593" lon="10.775206486981174"><ele>160.0</ele><time>2026-04-18T08:22:13.999Z</time></trkpt><trkpt lat="43.55412781763674" lon="10.775309421908114"><ele>160.0</ele><time>2026-04-18T08:22:14.999Z</time></trkpt><trkpt lat="43.55419018141072" lon="10.775395072680917"><ele>160.0</ele><time>2026-04-18T08:22:15.999Z</time></trkpt><trkpt lat="43.554257441717404" lon="10.775467367951782"><ele>160.0</ele><time>2026-04-18T08:22:16.999Z</time></trkpt><trkpt lat="43.554331144250156" lon="10.775535997654138"><ele>160.0</ele><time>2026-04-18T08:22:17.999Z</time></trkpt><trkpt lat="43.55440828615961" lon="10.775600545706398"><ele>160.0</ele><time>2026-04-18T08:22:18.999Z</time></trkpt><trkpt lat="43.554480537108454" lon="10.775679056720856"><ele>160.0</ele><time>2026-04-18T08:22:19.998Z</time></trkpt><trkpt lat="43.55454491560883" lon="10.775769061513394"><ele>160.0</ele><time>2026-04-18T08:22:20.998Z</time></trkpt><trkpt lat="43.55460265950233" lon="10.775869795098329"><ele>160.0</ele><time>2026-04-18T08:22:21.998Z</time></trkpt><trkpt lat="43.55466476867531" lon="10.775972797870972"><ele>160.0</ele><time>2026-04-18T08:22:22.998Z</time></trkpt><trkpt lat="43.55472833133564" lon="10.776073818281063"><ele>164.2</ele><time>2026-04-18T08:22:23.998Z</time></trkpt><trkpt lat="43.554789980152684" lon="10.77617309267279"><ele>168.4</ele><time>2026-04-18T08:22:24.998Z</time></trkpt><trkpt lat="43.55484545287584" lon="10.776277612725309"><ele>172.60000000000002</ele><time>2026-04-18T08:22:25.998Z</time></trkpt><trkpt lat="43.55490135542437" lon="10.776386789924635"><ele>176.8</ele><time>2026-04-18T08:22:26.998Z</time></trkpt><trkpt lat="43.55493575463319" lon="10.776507602617166"><ele>181.0</ele><time>2026-04-18T08:22:27.998Z</time></trkpt><trkpt lat="43.554960858623005" lon="10.776623884249876"><ele>181.0</ele><time>2026-04-18T08:22:28.998Z</time></trkpt><trkpt lat="43.55494724934147" lon="10.776733434339961"><ele>181.0</ele><time>2026-04-18T08:22:29.998Z</time></trkpt><trkpt lat="43.55495147171627" lon="10.776836868938272"><ele>181.0</ele><time>2026-04-18T08:22:30.998Z</time></trkpt><trkpt lat="43.55491668347938" lon="10.776942368385324"><ele>181.0</ele><time>2026-04-18T08:22:31.998Z</time></trkpt><trkpt lat="43.5548979659368" lon="10.777039564363761"><ele>181.0</ele><time>2026-04-18T08:22:32.998Z</time></trkpt><trkpt lat="43.55489370242995" lon="10.777138676513122"><ele>181.0</ele><time>2026-04-18T08:22:33.998Z</time></trkpt><trkpt lat="43.55488648329434" lon="10.777239547321525"><ele>181.33333333333334</ele><time>2026-04-18T08:22:34.998Z</time></trkpt><trkpt lat="43.5548867756944" lon="10.777338305262925"><ele>181.66666666666669</ele><time>2026-04-18T08:22:35.998Z</time></trkpt><trkpt lat="43.554891503921034" lon="10.77743563157788"><ele>182.0</ele><time>2026-04-18T08:22:36.998Z</time></trkpt><trkpt lat="43.5549063854185" lon="10.777531513293386"><ele>182.33333333333334</ele><time>2026-04-18T08:22:37.998Z</time></trkpt><trkpt lat="43.55494474342795" lon="10.777624657342619"><ele>182.66666666666666</ele><time>2026-04-18T08:22:38.998Z</time></trkpt><trkpt lat="43.55501652721037" lon="10.77769590429186"><ele>183.0</ele><time>2026-04-18T08:22:39.998Z</time></trkpt><trkpt lat="43.555092880691284" lon="10.777753826617245"><ele>183.0</ele><time>2026-04-18T08:22:40.998Z</time></trkpt><trkpt lat="43.555162403627484" lon="10.777818058070835"><ele>183.0</ele><time>2026-04-18T08:22:41.998Z</time></trkpt><trkpt lat="43.5552252727888" lon="10.777887333067834"><ele>183.0</ele><time>2026-04-18T08:22:42.998Z</time></trkpt><trkpt lat="43.555281715879424" lon="10.777951735747562"><ele>183.0</ele><time>2026-04-18T08:22:43.998Z</time></trkpt><trkpt lat="43.55534373985698" lon="10.7780750905051"><ele>183.0</ele><time>2026-04-18T08:22:45.998Z</time></trkpt><trkpt lat="43.55535445596198" lon="10.778208150067941"><ele>183.0</ele><time>2026-04-18T08:22:47.998Z</time></trkpt><trkpt lat="43.555377855904375" lon="10.77837380563757"><ele>183.0</ele><time>2026-04-18T08:22:49.998Z</time></trkpt><trkpt lat="43.5553857471451" lon="10.778469824243523"><ele>183.0</ele><time>2026-04-18T08:22:50.998Z</time></trkpt><trkpt lat="43.55539289865612" lon="10.778575465358154"><ele>183.0</ele><time>2026-04-18T08:22:51.998Z</time></trkpt><trkpt lat="43.55539912918581" lon="10.778687308338231"><ele>183.0</ele><time>2026-04-18T08:22:52.998Z</time></trkpt><trkpt lat="43.55540441028279" lon="10.77879655468062"><ele>183.0</ele><time>2026-04-18T08:22:53.998Z</time></trkpt><trkpt lat="43.555404412612276" lon="10.778907041955765"><ele>183.0</ele><time>2026-04-18T08:22:54.998Z</time></trkpt><trkpt lat="43.55540267460376" lon="10.779021031113743"><ele>182.5</ele><time>2026-04-18T08:22:55.998Z</time></trkpt><trkpt lat="43.55540124182912" lon="10.77913654916496"><ele>182.0</ele><time>2026-04-18T08:22:56.998Z</time></trkpt><trkpt lat="43.55539703754176" lon="10.77925385912128"><ele>181.5</ele><time>2026-04-18T08:22:57.998Z</time></trkpt><trkpt lat="43.55539237778935" lon="10.779374602216297"><ele>181.0</ele><time>2026-04-18T08:22:58.998Z</time></trkpt><trkpt lat="43.55539195781728" lon="10.779497170864506"><ele>180.5</ele><time>2026-04-18T08:22:59.998Z</time></trkpt><trkpt lat="43.555397862770526" lon="10.779620714139371"><ele>180.0</ele><time>2026-04-18T08:23:00.998Z</time></trkpt><trkpt lat="43.55541368779693" lon="10.779746474562108"><ele>180.2</ele><time>2026-04-18T08:23:01.998Z</time></trkpt><trkpt lat="43.55543882594774" lon="10.779872745601143"><ele>180.4</ele><time>2026-04-18T08:23:02.998Z</time></trkpt><trkpt lat="43.5554700725596" lon="10.7799957304798"><ele>180.60000000000002</ele><time>2026-04-18T08:23:03.998Z</time></trkpt><trkpt lat="43.555509889036294" lon="10.780120122745458"><ele>180.8</ele><time>2026-04-18T08:23:04.998Z</time></trkpt><trkpt lat="43.555551121601816" lon="10.780242293695167"><ele>181.0</ele><time>2026-04-18T08:23:05.998Z</time></trkpt><trkpt lat="43.555591039831526" lon="10.780360386397101"><ele>181.0</ele><time>2026-04-18T08:23:06.998Z</time></trkpt><trkpt lat="43.555630580279306" lon="10.780481953079233"><ele>181.0</ele><time>2026-04-18T08:23:07.998Z</time></trkpt><trkpt lat="43.55567032560616" lon="10.780603209109763"><ele>181.0</ele><time>2026-04-18T08:23:08.998Z</time></trkpt><trkpt lat="43.55570709828331" lon="10.7807212769847"><ele>181.0</ele><time>2026-04-18T08:23:09.997Z</time></trkpt><trkpt lat="43.55573805958127" lon="10.780839661221805"><ele>181.0</ele><time>2026-04-18T08:23:10.997Z</time></trkpt><trkpt lat="43.555759207213114" lon="10.780960308932976"><ele>181.0</ele><time>2026-04-18T08:23:11.997Z</time></trkpt><trkpt lat="43.5557717571553" lon="10.781083013737875"><ele>181.0</ele><time>2026-04-18T08:23:12.997Z</time></trkpt><trkpt lat="43.55577632103748" lon="10.781197107432343"><ele>181.0</ele><time>2026-04-18T08:23:13.997Z</time></trkpt><trkpt lat="43.55577163812552" lon="10.781323992496876"><ele>181.0</ele><time>2026-04-18T08:23:14.997Z</time></trkpt><trkpt lat="43.555766798063004" lon="10.781450387226622"><ele>181.0</ele><time>2026-04-18T08:23:15.997Z</time></trkpt><trkpt lat="43.55576214816801" lon="10.781568228137175"><ele>181.0</ele><time>2026-04-18T08:23:16.997Z</time></trkpt><trkpt lat="43.55575539413896" lon="10.781680021096609"><ele>181.0</ele><time>2026-04-18T08:23:17.999Z</time></trkpt><trkpt lat="43.55573796348183" lon="10.781779561870565"><ele>181.0</ele><time>2026-04-18T08:23:18.999Z</time></trkpt><trkpt lat="43.555704278729245" lon="10.781862716294148"><ele>181.0</ele><time>2026-04-18T08:23:19.999Z</time></trkpt><trkpt lat="43.55566913302545" lon="10.781946149192265"><ele>181.0</ele><time>2026-04-18T08:23:20.999Z</time></trkpt><trkpt lat="43.555625997712674" lon="10.782092530541767"><ele>181.0</ele><time>2026-04-18T08:23:22.999Z</time></trkpt><trkpt lat="43.55560563982792" lon="10.782248236340681"><ele>181.0</ele><time>2026-04-18T08:23:24.999Z</time></trkpt><trkpt lat="43.55558240372131" lon="10.78241390674222"><ele>179.66666666666669</ele><time>2026-04-18T08:23:26.999Z</time></trkpt><trkpt lat="43.55555597722984" lon="10.782594885292838"><ele>178.33333333333334</ele><time>2026-04-18T08:23:28.999Z</time></trkpt><trkpt lat="43.55554210542636" lon="10.782691120346243"><ele>177.0</ele><time>2026-04-18T08:23:29.999Z</time></trkpt><trkpt lat="43.55552983259109" lon="10.782795350232208"><ele>175.66666666666666</ele><time>2026-04-18T08:23:30.999Z</time></trkpt><trkpt lat="43.555519123987985" lon="10.782898210453759"><ele>174.33333333333331</ele><time>2026-04-18T08:23:31.999Z</time></trkpt><trkpt lat="43.55551077193898" lon="10.783002072206662"><ele>173.0</ele><time>2026-04-18T08:23:32.999Z</time></trkpt><trkpt lat="43.55550959652942" lon="10.783109709795973"><ele>171.57142857142856</ele><time>2026-04-18T08:23:33.999Z</time></trkpt><trkpt lat="43.55550626254225" lon="10.783214544251738"><ele>170.14285714285717</ele><time>2026-04-18T08:23:34.999Z</time></trkpt><trkpt lat="43.555498795017634" lon="10.783320139361956"><ele>168.71428571428572</ele><time>2026-04-18T08:23:35.999Z</time></trkpt><trkpt lat="43.55548968320628" lon="10.783421756570037"><ele>167.28571428571428</ele><time>2026-04-18T08:23:36.999Z</time></trkpt><trkpt lat="43.55547996050838" lon="10.783522764171817"><ele>165.85714285714283</ele><time>2026-04-18T08:23:37.999Z</time></trkpt><trkpt lat="43.55547075145813" lon="10.78362509413047"><ele>164.42857142857144</ele><time>2026-04-18T08:23:38.999Z</time></trkpt><trkpt lat="43.555459577248165" lon="10.783723983240847"><ele>163.0</ele><time>2026-04-18T08:23:39.999Z</time></trkpt><trkpt lat="43.55545198334617" lon="10.783825616026872"><ele>161.83333333333334</ele><time>2026-04-18T08:23:40.999Z</time></trkpt><trkpt lat="43.555443364090394" lon="10.783928013248419"><ele>160.66666666666669</ele><time>2026-04-18T08:23:41.999Z</time></trkpt><trkpt lat="43.555440892199336" lon="10.784027829045034"><ele>159.5</ele><time>2026-04-18T08:23:42.999Z</time></trkpt><trkpt lat="43.5554510000034" lon="10.784127214925455"><ele>158.33333333333334</ele><time>2026-04-18T08:23:43.999Z</time></trkpt><trkpt lat="43.5554682063641" lon="10.784229194376293"><ele>157.16666666666666</ele><time>2026-04-18T08:23:44.999Z</time></trkpt><trkpt lat="43.5554970363381" lon="10.784331688264935"><ele>156.0</ele><time>2026-04-18T08:23:45.999Z</time></trkpt><trkpt lat="43.555530037867065" lon="10.78443083493324"><ele>155.66666666666666</ele><time>2026-04-18T08:23:46.999Z</time></trkpt><trkpt lat="43.55556447260756" lon="10.784527812047052"><ele>155.33333333333334</ele><time>2026-04-18T08:23:47.999Z</time></trkpt><trkpt lat="43.5556007957402" lon="10.784622825993516"><ele>155.0</ele><time>2026-04-18T08:23:48.999Z</time></trkpt><trkpt lat="43.55563535489542" lon="10.784717231917675"><ele>154.66666666666669</ele><time>2026-04-18T08:23:49.999Z</time></trkpt><trkpt lat="43.555670467049126" lon="10.784817557420975"><ele>154.33333333333334</ele><time>2026-04-18T08:23:50.999Z</time></trkpt><trkpt lat="43.555697394034176" lon="10.784918030263459"><ele>154.0</ele><time>2026-04-18T08:23:51.999Z</time></trkpt><trkpt lat="43.55571464352106" lon="10.785020768295752"><ele>154.0</ele><time>2026-04-18T08:23:52.999Z</time></trkpt><trkpt lat="43.555716364861134" lon="10.785123373542921"><ele>154.0</ele><time>2026-04-18T08:23:53.999Z</time></trkpt><trkpt lat="43.55570279802796" lon="10.785223399279815"><ele>154.0</ele><time>2026-04-18T08:23:54.999Z</time></trkpt><trkpt lat="43.555683994591114" lon="10.785318558246367"><ele>154.0</ele><time>2026-04-18T08:23:55.999Z</time></trkpt><trkpt lat="43.5556667360835" lon="10.785408137584154"><ele>154.0</ele><time>2026-04-18T08:23:56.999Z</time></trkpt><trkpt lat="43.555643533219325" lon="10.785499535682899"><ele>154.0</ele><time>2026-04-18T08:23:57.999Z</time></trkpt><trkpt lat="43.55562236961085" lon="10.78558961213088"><ele>154.0</ele><time>2026-04-18T08:23:58.999Z</time></trkpt><trkpt lat="43.5556106604199" lon="10.785681957367222"><ele>154.28571428571428</ele><time>2026-04-18T08:23:59.999Z</time></trkpt><trkpt lat="43.555616182489196" lon="10.785779990761442"><ele>154.57142857142856</ele><time>2026-04-18T08:24:00.999Z</time></trkpt><trkpt lat="43.555639258752706" lon="10.785873022916999"><ele>154.85714285714286</ele><time>2026-04-18T08:24:01.999Z</time></trkpt><trkpt lat="43.555679844062695" lon="10.78595347453223"><ele>155.14285714285714</ele><time>2026-04-18T08:24:02.999Z</time></trkpt><trkpt lat="43.555728028278324" lon="10.786010547496373"><ele>155.42857142857142</ele><time>2026-04-18T08:24:03.999Z</time></trkpt><trkpt lat="43.55581023085987" lon="10.78607537796881"><ele>155.71428571428572</ele><time>2026-04-18T08:24:05.999Z</time></trkpt><trkpt lat="43.55586926470913" lon="10.786126915193249"><ele>156.0</ele><time>2026-04-18T08:24:08.999Z</time></trkpt><trkpt lat="43.555929470279516" lon="10.786178492744316"><ele>156.0</ele><time>2026-04-18T08:24:12.999Z</time></trkpt><trkpt lat="43.555985723573066" lon="10.786230340465451"><ele>156.0</ele><time>2026-04-18T08:24:14.999Z</time></trkpt><trkpt lat="43.556063120280406" lon="10.786310085465649"><ele>156.0</ele><time>2026-04-18T08:24:16.999Z</time></trkpt><trkpt lat="43.556149904092166" lon="10.78642395308962"><ele>156.0</ele><time>2026-04-18T08:24:18.999Z</time></trkpt><trkpt lat="43.55619252657936" lon="10.786489113133968"><ele>156.0</ele><time>2026-04-18T08:24:19.999Z</time></trkpt><trkpt lat="43.5562348861099" lon="10.786559132748465"><ele>156.0</ele><time>2026-04-18T08:24:20.998Z</time></trkpt><trkpt lat="43.55627727980942" lon="10.786630018161018"><ele>155.57142857142858</ele><time>2026-04-18T08:24:21.998Z</time></trkpt><trkpt lat="43.55632028332713" lon="10.78670102654087"><ele>155.14285714285714</ele><time>2026-04-18T08:24:22.998Z</time></trkpt><trkpt lat="43.5563646108603" lon="10.786774026716957"><ele>154.71428571428572</ele><time>2026-04-18T08:24:23.998Z</time></trkpt><trkpt lat="43.55641094223266" lon="10.786847052676329"><ele>154.28571428571428</ele><time>2026-04-18T08:24:24.998Z</time></trkpt><trkpt lat="43.556455798778316" lon="10.78691937551516"><ele>153.85714285714286</ele><time>2026-04-18T08:24:25.998Z</time></trkpt><trkpt lat="43.55650057221663" lon="10.786993206946537"><ele>153.42857142857142</ele><time>2026-04-18T08:24:26.998Z</time></trkpt><trkpt lat="43.55654708084731" lon="10.787071332847184"><ele>153.0</ele><time>2026-04-18T08:24:27.998Z</time></trkpt><trkpt lat="43.556592389957665" lon="10.78714789997305"><ele>152.83333333333334</ele><time>2026-04-18T08:24:28.998Z</time></trkpt><trkpt lat="43.55663825900758" lon="10.787224512368562"><ele>152.66666666666666</ele><time>2026-04-18T08:24:29.998Z</time></trkpt><trkpt lat="43.55668313704904" lon="10.787302811570447"><ele>152.5</ele><time>2026-04-18T08:24:30.998Z</time></trkpt><trkpt lat="43.55672765371372" lon="10.78738597746976"><ele>152.33333333333331</ele><time>2026-04-18T08:24:31.998Z</time></trkpt><trkpt lat="43.55676984144482" lon="10.787475687462187"><ele>152.16666666666666</ele><time>2026-04-18T08:24:32.998Z</time></trkpt><trkpt lat="43.55680647710138" lon="10.787571581974921"><ele>152.0</ele><time>2026-04-18T08:24:33.998Z</time></trkpt><trkpt lat="43.556837351511334" lon="10.787671931438238"><ele>150.33333333333331</ele><time>2026-04-18T08:24:34.998Z</time></trkpt><trkpt lat="43.55686225184563" lon="10.78777321121411"><ele>148.66666666666666</ele><time>2026-04-18T08:24:35.998Z</time></trkpt><trkpt lat="43.55689088275665" lon="10.787875039251041"><ele>147.0</ele><time>2026-04-18T08:24:36.998Z</time></trkpt><trkpt lat="43.55691997729847" lon="10.787978762904359"><ele>145.33333333333334</ele><time>2026-04-18T08:24:37.998Z</time></trkpt><trkpt lat="43.55694883556358" lon="10.78807844069572"><ele>143.66666666666669</ele><time>2026-04-18T08:24:38.998Z</time></trkpt><trkpt lat="43.5569778374618" lon="10.788172900496416"><ele>142.0</ele><time>2026-04-18T08:24:39.998Z</time></trkpt><trkpt lat="43.557008349573934" lon="10.788263978655479"><ele>142.83333333333334</ele><time>2026-04-18T08:24:40.998Z</time></trkpt><trkpt lat="43.55704177346425" lon="10.788351148510948"><ele>143.66666666666669</ele><time>2026-04-18T08:24:41.998Z</time></trkpt><trkpt lat="43.557073382889776" lon="10.788430651439135"><ele>144.5</ele><time>2026-04-18T08:24:42.998Z</time></trkpt><trkpt lat="43.55713798389985" lon="10.788578672712605"><ele>145.33333333333334</ele><time>2026-04-18T08:24:44.998Z</time></trkpt><trkpt lat="43.557174944341874" lon="10.788650827391299"><ele>146.16666666666666</ele><time>2026-04-18T08:24:45.998Z</time></trkpt><trkpt lat="43.55720858222285" lon="10.78872470197784"><ele>147.0</ele><time>2026-04-18T08:24:46.998Z</time></trkpt><trkpt lat="43.55723945925392" lon="10.788801055353598"><ele>147.71428571428572</ele><time>2026-04-18T08:24:47.998Z</time></trkpt><trkpt lat="43.55727156973269" lon="10.78888242396336"><ele>148.42857142857144</ele><time>2026-04-18T08:24:48.998Z</time></trkpt><trkpt lat="43.55730019167524" lon="10.788963793411984"><ele>149.14285714285714</ele><time>2026-04-18T08:24:49.998Z</time></trkpt><trkpt lat="43.55732311229448" lon="10.789049166588827"><ele>149.85714285714286</ele><time>2026-04-18T08:24:50.998Z</time></trkpt><trkpt lat="43.55733836622312" lon="10.789134997966805"><ele>150.57142857142858</ele><time>2026-04-18T08:24:51.998Z</time></trkpt><trkpt lat="43.55734851443604" lon="10.78922363348202"><ele>151.28571428571428</ele><time>2026-04-18T08:24:52.998Z</time></trkpt><trkpt lat="43.55735629454533" lon="10.789316313671595"><ele>152.0</ele><time>2026-04-18T08:24:53.998Z</time></trkpt><trkpt lat="43.55736280788782" lon="10.78940956059042"><ele>152.0</ele><time>2026-04-18T08:24:54.998Z</time></trkpt><trkpt lat="43.55737500662848" lon="10.789503053619734"><ele>152.0</ele><time>2026-04-18T08:24:55.998Z</time></trkpt><trkpt lat="43.55739208965649" lon="10.789595576097167"><ele>152.0</ele><time>2026-04-18T08:24:56.998Z</time></trkpt><trkpt lat="43.55741244807654" lon="10.789683070880637"><ele>152.0</ele><time>2026-04-18T08:24:57.998Z</time></trkpt><trkpt lat="43.557434371973876" lon="10.789765628739131"><ele>152.0</ele><time>2026-04-18T08:24:58.998Z</time></trkpt><trkpt lat="43.55746249807739" lon="10.789843779038167"><ele>152.0</ele><time>2026-04-18T08:24:59.998Z</time></trkpt><trkpt lat="43.55749653612006" lon="10.78992288538757"><ele>152.0</ele><time>2026-04-18T08:25:00.998Z</time></trkpt><trkpt lat="43.557536430230414" lon="10.789997768809876"><ele>152.0</ele><time>2026-04-18T08:25:01.998Z</time></trkpt><trkpt lat="43.55757866343624" lon="10.790073930515577"><ele>152.0</ele><time>2026-04-18T08:25:02.998Z</time></trkpt><trkpt lat="43.55762313216735" lon="10.79015385100895"><ele>152.0</ele><time>2026-04-18T08:25:03.998Z</time></trkpt><trkpt lat="43.55766778866138" lon="10.790239870477276"><ele>152.0</ele><time>2026-04-18T08:25:04.998Z</time></trkpt><trkpt lat="43.55771499293464" lon="10.79032976016125"><ele>152.0</ele><time>2026-04-18T08:25:05.998Z</time></trkpt><trkpt lat="43.55776420244953" lon="10.790425775256388"><ele>152.0</ele><time>2026-04-18T08:25:06.998Z</time></trkpt><trkpt lat="43.55781646731981" lon="10.790523874010896"><ele>150.5</ele><time>2026-04-18T08:25:07.998Z</time></trkpt><trkpt lat="43.557867518237565" lon="10.790622042654894"><ele>149.0</ele><time>2026-04-18T08:25:08.998Z</time></trkpt><trkpt lat="43.55791799571872" lon="10.790722571172779"><ele>147.5</ele><time>2026-04-18T08:25:09.998Z</time></trkpt><trkpt lat="43.55796883172237" lon="10.790825272461744"><ele>146.0</ele><time>2026-04-18T08:25:10.998Z</time></trkpt><trkpt lat="43.558013471594116" lon="10.790935950145732"><ele>144.5</ele><time>2026-04-18T08:25:11.997Z</time></trkpt><trkpt lat="43.55804642486094" lon="10.791051706642387"><ele>143.0</ele><time>2026-04-18T08:25:12.997Z</time></trkpt><trkpt lat="43.558067611077014" lon="10.791173625021573"><ele>142.0</ele><time>2026-04-18T08:25:13.997Z</time></trkpt><trkpt lat="43.558071062788" lon="10.791297427119785"><ele>141.0</ele><time>2026-04-18T08:25:14.997Z</time></trkpt><trkpt lat="43.558063134293405" lon="10.791428189597141"><ele>140.0</ele><time>2026-04-18T08:25:15.997Z</time></trkpt><trkpt lat="43.5580439574295" lon="10.79155911349474"><ele>139.0</ele><time>2026-04-18T08:25:16.997Z</time></trkpt><trkpt lat="43.55801730305488" lon="10.791694029196275"><ele>138.0</ele><time>2026-04-18T08:25:17.997Z</time></trkpt><trkpt lat="43.55796907075787" lon="10.791833430066102"><ele>138.6</ele><time>2026-04-18T08:25:18.997Z</time></trkpt><trkpt lat="43.557905964969905" lon="10.791956742520936"><ele>139.20000000000002</ele><time>2026-04-18T08:25:19.997Z</time></trkpt><trkpt lat="43.55785120003468" lon="10.792062349585494"><ele>139.8</ele><time>2026-04-18T08:25:20.997Z</time></trkpt><trkpt lat="43.55781782945332" lon="10.792172247053854"><ele>140.4</ele><time>2026-04-18T08:25:21.997Z</time></trkpt><trkpt lat="43.557803949262436" lon="10.792315981778684"><ele>141.0</ele><time>2026-04-18T08:25:22.997Z</time></trkpt><trkpt lat="43.55782814029305" lon="10.792458502329545"><ele>141.5</ele><time>2026-04-18T08:25:23.999Z</time></trkpt><trkpt lat="43.557875543677746" lon="10.79261114045176"><ele>142.0</ele><time>2026-04-18T08:25:24.999Z</time></trkpt><trkpt lat="43.55792000156074" lon="10.792777487080999"><ele>142.5</ele><time>2026-04-18T08:25:25.999Z</time></trkpt><trkpt lat="43.5579682894119" lon="10.792970774247724"><ele>143.0</ele><time>2026-04-18T08:25:26.999Z</time></trkpt><trkpt lat="43.55801936452803" lon="10.793169618476776"><ele>144.75</ele><time>2026-04-18T08:25:27.999Z</time></trkpt><trkpt lat="43.55806964102367" lon="10.793345718896989"><ele>146.5</ele><time>2026-04-18T08:25:28.999Z</time></trkpt><trkpt lat="43.55813208619852" lon="10.79351671838502"><ele>148.25</ele><time>2026-04-18T08:25:29.999Z</time></trkpt><trkpt lat="43.558152287815524" lon="10.79367992694144"><ele>150.0</ele><time>2026-04-18T08:25:30.999Z</time></trkpt><trkpt lat="43.5581755242345" lon="10.793811393604274"><ele>150.0</ele><time>2026-04-18T08:25:31.999Z</time></trkpt><trkpt lat="43.558184776080715" lon="10.793930675257728"><ele>150.0</ele><time>2026-04-18T08:25:32.999Z</time></trkpt><trkpt lat="43.55819273569555" lon="10.794040845976816"><ele>150.0</ele><time>2026-04-18T08:25:33.999Z</time></trkpt><trkpt lat="43.55822034334107" lon="10.794142560350195"><ele>150.0</ele><time>2026-04-18T08:25:34.999Z</time></trkpt><trkpt lat="43.55823876651206" lon="10.794228731723265"><ele>150.0</ele><time>2026-04-18T08:25:35.999Z</time></trkpt><trkpt lat="43.55829559624926" lon="10.794373206658715"><ele>150.0</ele><time>2026-04-18T08:25:37.999Z</time></trkpt><trkpt lat="43.558321359581214" lon="10.794466167757626"><ele>148.83333333333334</ele><time>2026-04-18T08:25:38.999Z</time></trkpt><trkpt lat="43.55837094834058" lon="10.794551835562661"><ele>147.66666666666666</ele><time>2026-04-18T08:25:39.999Z</time></trkpt><trkpt lat="43.558430718885084" lon="10.794630653180176"><ele>146.5</ele><time>2026-04-18T08:25:40.999Z</time></trkpt><trkpt lat="43.558475885256776" lon="10.794728498360609"><ele>145.33333333333331</ele><time>2026-04-18T08:25:41.999Z</time></trkpt><trkpt lat="43.55850605375437" lon="10.794842430038988"><ele>144.16666666666666</ele><time>2026-04-18T08:25:42.999Z</time></trkpt><trkpt lat="43.5585528679919" lon="10.79494927961503"><ele>143.0</ele><time>2026-04-18T08:25:43.999Z</time></trkpt><trkpt lat="43.55860686501715" lon="10.795053488666035"><ele>143.0</ele><time>2026-04-18T08:25:44.999Z</time></trkpt><trkpt lat="43.55867882163213" lon="10.795141174798582"><ele>143.0</ele><time>2026-04-18T08:25:45.999Z</time></trkpt><trkpt lat="43.55873291139458" lon="10.795256032561955"><ele>143.0</ele><time>2026-04-18T08:25:46.999Z</time></trkpt><trkpt lat="43.558803812353815" lon="10.795348961829328"><ele>143.0</ele><time>2026-04-18T08:25:47.999Z</time></trkpt><trkpt lat="43.55887975541061" lon="10.795430259966208"><ele>143.0</ele><time>2026-04-18T08:25:48.999Z</time></trkpt><trkpt lat="43.55895646344424" lon="10.795503607643484"><ele>144.33333333333331</ele><time>2026-04-18T08:25:49.999Z</time></trkpt><trkpt lat="43.55903380686506" lon="10.79557285240098"><ele>145.66666666666666</ele><time>2026-04-18T08:25:50.999Z</time></trkpt><trkpt lat="43.55910880898729" lon="10.795634239632491"><ele>147.0</ele><time>2026-04-18T08:25:51.999Z</time></trkpt><trkpt lat="43.55917894814802" lon="10.79569252229448"><ele>148.33333333333334</ele><time>2026-04-18T08:25:52.999Z</time></trkpt><trkpt lat="43.559242012810124" lon="10.795748428885855"><ele>149.66666666666669</ele><time>2026-04-18T08:25:53.999Z</time></trkpt><trkpt lat="43.55930505729782" lon="10.795805936832652"><ele>151.0</ele><time>2026-04-18T08:25:54.999Z</time></trkpt><trkpt lat="43.55936381365989" lon="10.795866034150379"><ele>151.00000000000003</ele><time>2026-04-18T08:25:55.999Z</time></trkpt><trkpt lat="43.559425551707285" lon="10.795929401678995"><ele>151.0</ele><time>2026-04-18T08:25:56.999Z</time></trkpt><trkpt lat="43.55947135626981" lon="10.796005733949494"><ele>151.0</ele><time>2026-04-18T08:25:57.999Z</time></trkpt><trkpt lat="43.55951452684757" lon="10.796086620077107"><ele>151.0</ele><time>2026-04-18T08:25:58.999Z</time></trkpt><trkpt lat="43.5595565550053" lon="10.796168864229175"><ele>151.0</ele><time>2026-04-18T08:25:59.999Z</time></trkpt><trkpt lat="43.55959896874084" lon="10.796248843159871"><ele>151.00000000000003</ele><time>2026-04-18T08:26:00.999Z</time></trkpt><trkpt lat="43.55964085256934" lon="10.796327742919447"><ele>151.0</ele><time>2026-04-18T08:26:01.999Z</time></trkpt><trkpt lat="43.5596838516428" lon="10.796404743367386"><ele>151.85714285714286</ele><time>2026-04-18T08:26:02.999Z</time></trkpt><trkpt lat="43.55972746159151" lon="10.796476907633087"><ele>152.71428571428572</ele><time>2026-04-18T08:26:03.999Z</time></trkpt><trkpt lat="43.559770030615844" lon="10.796547397838397"><ele>153.57142857142856</ele><time>2026-04-18T08:26:04.999Z</time></trkpt><trkpt lat="43.55981178247133" lon="10.79661653488775"><ele>154.42857142857144</ele><time>2026-04-18T08:26:05.999Z</time></trkpt><trkpt lat="43.559853486901176" lon="10.7966855933942"><ele>155.28571428571428</ele><time>2026-04-18T08:26:06.999Z</time></trkpt><trkpt lat="43.559894859932015" lon="10.796754103150047"><ele>156.14285714285714</ele><time>2026-04-18T08:26:07.999Z</time></trkpt><trkpt lat="43.55993680940639" lon="10.796823567424052"><ele>157.0</ele><time>2026-04-18T08:26:08.999Z</time></trkpt><trkpt lat="43.56001703635281" lon="10.79695632799391"><ele>157.0</ele><time>2026-04-18T08:26:10.999Z</time></trkpt><trkpt lat="43.560094659565635" lon="10.797087025655959"><ele>157.0</ele><time>2026-04-18T08:26:12.999Z</time></trkpt><trkpt lat="43.560171692537835" lon="10.797215424613048"><ele>157.0</ele><time>2026-04-18T08:26:14.999Z</time></trkpt><trkpt lat="43.56025986682043" lon="10.797321025666042"><ele>157.0</ele><time>2026-04-18T08:26:16.999Z</time></trkpt><trkpt lat="43.560322267380684" lon="10.797344479348288"><ele>157.0</ele><time>2026-04-18T08:26:17.999Z</time></trkpt><trkpt lat="43.560372554490975" lon="10.797402084550955"><ele>158.57142857142856</ele><time>2026-04-18T08:26:18.999Z</time></trkpt><trkpt lat="43.560433347502524" lon="10.797436628629534"><ele>160.14285714285714</ele><time>2026-04-18T08:26:19.999Z</time></trkpt><trkpt lat="43.560498671354274" lon="10.797462452204424"><ele>161.71428571428572</ele><time>2026-04-18T08:26:20.999Z</time></trkpt><trkpt lat="43.56056689213034" lon="10.797480218057272"><ele>163.28571428571428</ele><time>2026-04-18T08:26:21.999Z</time></trkpt><trkpt lat="43.56063236534757" lon="10.797491695410706"><ele>164.85714285714286</ele><time>2026-04-18T08:26:22.999Z</time></trkpt><trkpt lat="43.560700850549416" lon="10.79749727739169"><ele>166.42857142857142</ele><time>2026-04-18T08:26:23.999Z</time></trkpt><trkpt lat="43.56076743944881" lon="10.797474402281036"><ele>168.0</ele><time>2026-04-18T08:26:24.999Z</time></trkpt><trkpt lat="43.56083310404482" lon="10.797494019763727"><ele>168.0</ele><time>2026-04-18T08:26:25.999Z</time></trkpt><trkpt lat="43.56095626355427" lon="10.79748598907363"><ele>168.0</ele><time>2026-04-18T08:26:27.999Z</time></trkpt><trkpt lat="43.561074567632794" lon="10.797479299532213"><ele>168.0</ele><time>2026-04-18T08:26:29.999Z</time></trkpt><trkpt lat="43.56120193360726" lon="10.797495371753572"><ele>168.0</ele><time>2026-04-18T08:26:31.998Z</time></trkpt><trkpt lat="43.56126903846522" lon="10.79751258237534"><ele>168.0</ele><time>2026-04-18T08:26:32.998Z</time></trkpt><trkpt lat="43.561339569841216" lon="10.79752935827171"><ele>168.0</ele><time>2026-04-18T08:26:33.998Z</time></trkpt><trkpt lat="43.56141127380378" lon="10.797548326328634"><ele>168.0</ele><time>2026-04-18T08:26:34.998Z</time></trkpt><trkpt lat="43.56148049135405" lon="10.79756749716581"><ele>168.0</ele><time>2026-04-18T08:26:35.998Z</time></trkpt><trkpt lat="43.561551807130314" lon="10.797588135152623"><ele>168.0</ele><time>2026-04-18T08:26:36.998Z</time></trkpt><trkpt lat="43.56162252085691" lon="10.7976085989858"><ele>168.0</ele><time>2026-04-18T08:26:37.998Z</time></trkpt><trkpt lat="43.56169354524167" lon="10.797629568261218"><ele>168.0</ele><time>2026-04-18T08:26:38.998Z</time></trkpt><trkpt lat="43.56176415098619" lon="10.797652647937525"><ele>168.0</ele><time>2026-04-18T08:26:39.998Z</time></trkpt><trkpt lat="43.561834079880995" lon="10.797675506302651"><ele>167.5</ele><time>2026-04-18T08:26:40.998Z</time></trkpt><trkpt lat="43.561901070306675" lon="10.797698516667166"><ele>167.0</ele><time>2026-04-18T08:26:41.998Z</time></trkpt><trkpt lat="43.56196713305533" lon="10.797722036064334"><ele>166.5</ele><time>2026-04-18T08:26:42.998Z</time></trkpt><trkpt lat="43.56203000428936" lon="10.797744419336977"><ele>166.0</ele><time>2026-04-18T08:26:43.998Z</time></trkpt><trkpt lat="43.56209228914685" lon="10.797766593723814"><ele>165.5</ele><time>2026-04-18T08:26:44.998Z</time></trkpt><trkpt lat="43.56215464440633" lon="10.797789909908197"><ele>165.0</ele><time>2026-04-18T08:26:45.998Z</time></trkpt><trkpt lat="43.56227063578723" lon="10.797865617498738"><ele>167.16666666666666</ele><time>2026-04-18T08:26:47.998Z</time></trkpt><trkpt lat="43.56232766138842" lon="10.797918456356932"><ele>169.33333333333334</ele><time>2026-04-18T08:26:48.998Z</time></trkpt><trkpt lat="43.562389162354535" lon="10.797978306234958"><ele>171.5</ele><time>2026-04-18T08:26:49.998Z</time></trkpt><trkpt lat="43.562452996867776" lon="10.798039897737166"><ele>173.66666666666669</ele><time>2026-04-18T08:26:50.998Z</time></trkpt><trkpt lat="43.562512973775135" lon="10.798106143094374"><ele>175.83333333333334</ele><time>2026-04-18T08:26:51.998Z</time></trkpt><trkpt lat="43.562573322010756" lon="10.79817344608115"><ele>178.0</ele><time>2026-04-18T08:26:52.998Z</time></trkpt><trkpt lat="43.56263425940672" lon="10.798241406203285"><ele>178.0</ele><time>2026-04-18T08:26:53.998Z</time></trkpt><trkpt lat="43.56269826662567" lon="10.798306333141744"><ele>178.0</ele><time>2026-04-18T08:26:54.998Z</time></trkpt><trkpt lat="43.562761484536416" lon="10.798368488514003"><ele>178.0</ele><time>2026-04-18T08:26:55.998Z</time></trkpt><trkpt lat="43.56282486891574" lon="10.798426367657823"><ele>178.0</ele><time>2026-04-18T08:26:56.998Z</time></trkpt><trkpt lat="43.56288577147559" lon="10.79847956394249"><ele>178.0</ele><time>2026-04-18T08:26:57.998Z</time></trkpt><trkpt lat="43.56294506543373" lon="10.79852777945539"><ele>178.0</ele><time>2026-04-18T08:26:58.998Z</time></trkpt><trkpt lat="43.563051055429" lon="10.798612902083052"><ele>179.83333333333334</ele><time>2026-04-18T08:27:00.998Z</time></trkpt><trkpt lat="43.56315510503194" lon="10.798680308096221"><ele>181.66666666666669</ele><time>2026-04-18T08:27:02.998Z</time></trkpt><trkpt lat="43.563242487078746" lon="10.798753369033145"><ele>183.5</ele><time>2026-04-18T08:27:04.998Z</time></trkpt><trkpt lat="43.563308005166476" lon="10.798810668433239"><ele>185.33333333333334</ele><time>2026-04-18T08:27:21.998Z</time></trkpt><trkpt lat="43.56336753540943" lon="10.798891808343047"><ele>187.16666666666666</ele><time>2026-04-18T08:27:24.997Z</time></trkpt><trkpt lat="43.56343661080283" lon="10.798909482937036"><ele>189.0</ele><time>2026-04-18T08:27:26.997Z</time></trkpt><trkpt lat="43.56350788647427" lon="10.798972295544004"><ele>189.0</ele><time>2026-04-18T08:27:45.999Z</time></trkpt><trkpt lat="43.563559002277145" lon="10.799061525189435"><ele>189.0</ele><time>2026-04-18T08:27:47.999Z</time></trkpt><trkpt lat="43.563630382885364" lon="10.799138825034749"><ele>189.0</ele><time>2026-04-18T08:27:49.999Z</time></trkpt><trkpt lat="43.56370163303941" lon="10.799235217717532"><ele>189.0</ele><time>2026-04-18T08:27:51.999Z</time></trkpt><trkpt lat="43.563750714936184" lon="10.799355369696672"><ele>189.0</ele><time>2026-04-18T08:27:53.999Z</time></trkpt><trkpt lat="43.56379320054864" lon="10.799495706926047"><ele>188.2</ele><time>2026-04-18T08:27:55.999Z</time></trkpt><trkpt lat="43.56382052838738" lon="10.799638826595396"><ele>187.39999999999998</ele><time>2026-04-18T08:27:57.999Z</time></trkpt><trkpt lat="43.563890892145" lon="10.799787859510698"><ele>186.6</ele><time>2026-04-18T08:27:59.999Z</time></trkpt><trkpt lat="43.56394056931076" lon="10.799844805447483"><ele>185.8</ele><time>2026-04-18T08:28:00.999Z</time></trkpt><trkpt lat="43.564046778081" lon="10.799932388991499"><ele>185.0</ele><time>2026-04-18T08:28:02.999Z</time></trkpt><trkpt lat="43.56415309700544" lon="10.800007117644807"><ele>185.0</ele><time>2026-04-18T08:28:04.999Z</time></trkpt><trkpt lat="43.564262983897514" lon="10.800082125340317"><ele>185.0</ele><time>2026-04-18T08:28:06.999Z</time></trkpt><trkpt lat="43.56432134444711" lon="10.800117327684331"><ele>185.0</ele><time>2026-04-18T08:28:07.999Z</time></trkpt><trkpt lat="43.564381771902376" lon="10.800151936776071"><ele>185.0</ele><time>2026-04-18T08:28:08.999Z</time></trkpt><trkpt lat="43.56444501547438" lon="10.800184724722573"><ele>185.0</ele><time>2026-04-18T08:28:09.999Z</time></trkpt><trkpt lat="43.564509142965115" lon="10.80021507867206"><ele>185.0</ele><time>2026-04-18T08:28:10.999Z</time></trkpt><trkpt lat="43.56457391061265" lon="10.800245121662332"><ele>184.28571428571428</ele><time>2026-04-18T08:28:11.999Z</time></trkpt><trkpt lat="43.564639358443074" lon="10.800275480159321"><ele>183.57142857142856</ele><time>2026-04-18T08:28:12.999Z</time></trkpt><trkpt lat="43.56470539498565" lon="10.800306655574888"><ele>182.85714285714283</ele><time>2026-04-18T08:28:13.999Z</time></trkpt><trkpt lat="43.56477476768548" lon="10.800341564972836"><ele>182.14285714285714</ele><time>2026-04-18T08:28:14.999Z</time></trkpt><trkpt lat="43.564843089544105" lon="10.800375945588092"><ele>181.42857142857144</ele><time>2026-04-18T08:28:15.999Z</time></trkpt><trkpt lat="43.564912555822154" lon="10.800410904424826"><ele>180.7142857142857</ele><time>2026-04-18T08:28:16.999Z</time></trkpt><trkpt lat="43.564984980185116" lon="10.800442270030079"><ele>180.0</ele><time>2026-04-18T08:28:17.999Z</time></trkpt><trkpt lat="43.56506585106103" lon="10.800458889395468"><ele>180.0</ele><time>2026-04-18T08:28:18.999Z</time></trkpt><trkpt lat="43.56515032615762" lon="10.800456258843875"><ele>180.0</ele><time>2026-04-18T08:28:19.999Z</time></trkpt><trkpt lat="43.56523015618382" lon="10.80044747062554"><ele>180.0</ele><time>2026-04-18T08:28:20.999Z</time></trkpt><trkpt lat="43.56530501989262" lon="10.800438649212591"><ele>180.0</ele><time>2026-04-18T08:28:21.999Z</time></trkpt><trkpt lat="43.565374981654635" lon="10.800442682002203"><ele>180.0</ele><time>2026-04-18T08:28:22.999Z</time></trkpt><trkpt lat="43.56544676500993" lon="10.800457233646386"><ele>180.0</ele><time>2026-04-18T08:28:23.999Z</time></trkpt><trkpt lat="43.56551247085959" lon="10.80048700306391"><ele>180.33333333333334</ele><time>2026-04-18T08:28:24.999Z</time></trkpt><trkpt lat="43.56557639813794" lon="10.800531667241748"><ele>180.66666666666666</ele><time>2026-04-18T08:28:25.999Z</time></trkpt><trkpt lat="43.565626303672445" lon="10.800599751872186"><ele>181.0</ele><time>2026-04-18T08:28:27Z</time></trkpt><trkpt lat="43.565681515869805" lon="10.800672733583065"><ele>181.33333333333331</ele><time>2026-04-18T08:28:28Z</time></trkpt><trkpt lat="43.565734741684075" lon="10.80075968366631"><ele>181.66666666666666</ele><time>2026-04-18T08:28:29Z</time></trkpt><trkpt lat="43.565794973552336" lon="10.800838936901163"><ele>182.0</ele><time>2026-04-18T08:28:30Z</time></trkpt><trkpt lat="43.56586147385984" lon="10.800909079622272"><ele>182.0</ele><time>2026-04-18T08:28:31Z</time></trkpt><trkpt lat="43.5659314675447" lon="10.800970555940191"><ele>182.0</ele><time>2026-04-18T08:28:32Z</time></trkpt><trkpt lat="43.56600860815237" lon="10.80102172324331"><ele>182.0</ele><time>2026-04-18T08:28:33Z</time></trkpt><trkpt lat="43.566087956995204" lon="10.801072853139326"><ele>182.0</ele><time>2026-04-18T08:28:33.999Z</time></trkpt><trkpt lat="43.566170787977065" lon="10.801126858799291"><ele>182.0</ele><time>2026-04-18T08:28:34.999Z</time></trkpt><trkpt lat="43.5662562419315" lon="10.801183788385027"><ele>182.0</ele><time>2026-04-18T08:28:35.999Z</time></trkpt><trkpt lat="43.566344191325356" lon="10.801242267605302"><ele>182.2</ele><time>2026-04-18T08:28:36.999Z</time></trkpt><trkpt lat="43.56643284359148" lon="10.801301160032196"><ele>182.39999999999998</ele><time>2026-04-18T08:28:37.999Z</time></trkpt><trkpt lat="43.56652040197843" lon="10.801357116188113"><ele>182.60000000000002</ele><time>2026-04-18T08:28:38.999Z</time></trkpt><trkpt lat="43.56660163974026" lon="10.801407147302273"><ele>182.8</ele><time>2026-04-18T08:28:39.999Z</time></trkpt><trkpt lat="43.56668471486956" lon="10.801435312097167"><ele>183.0</ele><time>2026-04-18T08:28:40.999Z</time></trkpt><trkpt lat="43.56675424418612" lon="10.801505218794418"><ele>183.0</ele><time>2026-04-18T08:28:41.999Z</time></trkpt><trkpt lat="43.56683359769281" lon="10.801557126370323"><ele>183.0</ele><time>2026-04-18T08:28:42.999Z</time></trkpt><trkpt lat="43.56692000538894" lon="10.801603883532248"><ele>183.0</ele><time>2026-04-18T08:28:43.999Z</time></trkpt><trkpt lat="43.56700772989904" lon="10.801651347116705"><ele>183.0</ele><time>2026-04-18T08:28:44.999Z</time></trkpt><trkpt lat="43.567101810181036" lon="10.801698880511733"><ele>183.0</ele><time>2026-04-18T08:28:45.999Z</time></trkpt><trkpt lat="43.567200302456186" lon="10.801747882798399"><ele>183.0</ele><time>2026-04-18T08:28:46.999Z</time></trkpt><trkpt lat="43.567302937443955" lon="10.801795399756339"><ele>183.0</ele><time>2026-04-18T08:28:47.999Z</time></trkpt><trkpt lat="43.5674060306675" lon="10.801835508464965"><ele>183.0</ele><time>2026-04-18T08:28:48.999Z</time></trkpt><trkpt lat="43.567509039574574" lon="10.801865771394446"><ele>183.0</ele><time>2026-04-18T08:28:49.999Z</time></trkpt><trkpt lat="43.56760899153029" lon="10.801885913364579"><ele>183.0</ele><time>2026-04-18T08:28:50.999Z</time></trkpt><trkpt lat="43.56770791645897" lon="10.801900968667457"><ele>183.0</ele><time>2026-04-18T08:28:51.999Z</time></trkpt><trkpt lat="43.56781249078591" lon="10.801904993670442"><ele>183.0</ele><time>2026-04-18T08:28:52.999Z</time></trkpt><trkpt lat="43.56792086351981" lon="10.8019072355582"><ele>183.0</ele><time>2026-04-18T08:28:53.999Z</time></trkpt><trkpt lat="43.56803179625826" lon="10.801914238041803"><ele>183.0</ele><time>2026-04-18T08:28:54.999Z</time></trkpt><trkpt lat="43.568147435666766" lon="10.80192113653848"><ele>183.0</ele><time>2026-04-18T08:28:55.999Z</time></trkpt><trkpt lat="43.56826645434583" lon="10.801926983862737"><ele>182.5</ele><time>2026-04-18T08:28:56.999Z</time></trkpt><trkpt lat="43.56838503050623" lon="10.801932879159214"><ele>182.0</ele><time>2026-04-18T08:28:57.999Z</time></trkpt><trkpt lat="43.56850383849845" lon="10.80193917865966"><ele>181.5</ele><time>2026-04-18T08:28:58.999Z</time></trkpt><trkpt lat="43.56862398057136" lon="10.801945423207034"><ele>181.0</ele><time>2026-04-18T08:28:59.999Z</time></trkpt><trkpt lat="43.56873998335992" lon="10.801955077491604"><ele>183.60000000000002</ele><time>2026-04-18T08:29:00.999Z</time></trkpt><trkpt lat="43.56885093768192" lon="10.8019588357073"><ele>186.2</ele><time>2026-04-18T08:29:01.999Z</time></trkpt><trkpt lat="43.568960847293845" lon="10.801937951108462"><ele>188.8</ele><time>2026-04-18T08:29:02.999Z</time></trkpt><trkpt lat="43.569066362889274" lon="10.801896267169568"><ele>191.39999999999998</ele><time>2026-04-18T08:29:03.999Z</time></trkpt><trkpt lat="43.569168904614735" lon="10.801846029004121"><ele>194.0</ele><time>2026-04-18T08:29:04.999Z</time></trkpt><trkpt lat="43.569266206582306" lon="10.801810245591057"><ele>194.00000000000003</ele><time>2026-04-18T08:29:05.999Z</time></trkpt><trkpt lat="43.56935841936862" lon="10.801821998249075"><ele>194.0</ele><time>2026-04-18T08:29:06.999Z</time></trkpt><trkpt lat="43.56943703646636" lon="10.801831610048875"><ele>194.0</ele><time>2026-04-18T08:29:07.999Z</time></trkpt><trkpt lat="43.56949086519739" lon="10.801916984053982"><ele>194.0</ele><time>2026-04-18T08:29:08.999Z</time></trkpt><trkpt lat="43.56954232454236" lon="10.802002126943119"><ele>194.00000000000003</ele><time>2026-04-18T08:29:09.999Z</time></trkpt><trkpt lat="43.56959203392757" lon="10.802087093282088"><ele>194.0</ele><time>2026-04-18T08:29:10.999Z</time></trkpt><trkpt lat="43.569633858530196" lon="10.802173033094201"><ele>195.83333333333334</ele><time>2026-04-18T08:29:11.999Z</time></trkpt><trkpt lat="43.56967692916812" lon="10.802264041039665"><ele>197.66666666666669</ele><time>2026-04-18T08:29:12.999Z</time></trkpt><trkpt lat="43.56971872474499" lon="10.802358384303936"><ele>199.5</ele><time>2026-04-18T08:29:13.999Z</time></trkpt><trkpt lat="43.56976118281325" lon="10.802456813719207"><ele>201.33333333333331</ele><time>2026-04-18T08:29:14.999Z</time></trkpt><trkpt lat="43.569802593003324" lon="10.802556827885835"><ele>203.16666666666666</ele><time>2026-04-18T08:29:15.999Z</time></trkpt><trkpt lat="43.56984719218909" lon="10.802664545232629"><ele>205.0</ele><time>2026-04-18T08:29:16.999Z</time></trkpt><trkpt lat="43.56989961705201" lon="10.802779596884948"><ele>205.0</ele><time>2026-04-18T08:29:17.999Z</time></trkpt><trkpt lat="43.56996476888122" lon="10.802890443634602"><ele>205.0</ele><time>2026-04-18T08:29:18.999Z</time></trkpt><trkpt lat="43.57001852351976" lon="10.80301535830438"><ele>205.0</ele><time>2026-04-18T08:29:19.999Z</time></trkpt><trkpt lat="43.57008200454563" lon="10.803132445868647"><ele>205.0</ele><time>2026-04-18T08:29:20.999Z</time></trkpt><trkpt lat="43.570155812495614" lon="10.803235248038947"><ele>205.0</ele><time>2026-04-18T08:29:21.999Z</time></trkpt><trkpt lat="43.57024207550857" lon="10.803313540193315"><ele>205.0</ele><time>2026-04-18T08:29:22.999Z</time></trkpt><trkpt lat="43.570336596856556" lon="10.803371337786519"><ele>205.0</ele><time>2026-04-18T08:29:23.999Z</time></trkpt><trkpt lat="43.57043114352702" lon="10.80342130098812"><ele>205.0</ele><time>2026-04-18T08:29:24.999Z</time></trkpt><trkpt lat="43.57052693259624" lon="10.803475960723029"><ele>205.0</ele><time>2026-04-18T08:29:25.998Z</time></trkpt><trkpt lat="43.57062504486057" lon="10.803529705898494"><ele>205.0</ele><time>2026-04-18T08:29:26.998Z</time></trkpt><trkpt lat="43.57072179478739" lon="10.803587101387674"><ele>204.4</ele><time>2026-04-18T08:29:27.998Z</time></trkpt><trkpt lat="43.57080390655095" lon="10.803666869758976"><ele>203.8</ele><time>2026-04-18T08:29:28.998Z</time></trkpt><trkpt lat="43.570895370022534" lon="10.803723938988725"><ele>203.2</ele><time>2026-04-18T08:29:29.998Z</time></trkpt><trkpt lat="43.57095044449888" lon="10.803844820703459"><ele>202.6</ele><time>2026-04-18T08:29:30.998Z</time></trkpt><trkpt lat="43.57100538040066" lon="10.803965701008021"><ele>202.0</ele><time>2026-04-18T08:29:31.998Z</time></trkpt><trkpt lat="43.5710421743312" lon="10.804096645153153"><ele>202.0</ele><time>2026-04-18T08:29:32.998Z</time></trkpt><trkpt lat="43.571081857138715" lon="10.804235381916671"><ele>202.0</ele><time>2026-04-18T08:29:34Z</time></trkpt><trkpt lat="43.57109403390133" lon="10.804393990721856"><ele>202.0</ele><time>2026-04-18T08:29:35Z</time></trkpt><trkpt lat="43.57109114414242" lon="10.80456414544565"><ele>202.0</ele><time>2026-04-18T08:29:36Z</time></trkpt><trkpt lat="43.571079729101164" lon="10.80474147381772"><ele>199.5</ele><time>2026-04-18T08:29:37Z</time></trkpt><trkpt lat="43.571057952462795" lon="10.804923999784693"><ele>197.0</ele><time>2026-04-18T08:29:38Z</time></trkpt><trkpt lat="43.57103948060717" lon="10.80510791744946"><ele>194.5</ele><time>2026-04-18T08:29:39Z</time></trkpt><trkpt lat="43.571020135447526" lon="10.805281421984526"><ele>192.0</ele><time>2026-04-18T08:29:40Z</time></trkpt><trkpt lat="43.571002703972944" lon="10.805455112461129"><ele>189.25</ele><time>2026-04-18T08:29:41Z</time></trkpt><trkpt lat="43.57098767090447" lon="10.805621447967905"><ele>186.5</ele><time>2026-04-18T08:29:42Z</time></trkpt><trkpt lat="43.57098094558695" lon="10.805785245205374"><ele>183.75</ele><time>2026-04-18T08:29:43Z</time></trkpt><trkpt lat="43.57099128859878" lon="10.805951151908843"><ele>181.0</ele><time>2026-04-18T08:29:44Z</time></trkpt><trkpt lat="43.571010126349904" lon="10.806119738562378"><ele>179.75</ele><time>2026-04-18T08:29:45Z</time></trkpt><trkpt lat="43.57103489530231" lon="10.80629217642965"><ele>178.5</ele><time>2026-04-18T08:29:46Z</time></trkpt><trkpt lat="43.57104385374054" lon="10.80647383217514"><ele>177.25</ele><time>2026-04-18T08:29:47Z</time></trkpt><trkpt lat="43.57106972101028" lon="10.806648798266341"><ele>176.0</ele><time>2026-04-18T08:29:48Z</time></trkpt><trkpt lat="43.57109784063601" lon="10.806820639405487"><ele>176.8</ele><time>2026-04-18T08:29:49Z</time></trkpt><trkpt lat="43.571125060780005" lon="10.806983490787621"><ele>177.60000000000002</ele><time>2026-04-18T08:29:50Z</time></trkpt><trkpt lat="43.57114934931767" lon="10.80713412434608"><ele>178.4</ele><time>2026-04-18T08:29:51Z</time></trkpt><trkpt lat="43.57116199972871" lon="10.807278320985159"><ele>179.2</ele><time>2026-04-18T08:29:52Z</time></trkpt><trkpt lat="43.57115286670515" lon="10.807412105295494"><ele>180.0</ele><time>2026-04-18T08:29:53Z</time></trkpt><trkpt lat="43.57113070371748" lon="10.807544863817835"><ele>179.2</ele><time>2026-04-18T08:29:54Z</time></trkpt><trkpt lat="43.571090909715565" lon="10.807668509508312"><ele>178.4</ele><time>2026-04-18T08:29:55Z</time></trkpt><trkpt lat="43.57103366452657" lon="10.80778423706656"><ele>177.60000000000002</ele><time>2026-04-18T08:29:56Z</time></trkpt><trkpt lat="43.5709676616789" lon="10.807901520271948"><ele>176.8</ele><time>2026-04-18T08:29:57Z</time></trkpt><trkpt lat="43.57089262932053" lon="10.808023852924974"><ele>176.0</ele><time>2026-04-18T08:29:58Z</time></trkpt><trkpt lat="43.57081339124813" lon="10.808153356349058"><ele>176.0</ele><time>2026-04-18T08:29:59Z</time></trkpt><trkpt lat="43.570735574199745" lon="10.808283339296546"><ele>176.0</ele><time>2026-04-18T08:30:00Z</time></trkpt><trkpt lat="43.57065829320932" lon="10.808415602677576"><ele>176.0</ele><time>2026-04-18T08:30:01Z</time></trkpt><trkpt lat="43.57058171710911" lon="10.808538836156321"><ele>176.0</ele><time>2026-04-18T08:30:02Z</time></trkpt><trkpt lat="43.570503717094354" lon="10.808650364653104"><ele>174.8</ele><time>2026-04-18T08:30:03Z</time></trkpt><trkpt lat="43.57041981472802" lon="10.808740522301893"><ele>173.60000000000002</ele><time>2026-04-18T08:30:04Z</time></trkpt><trkpt lat="43.57033314050838" lon="10.808805893741056"><ele>172.4</ele><time>2026-04-18T08:30:05Z</time></trkpt><trkpt lat="43.570239731695544" lon="10.80884045291093"><ele>171.2</ele><time>2026-04-18T08:30:06Z</time></trkpt><trkpt lat="43.5701421000313" lon="10.808846944912128"><ele>170.0</ele><time>2026-04-18T08:30:07Z</time></trkpt><trkpt lat="43.570044805253325" lon="10.808825406004527"><ele>170.0</ele><time>2026-04-18T08:30:08Z</time></trkpt><trkpt lat="43.56994943045311" lon="10.808785074816953"><ele>170.0</ele><time>2026-04-18T08:30:09Z</time></trkpt><trkpt lat="43.569856384944394" lon="10.808729434199106"><ele>170.0</ele><time>2026-04-18T08:30:10Z</time></trkpt><trkpt lat="43.56976455268917" lon="10.808670862119692"><ele>170.0</ele><time>2026-04-18T08:30:11Z</time></trkpt><trkpt lat="43.56966929043391" lon="10.80862743654127"><ele>170.0</ele><time>2026-04-18T08:30:12Z</time></trkpt><trkpt lat="43.569567694865675" lon="10.808614174462058"><ele>169.5</ele><time>2026-04-18T08:30:13Z</time></trkpt><trkpt lat="43.56946202706955" lon="10.808645180638926"><ele>169.0</ele><time>2026-04-18T08:30:14Z</time></trkpt><trkpt lat="43.56935718761155" lon="10.808705088986692"><ele>168.5</ele><time>2026-04-18T08:30:15Z</time></trkpt><trkpt lat="43.569256440109456" lon="10.808779682250806"><ele>168.0</ele><time>2026-04-18T08:30:16Z</time></trkpt><trkpt lat="43.56915473405153" lon="10.808886227860372"><ele>168.0</ele><time>2026-04-18T08:30:17Z</time></trkpt><trkpt lat="43.569056263301924" lon="10.809003214854974"><ele>168.0</ele><time>2026-04-18T08:30:18Z</time></trkpt><trkpt lat="43.568967944143935" lon="10.809127428358549"><ele>168.0</ele><time>2026-04-18T08:30:19Z</time></trkpt><trkpt lat="43.56888746683419" lon="10.809258096000402"><ele>168.0</ele><time>2026-04-18T08:30:20Z</time></trkpt><trkpt lat="43.5688135280478" lon="10.809384121656525"><ele>168.2</ele><time>2026-04-18T08:30:21Z</time></trkpt><trkpt lat="43.568746775717216" lon="10.80950315663113"><ele>168.4</ele><time>2026-04-18T08:30:22Z</time></trkpt><trkpt lat="43.568681863156286" lon="10.809614085850452"><ele>168.6</ele><time>2026-04-18T08:30:23Z</time></trkpt><trkpt lat="43.56861452619811" lon="10.809714098064594"><ele>168.79999999999998</ele><time>2026-04-18T08:30:24Z</time></trkpt><trkpt lat="43.56854123487492" lon="10.809789200609512"><ele>169.0</ele><time>2026-04-18T08:30:25Z</time></trkpt><trkpt lat="43.56846097653148" lon="10.809843388938209"><ele>169.0</ele><time>2026-04-18T08:30:26Z</time></trkpt><trkpt lat="43.56837658983707" lon="10.809874875095906"><ele>169.0</ele><time>2026-04-18T08:30:27Z</time></trkpt><trkpt lat="43.56828892109658" lon="10.809895460447498"><ele>169.0</ele><time>2026-04-18T08:30:28Z</time></trkpt><trkpt lat="43.56820076535016" lon="10.809914651938614"><ele>169.0</ele><time>2026-04-18T08:30:29Z</time></trkpt><trkpt lat="43.568113963425155" lon="10.809955808228917"><ele>169.0</ele><time>2026-04-18T08:30:30Z</time></trkpt><trkpt lat="43.568033398130524" lon="10.810027649756776"><ele>169.0</ele><time>2026-04-18T08:30:31Z</time></trkpt><trkpt lat="43.567965410997864" lon="10.810131379745322"><ele>169.0</ele><time>2026-04-18T08:30:32Z</time></trkpt><trkpt lat="43.56790476156311" lon="10.810249425175652"><ele>169.0</ele><time>2026-04-18T08:30:33Z</time></trkpt><trkpt lat="43.56784550154087" lon="10.810368704220165"><ele>169.0</ele><time>2026-04-18T08:30:34Z</time></trkpt><trkpt lat="43.56779096415573" lon="10.810489654858875"><ele>169.0</ele><time>2026-04-18T08:30:35Z</time></trkpt><trkpt lat="43.567749372224554" lon="10.810617458272358"><ele>170.0</ele><time>2026-04-18T08:30:36Z</time></trkpt><trkpt lat="43.567730715620904" lon="10.810757196647655"><ele>171.0</ele><time>2026-04-18T08:30:37Z</time></trkpt><trkpt lat="43.5677376417079" lon="10.810900152521077"><ele>172.0</ele><time>2026-04-18T08:30:38Z</time></trkpt><trkpt lat="43.56776795868295" lon="10.811036665912368"><ele>173.0</ele><time>2026-04-18T08:30:39Z</time></trkpt><trkpt lat="43.567811884198456" lon="10.81116242081604"><ele>174.0</ele><time>2026-04-18T08:30:40Z</time></trkpt><trkpt lat="43.56785428561682" lon="10.811288995110944"><ele>174.39999999999998</ele><time>2026-04-18T08:30:40.999Z</time></trkpt><trkpt lat="43.56789530564533" lon="10.811420036289398"><ele>174.8</ele><time>2026-04-18T08:30:41.999Z</time></trkpt><trkpt lat="43.567933980506666" lon="10.811556244026889"><ele>175.2</ele><time>2026-04-18T08:30:42.999Z</time></trkpt><trkpt lat="43.56797066153022" lon="10.811698340691644"><ele>175.60000000000002</ele><time>2026-04-18T08:30:43.999Z</time></trkpt><trkpt lat="43.56800669368692" lon="10.81184535951445"><ele>176.0</ele><time>2026-04-18T08:30:44.999Z</time></trkpt><trkpt lat="43.56804170010354" lon="10.811995090551294"><ele>176.0</ele><time>2026-04-18T08:30:45.999Z</time></trkpt><trkpt lat="43.56807953915285" lon="10.812148670055553"><ele>176.0</ele><time>2026-04-18T08:30:46.999Z</time></trkpt><trkpt lat="43.56811600851881" lon="10.812297510105795"><ele>176.0</ele><time>2026-04-18T08:30:47.999Z</time></trkpt><trkpt lat="43.568151096426064" lon="10.812440600899725"><ele>176.0</ele><time>2026-04-18T08:30:48.999Z</time></trkpt><trkpt lat="43.5681847432492" lon="10.812570731402149"><ele>176.0</ele><time>2026-04-18T08:30:49.999Z</time></trkpt><trkpt lat="43.568212565931056" lon="10.81269536311085"><ele>175.20000000000002</ele><time>2026-04-18T08:30:50.999Z</time></trkpt><trkpt lat="43.56821397458741" lon="10.812812976816142"><ele>174.4</ele><time>2026-04-18T08:30:51.999Z</time></trkpt><trkpt lat="43.568196851489006" lon="10.812925326680721"><ele>173.6</ele><time>2026-04-18T08:30:52.999Z</time></trkpt><trkpt lat="43.568166850628785" lon="10.813042304167329"><ele>172.8</ele><time>2026-04-18T08:30:53.999Z</time></trkpt><trkpt lat="43.568122050946236" lon="10.813158884077746"><ele>172.0</ele><time>2026-04-18T08:30:54.999Z</time></trkpt><trkpt lat="43.568071560879524" lon="10.813278019525388"><ele>172.0</ele><time>2026-04-18T08:30:55.999Z</time></trkpt><trkpt lat="43.56802628249655" lon="10.813406502551539"><ele>172.0</ele><time>2026-04-18T08:30:56.999Z</time></trkpt><trkpt lat="43.56799869117591" lon="10.813546290801236"><ele>172.0</ele><time>2026-04-18T08:30:57.999Z</time></trkpt><trkpt lat="43.56799545825264" lon="10.813700514913204"><ele>172.0</ele><time>2026-04-18T08:30:58.999Z</time></trkpt><trkpt lat="43.568002063942956" lon="10.81386205577544"><ele>172.0</ele><time>2026-04-18T08:30:59.999Z</time></trkpt><trkpt lat="43.56801845558596" lon="10.814029622629048"><ele>172.25</ele><time>2026-04-18T08:31:00.999Z</time></trkpt><trkpt lat="43.568038965129205" lon="10.814206040894623"><ele>172.5</ele><time>2026-04-18T08:31:01.999Z</time></trkpt><trkpt lat="43.56805897372683" lon="10.814386430554016"><ele>172.75</ele><time>2026-04-18T08:31:02.999Z</time></trkpt><trkpt lat="43.56807896196026" lon="10.814568822928042"><ele>173.0</ele><time>2026-04-18T08:31:03.999Z</time></trkpt><trkpt lat="43.5680974545596" lon="10.814749959542173"><ele>174.25</ele><time>2026-04-18T08:31:04.999Z</time></trkpt><trkpt lat="43.5681160651804" lon="10.814930679275777"><ele>175.5</ele><time>2026-04-18T08:31:05.999Z</time></trkpt><trkpt lat="43.56813669346993" lon="10.81510871846364"><ele>176.75</ele><time>2026-04-18T08:31:06.999Z</time></trkpt><trkpt lat="43.56815951095298" lon="10.815285593370206"><ele>178.0</ele><time>2026-04-18T08:31:07.999Z</time></trkpt><trkpt lat="43.568191022215615" lon="10.815462364455257"><ele>178.0</ele><time>2026-04-18T08:31:08.999Z</time></trkpt><trkpt lat="43.568233778295635" lon="10.81563405883599"><ele>178.0</ele><time>2026-04-18T08:31:09.999Z</time></trkpt><trkpt lat="43.56828656496243" lon="10.815802204711419"><ele>178.0</ele><time>2026-04-18T08:31:10.999Z</time></trkpt><trkpt lat="43.56834903374893" lon="10.8159647659465"><ele>178.0</ele><time>2026-04-18T08:31:11.999Z</time></trkpt><trkpt lat="43.568419369341854" lon="10.81612022104729"><ele>178.0</ele><time>2026-04-18T08:31:12.999Z</time></trkpt><trkpt lat="43.56849621896563" lon="10.816269807647386"><ele>178.0</ele><time>2026-04-18T08:31:13.999Z</time></trkpt><trkpt lat="43.568572104008204" lon="10.816422920631968"><ele>178.0</ele><time>2026-04-18T08:31:14.999Z</time></trkpt><trkpt lat="43.56864983474195" lon="10.81657648927712"><ele>178.0</ele><time>2026-04-18T08:31:15.999Z</time></trkpt><trkpt lat="43.56872564794946" lon="10.816730608021448"><ele>179.0</ele><time>2026-04-18T08:31:16.999Z</time></trkpt><trkpt lat="43.568799105384414" lon="10.816886183108425"><ele>180.0</ele><time>2026-04-18T08:31:17.999Z</time></trkpt><trkpt lat="43.568871486172284" lon="10.817042265169263"><ele>181.0</ele><time>2026-04-18T08:31:18.999Z</time></trkpt><trkpt lat="43.568941570460616" lon="10.817198460252436"><ele>182.0</ele><time>2026-04-18T08:31:19.999Z</time></trkpt><trkpt lat="43.56901044523523" lon="10.817351550038609"><ele>182.0</ele><time>2026-04-18T08:31:20.999Z</time></trkpt><trkpt lat="43.569073624965014" lon="10.817502896399134"><ele>182.0</ele><time>2026-04-18T08:31:21.999Z</time></trkpt><trkpt lat="43.56913518420538" lon="10.817653872115812"><ele>182.0</ele><time>2026-04-18T08:31:22.999Z</time></trkpt><trkpt lat="43.56919403894784" lon="10.817802294794657"><ele>182.0</ele><time>2026-04-18T08:31:23.999Z</time></trkpt><trkpt lat="43.569251761712984" lon="10.81794109805766"><ele>180.0</ele><time>2026-04-18T08:31:24.999Z</time></trkpt><trkpt lat="43.56930774132545" lon="10.818072991189895"><ele>178.0</ele><time>2026-04-18T08:31:25.999Z</time></trkpt><trkpt lat="43.569359156696656" lon="10.818202280328661"><ele>176.0</ele><time>2026-04-18T08:31:26.999Z</time></trkpt><trkpt lat="43.56940831876582" lon="10.818336185909045"><ele>174.0</ele><time>2026-04-18T08:31:27.999Z</time></trkpt><trkpt lat="43.56945222944676" lon="10.818479155982821"><ele>172.0</ele><time>2026-04-18T08:31:28.999Z</time></trkpt><trkpt lat="43.56948303955212" lon="10.818633454215055"><ele>171.5</ele><time>2026-04-18T08:31:29.999Z</time></trkpt><trkpt lat="43.56949521229465" lon="10.81879268139638"><ele>171.0</ele><time>2026-04-18T08:31:30.999Z</time></trkpt><trkpt lat="43.56949267415979" lon="10.81895108222919"><ele>170.5</ele><time>2026-04-18T08:31:31.999Z</time></trkpt><trkpt lat="43.56946698935789" lon="10.819102606289018"><ele>170.0</ele><time>2026-04-18T08:31:32.998Z</time></trkpt><trkpt lat="43.569417876397075" lon="10.819240628804128"><ele>169.75</ele><time>2026-04-18T08:31:33.998Z</time></trkpt><trkpt lat="43.569350282540555" lon="10.81936558404895"><ele>169.5</ele><time>2026-04-18T08:31:34.998Z</time></trkpt><trkpt lat="43.56928443356809" lon="10.81949536431141"><ele>169.25</ele><time>2026-04-18T08:31:35.998Z</time></trkpt><trkpt lat="43.56921672550279" lon="10.819629307721788"><ele>169.0</ele><time>2026-04-18T08:31:36.998Z</time></trkpt><trkpt lat="43.56914906473288" lon="10.819764846639353"><ele>169.0</ele><time>2026-04-18T08:31:37.998Z</time></trkpt><trkpt lat="43.5690865535877" lon="10.819904140999638"><ele>169.0</ele><time>2026-04-18T08:31:38.998Z</time></trkpt><trkpt lat="43.56902698228259" lon="10.820043823829948"><ele>169.0</ele><time>2026-04-18T08:31:40Z</time></trkpt><trkpt lat="43.56896513061854" lon="10.82017422404807"><ele>169.0</ele><time>2026-04-18T08:31:41Z</time></trkpt><trkpt lat="43.5689163213299" lon="10.820307856013338"><ele>167.6</ele><time>2026-04-18T08:31:42Z</time></trkpt><trkpt lat="43.56888264063077" lon="10.820444553991432"><ele>166.2</ele><time>2026-04-18T08:31:43Z</time></trkpt><trkpt lat="43.568871641667" lon="10.820585288253056"><ele>164.79999999999998</ele><time>2026-04-18T08:31:44Z</time></trkpt><trkpt lat="43.56888395956863" lon="10.820740320262727"><ele>163.39999999999998</ele><time>2026-04-18T08:31:45Z</time></trkpt><trkpt lat="43.56890967910829" lon="10.820896208543118"><ele>162.0</ele><time>2026-04-18T08:31:46Z</time></trkpt><trkpt lat="43.568936460268965" lon="10.821059731053872"><ele>159.75</ele><time>2026-04-18T08:31:47Z</time></trkpt><trkpt lat="43.568965946904925" lon="10.821233456677145"><ele>157.5</ele><time>2026-04-18T08:31:48Z</time></trkpt><trkpt lat="43.56899777469176" lon="10.82142059722888"><ele>155.25</ele><time>2026-04-18T08:31:49Z</time></trkpt><trkpt lat="43.56903041997679" lon="10.821611028835841"><ele>153.0</ele><time>2026-04-18T08:31:50Z</time></trkpt><trkpt lat="43.56906049013664" lon="10.821802588670169"><ele>151.75</ele><time>2026-04-18T08:31:51Z</time></trkpt><trkpt lat="43.56907980635985" lon="10.821997691711054"><ele>150.5</ele><time>2026-04-18T08:31:52Z</time></trkpt><trkpt lat="43.56908715137166" lon="10.822194747596477"><ele>149.25</ele><time>2026-04-18T08:31:53Z</time></trkpt><trkpt lat="43.56908226416479" lon="10.822393116580034"><ele>148.0</ele><time>2026-04-18T08:31:54Z</time></trkpt><trkpt lat="43.56906951195852" lon="10.822591567209189"><ele>147.5</ele><time>2026-04-18T08:31:55Z</time></trkpt><trkpt lat="43.5690540002957" lon="10.822794355024412"><ele>147.0</ele><time>2026-04-18T08:31:56Z</time></trkpt><trkpt lat="43.56903810626976" lon="10.822995294353802"><ele>146.5</ele><time>2026-04-18T08:31:57Z</time></trkpt><trkpt lat="43.56902221014062" lon="10.823187543629361"><ele>146.0</ele><time>2026-04-18T08:31:58Z</time></trkpt><trkpt lat="43.56900330764064" lon="10.823367352021403"><ele>144.75</ele><time>2026-04-18T08:31:59Z</time></trkpt><trkpt lat="43.56897875556834" lon="10.823544831857605"><ele>143.5</ele><time>2026-04-18T08:32:00Z</time></trkpt><trkpt lat="43.56895378209762" lon="10.823714217106161"><ele>142.25</ele><time>2026-04-18T08:32:01Z</time></trkpt><trkpt lat="43.568928672752094" lon="10.823877579890532"><ele>141.0</ele><time>2026-04-18T08:32:02Z</time></trkpt><trkpt lat="43.56890035833073" lon="10.82403332952252"><ele>141.0</ele><time>2026-04-18T08:32:03Z</time></trkpt><trkpt lat="43.56887382014243" lon="10.824185145480014"><ele>141.0</ele><time>2026-04-18T08:32:04Z</time></trkpt><trkpt lat="43.56884609490539" lon="10.82433447694782"><ele>141.0</ele><time>2026-04-18T08:32:05Z</time></trkpt><trkpt lat="43.56882116234459" lon="10.824475175312115"><ele>141.0</ele><time>2026-04-18T08:32:06Z</time></trkpt><trkpt lat="43.56879575655163" lon="10.824601971581345"><ele>141.0</ele><time>2026-04-18T08:32:07Z</time></trkpt><trkpt lat="43.568779201721576" lon="10.824704036374106"><ele>140.33333333333334</ele><time>2026-04-18T08:32:08Z</time></trkpt><trkpt lat="43.568772882637575" lon="10.824792725938876"><ele>139.66666666666666</ele><time>2026-04-18T08:32:09Z</time></trkpt><trkpt lat="43.56876848121017" lon="10.824890170971356"><ele>139.0</ele><time>2026-04-18T08:32:11Z</time></trkpt><trkpt lat="43.56874641861023" lon="10.824983477545747"><ele>138.33333333333331</ele><time>2026-04-18T08:32:14Z</time></trkpt><trkpt lat="43.5686657568894" lon="10.82503203596506"><ele>137.66666666666666</ele><time>2026-04-18T08:32:17Z</time></trkpt><trkpt lat="43.56860783760227" lon="10.824951270969951"><ele>137.0</ele><time>2026-04-18T08:32:19Z</time></trkpt><trkpt lat="43.56857517731332" lon="10.824780939978563"><ele>136.79999999999998</ele><time>2026-04-18T08:32:21Z</time></trkpt><trkpt lat="43.5685653502439" lon="10.824667844313748"><ele>136.6</ele><time>2026-04-18T08:32:22Z</time></trkpt><trkpt lat="43.568551790357475" lon="10.824537562532708"><ele>136.39999999999998</ele><time>2026-04-18T08:32:23Z</time></trkpt><trkpt lat="43.56853648169296" lon="10.82439615197596"><ele>136.2</ele><time>2026-04-18T08:32:24Z</time></trkpt><trkpt lat="43.56851633485154" lon="10.824244465064215"><ele>136.0</ele><time>2026-04-18T08:32:25Z</time></trkpt><trkpt lat="43.56849478337076" lon="10.824084674611129"><ele>134.75</ele><time>2026-04-18T08:32:26Z</time></trkpt><trkpt lat="43.56847596717465" lon="10.823918199229801"><ele>133.5</ele><time>2026-04-18T08:32:27Z</time></trkpt><trkpt lat="43.568460454901015" lon="10.823744816104078"><ele>132.25</ele><time>2026-04-18T08:32:28Z</time></trkpt><trkpt lat="43.56844476427508" lon="10.823563214102945"><ele>131.0</ele><time>2026-04-18T08:32:29Z</time></trkpt><trkpt lat="43.56842998072313" lon="10.823376902204199"><ele>130.75</ele><time>2026-04-18T08:32:30Z</time></trkpt><trkpt lat="43.56841970812868" lon="10.8231883580821"><ele>130.5</ele><time>2026-04-18T08:32:31Z</time></trkpt><trkpt lat="43.56840546599277" lon="10.822995644881594"><ele>130.25</ele><time>2026-04-18T08:32:32Z</time></trkpt><trkpt lat="43.56839006154185" lon="10.822807677340242"><ele>130.0</ele><time>2026-04-18T08:32:33Z</time></trkpt><trkpt lat="43.56837524069351" lon="10.822620797680091"><ele>130.0</ele><time>2026-04-18T08:32:34Z</time></trkpt><trkpt lat="43.56835978236352" lon="10.822444471922568"><ele>130.0</ele><time>2026-04-18T08:32:35Z</time></trkpt><trkpt lat="43.56833262986404" lon="10.822280581817445"><ele>130.0</ele><time>2026-04-18T08:32:36Z</time></trkpt><trkpt lat="43.568286950720044" lon="10.822128917585898"><ele>130.0</ele><time>2026-04-18T08:32:37Z</time></trkpt><trkpt lat="43.568205505839586" lon="10.821969901517441"><ele>130.0</ele><time>2026-04-18T08:32:38Z</time></trkpt><trkpt lat="43.56809558573331" lon="10.821901391775759"><ele>130.0</ele><time>2026-04-18T08:32:38.999Z</time></trkpt><trkpt lat="43.56798499248976" lon="10.821839395058252"><ele>130.0</ele><time>2026-04-18T08:32:39.999Z</time></trkpt><trkpt lat="43.567854458906574" lon="10.821809729046114"><ele>130.0</ele><time>2026-04-18T08:32:40.999Z</time></trkpt><trkpt lat="43.56772267364031" lon="10.821779455609521"><ele>129.0</ele><time>2026-04-18T08:32:41.999Z</time></trkpt><trkpt lat="43.56757955509692" lon="10.821746706734238"><ele>128.0</ele><time>2026-04-18T08:32:42.999Z</time></trkpt><trkpt lat="43.56743698129377" lon="10.821705192525826"><ele>127.0</ele><time>2026-04-18T08:32:43.999Z</time></trkpt><trkpt lat="43.56729441540248" lon="10.821661922792977"><ele>126.0</ele><time>2026-04-18T08:32:44.999Z</time></trkpt><trkpt lat="43.56716527026781" lon="10.821621379588427"><ele>126.0</ele><time>2026-04-18T08:32:45.999Z</time></trkpt><trkpt lat="43.567042064307195" lon="10.821584320759575"><ele>126.0</ele><time>2026-04-18T08:32:46.999Z</time></trkpt><trkpt lat="43.566926146450044" lon="10.821553202865916"><ele>126.0</ele><time>2026-04-18T08:32:47.999Z</time></trkpt><trkpt lat="43.566818430345386" lon="10.82151920800738"><ele>126.0</ele><time>2026-04-18T08:32:48.999Z</time></trkpt><trkpt lat="43.56670176539941" lon="10.821490159080627"><ele>122.8</ele><time>2026-04-18T08:32:49.999Z</time></trkpt><trkpt lat="43.56659606901343" lon="10.821459760508047"><ele>119.6</ele><time>2026-04-18T08:32:50.999Z</time></trkpt><trkpt lat="43.56649837489972" lon="10.821416318700825"><ele>116.4</ele><time>2026-04-18T08:32:51.999Z</time></trkpt><trkpt lat="43.56639901680627" lon="10.821378381959226"><ele>113.2</ele><time>2026-04-18T08:32:52.999Z</time></trkpt><trkpt lat="43.566296962555406" lon="10.821344299785842"><ele>110.0</ele><time>2026-04-18T08:32:53.999Z</time></trkpt><trkpt lat="43.5661936880963" lon="10.821317341341548"><ele>107.8</ele><time>2026-04-18T08:32:54.999Z</time></trkpt><trkpt lat="43.56609568389314" lon="10.821293662344422"><ele>105.6</ele><time>2026-04-18T08:32:55.999Z</time></trkpt><trkpt lat="43.56599577952186" lon="10.821278104756042"><ele>103.4</ele><time>2026-04-18T08:32:56.999Z</time></trkpt><trkpt lat="43.5658957989481" lon="10.821257846544972"><ele>101.2</ele><time>2026-04-18T08:32:57.999Z</time></trkpt><trkpt lat="43.5657943651355" lon="10.821231169043871"><ele>99.0</ele><time>2026-04-18T08:32:58.999Z</time></trkpt><trkpt lat="43.565692626316036" lon="10.821192092790863"><ele>99.0</ele><time>2026-04-18T08:32:59.999Z</time></trkpt><trkpt lat="43.565593800177645" lon="10.821138247980581"><ele>99.0</ele><time>2026-04-18T08:33:00.999Z</time></trkpt><trkpt lat="43.56549849947498" lon="10.821063754006865"><ele>99.0</ele><time>2026-04-18T08:33:01.999Z</time></trkpt><trkpt lat="43.565404463562714" lon="10.820974773152553"><ele>99.0</ele><time>2026-04-18T08:33:02.999Z</time></trkpt><trkpt lat="43.56530274746641" lon="10.82086875152022"><ele>99.0</ele><time>2026-04-18T08:33:03.999Z</time></trkpt><trkpt lat="43.565197765305925" lon="10.82074682479813"><ele>99.0</ele><time>2026-04-18T08:33:04.999Z</time></trkpt><trkpt lat="43.56508713822213" lon="10.82062165878155"><ele>99.0</ele><time>2026-04-18T08:33:05.999Z</time></trkpt><trkpt lat="43.56497372258629" lon="10.820493980548811"><ele>99.0</ele><time>2026-04-18T08:33:06.999Z</time></trkpt><trkpt lat="43.56485977765955" lon="10.820364165139917"><ele>99.0</ele><time>2026-04-18T08:33:07.999Z</time></trkpt><trkpt lat="43.564746419845214" lon="10.82023912612839"><ele>99.0</ele><time>2026-04-18T08:33:08.999Z</time></trkpt><trkpt lat="43.564635312335255" lon="10.820122023532202"><ele>99.0</ele><time>2026-04-18T08:33:09.999Z</time></trkpt><trkpt lat="43.56453587340288" lon="10.820004657517385"><ele>99.0</ele><time>2026-04-18T08:33:10.999Z</time></trkpt><trkpt lat="43.56444557022465" lon="10.81987894884615"><ele>96.0</ele><time>2026-04-18T08:33:11.999Z</time></trkpt><trkpt lat="43.56436448596022" lon="10.819741987327934"><ele>93.0</ele><time>2026-04-18T08:33:12.999Z</time></trkpt><trkpt lat="43.56429313357409" lon="10.819598970790528"><ele>90.0</ele><time>2026-04-18T08:33:13.999Z</time></trkpt><trkpt lat="43.56422825582219" lon="10.819453657237087"><ele>87.0</ele><time>2026-04-18T08:33:14.999Z</time></trkpt><trkpt lat="43.564169279939236" lon="10.819312159955803"><ele>87.0</ele><time>2026-04-18T08:33:15.999Z</time></trkpt><trkpt lat="43.5641122272047" lon="10.81917916958679"><ele>87.0</ele><time>2026-04-18T08:33:16.999Z</time></trkpt><trkpt lat="43.56405688222005" lon="10.819055368309483"><ele>87.0</ele><time>2026-04-18T08:33:17.999Z</time></trkpt><trkpt lat="43.56400340251311" lon="10.818939703474829"><ele>87.0</ele><time>2026-04-18T08:33:18.999Z</time></trkpt><trkpt lat="43.56395347607511" lon="10.818830937637529"><ele>87.0</ele><time>2026-04-18T08:33:19.999Z</time></trkpt><trkpt lat="43.56390919306361" lon="10.818734104418212"><ele>87.0</ele><time>2026-04-18T08:33:20.999Z</time></trkpt><trkpt lat="43.563863702610554" lon="10.818653381909808"><ele>87.0</ele><time>2026-04-18T08:33:21.999Z</time></trkpt><trkpt lat="43.56376750756219" lon="10.818576926103429"><ele>87.0</ele><time>2026-04-18T08:33:23.999Z</time></trkpt><trkpt lat="43.563677829218314" lon="10.818552701420375"><ele>87.0</ele><time>2026-04-18T08:33:25.999Z</time></trkpt><trkpt lat="43.56360862122309" lon="10.818503155376787"><ele>87.0</ele><time>2026-04-18T08:33:27.999Z</time></trkpt><trkpt lat="43.56353381813034" lon="10.818525932422057"><ele>87.0</ele><time>2026-04-18T08:33:30.999Z</time></trkpt><trkpt lat="43.56360417592862" lon="10.818788523839862"><ele>85.85714285714286</ele><time>2026-04-18T08:33:31.998Z</time></trkpt><trkpt lat="43.56364973981811" lon="10.818859231669888"><ele>84.71428571428572</ele><time>2026-04-18T08:36:11Z</time></trkpt><trkpt lat="43.563605133388094" lon="10.81892601556173"><ele>83.57142857142858</ele><time>2026-04-18T08:36:34Z</time></trkpt><trkpt lat="43.56354667049211" lon="10.818866666020234"><ele>82.42857142857143</ele><time>2026-04-18T08:36:39Z</time></trkpt><trkpt lat="43.56356058725485" lon="10.818775918552781"><ele>81.28571428571429</ele><time>2026-04-18T08:36:43Z</time></trkpt><trkpt lat="43.56359934341803" lon="10.818705957785623"><ele>80.14285714285715</ele><time>2026-04-18T08:36:47Z</time></trkpt><trkpt lat="43.563614255069346" lon="10.818618425593465"><ele>79.0</ele><time>2026-04-18T08:36:52.999Z</time></trkpt><trkpt lat="43.56356169584469" lon="10.818532944287801"><ele>79.0</ele><time>2026-04-18T08:36:57.999Z</time></trkpt><trkpt lat="43.563481736594234" lon="10.818562950045544"><ele>79.0</ele><time>2026-04-18T08:36:59.999Z</time></trkpt><trkpt lat="43.563384312427914" lon="10.818609585933373"><ele>79.0</ele><time>2026-04-18T08:37:01.999Z</time></trkpt><trkpt lat="43.5632650276192" lon="10.818658164321711"><ele>79.0</ele><time>2026-04-18T08:37:03.999Z</time></trkpt><trkpt lat="43.56321365492061" lon="10.818714697862534"><ele>79.0</ele><time>2026-04-18T08:37:04.999Z</time></trkpt><trkpt lat="43.56310309937487" lon="10.818787295453076"><ele>79.0</ele><time>2026-04-18T08:37:06.999Z</time></trkpt><trkpt lat="43.56299977613187" lon="10.818862459132296"><ele>79.0</ele><time>2026-04-18T08:37:08.999Z</time></trkpt><trkpt lat="43.562899188370395" lon="10.8189141662949"><ele>79.0</ele><time>2026-04-18T08:37:10.999Z</time></trkpt><trkpt lat="43.56280782449772" lon="10.818977062454254"><ele>79.0</ele><time>2026-04-18T08:37:12.999Z</time></trkpt><trkpt lat="43.56271158511027" lon="10.819042188198509"><ele>79.0</ele><time>2026-04-18T08:37:14.999Z</time></trkpt><trkpt lat="43.5626082638907" lon="10.819111609394996"><ele>79.83333333333333</ele><time>2026-04-18T08:37:16.999Z</time></trkpt><trkpt lat="43.56248996860622" lon="10.819177904130852"><ele>80.66666666666666</ele><time>2026-04-18T08:37:18.999Z</time></trkpt><trkpt lat="43.56242271815623" lon="10.81920079042657"><ele>81.5</ele><time>2026-04-18T08:37:19.999Z</time></trkpt><trkpt lat="43.56235117425514" lon="10.81921239269915"><ele>82.33333333333333</ele><time>2026-04-18T08:37:20.999Z</time></trkpt><trkpt lat="43.56227956241956" lon="10.819206352804981"><ele>83.16666666666667</ele><time>2026-04-18T08:37:21.999Z</time></trkpt><trkpt lat="43.562207333379675" lon="10.819181129636645"><ele>84.0</ele><time>2026-04-18T08:37:22.999Z</time></trkpt><trkpt lat="43.56213684845319" lon="10.819137168957196"><ele>84.0</ele><time>2026-04-18T08:37:23.999Z</time></trkpt><trkpt lat="43.562075229438484" lon="10.819075299851447"><ele>84.0</ele><time>2026-04-18T08:37:24.999Z</time></trkpt><trkpt lat="43.5620194562427" lon="10.819001884757547"><ele>84.0</ele><time>2026-04-18T08:37:25.999Z</time></trkpt><trkpt lat="43.56197020148758" lon="10.818918266222292"><ele>84.0</ele><time>2026-04-18T08:37:26.999Z</time></trkpt><trkpt lat="43.561869011003665" lon="10.818741699724683"><ele>84.0</ele><time>2026-04-18T08:37:28.999Z</time></trkpt><trkpt lat="43.56181483489504" lon="10.818649106200246"><ele>83.66666666666667</ele><time>2026-04-18T08:37:29.999Z</time></trkpt><trkpt lat="43.56176057717734" lon="10.818556806162123"><ele>83.33333333333333</ele><time>2026-04-18T08:37:30.999Z</time></trkpt><trkpt lat="43.56170538439149" lon="10.81846288469004"><ele>83.0</ele><time>2026-04-18T08:37:31.999Z</time></trkpt><trkpt lat="43.56164883492362" lon="10.818369694517838"><ele>82.66666666666666</ele><time>2026-04-18T08:37:32.999Z</time></trkpt><trkpt lat="43.561592334119" lon="10.818273680709359"><ele>82.33333333333333</ele><time>2026-04-18T08:37:33.999Z</time></trkpt><trkpt lat="43.561534411062524" lon="10.818173112753515"><ele>82.0</ele><time>2026-04-18T08:37:34.999Z</time></trkpt><trkpt lat="43.56147253306549" lon="10.818067398931518"><ele>82.0</ele><time>2026-04-18T08:37:35.999Z</time></trkpt><trkpt lat="43.5614084853371" lon="10.817954528644302"><ele>82.0</ele><time>2026-04-18T08:37:36.999Z</time></trkpt><trkpt lat="43.56134198022353" lon="10.817838088272108"><ele>82.0</ele><time>2026-04-18T08:37:37.999Z</time></trkpt><trkpt lat="43.56127559489669" lon="10.817724321167413"><ele>82.0</ele><time>2026-04-18T08:37:38.999Z</time></trkpt><trkpt lat="43.56120839584695" lon="10.817610584796078"><ele>82.0</ele><time>2026-04-18T08:37:39.999Z</time></trkpt><trkpt lat="43.5611425448802" lon="10.817497836270743"><ele>82.6</ele><time>2026-04-18T08:37:40.999Z</time></trkpt><trkpt lat="43.561077942683546" lon="10.817384831527804"><ele>83.19999999999999</ele><time>2026-04-18T08:37:41.999Z</time></trkpt><trkpt lat="43.56101397071392" lon="10.817273161310045"><ele>83.8</ele><time>2026-04-18T08:37:42.999Z</time></trkpt><trkpt lat="43.560952395071006" lon="10.81716158908525"><ele>84.4</ele><time>2026-04-18T08:37:43.999Z</time></trkpt><trkpt lat="43.56089161876111" lon="10.817053205902745"><ele>85.0</ele><time>2026-04-18T08:37:44.999Z</time></trkpt><trkpt lat="43.56082635914793" lon="10.816956797212956"><ele>85.0</ele><time>2026-04-18T08:37:45.999Z</time></trkpt><trkpt lat="43.56075560094648" lon="10.816880290580322"><ele>85.0</ele><time>2026-04-18T08:37:46.999Z</time></trkpt><trkpt lat="43.56068651879609" lon="10.816811223914822"><ele>85.0</ele><time>2026-04-18T08:37:47.999Z</time></trkpt><trkpt lat="43.56061994160561" lon="10.81674477352423"><ele>85.0</ele><time>2026-04-18T08:37:48.998Z</time></trkpt><trkpt lat="43.560550583390835" lon="10.816676954059348"><ele>85.0</ele><time>2026-04-18T08:37:49.998Z</time></trkpt><trkpt lat="43.56048150986842" lon="10.816607874270266"><ele>85.0</ele><time>2026-04-18T08:37:50.998Z</time></trkpt><trkpt lat="43.56041011949957" lon="10.816536989643518"><ele>85.6</ele><time>2026-04-18T08:37:51.998Z</time></trkpt><trkpt lat="43.5603330443286" lon="10.816463663555615"><ele>86.2</ele><time>2026-04-18T08:37:52.998Z</time></trkpt><trkpt lat="43.56025572911078" lon="10.81639365467124"><ele>86.80000000000001</ele><time>2026-04-18T08:37:53.998Z</time></trkpt><trkpt lat="43.5601800789041" lon="10.816320538540625"><ele>87.4</ele><time>2026-04-18T08:37:54.998Z</time></trkpt><trkpt lat="43.56010474647794" lon="10.816242279805586"><ele>88.0</ele><time>2026-04-18T08:37:55.998Z</time></trkpt><trkpt lat="43.56002844764148" lon="10.816160350209362"><ele>88.0</ele><time>2026-04-18T08:37:57Z</time></trkpt><trkpt lat="43.559952261446746" lon="10.816081390798493"><ele>88.0</ele><time>2026-04-18T08:37:58Z</time></trkpt><trkpt lat="43.55987607526876" lon="10.816004424424731"><ele>88.0</ele><time>2026-04-18T08:37:59Z</time></trkpt><trkpt lat="43.559801042682025" lon="10.815931303535562"><ele>88.0</ele><time>2026-04-18T08:38:00Z</time></trkpt><trkpt lat="43.55972518419006" lon="10.81586124123375"><ele>88.0</ele><time>2026-04-18T08:38:01Z</time></trkpt><trkpt lat="43.55964780176601" lon="10.815798423474748"><ele>86.60000000000001</ele><time>2026-04-18T08:38:02Z</time></trkpt><trkpt lat="43.559564798530154" lon="10.81574816375526"><ele>85.2</ele><time>2026-04-18T08:38:03Z</time></trkpt><trkpt lat="43.55947629850182" lon="10.815711813458714"><ele>83.8</ele><time>2026-04-18T08:38:04Z</time></trkpt><trkpt lat="43.55938617198967" lon="10.815683130226942"><ele>82.4</ele><time>2026-04-18T08:38:05Z</time></trkpt><trkpt lat="43.55929623051553" lon="10.815661288164863"><ele>81.0</ele><time>2026-04-18T08:38:06Z</time></trkpt><trkpt lat="43.55919572722215" lon="10.815640717952483"><ele>81.0</ele><time>2026-04-18T08:38:07Z</time></trkpt><trkpt lat="43.55907506822777" lon="10.815612626379195"><ele>81.0</ele><time>2026-04-18T08:38:08Z</time></trkpt><trkpt lat="43.55895697024633" lon="10.815583824694363"><ele>81.0</ele><time>2026-04-18T08:38:09Z</time></trkpt><trkpt lat="43.558828563811986" lon="10.815556214231808"><ele>81.0</ele><time>2026-04-18T08:38:10Z</time></trkpt><trkpt lat="43.55869985340584" lon="10.815528086437977"><ele>80.75</ele><time>2026-04-18T08:38:11Z</time></trkpt><trkpt lat="43.558568219524" lon="10.815501160872786"><ele>80.5</ele><time>2026-04-18T08:38:12Z</time></trkpt><trkpt lat="43.55842799722598" lon="10.815470078943708"><ele>80.25</ele><time>2026-04-18T08:38:13Z</time></trkpt><trkpt lat="43.55828981456327" lon="10.81543685674585"><ele>80.0</ele><time>2026-04-18T08:38:14Z</time></trkpt><trkpt lat="43.55815320205647" lon="10.815406307224729"><ele>80.0</ele><time>2026-04-18T08:38:15Z</time></trkpt><trkpt lat="43.558019308240276" lon="10.81537527212187"><ele>80.0</ele><time>2026-04-18T08:38:16Z</time></trkpt><trkpt lat="43.55788540771726" lon="10.815343459502884"><ele>80.0</ele><time>2026-04-18T08:38:17Z</time></trkpt><trkpt lat="43.557754187083255" lon="10.815310867631156"><ele>80.0</ele><time>2026-04-18T08:38:18Z</time></trkpt><trkpt lat="43.55762979443946" lon="10.8152771044999"><ele>79.25</ele><time>2026-04-18T08:38:19Z</time></trkpt><trkpt lat="43.55750987851425" lon="10.815242802056684"><ele>78.5</ele><time>2026-04-18T08:38:20Z</time></trkpt><trkpt lat="43.55738854885389" lon="10.815212296948301"><ele>77.75</ele><time>2026-04-18T08:38:21Z</time></trkpt><trkpt lat="43.55727063835837" lon="10.815182827302582"><ele>77.0</ele><time>2026-04-18T08:38:22Z</time></trkpt><trkpt lat="43.55715495779767" lon="10.815159704000562"><ele>77.0</ele><time>2026-04-18T08:38:23Z</time></trkpt><trkpt lat="43.55703976996163" lon="10.815150018764417"><ele>77.0</ele><time>2026-04-18T08:38:24Z</time></trkpt><trkpt lat="43.556907451214485" lon="10.815161467890087"><ele>77.0</ele><time>2026-04-18T08:38:25Z</time></trkpt><trkpt lat="43.55677065698231" lon="10.81519479622835"><ele>77.0</ele><time>2026-04-18T08:38:26Z</time></trkpt><trkpt lat="43.55663082517885" lon="10.815241906504864"><ele>78.0</ele><time>2026-04-18T08:38:27Z</time></trkpt><trkpt lat="43.55648171323946" lon="10.815291439538612"><ele>79.0</ele><time>2026-04-18T08:38:28Z</time></trkpt><trkpt lat="43.55633281021148" lon="10.81534450506361"><ele>80.0</ele><time>2026-04-18T08:38:29Z</time></trkpt><trkpt lat="43.556195439686626" lon="10.815395484573754"><ele>81.0</ele><time>2026-04-18T08:38:30Z</time></trkpt><trkpt lat="43.556068855384225" lon="10.815440180607785"><ele>82.6</ele><time>2026-04-18T08:38:31Z</time></trkpt><trkpt lat="43.55595371719162" lon="10.815480241924988"><ele>84.19999999999999</ele><time>2026-04-18T08:38:32Z</time></trkpt><trkpt lat="43.555848371977504" lon="10.815511814714641"><ele>85.80000000000001</ele><time>2026-04-18T08:38:33Z</time></trkpt><trkpt lat="43.555753781910035" lon="10.815539354199212"><ele>87.4</ele><time>2026-04-18T08:38:34Z</time></trkpt><trkpt lat="43.55566129637393" lon="10.815576517780675"><ele>89.0</ele><time>2026-04-18T08:38:35Z</time></trkpt><trkpt lat="43.55556943257164" lon="10.815634254341658"><ele>89.0</ele><time>2026-04-18T08:38:36Z</time></trkpt><trkpt lat="43.55547699357946" lon="10.815717981977754"><ele>89.0</ele><time>2026-04-18T08:38:37Z</time></trkpt><trkpt lat="43.55539571926026" lon="10.815811831921737"><ele>89.0</ele><time>2026-04-18T08:38:38Z</time></trkpt><trkpt lat="43.55532370126148" lon="10.815912328329581"><ele>89.0</ele><time>2026-04-18T08:38:39Z</time></trkpt><trkpt lat="43.55525879931537" lon="10.816024446605551"><ele>89.0</ele><time>2026-04-18T08:38:40Z</time></trkpt><trkpt lat="43.555197885008205" lon="10.816144369770228"><ele>90.6</ele><time>2026-04-18T08:38:41Z</time></trkpt><trkpt lat="43.55513706698209" lon="10.816260266509776"><ele>92.2</ele><time>2026-04-18T08:38:42Z</time></trkpt><trkpt lat="43.55507734872774" lon="10.816369311766152"><ele>93.8</ele><time>2026-04-18T08:38:43Z</time></trkpt><trkpt lat="43.55501754639087" lon="10.81647044353514"><ele>95.39999999999999</ele><time>2026-04-18T08:38:44Z</time></trkpt><trkpt lat="43.554956910667784" lon="10.816572607144364"><ele>97.0</ele><time>2026-04-18T08:38:45Z</time></trkpt><trkpt lat="43.55490068615318" lon="10.816672298289607"><ele>97.00000000000001</ele><time>2026-04-18T08:38:46Z</time></trkpt><trkpt lat="43.55484667475122" lon="10.81677281478803"><ele>97.0</ele><time>2026-04-18T08:38:47Z</time></trkpt><trkpt lat="43.55479472771161" lon="10.81686816411667"><ele>97.0</ele><time>2026-04-18T08:38:48Z</time></trkpt><trkpt lat="43.55474220090982" lon="10.816962767531328"><ele>97.0</ele><time>2026-04-18T08:38:49Z</time></trkpt><trkpt lat="43.55469019928884" lon="10.817055172243554"><ele>97.00000000000001</ele><time>2026-04-18T08:38:50Z</time></trkpt><trkpt lat="43.55463842766213" lon="10.817146798884748"><ele>97.0</ele><time>2026-04-18T08:38:51Z</time></trkpt><trkpt lat="43.55458509348505" lon="10.817242916665315"><ele>98.19999999999999</ele><time>2026-04-18T08:38:52Z</time></trkpt><trkpt lat="43.554528919208856" lon="10.817342977586895"><ele>99.4</ele><time>2026-04-18T08:38:52.999Z</time></trkpt><trkpt lat="43.55446639691293" lon="10.817464168243065"><ele>100.6</ele><time>2026-04-18T08:38:53.999Z</time></trkpt><trkpt lat="43.554399654913226" lon="10.81758870894591"><ele>101.80000000000001</ele><time>2026-04-18T08:38:54.999Z</time></trkpt><trkpt lat="43.55432386467789" lon="10.817728802449103"><ele>103.0</ele><time>2026-04-18T08:38:55.999Z</time></trkpt><trkpt lat="43.5542386580993" lon="10.817882138291829"><ele>105.0</ele><time>2026-04-18T08:38:56.999Z</time></trkpt><trkpt lat="43.55414671217164" lon="10.818049140879296"><ele>107.0</ele><time>2026-04-18T08:38:57.999Z</time></trkpt><trkpt lat="43.554055597335775" lon="10.818213976980573"><ele>109.0</ele><time>2026-04-18T08:38:58.999Z</time></trkpt><trkpt lat="43.553963472808505" lon="10.81838286793726"><ele>110.0</ele><time>2026-04-18T08:38:59.999Z</time></trkpt><trkpt lat="43.55387217223788" lon="10.818547885524348"><ele>111.0</ele><time>2026-04-18T08:39:00.999Z</time></trkpt><trkpt lat="43.55378201609903" lon="10.818709257661663"><ele>112.0</ele><time>2026-04-18T08:39:01.999Z</time></trkpt><trkpt lat="43.553693925921245" lon="10.818870618172161"><ele>113.0</ele><time>2026-04-18T08:39:02.999Z</time></trkpt><trkpt lat="43.5536071694094" lon="10.819029208788335"><ele>113.75</ele><time>2026-04-18T08:39:03.999Z</time></trkpt><trkpt lat="43.553523009602024" lon="10.819185584044051"><ele>114.5</ele><time>2026-04-18T08:39:04.999Z</time></trkpt><trkpt lat="43.55344062032546" lon="10.819333764410036"><ele>115.25</ele><time>2026-04-18T08:39:05.999Z</time></trkpt><trkpt lat="43.55335868156813" lon="10.819477972723927"><ele>116.0</ele><time>2026-04-18T08:39:06.999Z</time></trkpt><trkpt lat="43.553277561204354" lon="10.819620653218967"><ele>117.5</ele><time>2026-04-18T08:39:07.999Z</time></trkpt><trkpt lat="43.5531945669631" lon="10.819773990420078"><ele>119.0</ele><time>2026-04-18T08:39:08.999Z</time></trkpt><trkpt lat="43.55310487057541" lon="10.81994296748392"><ele>120.5</ele><time>2026-04-18T08:39:09.999Z</time></trkpt><trkpt lat="43.55301081948194" lon="10.820114415514338"><ele>122.0</ele><time>2026-04-18T08:39:10.999Z</time></trkpt><trkpt lat="43.55292033392698" lon="10.820282082750534"><ele>123.0</ele><time>2026-04-18T08:39:11.999Z</time></trkpt><trkpt lat="43.55283149486046" lon="10.82043997115854"><ele>124.0</ele><time>2026-04-18T08:39:12.999Z</time></trkpt><trkpt lat="43.55274431008947" lon="10.820595262726838"><ele>125.0</ele><time>2026-04-18T08:39:13.999Z</time></trkpt><trkpt lat="43.55265268486952" lon="10.820757013776332"><ele>126.0</ele><time>2026-04-18T08:39:14.999Z</time></trkpt><trkpt lat="43.552558441654035" lon="10.820924953126317"><ele>127.25</ele><time>2026-04-18T08:39:15.999Z</time></trkpt><trkpt lat="43.55247171433485" lon="10.821087278106404"><ele>128.5</ele><time>2026-04-18T08:39:16.999Z</time></trkpt><trkpt lat="43.5523879776592" lon="10.821243670112256"><ele>129.75</ele><time>2026-04-18T08:39:17.999Z</time></trkpt><trkpt lat="43.55230744675359" lon="10.821391201583"><ele>131.0</ele><time>2026-04-18T08:39:18.999Z</time></trkpt><trkpt lat="43.552230866397856" lon="10.82153244870167"><ele>131.0</ele><time>2026-04-18T08:39:19.999Z</time></trkpt><trkpt lat="43.55216032541018" lon="10.82166465185912"><ele>131.0</ele><time>2026-04-18T08:39:20.999Z</time></trkpt><trkpt lat="43.55209483073955" lon="10.821788554184243"><ele>131.0</ele><time>2026-04-18T08:39:21.999Z</time></trkpt><trkpt lat="43.552029523627745" lon="10.821902345611965"><ele>131.0</ele><time>2026-04-18T08:39:22.999Z</time></trkpt><trkpt lat="43.55196313730689" lon="10.82202077563797"><ele>131.0</ele><time>2026-04-18T08:39:23.999Z</time></trkpt><trkpt lat="43.55189440190645" lon="10.822146901442721"><ele>132.2</ele><time>2026-04-18T08:39:24.999Z</time></trkpt><trkpt lat="43.55182776316545" lon="10.822269999221973"><ele>133.39999999999998</ele><time>2026-04-18T08:39:25.999Z</time></trkpt><trkpt lat="43.551763110749235" lon="10.82238761940576"><ele>134.6</ele><time>2026-04-18T08:39:26.999Z</time></trkpt><trkpt lat="43.55169477055852" lon="10.822511056822444"><ele>135.79999999999998</ele><time>2026-04-18T08:39:27.999Z</time></trkpt><trkpt lat="43.55163080031761" lon="10.822626656623102"><ele>137.0</ele><time>2026-04-18T08:39:28.999Z</time></trkpt><trkpt lat="43.5515680799309" lon="10.822731782739918"><ele>138.66666666666666</ele><time>2026-04-18T08:39:29.999Z</time></trkpt><trkpt lat="43.55150035383107" lon="10.822816692743316"><ele>140.33333333333331</ele><time>2026-04-18T08:39:30.999Z</time></trkpt><trkpt lat="43.55142575388354" lon="10.822883390537177"><ele>142.0</ele><time>2026-04-18T08:39:31.999Z</time></trkpt><trkpt lat="43.5513474802768" lon="10.822924412286543"><ele>143.66666666666666</ele><time>2026-04-18T08:39:32.999Z</time></trkpt><trkpt lat="43.551252138742434" lon="10.822926442952921"><ele>145.33333333333334</ele><time>2026-04-18T08:39:33.999Z</time></trkpt><trkpt lat="43.55117344688715" lon="10.82295344656152"><ele>147.0</ele><time>2026-04-18T08:39:34.999Z</time></trkpt><trkpt lat="43.551087628981" lon="10.822951642393424"><ele>147.0</ele><time>2026-04-18T08:39:35.999Z</time></trkpt><trkpt lat="43.55099973268181" lon="10.822949722665035"><ele>147.0</ele><time>2026-04-18T08:39:36.999Z</time></trkpt><trkpt lat="43.55091691874932" lon="10.822947947860154"><ele>147.0</ele><time>2026-04-18T08:39:37.999Z</time></trkpt><trkpt lat="43.55083635388352" lon="10.822928584107036"><ele>147.0</ele><time>2026-04-18T08:39:38.999Z</time></trkpt><trkpt lat="43.55074148398906" lon="10.822918301449027"><ele>147.0</ele><time>2026-04-18T08:39:39.999Z</time></trkpt><trkpt lat="43.550649798328045" lon="10.822862233259045"><ele>147.0</ele><time>2026-04-18T08:39:40.999Z</time></trkpt><trkpt lat="43.55054785568475" lon="10.822828619803479"><ele>147.0</ele><time>2026-04-18T08:39:41.999Z</time></trkpt><trkpt lat="43.55044331019971" lon="10.822798678765581"><ele>147.0</ele><time>2026-04-18T08:39:42.999Z</time></trkpt><trkpt lat="43.55033225186738" lon="10.822789981281558"><ele>147.0</ele><time>2026-04-18T08:39:43.999Z</time></trkpt><trkpt lat="43.5502153865205" lon="10.822757917839768"><ele>147.0</ele><time>2026-04-18T08:39:44.999Z</time></trkpt><trkpt lat="43.55009152673496" lon="10.822703228406136"><ele>147.75</ele><time>2026-04-18T08:39:45.999Z</time></trkpt><trkpt lat="43.5499600683902" lon="10.822670234428918"><ele>148.5</ele><time>2026-04-18T08:39:46.999Z</time></trkpt><trkpt lat="43.54981921277674" lon="10.822637443212287"><ele>149.25</ele><time>2026-04-18T08:39:47.999Z</time></trkpt><trkpt lat="43.549673363941544" lon="10.822625382630648"><ele>150.0</ele><time>2026-04-18T08:39:48.999Z</time></trkpt><trkpt lat="43.549543810197235" lon="10.822591961872558"><ele>148.75</ele><time>2026-04-18T08:39:49.999Z</time></trkpt><trkpt lat="43.54942033960754" lon="10.822562120778258"><ele>147.5</ele><time>2026-04-18T08:39:50.999Z</time></trkpt><trkpt lat="43.54930355743626" lon="10.82253354791293"><ele>146.25</ele><time>2026-04-18T08:39:51.998Z</time></trkpt><trkpt lat="43.54919383567001" lon="10.82250520364902"><ele>145.0</ele><time>2026-04-18T08:39:52.998Z</time></trkpt><trkpt lat="43.54909194544105" lon="10.82247785912281"><ele>145.0</ele><time>2026-04-18T08:39:53.998Z</time></trkpt><trkpt lat="43.54899746283406" lon="10.82245305460157"><ele>145.0</ele><time>2026-04-18T08:39:54.998Z</time></trkpt><trkpt lat="43.548910154562925" lon="10.822428548067354"><ele>145.0</ele><time>2026-04-18T08:39:55.998Z</time></trkpt><trkpt lat="43.54882816045027" lon="10.822401648702064"><ele>145.0</ele><time>2026-04-18T08:39:56.998Z</time></trkpt><trkpt lat="43.548750381033365" lon="10.822368785709779"><ele>145.0</ele><time>2026-04-18T08:39:57.998Z</time></trkpt><trkpt lat="43.54867704118718" lon="10.822327706340031"><ele>145.0</ele><time>2026-04-18T08:39:58.998Z</time></trkpt><trkpt lat="43.54860784229551" lon="10.822280291275884"><ele>146.5</ele><time>2026-04-18T08:39:59.998Z</time></trkpt><trkpt lat="43.54854029153192" lon="10.822229849729204"><ele>148.0</ele><time>2026-04-18T08:40:00.998Z</time></trkpt><trkpt lat="43.54847549182196" lon="10.822176855881212"><ele>149.5</ele><time>2026-04-18T08:40:01.998Z</time></trkpt><trkpt lat="43.54841377163974" lon="10.822115936930967"><ele>151.0</ele><time>2026-04-18T08:40:03Z</time></trkpt><trkpt lat="43.54835711463411" lon="10.822046759257233"><ele>152.5</ele><time>2026-04-18T08:40:04Z</time></trkpt><trkpt lat="43.54830231919749" lon="10.821976405110341"><ele>154.0</ele><time>2026-04-18T08:40:05Z</time></trkpt><trkpt lat="43.548246482983" lon="10.821905005685958"><ele>154.0</ele><time>2026-04-18T08:40:06Z</time></trkpt><trkpt lat="43.54819176595815" lon="10.821830170649447"><ele>154.0</ele><time>2026-04-18T08:40:07Z</time></trkpt><trkpt lat="43.54814054459727" lon="10.821757250148826"><ele>154.0</ele><time>2026-04-18T08:40:08Z</time></trkpt><trkpt lat="43.548094753221015" lon="10.821686020218259"><ele>154.0</ele><time>2026-04-18T08:40:09Z</time></trkpt><trkpt lat="43.548050219078775" lon="10.821612730415476"><ele>154.0</ele><time>2026-04-18T08:40:10Z</time></trkpt><trkpt lat="43.54800605860669" lon="10.821546114427319"><ele>154.0</ele><time>2026-04-18T08:40:11Z</time></trkpt><trkpt lat="43.54792196019104" lon="10.821430101130447"><ele>152.57142857142858</ele><time>2026-04-18T08:40:13Z</time></trkpt><trkpt lat="43.547864519636704" lon="10.821357934833221"><ele>151.14285714285714</ele><time>2026-04-18T08:40:15Z</time></trkpt><trkpt lat="43.54781562843404" lon="10.821293367155219"><ele>149.71428571428572</ele><time>2026-04-18T08:40:19Z</time></trkpt><trkpt lat="43.54776430987965" lon="10.821231219370043"><ele>148.28571428571428</ele><time>2026-04-18T08:40:23Z</time></trkpt><trkpt lat="43.54770536624585" lon="10.821149041377144"><ele>146.85714285714286</ele><time>2026-04-18T08:40:29Z</time></trkpt><trkpt lat="43.54765443812072" lon="10.821084836558795"><ele>145.42857142857144</ele><time>2026-04-18T08:40:31Z</time></trkpt><trkpt lat="43.5476024895531" lon="10.821006320054897"><ele>144.0</ele><time>2026-04-18T08:40:34Z</time></trkpt><trkpt lat="43.54754766455798" lon="10.820925245772402"><ele>144.0</ele><time>2026-04-18T08:40:39Z</time></trkpt><trkpt lat="43.54749203795921" lon="10.8208547307879"><ele>144.0</ele><time>2026-04-18T08:40:41Z</time></trkpt><trkpt lat="43.54744312635214" lon="10.82077418460758"><ele>144.0</ele><time>2026-04-18T08:40:44Z</time></trkpt><trkpt lat="43.54737571887891" lon="10.820681035592004"><ele>144.0</ele><time>2026-04-18T08:40:56.999Z</time></trkpt><trkpt lat="43.54728907851243" lon="10.820567129139604"><ele>144.0</ele><time>2026-04-18T08:40:58.999Z</time></trkpt><trkpt lat="43.54724211361914" lon="10.82049689282756"><ele>144.0</ele><time>2026-04-18T08:40:59.999Z</time></trkpt><trkpt lat="43.54719482244792" lon="10.820425614411034"><ele>144.0</ele><time>2026-04-18T08:41:00.999Z</time></trkpt><trkpt lat="43.547142995816316" lon="10.820369600252972"><ele>144.0</ele><time>2026-04-18T08:41:01.999Z</time></trkpt><trkpt lat="43.547044536559895" lon="10.820325254293916"><ele>144.0</ele><time>2026-04-18T08:41:03.999Z</time></trkpt><trkpt lat="43.54698019001347" lon="10.820348220120856"><ele>144.0</ele><time>2026-04-18T08:41:06.999Z</time></trkpt><trkpt lat="43.54692482041763" lon="10.820413553376111"><ele>144.0</ele><time>2026-04-18T08:41:13.999Z</time></trkpt><trkpt lat="43.54687121725194" lon="10.820538103849326"><ele>144.0</ele><time>2026-04-18T08:41:15.999Z</time></trkpt><trkpt lat="43.54682518288644" lon="10.820698501463042"><ele>141.5</ele><time>2026-04-18T08:41:17.999Z</time></trkpt><trkpt lat="43.54680565604785" lon="10.820783202159884"><ele>139.0</ele><time>2026-04-18T08:41:18.999Z</time></trkpt><trkpt lat="43.546768985087034" lon="10.820869682314152"><ele>136.5</ele><time>2026-04-18T08:41:19.999Z</time></trkpt><trkpt lat="43.54674643191208" lon="10.820964214763064"><ele>134.0</ele><time>2026-04-18T08:41:20.999Z</time></trkpt><trkpt lat="43.546723129216424" lon="10.821061888847325"><ele>131.5</ele><time>2026-04-18T08:41:21.999Z</time></trkpt><trkpt lat="43.54669764115654" lon="10.82116955016811"><ele>129.0</ele><time>2026-04-18T08:41:22.999Z</time></trkpt><trkpt lat="43.54667068488513" lon="10.821283485837423"><ele>128.6</ele><time>2026-04-18T08:41:23.999Z</time></trkpt><trkpt lat="43.54664375759012" lon="10.821401619471692"><ele>128.2</ele><time>2026-04-18T08:41:24.999Z</time></trkpt><trkpt lat="43.54661649414141" lon="10.821524623642667"><ele>127.79999999999998</ele><time>2026-04-18T08:41:25.999Z</time></trkpt><trkpt lat="43.546589678731166" lon="10.821653754377792"><ele>127.39999999999999</ele><time>2026-04-18T08:41:26.999Z</time></trkpt><trkpt lat="43.54656138204794" lon="10.821783869770565"><ele>127.0</ele><time>2026-04-18T08:41:27.999Z</time></trkpt><trkpt lat="43.54653219779266" lon="10.82191385922621"><ele>126.50000000000001</ele><time>2026-04-18T08:41:28.999Z</time></trkpt><trkpt lat="43.546503978106976" lon="10.822039552362368"><ele>126.0</ele><time>2026-04-18T08:41:29.999Z</time></trkpt><trkpt lat="43.54647642257056" lon="10.822162287363295"><ele>125.5</ele><time>2026-04-18T08:41:30.999Z</time></trkpt><trkpt lat="43.54644985869296" lon="10.822280605373649"><ele>125.0</ele><time>2026-04-18T08:41:31.999Z</time></trkpt><trkpt lat="43.54642396593854" lon="10.82239593453412"><ele>124.50000000000001</ele><time>2026-04-18T08:41:32.999Z</time></trkpt><trkpt lat="43.546399177131796" lon="10.82250473751848"><ele>124.0</ele><time>2026-04-18T08:41:33.999Z</time></trkpt><trkpt lat="43.54637533962127" lon="10.82260662356859"><ele>123.66666666666667</ele><time>2026-04-18T08:41:34.999Z</time></trkpt><trkpt lat="43.54635331442931" lon="10.822698116999264"><ele>123.33333333333334</ele><time>2026-04-18T08:41:35.999Z</time></trkpt><trkpt lat="43.54632974213231" lon="10.82278129710914"><ele>123.0</ele><time>2026-04-18T08:41:36.999Z</time></trkpt><trkpt lat="43.54628203194574" lon="10.822839522869499"><ele>122.66666666666666</ele><time>2026-04-18T08:41:37.999Z</time></trkpt><trkpt lat="43.546158567194766" lon="10.82287905467247"><ele>122.33333333333333</ele><time>2026-04-18T08:41:39.999Z</time></trkpt><trkpt lat="43.54609302373124" lon="10.82284879526005"><ele>122.0</ele><time>2026-04-18T08:41:40.999Z</time></trkpt><trkpt lat="43.54603849699462" lon="10.822791874015595"><ele>119.6</ele><time>2026-04-18T08:41:41.999Z</time></trkpt><trkpt lat="43.54599704236359" lon="10.82272216789633"><ele>117.19999999999999</ele><time>2026-04-18T08:41:42.999Z</time></trkpt><trkpt lat="43.545930945331904" lon="10.822585629908971"><ele>114.8</ele><time>2026-04-18T08:41:44.999Z</time></trkpt><trkpt lat="43.545860722113716" lon="10.822445465029979"><ele>112.4</ele><time>2026-04-18T08:41:46.999Z</time></trkpt><trkpt lat="43.545795719757464" lon="10.82229776351335"><ele>110.0</ele><time>2026-04-18T08:41:48.999Z</time></trkpt><trkpt lat="43.545765024151706" lon="10.822220373725328"><ele>109.99999999999999</ele><time>2026-04-18T08:41:49.999Z</time></trkpt><trkpt lat="43.54573551893544" lon="10.82213934750983"><ele>110.0</ele><time>2026-04-18T08:41:50.999Z</time></trkpt><trkpt lat="43.54570659322094" lon="10.822059314715409"><ele>110.0</ele><time>2026-04-18T08:41:51.999Z</time></trkpt><trkpt lat="43.54568088391886" lon="10.821979533234126"><ele>110.0</ele><time>2026-04-18T08:41:52.999Z</time></trkpt><trkpt lat="43.545663340909734" lon="10.821849199862761"><ele>110.0</ele><time>2026-04-18T08:41:54.999Z</time></trkpt><trkpt lat="43.54564515944974" lon="10.821765552844349"><ele>109.99999999999999</ele><time>2026-04-18T08:42:00.998Z</time></trkpt><trkpt lat="43.5456252412871" lon="10.821666834122633"><ele>110.0</ele><time>2026-04-18T08:42:09Z</time></trkpt><trkpt lat="43.54560552636662" lon="10.821565522723875"><ele>110.0</ele><time>2026-04-18T08:42:12Z</time></trkpt><trkpt lat="43.54557126543743" lon="10.821472988967319"><ele>110.0</ele><time>2026-04-18T08:42:14Z</time></trkpt><trkpt lat="43.54555863312397" lon="10.821331002174007"><ele>110.0</ele><time>2026-04-18T08:42:16Z</time></trkpt><trkpt lat="43.545530682348684" lon="10.8211751788663"><ele>110.0</ele><time>2026-04-18T08:42:18Z</time></trkpt><trkpt lat="43.545497009865436" lon="10.821010632884127"><ele>110.0</ele><time>2026-04-18T08:42:20Z</time></trkpt><trkpt lat="43.54548017598745" lon="10.820924787438225"><ele>109.85714285714285</ele><time>2026-04-18T08:42:21Z</time></trkpt><trkpt lat="43.54546374785373" lon="10.820834737189843"><ele>109.71428571428571</ele><time>2026-04-18T08:42:22Z</time></trkpt><trkpt lat="43.54544660873518" lon="10.820740998657756"><ele>109.57142857142857</ele><time>2026-04-18T08:42:23Z</time></trkpt><trkpt lat="43.54542655065506" lon="10.820645699540824"><ele>109.42857142857142</ele><time>2026-04-18T08:42:24Z</time></trkpt><trkpt lat="43.54540248781464" lon="10.820550227309978"><ele>109.28571428571429</ele><time>2026-04-18T08:42:25Z</time></trkpt><trkpt lat="43.545371982609076" lon="10.820455902082301"><ele>109.14285714285714</ele><time>2026-04-18T08:42:26Z</time></trkpt><trkpt lat="43.545328727499935" lon="10.82036410992242"><ele>109.0</ele><time>2026-04-18T08:42:27Z</time></trkpt><trkpt lat="43.545274841762726" lon="10.820280465747238"><ele>107.00000000000001</ele><time>2026-04-18T08:42:28Z</time></trkpt><trkpt lat="43.545211048791764" lon="10.820208217734537"><ele>105.0</ele><time>2026-04-18T08:42:29Z</time></trkpt><trkpt lat="43.54514889249442" lon="10.820142748341398"><ele>103.0</ele><time>2026-04-18T08:42:30Z</time></trkpt><trkpt lat="43.54508775252911" lon="10.820076725476659"><ele>101.0</ele><time>2026-04-18T08:42:31Z</time></trkpt><trkpt lat="43.545027098376735" lon="10.820009412005916"><ele>99.00000000000001</ele><time>2026-04-18T08:42:32Z</time></trkpt><trkpt lat="43.544963084694245" lon="10.819928239182987"><ele>97.0</ele><time>2026-04-18T08:42:33Z</time></trkpt><trkpt lat="43.544902532245416" lon="10.819835454482407"><ele>97.0</ele><time>2026-04-18T08:42:34Z</time></trkpt><trkpt lat="43.544843457239814" lon="10.819736319684106"><ele>97.0</ele><time>2026-04-18T08:42:35Z</time></trkpt><trkpt lat="43.54479190350463" lon="10.819629372393148"><ele>97.0</ele><time>2026-04-18T08:42:36Z</time></trkpt><trkpt lat="43.54474963888266" lon="10.819514384749406"><ele>97.0</ele><time>2026-04-18T08:42:37Z</time></trkpt><trkpt lat="43.54471695249036" lon="10.81939102647895"><ele>97.0</ele><time>2026-04-18T08:42:38Z</time></trkpt><trkpt lat="43.54469324883407" lon="10.819260208008439"><ele>97.6</ele><time>2026-04-18T08:42:39Z</time></trkpt><trkpt lat="43.54467478322842" lon="10.819126853639123"><ele>98.19999999999999</ele><time>2026-04-18T08:42:40Z</time></trkpt><trkpt lat="43.544655708646644" lon="10.81899420852619"><ele>98.8</ele><time>2026-04-18T08:42:41Z</time></trkpt><trkpt lat="43.54463832898601" lon="10.818861077232617"><ele>99.4</ele><time>2026-04-18T08:42:42Z</time></trkpt><trkpt lat="43.54462073022049" lon="10.818729667080369"><ele>100.0</ele><time>2026-04-18T08:42:43Z</time></trkpt><trkpt lat="43.544603988420185" lon="10.818598640251757"><ele>99.2</ele><time>2026-04-18T08:42:44Z</time></trkpt><trkpt lat="43.54458788043176" lon="10.81846757806265"><ele>98.4</ele><time>2026-04-18T08:42:45Z</time></trkpt><trkpt lat="43.54457090862176" lon="10.818339492844258"><ele>97.6</ele><time>2026-04-18T08:42:46Z</time></trkpt><trkpt lat="43.54455199910297" lon="10.818206968273648"><ele>96.8</ele><time>2026-04-18T08:42:47Z</time></trkpt><trkpt lat="43.5445336233869" lon="10.818071486558145"><ele>96.0</ele><time>2026-04-18T08:42:48Z</time></trkpt><trkpt lat="43.54451489210755" lon="10.817936174787192"><ele>93.4</ele><time>2026-04-18T08:42:49Z</time></trkpt><trkpt lat="43.54449685126635" lon="10.817799082187774"><ele>90.8</ele><time>2026-04-18T08:42:50Z</time></trkpt><trkpt lat="43.54448120245069" lon="10.817661806571095"><ele>88.2</ele><time>2026-04-18T08:42:51Z</time></trkpt><trkpt lat="43.5444659566021" lon="10.817527066147482"><ele>85.60000000000001</ele><time>2026-04-18T08:42:52Z</time></trkpt><trkpt lat="43.54444880314065" lon="10.817393336924011"><ele>83.0</ele><time>2026-04-18T08:42:53Z</time></trkpt><trkpt lat="43.544428736479084" lon="10.81725871698718"><ele>83.0</ele><time>2026-04-18T08:42:54Z</time></trkpt><trkpt lat="43.54440747911417" lon="10.817135776941603"><ele>83.0</ele><time>2026-04-18T08:42:55Z</time></trkpt><trkpt lat="43.5443783085401" lon="10.817025298393686"><ele>83.0</ele><time>2026-04-18T08:42:56Z</time></trkpt><trkpt lat="43.54433458740659" lon="10.816934015857333"><ele>83.0</ele><time>2026-04-18T08:42:57Z</time></trkpt><trkpt lat="43.54428354266327" lon="10.816855020141928"><ele>83.0</ele><time>2026-04-18T08:42:58Z</time></trkpt><trkpt lat="43.544222013704285" lon="10.816796810890771"><ele>83.0</ele><time>2026-04-18T08:42:59Z</time></trkpt><trkpt lat="43.54414854481513" lon="10.816756935621074"><ele>83.4</ele><time>2026-04-18T08:43:00Z</time></trkpt><trkpt lat="43.5440683112683" lon="10.816739305281098"><ele>83.80000000000001</ele><time>2026-04-18T08:43:01Z</time></trkpt><trkpt lat="43.543979189349336" lon="10.816747451372029"><ele>84.2</ele><time>2026-04-18T08:43:02Z</time></trkpt><trkpt lat="43.543890017439885" lon="10.816777898620966"><ele>84.6</ele><time>2026-04-18T08:43:02.999Z</time></trkpt><trkpt lat="43.543802119376586" lon="10.816815550398458"><ele>85.0</ele><time>2026-04-18T08:43:03.999Z</time></trkpt><trkpt lat="43.543710184843434" lon="10.816853700070235"><ele>84.0</ele><time>2026-04-18T08:43:04.999Z</time></trkpt><trkpt lat="43.54361490584492" lon="10.816894753881535"><ele>83.0</ele><time>2026-04-18T08:43:05.999Z</time></trkpt><trkpt lat="43.54351780424365" lon="10.816937015741352"><ele>82.0</ele><time>2026-04-18T08:43:06.999Z</time></trkpt><trkpt lat="43.54342138157004" lon="10.816980820069318"><ele>81.0</ele><time>2026-04-18T08:43:07.999Z</time></trkpt><trkpt lat="43.543324913925446" lon="10.817024502165568"><ele>80.0</ele><time>2026-04-18T08:43:08.999Z</time></trkpt><trkpt lat="43.543228661585374" lon="10.817069668996705"><ele>80.0</ele><time>2026-04-18T08:43:09.999Z</time></trkpt><trkpt lat="43.54314118305109" lon="10.817111865787794"><ele>80.0</ele><time>2026-04-18T08:43:10.999Z</time></trkpt><trkpt lat="43.5430579458333" lon="10.8171531510373"><ele>80.0</ele><time>2026-04-18T08:43:11.999Z</time></trkpt><trkpt lat="43.54297683964166" lon="10.817199031119255"><ele>80.0</ele><time>2026-04-18T08:43:12.999Z</time></trkpt><trkpt lat="43.542893625457026" lon="10.817262186906301"><ele>80.0</ele><time>2026-04-18T08:43:13.999Z</time></trkpt><trkpt lat="43.542820990608746" lon="10.817347724003492"><ele>81.5</ele><time>2026-04-18T08:43:14.999Z</time></trkpt><trkpt lat="43.54275761706094" lon="10.817455688390607"><ele>83.0</ele><time>2026-04-18T08:43:15.999Z</time></trkpt><trkpt lat="43.54270670629705" lon="10.817588004046698"><ele>84.5</ele><time>2026-04-18T08:43:16.999Z</time></trkpt><trkpt lat="43.54267688343586" lon="10.817748298236017"><ele>86.0</ele><time>2026-04-18T08:43:17.999Z</time></trkpt><trkpt lat="43.542644390330686" lon="10.817929046652726"><ele>87.5</ele><time>2026-04-18T08:43:18.999Z</time></trkpt><trkpt lat="43.54263196731901" lon="10.818126414651298"><ele>89.0</ele><time>2026-04-18T08:43:19.999Z</time></trkpt><trkpt lat="43.54263567747116" lon="10.818324742996486"><ele>90.5</ele><time>2026-04-18T08:43:20.999Z</time></trkpt><trkpt lat="43.54262298926698" lon="10.818496565237776"><ele>92.0</ele><time>2026-04-18T08:43:21.999Z</time></trkpt><trkpt lat="43.5426118784676" lon="10.818667561510237"><ele>93.0</ele><time>2026-04-18T08:43:22.999Z</time></trkpt><trkpt lat="43.54259997338419" lon="10.81882748386679"><ele>94.0</ele><time>2026-04-18T08:43:23.999Z</time></trkpt><trkpt lat="43.54259047386194" lon="10.81897469090912"><ele>95.0</ele><time>2026-04-18T08:43:24.999Z</time></trkpt><trkpt lat="43.542582145229964" lon="10.819099217622147"><ele>96.0</ele><time>2026-04-18T08:43:25.999Z</time></trkpt><trkpt lat="43.542576182466526" lon="10.81919473564899"><ele>97.0</ele><time>2026-04-18T08:43:26.999Z</time></trkpt><trkpt lat="43.542569877574216" lon="10.819307403828724"><ele>97.66666666666667</ele><time>2026-04-18T08:43:28.999Z</time></trkpt><trkpt lat="43.542559395790036" lon="10.819428077365622"><ele>98.33333333333334</ele><time>2026-04-18T08:43:31.999Z</time></trkpt><trkpt lat="43.54255302398401" lon="10.819521065150374"><ele>99.0</ele><time>2026-04-18T08:43:33.999Z</time></trkpt><trkpt lat="43.542545545255784" lon="10.819612639911485"><ele>99.66666666666666</ele><time>2026-04-18T08:43:35.999Z</time></trkpt><trkpt lat="43.54252960048212" lon="10.8197418078307"><ele>100.33333333333333</ele><time>2026-04-18T08:43:37.999Z</time></trkpt><trkpt lat="43.54250784173272" lon="10.81989439779134"><ele>101.0</ele><time>2026-04-18T08:43:39.999Z</time></trkpt><trkpt lat="43.54246865255577" lon="10.820030371862769"><ele>100.99999999999999</ele><time>2026-04-18T08:43:41.999Z</time></trkpt><trkpt lat="43.54244419890531" lon="10.820147997237273"><ele>101.0</ele><time>2026-04-18T08:43:43.999Z</time></trkpt><trkpt lat="43.54242520900392" lon="10.820237325333576"><ele>101.0</ele><time>2026-04-18T08:44:41Z</time></trkpt><trkpt lat="43.54240225002827" lon="10.82033522182504"><ele>101.0</ele><time>2026-04-18T08:44:44Z</time></trkpt><trkpt lat="43.54237792428056" lon="10.820438778957342"><ele>100.99999999999999</ele><time>2026-04-18T08:44:46Z</time></trkpt><trkpt lat="43.54235411872226" lon="10.820536669714768"><ele>101.0</ele><time>2026-04-18T08:44:48Z</time></trkpt><trkpt lat="43.54233785669287" lon="10.820665761650782"><ele>101.6</ele><time>2026-04-18T08:44:50Z</time></trkpt><trkpt lat="43.54229767086425" lon="10.820806502106096"><ele>102.19999999999999</ele><time>2026-04-18T08:44:52Z</time></trkpt><trkpt lat="43.542257212860335" lon="10.820934032988005"><ele>102.80000000000001</ele><time>2026-04-18T08:44:54Z</time></trkpt><trkpt lat="43.54220868125193" lon="10.821059864394654"><ele>103.4</ele><time>2026-04-18T08:44:56Z</time></trkpt><trkpt lat="43.542149247991745" lon="10.821183370620512"><ele>104.0</ele><time>2026-04-18T08:44:58Z</time></trkpt><trkpt lat="43.542077095832624" lon="10.821318588283557"><ele>106.66666666666666</ele><time>2026-04-18T08:45:00Z</time></trkpt><trkpt lat="43.54203626404094" lon="10.821389411055216"><ele>109.33333333333333</ele><time>2026-04-18T08:45:01Z</time></trkpt><trkpt lat="43.54199169490208" lon="10.821464787271374"><ele>112.0</ele><time>2026-04-18T08:45:02Z</time></trkpt><trkpt lat="43.54194291440141" lon="10.821551904338703"><ele>114.66666666666666</ele><time>2026-04-18T08:45:03Z</time></trkpt><trkpt lat="43.541894655070635" lon="10.82164622094565"><ele>117.33333333333333</ele><time>2026-04-18T08:45:04Z</time></trkpt><trkpt lat="43.54183550719072" lon="10.82174265548481"><ele>120.0</ele><time>2026-04-18T08:45:05Z</time></trkpt><trkpt lat="43.54180054720988" lon="10.821866627322093"><ele>120.4</ele><time>2026-04-18T08:45:06Z</time></trkpt><trkpt lat="43.541796541612065" lon="10.822003895768951"><ele>120.8</ele><time>2026-04-18T08:45:07Z</time></trkpt><trkpt lat="43.54178589381704" lon="10.822132578054466"><ele>121.19999999999999</ele><time>2026-04-18T08:45:08Z</time></trkpt><trkpt lat="43.541785197503444" lon="10.82225628429515"><ele>121.6</ele><time>2026-04-18T08:45:09Z</time></trkpt><trkpt lat="43.54178763123634" lon="10.82237585238591"><ele>122.0</ele><time>2026-04-18T08:45:10Z</time></trkpt><trkpt lat="43.541787006622044" lon="10.822488052637148"><ele>121.99999999999999</ele><time>2026-04-18T08:45:11Z</time></trkpt><trkpt lat="43.54178123911666" lon="10.822599867921385"><ele>122.0</ele><time>2026-04-18T08:45:12Z</time></trkpt><trkpt lat="43.54176886315957" lon="10.822710445079329"><ele>122.0</ele><time>2026-04-18T08:45:13Z</time></trkpt><trkpt lat="43.541752206076026" lon="10.822820325552355"><ele>122.0</ele><time>2026-04-18T08:45:13.999Z</time></trkpt><trkpt lat="43.54173099059068" lon="10.82292810491987"><ele>121.99999999999999</ele><time>2026-04-18T08:45:14.999Z</time></trkpt><trkpt lat="43.541709395846055" lon="10.823033741529768"><ele>122.0</ele><time>2026-04-18T08:45:15.999Z</time></trkpt><trkpt lat="43.541683710155866" lon="10.823137822910445"><ele>122.49999999999999</ele><time>2026-04-18T08:45:16.999Z</time></trkpt><trkpt lat="43.541654821784995" lon="10.82323903053339"><ele>123.0</ele><time>2026-04-18T08:45:17.999Z</time></trkpt><trkpt lat="43.54162605011671" lon="10.823340642746102"><ele>123.5</ele><time>2026-04-18T08:45:18.999Z</time></trkpt><trkpt lat="43.541596706595854" lon="10.823442242367854"><ele>124.0</ele><time>2026-04-18T08:45:19.999Z</time></trkpt><trkpt lat="43.54156646035723" lon="10.823545009366478"><ele>124.49999999999999</ele><time>2026-04-18T08:45:20.999Z</time></trkpt><trkpt lat="43.541521668965714" lon="10.823641083117895"><ele>125.0</ele><time>2026-04-18T08:45:21.999Z</time></trkpt><trkpt lat="43.54148918040261" lon="10.823744089266132"><ele>124.99999999999999</ele><time>2026-04-18T08:45:22.999Z</time></trkpt><trkpt lat="43.54145742746597" lon="10.823844762938297"><ele>125.0</ele><time>2026-04-18T08:45:23.999Z</time></trkpt><trkpt lat="43.541426776473735" lon="10.8239419429809"><ele>125.0</ele><time>2026-04-18T08:45:24.999Z</time></trkpt><trkpt lat="43.54139750766853" lon="10.824034740633682"><ele>125.0</ele><time>2026-04-18T08:45:25.999Z</time></trkpt><trkpt lat="43.54138490974462" lon="10.824130060345231"><ele>124.99999999999999</ele><time>2026-04-18T08:45:26.999Z</time></trkpt><trkpt lat="43.54135678457211" lon="10.824214438424507"><ele>125.0</ele><time>2026-04-18T08:45:27.999Z</time></trkpt><trkpt lat="43.54130905341905" lon="10.824355169858283"><ele>124.49999999999999</ele><time>2026-04-18T08:45:29.999Z</time></trkpt><trkpt lat="43.54127431128818" lon="10.824457505299689"><ele>124.0</ele><time>2026-04-18T08:45:31.999Z</time></trkpt><trkpt lat="43.54124587650897" lon="10.824542885208245"><ele>123.5</ele><time>2026-04-18T08:45:34.999Z</time></trkpt><trkpt lat="43.541215619302086" lon="10.824643953491417"><ele>123.0</ele><time>2026-04-18T08:45:36.999Z</time></trkpt><trkpt lat="43.54117627651404" lon="10.824788703562396"><ele>122.49999999999999</ele><time>2026-04-18T08:45:38.999Z</time></trkpt><trkpt lat="43.5411361816341" lon="10.824863775413593"><ele>122.0</ele><time>2026-04-18T08:45:39.999Z</time></trkpt><trkpt lat="43.54110964319257" lon="10.824953654852976"><ele>125.8</ele><time>2026-04-18T08:45:40.999Z</time></trkpt><trkpt lat="43.541083301233876" lon="10.82504547961449"><ele>129.6</ele><time>2026-04-18T08:45:41.999Z</time></trkpt><trkpt lat="43.54105643697414" lon="10.825139125128887"><ele>133.39999999999998</ele><time>2026-04-18T08:45:42.999Z</time></trkpt><trkpt lat="43.541026578382215" lon="10.825244189387815"><ele>137.2</ele><time>2026-04-18T08:45:43.999Z</time></trkpt><trkpt lat="43.54099489181516" lon="10.82535884957992"><ele>141.0</ele><time>2026-04-18T08:45:44.999Z</time></trkpt><trkpt lat="43.54093005373073" lon="10.825596874132167"><ele>141.0</ele><time>2026-04-18T08:45:46.999Z</time></trkpt><trkpt lat="43.54089827885897" lon="10.825716332963259"><ele>141.0</ele><time>2026-04-18T08:45:47.999Z</time></trkpt><trkpt lat="43.54086834901243" lon="10.825834291220591"><ele>141.0</ele><time>2026-04-18T08:45:48.999Z</time></trkpt><trkpt lat="43.5408391023898" lon="10.825950488588663"><ele>141.0</ele><time>2026-04-18T08:45:49.999Z</time></trkpt><trkpt lat="43.54081017181343" lon="10.8260654302202"><ele>141.0</ele><time>2026-04-18T08:45:50.999Z</time></trkpt><trkpt lat="43.540781398538044" lon="10.826179747106348"><ele>141.0</ele><time>2026-04-18T08:45:51.999Z</time></trkpt><trkpt lat="43.54075345699445" lon="10.826290760014125"><ele>141.0</ele><time>2026-04-18T08:45:52.999Z</time></trkpt><trkpt lat="43.54072583188791" lon="10.826400514917939"><ele>141.0</ele><time>2026-04-18T08:45:53.999Z</time></trkpt><trkpt lat="43.54069691742991" lon="10.82651406503696"><ele>141.0</ele><time>2026-04-18T08:45:54.999Z</time></trkpt><trkpt lat="43.54066711945187" lon="10.82663036702648"><ele>141.0</ele><time>2026-04-18T08:45:55.999Z</time></trkpt><trkpt lat="43.54063767985266" lon="10.826745270060817"><ele>141.0</ele><time>2026-04-18T08:45:56.999Z</time></trkpt><trkpt lat="43.5406244461115" lon="10.826865279000472"><ele>141.0</ele><time>2026-04-18T08:45:57.999Z</time></trkpt><trkpt lat="43.540594894432786" lon="10.826974737316991"><ele>141.0</ele><time>2026-04-18T08:45:58.999Z</time></trkpt><trkpt lat="43.54054710887208" lon="10.827072485081715"><ele>141.0</ele><time>2026-04-18T08:45:59.999Z</time></trkpt><trkpt lat="43.54051256265552" lon="10.827177351686846"><ele>141.0</ele><time>2026-04-18T08:46:00.999Z</time></trkpt><trkpt lat="43.540473429830726" lon="10.827282288521662"><ele>141.0</ele><time>2026-04-18T08:46:01.999Z</time></trkpt><trkpt lat="43.54043093728739" lon="10.827382967578416"><ele>141.0</ele><time>2026-04-18T08:46:02.999Z</time></trkpt><trkpt lat="43.54038661899657" lon="10.827481337371074"><ele>141.0</ele><time>2026-04-18T08:46:03.999Z</time></trkpt><trkpt lat="43.54034055788782" lon="10.82757582806243"><ele>142.66666666666666</ele><time>2026-04-18T08:46:04.999Z</time></trkpt><trkpt lat="43.54030637551976" lon="10.82767811384717"><ele>144.33333333333334</ele><time>2026-04-18T08:46:05.999Z</time></trkpt><trkpt lat="43.540260196979254" lon="10.827760555859001"><ele>146.0</ele><time>2026-04-18T08:46:06.999Z</time></trkpt><trkpt lat="43.54021708902265" lon="10.82783866802799"><ele>147.66666666666669</ele><time>2026-04-18T08:46:07.999Z</time></trkpt><trkpt lat="43.54014788241049" lon="10.827963634920879"><ele>149.33333333333334</ele><time>2026-04-18T08:46:09.999Z</time></trkpt><trkpt lat="43.540104550910215" lon="10.828036994788683"><ele>151.0</ele><time>2026-04-18T08:46:11.999Z</time></trkpt><trkpt lat="43.54004960273703" lon="10.828087638985991"><ele>151.0</ele><time>2026-04-18T08:46:14.999Z</time></trkpt><trkpt lat="43.540001288403566" lon="10.82814928536189"><ele>151.0</ele><time>2026-04-18T08:46:21Z</time></trkpt><trkpt lat="43.53999488151168" lon="10.828307170178167"><ele>151.0</ele><time>2026-04-18T08:46:24Z</time></trkpt><trkpt lat="43.540009602486165" lon="10.828397780533086"><ele>151.0</ele><time>2026-04-18T08:46:26Z</time></trkpt><trkpt lat="43.540025068306015" lon="10.828502389474714"><ele>151.0</ele><time>2026-04-18T08:46:28Z</time></trkpt><trkpt lat="43.54004289442396" lon="10.82862734789394"><ele>151.0</ele><time>2026-04-18T08:46:30Z</time></trkpt><trkpt lat="43.5400634952174" lon="10.828771756609957"><ele>151.2</ele><time>2026-04-18T08:46:32Z</time></trkpt><trkpt lat="43.540084322380224" lon="10.828917752086129"><ele>151.39999999999998</ele><time>2026-04-18T08:46:34Z</time></trkpt><trkpt lat="43.54010533835967" lon="10.829067781363074"><ele>151.6</ele><time>2026-04-18T08:46:36Z</time></trkpt><trkpt lat="43.54012651550115" lon="10.829220901321548"><ele>151.79999999999998</ele><time>2026-04-18T08:46:38Z</time></trkpt><trkpt lat="43.5401474695002" lon="10.829372407832246"><ele>152.0</ele><time>2026-04-18T08:46:40Z</time></trkpt><trkpt lat="43.5401680099254" lon="10.829524603931201"><ele>152.2</ele><time>2026-04-18T08:46:42Z</time></trkpt><trkpt lat="43.54018827301387" lon="10.829683563096376"><ele>152.39999999999998</ele><time>2026-04-18T08:46:44Z</time></trkpt><trkpt lat="43.540209468527664" lon="10.829849836905279"><ele>152.60000000000002</ele><time>2026-04-18T08:46:46Z</time></trkpt><trkpt lat="43.540229080995005" lon="10.830014865942015"><ele>152.8</ele><time>2026-04-18T08:46:48Z</time></trkpt><trkpt lat="43.54025391718516" lon="10.830098078131536"><ele>153.0</ele><time>2026-04-18T08:46:49Z</time></trkpt><trkpt lat="43.5402614695463" lon="10.830184702239173"><ele>153.57142857142856</ele><time>2026-04-18T08:46:50Z</time></trkpt><trkpt lat="43.540267026880144" lon="10.830274736869416"><ele>154.14285714285714</ele><time>2026-04-18T08:46:51Z</time></trkpt><trkpt lat="43.54027107010936" lon="10.830366617645339"><ele>154.71428571428572</ele><time>2026-04-18T08:46:52Z</time></trkpt><trkpt lat="43.540272508142024" lon="10.830462388028167"><ele>155.28571428571428</ele><time>2026-04-18T08:46:53Z</time></trkpt><trkpt lat="43.54027263857491" lon="10.830574645736517"><ele>155.85714285714286</ele><time>2026-04-18T08:46:54Z</time></trkpt><trkpt lat="43.5402706753063" lon="10.830686459231085"><ele>156.42857142857142</ele><time>2026-04-18T08:46:55Z</time></trkpt><trkpt lat="43.54024992666542" lon="10.830790937402387"><ele>157.0</ele><time>2026-04-18T08:46:56Z</time></trkpt><trkpt lat="43.54026154045021" lon="10.830892864998034"><ele>157.83333333333334</ele><time>2026-04-18T08:46:57Z</time></trkpt><trkpt lat="43.540256437393346" lon="10.830989257323711"><ele>158.66666666666669</ele><time>2026-04-18T08:46:58Z</time></trkpt><trkpt lat="43.54025067951812" lon="10.831083714545619"><ele>159.5</ele><time>2026-04-18T08:46:59Z</time></trkpt><trkpt lat="43.54024454667393" lon="10.831178196368578"><ele>160.33333333333334</ele><time>2026-04-18T08:47:00Z</time></trkpt><trkpt lat="43.540239302554184" lon="10.83127280371899"><ele>161.16666666666666</ele><time>2026-04-18T08:47:01Z</time></trkpt><trkpt lat="43.54023357064422" lon="10.831360822734217"><ele>162.0</ele><time>2026-04-18T08:47:02Z</time></trkpt><trkpt lat="43.54022722063269" lon="10.831516486338852"><ele>162.0</ele><time>2026-04-18T08:47:04Z</time></trkpt><trkpt lat="43.540222282161835" lon="10.831633588743301"><ele>162.0</ele><time>2026-04-18T08:47:06Z</time></trkpt><trkpt lat="43.54021745595874" lon="10.83174415961474"><ele>162.0</ele><time>2026-04-18T08:47:08Z</time></trkpt><trkpt lat="43.540213411372804" lon="10.831854810721198"><ele>162.0</ele><time>2026-04-18T08:47:10Z</time></trkpt><trkpt lat="43.54020997048678" lon="10.83198557615385"><ele>162.0</ele><time>2026-04-18T08:47:12Z</time></trkpt><trkpt lat="43.54021256364655" lon="10.832113019836244"><ele>162.0</ele><time>2026-04-18T08:47:14Z</time></trkpt><trkpt lat="43.54022458822474" lon="10.832235346036688"><ele>162.16666666666666</ele><time>2026-04-18T08:47:16Z</time></trkpt><trkpt lat="43.540230071833285" lon="10.832353099609076"><ele>162.33333333333334</ele><time>2026-04-18T08:47:17.999Z</time></trkpt><trkpt lat="43.540252610834884" lon="10.832470044532984"><ele>162.5</ele><time>2026-04-18T08:47:19.999Z</time></trkpt><trkpt lat="43.54027628793896" lon="10.832586844517493"><ele>162.66666666666669</ele><time>2026-04-18T08:47:21.999Z</time></trkpt><trkpt lat="43.54029656258391" lon="10.83269395557624"><ele>162.83333333333334</ele><time>2026-04-18T08:47:23.999Z</time></trkpt><trkpt lat="43.54031454450531" lon="10.832803391953723"><ele>163.0</ele><time>2026-04-18T08:47:25.999Z</time></trkpt><trkpt lat="43.54033033266065" lon="10.83290774895022"><ele>163.0</ele><time>2026-04-18T08:47:27.999Z</time></trkpt><trkpt lat="43.540342366216656" lon="10.833005438998827"><ele>163.0</ele><time>2026-04-18T08:47:29.999Z</time></trkpt><trkpt lat="43.54035619434754" lon="10.83310416617336"><ele>163.0</ele><time>2026-04-18T08:47:31.999Z</time></trkpt><trkpt lat="43.54036322374313" lon="10.833240205721378"><ele>163.0</ele><time>2026-04-18T08:47:33.999Z</time></trkpt><trkpt lat="43.54036331445555" lon="10.833417792602768"><ele>163.0</ele><time>2026-04-18T08:47:35.999Z</time></trkpt><trkpt lat="43.54036140321759" lon="10.833529404001794"><ele>162.4</ele><time>2026-04-18T08:47:36.999Z</time></trkpt><trkpt lat="43.54035858630097" lon="10.83365835339015"><ele>161.8</ele><time>2026-04-18T08:47:37.999Z</time></trkpt><trkpt lat="43.54035324223053" lon="10.83379140502015"><ele>161.2</ele><time>2026-04-18T08:47:38.999Z</time></trkpt><trkpt lat="43.540347613394225" lon="10.83393556459993"><ele>160.6</ele><time>2026-04-18T08:47:39.999Z</time></trkpt><trkpt lat="43.540342568119506" lon="10.834086408221122"><ele>160.0</ele><time>2026-04-18T08:47:40.999Z</time></trkpt><trkpt lat="43.54033588581123" lon="10.834241815495178"><ele>160.25</ele><time>2026-04-18T08:47:41.999Z</time></trkpt><trkpt lat="43.54032767781384" lon="10.834413021440929"><ele>160.5</ele><time>2026-04-18T08:47:42.999Z</time></trkpt><trkpt lat="43.540303572573144" lon="10.834598317454388"><ele>160.75</ele><time>2026-04-18T08:47:43.999Z</time></trkpt><trkpt lat="43.54031097094291" lon="10.834786682939534"><ele>161.0</ele><time>2026-04-18T08:47:44.999Z</time></trkpt><trkpt lat="43.5403011867091" lon="10.834972714210855"><ele>160.75</ele><time>2026-04-18T08:47:45.999Z</time></trkpt><trkpt lat="43.540291940018875" lon="10.83515810230223"><ele>160.5</ele><time>2026-04-18T08:47:46.999Z</time></trkpt><trkpt lat="43.54028382340489" lon="10.835343679064756"><ele>160.25</ele><time>2026-04-18T08:47:47.999Z</time></trkpt><trkpt lat="43.54025977215849" lon="10.83552592722859"><ele>160.0</ele><time>2026-04-18T08:47:48.999Z</time></trkpt><trkpt lat="43.54025173765398" lon="10.835708289850894"><ele>160.0</ele><time>2026-04-18T08:47:49.999Z</time></trkpt><trkpt lat="43.54024388158555" lon="10.835886602518903"><ele>160.0</ele><time>2026-04-18T08:47:50.999Z</time></trkpt><trkpt lat="43.54025181014563" lon="10.836045274340151"><ele>160.0</ele><time>2026-04-18T08:47:51.999Z</time></trkpt><trkpt lat="43.540241891695075" lon="10.83618693052563"><ele>160.0</ele><time>2026-04-18T08:47:52.999Z</time></trkpt><trkpt lat="43.54023507304906" lon="10.836310914148452"><ele>160.0</ele><time>2026-04-18T08:47:53.999Z</time></trkpt><trkpt lat="43.54023209359007" lon="10.836422466035932"><ele>159.5</ele><time>2026-04-18T08:47:54.999Z</time></trkpt><trkpt lat="43.5402300931627" lon="10.8365171897152"><ele>159.0</ele><time>2026-04-18T08:47:55.999Z</time></trkpt><trkpt lat="43.540225334529886" lon="10.836668047723062"><ele>158.5</ele><time>2026-04-18T08:47:57.999Z</time></trkpt><trkpt lat="43.540221990656065" lon="10.836788475613435"><ele>158.0</ele><time>2026-04-18T08:47:59.999Z</time></trkpt><trkpt lat="43.54022122997075" lon="10.83689756429587"><ele>157.5</ele><time>2026-04-18T08:48:01.999Z</time></trkpt><trkpt lat="43.540226315672214" lon="10.837017796918513"><ele>157.0</ele><time>2026-04-18T08:48:03.999Z</time></trkpt><trkpt lat="43.54024686727212" lon="10.837186259263495"><ele>157.0</ele><time>2026-04-18T08:48:05.999Z</time></trkpt><trkpt lat="43.54026085358991" lon="10.837291166834168"><ele>157.0</ele><time>2026-04-18T08:48:06.999Z</time></trkpt><trkpt lat="43.54025914238719" lon="10.837403441746464"><ele>157.0</ele><time>2026-04-18T08:48:07.999Z</time></trkpt><trkpt lat="43.540292685929046" lon="10.837518417361187"><ele>157.0</ele><time>2026-04-18T08:48:08.999Z</time></trkpt><trkpt lat="43.54031304494203" lon="10.8376495636714"><ele>157.0</ele><time>2026-04-18T08:48:09.999Z</time></trkpt><trkpt lat="43.5403368966732" lon="10.837789873354575"><ele>157.4</ele><time>2026-04-18T08:48:10.999Z</time></trkpt><trkpt lat="43.540360876558154" lon="10.837922585892239"><ele>157.79999999999998</ele><time>2026-04-18T08:48:11.999Z</time></trkpt><trkpt lat="43.540385673475384" lon="10.838061468229972"><ele>158.2</ele><time>2026-04-18T08:48:12.999Z</time></trkpt><trkpt lat="43.54041315911703" lon="10.838208672471078"><ele>158.6</ele><time>2026-04-18T08:48:13.999Z</time></trkpt><trkpt lat="43.54044237393345" lon="10.838362254086583"><ele>159.0</ele><time>2026-04-18T08:48:14.999Z</time></trkpt><trkpt lat="43.54046821150092" lon="10.838516740535528"><ele>160.8</ele><time>2026-04-18T08:48:15.999Z</time></trkpt><trkpt lat="43.54049264468115" lon="10.838668063973017"><ele>162.60000000000002</ele><time>2026-04-18T08:48:16.999Z</time></trkpt><trkpt lat="43.54051921868234" lon="10.838813052239768"><ele>164.4</ele><time>2026-04-18T08:48:17.999Z</time></trkpt><trkpt lat="43.54054570125768" lon="10.838951650986163"><ele>166.20000000000002</ele><time>2026-04-18T08:48:18.998Z</time></trkpt><trkpt lat="43.540569505881784" lon="10.839086899181394"><ele>168.0</ele><time>2026-04-18T08:48:19.998Z</time></trkpt><trkpt lat="43.54059416525949" lon="10.839212742384047"><ele>169.4</ele><time>2026-04-18T08:48:20.998Z</time></trkpt><trkpt lat="43.540615483794596" lon="10.839327563540675"><ele>170.8</ele><time>2026-04-18T08:48:21.998Z</time></trkpt><trkpt lat="43.54063169492819" lon="10.839430592202065"><ele>172.2</ele><time>2026-04-18T08:48:22.998Z</time></trkpt><trkpt lat="43.540645487463046" lon="10.839517246145421"><ele>173.6</ele><time>2026-04-18T08:48:23.998Z</time></trkpt><trkpt lat="43.54066767837974" lon="10.839628019817662"><ele>175.0</ele><time>2026-04-18T08:48:26Z</time></trkpt><trkpt lat="43.54052915573655" lon="10.839595365282735"><ele>175.0</ele><time>2026-04-18T08:48:39Z</time></trkpt><trkpt lat="43.54044416298848" lon="10.839563913174633"><ele>175.0</ele><time>2026-04-18T08:48:41Z</time></trkpt><trkpt lat="43.540363050767695" lon="10.839553396535806"><ele>175.0</ele><time>2026-04-18T08:48:43Z</time></trkpt><trkpt lat="43.54029314489783" lon="10.839542136984756"><ele>175.0</ele><time>2026-04-18T08:48:45Z</time></trkpt><trkpt lat="43.54022041080344" lon="10.839515486860401"><ele>175.0</ele><time>2026-04-18T08:48:48Z</time></trkpt><trkpt lat="43.54014878717799" lon="10.839475046293245"><ele>175.0</ele><time>2026-04-18T08:48:51Z</time></trkpt><trkpt lat="43.540082953126664" lon="10.839428700772457"><ele>175.2</ele><time>2026-04-18T08:48:53Z</time></trkpt><trkpt lat="43.54000469434084" lon="10.839371532137207"><ele>175.4</ele><time>2026-04-18T08:48:55Z</time></trkpt><trkpt lat="43.53991650938378" lon="10.839301546275307"><ele>175.60000000000002</ele><time>2026-04-18T08:48:57Z</time></trkpt><trkpt lat="43.53981985655973" lon="10.839220088929082"><ele>175.8</ele><time>2026-04-18T08:48:59Z</time></trkpt><trkpt lat="43.539715483579315" lon="10.83913162057026"><ele>176.0</ele><time>2026-04-18T08:49:01Z</time></trkpt><trkpt lat="43.53961340782557" lon="10.839049112324172"><ele>174.83333333333331</ele><time>2026-04-18T08:49:03Z</time></trkpt><trkpt lat="43.53951121170016" lon="10.838965726973628"><ele>173.66666666666666</ele><time>2026-04-18T08:49:05Z</time></trkpt><trkpt lat="43.53943818704686" lon="10.838908268375427"><ele>172.5</ele><time>2026-04-18T08:49:07Z</time></trkpt><trkpt lat="43.53937776991544" lon="10.83886390660926"><ele>171.33333333333334</ele><time>2026-04-18T08:49:09Z</time></trkpt><trkpt lat="43.539316835503115" lon="10.838812385616281"><ele>170.16666666666669</ele><time>2026-04-18T08:49:12Z</time></trkpt><trkpt lat="43.5392516375725" lon="10.838736182882254"><ele>169.0</ele><time>2026-04-18T08:49:15Z</time></trkpt><trkpt lat="43.53918274389154" lon="10.838674529783567"><ele>169.0</ele><time>2026-04-18T08:49:16.999Z</time></trkpt><trkpt lat="43.53908716872284" lon="10.838604498362375"><ele>169.0</ele><time>2026-04-18T08:49:18.999Z</time></trkpt><trkpt lat="43.53899536219679" lon="10.838524104572233"><ele>169.0</ele><time>2026-04-18T08:49:20.999Z</time></trkpt><trkpt lat="43.53890798859959" lon="10.838454465538867"><ele>169.0</ele><time>2026-04-18T08:49:22.999Z</time></trkpt><trkpt lat="43.53882420103335" lon="10.83836552678829"><ele>169.0</ele><time>2026-04-18T08:49:24.999Z</time></trkpt><trkpt lat="43.53872848556438" lon="10.838296265943084"><ele>168.2</ele><time>2026-04-18T08:49:26.999Z</time></trkpt><trkpt lat="43.53862996812768" lon="10.83821812944876"><ele>167.39999999999998</ele><time>2026-04-18T08:49:28.999Z</time></trkpt><trkpt lat="43.538537031459136" lon="10.838139236197467"><ele>166.6</ele><time>2026-04-18T08:49:30.999Z</time></trkpt><trkpt lat="43.538444633935214" lon="10.83808439784611"><ele>165.8</ele><time>2026-04-18T08:49:32.999Z</time></trkpt><trkpt lat="43.538386431292494" lon="10.83803232726887"><ele>165.0</ele><time>2026-04-18T08:49:34.999Z</time></trkpt><trkpt lat="43.538331940680635" lon="10.837981282901726"><ele>165.0</ele><time>2026-04-18T08:49:38.999Z</time></trkpt><trkpt lat="43.53825691815339" lon="10.837920160716223"><ele>165.0</ele><time>2026-04-18T08:49:42.999Z</time></trkpt><trkpt lat="43.538187207341984" lon="10.837836628394934"><ele>165.0</ele><time>2026-04-18T08:49:45.999Z</time></trkpt><trkpt lat="43.538111726338556" lon="10.837797824040297"><ele>165.0</ele><time>2026-04-18T08:49:47.999Z</time></trkpt><trkpt lat="43.53804199839575" lon="10.837710993359519"><ele>165.0</ele><time>2026-04-18T08:49:49.999Z</time></trkpt><trkpt lat="43.53794578865346" lon="10.837654162732345"><ele>163.6</ele><time>2026-04-18T08:49:51.999Z</time></trkpt><trkpt lat="43.537864909199484" lon="10.837580911742497"><ele>162.2</ele><time>2026-04-18T08:49:53.999Z</time></trkpt><trkpt lat="43.53778552514839" lon="10.83751442904985"><ele>160.8</ele><time>2026-04-18T08:49:55.999Z</time></trkpt><trkpt lat="43.537709865018186" lon="10.837437313893254"><ele>159.4</ele><time>2026-04-18T08:49:57.999Z</time></trkpt><trkpt lat="43.53762061446657" lon="10.83737624909191"><ele>158.0</ele><time>2026-04-18T08:49:59.999Z</time></trkpt><trkpt lat="43.537511852510875" lon="10.8373222030879"><ele>158.00000000000003</ele><time>2026-04-18T08:50:01.999Z</time></trkpt><trkpt lat="43.537451084420766" lon="10.837298418030889"><ele>158.0</ele><time>2026-04-18T08:50:02.999Z</time></trkpt><trkpt lat="43.537384317551655" lon="10.837280931498034"><ele>158.0</ele><time>2026-04-18T08:50:03.999Z</time></trkpt><trkpt lat="43.537314286068614" lon="10.837262478100174"><ele>158.0</ele><time>2026-04-18T08:50:04.999Z</time></trkpt><trkpt lat="43.5372439504951" lon="10.837244154173659"><ele>158.0</ele><time>2026-04-18T08:50:05.999Z</time></trkpt><trkpt lat="43.53717743102939" lon="10.837222431224772"><ele>158.00000000000003</ele><time>2026-04-18T08:50:06.999Z</time></trkpt><trkpt lat="43.537115389298584" lon="10.837195069377662"><ele>158.0</ele><time>2026-04-18T08:50:07.999Z</time></trkpt><trkpt lat="43.53699810955553" lon="10.837141374680407"><ele>157.8</ele><time>2026-04-18T08:50:09.999Z</time></trkpt><trkpt lat="43.536900772996894" lon="10.837042753402223"><ele>157.60000000000002</ele><time>2026-04-18T08:50:11.999Z</time></trkpt><trkpt lat="43.53679474872408" lon="10.836942440431613"><ele>157.39999999999998</ele><time>2026-04-18T08:50:13.999Z</time></trkpt><trkpt lat="43.5367358340208" lon="10.836899688385117"><ele>157.2</ele><time>2026-04-18T08:50:14.999Z</time></trkpt><trkpt lat="43.53668544080019" lon="10.836839929219462"><ele>157.0</ele><time>2026-04-18T08:50:15.999Z</time></trkpt><trkpt lat="43.53658857543994" lon="10.836777093227232"><ele>157.0</ele><time>2026-04-18T08:50:17.999Z</time></trkpt><trkpt lat="43.53651422283793" lon="10.836750153707111"><ele>157.0</ele><time>2026-04-18T08:50:19.999Z</time></trkpt><trkpt lat="43.53643234548304" lon="10.836684181251034"><ele>157.0</ele><time>2026-04-18T08:50:21.998Z</time></trkpt><trkpt lat="43.53634160069166" lon="10.836582625591756"><ele>157.0</ele><time>2026-04-18T08:50:23.998Z</time></trkpt><trkpt lat="43.53625024605452" lon="10.836471728143222"><ele>157.0</ele><time>2026-04-18T08:50:25.998Z</time></trkpt><trkpt lat="43.536199754266576" lon="10.836418734696617"><ele>158.85714285714283</ele><time>2026-04-18T08:50:26.998Z</time></trkpt><trkpt lat="43.53613642799027" lon="10.836371578786334"><ele>160.71428571428572</ele><time>2026-04-18T08:50:27.998Z</time></trkpt><trkpt lat="43.53606870479711" lon="10.836340522140047"><ele>162.57142857142856</ele><time>2026-04-18T08:50:28.998Z</time></trkpt><trkpt lat="43.53600449404702" lon="10.836309820746372"><ele>164.42857142857142</ele><time>2026-04-18T08:50:29.998Z</time></trkpt><trkpt lat="43.53594672381914" lon="10.836272230027907"><ele>166.28571428571428</ele><time>2026-04-18T08:50:30.998Z</time></trkpt><trkpt lat="43.53589140052288" lon="10.83622454321526"><ele>168.14285714285714</ele><time>2026-04-18T08:50:32Z</time></trkpt><trkpt lat="43.53584158158578" lon="10.836157397908712"><ele>170.0</ele><time>2026-04-18T08:50:33Z</time></trkpt><trkpt lat="43.535797234870024" lon="10.836086161643992"><ele>170.0</ele><time>2026-04-18T08:50:34Z</time></trkpt><trkpt lat="43.535749189017245" lon="10.836014463650242"><ele>170.0</ele><time>2026-04-18T08:50:35Z</time></trkpt><trkpt lat="43.535696330767855" lon="10.83594014233418"><ele>170.0</ele><time>2026-04-18T08:50:36Z</time></trkpt><trkpt lat="43.53564824417164" lon="10.835861361055079"><ele>170.0</ele><time>2026-04-18T08:50:37Z</time></trkpt><trkpt lat="43.535601230814635" lon="10.835787215370198"><ele>170.0</ele><time>2026-04-18T08:50:38Z</time></trkpt><trkpt lat="43.53552047502971" lon="10.835672758957289"><ele>170.0</ele><time>2026-04-18T08:50:40Z</time></trkpt><trkpt lat="43.53545689315885" lon="10.835594704485395"><ele>171.5</ele><time>2026-04-18T08:50:42Z</time></trkpt><trkpt lat="43.535386623175846" lon="10.835513950734303"><ele>173.0</ele><time>2026-04-18T08:50:45Z</time></trkpt><trkpt lat="43.53532708584071" lon="10.835446148020765"><ele>174.5</ele><time>2026-04-18T08:50:49Z</time></trkpt><trkpt lat="43.53527039114304" lon="10.835385683573325"><ele>176.0</ele><time>2026-04-18T08:50:53Z</time></trkpt><trkpt lat="43.535193853150226" lon="10.835329586861281"><ele>177.5</ele><time>2026-04-18T08:50:56Z</time></trkpt><trkpt lat="43.53511370094275" lon="10.835280217068908"><ele>179.0</ele><time>2026-04-18T08:50:59Z</time></trkpt><trkpt lat="43.53503378140408" lon="10.83527994646232"><ele>179.0</ele><time>2026-04-18T08:51:01Z</time></trkpt><trkpt lat="43.534964946573474" lon="10.835197955061403"><ele>179.0</ele><time>2026-04-18T08:51:04Z</time></trkpt><trkpt lat="43.534959509357584" lon="10.835069370652862"><ele>179.0</ele><time>2026-04-18T08:51:06Z</time></trkpt><trkpt lat="43.53492263688983" lon="10.834961698283182"><ele>179.0</ele><time>2026-04-18T08:51:08Z</time></trkpt><trkpt lat="43.5348805471322" lon="10.83484091518571"><ele>179.0</ele><time>2026-04-18T08:51:10Z</time></trkpt><trkpt lat="43.53483322952588" lon="10.834721682927633"><ele>177.6</ele><time>2026-04-18T08:51:12Z</time></trkpt><trkpt lat="43.534779691696734" lon="10.834612523297452"><ele>176.2</ele><time>2026-04-18T08:51:13.999Z</time></trkpt><trkpt lat="43.53472478199713" lon="10.834517568835565"><ele>174.79999999999998</ele><time>2026-04-18T08:51:15.999Z</time></trkpt><trkpt lat="43.53466862443168" lon="10.834429797164214"><ele>173.39999999999998</ele><time>2026-04-18T08:51:17.999Z</time></trkpt><trkpt lat="43.53458242596068" lon="10.834341431992929"><ele>172.0</ele><time>2026-04-18T08:51:19.999Z</time></trkpt><trkpt lat="43.53450635485701" lon="10.83424304488072"><ele>172.0</ele><time>2026-04-18T08:51:21.999Z</time></trkpt><trkpt lat="43.53442885330024" lon="10.834152398977068"><ele>172.0</ele><time>2026-04-18T08:51:23.999Z</time></trkpt><trkpt lat="43.53435519270971" lon="10.834073273414884"><ele>172.0</ele><time>2026-04-18T08:51:25.999Z</time></trkpt><trkpt lat="43.534283508091235" lon="10.833994404942255"><ele>172.0</ele><time>2026-04-18T08:51:27.999Z</time></trkpt><trkpt lat="43.53420823861357" lon="10.833927426796569"><ele>172.0</ele><time>2026-04-18T08:51:29.999Z</time></trkpt><trkpt lat="43.53412748893315" lon="10.833847618255923"><ele>172.0</ele><time>2026-04-18T08:51:31.999Z</time></trkpt><trkpt lat="43.53403091636357" lon="10.833788050370021"><ele>172.0</ele><time>2026-04-18T08:51:33.999Z</time></trkpt><trkpt lat="43.533940544239194" lon="10.83371720234306"><ele>172.0</ele><time>2026-04-18T08:51:35.999Z</time></trkpt><trkpt lat="43.53388426869021" lon="10.833623809751545"><ele>172.0</ele><time>2026-04-18T08:51:37.999Z</time></trkpt><trkpt lat="43.533831155872655" lon="10.833531189084967"><ele>172.0</ele><time>2026-04-18T08:51:39.999Z</time></trkpt><trkpt lat="43.53377385371472" lon="10.833443048037887"><ele>171.39999999999998</ele><time>2026-04-18T08:51:41.999Z</time></trkpt><trkpt lat="43.53373012598926" lon="10.833364748986515"><ele>170.79999999999998</ele><time>2026-04-18T08:51:44.999Z</time></trkpt><trkpt lat="43.53368052331415" lon="10.833264022324533"><ele>170.2</ele><time>2026-04-18T08:51:47.999Z</time></trkpt><trkpt lat="43.533602825461855" lon="10.833182567886622"><ele>169.6</ele><time>2026-04-18T08:51:49.999Z</time></trkpt><trkpt lat="43.53353596841351" lon="10.833063870835561"><ele>169.0</ele><time>2026-04-18T08:51:51.999Z</time></trkpt><trkpt lat="43.53348792625265" lon="10.832924025201498"><ele>169.0</ele><time>2026-04-18T08:51:53.999Z</time></trkpt><trkpt lat="43.53343262317013" lon="10.832788557469858"><ele>169.0</ele><time>2026-04-18T08:51:55.999Z</time></trkpt><trkpt lat="43.53336521163883" lon="10.832658767638577"><ele>169.0</ele><time>2026-04-18T08:51:57.999Z</time></trkpt><trkpt lat="43.5333138269692" lon="10.832522757862254"><ele>169.0</ele><time>2026-04-18T08:51:59.999Z</time></trkpt><trkpt lat="43.5332534139631" lon="10.832403520276285"><ele>169.0</ele><time>2026-04-18T08:52:01.999Z</time></trkpt><trkpt lat="43.533185896825806" lon="10.832304662216863"><ele>169.14285714285714</ele><time>2026-04-18T08:52:03.999Z</time></trkpt><trkpt lat="43.533128083439266" lon="10.832234944571189"><ele>169.28571428571428</ele><time>2026-04-18T08:52:05.999Z</time></trkpt><trkpt lat="43.53307749448395" lon="10.832167622513014"><ele>169.42857142857144</ele><time>2026-04-18T08:52:11.999Z</time></trkpt><trkpt lat="43.53302622519269" lon="10.832095839342655"><ele>169.57142857142856</ele><time>2026-04-18T08:52:24.998Z</time></trkpt><trkpt lat="43.532984277904845" lon="10.832027488675681"><ele>169.7142857142857</ele><time>2026-04-18T08:52:30.998Z</time></trkpt><trkpt lat="43.53294224966547" lon="10.831950926309702"><ele>169.85714285714286</ele><time>2026-04-18T08:52:34.998Z</time></trkpt><trkpt lat="43.5328892678086" lon="10.831848731116004"><ele>170.0</ele><time>2026-04-18T08:52:38Z</time></trkpt><trkpt lat="43.532848701054284" lon="10.831771738996386"><ele>170.0</ele><time>2026-04-18T08:52:40Z</time></trkpt><trkpt lat="43.53281215829119" lon="10.831686713062972"><ele>170.0</ele><time>2026-04-18T08:52:42Z</time></trkpt><trkpt lat="43.53278596202876" lon="10.831568852318286"><ele>170.0</ele><time>2026-04-18T08:52:45Z</time></trkpt><trkpt lat="43.53275361125862" lon="10.831493185307263"><ele>170.0</ele><time>2026-04-18T08:52:47Z</time></trkpt><trkpt lat="43.532714786911576" lon="10.831418100275428"><ele>170.0</ele><time>2026-04-18T08:52:49Z</time></trkpt><trkpt lat="43.532671338340364" lon="10.83133961460848"><ele>170.0</ele><time>2026-04-18T08:52:51Z</time></trkpt><trkpt lat="43.532611653928875" lon="10.83125239267686"><ele>170.0</ele><time>2026-04-18T08:52:53Z</time></trkpt><trkpt lat="43.53252767298143" lon="10.83114523815345"><ele>170.0</ele><time>2026-04-18T08:52:55Z</time></trkpt><trkpt lat="43.53243283097112" lon="10.831049024042064"><ele>170.0</ele><time>2026-04-18T08:52:57Z</time></trkpt><trkpt lat="43.53234196296375" lon="10.830971933791192"><ele>170.0</ele><time>2026-04-18T08:52:59Z</time></trkpt><trkpt lat="43.53225389596616" lon="10.830915850922958"><ele>170.0</ele><time>2026-04-18T08:53:01Z</time></trkpt><trkpt lat="43.53217341848124" lon="10.830868885940617"><ele>171.16666666666666</ele><time>2026-04-18T08:53:03Z</time></trkpt><trkpt lat="43.53209514498619" lon="10.830828112786449"><ele>172.33333333333331</ele><time>2026-04-18T08:53:05Z</time></trkpt><trkpt lat="43.532013473866364" lon="10.830790574999641"><ele>173.5</ele><time>2026-04-18T08:53:07Z</time></trkpt><trkpt lat="43.53194489145151" lon="10.830766933463801"><ele>174.66666666666666</ele><time>2026-04-18T08:53:15Z</time></trkpt><trkpt lat="43.53186217214671" lon="10.830758782483489"><ele>175.83333333333334</ele><time>2026-04-18T08:53:18Z</time></trkpt><trkpt lat="43.53179690002462" lon="10.830725476920088"><ele>177.0</ele><time>2026-04-18T08:53:20Z</time></trkpt><trkpt lat="43.531714742510665" lon="10.830682663772096"><ele>177.66666666666666</ele><time>2026-04-18T08:53:22Z</time></trkpt><trkpt lat="43.53161655140767" lon="10.830627467595475"><ele>178.33333333333334</ele><time>2026-04-18T08:53:24Z</time></trkpt><trkpt lat="43.53156266510524" lon="10.830576499838852"><ele>179.0</ele><time>2026-04-18T08:53:24.999Z</time></trkpt><trkpt lat="43.5314981311183" lon="10.830561497624396"><ele>179.66666666666669</ele><time>2026-04-18T08:53:25.999Z</time></trkpt><trkpt lat="43.53143941998346" lon="10.830529275919778"><ele>180.33333333333334</ele><time>2026-04-18T08:53:26.999Z</time></trkpt><trkpt lat="43.53137769747181" lon="10.830496654608814"><ele>181.0</ele><time>2026-04-18T08:53:27.999Z</time></trkpt><trkpt lat="43.53127462947356" lon="10.830450314454524"><ele>180.4</ele><time>2026-04-18T08:53:29.999Z</time></trkpt><trkpt lat="43.53118929719166" lon="10.830390748195086"><ele>179.8</ele><time>2026-04-18T08:53:31.999Z</time></trkpt><trkpt lat="43.531113510000154" lon="10.83030021645867"><ele>179.20000000000002</ele><time>2026-04-18T08:53:33.999Z</time></trkpt><trkpt lat="43.53106815319612" lon="10.8301737281384"><ele>178.60000000000002</ele><time>2026-04-18T08:53:35.999Z</time></trkpt><trkpt lat="43.531017519269994" lon="10.830047431783726"><ele>178.0</ele><time>2026-04-18T08:53:37.999Z</time></trkpt><trkpt lat="43.53099405473494" lon="10.82987484432035"><ele>178.0</ele><time>2026-04-18T08:53:39.999Z</time></trkpt><trkpt lat="43.53099062896598" lon="10.829769837932128"><ele>178.0</ele><time>2026-04-18T08:53:40.999Z</time></trkpt><trkpt lat="43.53096324227745" lon="10.82962123060552"><ele>178.0</ele><time>2026-04-18T08:53:42.999Z</time></trkpt><trkpt lat="43.53094989836513" lon="10.829491435811224"><ele>178.0</ele><time>2026-04-18T08:53:44.999Z</time></trkpt><trkpt lat="43.53094090534205" lon="10.829384220436824"><ele>178.0</ele><time>2026-04-18T08:53:46.999Z</time></trkpt><trkpt lat="43.530932969269124" lon="10.829293145077783"><ele>178.0</ele><time>2026-04-18T08:53:48.999Z</time></trkpt><trkpt lat="43.530912735802644" lon="10.829183132444172"><ele>177.66666666666669</ele><time>2026-04-18T08:53:51.999Z</time></trkpt><trkpt lat="43.53088479154078" lon="10.829083755718528"><ele>177.33333333333334</ele><time>2026-04-18T08:53:54.999Z</time></trkpt><trkpt lat="43.530852741429314" lon="10.828986894605759"><ele>177.0</ele><time>2026-04-18T08:53:57.999Z</time></trkpt><trkpt lat="43.5308095247329" lon="10.82887449080019"><ele>176.66666666666666</ele><time>2026-04-18T08:54:00.999Z</time></trkpt><trkpt lat="43.530756111707866" lon="10.828777268122371"><ele>176.33333333333331</ele><time>2026-04-18T08:54:03.999Z</time></trkpt><trkpt lat="43.53070188324899" lon="10.828685995565175"><ele>176.0</ele><time>2026-04-18T08:54:06.999Z</time></trkpt><trkpt lat="43.53063759099944" lon="10.828601373934392"><ele>176.0</ele><time>2026-04-18T08:54:09.999Z</time></trkpt><trkpt lat="43.530579097311104" lon="10.828510350625885"><ele>176.0</ele><time>2026-04-18T08:54:12.999Z</time></trkpt><trkpt lat="43.5305116676322" lon="10.828413642389787"><ele>176.0</ele><time>2026-04-18T08:54:15.999Z</time></trkpt><trkpt lat="43.5304643512503" lon="10.82834881230566"><ele>176.0</ele><time>2026-04-18T08:54:17.999Z</time></trkpt><trkpt lat="43.53041614631518" lon="10.828286391461685"><ele>176.0</ele><time>2026-04-18T08:54:19.999Z</time></trkpt><trkpt lat="43.53036926635327" lon="10.828228007244215"><ele>176.0</ele><time>2026-04-18T08:54:21.999Z</time></trkpt><trkpt lat="43.530320909432525" lon="10.828169375186885"><ele>176.0</ele><time>2026-04-18T08:54:23.999Z</time></trkpt><trkpt lat="43.53027175739079" lon="10.828110046904802"><ele>174.66666666666666</ele><time>2026-04-18T08:54:25.999Z</time></trkpt><trkpt lat="43.530222189726565" lon="10.828051528286604"><ele>173.33333333333331</ele><time>2026-04-18T08:54:27.999Z</time></trkpt><trkpt lat="43.53017156826379" lon="10.827992383853356"><ele>172.0</ele><time>2026-04-18T08:54:29.999Z</time></trkpt><trkpt lat="43.53012780159122" lon="10.827899442508238"><ele>170.66666666666666</ele><time>2026-04-18T08:54:32.999Z</time></trkpt><trkpt lat="43.53006425282827" lon="10.827826903443816"><ele>169.33333333333334</ele><time>2026-04-18T08:54:35.998Z</time></trkpt><trkpt lat="43.53003389256418" lon="10.827717358570055"><ele>168.0</ele><time>2026-04-18T08:54:39.998Z</time></trkpt><trkpt lat="43.529966250219815" lon="10.8276355490262"><ele>168.0</ele><time>2026-04-18T08:54:43Z</time></trkpt><trkpt lat="43.529917709289904" lon="10.827547357790436"><ele>168.0</ele><time>2026-04-18T08:54:45Z</time></trkpt><trkpt lat="43.52987420345288" lon="10.82746073125938"><ele>168.0</ele><time>2026-04-18T08:54:47Z</time></trkpt><trkpt lat="43.52983484347368" lon="10.827357875891149"><ele>168.0</ele><time>2026-04-18T08:54:50Z</time></trkpt><trkpt lat="43.52978991854187" lon="10.8272962800884"><ele>168.0</ele><time>2026-04-18T08:54:52Z</time></trkpt><trkpt lat="43.529740269857136" lon="10.827192019270658"><ele>168.0</ele><time>2026-04-18T08:54:55Z</time></trkpt><trkpt lat="43.529704681785134" lon="10.82711729094611"><ele>168.0</ele><time>2026-04-18T08:54:57Z</time></trkpt><trkpt lat="43.52963625418748" lon="10.827029418716883"><ele>168.0</ele><time>2026-04-18T08:55:00Z</time></trkpt><trkpt lat="43.529588872966784" lon="10.82696535983119"><ele>168.0</ele><time>2026-04-18T08:55:02Z</time></trkpt><trkpt lat="43.52954790059418" lon="10.826898841593321"><ele>168.0</ele><time>2026-04-18T08:55:04Z</time></trkpt><trkpt lat="43.52950441910916" lon="10.826828024648439"><ele>168.0</ele><time>2026-04-18T08:55:06Z</time></trkpt><trkpt lat="43.52946390755364" lon="10.826725952172687"><ele>168.0</ele><time>2026-04-18T08:55:08Z</time></trkpt><trkpt lat="43.52939357914801" lon="10.826630665448647"><ele>165.83333333333334</ele><time>2026-04-18T08:55:10Z</time></trkpt><trkpt lat="43.5293504352204" lon="10.826533319404508"><ele>163.66666666666666</ele><time>2026-04-18T08:55:12Z</time></trkpt><trkpt lat="43.52929667020161" lon="10.826435909585719"><ele>161.5</ele><time>2026-04-18T08:55:14Z</time></trkpt><trkpt lat="43.52923978089601" lon="10.82632581407046"><ele>159.33333333333331</ele><time>2026-04-18T08:55:16Z</time></trkpt><trkpt lat="43.52919959070641" lon="10.826247013904371"><ele>157.16666666666666</ele><time>2026-04-18T08:55:18Z</time></trkpt><trkpt lat="43.52914513053827" lon="10.826143827356043"><ele>155.0</ele><time>2026-04-18T08:55:20.999Z</time></trkpt><trkpt lat="43.52909254287117" lon="10.826052894438577"><ele>152.6</ele><time>2026-04-18T08:55:22.999Z</time></trkpt><trkpt lat="43.529038998802655" lon="10.825942900358847"><ele>150.2</ele><time>2026-04-18T08:55:24.999Z</time></trkpt><trkpt lat="43.52900806828835" lon="10.825825971760521"><ele>147.8</ele><time>2026-04-18T08:55:26.999Z</time></trkpt><trkpt lat="43.52896542445523" lon="10.825708348247806"><ele>145.4</ele><time>2026-04-18T08:55:28.999Z</time></trkpt><trkpt lat="43.52891353912935" lon="10.825600454942702"><ele>143.0</ele><time>2026-04-18T08:55:30.999Z</time></trkpt><trkpt lat="43.52888409138709" lon="10.825490840872348"><ele>143.0</ele><time>2026-04-18T08:55:32.999Z</time></trkpt><trkpt lat="43.52885622042314" lon="10.825389197328978"><ele>143.0</ele><time>2026-04-18T08:55:34.999Z</time></trkpt><trkpt lat="43.52884699654052" lon="10.825284308770355"><ele>143.0</ele><time>2026-04-18T08:55:36.999Z</time></trkpt><trkpt lat="43.5288098769432" lon="10.825193230361299"><ele>143.0</ele><time>2026-04-18T08:55:38.999Z</time></trkpt><trkpt lat="43.528791168097555" lon="10.825098374243288"><ele>143.0</ele><time>2026-04-18T08:55:40.999Z</time></trkpt><trkpt lat="43.52876845879121" lon="10.824976434886011"><ele>143.0</ele><time>2026-04-18T08:55:43.999Z</time></trkpt><trkpt lat="43.52874942547566" lon="10.824890587823276"><ele>142.14285714285714</ele><time>2026-04-18T08:55:45.999Z</time></trkpt><trkpt lat="43.52873056778274" lon="10.824805222294172"><ele>141.28571428571428</ele><time>2026-04-18T08:55:47.999Z</time></trkpt><trkpt lat="43.5287301405224" lon="10.824718101484825"><ele>140.42857142857144</ele><time>2026-04-18T08:55:49.999Z</time></trkpt><trkpt lat="43.52869459247931" lon="10.824624252823162"><ele>139.57142857142856</ele><time>2026-04-18T08:55:52.999Z</time></trkpt><trkpt lat="43.528671356758366" lon="10.824524419881671"><ele>138.71428571428572</ele><time>2026-04-18T08:55:55.999Z</time></trkpt><trkpt lat="43.52866656297232" lon="10.82443187943585"><ele>137.85714285714286</ele><time>2026-04-18T08:55:58.999Z</time></trkpt><trkpt lat="43.52863952631294" lon="10.824324023161456"><ele>137.0</ele><time>2026-04-18T08:56:02.999Z</time></trkpt><trkpt lat="43.528592023827514" lon="10.824220034133118"><ele>136.83333333333331</ele><time>2026-04-18T08:56:05.999Z</time></trkpt><trkpt lat="43.528564897861564" lon="10.824125740420294"><ele>136.66666666666666</ele><time>2026-04-18T08:56:07.999Z</time></trkpt><trkpt lat="43.52853010722339" lon="10.824027826658742"><ele>136.5</ele><time>2026-04-18T08:56:09.999Z</time></trkpt><trkpt lat="43.528515880780375" lon="10.823932147382031"><ele>136.33333333333334</ele><time>2026-04-18T08:56:11.999Z</time></trkpt><trkpt lat="43.52846773642015" lon="10.823846900886927"><ele>136.16666666666669</ele><time>2026-04-18T08:56:14.999Z</time></trkpt><trkpt lat="43.52843217556519" lon="10.823748034038456"><ele>136.0</ele><time>2026-04-18T08:56:17.999Z</time></trkpt><trkpt lat="43.528400653076176" lon="10.823629199420933"><ele>136.0</ele><time>2026-04-18T08:56:20.999Z</time></trkpt><trkpt lat="43.528349852466384" lon="10.823501235545075"><ele>136.0</ele><time>2026-04-18T08:56:23.999Z</time></trkpt><trkpt lat="43.52828722431357" lon="10.82339943466933"><ele>136.0</ele><time>2026-04-18T08:56:25.999Z</time></trkpt><trkpt lat="43.528230954163845" lon="10.823267481980363"><ele>136.0</ele><time>2026-04-18T08:56:27.999Z</time></trkpt><trkpt lat="43.52820050498074" lon="10.823190189576351"><ele>136.0</ele><time>2026-04-18T08:56:28.999Z</time></trkpt><trkpt lat="43.528136345166594" lon="10.8230505345565"><ele>134.6</ele><time>2026-04-18T08:56:30.999Z</time></trkpt><trkpt lat="43.52807558054176" lon="10.822924850587194"><ele>133.2</ele><time>2026-04-18T08:56:32.998Z</time></trkpt><trkpt lat="43.528023405657144" lon="10.822813043720114"><ele>131.8</ele><time>2026-04-18T08:56:34.998Z</time></trkpt><trkpt lat="43.5279690563374" lon="10.82270192597105"><ele>130.4</ele><time>2026-04-18T08:56:36.998Z</time></trkpt><trkpt lat="43.52793291569883" lon="10.8225784258994"><ele>129.0</ele><time>2026-04-18T08:56:38.998Z</time></trkpt><trkpt lat="43.52789196951838" lon="10.822482593879272"><ele>127.5</ele><time>2026-04-18T08:56:40.998Z</time></trkpt><trkpt lat="43.52787163982054" lon="10.822396004537334"><ele>126.0</ele><time>2026-04-18T08:56:42.998Z</time></trkpt><trkpt lat="43.52786902720929" lon="10.822290962278196"><ele>124.5</ele><time>2026-04-18T08:56:45.998Z</time></trkpt><trkpt lat="43.527896597242574" lon="10.822202521632573"><ele>123.0</ele><time>2026-04-18T08:56:49Z</time></trkpt><trkpt lat="43.527959396026255" lon="10.822118656222568"><ele>121.5</ele><time>2026-04-18T08:56:52Z</time></trkpt><trkpt lat="43.527997437915246" lon="10.822020394236393"><ele>120.0</ele><time>2026-04-18T08:56:54Z</time></trkpt><trkpt lat="43.52802696341606" lon="10.82187310615858"><ele>118.66666666666667</ele><time>2026-04-18T08:56:56Z</time></trkpt><trkpt lat="43.52803445015668" lon="10.821786122938681"><ele>117.33333333333334</ele><time>2026-04-18T08:56:57Z</time></trkpt><trkpt lat="43.52803295951494" lon="10.821693686526556"><ele>116.0</ele><time>2026-04-18T08:56:58Z</time></trkpt><trkpt lat="43.528025752875806" lon="10.821607197525042"><ele>114.66666666666667</ele><time>2026-04-18T08:56:59Z</time></trkpt><trkpt lat="43.52799325993684" lon="10.821447776209157"><ele>113.33333333333334</ele><time>2026-04-18T08:57:01Z</time></trkpt><trkpt lat="43.527975004070676" lon="10.821291189481336"><ele>112.0</ele><time>2026-04-18T08:57:03Z</time></trkpt><trkpt lat="43.52795255307164" lon="10.821131473941398"><ele>111.6</ele><time>2026-04-18T08:57:05Z</time></trkpt><trkpt lat="43.527929087325845" lon="10.820976238137911"><ele>111.19999999999999</ele><time>2026-04-18T08:57:07Z</time></trkpt><trkpt lat="43.52790848027986" lon="10.820826988152943"><ele>110.8</ele><time>2026-04-18T08:57:09Z</time></trkpt><trkpt lat="43.527883742076604" lon="10.820691257526546"><ele>110.4</ele><time>2026-04-18T08:57:11Z</time></trkpt><trkpt lat="43.527856272347485" lon="10.82055717360017"><ele>110.0</ele><time>2026-04-18T08:57:13Z</time></trkpt><trkpt lat="43.52776408567733" lon="10.820470050375635"><ele>109.99999999999999</ele><time>2026-04-18T08:57:15Z</time></trkpt><trkpt lat="43.52764463668453" lon="10.8204061906759"><ele>110.0</ele><time>2026-04-18T08:57:17Z</time></trkpt><trkpt lat="43.52757140064963" lon="10.820413642220815"><ele>110.0</ele><time>2026-04-18T08:57:18Z</time></trkpt><trkpt lat="43.52749879763676" lon="10.820399335166348"><ele>110.0</ele><time>2026-04-18T08:57:19Z</time></trkpt><trkpt lat="43.527421994864646" lon="10.82035992630014"><ele>109.99999999999999</ele><time>2026-04-18T08:57:20Z</time></trkpt><trkpt lat="43.527339641359816" lon="10.820337211834648"><ele>110.0</ele><time>2026-04-18T08:57:21Z</time></trkpt><trkpt lat="43.52725836395005" lon="10.82031328086032"><ele>109.99999999999999</ele><time>2026-04-18T08:57:22Z</time></trkpt><trkpt lat="43.52717482031082" lon="10.820299781393691"><ele>110.0</ele><time>2026-04-18T08:57:23Z</time></trkpt><trkpt lat="43.52710458505762" lon="10.820242351106032"><ele>110.0</ele><time>2026-04-18T08:57:24Z</time></trkpt><trkpt lat="43.5270482885839" lon="10.820162625999192"><ele>110.0</ele><time>2026-04-18T08:57:24.999Z</time></trkpt><trkpt lat="43.527015798074174" lon="10.820068108530165"><ele>109.99999999999999</ele><time>2026-04-18T08:57:25.999Z</time></trkpt><trkpt lat="43.5270244932808" lon="10.819976142007809"><ele>110.0</ele><time>2026-04-18T08:57:26.999Z</time></trkpt><trkpt lat="43.52703116796461" lon="10.819883432074594"><ele>107.16666666666666</ele><time>2026-04-18T08:57:27.999Z</time></trkpt><trkpt lat="43.527024277418" lon="10.819780386620318"><ele>104.33333333333333</ele><time>2026-04-18T08:57:28.999Z</time></trkpt><trkpt lat="43.52702813793489" lon="10.8196734877493"><ele>101.5</ele><time>2026-04-18T08:57:29.999Z</time></trkpt><trkpt lat="43.52703760559629" lon="10.819561578871818"><ele>98.66666666666666</ele><time>2026-04-18T08:57:30.999Z</time></trkpt><trkpt lat="43.527046104441716" lon="10.819448737201911"><ele>95.83333333333333</ele><time>2026-04-18T08:57:31.999Z</time></trkpt><trkpt lat="43.527050663824475" lon="10.819333096492697"><ele>93.0</ele><time>2026-04-18T08:57:32.999Z</time></trkpt><trkpt lat="43.527050100625004" lon="10.81922684957111"><ele>92.33333333333333</ele><time>2026-04-18T08:57:33.999Z</time></trkpt><trkpt lat="43.5270405480565" lon="10.819124675722781"><ele>91.66666666666667</ele><time>2026-04-18T08:57:34.999Z</time></trkpt><trkpt lat="43.52703875753738" lon="10.81901657353882"><ele>91.0</ele><time>2026-04-18T08:57:35.999Z</time></trkpt><trkpt lat="43.52700343744583" lon="10.81891622528618"><ele>90.33333333333334</ele><time>2026-04-18T08:57:36.999Z</time></trkpt><trkpt lat="43.52696171123633" lon="10.818829476342644"><ele>89.66666666666667</ele><time>2026-04-18T08:57:37.999Z</time></trkpt><trkpt lat="43.52690246773688" lon="10.818776589900546"><ele>89.0</ele><time>2026-04-18T08:57:38.999Z</time></trkpt><trkpt lat="43.52684221447358" lon="10.818674264688147"><ele>89.0</ele><time>2026-04-18T08:57:40.999Z</time></trkpt><trkpt lat="43.52682326145973" lon="10.818585277447461"><ele>89.0</ele><time>2026-04-18T08:57:43.999Z</time></trkpt><trkpt lat="43.52681705757624" lon="10.818495813344379"><ele>89.0</ele><time>2026-04-18T08:57:47.999Z</time></trkpt><trkpt lat="43.52686630279952" lon="10.81842221005004"><ele>89.0</ele><time>2026-04-18T08:57:50.999Z</time></trkpt><trkpt lat="43.52691599430087" lon="10.818328825752175"><ele>89.0</ele><time>2026-04-18T08:57:52.999Z</time></trkpt><trkpt lat="43.52697489929036" lon="10.818220482511279"><ele>89.0</ele><time>2026-04-18T08:57:54.999Z</time></trkpt><trkpt lat="43.527047090365045" lon="10.818089115490672"><ele>88.28571428571428</ele><time>2026-04-18T08:57:56.999Z</time></trkpt><trkpt lat="43.5270869530966" lon="10.818014576302017"><ele>87.57142857142857</ele><time>2026-04-18T08:57:57.999Z</time></trkpt><trkpt lat="43.52714214111816" lon="10.817944573439133"><ele>86.85714285714286</ele><time>2026-04-18T08:57:58.999Z</time></trkpt><trkpt lat="43.5271859187087" lon="10.817860476217891"><ele>86.14285714285714</ele><time>2026-04-18T08:57:59.999Z</time></trkpt><trkpt lat="43.5272162423931" lon="10.81776402982563"><ele>85.42857142857143</ele><time>2026-04-18T08:58:00.999Z</time></trkpt><trkpt lat="43.52725639456943" lon="10.817686823528357"><ele>84.71428571428571</ele><time>2026-04-18T08:58:01.999Z</time></trkpt><trkpt lat="43.52729558620136" lon="10.81760728216216"><ele>84.0</ele><time>2026-04-18T08:58:02.999Z</time></trkpt><trkpt lat="43.52734770861193" lon="10.817557390527247"><ele>84.0</ele><time>2026-04-18T08:58:03.999Z</time></trkpt><trkpt lat="43.52743863494381" lon="10.81745029894759"><ele>84.0</ele><time>2026-04-18T08:58:05.999Z</time></trkpt><trkpt lat="43.527496857247996" lon="10.817394645985635"><ele>84.0</ele><time>2026-04-18T08:58:06.999Z</time></trkpt><trkpt lat="43.5275524994977" lon="10.81735206779914"><ele>84.0</ele><time>2026-04-18T08:58:07.999Z</time></trkpt><trkpt lat="43.52761877250573" lon="10.817304126184986"><ele>84.0</ele><time>2026-04-18T08:58:08.999Z</time></trkpt><trkpt lat="43.52768256840378" lon="10.817248245521652"><ele>84.0</ele><time>2026-04-18T08:58:09.999Z</time></trkpt><trkpt lat="43.527737558574096" lon="10.817173377980644"><ele>84.0</ele><time>2026-04-18T08:58:10.999Z</time></trkpt><trkpt lat="43.52776062885928" lon="10.817056474426058"><ele>84.0</ele><time>2026-04-18T08:58:11.999Z</time></trkpt><trkpt lat="43.52780727130734" lon="10.816968207993988"><ele>84.0</ele><time>2026-04-18T08:58:12.999Z</time></trkpt><trkpt lat="43.52783744520902" lon="10.816870305234183"><ele>84.0</ele><time>2026-04-18T08:58:13.999Z</time></trkpt><trkpt lat="43.52786473118953" lon="10.816780472846606"><ele>84.0</ele><time>2026-04-18T08:58:14.999Z</time></trkpt><trkpt lat="43.527878074038696" lon="10.816679113596225"><ele>84.0</ele><time>2026-04-18T08:58:15.999Z</time></trkpt><trkpt lat="43.52790892175672" lon="10.81658831217119"><ele>85.2</ele><time>2026-04-18T08:58:16.999Z</time></trkpt><trkpt lat="43.527940323416054" lon="10.8164918563427"><ele>86.4</ele><time>2026-04-18T08:58:17.999Z</time></trkpt><trkpt lat="43.527971163455724" lon="10.816401471713887"><ele>87.6</ele><time>2026-04-18T08:58:18.999Z</time></trkpt><trkpt lat="43.528002427015636" lon="10.816315626520598"><ele>88.8</ele><time>2026-04-18T08:58:19.999Z</time></trkpt><trkpt lat="43.52807606788082" lon="10.816181659352333"><ele>90.0</ele><time>2026-04-18T08:58:21.999Z</time></trkpt><trkpt lat="43.52814258797063" lon="10.816050077705953"><ele>90.0</ele><time>2026-04-18T08:58:23.999Z</time></trkpt><trkpt lat="43.52822431504398" lon="10.81599178549659"><ele>90.0</ele><time>2026-04-18T08:58:25.999Z</time></trkpt><trkpt lat="43.52830640486121" lon="10.816010675449567"><ele>90.0</ele><time>2026-04-18T08:58:27.999Z</time></trkpt><trkpt lat="43.52841557693093" lon="10.816034878312115"><ele>90.0</ele><time>2026-04-18T08:58:29.999Z</time></trkpt><trkpt lat="43.52848623681124" lon="10.81605645534745"><ele>90.0</ele><time>2026-04-18T08:58:30.999Z</time></trkpt><trkpt lat="43.52855463600109" lon="10.816071750151938"><ele>90.0</ele><time>2026-04-18T08:58:31.999Z</time></trkpt><trkpt lat="43.52866871479992" lon="10.816103436184221"><ele>91.8</ele><time>2026-04-18T08:58:33.999Z</time></trkpt><trkpt lat="43.528776276756076" lon="10.816127732989095"><ele>93.6</ele><time>2026-04-18T08:58:35.999Z</time></trkpt><trkpt lat="43.528887685190824" lon="10.816134610239972"><ele>95.4</ele><time>2026-04-18T08:58:37.999Z</time></trkpt><trkpt lat="43.528999066338166" lon="10.81610721681355"><ele>97.2</ele><time>2026-04-18T08:58:39.999Z</time></trkpt><trkpt lat="43.52910509893559" lon="10.816057468502356"><ele>99.0</ele><time>2026-04-18T08:58:41.998Z</time></trkpt><trkpt lat="43.52916743183708" lon="10.816027175852554"><ele>99.0</ele><time>2026-04-18T08:58:42.998Z</time></trkpt><trkpt lat="43.52924051458092" lon="10.815988564449167"><ele>99.0</ele><time>2026-04-18T08:58:43.998Z</time></trkpt><trkpt lat="43.52930569831157" lon="10.815927748599925"><ele>99.0</ele><time>2026-04-18T08:58:44.998Z</time></trkpt><trkpt lat="43.52937641589031" lon="10.815894178417576"><ele>99.0</ele><time>2026-04-18T08:58:45.998Z</time></trkpt><trkpt lat="43.52943947028878" lon="10.815872698395552"><ele>99.0</ele><time>2026-04-18T08:58:46.998Z</time></trkpt><trkpt lat="43.52954252223844" lon="10.815824164379523"><ele>99.0</ele><time>2026-04-18T08:58:48.998Z</time></trkpt><trkpt lat="43.52965018989426" lon="10.815809577341076"><ele>103.16666666666667</ele><time>2026-04-18T08:58:50.998Z</time></trkpt><trkpt lat="43.5297134495171" lon="10.81579340073186"><ele>107.33333333333334</ele><time>2026-04-18T08:58:51.998Z</time></trkpt><trkpt lat="43.52977759933198" lon="10.81577812242724"><ele>111.5</ele><time>2026-04-18T08:58:52.998Z</time></trkpt><trkpt lat="43.52990763781736" lon="10.81575033103357"><ele>115.66666666666667</ele><time>2026-04-18T08:58:55Z</time></trkpt><trkpt lat="43.529973313871125" lon="10.815736783997224"><ele>119.83333333333334</ele><time>2026-04-18T08:58:56Z</time></trkpt><trkpt lat="43.530034006059104" lon="10.815703940042667"><ele>124.0</ele><time>2026-04-18T08:58:57Z</time></trkpt><trkpt lat="43.53010772003507" lon="10.81569400883649"><ele>124.00000000000001</ele><time>2026-04-18T08:58:58Z</time></trkpt><trkpt lat="43.53017959363915" lon="10.815686489305484"><ele>124.0</ele><time>2026-04-18T08:58:59Z</time></trkpt><trkpt lat="43.53025343110618" lon="10.815676334077326"><ele>124.0</ele><time>2026-04-18T08:59:00Z</time></trkpt><trkpt lat="43.530329969328925" lon="10.815664271684835"><ele>124.0</ele><time>2026-04-18T08:59:01Z</time></trkpt><trkpt lat="43.53039970438666" lon="10.815672727646804"><ele>124.00000000000001</ele><time>2026-04-18T08:59:02Z</time></trkpt><trkpt lat="43.530461843923575" lon="10.815658665221383"><ele>124.0</ele><time>2026-04-18T08:59:03Z</time></trkpt><trkpt lat="43.530572549463244" lon="10.815607152278037"><ele>124.6</ele><time>2026-04-18T08:59:05Z</time></trkpt><trkpt lat="43.5306938415979" lon="10.815586242294835"><ele>125.2</ele><time>2026-04-18T08:59:07Z</time></trkpt><trkpt lat="43.530820998111565" lon="10.815599277040052"><ele>125.79999999999998</ele><time>2026-04-18T08:59:09Z</time></trkpt><trkpt lat="43.530883042530824" lon="10.815616860447912"><ele>126.39999999999999</ele><time>2026-04-18T08:59:10Z</time></trkpt><trkpt lat="43.5309456389729" lon="10.815638807680097"><ele>127.0</ele><time>2026-04-18T08:59:11Z</time></trkpt><trkpt lat="43.53106653227348" lon="10.81569089283893"><ele>127.0</ele><time>2026-04-18T08:59:13Z</time></trkpt><trkpt lat="43.53112354238629" lon="10.815737151379832"><ele>127.0</ele><time>2026-04-18T08:59:14Z</time></trkpt><trkpt lat="43.53118675502716" lon="10.815763057316605"><ele>127.0</ele><time>2026-04-18T08:59:15Z</time></trkpt><trkpt lat="43.531249086086795" lon="10.81578744693486"><ele>127.0</ele><time>2026-04-18T08:59:16Z</time></trkpt><trkpt lat="43.531317989131516" lon="10.815795137714609"><ele>127.0</ele><time>2026-04-18T08:59:17Z</time></trkpt><trkpt lat="43.53138527342935" lon="10.815817799165401"><ele>127.0</ele><time>2026-04-18T08:59:18Z</time></trkpt><trkpt lat="43.53145605482771" lon="10.815831290106308"><ele>127.0</ele><time>2026-04-18T08:59:19Z</time></trkpt><trkpt lat="43.53152927937633" lon="10.815835167820149"><ele>127.83333333333334</ele><time>2026-04-18T08:59:20Z</time></trkpt><trkpt lat="43.53159874963018" lon="10.815835006264134"><ele>128.66666666666669</ele><time>2026-04-18T08:59:21Z</time></trkpt><trkpt lat="43.53166364246958" lon="10.815835022013143"><ele>129.5</ele><time>2026-04-18T08:59:22Z</time></trkpt><trkpt lat="43.5317850209594" lon="10.815841095428228"><ele>130.33333333333334</ele><time>2026-04-18T08:59:24Z</time></trkpt><trkpt lat="43.53185051444921" lon="10.815873484988568"><ele>131.16666666666666</ele><time>2026-04-18T08:59:25Z</time></trkpt><trkpt lat="43.5319114608391" lon="10.815897104161166"><ele>132.0</ele><time>2026-04-18T08:59:26Z</time></trkpt><trkpt lat="43.53203113740497" lon="10.815959531311577"><ele>132.85714285714286</ele><time>2026-04-18T08:59:28Z</time></trkpt><trkpt lat="43.53209063669111" lon="10.816003096684781"><ele>133.71428571428572</ele><time>2026-04-18T08:59:29Z</time></trkpt><trkpt lat="43.532150550271325" lon="10.81605240345407"><ele>134.57142857142858</ele><time>2026-04-18T08:59:30Z</time></trkpt><trkpt lat="43.532208389446495" lon="10.816100895262299"><ele>135.42857142857144</ele><time>2026-04-18T08:59:30.999Z</time></trkpt><trkpt lat="43.53227686190322" lon="10.816137532315286"><ele>136.2857142857143</ele><time>2026-04-18T08:59:31.999Z</time></trkpt><trkpt lat="43.53233299053123" lon="10.816210564949868"><ele>137.14285714285714</ele><time>2026-04-18T08:59:32.999Z</time></trkpt><trkpt lat="43.532403201894496" lon="10.816241645768075"><ele>138.0</ele><time>2026-04-18T08:59:33.999Z</time></trkpt><trkpt lat="43.53246476583969" lon="10.81629042522605"><ele>138.0</ele><time>2026-04-18T08:59:34.999Z</time></trkpt><trkpt lat="43.53253312737395" lon="10.816334007231612"><ele>138.0</ele><time>2026-04-18T08:59:35.999Z</time></trkpt><trkpt lat="43.53260741292988" lon="10.816368812311241"><ele>138.0</ele><time>2026-04-18T08:59:36.999Z</time></trkpt><trkpt lat="43.53268563308274" lon="10.816398381809506"><ele>138.0</ele><time>2026-04-18T08:59:37.999Z</time></trkpt><trkpt lat="43.53276117118426" lon="10.816427228193318"><ele>138.0</ele><time>2026-04-18T08:59:38.999Z</time></trkpt><trkpt lat="43.5328327063172" lon="10.81645485205982"><ele>138.0</ele><time>2026-04-18T08:59:39.999Z</time></trkpt><trkpt lat="43.532913009879366" lon="10.816482935590068"><ele>137.83333333333334</ele><time>2026-04-18T08:59:40.999Z</time></trkpt><trkpt lat="43.53299566643304" lon="10.816515082011529"><ele>137.66666666666666</ele><time>2026-04-18T08:59:41.999Z</time></trkpt><trkpt lat="43.53307450581081" lon="10.81655139363325"><ele>137.5</ele><time>2026-04-18T08:59:42.999Z</time></trkpt><trkpt lat="43.533153872169834" lon="10.81658439431626"><ele>137.33333333333331</ele><time>2026-04-18T08:59:43.999Z</time></trkpt><trkpt lat="43.533226843693576" lon="10.816617158102519"><ele>137.16666666666666</ele><time>2026-04-18T08:59:44.999Z</time></trkpt><trkpt lat="43.53329480503822" lon="10.816651045271719"><ele>137.0</ele><time>2026-04-18T08:59:45.999Z</time></trkpt><trkpt lat="43.533356650709386" lon="10.816679617076353"><ele>137.0</ele><time>2026-04-18T08:59:46.999Z</time></trkpt><trkpt lat="43.53341640835161" lon="10.816712485793994"><ele>137.0</ele><time>2026-04-18T08:59:47.999Z</time></trkpt><trkpt lat="43.53353603605725" lon="10.81677108453369"><ele>137.0</ele><time>2026-04-18T08:59:49.999Z</time></trkpt><trkpt lat="43.53360912493745" lon="10.816780844759117"><ele>137.0</ele><time>2026-04-18T08:59:50.999Z</time></trkpt><trkpt lat="43.533687402010784" lon="10.816767290272631"><ele>137.0</ele><time>2026-04-18T08:59:51.999Z</time></trkpt><trkpt lat="43.533762029401075" lon="10.816733628010214"><ele>137.0</ele><time>2026-04-18T08:59:52.999Z</time></trkpt><trkpt lat="43.53383626079205" lon="10.816700874016602"><ele>138.0</ele><time>2026-04-18T08:59:53.999Z</time></trkpt><trkpt lat="43.53390924412302" lon="10.816674328215694"><ele>139.0</ele><time>2026-04-18T08:59:54.999Z</time></trkpt><trkpt lat="43.533986444885464" lon="10.816654318492605"><ele>140.0</ele><time>2026-04-18T08:59:55.999Z</time></trkpt><trkpt lat="43.53406799902238" lon="10.816667939429282"><ele>141.0</ele><time>2026-04-18T08:59:56.999Z</time></trkpt><trkpt lat="43.53414869816492" lon="10.81666718573792"><ele>142.0</ele><time>2026-04-18T08:59:57.999Z</time></trkpt><trkpt lat="43.53422735660191" lon="10.816668952222326"><ele>143.0</ele><time>2026-04-18T08:59:58.999Z</time></trkpt><trkpt lat="43.53430808249796" lon="10.816650033627974"><ele>143.0</ele><time>2026-04-18T08:59:59.999Z</time></trkpt><trkpt lat="43.53438872120569" lon="10.816655702729834"><ele>143.0</ele><time>2026-04-18T09:00:00.999Z</time></trkpt><trkpt lat="43.53445808061728" lon="10.816661171981414"><ele>143.0</ele><time>2026-04-18T09:00:01.999Z</time></trkpt><trkpt lat="43.534576298333306" lon="10.81669767760382"><ele>143.0</ele><time>2026-04-18T09:00:03.999Z</time></trkpt><trkpt lat="43.53469249853536" lon="10.816714162606816"><ele>143.0</ele><time>2026-04-18T09:00:05.999Z</time></trkpt><trkpt lat="43.53480767057209" lon="10.81671618494731"><ele>145.25</ele><time>2026-04-18T09:00:07.999Z</time></trkpt><trkpt lat="43.53492040321054" lon="10.81673042097086"><ele>147.5</ele><time>2026-04-18T09:00:09.999Z</time></trkpt><trkpt lat="43.535034100593656" lon="10.816702523636424"><ele>149.75</ele><time>2026-04-18T09:00:11.999Z</time></trkpt><trkpt lat="43.53514440107207" lon="10.816631022180282"><ele>152.0</ele><time>2026-04-18T09:00:13.999Z</time></trkpt><trkpt lat="43.535273845743475" lon="10.816529679183315"><ele>152.0</ele><time>2026-04-18T09:00:15.999Z</time></trkpt><trkpt lat="43.5353272148769" lon="10.816482953378653"><ele>152.0</ele><time>2026-04-18T09:00:16.999Z</time></trkpt><trkpt lat="43.53540508137378" lon="10.81640332748571"><ele>152.0</ele><time>2026-04-18T09:00:18.999Z</time></trkpt><trkpt lat="43.535491796559505" lon="10.81632501361927"><ele>152.0</ele><time>2026-04-18T09:00:20.999Z</time></trkpt><trkpt lat="43.53558689673195" lon="10.816235690470364"><ele>152.0</ele><time>2026-04-18T09:00:22.999Z</time></trkpt><trkpt lat="43.535672312556464" lon="10.816154638647328"><ele>154.39999999999998</ele><time>2026-04-18T09:00:24.999Z</time></trkpt><trkpt lat="43.535749108157155" lon="10.816073063163541"><ele>156.79999999999998</ele><time>2026-04-18T09:00:26.999Z</time></trkpt><trkpt lat="43.53584255586082" lon="10.815982446823998"><ele>159.2</ele><time>2026-04-18T09:00:28.999Z</time></trkpt><trkpt lat="43.535898771083446" lon="10.815935825081784"><ele>161.6</ele><time>2026-04-18T09:00:29.999Z</time></trkpt><trkpt lat="43.53600752059847" lon="10.815855943378839"><ele>164.0</ele><time>2026-04-18T09:00:31.999Z</time></trkpt><trkpt lat="43.53606682582526" lon="10.815814825042342"><ele>164.0</ele><time>2026-04-18T09:00:32.999Z</time></trkpt><trkpt lat="43.53612944509513" lon="10.815773953752723"><ele>164.0</ele><time>2026-04-18T09:00:33.999Z</time></trkpt><trkpt lat="43.536244670719555" lon="10.815716987502055"><ele>164.0</ele><time>2026-04-18T09:00:35.999Z</time></trkpt><trkpt lat="43.536365353116636" lon="10.815673801048666"><ele>164.0</ele><time>2026-04-18T09:00:37.999Z</time></trkpt><trkpt lat="43.53648966549461" lon="10.815634615825891"><ele>164.0</ele><time>2026-04-18T09:00:39.999Z</time></trkpt><trkpt lat="43.536553400604326" lon="10.8156482593937"><ele>165.6</ele><time>2026-04-18T09:00:40.999Z</time></trkpt><trkpt lat="43.53666760770809" lon="10.815646603627123"><ele>167.2</ele><time>2026-04-18T09:00:42.999Z</time></trkpt><trkpt lat="43.53676807910796" lon="10.815653582303865"><ele>168.79999999999998</ele><time>2026-04-18T09:00:44.999Z</time></trkpt><trkpt lat="43.536861670510916" lon="10.81565411826897"><ele>170.39999999999998</ele><time>2026-04-18T09:00:46.999Z</time></trkpt><trkpt lat="43.53694852697853" lon="10.815599372032034"><ele>172.0</ele><time>2026-04-18T09:00:48.998Z</time></trkpt><trkpt lat="43.537031516318876" lon="10.815508677704793"><ele>170.33333333333334</ele><time>2026-04-18T09:00:50.998Z</time></trkpt><trkpt lat="43.53709768937274" lon="10.815382283037335"><ele>168.66666666666669</ele><time>2026-04-18T09:00:52.998Z</time></trkpt><trkpt lat="43.53714599721503" lon="10.815266022110926"><ele>167.0</ele><time>2026-04-18T09:00:54.998Z</time></trkpt><trkpt lat="43.53718973092011" lon="10.815169929757623"><ele>165.33333333333334</ele><time>2026-04-18T09:00:56.998Z</time></trkpt><trkpt lat="43.53722348086722" lon="10.815088236103051"><ele>163.66666666666666</ele><time>2026-04-18T09:00:58.998Z</time></trkpt><trkpt lat="43.53725184525835" lon="10.81500706809084"><ele>162.0</ele><time>2026-04-18T09:01:06Z</time></trkpt><trkpt lat="43.537254872867955" lon="10.814898008968742"><ele>161.6</ele><time>2026-04-18T09:01:09Z</time></trkpt><trkpt lat="43.537226321727076" lon="10.81477917695318"><ele>161.2</ele><time>2026-04-18T09:01:11Z</time></trkpt><trkpt lat="43.537197114361085" lon="10.814644886586917"><ele>160.8</ele><time>2026-04-18T09:01:13Z</time></trkpt><trkpt lat="43.537173011900016" lon="10.814493884296276"><ele>160.4</ele><time>2026-04-18T09:01:15Z</time></trkpt><trkpt lat="43.53716501905543" lon="10.814335233286968"><ele>160.0</ele><time>2026-04-18T09:01:17Z</time></trkpt><trkpt lat="43.53718381630947" lon="10.814179495448002"><ele>161.16666666666669</ele><time>2026-04-18T09:01:19Z</time></trkpt><trkpt lat="43.53722873637164" lon="10.814024086252417"><ele>162.33333333333334</ele><time>2026-04-18T09:01:21Z</time></trkpt><trkpt lat="43.53726022980713" lon="10.813948842402416"><ele>163.5</ele><time>2026-04-18T09:01:22Z</time></trkpt><trkpt lat="43.53729688415548" lon="10.8138736924793"><ele>164.66666666666666</ele><time>2026-04-18T09:01:23Z</time></trkpt><trkpt lat="43.537334807941775" lon="10.813798239698267"><ele>165.83333333333331</ele><time>2026-04-18T09:01:24Z</time></trkpt><trkpt lat="43.537375546935" lon="10.813718925928313"><ele>167.0</ele><time>2026-04-18T09:01:25Z</time></trkpt><trkpt lat="43.537419164546506" lon="10.813637177046635"><ele>167.0</ele><time>2026-04-18T09:01:26Z</time></trkpt><trkpt lat="43.53746088645436" lon="10.813553021620645"><ele>167.0</ele><time>2026-04-18T09:01:27Z</time></trkpt><trkpt lat="43.537499408899336" lon="10.81346366077001"><ele>167.0</ele><time>2026-04-18T09:01:28Z</time></trkpt><trkpt lat="43.53753155776188" lon="10.813372947201675"><ele>167.0</ele><time>2026-04-18T09:01:29Z</time></trkpt><trkpt lat="43.537553949039605" lon="10.813276313194446"><ele>167.0</ele><time>2026-04-18T09:01:30Z</time></trkpt><trkpt lat="43.5375618604255" lon="10.813172535770267"><ele>167.0</ele><time>2026-04-18T09:01:31Z</time></trkpt><trkpt lat="43.53755045900857" lon="10.813069690821791"><ele>167.0</ele><time>2026-04-18T09:01:32Z</time></trkpt><trkpt lat="43.53752422711304" lon="10.812974068830375"><ele>168.16666666666666</ele><time>2026-04-18T09:01:33Z</time></trkpt><trkpt lat="43.53748585570043" lon="10.81289325889483"><ele>169.33333333333331</ele><time>2026-04-18T09:01:34Z</time></trkpt><trkpt lat="43.53743729158536" lon="10.81282319129181"><ele>170.5</ele><time>2026-04-18T09:01:35Z</time></trkpt><trkpt lat="43.53737605921917" lon="10.812766448581838"><ele>171.66666666666666</ele><time>2026-04-18T09:01:36Z</time></trkpt><trkpt lat="43.537307120840936" lon="10.81271448228829"><ele>172.83333333333334</ele><time>2026-04-18T09:01:37Z</time></trkpt><trkpt lat="43.53723788900794" lon="10.81265547068307"><ele>174.0</ele><time>2026-04-18T09:01:38Z</time></trkpt><trkpt lat="43.537164241504605" lon="10.812587188344086"><ele>174.0</ele><time>2026-04-18T09:01:39Z</time></trkpt><trkpt lat="43.53709416082191" lon="10.812501306299078"><ele>174.0</ele><time>2026-04-18T09:01:40Z</time></trkpt><trkpt lat="43.537022810613756" lon="10.812404223601307"><ele>174.0</ele><time>2026-04-18T09:01:41Z</time></trkpt><trkpt lat="43.536946282514144" lon="10.81230610231376"><ele>174.0</ele><time>2026-04-18T09:01:42Z</time></trkpt><trkpt lat="43.536875086056625" lon="10.812197553677862"><ele>174.0</ele><time>2026-04-18T09:01:43Z</time></trkpt><trkpt lat="43.53680446908704" lon="10.812085243128084"><ele>174.2</ele><time>2026-04-18T09:01:44Z</time></trkpt><trkpt lat="43.53673234468132" lon="10.811968837753911"><ele>174.39999999999998</ele><time>2026-04-18T09:01:45Z</time></trkpt><trkpt lat="43.536662238514545" lon="10.811850102855944"><ele>174.6</ele><time>2026-04-18T09:01:46Z</time></trkpt><trkpt lat="43.53659661790269" lon="10.811726051939818"><ele>174.8</ele><time>2026-04-18T09:01:47Z</time></trkpt><trkpt lat="43.53654061931793" lon="10.81159288280272"><ele>175.0</ele><time>2026-04-18T09:01:48Z</time></trkpt><trkpt lat="43.53649689376226" lon="10.811451263390039"><ele>173.5</ele><time>2026-04-18T09:01:49Z</time></trkpt><trkpt lat="43.5364688845482" lon="10.811297495423698"><ele>172.0</ele><time>2026-04-18T09:01:50Z</time></trkpt><trkpt lat="43.536453953477704" lon="10.811139131956029"><ele>170.5</ele><time>2026-04-18T09:01:51Z</time></trkpt><trkpt lat="43.5364476075565" lon="10.81097581287581"><ele>169.0</ele><time>2026-04-18T09:01:52Z</time></trkpt><trkpt lat="43.53644700964632" lon="10.810815150254943"><ele>168.6</ele><time>2026-04-18T09:01:53Z</time></trkpt><trkpt lat="43.53645085927144" lon="10.810662522521138"><ele>168.2</ele><time>2026-04-18T09:01:54Z</time></trkpt><trkpt lat="43.53645327192661" lon="10.81051869108038"><ele>167.79999999999998</ele><time>2026-04-18T09:01:54.999Z</time></trkpt><trkpt lat="43.53644893991617" lon="10.810388941589158"><ele>167.39999999999998</ele><time>2026-04-18T09:01:55.999Z</time></trkpt><trkpt lat="43.53643220944683" lon="10.810260562026468"><ele>167.0</ele><time>2026-04-18T09:01:56.999Z</time></trkpt><trkpt lat="43.53639704848109" lon="10.81013648515727"><ele>166.6</ele><time>2026-04-18T09:01:57.999Z</time></trkpt><trkpt lat="43.53634051938414" lon="10.810022061576843"><ele>166.2</ele><time>2026-04-18T09:01:58.999Z</time></trkpt><trkpt lat="43.53627416072284" lon="10.809919749692346"><ele>165.8</ele><time>2026-04-18T09:01:59.999Z</time></trkpt><trkpt lat="43.53621037520004" lon="10.809818586889266"><ele>165.4</ele><time>2026-04-18T09:02:00.999Z</time></trkpt><trkpt lat="43.53615516094233" lon="10.809708493123132"><ele>165.0</ele><time>2026-04-18T09:02:01.999Z</time></trkpt><trkpt lat="43.53610906453209" lon="10.809588484568948"><ele>164.8</ele><time>2026-04-18T09:02:02.999Z</time></trkpt><trkpt lat="43.5360741894566" lon="10.809459784951338"><ele>164.6</ele><time>2026-04-18T09:02:03.999Z</time></trkpt><trkpt lat="43.53604609837635" lon="10.809333298131987"><ele>164.39999999999998</ele><time>2026-04-18T09:02:04.999Z</time></trkpt><trkpt lat="43.53602044686179" lon="10.80920478271721"><ele>164.2</ele><time>2026-04-18T09:02:05.999Z</time></trkpt><trkpt lat="43.535999448215414" lon="10.809075312963579"><ele>164.0</ele><time>2026-04-18T09:02:06.999Z</time></trkpt><trkpt lat="43.53598903624546" lon="10.808944904348824"><ele>164.0</ele><time>2026-04-18T09:02:07.999Z</time></trkpt><trkpt lat="43.53599483414151" lon="10.808812593500763"><ele>164.0</ele><time>2026-04-18T09:02:08.999Z</time></trkpt><trkpt lat="43.53601029384075" lon="10.808680908555678"><ele>164.0</ele><time>2026-04-18T09:02:09.999Z</time></trkpt><trkpt lat="43.536031249902884" lon="10.808548567732162"><ele>164.0</ele><time>2026-04-18T09:02:10.999Z</time></trkpt><trkpt lat="43.53605539254358" lon="10.808415721235823"><ele>164.0</ele><time>2026-04-18T09:02:11.999Z</time></trkpt><trkpt lat="43.536081893366195" lon="10.808282444202796"><ele>163.79999999999998</ele><time>2026-04-18T09:02:12.999Z</time></trkpt><trkpt lat="43.53610660111898" lon="10.808144403058686"><ele>163.6</ele><time>2026-04-18T09:02:13.999Z</time></trkpt><trkpt lat="43.53612282026594" lon="10.808007421186145"><ele>163.4</ele><time>2026-04-18T09:02:14.999Z</time></trkpt><trkpt lat="43.536131078182386" lon="10.80786718844044"><ele>163.2</ele><time>2026-04-18T09:02:15.999Z</time></trkpt><trkpt lat="43.5361295201935" lon="10.807726620637483"><ele>163.0</ele><time>2026-04-18T09:02:16.999Z</time></trkpt><trkpt lat="43.53612143646919" lon="10.807584703080016"><ele>163.0</ele><time>2026-04-18T09:02:17.999Z</time></trkpt><trkpt lat="43.536115244570176" lon="10.807443691810182"><ele>163.0</ele><time>2026-04-18T09:02:18.999Z</time></trkpt><trkpt lat="43.536111217899425" lon="10.807301324389146"><ele>163.0</ele><time>2026-04-18T09:02:19.999Z</time></trkpt><trkpt lat="43.536104238071516" lon="10.807162508932201"><ele>163.0</ele><time>2026-04-18T09:02:20.999Z</time></trkpt><trkpt lat="43.53609433800467" lon="10.807025723960296"><ele>163.0</ele><time>2026-04-18T09:02:21.999Z</time></trkpt><trkpt lat="43.53607861484554" lon="10.806890368663701"><ele>163.4</ele><time>2026-04-18T09:02:22.999Z</time></trkpt><trkpt lat="43.53605708059006" lon="10.806761044989788"><ele>163.8</ele><time>2026-04-18T09:02:23.999Z</time></trkpt><trkpt lat="43.53603313461098" lon="10.806636265289809"><ele>164.2</ele><time>2026-04-18T09:02:24.999Z</time></trkpt><trkpt lat="43.5360120076812" lon="10.80650999130352"><ele>164.6</ele><time>2026-04-18T09:02:25.999Z</time></trkpt><trkpt lat="43.53599969753471" lon="10.806379525571977"><ele>165.0</ele><time>2026-04-18T09:02:26.999Z</time></trkpt><trkpt lat="43.53600146193545" lon="10.806244939944424"><ele>165.0</ele><time>2026-04-18T09:02:27.999Z</time></trkpt><trkpt lat="43.53601397631729" lon="10.806106329509321"><ele>165.0</ele><time>2026-04-18T09:02:28.999Z</time></trkpt><trkpt lat="43.53603106254784" lon="10.805969963550098"><ele>165.0</ele><time>2026-04-18T09:02:29.999Z</time></trkpt><trkpt lat="43.53605228318939" lon="10.805829684472373"><ele>165.0</ele><time>2026-04-18T09:02:30.999Z</time></trkpt><trkpt lat="43.536078782451824" lon="10.805689907141405"><ele>165.0</ele><time>2026-04-18T09:02:31.999Z</time></trkpt><trkpt lat="43.53611426489776" lon="10.805553392693692"><ele>164.8</ele><time>2026-04-18T09:02:32.999Z</time></trkpt><trkpt lat="43.536159870524116" lon="10.805418223850031"><ele>164.6</ele><time>2026-04-18T09:02:33.999Z</time></trkpt><trkpt lat="43.53620891919438" lon="10.80528500251715"><ele>164.39999999999998</ele><time>2026-04-18T09:02:34.999Z</time></trkpt><trkpt lat="43.5362560525596" lon="10.805154776861615"><ele>164.2</ele><time>2026-04-18T09:02:35.999Z</time></trkpt><trkpt lat="43.53630312704056" lon="10.80502592790193"><ele>164.0</ele><time>2026-04-18T09:02:36.999Z</time></trkpt><trkpt lat="43.536351166543" lon="10.804899791543438"><ele>164.0</ele><time>2026-04-18T09:02:37.999Z</time></trkpt><trkpt lat="43.53639620708899" lon="10.804775189658466"><ele>164.0</ele><time>2026-04-18T09:02:38.999Z</time></trkpt><trkpt lat="43.536444486038704" lon="10.804641767652672"><ele>164.0</ele><time>2026-04-18T09:02:39.999Z</time></trkpt><trkpt lat="43.53649153008212" lon="10.804497415175387"><ele>164.0</ele><time>2026-04-18T09:02:40.999Z</time></trkpt><trkpt lat="43.536534594714084" lon="10.804344391230966"><ele>164.0</ele><time>2026-04-18T09:02:41.999Z</time></trkpt><trkpt lat="43.53657546561001" lon="10.804189185403613"><ele>162.5</ele><time>2026-04-18T09:02:42.999Z</time></trkpt><trkpt lat="43.53660983951594" lon="10.804033089401823"><ele>161.0</ele><time>2026-04-18T09:02:43.999Z</time></trkpt><trkpt lat="43.536640559844514" lon="10.803875022856527"><ele>159.5</ele><time>2026-04-18T09:02:44.999Z</time></trkpt><trkpt lat="43.53666259136263" lon="10.803716150309592"><ele>158.0</ele><time>2026-04-18T09:02:45.999Z</time></trkpt><trkpt lat="43.53668040472859" lon="10.803556525116983"><ele>157.5</ele><time>2026-04-18T09:02:46.999Z</time></trkpt><trkpt lat="43.53669532667575" lon="10.803395576368025"><ele>157.0</ele><time>2026-04-18T09:02:47.999Z</time></trkpt><trkpt lat="43.53670489091728" lon="10.803238982923606"><ele>156.5</ele><time>2026-04-18T09:02:48.999Z</time></trkpt><trkpt lat="43.53670908349856" lon="10.803083542179563"><ele>156.0</ele><time>2026-04-18T09:02:49.999Z</time></trkpt><trkpt lat="43.536720113691665" lon="10.802929471762509"><ele>156.0</ele><time>2026-04-18T09:02:50.999Z</time></trkpt><trkpt lat="43.536721223802125" lon="10.802780234785939"><ele>156.0</ele><time>2026-04-18T09:02:51.999Z</time></trkpt><trkpt lat="43.53672435928565" lon="10.802629004684185"><ele>156.0</ele><time>2026-04-18T09:02:52.999Z</time></trkpt><trkpt lat="43.53672830817761" lon="10.802483692106088"><ele>156.0</ele><time>2026-04-18T09:02:53.999Z</time></trkpt><trkpt lat="43.53673885768394" lon="10.80234065267863"><ele>156.0</ele><time>2026-04-18T09:02:54.999Z</time></trkpt><trkpt lat="43.536756205746286" lon="10.802205944538274"><ele>156.8</ele><time>2026-04-18T09:02:55.999Z</time></trkpt><trkpt lat="43.53678033719752" lon="10.802073712416176"><ele>157.6</ele><time>2026-04-18T09:02:56.999Z</time></trkpt><trkpt lat="43.536811673983934" lon="10.801955647948024"><ele>158.4</ele><time>2026-04-18T09:02:57.999Z</time></trkpt><trkpt lat="43.53684926508447" lon="10.801841007841249"><ele>159.2</ele><time>2026-04-18T09:02:58.999Z</time></trkpt><trkpt lat="43.536896017668234" lon="10.801727445056239"><ele>160.0</ele><time>2026-04-18T09:02:59.999Z</time></trkpt><trkpt lat="43.53694816769911" lon="10.801619220449453"><ele>160.8</ele><time>2026-04-18T09:03:00.999Z</time></trkpt><trkpt lat="43.537004815126245" lon="10.801519111193285"><ele>161.6</ele><time>2026-04-18T09:03:01.999Z</time></trkpt><trkpt lat="43.53707035558091" lon="10.801430140499198"><ele>162.39999999999998</ele><time>2026-04-18T09:03:02.999Z</time></trkpt><trkpt lat="43.53714248943926" lon="10.801355077679776"><ele>163.2</ele><time>2026-04-18T09:03:03.999Z</time></trkpt><trkpt lat="43.53721872669283" lon="10.801284363623735"><ele>164.0</ele><time>2026-04-18T09:03:04.999Z</time></trkpt><trkpt lat="43.53729516181743" lon="10.80121989014036"><ele>164.0</ele><time>2026-04-18T09:03:06Z</time></trkpt><trkpt lat="43.53737655913639" lon="10.801146942612291"><ele>164.0</ele><time>2026-04-18T09:03:07Z</time></trkpt><trkpt lat="43.537454483188725" lon="10.801076542662045"><ele>164.0</ele><time>2026-04-18T09:03:08Z</time></trkpt><trkpt lat="43.53752991874657" lon="10.801004822526853"><ele>164.0</ele><time>2026-04-18T09:03:09Z</time></trkpt><trkpt lat="43.537600348521714" lon="10.80093023910476"><ele>164.0</ele><time>2026-04-18T09:03:10Z</time></trkpt><trkpt lat="43.5376647199515" lon="10.800854322018473"><ele>163.33333333333331</ele><time>2026-04-18T09:03:11Z</time></trkpt><trkpt lat="43.53772685481507" lon="10.800778839773026"><ele>162.66666666666666</ele><time>2026-04-18T09:03:12Z</time></trkpt><trkpt lat="43.53778838174986" lon="10.800702769629112"><ele>162.0</ele><time>2026-04-18T09:03:13Z</time></trkpt><trkpt lat="43.5378500827556" lon="10.800626155904514"><ele>161.33333333333334</ele><time>2026-04-18T09:03:14Z</time></trkpt><trkpt lat="43.53791058318385" lon="10.80054639957261"><ele>160.66666666666669</ele><time>2026-04-18T09:03:15Z</time></trkpt><trkpt lat="43.53796727143046" lon="10.800460410873333"><ele>160.0</ele><time>2026-04-18T09:03:16Z</time></trkpt><trkpt lat="43.53801914704414" lon="10.800370406902854"><ele>160.0</ele><time>2026-04-18T09:03:17Z</time></trkpt><trkpt lat="43.53806592413276" lon="10.800271337779597"><ele>160.0</ele><time>2026-04-18T09:03:18Z</time></trkpt><trkpt lat="43.53810668138154" lon="10.80016855000047"><ele>160.0</ele><time>2026-04-18T09:03:19Z</time></trkpt><trkpt lat="43.538148126795434" lon="10.800061532030487"><ele>160.0</ele><time>2026-04-18T09:03:20Z</time></trkpt><trkpt lat="43.538190462933194" lon="10.799950659992797"><ele>160.0</ele><time>2026-04-18T09:03:21Z</time></trkpt><trkpt lat="43.53823512425201" lon="10.799836864422106"><ele>160.0</ele><time>2026-04-18T09:03:22Z</time></trkpt><trkpt lat="43.53828209306762" lon="10.799718781410117"><ele>160.4</ele><time>2026-04-18T09:03:23Z</time></trkpt><trkpt lat="43.53833048779903" lon="10.799597451839002"><ele>160.8</ele><time>2026-04-18T09:03:24Z</time></trkpt><trkpt lat="43.538379188254005" lon="10.799476106642672"><ele>161.2</ele><time>2026-04-18T09:03:25Z</time></trkpt><trkpt lat="43.538426733538245" lon="10.799353866183681"><ele>161.6</ele><time>2026-04-18T09:03:26Z</time></trkpt><trkpt lat="43.53846827832526" lon="10.79922731530888"><ele>162.0</ele><time>2026-04-18T09:03:27Z</time></trkpt><trkpt lat="43.538499678390615" lon="10.799102110050347"><ele>162.0</ele><time>2026-04-18T09:03:28Z</time></trkpt><trkpt lat="43.538525148632615" lon="10.798972996207493"><ele>162.0</ele><time>2026-04-18T09:03:29Z</time></trkpt><trkpt lat="43.53854273443336" lon="10.798839462664084"><ele>162.0</ele><time>2026-04-18T09:03:30Z</time></trkpt><trkpt lat="43.53854566763618" lon="10.798700896224805"><ele>162.0</ele><time>2026-04-18T09:03:31Z</time></trkpt><trkpt lat="43.53854012715892" lon="10.798553453540183"><ele>162.0</ele><time>2026-04-18T09:03:32Z</time></trkpt><trkpt lat="43.53852557192245" lon="10.798410212970591"><ele>161.0</ele><time>2026-04-18T09:03:33Z</time></trkpt><trkpt lat="43.53850853924218" lon="10.79827209428116"><ele>160.0</ele><time>2026-04-18T09:03:34Z</time></trkpt><trkpt lat="43.53849217467546" lon="10.798138226195011"><ele>159.0</ele><time>2026-04-18T09:03:35Z</time></trkpt><trkpt lat="43.53847538399815" lon="10.798008022927"><ele>158.0</ele><time>2026-04-18T09:03:36Z</time></trkpt><trkpt lat="43.5384584978558" lon="10.797884848347605"><ele>157.0</ele><time>2026-04-18T09:03:37Z</time></trkpt><trkpt lat="43.53844057709674" lon="10.79776570702838"><ele>157.6</ele><time>2026-04-18T09:03:38Z</time></trkpt><trkpt lat="43.53842023555189" lon="10.797641091201088"><ele>158.2</ele><time>2026-04-18T09:03:39Z</time></trkpt><trkpt lat="43.53839842905185" lon="10.797514443698411"><ele>158.8</ele><time>2026-04-18T09:03:40Z</time></trkpt><trkpt lat="43.53837890463897" lon="10.797388546978077"><ele>159.4</ele><time>2026-04-18T09:03:41Z</time></trkpt><trkpt lat="43.53836347754227" lon="10.797264338406238"><ele>160.0</ele><time>2026-04-18T09:03:42Z</time></trkpt><trkpt lat="43.5383479715057" lon="10.797141628549813"><ele>160.0</ele><time>2026-04-18T09:03:43Z</time></trkpt><trkpt lat="43.53832549917838" lon="10.79702163138266"><ele>160.0</ele><time>2026-04-18T09:03:44Z</time></trkpt><trkpt lat="43.53829317207607" lon="10.796906586607482"><ele>160.0</ele><time>2026-04-18T09:03:45Z</time></trkpt><trkpt lat="43.538256383324374" lon="10.796795821749015"><ele>160.0</ele><time>2026-04-18T09:03:46Z</time></trkpt><trkpt lat="43.53821851542181" lon="10.7966892343898"><ele>160.0</ele><time>2026-04-18T09:03:47Z</time></trkpt><trkpt lat="43.53818337586469" lon="10.796581230652802"><ele>160.0</ele><time>2026-04-18T09:03:48Z</time></trkpt><trkpt lat="43.538154066957354" lon="10.79647007164685"><ele>161.33333333333334</ele><time>2026-04-18T09:03:49Z</time></trkpt><trkpt lat="43.53813303353541" lon="10.79635528229313"><ele>162.66666666666669</ele><time>2026-04-18T09:03:50Z</time></trkpt><trkpt lat="43.53812282806418" lon="10.796245301048963"><ele>164.0</ele><time>2026-04-18T09:03:51Z</time></trkpt><trkpt lat="43.538126253046265" lon="10.79613711814249"><ele>165.33333333333334</ele><time>2026-04-18T09:03:52Z</time></trkpt><trkpt lat="43.538146448403" lon="10.796033612004306"><ele>166.66666666666666</ele><time>2026-04-18T09:03:53Z</time></trkpt><trkpt lat="43.53817228336021" lon="10.795930387753666"><ele>168.0</ele><time>2026-04-18T09:03:54Z</time></trkpt><trkpt lat="43.53820406534452" lon="10.795832612731964"><ele>169.16666666666666</ele><time>2026-04-18T09:03:55Z</time></trkpt><trkpt lat="43.5382383909863" lon="10.795746030592873"><ele>170.33333333333334</ele><time>2026-04-18T09:03:56Z</time></trkpt><trkpt lat="43.53827382509427" lon="10.795666727112692"><ele>171.5</ele><time>2026-04-18T09:03:57Z</time></trkpt><trkpt lat="43.538364959897415" lon="10.795540438119678"><ele>172.66666666666669</ele><time>2026-04-18T09:03:59Z</time></trkpt><trkpt lat="43.5384258254127" lon="10.795486802376928"><ele>173.83333333333334</ele><time>2026-04-18T09:04:00Z</time></trkpt><trkpt lat="43.53849674133922" lon="10.795448363048362"><ele>175.0</ele><time>2026-04-18T09:04:01Z</time></trkpt><trkpt lat="43.53857009896377" lon="10.795410465874262"><ele>175.0</ele><time>2026-04-18T09:04:02Z</time></trkpt><trkpt lat="43.53863937588374" lon="10.795366549337496"><ele>175.0</ele><time>2026-04-18T09:04:03Z</time></trkpt><trkpt lat="43.53870476451042" lon="10.795318156510485"><ele>175.0</ele><time>2026-04-18T09:04:04Z</time></trkpt><trkpt lat="43.538761271619464" lon="10.795265141878096"><ele>175.0</ele><time>2026-04-18T09:04:04.999Z</time></trkpt><trkpt lat="43.538814696416416" lon="10.795202028043686"><ele>175.0</ele><time>2026-04-18T09:04:05.999Z</time></trkpt><trkpt lat="43.53886278924415" lon="10.795126226855563"><ele>175.0</ele><time>2026-04-18T09:04:06.999Z</time></trkpt><trkpt lat="43.53890482110288" lon="10.795030950479594"><ele>175.0</ele><time>2026-04-18T09:04:07.999Z</time></trkpt><trkpt lat="43.5389325427435" lon="10.794938692209548"><ele>175.66666666666669</ele><time>2026-04-18T09:04:08.999Z</time></trkpt><trkpt lat="43.53894883338389" lon="10.794846041880295"><ele>176.33333333333334</ele><time>2026-04-18T09:04:09.999Z</time></trkpt><trkpt lat="43.53896050415857" lon="10.794757203759856"><ele>177.0</ele><time>2026-04-18T09:04:10.999Z</time></trkpt><trkpt lat="43.53897187741644" lon="10.794671777193905"><ele>177.66666666666666</ele><time>2026-04-18T09:04:11.999Z</time></trkpt><trkpt lat="43.53898342387646" lon="10.794586282758697"><ele>178.33333333333331</ele><time>2026-04-18T09:04:12.999Z</time></trkpt><trkpt lat="43.53900667392462" lon="10.794423415492181"><ele>179.0</ele><time>2026-04-18T09:04:14.999Z</time></trkpt><trkpt lat="43.53903280447089" lon="10.79428216754849"><ele>179.2</ele><time>2026-04-18T09:04:16.999Z</time></trkpt><trkpt lat="43.53907381006899" lon="10.79415709998157"><ele>179.39999999999998</ele><time>2026-04-18T09:04:18.999Z</time></trkpt><trkpt lat="43.53914488824215" lon="10.794043419762124"><ele>179.6</ele><time>2026-04-18T09:04:20.999Z</time></trkpt><trkpt lat="43.53923211052893" lon="10.79394457719891"><ele>179.8</ele><time>2026-04-18T09:04:22.999Z</time></trkpt><trkpt lat="43.53931745306079" lon="10.79385788095"><ele>180.0</ele><time>2026-04-18T09:04:24.999Z</time></trkpt><trkpt lat="43.539394827135744" lon="10.793771899396196"><ele>180.0</ele><time>2026-04-18T09:04:26.999Z</time></trkpt><trkpt lat="43.53946623740074" lon="10.793687656977053"><ele>180.0</ele><time>2026-04-18T09:04:28.999Z</time></trkpt><trkpt lat="43.539525227447015" lon="10.79360284091919"><ele>180.0</ele><time>2026-04-18T09:04:30.999Z</time></trkpt><trkpt lat="43.539563965732505" lon="10.793494260730792"><ele>180.0</ele><time>2026-04-18T09:04:32.999Z</time></trkpt><trkpt lat="43.539592333634445" lon="10.793316106439118"><ele>180.0</ele><time>2026-04-18T09:04:35.999Z</time></trkpt><trkpt lat="43.53959559949946" lon="10.793201459573565"><ele>180.16666666666666</ele><time>2026-04-18T09:04:37.999Z</time></trkpt><trkpt lat="43.539603010300155" lon="10.793092910949326"><ele>180.33333333333334</ele><time>2026-04-18T09:04:39.999Z</time></trkpt><trkpt lat="43.53959471453024" lon="10.792986371831944"><ele>180.5</ele><time>2026-04-18T09:04:41.999Z</time></trkpt><trkpt lat="43.53955436769577" lon="10.792877153061408"><ele>180.66666666666669</ele><time>2026-04-18T09:04:43.999Z</time></trkpt><trkpt lat="43.53950677396199" lon="10.792760543186242"><ele>180.83333333333334</ele><time>2026-04-18T09:04:45.999Z</time></trkpt><trkpt lat="43.53946278154825" lon="10.792643722327494"><ele>181.0</ele><time>2026-04-18T09:04:47.999Z</time></trkpt><trkpt lat="43.53942016584359" lon="10.792533675823284"><ele>181.0</ele><time>2026-04-18T09:04:49.999Z</time></trkpt><trkpt lat="43.53937857692459" lon="10.792432133181482"><ele>181.0</ele><time>2026-04-18T09:04:51.999Z</time></trkpt><trkpt lat="43.53933731003167" lon="10.792338367527893"><ele>181.0</ele><time>2026-04-18T09:04:53.999Z</time></trkpt><trkpt lat="43.53929730634574" lon="10.7922486075866"><ele>181.0</ele><time>2026-04-18T09:04:55.999Z</time></trkpt><trkpt lat="43.53925908182995" lon="10.792160765774492"><ele>181.0</ele><time>2026-04-18T09:04:57.999Z</time></trkpt><trkpt lat="43.5392235420197" lon="10.792076081417052"><ele>181.0</ele><time>2026-04-18T09:04:59.999Z</time></trkpt><trkpt lat="43.53918148790907" lon="10.791981002410086"><ele>181.0</ele><time>2026-04-18T09:05:01.999Z</time></trkpt><trkpt lat="43.53914114755244" lon="10.791880993263694"><ele>181.0</ele><time>2026-04-18T09:05:03.999Z</time></trkpt><trkpt lat="43.53910705349134" lon="10.791796628973934"><ele>181.0</ele><time>2026-04-18T09:05:05.999Z</time></trkpt><trkpt lat="43.539077622546024" lon="10.7917188464001"><ele>181.0</ele><time>2026-04-18T09:05:07.999Z</time></trkpt><trkpt lat="43.5390323726722" lon="10.791624710101209"><ele>181.0</ele><time>2026-04-18T09:05:09.999Z</time></trkpt><trkpt lat="43.53896233050404" lon="10.791514725803852"><ele>181.0</ele><time>2026-04-18T09:05:12Z</time></trkpt><trkpt lat="43.538879735856604" lon="10.79139510622824"><ele>180.60000000000002</ele><time>2026-04-18T09:05:14Z</time></trkpt><trkpt lat="43.53879263103724" lon="10.791266423504778"><ele>180.2</ele><time>2026-04-18T09:05:16Z</time></trkpt><trkpt lat="43.53874787733959" lon="10.791201029503389"><ele>179.8</ele><time>2026-04-18T09:05:17Z</time></trkpt><trkpt lat="43.53870414564621" lon="10.79113811132174"><ele>179.39999999999998</ele><time>2026-04-18T09:05:18Z</time></trkpt><trkpt lat="43.538623207580805" lon="10.791020470943053"><ele>179.0</ele><time>2026-04-18T09:05:20Z</time></trkpt><trkpt lat="43.53856168326872" lon="10.79092867194378"><ele>179.0</ele><time>2026-04-18T09:05:22Z</time></trkpt><trkpt lat="43.53851011886541" lon="10.790852224582151"><ele>179.0</ele><time>2026-04-18T09:05:26Z</time></trkpt><trkpt lat="43.5384151826792" lon="10.790827573384226"><ele>179.0</ele><time>2026-04-18T09:05:29Z</time></trkpt><trkpt lat="43.53835564842856" lon="10.790772882462838"><ele>179.0</ele><time>2026-04-18T09:05:31Z</time></trkpt><trkpt lat="43.53828071659997" lon="10.790722846006032"><ele>179.0</ele><time>2026-04-18T09:05:33Z</time></trkpt><trkpt lat="43.53818915007859" lon="10.790701971932748"><ele>179.0</ele><time>2026-04-18T09:05:35Z</time></trkpt><trkpt lat="43.53811138279577" lon="10.790646764531699"><ele>179.0</ele><time>2026-04-18T09:05:37Z</time></trkpt><trkpt lat="43.538018584958934" lon="10.790633845765775"><ele>179.0</ele><time>2026-04-18T09:05:39Z</time></trkpt><trkpt lat="43.537920212319825" lon="10.790615209021945"><ele>179.0</ele><time>2026-04-18T09:05:41Z</time></trkpt><trkpt lat="43.537809054744635" lon="10.790604239588783"><ele>179.0</ele><time>2026-04-18T09:05:43Z</time></trkpt><trkpt lat="43.53767617063812" lon="10.790612464984768"><ele>179.0</ele><time>2026-04-18T09:05:45Z</time></trkpt><trkpt lat="43.53760313378306" lon="10.790629782518945"><ele>178.66666666666666</ele><time>2026-04-18T09:05:46Z</time></trkpt><trkpt lat="43.537530456028584" lon="10.790653407631117"><ele>178.33333333333331</ele><time>2026-04-18T09:05:47Z</time></trkpt><trkpt lat="43.53745564077705" lon="10.79068120595281"><ele>178.0</ele><time>2026-04-18T09:05:48Z</time></trkpt><trkpt lat="43.53737646582931" lon="10.790688157666004"><ele>177.66666666666666</ele><time>2026-04-18T09:05:49Z</time></trkpt><trkpt lat="43.53729829534358" lon="10.790719725962227"><ele>177.33333333333334</ele><time>2026-04-18T09:05:50Z</time></trkpt><trkpt lat="43.53722098426049" lon="10.790749013321053"><ele>177.0</ele><time>2026-04-18T09:05:51Z</time></trkpt><trkpt lat="43.53714523503197" lon="10.790775992362834"><ele>177.0</ele><time>2026-04-18T09:05:52Z</time></trkpt><trkpt lat="43.53706684054645" lon="10.790796152081885"><ele>177.0</ele><time>2026-04-18T09:05:53Z</time></trkpt><trkpt lat="43.53698791308584" lon="10.790802928380968"><ele>177.0</ele><time>2026-04-18T09:05:54Z</time></trkpt><trkpt lat="43.53690690064652" lon="10.790797548086209"><ele>177.0</ele><time>2026-04-18T09:05:55Z</time></trkpt><trkpt lat="43.53682842735052" lon="10.790784670240523"><ele>177.0</ele><time>2026-04-18T09:05:56Z</time></trkpt><trkpt lat="43.536746591195474" lon="10.790775467770843"><ele>177.0</ele><time>2026-04-18T09:05:57Z</time></trkpt><trkpt lat="43.53666484530632" lon="10.790769191926204"><ele>177.16666666666666</ele><time>2026-04-18T09:05:58Z</time></trkpt><trkpt lat="43.53658132914567" lon="10.790768874101818"><ele>177.33333333333334</ele><time>2026-04-18T09:05:59Z</time></trkpt><trkpt lat="43.53650110022754" lon="10.790774604365053"><ele>177.5</ele><time>2026-04-18T09:06:00Z</time></trkpt><trkpt lat="43.536425141031614" lon="10.790786010087876"><ele>177.66666666666669</ele><time>2026-04-18T09:06:01Z</time></trkpt><trkpt lat="43.536354664760864" lon="10.790801529626831"><ele>177.83333333333334</ele><time>2026-04-18T09:06:01.999Z</time></trkpt><trkpt lat="43.53628803006337" lon="10.790818054058853"><ele>178.0</ele><time>2026-04-18T09:06:02.999Z</time></trkpt><trkpt lat="43.53617889740072" lon="10.790840414174934"><ele>178.0</ele><time>2026-04-18T09:06:04.999Z</time></trkpt><trkpt lat="43.536075855476035" lon="10.790834495108511"><ele>178.0</ele><time>2026-04-18T09:06:06.999Z</time></trkpt><trkpt lat="43.53597655960536" lon="10.790792611314135"><ele>178.0</ele><time>2026-04-18T09:06:08.999Z</time></trkpt><trkpt lat="43.53588033393759" lon="10.790728870371998"><ele>178.0</ele><time>2026-04-18T09:06:10.999Z</time></trkpt><trkpt lat="43.535776815103674" lon="10.790644015526166"><ele>178.0</ele><time>2026-04-18T09:06:12.999Z</time></trkpt><trkpt lat="43.53571439582069" lon="10.790592621018634"><ele>178.0</ele><time>2026-04-18T09:06:13.999Z</time></trkpt><trkpt lat="43.53564497527083" lon="10.790533536626484"><ele>178.0</ele><time>2026-04-18T09:06:14.999Z</time></trkpt><trkpt lat="43.535569291276" lon="10.790471626020928"><ele>178.0</ele><time>2026-04-18T09:06:15.999Z</time></trkpt><trkpt lat="43.53549186156105" lon="10.790408061074812"><ele>178.0</ele><time>2026-04-18T09:06:16.999Z</time></trkpt><trkpt lat="43.53541350040886" lon="10.790343856183307"><ele>178.0</ele><time>2026-04-18T09:06:17.999Z</time></trkpt><trkpt lat="43.53533567156105" lon="10.790277810998619"><ele>178.0</ele><time>2026-04-18T09:06:18.999Z</time></trkpt><trkpt lat="43.53525932083859" lon="10.790215682805322"><ele>176.83333333333334</ele><time>2026-04-18T09:06:19.999Z</time></trkpt><trkpt lat="43.53518230513293" lon="10.790154671784274"><ele>175.66666666666669</ele><time>2026-04-18T09:06:20.999Z</time></trkpt><trkpt lat="43.53511219747453" lon="10.790098433561225"><ele>174.5</ele><time>2026-04-18T09:06:21.999Z</time></trkpt><trkpt lat="43.535040338650965" lon="10.790044114165914"><ele>173.33333333333334</ele><time>2026-04-18T09:06:22.999Z</time></trkpt><trkpt lat="43.53497317980557" lon="10.78999290761674"><ele>172.16666666666666</ele><time>2026-04-18T09:06:23.999Z</time></trkpt><trkpt lat="43.53490960201735" lon="10.789941958006775"><ele>171.0</ele><time>2026-04-18T09:06:24.999Z</time></trkpt><trkpt lat="43.534843813676" lon="10.789888638822926"><ele>171.0</ele><time>2026-04-18T09:06:25.999Z</time></trkpt><trkpt lat="43.534772501065206" lon="10.789831401729058"><ele>171.0</ele><time>2026-04-18T09:06:26.999Z</time></trkpt><trkpt lat="43.53469445361226" lon="10.789778809915807"><ele>171.0</ele><time>2026-04-18T09:06:27.999Z</time></trkpt><trkpt lat="43.53461593431143" lon="10.789725169086859"><ele>171.0</ele><time>2026-04-18T09:06:28.999Z</time></trkpt><trkpt lat="43.53454303185509" lon="10.789671679437422"><ele>171.0</ele><time>2026-04-18T09:06:29.999Z</time></trkpt><trkpt lat="43.53447491308377" lon="10.789622751955163"><ele>171.0</ele><time>2026-04-18T09:06:30.999Z</time></trkpt><trkpt lat="43.53441253685863" lon="10.789579917712052"><ele>170.0</ele><time>2026-04-18T09:06:31.999Z</time></trkpt><trkpt lat="43.53435192764087" lon="10.789540637120407"><ele>169.0</ele><time>2026-04-18T09:06:32.999Z</time></trkpt><trkpt lat="43.53428975308704" lon="10.789503246568376"><ele>168.0</ele><time>2026-04-18T09:06:33.999Z</time></trkpt><trkpt lat="43.53421923794495" lon="10.789470370130548"><ele>167.0</ele><time>2026-04-18T09:06:34.999Z</time></trkpt><trkpt lat="43.53414238572641" lon="10.789434346590234"><ele>166.0</ele><time>2026-04-18T09:06:35.999Z</time></trkpt><trkpt lat="43.53406849781272" lon="10.789391646289168"><ele>165.0</ele><time>2026-04-18T09:06:36.999Z</time></trkpt><trkpt lat="43.53399506024635" lon="10.78934448136543"><ele>164.5</ele><time>2026-04-18T09:06:37.999Z</time></trkpt><trkpt lat="43.53392083654692" lon="10.789298917202654"><ele>164.0</ele><time>2026-04-18T09:06:38.999Z</time></trkpt><trkpt lat="43.53385327059297" lon="10.789229887827858"><ele>163.5</ele><time>2026-04-18T09:06:39.999Z</time></trkpt><trkpt lat="43.53377424501212" lon="10.78918078707219"><ele>163.0</ele><time>2026-04-18T09:06:40.999Z</time></trkpt><trkpt lat="43.53369669456965" lon="10.789139492225267"><ele>162.5</ele><time>2026-04-18T09:06:41.999Z</time></trkpt><trkpt lat="43.533610808744534" lon="10.789119279345902"><ele>162.0</ele><time>2026-04-18T09:06:42.999Z</time></trkpt><trkpt lat="43.533531273852724" lon="10.789071935475887"><ele>162.0</ele><time>2026-04-18T09:06:43.999Z</time></trkpt><trkpt lat="43.533439836612686" lon="10.789019658014848"><ele>162.0</ele><time>2026-04-18T09:06:44.999Z</time></trkpt><trkpt lat="43.53334822431303" lon="10.788965968742014"><ele>162.0</ele><time>2026-04-18T09:06:45.999Z</time></trkpt><trkpt lat="43.533255318882034" lon="10.788912328245653"><ele>162.0</ele><time>2026-04-18T09:06:46.999Z</time></trkpt><trkpt lat="43.533160869594994" lon="10.788858387136276"><ele>162.0</ele><time>2026-04-18T09:06:47.999Z</time></trkpt><trkpt lat="43.533068898817454" lon="10.78880240002609"><ele>162.0</ele><time>2026-04-18T09:06:48.999Z</time></trkpt><trkpt lat="43.53297352107405" lon="10.788748503671874"><ele>162.0</ele><time>2026-04-18T09:06:49.999Z</time></trkpt><trkpt lat="43.53287678767554" lon="10.788694157901107"><ele>162.0</ele><time>2026-04-18T09:06:50.999Z</time></trkpt><trkpt lat="43.532783077897385" lon="10.788640478336228"><ele>162.0</ele><time>2026-04-18T09:06:51.999Z</time></trkpt><trkpt lat="43.53268893637434" lon="10.788587074328836"><ele>162.0</ele><time>2026-04-18T09:06:52.999Z</time></trkpt><trkpt lat="43.53259601366452" lon="10.788536285817562"><ele>161.0</ele><time>2026-04-18T09:06:53.999Z</time></trkpt><trkpt lat="43.53250378846694" lon="10.788484113430988"><ele>160.0</ele><time>2026-04-18T09:06:54.999Z</time></trkpt><trkpt lat="43.53241181076684" lon="10.788434619210747"><ele>159.0</ele><time>2026-04-18T09:06:55.999Z</time></trkpt><trkpt lat="43.53231698793446" lon="10.788383908578403"><ele>158.0</ele><time>2026-04-18T09:06:56.999Z</time></trkpt><trkpt lat="43.53222372323104" lon="10.788333608848571"><ele>157.0</ele><time>2026-04-18T09:06:57.999Z</time></trkpt><trkpt lat="43.532133459377704" lon="10.78828267553416"><ele>154.79999999999998</ele><time>2026-04-18T09:06:58.999Z</time></trkpt><trkpt lat="43.53204463707004" lon="10.788227916145093"><ele>152.6</ele><time>2026-04-18T09:06:59.999Z</time></trkpt><trkpt lat="43.53195931116757" lon="10.788166824901499"><ele>150.39999999999998</ele><time>2026-04-18T09:07:00.999Z</time></trkpt><trkpt lat="43.53188203427454" lon="10.788094035365319"><ele>148.2</ele><time>2026-04-18T09:07:01.999Z</time></trkpt><trkpt lat="43.53181780043656" lon="10.788006836187742"><ele>146.0</ele><time>2026-04-18T09:07:02.999Z</time></trkpt><trkpt lat="43.53176083625853" lon="10.787914379867171"><ele>146.0</ele><time>2026-04-18T09:07:03.999Z</time></trkpt><trkpt lat="43.531708126725256" lon="10.787825748405625"><ele>146.0</ele><time>2026-04-18T09:07:04.999Z</time></trkpt><trkpt lat="43.53165378599149" lon="10.787734024265282"><ele>146.0</ele><time>2026-04-18T09:07:05.999Z</time></trkpt><trkpt lat="43.53160228433858" lon="10.787642384985025"><ele>146.0</ele><time>2026-04-18T09:07:06.999Z</time></trkpt><trkpt lat="43.53155021172347" lon="10.787548199537827"><ele>146.0</ele><time>2026-04-18T09:07:07.999Z</time></trkpt><trkpt lat="43.53149252748863" lon="10.78744710759286"><ele>146.0</ele><time>2026-04-18T09:07:08.999Z</time></trkpt><trkpt lat="43.53142674078445" lon="10.787344086584689"><ele>145.0</ele><time>2026-04-18T09:07:09.999Z</time></trkpt><trkpt lat="43.53136402449522" lon="10.787238029654112"><ele>144.0</ele><time>2026-04-18T09:07:10.998Z</time></trkpt><trkpt lat="43.53130355499338" lon="10.787128806230136"><ele>143.0</ele><time>2026-04-18T09:07:11.998Z</time></trkpt><trkpt lat="43.53124165815716" lon="10.787025194636337"><ele>142.0</ele><time>2026-04-18T09:07:12.998Z</time></trkpt><trkpt lat="43.531181886000105" lon="10.78691829496178"><ele>141.0</ele><time>2026-04-18T09:07:13.998Z</time></trkpt><trkpt lat="43.53112322070648" lon="10.786820048698088"><ele>141.0</ele><time>2026-04-18T09:07:14.998Z</time></trkpt><trkpt lat="43.53105628967701" lon="10.786726503326852"><ele>141.0</ele><time>2026-04-18T09:07:15.998Z</time></trkpt><trkpt lat="43.53099015678316" lon="10.786638116579164"><ele>141.0</ele><time>2026-04-18T09:07:17Z</time></trkpt><trkpt lat="43.53091922364669" lon="10.786547748279203"><ele>141.0</ele><time>2026-04-18T09:07:18Z</time></trkpt><trkpt lat="43.53085767871877" lon="10.786458444381637"><ele>141.0</ele><time>2026-04-18T09:07:19Z</time></trkpt><trkpt lat="43.530791109834226" lon="10.78637277294658"><ele>141.0</ele><time>2026-04-18T09:07:20Z</time></trkpt><trkpt lat="43.5307380339432" lon="10.786290595198766"><ele>141.0</ele><time>2026-04-18T09:07:21Z</time></trkpt><trkpt lat="43.530690400532166" lon="10.786214908868109"><ele>141.0</ele><time>2026-04-18T09:07:22Z</time></trkpt><trkpt lat="43.530645571245564" lon="10.786067684004815"><ele>141.0</ele><time>2026-04-18T09:07:24Z</time></trkpt><trkpt lat="43.5306674918968" lon="10.785918868206245"><ele>141.0</ele><time>2026-04-18T09:07:26Z</time></trkpt><trkpt lat="43.53072912528863" lon="10.785757687459434"><ele>140.66666666666666</ele><time>2026-04-18T09:07:28Z</time></trkpt><trkpt lat="43.5307659776132" lon="10.785666515377434"><ele>140.33333333333334</ele><time>2026-04-18T09:07:29Z</time></trkpt><trkpt lat="43.530802200317076" lon="10.785582965169008"><ele>140.0</ele><time>2026-04-18T09:07:30Z</time></trkpt><trkpt lat="43.530835690450814" lon="10.785497253928929"><ele>139.66666666666669</ele><time>2026-04-18T09:07:31Z</time></trkpt><trkpt lat="43.53086295457175" lon="10.785413852362165"><ele>139.33333333333334</ele><time>2026-04-18T09:07:32Z</time></trkpt><trkpt lat="43.53089515610825" lon="10.785249733357755"><ele>139.0</ele><time>2026-04-18T09:07:34Z</time></trkpt><trkpt lat="43.53089041259046" lon="10.785081046288301"><ele>139.0</ele><time>2026-04-18T09:07:36Z</time></trkpt><trkpt lat="43.53087331351446" lon="10.784994917853124"><ele>139.0</ele><time>2026-04-18T09:07:37Z</time></trkpt><trkpt lat="43.530831523160636" lon="10.784835515138852"><ele>139.0</ele><time>2026-04-18T09:07:39Z</time></trkpt><trkpt lat="43.53080819854629" lon="10.784752632107487"><ele>139.0</ele><time>2026-04-18T09:07:40Z</time></trkpt><trkpt lat="43.53076549329402" lon="10.784585074790744"><ele>139.0</ele><time>2026-04-18T09:07:42Z</time></trkpt><trkpt lat="43.530742563091685" lon="10.784499195537661"><ele>139.0</ele><time>2026-04-18T09:07:43Z</time></trkpt><trkpt lat="43.53072034346479" lon="10.784417389282872"><ele>137.2</ele><time>2026-04-18T09:07:44Z</time></trkpt><trkpt lat="43.5306742094895" lon="10.784275301202698"><ele>135.4</ele><time>2026-04-18T09:07:46Z</time></trkpt><trkpt lat="43.53062321647845" lon="10.784164794416332"><ele>133.6</ele><time>2026-04-18T09:07:48Z</time></trkpt><trkpt lat="43.53054971936576" lon="10.784086610712578"><ele>131.8</ele><time>2026-04-18T09:07:50Z</time></trkpt><trkpt lat="43.53044226753864" lon="10.784153450559364"><ele>130.0</ele><time>2026-04-18T09:07:52Z</time></trkpt><trkpt lat="43.53034329844837" lon="10.784257255941224"><ele>131.0</ele><time>2026-04-18T09:07:54Z</time></trkpt><trkpt lat="43.53028480665496" lon="10.784291215228743"><ele>132.0</ele><time>2026-04-18T09:07:55Z</time></trkpt><trkpt lat="43.530190261295274" lon="10.784402486156385"><ele>133.0</ele><time>2026-04-18T09:07:57Z</time></trkpt><trkpt lat="43.5301165448763" lon="10.784527028392853"><ele>134.0</ele><time>2026-04-18T09:07:59Z</time></trkpt><trkpt lat="43.530030767608714" lon="10.784619337142091"><ele>135.0</ele><time>2026-04-18T09:08:01Z</time></trkpt><trkpt lat="43.52992613215411" lon="10.784682532873745"><ele>135.0</ele><time>2026-04-18T09:08:03Z</time></trkpt><trkpt lat="43.52986448710783" lon="10.784703907456844"><ele>135.0</ele><time>2026-04-18T09:08:04Z</time></trkpt><trkpt lat="43.5297989001734" lon="10.784717490879546"><ele>135.0</ele><time>2026-04-18T09:08:05Z</time></trkpt><trkpt lat="43.52972365167802" lon="10.78473096694992"><ele>135.0</ele><time>2026-04-18T09:08:06Z</time></trkpt><trkpt lat="43.529645244851274" lon="10.78473717687266"><ele>135.0</ele><time>2026-04-18T09:08:07Z</time></trkpt><trkpt lat="43.529564235393224" lon="10.78473980517214"><ele>135.0</ele><time>2026-04-18T09:08:08Z</time></trkpt><trkpt lat="43.52948013207849" lon="10.784736968527422"><ele>135.0</ele><time>2026-04-18T09:08:08.999Z</time></trkpt><trkpt lat="43.52939723743777" lon="10.784731218348275"><ele>131.85714285714286</ele><time>2026-04-18T09:08:09.999Z</time></trkpt><trkpt lat="43.52931804168205" lon="10.784721568165779"><ele>128.7142857142857</ele><time>2026-04-18T09:08:10.999Z</time></trkpt><trkpt lat="43.52924615795828" lon="10.784711622664846"><ele>125.57142857142857</ele><time>2026-04-18T09:08:11.999Z</time></trkpt><trkpt lat="43.52917884708456" lon="10.784701608967625"><ele>122.42857142857142</ele><time>2026-04-18T09:08:12.999Z</time></trkpt><trkpt lat="43.52911524636953" lon="10.784689478628895"><ele>119.28571428571428</ele><time>2026-04-18T09:08:13.999Z</time></trkpt><trkpt lat="43.52905029292353" lon="10.784675892112134"><ele>116.14285714285714</ele><time>2026-04-18T09:08:14.999Z</time></trkpt><trkpt lat="43.52898776512321" lon="10.784663264236338"><ele>113.0</ele><time>2026-04-18T09:08:15.999Z</time></trkpt><trkpt lat="43.52892550765356" lon="10.78465033462035"><ele>113.0</ele><time>2026-04-18T09:08:16.999Z</time></trkpt><trkpt lat="43.52880400943111" lon="10.784622627567106"><ele>113.00000000000001</ele><time>2026-04-18T09:08:18.999Z</time></trkpt><trkpt lat="43.52868218120072" lon="10.784600951113516"><ele>113.00000000000001</ele><time>2026-04-18T09:08:20.999Z</time></trkpt><trkpt lat="43.52855622115204" lon="10.784607474781309"><ele>113.0</ele><time>2026-04-18T09:08:22.999Z</time></trkpt><trkpt lat="43.528482865672274" lon="10.784628846020533"><ele>113.0</ele><time>2026-04-18T09:08:23.999Z</time></trkpt><trkpt lat="43.52840903893161" lon="10.784650546108049"><ele>110.99999999999999</ele><time>2026-04-18T09:08:24.999Z</time></trkpt><trkpt lat="43.52833202097664" lon="10.78467351161001"><ele>109.0</ele><time>2026-04-18T09:08:25.999Z</time></trkpt><trkpt lat="43.52825567746736" lon="10.784692204482539"><ele>107.0</ele><time>2026-04-18T09:08:26.999Z</time></trkpt><trkpt lat="43.52817582662913" lon="10.784704966514726"><ele>105.0</ele><time>2026-04-18T09:08:27.999Z</time></trkpt><trkpt lat="43.52809145919976" lon="10.784703803088622"><ele>102.99999999999999</ele><time>2026-04-18T09:08:28.999Z</time></trkpt><trkpt lat="43.527997268760885" lon="10.784693242835901"><ele>101.0</ele><time>2026-04-18T09:08:29.999Z</time></trkpt><trkpt lat="43.527900288815275" lon="10.784677451486273"><ele>98.6</ele><time>2026-04-18T09:08:30.999Z</time></trkpt><trkpt lat="43.52780204581608" lon="10.784663767095331"><ele>96.19999999999999</ele><time>2026-04-18T09:08:31.999Z</time></trkpt><trkpt lat="43.52770774871976" lon="10.784650080037295"><ele>93.80000000000001</ele><time>2026-04-18T09:08:32.999Z</time></trkpt><trkpt lat="43.52761557670459" lon="10.784633648757806"><ele>91.4</ele><time>2026-04-18T09:08:33.999Z</time></trkpt><trkpt lat="43.52753153409203" lon="10.784601099170237"><ele>89.0</ele><time>2026-04-18T09:08:34.999Z</time></trkpt><trkpt lat="43.527448490679205" lon="10.784550613106832"><ele>89.0</ele><time>2026-04-18T09:08:35.999Z</time></trkpt><trkpt lat="43.527369305619466" lon="10.784483655498564"><ele>89.0</ele><time>2026-04-18T09:08:36.999Z</time></trkpt><trkpt lat="43.52730344155005" lon="10.78440571043511"><ele>89.0</ele><time>2026-04-18T09:08:37.999Z</time></trkpt><trkpt lat="43.527253302663276" lon="10.784328136303895"><ele>89.0</ele><time>2026-04-18T09:08:38.999Z</time></trkpt><trkpt lat="43.527195059241926" lon="10.784202321927644"><ele>89.0</ele><time>2026-04-18T09:08:40.999Z</time></trkpt><trkpt lat="43.527158983587114" lon="10.784126240216947"><ele>89.0</ele><time>2026-04-18T09:08:42.999Z</time></trkpt><trkpt lat="43.5271139832579" lon="10.784039513212765"><ele>89.4</ele><time>2026-04-18T09:08:45.999Z</time></trkpt><trkpt lat="43.52706538991133" lon="10.783950565494576"><ele>89.80000000000001</ele><time>2026-04-18T09:08:48.999Z</time></trkpt><trkpt lat="43.52701971450221" lon="10.783874839577981"><ele>90.19999999999999</ele><time>2026-04-18T09:08:50.999Z</time></trkpt><trkpt lat="43.52696002755717" lon="10.783774551137178"><ele>90.6</ele><time>2026-04-18T09:08:52.999Z</time></trkpt><trkpt lat="43.526897707236095" lon="10.783667295688701"><ele>91.0</ele><time>2026-04-18T09:08:54.999Z</time></trkpt><trkpt lat="43.52682627396476" lon="10.783546328199659"><ele>90.0</ele><time>2026-04-18T09:08:56.999Z</time></trkpt><trkpt lat="43.52675113594705" lon="10.783420086146604"><ele>89.0</ele><time>2026-04-18T09:08:58.999Z</time></trkpt><trkpt lat="43.526677655161315" lon="10.783291550239273"><ele>88.0</ele><time>2026-04-18T09:09:00.999Z</time></trkpt><trkpt lat="43.52661125463" lon="10.783150882473063"><ele>87.0</ele><time>2026-04-18T09:09:02.999Z</time></trkpt><trkpt lat="43.52656131412281" lon="10.78300297693202"><ele>87.0</ele><time>2026-04-18T09:09:04.999Z</time></trkpt><trkpt lat="43.52651663191237" lon="10.782859336587792"><ele>87.0</ele><time>2026-04-18T09:09:06.999Z</time></trkpt><trkpt lat="43.52647297828171" lon="10.782717661092123"><ele>87.0</ele><time>2026-04-18T09:09:08.999Z</time></trkpt><trkpt lat="43.526427806559326" lon="10.78257235628623"><ele>87.0</ele><time>2026-04-18T09:09:10.999Z</time></trkpt><trkpt lat="43.526376833914405" lon="10.782414850741887"><ele>85.71428571428571</ele><time>2026-04-18T09:09:12.999Z</time></trkpt><trkpt lat="43.5263495269783" lon="10.782331375774287"><ele>84.42857142857143</ele><time>2026-04-18T09:09:13.999Z</time></trkpt><trkpt lat="43.52632258828521" lon="10.7822497723517"><ele>83.14285714285714</ele><time>2026-04-18T09:09:14.999Z</time></trkpt><trkpt lat="43.52629546940038" lon="10.782165140607141"><ele>81.85714285714286</ele><time>2026-04-18T09:09:15.999Z</time></trkpt><trkpt lat="43.52626837578247" lon="10.782079692123395"><ele>80.57142857142857</ele><time>2026-04-18T09:09:16.998Z</time></trkpt><trkpt lat="43.52624288701792" lon="10.781997336736932"><ele>79.28571428571429</ele><time>2026-04-18T09:09:17.998Z</time></trkpt><trkpt lat="43.52621783473926" lon="10.781914420632331"><ele>78.0</ele><time>2026-04-18T09:09:18.998Z</time></trkpt><trkpt lat="43.52619444095236" lon="10.781832280845162"><ele>76.2</ele><time>2026-04-18T09:09:19.998Z</time></trkpt><trkpt lat="43.52615188059857" lon="10.781676717838122"><ele>74.4</ele><time>2026-04-18T09:09:21.998Z</time></trkpt><trkpt lat="43.5261129663146" lon="10.781536615377577"><ele>72.60000000000001</ele><time>2026-04-18T09:09:24Z</time></trkpt><trkpt lat="43.52608045165945" lon="10.781412267424871"><ele>70.8</ele><time>2026-04-18T09:09:26Z</time></trkpt><trkpt lat="43.526051002862545" lon="10.781313408041694"><ele>69.0</ele><time>2026-04-18T09:09:28Z</time></trkpt><trkpt lat="43.526020124749095" lon="10.781231034108574"><ele>69.0</ele><time>2026-04-18T09:09:31Z</time></trkpt><trkpt lat="43.525974515247114" lon="10.781162319975614"><ele>69.0</ele><time>2026-04-18T09:09:36Z</time></trkpt><trkpt lat="43.5259021460109" lon="10.781226121546567"><ele>69.0</ele><time>2026-04-18T09:09:37Z</time></trkpt><trkpt lat="43.5258226160901" lon="10.781317346862021"><ele>69.0</ele><time>2026-04-18T09:09:39Z</time></trkpt><trkpt lat="43.52571893146375" lon="10.781410112137664"><ele>69.0</ele><time>2026-04-18T09:09:41Z</time></trkpt><trkpt lat="43.52566032048088" lon="10.78146535481514"><ele>69.0</ele><time>2026-04-18T09:09:42Z</time></trkpt><trkpt lat="43.52559739522051" lon="10.781527467331983"><ele>69.0</ele><time>2026-04-18T09:09:43Z</time></trkpt><trkpt lat="43.525533959039784" lon="10.781590261664627"><ele>69.0</ele><time>2026-04-18T09:09:44Z</time></trkpt><trkpt lat="43.525469261501165" lon="10.781653972037399"><ele>69.0</ele><time>2026-04-18T09:09:45Z</time></trkpt><trkpt lat="43.52540384953965" lon="10.781719248845134"><ele>69.0</ele><time>2026-04-18T09:09:46Z</time></trkpt><trkpt lat="43.52533748597675" lon="10.781784284032131"><ele>69.0</ele><time>2026-04-18T09:09:47Z</time></trkpt><trkpt lat="43.52527077005036" lon="10.781849897568852"><ele>69.33333333333333</ele><time>2026-04-18T09:09:48Z</time></trkpt><trkpt lat="43.52520283495362" lon="10.781915246569598"><ele>69.66666666666667</ele><time>2026-04-18T09:09:49Z</time></trkpt><trkpt lat="43.52513562070239" lon="10.781981427823268"><ele>70.0</ele><time>2026-04-18T09:09:50Z</time></trkpt><trkpt lat="43.525066192773025" lon="10.782049895359837"><ele>70.33333333333334</ele><time>2026-04-18T09:09:51Z</time></trkpt><trkpt lat="43.52499587668852" lon="10.782120404195881"><ele>70.66666666666667</ele><time>2026-04-18T09:09:52Z</time></trkpt><trkpt lat="43.52492384323755" lon="10.782194524690958"><ele>71.0</ele><time>2026-04-18T09:09:53Z</time></trkpt><trkpt lat="43.52485637272549" lon="10.782271675456945"><ele>71.0</ele><time>2026-04-18T09:09:54Z</time></trkpt><trkpt lat="43.52478939413823" lon="10.782357352853072"><ele>71.0</ele><time>2026-04-18T09:09:55Z</time></trkpt><trkpt lat="43.524723848358946" lon="10.782450159764918"><ele>71.0</ele><time>2026-04-18T09:09:56Z</time></trkpt><trkpt lat="43.52466136321031" lon="10.782553191661057"><ele>71.0</ele><time>2026-04-18T09:09:57Z</time></trkpt><trkpt lat="43.5246026329926" lon="10.782667508058084"><ele>71.0</ele><time>2026-04-18T09:09:58Z</time></trkpt><trkpt lat="43.524546627024534" lon="10.782789074564736"><ele>69.8</ele><time>2026-04-18T09:09:59Z</time></trkpt><trkpt lat="43.524491237799296" lon="10.782916582937789"><ele>68.6</ele><time>2026-04-18T09:10:00Z</time></trkpt><trkpt lat="43.5244331896444" lon="10.783047147657456"><ele>67.4</ele><time>2026-04-18T09:10:01Z</time></trkpt><trkpt lat="43.52437262345314" lon="10.78317914549928"><ele>66.2</ele><time>2026-04-18T09:10:02Z</time></trkpt><trkpt lat="43.52431149722528" lon="10.78331099239002"><ele>65.0</ele><time>2026-04-18T09:10:03Z</time></trkpt><trkpt lat="43.52425017144613" lon="10.783444343139076"><ele>65.0</ele><time>2026-04-18T09:10:04Z</time></trkpt><trkpt lat="43.52418995110387" lon="10.783576563706083"><ele>65.0</ele><time>2026-04-18T09:10:05Z</time></trkpt><trkpt lat="43.52413257616731" lon="10.783704834665423"><ele>65.0</ele><time>2026-04-18T09:10:06Z</time></trkpt><trkpt lat="43.52407650467088" lon="10.783829533583678"><ele>65.0</ele><time>2026-04-18T09:10:07Z</time></trkpt><trkpt lat="43.52402043840076" lon="10.783950387091721"><ele>65.0</ele><time>2026-04-18T09:10:07.999Z</time></trkpt><trkpt lat="43.52396249796553" lon="10.78406676535984"><ele>65.0</ele><time>2026-04-18T09:10:08.999Z</time></trkpt><trkpt lat="43.523900826101716" lon="10.78417531246029"><ele>65.0</ele><time>2026-04-18T09:10:09.999Z</time></trkpt><trkpt lat="43.52383252631495" lon="10.784272915205538"><ele>65.0</ele><time>2026-04-18T09:10:10.999Z</time></trkpt><trkpt lat="43.52375596267896" lon="10.78435903612582"><ele>65.0</ele><time>2026-04-18T09:10:11.999Z</time></trkpt><trkpt lat="43.523675818826355" lon="10.78443333918666"><ele>65.0</ele><time>2026-04-18T09:10:12.999Z</time></trkpt><trkpt lat="43.5235931928243" lon="10.784497690700674"><ele>65.8</ele><time>2026-04-18T09:10:13.999Z</time></trkpt><trkpt lat="43.523504107763735" lon="10.784551579993959"><ele>66.6</ele><time>2026-04-18T09:10:14.999Z</time></trkpt><trkpt lat="43.52340756399376" lon="10.78460843888254"><ele>67.4</ele><time>2026-04-18T09:10:15.999Z</time></trkpt><trkpt lat="43.523306144233935" lon="10.784670343565217"><ele>68.2</ele><time>2026-04-18T09:10:16.999Z</time></trkpt><trkpt lat="43.523194130269" lon="10.7847394618119"><ele>69.0</ele><time>2026-04-18T09:10:17.999Z</time></trkpt><trkpt lat="43.523081612202745" lon="10.784808586109314"><ele>69.0</ele><time>2026-04-18T09:10:18.999Z</time></trkpt><trkpt lat="43.52297081108618" lon="10.7848741777803"><ele>69.0</ele><time>2026-04-18T09:10:19.999Z</time></trkpt><trkpt lat="43.5228622138658" lon="10.784938159218562"><ele>69.0</ele><time>2026-04-18T09:10:20.999Z</time></trkpt><trkpt lat="43.522756797169784" lon="10.785000325464681"><ele>69.0</ele><time>2026-04-18T09:10:21.999Z</time></trkpt><trkpt lat="43.52266135424085" lon="10.785056065688536"><ele>69.0</ele><time>2026-04-18T09:10:22.999Z</time></trkpt><trkpt lat="43.52257955267323" lon="10.785103788490717"><ele>69.0</ele><time>2026-04-18T09:10:23.999Z</time></trkpt><trkpt lat="43.52251677957646" lon="10.785140278939021"><ele>69.0</ele><time>2026-04-18T09:10:24.999Z</time></trkpt><trkpt lat="43.52242761734658" lon="10.785194875992463"><ele>69.0</ele><time>2026-04-18T09:10:26.999Z</time></trkpt><trkpt lat="43.52236801810907" lon="10.78523122551155"><ele>69.0</ele><time>2026-04-18T09:10:28.999Z</time></trkpt><trkpt lat="43.52237734787785" lon="10.78536018757594"><ele>69.0</ele><time>2026-04-18T09:10:31.999Z</time></trkpt><trkpt lat="43.522425387042254" lon="10.785434197471567"><ele>69.0</ele><time>2026-04-18T09:10:33.999Z</time></trkpt><trkpt lat="43.522486575552776" lon="10.785516078965156"><ele>69.0</ele><time>2026-04-18T09:10:35.999Z</time></trkpt><trkpt lat="43.52253485819298" lon="10.785644642110308"><ele>69.0</ele><time>2026-04-18T09:10:37.999Z</time></trkpt><trkpt lat="43.52255564092006" lon="10.785792147088051"><ele>69.0</ele><time>2026-04-18T09:10:39.999Z</time></trkpt><trkpt lat="43.5225659034178" lon="10.78595253082788"><ele>69.0</ele><time>2026-04-18T09:10:41.999Z</time></trkpt><trkpt lat="43.522570658661785" lon="10.786098616160409"><ele>69.2</ele><time>2026-04-18T09:10:43.999Z</time></trkpt><trkpt lat="43.52257223537801" lon="10.786226186315117"><ele>69.4</ele><time>2026-04-18T09:10:45.999Z</time></trkpt><trkpt lat="43.52257451427439" lon="10.78634860546859"><ele>69.6</ele><time>2026-04-18T09:10:47.999Z</time></trkpt><trkpt lat="43.522582472187686" lon="10.78648069652869"><ele>69.8</ele><time>2026-04-18T09:10:49.999Z</time></trkpt><trkpt lat="43.52259539325684" lon="10.786657401904664"><ele>70.0</ele><time>2026-04-18T09:10:51.999Z</time></trkpt><trkpt lat="43.522604003509905" lon="10.786749862667907"><ele>70.0</ele><time>2026-04-18T09:10:52.999Z</time></trkpt><trkpt lat="43.52261509836088" lon="10.786843053195172"><ele>70.0</ele><time>2026-04-18T09:10:53.999Z</time></trkpt><trkpt lat="43.52262870744636" lon="10.786935354211565"><ele>70.0</ele><time>2026-04-18T09:10:54.999Z</time></trkpt><trkpt lat="43.52264144250627" lon="10.787028011056346"><ele>70.0</ele><time>2026-04-18T09:10:55.999Z</time></trkpt><trkpt lat="43.52265531064795" lon="10.787116137421108"><ele>70.0</ele><time>2026-04-18T09:10:56.999Z</time></trkpt><trkpt lat="43.52267040986757" lon="10.787204433008359"><ele>70.0</ele><time>2026-04-18T09:10:57.999Z</time></trkpt><trkpt lat="43.52268491530409" lon="10.787292220831997"><ele>70.0</ele><time>2026-04-18T09:10:58.999Z</time></trkpt><trkpt lat="43.52269921225088" lon="10.787377332340867"><ele>70.5</ele><time>2026-04-18T09:10:59.999Z</time></trkpt><trkpt lat="43.52272540263222" lon="10.78754278771685"><ele>71.0</ele><time>2026-04-18T09:11:01.999Z</time></trkpt><trkpt lat="43.52274743161748" lon="10.787705948163625"><ele>71.5</ele><time>2026-04-18T09:11:03.999Z</time></trkpt><trkpt lat="43.522768037913686" lon="10.78787764187638"><ele>72.0</ele><time>2026-04-18T09:11:05.999Z</time></trkpt><trkpt lat="43.522791838734086" lon="10.788047347067428"><ele>72.28571428571429</ele><time>2026-04-18T09:11:07.999Z</time></trkpt><trkpt lat="43.52280485030082" lon="10.788135924328147"><ele>72.57142857142857</ele><time>2026-04-18T09:11:08.999Z</time></trkpt><trkpt lat="43.52281863556679" lon="10.788224473240563"><ele>72.85714285714286</ele><time>2026-04-18T09:11:09.999Z</time></trkpt><trkpt lat="43.522831819658684" lon="10.78831411498342"><ele>73.14285714285714</ele><time>2026-04-18T09:11:10.999Z</time></trkpt><trkpt lat="43.52282876087441" lon="10.788409671937416"><ele>73.42857142857143</ele><time>2026-04-18T09:11:11.998Z</time></trkpt><trkpt lat="43.52284194871825" lon="10.788501355281271"><ele>73.71428571428572</ele><time>2026-04-18T09:11:12.998Z</time></trkpt><trkpt lat="43.522871688287104" lon="10.788590692216648"><ele>74.0</ele><time>2026-04-18T09:11:13.998Z</time></trkpt><trkpt lat="43.5228856018078" lon="10.788690348811151"><ele>75.0</ele><time>2026-04-18T09:11:14.998Z</time></trkpt><trkpt lat="43.52288389749892" lon="10.788790318957451"><ele>76.0</ele><time>2026-04-18T09:11:15.998Z</time></trkpt><trkpt lat="43.52289703570215" lon="10.788880519666249"><ele>77.0</ele><time>2026-04-18T09:11:16.998Z</time></trkpt><trkpt lat="43.5229193211492" lon="10.789033521257652"><ele>78.0</ele><time>2026-04-18T09:11:18.998Z</time></trkpt><trkpt lat="43.52293742657762" lon="10.789157824755609"><ele>79.0</ele><time>2026-04-18T09:11:20.998Z</time></trkpt><trkpt lat="43.52295099854823" lon="10.789255527700387"><ele>80.0</ele><time>2026-04-18T09:11:22.998Z</time></trkpt><trkpt lat="43.522964897657694" lon="10.789357609298785"><ele>81.66666666666667</ele><time>2026-04-18T09:11:24.998Z</time></trkpt><trkpt lat="43.52297951235302" lon="10.789464946505065"><ele>83.33333333333334</ele><time>2026-04-18T09:11:26.998Z</time></trkpt><trkpt lat="43.52299522404153" lon="10.789569503756487"><ele>85.0</ele><time>2026-04-18T09:11:29Z</time></trkpt><trkpt lat="43.52301547202832" lon="10.789671264101223"><ele>86.66666666666667</ele><time>2026-04-18T09:11:31Z</time></trkpt><trkpt lat="43.523037370660646" lon="10.789756930196386"><ele>88.33333333333333</ele><time>2026-04-18T09:11:33Z</time></trkpt><trkpt lat="43.52306612585412" lon="10.789874036054346"><ele>90.0</ele><time>2026-04-18T09:11:36Z</time></trkpt><trkpt lat="43.523084736211835" lon="10.789960373669345"><ele>90.0</ele><time>2026-04-18T09:11:39Z</time></trkpt><trkpt lat="43.523109088256376" lon="10.790098022928575"><ele>90.0</ele><time>2026-04-18T09:11:42Z</time></trkpt><trkpt lat="43.523122678973856" lon="10.790216054959172"><ele>90.0</ele><time>2026-04-18T09:11:44Z</time></trkpt><trkpt lat="43.523135697223665" lon="10.790345903617798"><ele>90.0</ele><time>2026-04-18T09:11:46Z</time></trkpt><trkpt lat="43.52315107006723" lon="10.790497602416231"><ele>90.0</ele><time>2026-04-18T09:11:48Z</time></trkpt><trkpt lat="43.52317003521137" lon="10.790665312110459"><ele>90.42857142857143</ele><time>2026-04-18T09:11:50Z</time></trkpt><trkpt lat="43.523182620170324" lon="10.790756740873446"><ele>90.85714285714286</ele><time>2026-04-18T09:11:51Z</time></trkpt><trkpt lat="43.52319798592556" lon="10.790847345188098"><ele>91.28571428571429</ele><time>2026-04-18T09:11:52Z</time></trkpt><trkpt lat="43.523215906619825" lon="10.790934849527703"><ele>91.71428571428572</ele><time>2026-04-18T09:11:53Z</time></trkpt><trkpt lat="43.52324007180712" lon="10.791021764340773"><ele>92.14285714285714</ele><time>2026-04-18T09:11:54Z</time></trkpt><trkpt lat="43.52327973769458" lon="10.791105479320695"><ele>92.57142857142858</ele><time>2026-04-18T09:11:55Z</time></trkpt><trkpt lat="43.52333792472407" lon="10.79115222781168"><ele>93.0</ele><time>2026-04-18T09:11:56Z</time></trkpt><trkpt lat="43.52340856001735" lon="10.791288136123278"><ele>93.00000000000001</ele><time>2026-04-18T09:11:58Z</time></trkpt><trkpt lat="43.52345153475515" lon="10.79135800325917"><ele>93.0</ele><time>2026-04-18T09:11:59Z</time></trkpt><trkpt lat="43.52349577089819" lon="10.791432320846523"><ele>93.0</ele><time>2026-04-18T09:12:00Z</time></trkpt><trkpt lat="43.52353995740175" lon="10.791510474220253"><ele>93.0</ele><time>2026-04-18T09:12:01Z</time></trkpt><trkpt lat="43.52359796536207" lon="10.791577235612607"><ele>93.0</ele><time>2026-04-18T09:12:02Z</time></trkpt><trkpt lat="43.52362806578401" lon="10.79167548576887"><ele>93.00000000000001</ele><time>2026-04-18T09:12:03Z</time></trkpt><trkpt lat="43.523679179561036" lon="10.791759100704196"><ele>93.0</ele><time>2026-04-18T09:12:04Z</time></trkpt><trkpt lat="43.52369904050927" lon="10.791862741074716"><ele>93.0</ele><time>2026-04-18T09:12:05Z</time></trkpt><trkpt lat="43.52370087934902" lon="10.791969794566345"><ele>93.0</ele><time>2026-04-18T09:12:06Z</time></trkpt><trkpt lat="43.52369276830921" lon="10.792081168829137"><ele>93.0</ele><time>2026-04-18T09:12:07Z</time></trkpt><trkpt lat="43.52368249860747" lon="10.792191989889576"><ele>93.0</ele><time>2026-04-18T09:12:07.999Z</time></trkpt><trkpt lat="43.523650128086736" lon="10.792302990625693"><ele>93.0</ele><time>2026-04-18T09:12:08.999Z</time></trkpt><trkpt lat="43.52364002438979" lon="10.792423727946082"><ele>93.0</ele><time>2026-04-18T09:12:09.999Z</time></trkpt><trkpt lat="43.52360464216045" lon="10.792538316515282"><ele>93.0</ele><time>2026-04-18T09:12:10.999Z</time></trkpt><trkpt lat="43.52357087336344" lon="10.792659422141229"><ele>93.0</ele><time>2026-04-18T09:12:11.999Z</time></trkpt><trkpt lat="43.52352163199878" lon="10.792778205518493"><ele>93.0</ele><time>2026-04-18T09:12:12.999Z</time></trkpt><trkpt lat="43.52350371080786" lon="10.792915667378722"><ele>93.0</ele><time>2026-04-18T09:12:13.999Z</time></trkpt><trkpt lat="43.52349287373931" lon="10.793052095550198"><ele>93.0</ele><time>2026-04-18T09:12:14.999Z</time></trkpt><trkpt lat="43.5234845828281" lon="10.79319343190529"><ele>93.60000000000001</ele><time>2026-04-18T09:12:15.999Z</time></trkpt><trkpt lat="43.52348435264551" lon="10.793336461401964"><ele>94.2</ele><time>2026-04-18T09:12:16.999Z</time></trkpt><trkpt lat="43.52349236759558" lon="10.793478914751793"><ele>94.8</ele><time>2026-04-18T09:12:17.999Z</time></trkpt><trkpt lat="43.52349881739435" lon="10.793621129716982"><ele>95.4</ele><time>2026-04-18T09:12:18.999Z</time></trkpt><trkpt lat="43.5235066465767" lon="10.793759867818087"><ele>96.0</ele><time>2026-04-18T09:12:19.999Z</time></trkpt><trkpt lat="43.52350735183973" lon="10.793900664337373"><ele>96.0</ele><time>2026-04-18T09:12:20.999Z</time></trkpt><trkpt lat="43.52350070015599" lon="10.794034832998552"><ele>96.0</ele><time>2026-04-18T09:12:21.999Z</time></trkpt><trkpt lat="43.52349292442089" lon="10.794173465459995"><ele>96.0</ele><time>2026-04-18T09:12:22.999Z</time></trkpt><trkpt lat="43.523486932164204" lon="10.794309282976835"><ele>96.0</ele><time>2026-04-18T09:12:23.999Z</time></trkpt><trkpt lat="43.5234801914874" lon="10.794436709553006"><ele>96.0</ele><time>2026-04-18T09:12:24.999Z</time></trkpt><trkpt lat="43.523470944979955" lon="10.794554990401156"><ele>96.0</ele><time>2026-04-18T09:12:25.999Z</time></trkpt><trkpt lat="43.52346232032827" lon="10.794663965726581"><ele>96.0</ele><time>2026-04-18T09:12:26.999Z</time></trkpt><trkpt lat="43.52345427329083" lon="10.79476552400915"><ele>96.0</ele><time>2026-04-18T09:12:27.999Z</time></trkpt><trkpt lat="43.52345141753591" lon="10.794868854980612"><ele>96.0</ele><time>2026-04-18T09:12:28.999Z</time></trkpt><trkpt lat="43.52345349489214" lon="10.794977900745268"><ele>96.0</ele><time>2026-04-18T09:12:29.999Z</time></trkpt><trkpt lat="43.52346102246188" lon="10.795092868476377"><ele>96.0</ele><time>2026-04-18T09:12:30.999Z</time></trkpt><trkpt lat="43.52347773263495" lon="10.795224124919264"><ele>95.19999999999999</ele><time>2026-04-18T09:12:31.999Z</time></trkpt><trkpt lat="43.523503523482056" lon="10.795360124755797"><ele>94.39999999999999</ele><time>2026-04-18T09:12:32.999Z</time></trkpt><trkpt lat="43.52353229219329" lon="10.795489798837227"><ele>93.6</ele><time>2026-04-18T09:12:33.999Z</time></trkpt><trkpt lat="43.52356169058849" lon="10.795615783158118"><ele>92.8</ele><time>2026-04-18T09:12:34.999Z</time></trkpt><trkpt lat="43.52359309009693" lon="10.795736299428754"><ele>92.0</ele><time>2026-04-18T09:12:35.999Z</time></trkpt><trkpt lat="43.523625488994234" lon="10.79585222137899"><ele>92.0</ele><time>2026-04-18T09:12:36.999Z</time></trkpt><trkpt lat="43.5236624463326" lon="10.795957341614326"><ele>92.0</ele><time>2026-04-18T09:12:37.999Z</time></trkpt><trkpt lat="43.52370442756007" lon="10.796066619561053"><ele>92.0</ele><time>2026-04-18T09:12:38.999Z</time></trkpt><trkpt lat="43.523743100937644" lon="10.79617505338117"><ele>92.0</ele><time>2026-04-18T09:12:39.999Z</time></trkpt><trkpt lat="43.52378149244174" lon="10.7962830047847"><ele>92.0</ele><time>2026-04-18T09:12:40.999Z</time></trkpt><trkpt lat="43.523819430056385" lon="10.796389173194925"><ele>92.0</ele><time>2026-04-18T09:12:41.999Z</time></trkpt><trkpt lat="43.5238521835505" lon="10.796501525816394"><ele>92.39999999999999</ele><time>2026-04-18T09:12:42.999Z</time></trkpt><trkpt lat="43.523881198065446" lon="10.796619014726232"><ele>92.8</ele><time>2026-04-18T09:12:43.999Z</time></trkpt><trkpt lat="43.5239086239636" lon="10.796743721651756"><ele>93.2</ele><time>2026-04-18T09:12:44.999Z</time></trkpt><trkpt lat="43.523934337459536" lon="10.796875987450052"><ele>93.6</ele><time>2026-04-18T09:12:45.999Z</time></trkpt><trkpt lat="43.523956925289085" lon="10.797013454814978"><ele>94.0</ele><time>2026-04-18T09:12:46.999Z</time></trkpt><trkpt lat="43.52397494174037" lon="10.797156538786265"><ele>94.0</ele><time>2026-04-18T09:12:47.999Z</time></trkpt><trkpt lat="43.52398596876567" lon="10.797297671048014"><ele>94.0</ele><time>2026-04-18T09:12:48.999Z</time></trkpt><trkpt lat="43.523996568995074" lon="10.797445020280229"><ele>94.0</ele><time>2026-04-18T09:12:49.999Z</time></trkpt><trkpt lat="43.52400665490346" lon="10.79759094728245"><ele>94.0</ele><time>2026-04-18T09:12:50.999Z</time></trkpt><trkpt lat="43.524018279343615" lon="10.797740475858772"><ele>94.0</ele><time>2026-04-18T09:12:51.999Z</time></trkpt><trkpt lat="43.52403218787437" lon="10.797890236998478"><ele>94.80000000000001</ele><time>2026-04-18T09:12:52.999Z</time></trkpt><trkpt lat="43.524041111175386" lon="10.798041147148728"><ele>95.60000000000001</ele><time>2026-04-18T09:12:53.999Z</time></trkpt><trkpt lat="43.52405120104662" lon="10.798192813445675"><ele>96.4</ele><time>2026-04-18T09:12:54.999Z</time></trkpt><trkpt lat="43.524066749520266" lon="10.798343002882884"><ele>97.2</ele><time>2026-04-18T09:12:55.999Z</time></trkpt><trkpt lat="43.5240951730005" lon="10.798489984968239"><ele>98.0</ele><time>2026-04-18T09:12:56.999Z</time></trkpt><trkpt lat="43.524126428413375" lon="10.798627445308325"><ele>98.60000000000001</ele><time>2026-04-18T09:12:57.999Z</time></trkpt><trkpt lat="43.52415291456014" lon="10.798765914903068"><ele>99.2</ele><time>2026-04-18T09:12:58.999Z</time></trkpt><trkpt lat="43.52417322003444" lon="10.79889484354307"><ele>99.8</ele><time>2026-04-18T09:12:59.999Z</time></trkpt><trkpt lat="43.524191303636194" lon="10.799030548876095"><ele>100.4</ele><time>2026-04-18T09:13:00.999Z</time></trkpt><trkpt lat="43.52420732712394" lon="10.799162409961562"><ele>101.0</ele><time>2026-04-18T09:13:01.999Z</time></trkpt><trkpt lat="43.5242245051225" lon="10.799287688035621"><ele>101.33333333333333</ele><time>2026-04-18T09:13:02.999Z</time></trkpt><trkpt lat="43.5242379464359" lon="10.799408084450732"><ele>101.66666666666666</ele><time>2026-04-18T09:13:03.999Z</time></trkpt><trkpt lat="43.5242439477501" lon="10.79952491948006"><ele>102.0</ele><time>2026-04-18T09:13:04.999Z</time></trkpt><trkpt lat="43.52424017258767" lon="10.79963221577266"><ele>102.33333333333334</ele><time>2026-04-18T09:13:05.999Z</time></trkpt><trkpt lat="43.524233800588455" lon="10.799743068487308"><ele>102.66666666666667</ele><time>2026-04-18T09:13:06.999Z</time></trkpt><trkpt lat="43.524221289868116" lon="10.799869181237101"><ele>103.0</ele><time>2026-04-18T09:13:07.999Z</time></trkpt><trkpt lat="43.52420552894048" lon="10.799979707659553"><ele>103.00000000000001</ele><time>2026-04-18T09:13:08.999Z</time></trkpt><trkpt lat="43.52419045510214" lon="10.800092081203994"><ele>103.0</ele><time>2026-04-18T09:13:09.999Z</time></trkpt><trkpt lat="43.52417792258484" lon="10.800204428423164"><ele>103.0</ele><time>2026-04-18T09:13:10.999Z</time></trkpt><trkpt lat="43.52416920211819" lon="10.800315661224834"><ele>103.0</ele><time>2026-04-18T09:13:11.998Z</time></trkpt><trkpt lat="43.52416303012705" lon="10.800424794533072"><ele>103.00000000000001</ele><time>2026-04-18T09:13:12.998Z</time></trkpt><trkpt lat="43.52415850064948" lon="10.800531770815569"><ele>103.0</ele><time>2026-04-18T09:13:13.998Z</time></trkpt><trkpt lat="43.524154293732096" lon="10.800633162339148"><ele>102.50000000000001</ele><time>2026-04-18T09:13:14.998Z</time></trkpt><trkpt lat="43.524150164862384" lon="10.800727764293809"><ele>102.0</ele><time>2026-04-18T09:13:15.998Z</time></trkpt><trkpt lat="43.52414303901538" lon="10.800817428082087"><ele>101.5</ele><time>2026-04-18T09:13:16.998Z</time></trkpt><trkpt lat="43.52411929046198" lon="10.80098634260674"><ele>101.0</ele><time>2026-04-18T09:13:18.998Z</time></trkpt><trkpt lat="43.524101146509594" lon="10.801070887042005"><ele>100.50000000000001</ele><time>2026-04-18T09:13:19.998Z</time></trkpt><trkpt lat="43.52407694284197" lon="10.801157051128651"><ele>100.0</ele><time>2026-04-18T09:13:20.998Z</time></trkpt><trkpt lat="43.524049131061844" lon="10.801243965429101"><ele>99.14285714285715</ele><time>2026-04-18T09:13:21.998Z</time></trkpt><trkpt lat="43.52401863630844" lon="10.801330172332236"><ele>98.28571428571429</ele><time>2026-04-18T09:13:22.998Z</time></trkpt><trkpt lat="43.52398582590623" lon="10.80141476487681"><ele>97.42857142857143</ele><time>2026-04-18T09:13:23.998Z</time></trkpt><trkpt lat="43.523952010549664" lon="10.801498670388819"><ele>96.57142857142858</ele><time>2026-04-18T09:13:24.998Z</time></trkpt><trkpt lat="43.52391696814568" lon="10.80158078456299"><ele>95.71428571428571</ele><time>2026-04-18T09:13:25.998Z</time></trkpt><trkpt lat="43.52388079775682" lon="10.801663905289733"><ele>94.85714285714286</ele><time>2026-04-18T09:13:26.998Z</time></trkpt><trkpt lat="43.523842600879796" lon="10.801743916412294"><ele>94.0</ele><time>2026-04-18T09:13:27.998Z</time></trkpt><trkpt lat="43.52380247540808" lon="10.801823523135061"><ele>94.0</ele><time>2026-04-18T09:13:28.998Z</time></trkpt><trkpt lat="43.52375780207217" lon="10.801896832238915"><ele>94.0</ele><time>2026-04-18T09:13:29.998Z</time></trkpt><trkpt lat="43.523705930623386" lon="10.801958794917086"><ele>94.0</ele><time>2026-04-18T09:13:30.998Z</time></trkpt><trkpt lat="43.523649564520305" lon="10.802010014049925"><ele>94.0</ele><time>2026-04-18T09:13:31.998Z</time></trkpt><trkpt lat="43.52358866881162" lon="10.80204807431857"><ele>94.0</ele><time>2026-04-18T09:13:32.998Z</time></trkpt><trkpt lat="43.523526285931524" lon="10.802083431569683"><ele>94.0</ele><time>2026-04-18T09:13:33.998Z</time></trkpt><trkpt lat="43.523467955687025" lon="10.802117062961287"><ele>94.0</ele><time>2026-04-18T09:13:35Z</time></trkpt><trkpt lat="43.52340799757689" lon="10.80215680222503"><ele>95.28571428571428</ele><time>2026-04-18T09:13:36Z</time></trkpt><trkpt lat="43.523350721008036" lon="10.802200014625116"><ele>96.57142857142857</ele><time>2026-04-18T09:13:37Z</time></trkpt><trkpt lat="43.5232922667236" lon="10.802243717542945"><ele>97.85714285714286</ele><time>2026-04-18T09:13:38Z</time></trkpt><trkpt lat="43.52323560884808" lon="10.802290214044538"><ele>99.14285714285714</ele><time>2026-04-18T09:13:39Z</time></trkpt><trkpt lat="43.523182756501804" lon="10.802338868813443"><ele>100.42857142857143</ele><time>2026-04-18T09:13:40Z</time></trkpt><trkpt lat="43.523134486487486" lon="10.802395094929087"><ele>101.71428571428571</ele><time>2026-04-18T09:13:41Z</time></trkpt><trkpt lat="43.523092629585875" lon="10.802461547779727"><ele>103.0</ele><time>2026-04-18T09:13:42Z</time></trkpt><trkpt lat="43.52305710601183" lon="10.802534514247805"><ele>103.00000000000001</ele><time>2026-04-18T09:13:43Z</time></trkpt><trkpt lat="43.5230274152849" lon="10.802611646560687"><ele>103.0</ele><time>2026-04-18T09:13:44Z</time></trkpt><trkpt lat="43.52299158748202" lon="10.802758031328976"><ele>103.0</ele><time>2026-04-18T09:13:46Z</time></trkpt><trkpt lat="43.522973398806904" lon="10.802867509758105"><ele>103.0</ele><time>2026-04-18T09:13:48Z</time></trkpt><trkpt lat="43.52295693559107" lon="10.802980070640904"><ele>103.00000000000001</ele><time>2026-04-18T09:13:51Z</time></trkpt><trkpt lat="43.52293957099566" lon="10.803077565732288"><ele>103.0</ele><time>2026-04-18T09:13:54Z</time></trkpt><trkpt lat="43.522927928039515" lon="10.803179865204333"><ele>103.60000000000001</ele><time>2026-04-18T09:13:56.999Z</time></trkpt><trkpt lat="43.52292078591275" lon="10.80328696686748"><ele>104.2</ele><time>2026-04-18T09:13:58.999Z</time></trkpt><trkpt lat="43.52291698352606" lon="10.803418666705983"><ele>104.8</ele><time>2026-04-18T09:14:00.999Z</time></trkpt><trkpt lat="43.52292468636432" lon="10.803560094321089"><ele>105.4</ele><time>2026-04-18T09:14:02.999Z</time></trkpt><trkpt lat="43.52294633720978" lon="10.803702834713038"><ele>106.0</ele><time>2026-04-18T09:14:04.999Z</time></trkpt><trkpt lat="43.52299126422144" lon="10.803841760831233"><ele>106.00000000000001</ele><time>2026-04-18T09:14:06.999Z</time></trkpt><trkpt lat="43.52305270482769" lon="10.803970047801242"><ele>106.0</ele><time>2026-04-18T09:14:08.999Z</time></trkpt><trkpt lat="43.523127495165184" lon="10.804107666784121"><ele>106.0</ele><time>2026-04-18T09:14:10.999Z</time></trkpt><trkpt lat="43.52316366063691" lon="10.804182414663165"><ele>106.0</ele><time>2026-04-18T09:14:11.999Z</time></trkpt><trkpt lat="43.5231989660607" lon="10.804259942433625"><ele>106.00000000000001</ele><time>2026-04-18T09:14:12.999Z</time></trkpt><trkpt lat="43.523232278354946" lon="10.8043403395595"><ele>106.0</ele><time>2026-04-18T09:14:13.999Z</time></trkpt><trkpt lat="43.52326486615701" lon="10.804422131894162"><ele>105.14285714285715</ele><time>2026-04-18T09:14:14.999Z</time></trkpt><trkpt lat="43.523295771365696" lon="10.804503199229403"><ele>104.28571428571428</ele><time>2026-04-18T09:14:15.999Z</time></trkpt><trkpt lat="43.52332642341838" lon="10.804583749630135"><ele>103.42857142857143</ele><time>2026-04-18T09:14:16.999Z</time></trkpt><trkpt lat="43.52335743040918" lon="10.804663092433895"><ele>102.57142857142858</ele><time>2026-04-18T09:14:17.999Z</time></trkpt><trkpt lat="43.523391632647915" lon="10.804743646152627"><ele>101.71428571428572</ele><time>2026-04-18T09:14:18.999Z</time></trkpt><trkpt lat="43.52342887484605" lon="10.804825727170641"><ele>100.85714285714286</ele><time>2026-04-18T09:14:19.999Z</time></trkpt><trkpt lat="43.52346621566447" lon="10.804908646709315"><ele>100.0</ele><time>2026-04-18T09:14:20.999Z</time></trkpt><trkpt lat="43.523507762421524" lon="10.805001314777162"><ele>100.00000000000001</ele><time>2026-04-18T09:14:21.999Z</time></trkpt><trkpt lat="43.52354709526844" lon="10.805090307553893"><ele>100.0</ele><time>2026-04-18T09:14:22.999Z</time></trkpt><trkpt lat="43.523583663567244" lon="10.805182502528664"><ele>100.0</ele><time>2026-04-18T09:14:23.999Z</time></trkpt><trkpt lat="43.52361544449582" lon="10.80528064297642"><ele>100.0</ele><time>2026-04-18T09:14:24.999Z</time></trkpt><trkpt lat="43.52364055992036" lon="10.805395382716025"><ele>100.00000000000001</ele><time>2026-04-18T09:14:25.999Z</time></trkpt><trkpt lat="43.523661382216055" lon="10.805517337535267"><ele>100.0</ele><time>2026-04-18T09:14:26.999Z</time></trkpt><trkpt lat="43.52367934742643" lon="10.80562652867595"><ele>99.85714285714286</ele><time>2026-04-18T09:14:27.999Z</time></trkpt><trkpt lat="43.5237001290217" lon="10.805726822207353"><ele>99.71428571428572</ele><time>2026-04-18T09:14:28.998Z</time></trkpt><trkpt lat="43.52372289761088" lon="10.805820424690651"><ele>99.57142857142858</ele><time>2026-04-18T09:14:29.998Z</time></trkpt><trkpt lat="43.523747473361226" lon="10.805909729649269"><ele>99.42857142857143</ele><time>2026-04-18T09:14:30.998Z</time></trkpt><trkpt lat="43.523770920174165" lon="10.805999688507915"><ele>99.28571428571428</ele><time>2026-04-18T09:14:31.998Z</time></trkpt><trkpt lat="43.52379006670791" lon="10.80609112758528"><ele>99.14285714285715</ele><time>2026-04-18T09:14:32.998Z</time></trkpt><trkpt lat="43.523802687210384" lon="10.806188951843234"><ele>99.0</ele><time>2026-04-18T09:14:33.998Z</time></trkpt><trkpt lat="43.52380716148366" lon="10.806288052833317"><ele>98.5</ele><time>2026-04-18T09:14:34.998Z</time></trkpt><trkpt lat="43.5238057583458" lon="10.806387407746918"><ele>98.0</ele><time>2026-04-18T09:14:35.998Z</time></trkpt><trkpt lat="43.523794699313726" lon="10.806488980620014"><ele>97.5</ele><time>2026-04-18T09:14:36.998Z</time></trkpt><trkpt lat="43.52377672301448" lon="10.80659497425657"><ele>97.0</ele><time>2026-04-18T09:14:37.998Z</time></trkpt><trkpt lat="43.52375755397154" lon="10.806700541754042"><ele>96.5</ele><time>2026-04-18T09:14:38.998Z</time></trkpt><trkpt lat="43.52374104566552" lon="10.8068088445545"><ele>96.0</ele><time>2026-04-18T09:14:39.998Z</time></trkpt><trkpt lat="43.52372854114983" lon="10.806913682677266"><ele>96.0</ele><time>2026-04-18T09:14:40.998Z</time></trkpt><trkpt lat="43.52372298210857" lon="10.807019149843695"><ele>96.0</ele><time>2026-04-18T09:14:41.998Z</time></trkpt><trkpt lat="43.52372339028717" lon="10.807124509778149"><ele>96.0</ele><time>2026-04-18T09:14:42.998Z</time></trkpt><trkpt lat="43.523731574484295" lon="10.807227481780158"><ele>96.0</ele><time>2026-04-18T09:14:43.998Z</time></trkpt><trkpt lat="43.52374715241422" lon="10.807332982275959"><ele>96.0</ele><time>2026-04-18T09:14:44.998Z</time></trkpt><trkpt lat="43.52376743523743" lon="10.807442065506606"><ele>96.0</ele><time>2026-04-18T09:14:45.998Z</time></trkpt><trkpt lat="43.52379311358789" lon="10.807548108441932"><ele>96.0</ele><time>2026-04-18T09:14:46.998Z</time></trkpt><trkpt lat="43.523824544962366" lon="10.80765353807661"><ele>96.0</ele><time>2026-04-18T09:14:47.998Z</time></trkpt><trkpt lat="43.523862419678224" lon="10.807754384509776"><ele>96.0</ele><time>2026-04-18T09:14:48.998Z</time></trkpt><trkpt lat="43.52390206053412" lon="10.807850532396118"><ele>96.0</ele><time>2026-04-18T09:14:49.998Z</time></trkpt><trkpt lat="43.52394321663704" lon="10.807947264675438"><ele>96.0</ele><time>2026-04-18T09:14:50.998Z</time></trkpt><trkpt lat="43.52398435768866" lon="10.808045172610564"><ele>96.0</ele><time>2026-04-18T09:14:51.998Z</time></trkpt><trkpt lat="43.52402259731014" lon="10.808141427380964"><ele>96.0</ele><time>2026-04-18T09:14:52.998Z</time></trkpt><trkpt lat="43.52405628695452" lon="10.808240067546594"><ele>96.0</ele><time>2026-04-18T09:14:53.998Z</time></trkpt><trkpt lat="43.524081653857564" lon="10.808338985239837"><ele>96.0</ele><time>2026-04-18T09:14:54.998Z</time></trkpt><trkpt lat="43.52409438987562" lon="10.80844418942795"><ele>96.0</ele><time>2026-04-18T09:14:55.998Z</time></trkpt><trkpt lat="43.524093356164734" lon="10.808545931302909"><ele>96.0</ele><time>2026-04-18T09:14:56.998Z</time></trkpt><trkpt lat="43.5240866478053" lon="10.808646734388182"><ele>96.0</ele><time>2026-04-18T09:14:57.998Z</time></trkpt><trkpt lat="43.52407838129612" lon="10.808746417730761"><ele>96.8</ele><time>2026-04-18T09:14:58.998Z</time></trkpt><trkpt lat="43.52406878136695" lon="10.808837711930535"><ele>97.6</ele><time>2026-04-18T09:14:59.998Z</time></trkpt><trkpt lat="43.52405950213455" lon="10.808924897836906"><ele>98.4</ele><time>2026-04-18T09:15:00.998Z</time></trkpt><trkpt lat="43.52404680549748" lon="10.809086551451148"><ele>99.2</ele><time>2026-04-18T09:15:02.998Z</time></trkpt><trkpt lat="43.52404274855603" lon="10.80923638134847"><ele>100.0</ele><time>2026-04-18T09:15:04.998Z</time></trkpt><trkpt lat="43.52405237693408" lon="10.809399599897699"><ele>100.50000000000001</ele><time>2026-04-18T09:15:06.998Z</time></trkpt><trkpt lat="43.52407250629441" lon="10.809564573796075"><ele>101.0</ele><time>2026-04-18T09:15:08.998Z</time></trkpt><trkpt lat="43.5240877895835" lon="10.809663122931848"><ele>101.5</ele><time>2026-04-18T09:15:09.998Z</time></trkpt><trkpt lat="43.52409972018707" lon="10.809753482497635"><ele>102.0</ele><time>2026-04-18T09:15:10.998Z</time></trkpt><trkpt lat="43.52411096762315" lon="10.809845233675416"><ele>102.50000000000001</ele><time>2026-04-18T09:15:11.998Z</time></trkpt><trkpt lat="43.52412189452457" lon="10.809937013993022"><ele>103.0</ele><time>2026-04-18T09:15:12.998Z</time></trkpt><trkpt lat="43.52412788935037" lon="10.810029953994606"><ele>102.99999999999999</ele><time>2026-04-18T09:15:13.998Z</time></trkpt><trkpt lat="43.52411054604202" lon="10.810120007273934"><ele>103.0</ele><time>2026-04-18T09:15:14.998Z</time></trkpt><trkpt lat="43.52410550057159" lon="10.810207051478011"><ele>103.0</ele><time>2026-04-18T09:15:15.998Z</time></trkpt><trkpt lat="43.52409497430081" lon="10.81029659980691"><ele>103.0</ele><time>2026-04-18T09:15:16.998Z</time></trkpt><trkpt lat="43.52408149555623" lon="10.81038898536804"><ele>103.0</ele><time>2026-04-18T09:15:17.998Z</time></trkpt><trkpt lat="43.524062939770495" lon="10.810480791041464"><ele>102.99999999999999</ele><time>2026-04-18T09:15:18.998Z</time></trkpt><trkpt lat="43.524057914823366" lon="10.810576593057567"><ele>103.0</ele><time>2026-04-18T09:15:19.998Z</time></trkpt><trkpt lat="43.52401989278247" lon="10.810657004493555"><ele>103.14285714285714</ele><time>2026-04-18T09:15:20.998Z</time></trkpt><trkpt lat="43.5240024990496" lon="10.810746698093478"><ele>103.28571428571428</ele><time>2026-04-18T09:15:21.998Z</time></trkpt><trkpt lat="43.52398820099942" lon="10.810834099427124"><ele>103.42857142857142</ele><time>2026-04-18T09:15:22.998Z</time></trkpt><trkpt lat="43.52397495504571" lon="10.810926456410538"><ele>103.57142857142857</ele><time>2026-04-18T09:15:23.998Z</time></trkpt><trkpt lat="43.52396718066788" lon="10.81101290482376"><ele>103.71428571428572</ele><time>2026-04-18T09:15:24.998Z</time></trkpt><trkpt lat="43.523958164936005" lon="10.811101367330972"><ele>103.85714285714285</ele><time>2026-04-18T09:15:25.998Z</time></trkpt><trkpt lat="43.523942780664264" lon="10.81118645748977"><ele>104.0</ele><time>2026-04-18T09:15:26.998Z</time></trkpt><trkpt lat="43.52392463926497" lon="10.811276535989025"><ele>103.71428571428571</ele><time>2026-04-18T09:15:27.997Z</time></trkpt><trkpt lat="43.52391759097419" lon="10.81137296422221"><ele>103.42857142857143</ele><time>2026-04-18T09:15:28.997Z</time></trkpt><trkpt lat="43.52387168783459" lon="10.811450391029679"><ele>103.14285714285714</ele><time>2026-04-18T09:15:29.997Z</time></trkpt><trkpt lat="43.5238349749427" lon="10.811528900774212"><ele>102.85714285714286</ele><time>2026-04-18T09:15:30.997Z</time></trkpt><trkpt lat="43.52380720966329" lon="10.811615064534546"><ele>102.57142857142858</ele><time>2026-04-18T09:15:31.997Z</time></trkpt><trkpt lat="43.52374769723882" lon="10.81166288506145"><ele>102.28571428571429</ele><time>2026-04-18T09:15:32.997Z</time></trkpt><trkpt lat="43.52369719274465" lon="10.811726636824085"><ele>102.0</ele><time>2026-04-18T09:15:33.997Z</time></trkpt><trkpt lat="43.52364730111462" lon="10.811788441620777"><ele>104.33333333333333</ele><time>2026-04-18T09:15:34.997Z</time></trkpt><trkpt lat="43.5235962765593" lon="10.811844197597544"><ele>106.66666666666666</ele><time>2026-04-18T09:15:35.997Z</time></trkpt><trkpt lat="43.52354661353703" lon="10.811899996496502"><ele>109.0</ele><time>2026-04-18T09:15:36.997Z</time></trkpt><trkpt lat="43.523451340902824" lon="10.811985561856062"><ele>111.33333333333333</ele><time>2026-04-18T09:15:38.997Z</time></trkpt><trkpt lat="43.52335904678585" lon="10.812028203440173"><ele>113.66666666666666</ele><time>2026-04-18T09:15:40.999Z</time></trkpt><trkpt lat="43.523272421498234" lon="10.812086711434327"><ele>116.0</ele><time>2026-04-18T09:15:42.999Z</time></trkpt><trkpt lat="43.523185351944456" lon="10.81213263343659"><ele>115.99999999999999</ele><time>2026-04-18T09:15:44.999Z</time></trkpt><trkpt lat="43.52309002296112" lon="10.812180933416789"><ele>116.0</ele><time>2026-04-18T09:15:46.999Z</time></trkpt><trkpt lat="43.523020149895046" lon="10.812261094120768"><ele>116.0</ele><time>2026-04-18T09:15:48.999Z</time></trkpt><trkpt lat="43.52297414595643" lon="10.81233928399276"><ele>116.0</ele><time>2026-04-18T09:15:50.999Z</time></trkpt><trkpt lat="43.5229468503112" lon="10.812444890289648"><ele>115.99999999999999</ele><time>2026-04-18T09:15:52.999Z</time></trkpt><trkpt lat="43.522899450271815" lon="10.812529574954645"><ele>116.0</ele><time>2026-04-18T09:15:54.999Z</time></trkpt><trkpt lat="43.52288442598082" lon="10.81263474563378"><ele>116.99999999999999</ele><time>2026-04-18T09:15:56.999Z</time></trkpt><trkpt lat="43.52283586077179" lon="10.812750801223084"><ele>118.0</ele><time>2026-04-18T09:15:58.999Z</time></trkpt><trkpt lat="43.52279369623893" lon="10.812881123250452"><ele>119.0</ele><time>2026-04-18T09:16:00.999Z</time></trkpt><trkpt lat="43.52274651806471" lon="10.812989813717424"><ele>120.0</ele><time>2026-04-18T09:16:02.999Z</time></trkpt><trkpt lat="43.52269912354648" lon="10.813067196472103"><ele>120.99999999999999</ele><time>2026-04-18T09:16:04.999Z</time></trkpt><trkpt lat="43.5226501891828" lon="10.813128362754913"><ele>122.0</ele><time>2026-04-18T09:16:06.999Z</time></trkpt><trkpt lat="43.52258523474663" lon="10.813191526090222"><ele>121.99999999999999</ele><time>2026-04-18T09:16:08.999Z</time></trkpt><trkpt lat="43.522493985172396" lon="10.813283202449512"><ele>122.0</ele><time>2026-04-18T09:16:10.999Z</time></trkpt><trkpt lat="43.522436552322766" lon="10.813338828491295"><ele>122.0</ele><time>2026-04-18T09:16:11.999Z</time></trkpt><trkpt lat="43.522373100090675" lon="10.813393601864057"><ele>122.0</ele><time>2026-04-18T09:16:12.999Z</time></trkpt><trkpt lat="43.522307125213956" lon="10.813449716534583"><ele>121.99999999999999</ele><time>2026-04-18T09:16:13.999Z</time></trkpt><trkpt lat="43.52224437376647" lon="10.813503311008615"><ele>122.0</ele><time>2026-04-18T09:16:14.999Z</time></trkpt><trkpt lat="43.52218522646048" lon="10.813561030256277"><ele>122.49999999999999</ele><time>2026-04-18T09:16:15.999Z</time></trkpt><trkpt lat="43.522133350505975" lon="10.813626623563621"><ele>123.0</ele><time>2026-04-18T09:16:16.999Z</time></trkpt><trkpt lat="43.5220257001906" lon="10.813738316919055"><ele>123.5</ele><time>2026-04-18T09:16:18.999Z</time></trkpt><trkpt lat="43.52201288520123" lon="10.813865807230435"><ele>124.0</ele><time>2026-04-18T09:16:19.999Z</time></trkpt><trkpt lat="43.52198702920361" lon="10.813958441603189"><ele>124.49999999999999</ele><time>2026-04-18T09:16:20.999Z</time></trkpt><trkpt lat="43.521980588118254" lon="10.814056328711068"><ele>125.0</ele><time>2026-04-18T09:16:21.999Z</time></trkpt><trkpt lat="43.5219610853567" lon="10.814146302119331"><ele>125.49999999999999</ele><time>2026-04-18T09:16:22.999Z</time></trkpt><trkpt lat="43.52194032507107" lon="10.814230695350062"><ele>126.0</ele><time>2026-04-18T09:16:23.999Z</time></trkpt><trkpt lat="43.52191749944396" lon="10.814312529868463"><ele>126.5</ele><time>2026-04-18T09:16:24.999Z</time></trkpt><trkpt lat="43.52189222655576" lon="10.814393919189984"><ele>127.0</ele><time>2026-04-18T09:16:25.999Z</time></trkpt><trkpt lat="43.521840870957675" lon="10.814545754451215"><ele>127.49999999999999</ele><time>2026-04-18T09:16:27.999Z</time></trkpt><trkpt lat="43.521787740736485" lon="10.814664830497694"><ele>128.0</ele><time>2026-04-18T09:16:29.999Z</time></trkpt><trkpt lat="43.52173882752917" lon="10.81477932240384"><ele>127.99999999999999</ele><time>2026-04-18T09:16:31.999Z</time></trkpt><trkpt lat="43.52169556974019" lon="10.81492454233382"><ele>128.0</ele><time>2026-04-18T09:16:33.999Z</time></trkpt><trkpt lat="43.52169244259754" lon="10.815020805706824"><ele>128.0</ele><time>2026-04-18T09:16:34.999Z</time></trkpt><trkpt lat="43.5216937065763" lon="10.81511001585485"><ele>128.0</ele><time>2026-04-18T09:16:35.999Z</time></trkpt><trkpt lat="43.52170631689774" lon="10.815197026021066"><ele>127.99999999999999</ele><time>2026-04-18T09:16:36.999Z</time></trkpt><trkpt lat="43.521702813734606" lon="10.815291037858026"><ele>128.0</ele><time>2026-04-18T09:16:37.999Z</time></trkpt><trkpt lat="43.52168589981063" lon="10.815386978223204"><ele>127.85714285714285</ele><time>2026-04-18T09:16:38.999Z</time></trkpt><trkpt lat="43.521672106412645" lon="10.815482196625936"><ele>127.7142857142857</ele><time>2026-04-18T09:16:39.999Z</time></trkpt><trkpt lat="43.52166662293058" lon="10.81557520339188"><ele>127.57142857142857</ele><time>2026-04-18T09:16:40.999Z</time></trkpt><trkpt lat="43.52166829659894" lon="10.815677528315884"><ele>127.42857142857142</ele><time>2026-04-18T09:16:41.999Z</time></trkpt><trkpt lat="43.521688291737064" lon="10.815778264319585"><ele>127.28571428571428</ele><time>2026-04-18T09:16:42.999Z</time></trkpt><trkpt lat="43.52171434690659" lon="10.81587180526646"><ele>127.14285714285714</ele><time>2026-04-18T09:16:43.999Z</time></trkpt><trkpt lat="43.52175176348755" lon="10.815966867375547"><ele>127.0</ele><time>2026-04-18T09:16:44.999Z</time></trkpt><trkpt lat="43.52179175038238" lon="10.816060301954442"><ele>125.83333333333334</ele><time>2026-04-18T09:16:45.999Z</time></trkpt><trkpt lat="43.521841111076455" lon="10.816149199340256"><ele>124.66666666666667</ele><time>2026-04-18T09:16:46.999Z</time></trkpt><trkpt lat="43.52189017365718" lon="10.816231892353525"><ele>123.5</ele><time>2026-04-18T09:16:47.999Z</time></trkpt><trkpt lat="43.52193722854209" lon="10.816313754351446"><ele>122.33333333333334</ele><time>2026-04-18T09:16:48.999Z</time></trkpt><trkpt lat="43.52199088980389" lon="10.816381629451168"><ele>121.16666666666667</ele><time>2026-04-18T09:16:49.999Z</time></trkpt><trkpt lat="43.52202671487199" lon="10.816471064708503"><ele>120.0</ele><time>2026-04-18T09:16:50.999Z</time></trkpt><trkpt lat="43.52205963271509" lon="10.816565850316652"><ele>120.33333333333333</ele><time>2026-04-18T09:16:51.999Z</time></trkpt><trkpt lat="43.522082744833746" lon="10.816664792734185"><ele>120.66666666666666</ele><time>2026-04-18T09:16:52.999Z</time></trkpt><trkpt lat="43.52209439634773" lon="10.816766827821938"><ele>121.0</ele><time>2026-04-18T09:16:53.999Z</time></trkpt><trkpt lat="43.52209683417052" lon="10.816873433753212"><ele>121.33333333333333</ele><time>2026-04-18T09:16:54.999Z</time></trkpt><trkpt lat="43.522086743826286" lon="10.816979509373539"><ele>121.66666666666666</ele><time>2026-04-18T09:16:55.999Z</time></trkpt><trkpt lat="43.5220607169204" lon="10.817083533020464"><ele>122.0</ele><time>2026-04-18T09:16:56.999Z</time></trkpt><trkpt lat="43.52202890744213" lon="10.817182693193537"><ele>122.16666666666666</ele><time>2026-04-18T09:16:57.999Z</time></trkpt><trkpt lat="43.52200400515947" lon="10.81729000354407"><ele>122.33333333333333</ele><time>2026-04-18T09:16:58.999Z</time></trkpt><trkpt lat="43.52196992270374" lon="10.817396127607378"><ele>122.5</ele><time>2026-04-18T09:16:59.999Z</time></trkpt><trkpt lat="43.52193364599911" lon="10.817512734085751"><ele>122.66666666666666</ele><time>2026-04-18T09:17:00.999Z</time></trkpt><trkpt lat="43.52189595639846" lon="10.817620450853537"><ele>122.83333333333333</ele><time>2026-04-18T09:17:01.999Z</time></trkpt><trkpt lat="43.521862466669674" lon="10.817720881349082"><ele>123.0</ele><time>2026-04-18T09:17:02.999Z</time></trkpt><trkpt lat="43.52181420113688" lon="10.817808772696871"><ele>124.33333333333333</ele><time>2026-04-18T09:17:03.999Z</time></trkpt><trkpt lat="43.52177149768537" lon="10.817893681626023"><ele>125.66666666666666</ele><time>2026-04-18T09:17:04.999Z</time></trkpt><trkpt lat="43.521735179928456" lon="10.817988099110714"><ele>127.0</ele><time>2026-04-18T09:17:05.999Z</time></trkpt><trkpt lat="43.52167415692404" lon="10.818064241584768"><ele>128.33333333333331</ele><time>2026-04-18T09:17:06.999Z</time></trkpt><trkpt lat="43.521614580176184" lon="10.818131513384728"><ele>129.66666666666666</ele><time>2026-04-18T09:17:07.999Z</time></trkpt><trkpt lat="43.52154126521968" lon="10.818172539507842"><ele>131.0</ele><time>2026-04-18T09:17:08.999Z</time></trkpt><trkpt lat="43.52147386476197" lon="10.818226816881623"><ele>131.0</ele><time>2026-04-18T09:17:09.999Z</time></trkpt><trkpt lat="43.52142595253415" lon="10.81828368414133"><ele>131.0</ele><time>2026-04-18T09:17:10.999Z</time></trkpt><trkpt lat="43.52138443930531" lon="10.818389757238084"><ele>131.0</ele><time>2026-04-18T09:17:12.999Z</time></trkpt><trkpt lat="43.521331832709336" lon="10.818449250281374"><ele>131.0</ele><time>2026-04-18T09:17:14.998Z</time></trkpt><trkpt lat="43.521306100043866" lon="10.818538665610271"><ele>131.0</ele><time>2026-04-18T09:17:16.998Z</time></trkpt><trkpt lat="43.52128513881834" lon="10.818657077922564"><ele>131.0</ele><time>2026-04-18T09:17:19.998Z</time></trkpt><trkpt lat="43.521280339363024" lon="10.818798675135941"><ele>130.0</ele><time>2026-04-18T09:17:22.998Z</time></trkpt><trkpt lat="43.52127069717512" lon="10.818959071749806"><ele>129.0</ele><time>2026-04-18T09:17:24.998Z</time></trkpt><trkpt lat="43.52129435886738" lon="10.819112304988781"><ele>128.0</ele><time>2026-04-18T09:17:26.998Z</time></trkpt><trkpt lat="43.521348842749916" lon="10.819238279827044"><ele>127.0</ele><time>2026-04-18T09:17:28.998Z</time></trkpt><trkpt lat="43.521385434282216" lon="10.81932942544071"><ele>126.0</ele><time>2026-04-18T09:17:31.998Z</time></trkpt><trkpt lat="43.52141229580455" lon="10.819431918392679"><ele>124.42857142857143</ele><time>2026-04-18T09:17:52.999Z</time></trkpt><trkpt lat="43.52143231386825" lon="10.819541968288691"><ele>122.85714285714286</ele><time>2026-04-18T09:17:57.999Z</time></trkpt><trkpt lat="43.52144179324724" lon="10.819628453684096"><ele>121.28571428571428</ele><time>2026-04-18T09:18:01Z</time></trkpt><trkpt lat="43.52144010065066" lon="10.819715308671276"><ele>119.71428571428571</ele><time>2026-04-18T09:18:04.999Z</time></trkpt><trkpt lat="43.52142064776883" lon="10.819810486225801"><ele>118.14285714285714</ele><time>2026-04-18T09:18:08.999Z</time></trkpt><trkpt lat="43.52144946573021" lon="10.819705745268255"><ele>116.57142857142856</ele><time>2026-04-18T09:19:10.999Z</time></trkpt><trkpt lat="43.52145098591171" lon="10.819587573175678"><ele>114.99999999999999</ele><time>2026-04-18T09:19:15.998Z</time></trkpt><trkpt lat="43.521422007384764" lon="10.819481195684007"><ele>114.99999999999999</ele><time>2026-04-18T09:19:19.998Z</time></trkpt><trkpt lat="43.521403492410215" lon="10.819389410660953"><ele>115.0</ele><time>2026-04-18T09:19:25.998Z</time></trkpt><trkpt lat="43.521384789134544" lon="10.819285810043096"><ele>114.99999999999999</ele><time>2026-04-18T09:19:30.998Z</time></trkpt><trkpt lat="43.52134076877953" lon="10.819222235651829"><ele>114.99999999999999</ele><time>2026-04-18T09:19:34.998Z</time></trkpt><trkpt lat="43.52130098001482" lon="10.819129256036394"><ele>115.0</ele><time>2026-04-18T09:20:01Z</time></trkpt><trkpt lat="43.521280368519825" lon="10.81904605709305"><ele>114.99999999999999</ele><time>2026-04-18T09:20:07Z</time></trkpt><trkpt lat="43.521268985629355" lon="10.818941292735959"><ele>114.99999999999999</ele><time>2026-04-18T09:20:19.999Z</time></trkpt><trkpt lat="43.52128682166193" lon="10.818845288037624"><ele>117.2</ele><time>2026-04-18T09:20:24.999Z</time></trkpt><trkpt lat="43.521285478522024" lon="10.818745127636756"><ele>119.4</ele><time>2026-04-18T09:20:29.999Z</time></trkpt><trkpt lat="43.52125417958579" lon="10.81882402544793"><ele>121.6</ele><time>2026-04-18T09:20:41.999Z</time></trkpt><trkpt lat="43.52125064881767" lon="10.818919056498375"><ele>123.8</ele><time>2026-04-18T09:20:46.999Z</time></trkpt><trkpt lat="43.521246262987" lon="10.819026432244327"><ele>126.0</ele><time>2026-04-18T09:20:50.999Z</time></trkpt><trkpt lat="43.521040946154386" lon="10.819036003137287"><ele>125.85714285714286</ele><time>2026-04-18T09:20:51.999Z</time></trkpt><trkpt lat="43.520989549629356" lon="10.819086972980513"><ele>125.71428571428572</ele><time>2026-04-18T09:20:57.999Z</time></trkpt><trkpt lat="43.52092162683336" lon="10.819132346085908"><ele>125.57142857142857</ele><time>2026-04-18T09:21:15.999Z</time></trkpt><trkpt lat="43.52086337336661" lon="10.8191733431923"><ele>125.42857142857143</ele><time>2026-04-18T09:21:23.998Z</time></trkpt><trkpt lat="43.52080880460804" lon="10.819219610235184"><ele>125.28571428571429</ele><time>2026-04-18T09:21:26.998Z</time></trkpt><trkpt lat="43.52075013306318" lon="10.819286584752508"><ele>125.14285714285714</ele><time>2026-04-18T09:21:29.998Z</time></trkpt><trkpt lat="43.52070207782645" lon="10.81936031985481"><ele>125.0</ele><time>2026-04-18T09:21:32.998Z</time></trkpt><trkpt lat="43.520666517803036" lon="10.81943332871969"><ele>125.0</ele><time>2026-04-18T09:21:37.998Z</time></trkpt><trkpt lat="43.52060758495793" lon="10.819517146885213"><ele>125.0</ele><time>2026-04-18T09:21:41.998Z</time></trkpt><trkpt lat="43.5205567973726" lon="10.81956855752873"><ele>125.0</ele><time>2026-04-18T09:21:44.998Z</time></trkpt><trkpt lat="43.52049255622209" lon="10.819617481763245"><ele>125.0</ele><time>2026-04-18T09:21:48.998Z</time></trkpt><trkpt lat="43.52044876986132" lon="10.819681343690045"><ele>125.0</ele><time>2026-04-18T09:21:54.998Z</time></trkpt><trkpt lat="43.52040702887628" lon="10.819755252804379"><ele>125.0</ele><time>2026-04-18T09:22:00Z</time></trkpt><trkpt lat="43.520354429978255" lon="10.819823707579381"><ele>125.0</ele><time>2026-04-18T09:22:05Z</time></trkpt><trkpt lat="43.52031181378055" lon="10.819894996454059"><ele>126.14285714285714</ele><time>2026-04-18T09:22:09Z</time></trkpt><trkpt lat="43.52026880395836" lon="10.819971674031208"><ele>127.28571428571429</ele><time>2026-04-18T09:22:14Z</time></trkpt><trkpt lat="43.52022744066843" lon="10.820049431044783"><ele>128.42857142857144</ele><time>2026-04-18T09:22:17Z</time></trkpt><trkpt lat="43.52019165960032" lon="10.820124713677107"><ele>129.57142857142856</ele><time>2026-04-18T09:22:19Z</time></trkpt><trkpt lat="43.52015552933752" lon="10.820203942635622"><ele>130.71428571428572</ele><time>2026-04-18T09:22:21Z</time></trkpt><trkpt lat="43.52011520093855" lon="10.820281636882575"><ele>131.85714285714286</ele><time>2026-04-18T09:22:23Z</time></trkpt><trkpt lat="43.52006932491891" lon="10.82036006803712"><ele>133.0</ele><time>2026-04-18T09:22:24.999Z</time></trkpt><trkpt lat="43.52002185154755" lon="10.82042175375685"><ele>133.16666666666669</ele><time>2026-04-18T09:22:26.999Z</time></trkpt><trkpt lat="43.51995762268414" lon="10.820493268116852"><ele>133.33333333333334</ele><time>2026-04-18T09:22:29.999Z</time></trkpt><trkpt lat="43.519899882913336" lon="10.820552139394309"><ele>133.5</ele><time>2026-04-18T09:22:33.999Z</time></trkpt><trkpt lat="43.51984223992794" lon="10.820599572516912"><ele>133.66666666666666</ele><time>2026-04-18T09:22:37.999Z</time></trkpt><trkpt lat="43.51976172284749" lon="10.820629178258216"><ele>133.83333333333331</ele><time>2026-04-18T09:22:41.999Z</time></trkpt><trkpt lat="43.51969162032414" lon="10.820648815700984"><ele>134.0</ele><time>2026-04-18T09:22:45.999Z</time></trkpt><trkpt lat="43.519609448102386" lon="10.82065841326809"><ele>135.16666666666666</ele><time>2026-04-18T09:22:50.999Z</time></trkpt><trkpt lat="43.5195442158484" lon="10.820685958516306"><ele>136.33333333333331</ele><time>2026-04-18T09:22:53.999Z</time></trkpt><trkpt lat="43.5194722404996" lon="10.820712122757119"><ele>137.5</ele><time>2026-04-18T09:22:56.999Z</time></trkpt><trkpt lat="43.51940703122427" lon="10.820717670623392"><ele>138.66666666666666</ele><time>2026-04-18T09:22:59.999Z</time></trkpt><trkpt lat="43.51932873984045" lon="10.820726779882898"><ele>139.83333333333334</ele><time>2026-04-18T09:23:03.999Z</time></trkpt><trkpt lat="43.519264773324906" lon="10.820807435747328"><ele>141.0</ele><time>2026-04-18T09:23:07.999Z</time></trkpt><trkpt lat="43.519259637292286" lon="10.820918233554623"><ele>141.5</ele><time>2026-04-18T09:23:10.999Z</time></trkpt><trkpt lat="43.51926096571074" lon="10.821019142240521"><ele>142.0</ele><time>2026-04-18T09:23:13.999Z</time></trkpt><trkpt lat="43.51925461350624" lon="10.821131956529097"><ele>142.5</ele><time>2026-04-18T09:23:16.999Z</time></trkpt><trkpt lat="43.519243046878465" lon="10.821243350036607"><ele>143.0</ele><time>2026-04-18T09:23:19.999Z</time></trkpt><trkpt lat="43.5192149861656" lon="10.821354177584112"><ele>143.5</ele><time>2026-04-18T09:23:22.998Z</time></trkpt><trkpt lat="43.519169950930255" lon="10.82144636019134"><ele>144.0</ele><time>2026-04-18T09:23:25.998Z</time></trkpt><trkpt lat="43.5191314173522" lon="10.821515813736708"><ele>144.0</ele><time>2026-04-18T09:23:27.998Z</time></trkpt><trkpt lat="43.5190785590307" lon="10.821608961524177"><ele>144.0</ele><time>2026-04-18T09:23:30.998Z</time></trkpt><trkpt lat="43.519020801948095" lon="10.821707739888602"><ele>144.0</ele><time>2026-04-18T09:23:33.998Z</time></trkpt><trkpt lat="43.518982946153564" lon="10.821778802040916"><ele>144.0</ele><time>2026-04-18T09:23:35.998Z</time></trkpt><trkpt lat="43.51894968104433" lon="10.821865086119825"><ele>144.0</ele><time>2026-04-18T09:23:37.998Z</time></trkpt><trkpt lat="43.51892444117692" lon="10.821949967971722"><ele>144.0</ele><time>2026-04-18T09:23:39.998Z</time></trkpt><trkpt lat="43.518868845958" lon="10.822052598845861"><ele>143.85714285714286</ele><time>2026-04-18T09:23:42.998Z</time></trkpt><trkpt lat="43.51883696467251" lon="10.822134661984373"><ele>143.71428571428572</ele><time>2026-04-18T09:23:44.998Z</time></trkpt><trkpt lat="43.5188184355187" lon="10.822221592128509"><ele>143.57142857142856</ele><time>2026-04-18T09:23:46.998Z</time></trkpt><trkpt lat="43.51879738620093" lon="10.822316561918926"><ele>143.42857142857144</ele><time>2026-04-18T09:23:49.998Z</time></trkpt><trkpt lat="43.51876733406136" lon="10.822404910979309"><ele>143.28571428571428</ele><time>2026-04-18T09:23:57.998Z</time></trkpt><trkpt lat="43.518736561511766" lon="10.822487784100382"><ele>143.14285714285714</ele><time>2026-04-18T09:24:05Z</time></trkpt><trkpt lat="43.51870996703153" lon="10.822571058235207"><ele>143.0</ele><time>2026-04-18T09:24:52.999Z</time></trkpt><trkpt lat="43.518669013825644" lon="10.822647844390074"><ele>145.57142857142856</ele><time>2026-04-18T09:24:57.999Z</time></trkpt><trkpt lat="43.518622089455505" lon="10.822725126698383"><ele>148.14285714285714</ele><time>2026-04-18T09:25:01.999Z</time></trkpt><trkpt lat="43.51857370998062" lon="10.822792979721855"><ele>150.71428571428572</ele><time>2026-04-18T09:25:15.999Z</time></trkpt><trkpt lat="43.51861431456067" lon="10.822725548894368"><ele>153.28571428571428</ele><time>2026-04-18T09:25:47.998Z</time></trkpt><trkpt lat="43.5186524061736" lon="10.822656223348377"><ele>155.85714285714286</ele><time>2026-04-18T09:25:56.998Z</time></trkpt><trkpt lat="43.518612799527155" lon="10.82273330445702"><ele>158.42857142857142</ele><time>2026-04-18T09:28:10.999Z</time></trkpt><trkpt lat="43.51865764326431" lon="10.822657151874477"><ele>161.0</ele><time>2026-04-18T09:28:33.001Z</time></trkpt><trkpt lat="43.51861730166257" lon="10.822736147261667"><ele>161.0</ele><time>2026-04-18T09:30:48Z</time></trkpt><trkpt lat="43.51856857508688" lon="10.82280013877391"><ele>161.0</ele><time>2026-04-18T09:30:56Z</time></trkpt><trkpt lat="43.51852969435361" lon="10.822873066342039"><ele>161.0</ele><time>2026-04-18T09:31:02Z</time></trkpt><trkpt lat="43.51847745909422" lon="10.822962454815324"><ele>161.0</ele><time>2026-04-18T09:31:25Z</time></trkpt><trkpt lat="43.51843852274606" lon="10.823031768848324"><ele>161.0</ele><time>2026-04-18T09:31:34Z</time></trkpt><trkpt lat="43.51838696342244" lon="10.823127117797055"><ele>161.0</ele><time>2026-04-18T09:32:07.999Z</time></trkpt><trkpt lat="43.51834447029616" lon="10.823208373058067"><ele>161.0</ele><time>2026-04-18T09:32:17.999Z</time></trkpt><trkpt lat="43.51831050415936" lon="10.823298297060575"><ele>161.0</ele><time>2026-04-18T09:32:46Z</time></trkpt><trkpt lat="43.51828014173835" lon="10.823386887039845"><ele>161.0</ele><time>2026-04-18T09:32:53Z</time></trkpt><trkpt lat="43.51824702514055" lon="10.823466893342209"><ele>161.0</ele><time>2026-04-18T09:32:59Z</time></trkpt><trkpt lat="43.518222420001024" lon="10.823550461049724"><ele>161.0</ele><time>2026-04-18T09:33:26Z</time></trkpt><trkpt lat="43.518188723772795" lon="10.823652066859086"><ele>161.0</ele><time>2026-04-18T09:33:30Z</time></trkpt><trkpt lat="43.51814715116828" lon="10.823764218634881"><ele>161.0</ele><time>2026-04-18T09:33:34Z</time></trkpt><trkpt lat="43.518085024676864" lon="10.82385289248221"><ele>160.85714285714286</ele><time>2026-04-18T09:33:37Z</time></trkpt><trkpt lat="43.518041050209455" lon="10.82393854957359"><ele>160.71428571428572</ele><time>2026-04-18T09:33:40Z</time></trkpt><trkpt lat="43.51800932363469" lon="10.82401441123592"><ele>160.57142857142856</ele><time>2026-04-18T09:33:42Z</time></trkpt><trkpt lat="43.51797467238761" lon="10.824087989618727"><ele>160.42857142857144</ele><time>2026-04-18T09:33:43.999Z</time></trkpt><trkpt lat="43.517929433947565" lon="10.824153213356428"><ele>160.28571428571428</ele><time>2026-04-18T09:33:45.999Z</time></trkpt><trkpt lat="43.51789029781584" lon="10.824227222176296"><ele>160.14285714285714</ele><time>2026-04-18T09:33:47.999Z</time></trkpt><trkpt lat="43.51783507773623" lon="10.824329123943853"><ele>160.0</ele><time>2026-04-18T09:33:50.999Z</time></trkpt><trkpt lat="43.517801425704654" lon="10.824431448378668"><ele>160.0</ele><time>2026-04-18T09:33:53.999Z</time></trkpt><trkpt lat="43.51780691606175" lon="10.824545406310646"><ele>160.0</ele><time>2026-04-18T09:33:56.999Z</time></trkpt><trkpt lat="43.51782411359123" lon="10.824634345369022"><ele>160.0</ele><time>2026-04-18T09:33:58.999Z</time></trkpt><trkpt lat="43.51787225107251" lon="10.824742064978286"><ele>160.0</ele><time>2026-04-18T09:34:01.999Z</time></trkpt><trkpt lat="43.517904896338905" lon="10.824829578571922"><ele>160.0</ele><time>2026-04-18T09:34:04.999Z</time></trkpt><trkpt lat="43.517917858611284" lon="10.824917225588543"><ele>160.0</ele><time>2026-04-18T09:34:09.999Z</time></trkpt><trkpt lat="43.51788760630425" lon="10.82501137355744"><ele>160.28571428571428</ele><time>2026-04-18T09:34:14.999Z</time></trkpt><trkpt lat="43.51790892071068" lon="10.8249042549228"><ele>160.57142857142858</ele><time>2026-04-18T09:37:48.999Z</time></trkpt><trkpt lat="43.51793659196095" lon="10.824996701905388"><ele>160.85714285714286</ele><time>2026-04-18T09:38:18.999Z</time></trkpt><trkpt lat="43.517938866923735" lon="10.825095723066948"><ele>161.14285714285714</ele><time>2026-04-18T09:38:22.999Z</time></trkpt><trkpt lat="43.5179397182735" lon="10.825184520950625"><ele>161.42857142857142</ele><time>2026-04-18T09:38:29.999Z</time></trkpt><trkpt lat="43.517929417854496" lon="10.825279758425728"><ele>161.71428571428572</ele><time>2026-04-18T09:38:38.999Z</time></trkpt><trkpt lat="43.517932195713364" lon="10.825366608240008"><ele>162.0</ele><time>2026-04-18T09:38:49.001Z</time></trkpt><trkpt lat="43.51791965246431" lon="10.825452600105459"><ele>162.0</ele><time>2026-04-18T09:38:55.001Z</time></trkpt><trkpt lat="43.51791104096382" lon="10.825560667169993"><ele>162.0</ele><time>2026-04-18T09:39:00.001Z</time></trkpt><trkpt lat="43.51791367876226" lon="10.825662704656933"><ele>162.0</ele><time>2026-04-18T09:39:03.001Z</time></trkpt><trkpt lat="43.517919850985" lon="10.825753890918142"><ele>162.0</ele><time>2026-04-18T09:39:06Z</time></trkpt><trkpt lat="43.51792521558441" lon="10.825878044306515"><ele>162.0</ele><time>2026-04-18T09:39:10Z</time></trkpt><trkpt lat="43.5179209072151" lon="10.825990377835748"><ele>162.0</ele><time>2026-04-18T09:39:13Z</time></trkpt><trkpt lat="43.517879329789594" lon="10.826095800287742"><ele>162.57142857142858</ele><time>2026-04-18T09:39:17Z</time></trkpt><trkpt lat="43.51784498462683" lon="10.826199295389944"><ele>163.14285714285714</ele><time>2026-04-18T09:39:20Z</time></trkpt><trkpt lat="43.51779948538328" lon="10.826272593523196"><ele>163.71428571428572</ele><time>2026-04-18T09:39:23Z</time></trkpt><trkpt lat="43.51772799665676" lon="10.826332358482421"><ele>164.28571428571428</ele><time>2026-04-18T09:39:27Z</time></trkpt><trkpt lat="43.517673397416765" lon="10.826408700195358"><ele>164.85714285714286</ele><time>2026-04-18T09:39:30Z</time></trkpt><trkpt lat="43.51762504736297" lon="10.826468272896408"><ele>165.42857142857142</ele><time>2026-04-18T09:39:34Z</time></trkpt><trkpt lat="43.51756945787476" lon="10.826513992522601"><ele>166.0</ele><time>2026-04-18T09:39:40Z</time></trkpt><trkpt lat="43.51749804175863" lon="10.826583239888501"><ele>166.0</ele><time>2026-04-18T09:39:44Z</time></trkpt><trkpt lat="43.51743737043299" lon="10.826643571496877"><ele>166.0</ele><time>2026-04-18T09:39:46Z</time></trkpt><trkpt lat="43.51736968456883" lon="10.82671679817424"><ele>166.0</ele><time>2026-04-18T09:39:48Z</time></trkpt><trkpt lat="43.51729839784403" lon="10.826792961425728"><ele>166.0</ele><time>2026-04-18T09:39:50Z</time></trkpt><trkpt lat="43.51722906431574" lon="10.826863555182236"><ele>166.0</ele><time>2026-04-18T09:39:52Z</time></trkpt><trkpt lat="43.51716748227066" lon="10.826920605513568"><ele>166.0</ele><time>2026-04-18T09:39:55Z</time></trkpt><trkpt lat="43.51711252157015" lon="10.826965907644377"><ele>166.28571428571428</ele><time>2026-04-18T09:39:59.999Z</time></trkpt><trkpt lat="43.517051082660096" lon="10.827007908527014"><ele>166.57142857142858</ele><time>2026-04-18T09:40:03.999Z</time></trkpt><trkpt lat="43.51699223210013" lon="10.827054164282732"><ele>166.85714285714286</ele><time>2026-04-18T09:40:08.999Z</time></trkpt><trkpt lat="43.51693500453346" lon="10.827093186922204"><ele>167.14285714285714</ele><time>2026-04-18T09:40:15.999Z</time></trkpt><trkpt lat="43.5169938607527" lon="10.827057157797933"><ele>167.42857142857144</ele><time>2026-04-18T09:40:40.999Z</time></trkpt><trkpt lat="43.5170546420509" lon="10.827015124387781"><ele>167.71428571428572</ele><time>2026-04-18T09:40:53Z</time></trkpt><trkpt lat="43.51711524797893" lon="10.826970707880108"><ele>168.0</ele><time>2026-04-18T09:41:03Z</time></trkpt><trkpt lat="43.517174688628835" lon="10.826913493281591"><ele>167.71428571428572</ele><time>2026-04-18T09:41:12Z</time></trkpt><trkpt lat="43.5172310304678" lon="10.826868099503395"><ele>167.42857142857144</ele><time>2026-04-18T09:41:22Z</time></trkpt><trkpt lat="43.517293613457795" lon="10.826802252400434"><ele>167.14285714285714</ele><time>2026-04-18T09:42:24.999Z</time></trkpt><trkpt lat="43.51735678092235" lon="10.826738480389922"><ele>166.85714285714286</ele><time>2026-04-18T09:42:28.999Z</time></trkpt><trkpt lat="43.51741051982183" lon="10.826675509629464"><ele>166.57142857142858</ele><time>2026-04-18T09:42:31.999Z</time></trkpt><trkpt lat="43.51747416387049" lon="10.82661443270894"><ele>166.28571428571428</ele><time>2026-04-18T09:42:35.999Z</time></trkpt><trkpt lat="43.51753479235312" lon="10.826550863305458"><ele>166.0</ele><time>2026-04-18T09:42:39.999Z</time></trkpt><trkpt lat="43.51758563225455" lon="10.826497301499353"><ele>166.0</ele><time>2026-04-18T09:42:44.999Z</time></trkpt><trkpt lat="43.51764885268237" lon="10.82643176721154"><ele>166.0</ele><time>2026-04-18T09:42:49.998Z</time></trkpt><trkpt lat="43.51770575366592" lon="10.826350884194014"><ele>166.0</ele><time>2026-04-18T09:42:53.998Z</time></trkpt><trkpt lat="43.51775943903353" lon="10.826301994448846"><ele>166.0</ele><time>2026-04-18T09:42:57Z</time></trkpt><trkpt lat="43.51782187117089" lon="10.826242988682797"><ele>166.0</ele><time>2026-04-18T09:43:00Z</time></trkpt><trkpt lat="43.517853054910134" lon="10.826142433057719"><ele>166.0</ele><time>2026-04-18T09:43:03Z</time></trkpt><trkpt lat="43.51790297938715" lon="10.826040122540988"><ele>165.66666666666669</ele><time>2026-04-18T09:43:06Z</time></trkpt><trkpt lat="43.51792169928138" lon="10.825921079096029"><ele>165.33333333333334</ele><time>2026-04-18T09:43:09Z</time></trkpt><trkpt lat="43.5179128313833" lon="10.825832570726762"><ele>165.0</ele><time>2026-04-18T09:43:12Z</time></trkpt><trkpt lat="43.517915805704504" lon="10.825735662169366"><ele>164.66666666666666</ele><time>2026-04-18T09:43:15Z</time></trkpt><trkpt lat="43.51790419076882" lon="10.825615208364185"><ele>164.33333333333331</ele><time>2026-04-18T09:43:18Z</time></trkpt><trkpt lat="43.51790080614532" lon="10.825525379007816"><ele>164.0</ele><time>2026-04-18T09:43:20Z</time></trkpt><trkpt lat="43.517917982281645" lon="10.825416835617409"><ele>163.85714285714283</ele><time>2026-04-18T09:43:23Z</time></trkpt><trkpt lat="43.51792521769986" lon="10.825329300758678"><ele>163.71428571428572</ele><time>2026-04-18T09:43:28Z</time></trkpt><trkpt lat="43.517923160937514" lon="10.825238370122536"><ele>163.57142857142856</ele><time>2026-04-18T09:43:36Z</time></trkpt><trkpt lat="43.517924600439464" lon="10.82513252874657"><ele>163.42857142857142</ele><time>2026-04-18T09:43:41Z</time></trkpt><trkpt lat="43.51791825891063" lon="10.825037778654993"><ele>163.28571428571428</ele><time>2026-04-18T09:43:44Z</time></trkpt><trkpt lat="43.51790898213348" lon="10.824931387045226"><ele>163.14285714285714</ele><time>2026-04-18T09:43:47Z</time></trkpt><trkpt lat="43.5178858349289" lon="10.824820594582377"><ele>163.0</ele><time>2026-04-18T09:43:50Z</time></trkpt><trkpt lat="43.51784637376343" lon="10.824719736874533"><ele>163.0</ele><time>2026-04-18T09:43:52.999Z</time></trkpt><trkpt lat="43.51780365397538" lon="10.824604620109271"><ele>163.0</ele><time>2026-04-18T09:43:55.999Z</time></trkpt><trkpt lat="43.51779157155284" lon="10.8245140731404"><ele>163.0</ele><time>2026-04-18T09:43:57.999Z</time></trkpt><trkpt lat="43.51779794371414" lon="10.824399982447446"><ele>163.0</ele><time>2026-04-18T09:44:00.999Z</time></trkpt><trkpt lat="43.51783980194655" lon="10.824316397223209"><ele>163.0</ele><time>2026-04-18T09:44:03.999Z</time></trkpt><trkpt lat="43.517889200617944" lon="10.824223344469434"><ele>163.0</ele><time>2026-04-18T09:44:07.999Z</time></trkpt><trkpt lat="43.517933367136784" lon="10.824157307531957"><ele>163.16666666666669</ele><time>2026-04-18T09:44:09.999Z</time></trkpt><trkpt lat="43.51799242301553" lon="10.824058957427262"><ele>163.33333333333334</ele><time>2026-04-18T09:44:12.999Z</time></trkpt><trkpt lat="43.518025499890896" lon="10.823979821591418"><ele>163.5</ele><time>2026-04-18T09:44:14.999Z</time></trkpt><trkpt lat="43.518065155970305" lon="10.82389115385719"><ele>163.66666666666666</ele><time>2026-04-18T09:44:17.999Z</time></trkpt><trkpt lat="43.518112267381454" lon="10.823812938345965"><ele>163.83333333333331</ele><time>2026-04-18T09:44:21.999Z</time></trkpt><trkpt lat="43.51815886582846" lon="10.82372555059119"><ele>164.0</ele><time>2026-04-18T09:44:24.999Z</time></trkpt><trkpt lat="43.51818991884502" lon="10.82361501695852"><ele>163.99999999999997</ele><time>2026-04-18T09:44:27.999Z</time></trkpt><trkpt lat="43.518214748813165" lon="10.823513029657226"><ele>164.0</ele><time>2026-04-18T09:44:31.999Z</time></trkpt><trkpt lat="43.5182425232742" lon="10.823431948572212"><ele>164.0</ele><time>2026-04-18T09:44:36.999Z</time></trkpt><trkpt lat="43.51826321692468" lon="10.823342218544958"><ele>164.0</ele><time>2026-04-18T09:44:45.999Z</time></trkpt><trkpt lat="43.51829740115424" lon="10.82326816212955"><ele>164.0</ele><time>2026-04-18T09:44:56.998Z</time></trkpt><trkpt lat="43.51833282336536" lon="10.82319134680335"><ele>163.99999999999997</ele><time>2026-04-18T09:45:04Z</time></trkpt><trkpt lat="43.518375440200224" lon="10.823115397559619"><ele>164.0</ele><time>2026-04-18T09:45:12Z</time></trkpt><trkpt lat="43.518417156097826" lon="10.823050326059809"><ele>163.57142857142856</ele><time>2026-04-18T09:45:19Z</time></trkpt><trkpt lat="43.51846217032589" lon="10.822972782194984"><ele>163.14285714285714</ele><time>2026-04-18T09:45:26Z</time></trkpt><trkpt lat="43.51850303486717" lon="10.822895221042096"><ele>162.71428571428572</ele><time>2026-04-18T09:45:35Z</time></trkpt><trkpt lat="43.51853524331888" lon="10.822805366021397"><ele>162.28571428571428</ele><time>2026-04-18T09:45:41Z</time></trkpt><trkpt lat="43.51858102522063" lon="10.822739256574545"><ele>161.85714285714286</ele><time>2026-04-18T09:45:46Z</time></trkpt><trkpt lat="43.518630733188786" lon="10.82266962476763"><ele>161.42857142857142</ele><time>2026-04-18T09:45:51.999Z</time></trkpt><trkpt lat="43.51866508163669" lon="10.822594377774738"><ele>161.0</ele><time>2026-04-18T09:45:59.999Z</time></trkpt><trkpt lat="43.51871481985887" lon="10.82250227650331"><ele>158.42857142857142</ele><time>2026-04-18T09:47:59.999Z</time></trkpt><trkpt lat="43.518745964106024" lon="10.822420326497939"><ele>155.85714285714286</ele><time>2026-04-18T09:48:14.999Z</time></trkpt><trkpt lat="43.51877780717195" lon="10.822332132003973"><ele>153.28571428571428</ele><time>2026-04-18T09:48:19.999Z</time></trkpt><trkpt lat="43.5188031152209" lon="10.822224613112317"><ele>150.71428571428572</ele><time>2026-04-18T09:48:26.999Z</time></trkpt><trkpt lat="43.51882333880769" lon="10.822122584860637"><ele>148.14285714285714</ele><time>2026-04-18T09:48:29.999Z</time></trkpt><trkpt lat="43.51886292685691" lon="10.822032025460723"><ele>145.57142857142856</ele><time>2026-04-18T09:48:32.999Z</time></trkpt><trkpt lat="43.51890200684648" lon="10.82194695945816"><ele>143.0</ele><time>2026-04-18T09:48:34.999Z</time></trkpt><trkpt lat="43.518935739036166" lon="10.82185495161592"><ele>143.16666666666666</ele><time>2026-04-18T09:48:36.999Z</time></trkpt><trkpt lat="43.51897792310227" lon="10.82176988932091"><ele>143.33333333333331</ele><time>2026-04-18T09:48:38.999Z</time></trkpt><trkpt lat="43.51902598264108" lon="10.82167610154061"><ele>143.5</ele><time>2026-04-18T09:48:40.999Z</time></trkpt><trkpt lat="43.51907369826233" lon="10.821591063086526"><ele>143.66666666666666</ele><time>2026-04-18T09:48:42.999Z</time></trkpt><trkpt lat="43.519120734156566" lon="10.821506166359727"><ele>143.83333333333334</ele><time>2026-04-18T09:48:44.999Z</time></trkpt><trkpt lat="43.519166252691775" lon="10.8214212316174"><ele>144.0</ele><time>2026-04-18T09:48:46.999Z</time></trkpt><trkpt lat="43.5192028418071" lon="10.821338324545598"><ele>144.00000000000003</ele><time>2026-04-18T09:48:48.999Z</time></trkpt><trkpt lat="43.519221741822726" lon="10.821253267768949"><ele>144.0</ele><time>2026-04-18T09:48:50.999Z</time></trkpt><trkpt lat="43.519238358223085" lon="10.821152832172427"><ele>144.0</ele><time>2026-04-18T09:48:52.999Z</time></trkpt><trkpt lat="43.51925067600571" lon="10.821037784746144"><ele>144.0</ele><time>2026-04-18T09:48:55.998Z</time></trkpt><trkpt lat="43.519254294086366" lon="10.820932138001714"><ele>144.0</ele><time>2026-04-18T09:49:00.998Z</time></trkpt><trkpt lat="43.519249470356975" lon="10.820825545010305"><ele>144.00000000000003</ele><time>2026-04-18T09:49:03.998Z</time></trkpt><trkpt lat="43.51928621935903" lon="10.820753221910927"><ele>144.0</ele><time>2026-04-18T09:49:06.998Z</time></trkpt><trkpt lat="43.51935630678469" lon="10.820718744019954"><ele>143.57142857142858</ele><time>2026-04-18T09:49:10.998Z</time></trkpt><trkpt lat="43.51941946309619" lon="10.820711453742069"><ele>143.14285714285714</ele><time>2026-04-18T09:49:14Z</time></trkpt><trkpt lat="43.51948954435524" lon="10.820688513069069"><ele>142.71428571428572</ele><time>2026-04-18T09:49:18Z</time></trkpt><trkpt lat="43.519547761964425" lon="10.820645957922292"><ele>142.28571428571428</ele><time>2026-04-18T09:49:21Z</time></trkpt><trkpt lat="43.51961573023027" lon="10.820615793607601"><ele>141.85714285714286</ele><time>2026-04-18T09:49:24Z</time></trkpt><trkpt lat="43.51968504391599" lon="10.820618100509861"><ele>141.42857142857144</ele><time>2026-04-18T09:49:28Z</time></trkpt><trkpt lat="43.5197588353432" lon="10.820595039097663"><ele>141.0</ele><time>2026-04-18T09:49:32Z</time></trkpt><trkpt lat="43.519820987407094" lon="10.820574585794839"><ele>139.83333333333334</ele><time>2026-04-18T09:49:36Z</time></trkpt><trkpt lat="43.51989097443758" lon="10.820532977010794"><ele>138.66666666666666</ele><time>2026-04-18T09:49:41Z</time></trkpt><trkpt lat="43.51994998344151" lon="10.820480453208637"><ele>137.5</ele><time>2026-04-18T09:49:46Z</time></trkpt><trkpt lat="43.52000361588438" lon="10.820420128290912"><ele>136.33333333333331</ele><time>2026-04-18T09:49:48Z</time></trkpt><trkpt lat="43.520069699252005" lon="10.820328007596732"><ele>135.16666666666666</ele><time>2026-04-18T09:49:50Z</time></trkpt><trkpt lat="43.52013686483534" lon="10.820216313361666"><ele>134.0</ele><time>2026-04-18T09:49:52Z</time></trkpt><trkpt lat="43.52019575765466" lon="10.820092316524823"><ele>133.83333333333331</ele><time>2026-04-18T09:49:54Z</time></trkpt><trkpt lat="43.52024141671408" lon="10.819995157814603"><ele>133.66666666666666</ele><time>2026-04-18T09:49:56Z</time></trkpt><trkpt lat="43.52028595441828" lon="10.819922211309796"><ele>133.5</ele><time>2026-04-18T09:50:01Z</time></trkpt><trkpt lat="43.52033282453891" lon="10.819830561561684"><ele>133.33333333333334</ele><time>2026-04-18T09:50:05Z</time></trkpt><trkpt lat="43.52038419717304" lon="10.819758901545415"><ele>133.16666666666669</ele><time>2026-04-18T09:50:09Z</time></trkpt><trkpt lat="43.52043327619159" lon="10.819687986038865"><ele>133.0</ele><time>2026-04-18T09:50:11.999Z</time></trkpt><trkpt lat="43.52047777011242" lon="10.819608697997872"><ele>133.0</ele><time>2026-04-18T09:50:14.999Z</time></trkpt><trkpt lat="43.52053598994699" lon="10.819557930486999"><ele>133.0</ele><time>2026-04-18T09:50:17.999Z</time></trkpt><trkpt lat="43.52060241542174" lon="10.81950988225523"><ele>133.0</ele><time>2026-04-18T09:50:21.999Z</time></trkpt><trkpt lat="43.52065784855962" lon="10.81943976762991"><ele>133.0</ele><time>2026-04-18T09:50:25.999Z</time></trkpt><trkpt lat="43.52069521237348" lon="10.819362013346458"><ele>133.0</ele><time>2026-04-18T09:50:30.999Z</time></trkpt><trkpt lat="43.520749256711824" lon="10.819286679578706"><ele>133.0</ele><time>2026-04-18T09:50:34.999Z</time></trkpt><trkpt lat="43.520808152499654" lon="10.819220124094882"><ele>133.0</ele><time>2026-04-18T09:50:38.999Z</time></trkpt><trkpt lat="43.52086233064585" lon="10.819160183997276"><ele>133.0</ele><time>2026-04-18T09:50:44.999Z</time></trkpt><trkpt lat="43.5209232394022" lon="10.819112964591758"><ele>133.0</ele><time>2026-04-18T09:50:55.999Z</time></trkpt><trkpt lat="43.5209828639548" lon="10.819071045328773"><ele>133.0</ele><time>2026-04-18T09:50:59.999Z</time></trkpt><trkpt lat="43.521037503775894" lon="10.81902713328761"><ele>133.0</ele><time>2026-04-18T09:51:02.999Z</time></trkpt><trkpt lat="43.521085977925416" lon="10.818960433461179"><ele>133.0</ele><time>2026-04-18T09:51:05.998Z</time></trkpt><trkpt lat="43.52113228696505" lon="10.818892686404649"><ele>133.0</ele><time>2026-04-18T09:51:08.998Z</time></trkpt><trkpt lat="43.52117448085575" lon="10.818818276343784"><ele>133.0</ele><time>2026-04-18T09:51:11.998Z</time></trkpt><trkpt lat="43.52121662651882" lon="10.818741023511127"><ele>131.83333333333334</ele><time>2026-04-18T09:51:15.998Z</time></trkpt><trkpt lat="43.5212554599798" lon="10.818672429273883"><ele>130.66666666666669</ele><time>2026-04-18T09:51:20Z</time></trkpt><trkpt lat="43.521291990463226" lon="10.818599877077366"><ele>129.5</ele><time>2026-04-18T09:51:26Z</time></trkpt><trkpt lat="43.52126551567657" lon="10.818707952643026"><ele>128.33333333333334</ele><time>2026-04-18T09:52:09.999Z</time></trkpt><trkpt lat="43.52126941223966" lon="10.818813293699648"><ele>127.16666666666667</ele><time>2026-04-18T09:52:11.999Z</time></trkpt><trkpt lat="43.52129040563295" lon="10.818970177993506"><ele>126.0</ele><time>2026-04-18T09:52:13.999Z</time></trkpt><trkpt lat="43.52128668032868" lon="10.819075945223329"><ele>126.0</ele><time>2026-04-18T09:52:14.999Z</time></trkpt><trkpt lat="43.52131249369294" lon="10.819164462022778"><ele>126.0</ele><time>2026-04-18T09:52:15.999Z</time></trkpt><trkpt lat="43.52137049959589" lon="10.81928688450262"><ele>126.0</ele><time>2026-04-18T09:52:17.999Z</time></trkpt><trkpt lat="43.52141155482303" lon="10.819417834844378"><ele>126.0</ele><time>2026-04-18T09:52:19.999Z</time></trkpt><trkpt lat="43.521437881236814" lon="10.819582012874337"><ele>126.0</ele><time>2026-04-18T09:52:21.999Z</time></trkpt><trkpt lat="43.521455290850945" lon="10.81968109945336"><ele>124.16666666666667</ele><time>2026-04-18T09:52:22.999Z</time></trkpt><trkpt lat="43.521441231404495" lon="10.819788690412265"><ele>122.33333333333334</ele><time>2026-04-18T09:52:23.999Z</time></trkpt><trkpt lat="43.52139750071586" lon="10.819885056031277"><ele>120.5</ele><time>2026-04-18T09:52:24.999Z</time></trkpt><trkpt lat="43.521364060348795" lon="10.819987630094582"><ele>118.66666666666667</ele><time>2026-04-18T09:52:25.999Z</time></trkpt><trkpt lat="43.52132563333007" lon="10.820078478344858"><ele>116.83333333333334</ele><time>2026-04-18T09:52:26.999Z</time></trkpt><trkpt lat="43.5212873739106" lon="10.820182591291388"><ele>115.0</ele><time>2026-04-18T09:52:27.999Z</time></trkpt><trkpt lat="43.52127436201993" lon="10.82030481926943"><ele>113.4</ele><time>2026-04-18T09:52:28.999Z</time></trkpt><trkpt lat="43.521270536862744" lon="10.820436347581307"><ele>111.8</ele><time>2026-04-18T09:52:29.999Z</time></trkpt><trkpt lat="43.52128358496679" lon="10.820587491470077"><ele>110.19999999999999</ele><time>2026-04-18T09:52:30.999Z</time></trkpt><trkpt lat="43.5212901805471" lon="10.820737873956501"><ele>108.6</ele><time>2026-04-18T09:52:31.999Z</time></trkpt><trkpt lat="43.52129478755615" lon="10.820894141595955"><ele>107.0</ele><time>2026-04-18T09:52:32.999Z</time></trkpt><trkpt lat="43.52130213031554" lon="10.821056172578267"><ele>106.6</ele><time>2026-04-18T09:52:33.999Z</time></trkpt><trkpt lat="43.521312487477886" lon="10.821210211775213"><ele>106.19999999999999</ele><time>2026-04-18T09:52:34.999Z</time></trkpt><trkpt lat="43.5213242777231" lon="10.821364850363956"><ele>105.8</ele><time>2026-04-18T09:52:35.999Z</time></trkpt><trkpt lat="43.52133648210121" lon="10.821510960698328"><ele>105.4</ele><time>2026-04-18T09:52:36.999Z</time></trkpt><trkpt lat="43.52134543806402" lon="10.821642330112892"><ele>105.0</ele><time>2026-04-18T09:52:37.999Z</time></trkpt><trkpt lat="43.52135185110623" lon="10.821772987215589"><ele>104.83333333333333</ele><time>2026-04-18T09:52:38.999Z</time></trkpt><trkpt lat="43.52135682935256" lon="10.821893973686548"><ele>104.66666666666666</ele><time>2026-04-18T09:52:39.999Z</time></trkpt><trkpt lat="43.52136193015746" lon="10.822017938805669"><ele>104.5</ele><time>2026-04-18T09:52:40.999Z</time></trkpt><trkpt lat="43.52136806514404" lon="10.82213529909172"><ele>104.33333333333333</ele><time>2026-04-18T09:52:41.999Z</time></trkpt><trkpt lat="43.521377853109826" lon="10.822239946420686"><ele>104.16666666666666</ele><time>2026-04-18T09:52:42.999Z</time></trkpt><trkpt lat="43.52140516666595" lon="10.822329687207148"><ele>104.0</ele><time>2026-04-18T09:52:43.999Z</time></trkpt><trkpt lat="43.52141439973438" lon="10.822416677135774"><ele>103.99999999999999</ele><time>2026-04-18T09:52:44.999Z</time></trkpt><trkpt lat="43.52142873357281" lon="10.822575061630118"><ele>104.0</ele><time>2026-04-18T09:52:46.999Z</time></trkpt><trkpt lat="43.52151214260279" lon="10.822625450394547"><ele>104.0</ele><time>2026-04-18T09:52:47.999Z</time></trkpt><trkpt lat="43.52157373595696" lon="10.822659852184188"><ele>104.0</ele><time>2026-04-18T09:52:48.999Z</time></trkpt><trkpt lat="43.521637740926685" lon="10.822682778625987"><ele>103.99999999999999</ele><time>2026-04-18T09:52:49.999Z</time></trkpt><trkpt lat="43.52169065482196" lon="10.822746604930346"><ele>104.0</ele><time>2026-04-18T09:52:50.999Z</time></trkpt><trkpt lat="43.52174009240249" lon="10.822807219042936"><ele>103.83333333333333</ele><time>2026-04-18T09:52:51.999Z</time></trkpt><trkpt lat="43.52180083334828" lon="10.822866958613703"><ele>103.66666666666666</ele><time>2026-04-18T09:52:52.999Z</time></trkpt><trkpt lat="43.52182455497761" lon="10.822966800872281"><ele>103.5</ele><time>2026-04-18T09:52:53.999Z</time></trkpt><trkpt lat="43.521852577145175" lon="10.823066323669023"><ele>103.33333333333334</ele><time>2026-04-18T09:52:54.999Z</time></trkpt><trkpt lat="43.52187783970181" lon="10.823177326005997"><ele>103.16666666666667</ele><time>2026-04-18T09:52:55.999Z</time></trkpt><trkpt lat="43.521899805331046" lon="10.823290499903974"><ele>103.0</ele><time>2026-04-18T09:52:56.999Z</time></trkpt><trkpt lat="43.52192768107073" lon="10.823404855790264"><ele>103.00000000000001</ele><time>2026-04-18T09:52:57.999Z</time></trkpt><trkpt lat="43.521956034687825" lon="10.823510884409078"><ele>103.0</ele><time>2026-04-18T09:52:58.999Z</time></trkpt><trkpt lat="43.5219796902209" lon="10.823614440778924"><ele>103.0</ele><time>2026-04-18T09:52:59.999Z</time></trkpt><trkpt lat="43.522010530842095" lon="10.823706936915665"><ele>103.0</ele><time>2026-04-18T09:53:00.999Z</time></trkpt><trkpt lat="43.522008906704976" lon="10.823806674220712"><ele>103.00000000000001</ele><time>2026-04-18T09:53:01.999Z</time></trkpt><trkpt lat="43.52199696737066" lon="10.823913829982061"><ele>103.0</ele><time>2026-04-18T09:53:02.999Z</time></trkpt><trkpt lat="43.52197368466087" lon="10.824013395702027"><ele>103.00000000000001</ele><time>2026-04-18T09:53:03.999Z</time></trkpt><trkpt lat="43.521929500478166" lon="10.824101208759037"><ele>103.0</ele><time>2026-04-18T09:53:04.998Z</time></trkpt><trkpt lat="43.521896926780116" lon="10.824191161348432"><ele>103.0</ele><time>2026-04-18T09:53:05.998Z</time></trkpt><trkpt lat="43.52187386778087" lon="10.824289366818705"><ele>103.0</ele><time>2026-04-18T09:53:06.998Z</time></trkpt><trkpt lat="43.52186140786119" lon="10.824392115073117"><ele>103.00000000000001</ele><time>2026-04-18T09:53:07.998Z</time></trkpt><trkpt lat="43.52188061374194" lon="10.82450219556482"><ele>103.0</ele><time>2026-04-18T09:53:08.998Z</time></trkpt><trkpt lat="43.5218759040328" lon="10.824614431873112"><ele>102.2</ele><time>2026-04-18T09:53:09.998Z</time></trkpt><trkpt lat="43.521891102289835" lon="10.824738007018215"><ele>101.4</ele><time>2026-04-18T09:53:10.998Z</time></trkpt><trkpt lat="43.52192226583823" lon="10.824864970794977"><ele>100.60000000000001</ele><time>2026-04-18T09:53:11.998Z</time></trkpt><trkpt lat="43.52193955511963" lon="10.824994614170926"><ele>99.80000000000001</ele><time>2026-04-18T09:53:12.998Z</time></trkpt><trkpt lat="43.52194103679213" lon="10.825132002701682"><ele>99.0</ele><time>2026-04-18T09:53:13.998Z</time></trkpt><trkpt lat="43.52195901265117" lon="10.825261193690787"><ele>98.0</ele><time>2026-04-18T09:53:14.998Z</time></trkpt><trkpt lat="43.52197610108527" lon="10.82539282072226"><ele>97.0</ele><time>2026-04-18T09:53:15.998Z</time></trkpt><trkpt lat="43.52199002840134" lon="10.825522565117605"><ele>96.0</ele><time>2026-04-18T09:53:16.998Z</time></trkpt><trkpt lat="43.52199304900299" lon="10.825651773478535"><ele>95.0</ele><time>2026-04-18T09:53:17.998Z</time></trkpt><trkpt lat="43.5219733313232" lon="10.82578090842495"><ele>94.0</ele><time>2026-04-18T09:53:18.998Z</time></trkpt><trkpt lat="43.521955399439605" lon="10.8259236319666"><ele>94.6</ele><time>2026-04-18T09:53:19.998Z</time></trkpt><trkpt lat="43.52194548127479" lon="10.826069473795704"><ele>95.2</ele><time>2026-04-18T09:53:20.998Z</time></trkpt><trkpt lat="43.5219386514995" lon="10.826210027562382"><ele>95.8</ele><time>2026-04-18T09:53:21.998Z</time></trkpt><trkpt lat="43.52193851751733" lon="10.826346461287246"><ele>96.39999999999999</ele><time>2026-04-18T09:53:23Z</time></trkpt><trkpt lat="43.52195784786898" lon="10.826477506172612"><ele>97.0</ele><time>2026-04-18T09:53:24Z</time></trkpt><trkpt lat="43.52198623315352" lon="10.826598508056673"><ele>97.00000000000001</ele><time>2026-04-18T09:53:25Z</time></trkpt><trkpt lat="43.52201108536604" lon="10.826716002639627"><ele>97.0</ele><time>2026-04-18T09:53:26Z</time></trkpt><trkpt lat="43.522034325247986" lon="10.82682928777234"><ele>97.0</ele><time>2026-04-18T09:53:27Z</time></trkpt><trkpt lat="43.52205706466678" lon="10.826940972158937"><ele>97.0</ele><time>2026-04-18T09:53:28Z</time></trkpt><trkpt lat="43.5220935782206" lon="10.827043437257014"><ele>97.00000000000001</ele><time>2026-04-18T09:53:29Z</time></trkpt><trkpt lat="43.52211520162863" lon="10.827145796600874"><ele>97.0</ele><time>2026-04-18T09:53:30Z</time></trkpt><trkpt lat="43.52213447620658" lon="10.827243557471716"><ele>97.00000000000001</ele><time>2026-04-18T09:53:31Z</time></trkpt><trkpt lat="43.52215248743711" lon="10.827334494871538"><ele>97.0</ele><time>2026-04-18T09:53:32Z</time></trkpt><trkpt lat="43.522171563103754" lon="10.8274246741884"><ele>97.0</ele><time>2026-04-18T09:53:33Z</time></trkpt><trkpt lat="43.522192195730526" lon="10.827506768311087"><ele>97.0</ele><time>2026-04-18T09:53:34Z</time></trkpt><trkpt lat="43.522208384770515" lon="10.827650270638738"><ele>97.00000000000001</ele><time>2026-04-18T09:53:36Z</time></trkpt><trkpt lat="43.52223175887797" lon="10.827779180394566"><ele>97.0</ele><time>2026-04-18T09:53:38Z</time></trkpt><trkpt lat="43.52218543448961" lon="10.827922412451915"><ele>97.0</ele><time>2026-04-18T09:53:40Z</time></trkpt><trkpt lat="43.52214417860317" lon="10.827989256447335"><ele>97.0</ele><time>2026-04-18T09:53:41Z</time></trkpt><trkpt lat="43.52209287674384" lon="10.82804288281386"><ele>97.0</ele><time>2026-04-18T09:53:42Z</time></trkpt><trkpt lat="43.522029879061" lon="10.828084363437224"><ele>97.0</ele><time>2026-04-18T09:53:43Z</time></trkpt><trkpt lat="43.52196142940574" lon="10.828109528925987"><ele>97.0</ele><time>2026-04-18T09:53:44Z</time></trkpt><trkpt lat="43.52189202403102" lon="10.828117051603714"><ele>97.0</ele><time>2026-04-18T09:53:45Z</time></trkpt><trkpt lat="43.52182322720565" lon="10.828121534517209"><ele>97.0</ele><time>2026-04-18T09:53:46Z</time></trkpt><trkpt lat="43.52176015914974" lon="10.828130385555522"><ele>99.16666666666667</ele><time>2026-04-18T09:53:47Z</time></trkpt><trkpt lat="43.521630031170204" lon="10.828146726091088"><ele>101.33333333333334</ele><time>2026-04-18T09:53:49Z</time></trkpt><trkpt lat="43.521558703538616" lon="10.828155297068909"><ele>103.5</ele><time>2026-04-18T09:53:50Z</time></trkpt><trkpt lat="43.52149250872601" lon="10.82816168731288"><ele>105.66666666666666</ele><time>2026-04-18T09:53:51Z</time></trkpt><trkpt lat="43.521424720639594" lon="10.828167977927029"><ele>107.83333333333333</ele><time>2026-04-18T09:53:52Z</time></trkpt><trkpt lat="43.52136003545004" lon="10.828175935464774"><ele>110.0</ele><time>2026-04-18T09:53:53Z</time></trkpt><trkpt lat="43.5212963030531" lon="10.828178601949155"><ele>112.16666666666666</ele><time>2026-04-18T09:53:54Z</time></trkpt><trkpt lat="43.521232068517065" lon="10.828183425645761"><ele>114.33333333333333</ele><time>2026-04-18T09:53:55Z</time></trkpt><trkpt lat="43.5211067746357" lon="10.828189454164542"><ele>116.5</ele><time>2026-04-18T09:53:57Z</time></trkpt><trkpt lat="43.52103763254222" lon="10.828193585412201"><ele>118.66666666666666</ele><time>2026-04-18T09:53:58Z</time></trkpt><trkpt lat="43.520970151743434" lon="10.828197923867963"><ele>120.83333333333333</ele><time>2026-04-18T09:53:59Z</time></trkpt><trkpt lat="43.52090116441259" lon="10.828215151991124"><ele>123.0</ele><time>2026-04-18T09:54:00Z</time></trkpt><trkpt lat="43.52083615235825" lon="10.828244718853117"><ele>123.0</ele><time>2026-04-18T09:54:01Z</time></trkpt><trkpt lat="43.520771022130106" lon="10.82828818620776"><ele>123.0</ele><time>2026-04-18T09:54:02Z</time></trkpt><trkpt lat="43.520704586662376" lon="10.82834393175575"><ele>123.0</ele><time>2026-04-18T09:54:03Z</time></trkpt><trkpt lat="43.52063827619353" lon="10.828396562714875"><ele>123.0</ele><time>2026-04-18T09:54:04Z</time></trkpt><trkpt lat="43.520577855841005" lon="10.828445037491381"><ele>123.0</ele><time>2026-04-18T09:54:05Z</time></trkpt><trkpt lat="43.520490965493316" lon="10.8285168163414"><ele>123.0</ele><time>2026-04-18T09:54:07Z</time></trkpt><trkpt lat="43.52039333412677" lon="10.828586082922705"><ele>124.60000000000001</ele><time>2026-04-18T09:54:09.999Z</time></trkpt><trkpt lat="43.520306140022946" lon="10.828648578898749"><ele>126.20000000000002</ele><time>2026-04-18T09:54:11.999Z</time></trkpt><trkpt lat="43.52021239790489" lon="10.828713827073951"><ele>127.8</ele><time>2026-04-18T09:54:13.999Z</time></trkpt><trkpt lat="43.520120172471664" lon="10.828769152547292"><ele>129.4</ele><time>2026-04-18T09:54:15.999Z</time></trkpt><trkpt lat="43.5200274424067" lon="10.828820775299636"><ele>131.0</ele><time>2026-04-18T09:54:17.999Z</time></trkpt><trkpt lat="43.51991976127607" lon="10.82884975749418"><ele>131.0</ele><time>2026-04-18T09:54:19.999Z</time></trkpt><trkpt lat="43.51980651625331" lon="10.8288915112619"><ele>131.0</ele><time>2026-04-18T09:54:21.999Z</time></trkpt><trkpt lat="43.519742710158184" lon="10.828913184215798"><ele>131.0</ele><time>2026-04-18T09:54:22.999Z</time></trkpt><trkpt lat="43.519672666561696" lon="10.828936532122025"><ele>131.0</ele><time>2026-04-18T09:54:23.999Z</time></trkpt><trkpt lat="43.51959784721741" lon="10.828961471869112"><ele>131.0</ele><time>2026-04-18T09:54:24.999Z</time></trkpt><trkpt lat="43.519521448084845" lon="10.82898693096654"><ele>131.0</ele><time>2026-04-18T09:54:25.999Z</time></trkpt><trkpt lat="43.51944347219227" lon="10.829013702817436"><ele>131.66666666666666</ele><time>2026-04-18T09:54:26.999Z</time></trkpt><trkpt lat="43.519364100645845" lon="10.829040953849233"><ele>132.33333333333331</ele><time>2026-04-18T09:54:27.999Z</time></trkpt><trkpt lat="43.51928313263709" lon="10.829069319837863"><ele>133.0</ele><time>2026-04-18T09:54:28.999Z</time></trkpt><trkpt lat="43.51920064330054" lon="10.829099010927628"><ele>133.66666666666666</ele><time>2026-04-18T09:54:29.999Z</time></trkpt><trkpt lat="43.51912293474704" lon="10.82915485477645"><ele>134.33333333333334</ele><time>2026-04-18T09:54:30.999Z</time></trkpt><trkpt lat="43.51903703159933" lon="10.829188982469796"><ele>135.0</ele><time>2026-04-18T09:54:31.999Z</time></trkpt><trkpt lat="43.518951179455044" lon="10.829230789931179"><ele>135.0</ele><time>2026-04-18T09:54:32.999Z</time></trkpt><trkpt lat="43.518873917083404" lon="10.829265899365941"><ele>135.0</ele><time>2026-04-18T09:54:33.999Z</time></trkpt><trkpt lat="43.51880493249935" lon="10.829298602513871"><ele>135.0</ele><time>2026-04-18T09:54:34.999Z</time></trkpt><trkpt lat="43.518731817919594" lon="10.829309777812858"><ele>135.0</ele><time>2026-04-18T09:54:35.999Z</time></trkpt><trkpt lat="43.518660921433806" lon="10.829340209336037"><ele>135.0</ele><time>2026-04-18T09:54:36.999Z</time></trkpt><trkpt lat="43.51858798311353" lon="10.829370247761275"><ele>135.0</ele><time>2026-04-18T09:54:37.999Z</time></trkpt><trkpt lat="43.518516783552336" lon="10.829399619084445"><ele>136.14285714285714</ele><time>2026-04-18T09:54:38.999Z</time></trkpt><trkpt lat="43.51844835229639" lon="10.8294271626834"><ele>137.28571428571428</ele><time>2026-04-18T09:54:39.999Z</time></trkpt><trkpt lat="43.51838217970827" lon="10.82945322903907"><ele>138.42857142857142</ele><time>2026-04-18T09:54:40.999Z</time></trkpt><trkpt lat="43.51831165131291" lon="10.829481011225532"><ele>139.57142857142856</ele><time>2026-04-18T09:54:41.999Z</time></trkpt><trkpt lat="43.51824051382743" lon="10.829509033412581"><ele>140.71428571428572</ele><time>2026-04-18T09:54:42.999Z</time></trkpt><trkpt lat="43.51816972178475" lon="10.82953691958913"><ele>141.85714285714283</ele><time>2026-04-18T09:54:43.999Z</time></trkpt><trkpt lat="43.51810080445807" lon="10.829564067238797"><ele>143.0</ele><time>2026-04-18T09:54:44.999Z</time></trkpt><trkpt lat="43.51803359705123" lon="10.829588685418924"><ele>143.0</ele><time>2026-04-18T09:54:45.999Z</time></trkpt><trkpt lat="43.51797048880284" lon="10.82961082896057"><ele>143.0</ele><time>2026-04-18T09:54:46.999Z</time></trkpt><trkpt lat="43.51790492315737" lon="10.829633304213742"><ele>143.0</ele><time>2026-04-18T09:54:47.999Z</time></trkpt><trkpt lat="43.517840330496554" lon="10.829655445934705"><ele>143.0</ele><time>2026-04-18T09:54:48.999Z</time></trkpt><trkpt lat="43.517719603212825" lon="10.82969906013781"><ele>143.0</ele><time>2026-04-18T09:54:50.999Z</time></trkpt><trkpt lat="43.51759779235395" lon="10.829744185302431"><ele>146.4</ele><time>2026-04-18T09:54:52.999Z</time></trkpt><trkpt lat="43.51753661261013" lon="10.829768832218775"><ele>149.8</ele><time>2026-04-18T09:54:53.999Z</time></trkpt><trkpt lat="43.517436933334615" lon="10.82983084371013"><ele>153.2</ele><time>2026-04-18T09:54:55.999Z</time></trkpt><trkpt lat="43.51736019090875" lon="10.82991638035466"><ele>156.6</ele><time>2026-04-18T09:54:57.999Z</time></trkpt><trkpt lat="43.517300482186734" lon="10.830019580196344"><ele>160.0</ele><time>2026-04-18T09:54:59.999Z</time></trkpt><trkpt lat="43.517254581530466" lon="10.830135749979952"><ele>159.66666666666669</ele><time>2026-04-18T09:55:01.999Z</time></trkpt><trkpt lat="43.517221263408054" lon="10.83022901845987"><ele>159.33333333333334</ele><time>2026-04-18T09:55:03.999Z</time></trkpt><trkpt lat="43.51718031538858" lon="10.830321874784314"><ele>159.0</ele><time>2026-04-18T09:55:06.998Z</time></trkpt><trkpt lat="43.51713419529881" lon="10.830426182917167"><ele>158.66666666666666</ele><time>2026-04-18T09:55:09.998Z</time></trkpt><trkpt lat="43.51709442445159" lon="10.830509055667035"><ele>158.33333333333331</ele><time>2026-04-18T09:55:11.998Z</time></trkpt><trkpt lat="43.51704733825292" lon="10.83059710547196"><ele>158.0</ele><time>2026-04-18T09:55:13.998Z</time></trkpt><trkpt lat="43.51698926526444" lon="10.830700647849733"><ele>161.8</ele><time>2026-04-18T09:55:15.998Z</time></trkpt><trkpt lat="43.516926755729564" lon="10.830823526812809"><ele>165.60000000000002</ele><time>2026-04-18T09:55:17.998Z</time></trkpt><trkpt lat="43.51686721910385" lon="10.830950702891398"><ele>169.39999999999998</ele><time>2026-04-18T09:55:19.998Z</time></trkpt><trkpt lat="43.51680821874702" lon="10.831076047835193"><ele>173.2</ele><time>2026-04-18T09:55:21.998Z</time></trkpt><trkpt lat="43.51677272445547" lon="10.831151427044952"><ele>177.0</ele><time>2026-04-18T09:55:22.998Z</time></trkpt><trkpt lat="43.51673641169506" lon="10.831225695227177"><ele>177.0</ele><time>2026-04-18T09:55:23.998Z</time></trkpt><trkpt lat="43.516694086166" lon="10.831307649294049"><ele>177.0</ele><time>2026-04-18T09:55:24.998Z</time></trkpt><trkpt lat="43.51665308761785" lon="10.83138559870672"><ele>177.0</ele><time>2026-04-18T09:55:25.998Z</time></trkpt><trkpt lat="43.51661135537754" lon="10.831463670437346"><ele>177.0</ele><time>2026-04-18T09:55:26.998Z</time></trkpt><trkpt lat="43.516567316370946" lon="10.831540704586208"><ele>177.0</ele><time>2026-04-18T09:55:27.998Z</time></trkpt><trkpt lat="43.51652407752416" lon="10.83161578521657"><ele>177.0</ele><time>2026-04-18T09:55:29Z</time></trkpt><trkpt lat="43.51648060908121" lon="10.83169835709744"><ele>177.0</ele><time>2026-04-18T09:55:30Z</time></trkpt><trkpt lat="43.516410706861585" lon="10.831807622519147"><ele>176.0</ele><time>2026-04-18T09:55:32Z</time></trkpt><trkpt lat="43.51632530306564" lon="10.831862276653364"><ele>175.0</ele><time>2026-04-18T09:55:34Z</time></trkpt><trkpt lat="43.5162047552086" lon="10.83188649223825"><ele>174.0</ele><time>2026-04-18T09:55:36Z</time></trkpt><trkpt lat="43.516085689325855" lon="10.831898816594807"><ele>173.0</ele><time>2026-04-18T09:55:38Z</time></trkpt><trkpt lat="43.515978777471055" lon="10.831815926659104"><ele>175.14285714285714</ele><time>2026-04-18T09:55:40Z</time></trkpt><trkpt lat="43.5159222989757" lon="10.831764799259089"><ele>177.2857142857143</ele><time>2026-04-18T09:55:41Z</time></trkpt><trkpt lat="43.51586874039779" lon="10.831708044353173"><ele>179.42857142857144</ele><time>2026-04-18T09:55:42Z</time></trkpt><trkpt lat="43.51581891254334" lon="10.831643801712168"><ele>181.57142857142856</ele><time>2026-04-18T09:55:43Z</time></trkpt><trkpt lat="43.51576947562752" lon="10.831578021991685"><ele>183.71428571428572</ele><time>2026-04-18T09:55:44Z</time></trkpt><trkpt lat="43.51571960824313" lon="10.831514046535528"><ele>185.85714285714286</ele><time>2026-04-18T09:55:45Z</time></trkpt><trkpt lat="43.51566680278793" lon="10.831452049241616"><ele>188.0</ele><time>2026-04-18T09:55:46Z</time></trkpt><trkpt lat="43.515562932194875" lon="10.83135031376649"><ele>188.0</ele><time>2026-04-18T09:55:48Z</time></trkpt><trkpt lat="43.51550109341409" lon="10.831299977432781"><ele>188.0</ele><time>2026-04-18T09:55:49Z</time></trkpt><trkpt lat="43.51543695672729" lon="10.831255364476151"><ele>188.0</ele><time>2026-04-18T09:55:50Z</time></trkpt><trkpt lat="43.51536116517873" lon="10.831233529475044"><ele>188.0</ele><time>2026-04-18T09:55:51Z</time></trkpt><trkpt lat="43.51529546862431" lon="10.831184405867539"><ele>188.0</ele><time>2026-04-18T09:55:52Z</time></trkpt><trkpt lat="43.51523409123325" lon="10.83114364263939"><ele>188.0</ele><time>2026-04-18T09:55:53Z</time></trkpt><trkpt lat="43.51517364170091" lon="10.831104700222204"><ele>188.0</ele><time>2026-04-18T09:55:54Z</time></trkpt><trkpt lat="43.51506635064452" lon="10.831038197432564"><ele>187.5</ele><time>2026-04-18T09:55:56Z</time></trkpt><trkpt lat="43.51495488872013" lon="10.83099147656801"><ele>187.0</ele><time>2026-04-18T09:55:58Z</time></trkpt><trkpt lat="43.5148899883843" lon="10.83097702022198"><ele>186.5</ele><time>2026-04-18T09:55:59Z</time></trkpt><trkpt lat="43.514819475412175" lon="10.830962266824194"><ele>186.0</ele><time>2026-04-18T09:56:00Z</time></trkpt><trkpt lat="43.51475419893025" lon="10.830950647506711"><ele>185.5</ele><time>2026-04-18T09:56:01Z</time></trkpt><trkpt lat="43.514649106495725" lon="10.83094402927287"><ele>185.0</ele><time>2026-04-18T09:56:02.999Z</time></trkpt><trkpt lat="43.51452460727994" lon="10.830959260509205"><ele>185.66666666666666</ele><time>2026-04-18T09:56:04.999Z</time></trkpt><trkpt lat="43.514451761148045" lon="10.830970379876486"><ele>186.33333333333331</ele><time>2026-04-18T09:56:05.999Z</time></trkpt><trkpt lat="43.51437829334515" lon="10.830979197358468"><ele>187.0</ele><time>2026-04-18T09:56:06.999Z</time></trkpt><trkpt lat="43.514303964464034" lon="10.830993162274847"><ele>187.66666666666666</ele><time>2026-04-18T09:56:07.999Z</time></trkpt><trkpt lat="43.51422647938999" lon="10.831009985884078"><ele>188.33333333333334</ele><time>2026-04-18T09:56:08.999Z</time></trkpt><trkpt lat="43.51414524261702" lon="10.8309993398783"><ele>189.0</ele><time>2026-04-18T09:56:09.999Z</time></trkpt><trkpt lat="43.51407194322815" lon="10.831005734136527"><ele>189.0</ele><time>2026-04-18T09:56:10.999Z</time></trkpt><trkpt lat="43.51399485125004" lon="10.83101121482217"><ele>189.0</ele><time>2026-04-18T09:56:11.999Z</time></trkpt><trkpt lat="43.51392097394436" lon="10.831016141381266"><ele>189.0</ele><time>2026-04-18T09:56:12.999Z</time></trkpt><trkpt lat="43.513848989700946" lon="10.831015529949928"><ele>189.0</ele><time>2026-04-18T09:56:13.999Z</time></trkpt><trkpt lat="43.513769145799365" lon="10.831016146068663"><ele>189.0</ele><time>2026-04-18T09:56:14.999Z</time></trkpt><trkpt lat="43.513688681332134" lon="10.83104549666563"><ele>189.0</ele><time>2026-04-18T09:56:15.999Z</time></trkpt><trkpt lat="43.51362362680175" lon="10.831120494535764"><ele>191.5</ele><time>2026-04-18T09:56:16.999Z</time></trkpt><trkpt lat="43.51355520384938" lon="10.831163949051831"><ele>194.0</ele><time>2026-04-18T09:56:17.999Z</time></trkpt><trkpt lat="43.51348532495396" lon="10.831178298884241"><ele>196.5</ele><time>2026-04-18T09:56:18.999Z</time></trkpt><trkpt lat="43.51342902204255" lon="10.831223797514797"><ele>199.0</ele><time>2026-04-18T09:56:19.999Z</time></trkpt><trkpt lat="43.513311738725946" lon="10.831223178765198"><ele>201.5</ele><time>2026-04-18T09:56:21.999Z</time></trkpt><trkpt lat="43.513244985514156" lon="10.831263787415372"><ele>204.0</ele><time>2026-04-18T09:56:22.999Z</time></trkpt><trkpt lat="43.51318645568913" lon="10.831327448014719"><ele>204.0</ele><time>2026-04-18T09:56:23.999Z</time></trkpt><trkpt lat="43.51312663607127" lon="10.83139629050924"><ele>204.0</ele><time>2026-04-18T09:56:24.999Z</time></trkpt><trkpt lat="43.513082058666036" lon="10.831492646082015"><ele>204.0</ele><time>2026-04-18T09:56:25.999Z</time></trkpt><trkpt lat="43.51303024588114" lon="10.8315716094175"><ele>204.0</ele><time>2026-04-18T09:56:26.999Z</time></trkpt><trkpt lat="43.512978496797835" lon="10.831651158475855"><ele>204.0</ele><time>2026-04-18T09:56:27.999Z</time></trkpt><trkpt lat="43.51292679183166" lon="10.831733287449477"><ele>204.0</ele><time>2026-04-18T09:56:28.999Z</time></trkpt><trkpt lat="43.512872489657184" lon="10.83180938755369"><ele>205.33333333333334</ele><time>2026-04-18T09:56:29.999Z</time></trkpt><trkpt lat="43.512810547095434" lon="10.831882469039684"><ele>206.66666666666669</ele><time>2026-04-18T09:56:30.999Z</time></trkpt><trkpt lat="43.51273219713961" lon="10.831925847041228"><ele>208.0</ele><time>2026-04-18T09:56:31.999Z</time></trkpt><trkpt lat="43.512657930453265" lon="10.831976608292026"><ele>209.33333333333334</ele><time>2026-04-18T09:56:32.999Z</time></trkpt><trkpt lat="43.5125946887523" lon="10.832036294256449"><ele>210.66666666666669</ele><time>2026-04-18T09:56:33.999Z</time></trkpt><trkpt lat="43.512527432771265" lon="10.832074697924936"><ele>212.0</ele><time>2026-04-18T09:56:34.999Z</time></trkpt><trkpt lat="43.51245961866377" lon="10.832089616357525"><ele>212.00000000000003</ele><time>2026-04-18T09:56:35.999Z</time></trkpt><trkpt lat="43.512399651928895" lon="10.832120528576615"><ele>212.0</ele><time>2026-04-18T09:56:36.999Z</time></trkpt><trkpt lat="43.51228941572743" lon="10.832181689612238"><ele>212.0</ele><time>2026-04-18T09:56:38.999Z</time></trkpt><trkpt lat="43.51223383049014" lon="10.83222321278648"><ele>212.0</ele><time>2026-04-18T09:56:39.999Z</time></trkpt><trkpt lat="43.5121951264983" lon="10.832299433246758"><ele>212.00000000000003</ele><time>2026-04-18T09:56:40.999Z</time></trkpt><trkpt lat="43.5121070688913" lon="10.83242820742785"><ele>212.0</ele><time>2026-04-18T09:56:42.999Z</time></trkpt><trkpt lat="43.51205987831647" lon="10.83251298880648"><ele>210.2</ele><time>2026-04-18T09:56:43.999Z</time></trkpt><trkpt lat="43.5120153452382" lon="10.832611727115497"><ele>208.39999999999998</ele><time>2026-04-18T09:56:44.999Z</time></trkpt><trkpt lat="43.511975758204095" lon="10.832724133621808"><ele>206.60000000000002</ele><time>2026-04-18T09:56:45.999Z</time></trkpt><trkpt lat="43.511932926118156" lon="10.832848021587965"><ele>204.8</ele><time>2026-04-18T09:56:46.999Z</time></trkpt><trkpt lat="43.51188455225542" lon="10.832972249613361"><ele>203.0</ele><time>2026-04-18T09:56:47.999Z</time></trkpt><trkpt lat="43.51183067811647" lon="10.833096111224114"><ele>202.33333333333334</ele><time>2026-04-18T09:56:48.999Z</time></trkpt><trkpt lat="43.51177221581144" lon="10.833212522864681"><ele>201.66666666666669</ele><time>2026-04-18T09:56:49.999Z</time></trkpt><trkpt lat="43.51171792220993" lon="10.833306990065225"><ele>201.0</ele><time>2026-04-18T09:56:50.999Z</time></trkpt><trkpt lat="43.51165452984081" lon="10.833365698486583"><ele>200.33333333333331</ele><time>2026-04-18T09:56:51.999Z</time></trkpt><trkpt lat="43.5115968510992" lon="10.833427732079446"><ele>199.66666666666666</ele><time>2026-04-18T09:56:52.999Z</time></trkpt><trkpt lat="43.51153934582134" lon="10.833483126736782"><ele>199.0</ele><time>2026-04-18T09:56:53.999Z</time></trkpt><trkpt lat="43.51147848165958" lon="10.833552911156838"><ele>199.33333333333331</ele><time>2026-04-18T09:56:54.999Z</time></trkpt><trkpt lat="43.511407989049765" lon="10.833614910417348"><ele>199.66666666666666</ele><time>2026-04-18T09:56:55.999Z</time></trkpt><trkpt lat="43.5113370613943" lon="10.833671150173085"><ele>200.0</ele><time>2026-04-18T09:56:56.999Z</time></trkpt><trkpt lat="43.51126600051791" lon="10.833732905245851"><ele>200.33333333333331</ele><time>2026-04-18T09:56:57.999Z</time></trkpt><trkpt lat="43.5111907875182" lon="10.83376627333864"><ele>200.66666666666666</ele><time>2026-04-18T09:56:58.998Z</time></trkpt><trkpt lat="43.51113926979936" lon="10.83383464149129"><ele>201.0</ele><time>2026-04-18T09:56:59.998Z</time></trkpt><trkpt lat="43.51105788619679" lon="10.83393195867699"><ele>201.0</ele><time>2026-04-18T09:57:01.998Z</time></trkpt><trkpt lat="43.511021449263936" lon="10.834071674181308"><ele>201.0</ele><time>2026-04-18T09:57:03.998Z</time></trkpt><trkpt lat="43.51105590763275" lon="10.83414913551165"><ele>201.0</ele><time>2026-04-18T09:57:04.998Z</time></trkpt><trkpt lat="43.51108685353316" lon="10.834314753722527"><ele>201.0</ele><time>2026-04-18T09:57:06.998Z</time></trkpt><trkpt lat="43.51109808269896" lon="10.83440213821368"><ele>201.0</ele><time>2026-04-18T09:57:07.998Z</time></trkpt><trkpt lat="43.511105338452246" lon="10.834581513525343"><ele>200.7142857142857</ele><time>2026-04-18T09:57:09.998Z</time></trkpt><trkpt lat="43.51109796809318" lon="10.83467463078632"><ele>200.42857142857144</ele><time>2026-04-18T09:57:10.998Z</time></trkpt><trkpt lat="43.51108205519281" lon="10.834770276191934"><ele>200.14285714285714</ele><time>2026-04-18T09:57:11.998Z</time></trkpt><trkpt lat="43.51104547635981" lon="10.834854477434604"><ele>199.85714285714283</ele><time>2026-04-18T09:57:12.998Z</time></trkpt><trkpt lat="43.51103617077326" lon="10.834951052522907"><ele>199.57142857142856</ele><time>2026-04-18T09:57:13.998Z</time></trkpt><trkpt lat="43.510991217051505" lon="10.8350237542226"><ele>199.28571428571428</ele><time>2026-04-18T09:57:14.998Z</time></trkpt><trkpt lat="43.51095546196176" lon="10.83511160481195"><ele>199.0</ele><time>2026-04-18T09:57:15.998Z</time></trkpt><trkpt lat="43.51092507136732" lon="10.835202627465852"><ele>197.66666666666666</ele><time>2026-04-18T09:57:16.998Z</time></trkpt><trkpt lat="43.51090045342925" lon="10.835306812256798"><ele>196.33333333333331</ele><time>2026-04-18T09:57:17.998Z</time></trkpt><trkpt lat="43.5108802862011" lon="10.835410158659224"><ele>195.0</ele><time>2026-04-18T09:57:18.998Z</time></trkpt><trkpt lat="43.51085980602054" lon="10.835519011313524"><ele>193.66666666666666</ele><time>2026-04-18T09:57:19.998Z</time></trkpt><trkpt lat="43.51084020997212" lon="10.835631507090346"><ele>192.33333333333331</ele><time>2026-04-18T09:57:20.998Z</time></trkpt><trkpt lat="43.51081982589753" lon="10.8357507901147"><ele>191.0</ele><time>2026-04-18T09:57:21.998Z</time></trkpt><trkpt lat="43.51080805063527" lon="10.835883004934303"><ele>190.4</ele><time>2026-04-18T09:57:22.998Z</time></trkpt><trkpt lat="43.51081149475207" lon="10.836010971296764"><ele>189.8</ele><time>2026-04-18T09:57:23.998Z</time></trkpt><trkpt lat="43.51081572554193" lon="10.836134059140266"><ele>189.20000000000002</ele><time>2026-04-18T09:57:24.998Z</time></trkpt><trkpt lat="43.51081819998181" lon="10.836259176911941"><ele>188.60000000000002</ele><time>2026-04-18T09:57:25.998Z</time></trkpt><trkpt lat="43.510820640336554" lon="10.836382571316266"><ele>188.0</ele><time>2026-04-18T09:57:26.998Z</time></trkpt><trkpt lat="43.51082251983419" lon="10.83650540927029"><ele>188.0</ele><time>2026-04-18T09:57:27.998Z</time></trkpt><trkpt lat="43.51082248229735" lon="10.836628913372591"><ele>188.0</ele><time>2026-04-18T09:57:28.998Z</time></trkpt><trkpt lat="43.510821331956095" lon="10.836761916732243"><ele>188.0</ele><time>2026-04-18T09:57:29.998Z</time></trkpt><trkpt lat="43.51082020185373" lon="10.836892580207575"><ele>188.0</ele><time>2026-04-18T09:57:30.998Z</time></trkpt><trkpt lat="43.510817330038805" lon="10.83701864503333"><ele>188.0</ele><time>2026-04-18T09:57:31.998Z</time></trkpt><trkpt lat="43.510813138514806" lon="10.837133472314692"><ele>188.33333333333331</ele><time>2026-04-18T09:57:32.998Z</time></trkpt><trkpt lat="43.51081460763014" lon="10.837241648256876"><ele>188.66666666666666</ele><time>2026-04-18T09:57:33.998Z</time></trkpt><trkpt lat="43.51079064522796" lon="10.83733635144501"><ele>189.0</ele><time>2026-04-18T09:57:34.999Z</time></trkpt><trkpt lat="43.51076254136826" lon="10.837437722691337"><ele>189.33333333333334</ele><time>2026-04-18T09:57:35.999Z</time></trkpt><trkpt lat="43.51071616901937" lon="10.837538651831682"><ele>189.66666666666669</ele><time>2026-04-18T09:57:36.999Z</time></trkpt><trkpt lat="43.510703948766675" lon="10.837648708632418"><ele>190.0</ele><time>2026-04-18T09:57:37.999Z</time></trkpt><trkpt lat="43.51068075873666" lon="10.837755330909166"><ele>190.16666666666669</ele><time>2026-04-18T09:57:38.999Z</time></trkpt><trkpt lat="43.51066304818132" lon="10.837865949726128"><ele>190.33333333333334</ele><time>2026-04-18T09:57:39.999Z</time></trkpt><trkpt lat="43.51065347753684" lon="10.837979040784482"><ele>190.5</ele><time>2026-04-18T09:57:40.999Z</time></trkpt><trkpt lat="43.51065745249957" lon="10.838094339998653"><ele>190.66666666666666</ele><time>2026-04-18T09:57:41.999Z</time></trkpt><trkpt lat="43.51066753326631" lon="10.838206684963955"><ele>190.83333333333331</ele><time>2026-04-18T09:57:42.999Z</time></trkpt><trkpt lat="43.51068640574121" lon="10.838319454954398"><ele>191.0</ele><time>2026-04-18T09:57:43.999Z</time></trkpt><trkpt lat="43.51070979492843" lon="10.838427348633044"><ele>190.42857142857144</ele><time>2026-04-18T09:57:44.999Z</time></trkpt><trkpt lat="43.51073829137611" lon="10.838528724512805"><ele>189.85714285714283</ele><time>2026-04-18T09:57:45.999Z</time></trkpt><trkpt lat="43.5107473361797" lon="10.83863272594974"><ele>189.28571428571428</ele><time>2026-04-18T09:57:46.999Z</time></trkpt><trkpt lat="43.510783145132365" lon="10.838715455864689"><ele>188.71428571428572</ele><time>2026-04-18T09:57:47.999Z</time></trkpt><trkpt lat="43.510794238846294" lon="10.838810470264935"><ele>188.14285714285717</ele><time>2026-04-18T09:57:48.999Z</time></trkpt><trkpt lat="43.51079149687175" lon="10.838909706809734"><ele>187.57142857142856</ele><time>2026-04-18T09:57:49.999Z</time></trkpt><trkpt lat="43.51077846603568" lon="10.8390123037205"><ele>187.0</ele><time>2026-04-18T09:57:50.999Z</time></trkpt><trkpt lat="43.51076138694376" lon="10.839110347639515"><ele>187.0</ele><time>2026-04-18T09:57:51.999Z</time></trkpt><trkpt lat="43.510740756861814" lon="10.839202034516584"><ele>187.0</ele><time>2026-04-18T09:57:52.999Z</time></trkpt><trkpt lat="43.510695644886226" lon="10.839281489046847"><ele>187.0</ele><time>2026-04-18T09:57:53.999Z</time></trkpt><trkpt lat="43.5106837200317" lon="10.8393768046677"><ele>187.0</ele><time>2026-04-18T09:57:54.999Z</time></trkpt><trkpt lat="43.510642426257576" lon="10.839458153762752"><ele>187.0</ele><time>2026-04-18T09:57:55.999Z</time></trkpt><trkpt lat="43.510626477659876" lon="10.839550595385397"><ele>187.0</ele><time>2026-04-18T09:57:56.999Z</time></trkpt><trkpt lat="43.510644681135155" lon="10.839646857400862"><ele>187.0</ele><time>2026-04-18T09:57:57.999Z</time></trkpt><trkpt lat="43.51062217419665" lon="10.839736616943219"><ele>186.5</ele><time>2026-04-18T09:57:58.999Z</time></trkpt><trkpt lat="43.51062502275554" lon="10.839924734529095"><ele>186.0</ele><time>2026-04-18T09:58:00.999Z</time></trkpt><trkpt lat="43.51064221071685" lon="10.84001287780341"><ele>185.5</ele><time>2026-04-18T09:58:01.999Z</time></trkpt><trkpt lat="43.51065711427151" lon="10.840108536009428"><ele>185.0</ele><time>2026-04-18T09:58:02.999Z</time></trkpt><trkpt lat="43.51067138881034" lon="10.840209384042607"><ele>184.5</ele><time>2026-04-18T09:58:03.999Z</time></trkpt><trkpt lat="43.510688105816115" lon="10.840316139451456"><ele>184.0</ele><time>2026-04-18T09:58:04.999Z</time></trkpt><trkpt lat="43.51070684619735" lon="10.840424046436139"><ele>183.79999999999998</ele><time>2026-04-18T09:58:05.999Z</time></trkpt><trkpt lat="43.510733682343606" lon="10.840532432410656"><ele>183.6</ele><time>2026-04-18T09:58:06.999Z</time></trkpt><trkpt lat="43.51075336984641" lon="10.840652005158338"><ele>183.4</ele><time>2026-04-18T09:58:07.999Z</time></trkpt><trkpt lat="43.510767829039715" lon="10.840777728163744"><ele>183.2</ele><time>2026-04-18T09:58:08.999Z</time></trkpt><trkpt lat="43.510780289053855" lon="10.840910011992628"><ele>183.0</ele><time>2026-04-18T09:58:09.999Z</time></trkpt><trkpt lat="43.510791498170924" lon="10.841046930843577"><ele>183.0</ele><time>2026-04-18T09:58:10.999Z</time></trkpt><trkpt lat="43.510802873313146" lon="10.841183727527438"><ele>183.0</ele><time>2026-04-18T09:58:11.999Z</time></trkpt><trkpt lat="43.51081347521178" lon="10.841322166623332"><ele>183.0</ele><time>2026-04-18T09:58:12.999Z</time></trkpt><trkpt lat="43.510824592952375" lon="10.841458310439242"><ele>183.0</ele><time>2026-04-18T09:58:13.999Z</time></trkpt><trkpt lat="43.510836323319296" lon="10.84158946223323"><ele>183.0</ele><time>2026-04-18T09:58:14.999Z</time></trkpt><trkpt lat="43.51085043931549" lon="10.841716689157376"><ele>183.4</ele><time>2026-04-18T09:58:15.999Z</time></trkpt><trkpt lat="43.510873847965826" lon="10.841841674786137"><ele>183.8</ele><time>2026-04-18T09:58:16.999Z</time></trkpt><trkpt lat="43.51090707198378" lon="10.841959586428308"><ele>184.2</ele><time>2026-04-18T09:58:17.999Z</time></trkpt><trkpt lat="43.51095147663933" lon="10.842067777094144"><ele>184.6</ele><time>2026-04-18T09:58:18.999Z</time></trkpt><trkpt lat="43.51099440481607" lon="10.842176360813147"><ele>185.0</ele><time>2026-04-18T09:58:19.999Z</time></trkpt><trkpt lat="43.51103327807703" lon="10.842289484721842"><ele>185.0</ele><time>2026-04-18T09:58:20.999Z</time></trkpt><trkpt lat="43.511063265757606" lon="10.842410798257893"><ele>185.0</ele><time>2026-04-18T09:58:21.999Z</time></trkpt><trkpt lat="43.511083468195295" lon="10.842535484869254"><ele>185.0</ele><time>2026-04-18T09:58:22.999Z</time></trkpt><trkpt lat="43.511093958383626" lon="10.8426625593395"><ele>185.0</ele><time>2026-04-18T09:58:23.999Z</time></trkpt><trkpt lat="43.51109834321704" lon="10.842790496749883"><ele>185.0</ele><time>2026-04-18T09:58:24.999Z</time></trkpt><trkpt lat="43.511098189151554" lon="10.842920625689201"><ele>184.6</ele><time>2026-04-18T09:58:25.999Z</time></trkpt><trkpt lat="43.51109257174497" lon="10.843045108720235"><ele>184.2</ele><time>2026-04-18T09:58:26.999Z</time></trkpt><trkpt lat="43.51108050930439" lon="10.843169195893408"><ele>183.8</ele><time>2026-04-18T09:58:27.999Z</time></trkpt><trkpt lat="43.51106201139637" lon="10.843292907994082"><ele>183.4</ele><time>2026-04-18T09:58:28.999Z</time></trkpt><trkpt lat="43.5110425606884" lon="10.843413863822146"><ele>183.0</ele><time>2026-04-18T09:58:29.999Z</time></trkpt><trkpt lat="43.511024804644364" lon="10.84353748109675"><ele>182.33333333333334</ele><time>2026-04-18T09:58:30.999Z</time></trkpt><trkpt lat="43.51100692189301" lon="10.843658554191792"><ele>181.66666666666666</ele><time>2026-04-18T09:58:31.999Z</time></trkpt><trkpt lat="43.51099034334386" lon="10.843771097267709"><ele>181.0</ele><time>2026-04-18T09:58:32.999Z</time></trkpt><trkpt lat="43.51098061370394" lon="10.843885285303212"><ele>180.33333333333331</ele><time>2026-04-18T09:58:33.999Z</time></trkpt><trkpt lat="43.51098237956433" lon="10.844006819741564"><ele>179.66666666666666</ele><time>2026-04-18T09:58:34.999Z</time></trkpt><trkpt lat="43.510997387858026" lon="10.844138912041911"><ele>179.0</ele><time>2026-04-18T09:58:35.999Z</time></trkpt><trkpt lat="43.511010693620214" lon="10.844270869807655"><ele>178.16666666666666</ele><time>2026-04-18T09:58:36.999Z</time></trkpt><trkpt lat="43.511024344314386" lon="10.844407488961009"><ele>177.33333333333331</ele><time>2026-04-18T09:58:37.999Z</time></trkpt><trkpt lat="43.511041993443406" lon="10.844539012811953"><ele>176.5</ele><time>2026-04-18T09:58:38.999Z</time></trkpt><trkpt lat="43.51106469855195" lon="10.844645782083864"><ele>175.66666666666666</ele><time>2026-04-18T09:58:39.999Z</time></trkpt><trkpt lat="43.511095677838995" lon="10.844738042947387"><ele>174.83333333333334</ele><time>2026-04-18T09:58:40.999Z</time></trkpt><trkpt lat="43.511110264670634" lon="10.844828721890531"><ele>174.0</ele><time>2026-04-18T09:58:41.999Z</time></trkpt><trkpt lat="43.51114299044064" lon="10.844907571929"><ele>174.0</ele><time>2026-04-18T09:58:42.999Z</time></trkpt><trkpt lat="43.511228738755925" lon="10.845029750996675"><ele>174.0</ele><time>2026-04-18T09:58:44.999Z</time></trkpt><trkpt lat="43.51126415019426" lon="10.845104684555537"><ele>174.0</ele><time>2026-04-18T09:58:45.999Z</time></trkpt><trkpt lat="43.5113007839213" lon="10.845184087102693"><ele>174.0</ele><time>2026-04-18T09:58:46.999Z</time></trkpt><trkpt lat="43.51134526566764" lon="10.845267553659939"><ele>174.0</ele><time>2026-04-18T09:58:47.999Z</time></trkpt><trkpt lat="43.51139010521092" lon="10.845354893073038"><ele>174.0</ele><time>2026-04-18T09:58:48.999Z</time></trkpt><trkpt lat="43.5114381132792" lon="10.845443852684493"><ele>174.5</ele><time>2026-04-18T09:58:49.999Z</time></trkpt><trkpt lat="43.511490311559044" lon="10.845531221618591"><ele>175.0</ele><time>2026-04-18T09:58:50.999Z</time></trkpt><trkpt lat="43.51154296591755" lon="10.845619468483807"><ele>175.5</ele><time>2026-04-18T09:58:51.999Z</time></trkpt><trkpt lat="43.51159369229726" lon="10.845712614072408"><ele>176.0</ele><time>2026-04-18T09:58:52.999Z</time></trkpt><trkpt lat="43.51164156732923" lon="10.845810385650854"><ele>176.5</ele><time>2026-04-18T09:58:53.999Z</time></trkpt><trkpt lat="43.51167726599717" lon="10.845911592548205"><ele>177.0</ele><time>2026-04-18T09:58:54.999Z</time></trkpt><trkpt lat="43.511707177592704" lon="10.846023903984383"><ele>177.39999999999998</ele><time>2026-04-18T09:58:55.999Z</time></trkpt><trkpt lat="43.51172393794107" lon="10.846145983047242"><ele>177.79999999999998</ele><time>2026-04-18T09:58:56.999Z</time></trkpt><trkpt lat="43.51172239754588" lon="10.846275282907824"><ele>178.2</ele><time>2026-04-18T09:58:57.998Z</time></trkpt><trkpt lat="43.511712588489836" lon="10.84640411646603"><ele>178.6</ele><time>2026-04-18T09:58:58.998Z</time></trkpt><trkpt lat="43.5117003976218" lon="10.846526817055311"><ele>179.0</ele><time>2026-04-18T09:58:59.998Z</time></trkpt><trkpt lat="43.511687373256166" lon="10.846644160124113"><ele>179.0</ele><time>2026-04-18T09:59:00.998Z</time></trkpt><trkpt lat="43.511669868929545" lon="10.846762156767825"><ele>179.0</ele><time>2026-04-18T09:59:01.998Z</time></trkpt><trkpt lat="43.51165000756273" lon="10.846874860703132"><ele>179.0</ele><time>2026-04-18T09:59:02.998Z</time></trkpt><trkpt lat="43.511631204622596" lon="10.84698460221158"><ele>179.0</ele><time>2026-04-18T09:59:03.998Z</time></trkpt><trkpt lat="43.51161065237583" lon="10.847154919748895"><ele>179.0</ele><time>2026-04-18T09:59:05.998Z</time></trkpt><trkpt lat="43.511600750858825" lon="10.847297076228074"><ele>179.0</ele><time>2026-04-18T09:59:07.998Z</time></trkpt><trkpt lat="43.51161684247373" lon="10.847416049447961"><ele>179.0</ele><time>2026-04-18T09:59:09.998Z</time></trkpt><trkpt lat="43.511634717939764" lon="10.847525710942957"><ele>179.0</ele><time>2026-04-18T09:59:11.998Z</time></trkpt><trkpt lat="43.51165185569147" lon="10.84764168588693"><ele>179.0</ele><time>2026-04-18T09:59:13.998Z</time></trkpt><trkpt lat="43.511668295008775" lon="10.84776755618752"><ele>179.0</ele><time>2026-04-18T09:59:15.998Z</time></trkpt><trkpt lat="43.51168410223649" lon="10.847900539017129"><ele>179.0</ele><time>2026-04-18T09:59:17.998Z</time></trkpt><trkpt lat="43.51169990658439" lon="10.848043184798643"><ele>179.0</ele><time>2026-04-18T09:59:19.998Z</time></trkpt><trkpt lat="43.51172060369626" lon="10.848185650851823"><ele>179.0</ele><time>2026-04-18T09:59:21.998Z</time></trkpt><trkpt lat="43.51174620437447" lon="10.84830943664286"><ele>179.0</ele><time>2026-04-18T09:59:23.998Z</time></trkpt><trkpt lat="43.51179210772847" lon="10.8484166778633"><ele>179.0</ele><time>2026-04-18T10:00:25.999Z</time></trkpt><trkpt lat="43.51182792079829" lon="10.84853054379218"><ele>179.0</ele><time>2026-04-18T10:00:27.999Z</time></trkpt><trkpt lat="43.51186698006285" lon="10.848693861250442"><ele>178.66666666666666</ele><time>2026-04-18T10:00:29.999Z</time></trkpt><trkpt lat="43.51188883301705" lon="10.848786219164374"><ele>178.33333333333331</ele><time>2026-04-18T10:00:30.999Z</time></trkpt><trkpt lat="43.51191699587762" lon="10.848878796011304"><ele>178.0</ele><time>2026-04-18T10:00:31.999Z</time></trkpt><trkpt lat="43.511952686338134" lon="10.848972395610728"><ele>177.66666666666666</ele><time>2026-04-18T10:00:32.999Z</time></trkpt><trkpt lat="43.51199524395603" lon="10.84906113797085"><ele>177.33333333333334</ele><time>2026-04-18T10:00:33.999Z</time></trkpt><trkpt lat="43.51204317042831" lon="10.849145476222603"><ele>177.0</ele><time>2026-04-18T10:00:34.999Z</time></trkpt><trkpt lat="43.51209070546207" lon="10.849225887024945"><ele>176.42857142857144</ele><time>2026-04-18T10:00:35.999Z</time></trkpt><trkpt lat="43.512136842846" lon="10.849300802821672"><ele>175.85714285714283</ele><time>2026-04-18T10:00:36.999Z</time></trkpt><trkpt lat="43.51217518937976" lon="10.849387424347704"><ele>175.28571428571428</ele><time>2026-04-18T10:00:37.999Z</time></trkpt><trkpt lat="43.512220889861396" lon="10.849461301797023"><ele>174.71428571428572</ele><time>2026-04-18T10:00:38.999Z</time></trkpt><trkpt lat="43.51226947748089" lon="10.849529869084032"><ele>174.14285714285717</ele><time>2026-04-18T10:00:39.999Z</time></trkpt><trkpt lat="43.51231908567471" lon="10.849598577232353"><ele>173.57142857142856</ele><time>2026-04-18T10:00:40.999Z</time></trkpt><trkpt lat="43.51236573581021" lon="10.849667632048622"><ele>173.0</ele><time>2026-04-18T10:00:41.999Z</time></trkpt><trkpt lat="43.51241216322209" lon="10.849734279923215"><ele>173.0</ele><time>2026-04-18T10:00:42.999Z</time></trkpt><trkpt lat="43.512455771014466" lon="10.849799109431736"><ele>173.0</ele><time>2026-04-18T10:00:43.999Z</time></trkpt><trkpt lat="43.512501381573365" lon="10.849868386950261"><ele>173.0</ele><time>2026-04-18T10:00:44.999Z</time></trkpt><trkpt lat="43.51254974698606" lon="10.84993623560604"><ele>173.0</ele><time>2026-04-18T10:00:45.999Z</time></trkpt><trkpt lat="43.51259796988165" lon="10.850000331810259"><ele>173.0</ele><time>2026-04-18T10:00:46.999Z</time></trkpt><trkpt lat="43.51264510959254" lon="10.850062368926856"><ele>173.0</ele><time>2026-04-18T10:00:47.999Z</time></trkpt><trkpt lat="43.512695522462224" lon="10.850124691461048"><ele>173.0</ele><time>2026-04-18T10:00:48.999Z</time></trkpt><trkpt lat="43.512747692650095" lon="10.8501815422372"><ele>172.57142857142856</ele><time>2026-04-18T10:00:49.999Z</time></trkpt><trkpt lat="43.512801079742026" lon="10.850238045694184"><ele>172.14285714285717</ele><time>2026-04-18T10:00:50.999Z</time></trkpt><trkpt lat="43.51285392475501" lon="10.850295962338583"><ele>171.71428571428572</ele><time>2026-04-18T10:00:51.999Z</time></trkpt><trkpt lat="43.51290601222292" lon="10.85035687613662"><ele>171.28571428571428</ele><time>2026-04-18T10:00:52.999Z</time></trkpt><trkpt lat="43.5129579713125" lon="10.850420650640682"><ele>170.85714285714283</ele><time>2026-04-18T10:00:53.999Z</time></trkpt><trkpt lat="43.51300710844933" lon="10.850480555332458"><ele>170.42857142857144</ele><time>2026-04-18T10:00:54.999Z</time></trkpt><trkpt lat="43.51305268939264" lon="10.850542283686638"><ele>170.0</ele><time>2026-04-18T10:00:55.999Z</time></trkpt><trkpt lat="43.513129212245296" lon="10.85066849817275"><ele>170.0</ele><time>2026-04-18T10:00:57.999Z</time></trkpt><trkpt lat="43.513182023729456" lon="10.850807655109499"><ele>170.0</ele><time>2026-04-18T10:00:59.999Z</time></trkpt><trkpt lat="43.513173852198186" lon="10.850954478405967"><ele>170.0</ele><time>2026-04-18T10:01:01.999Z</time></trkpt><trkpt lat="43.51311506671907" lon="10.851084383311377"><ele>170.0</ele><time>2026-04-18T10:01:03.999Z</time></trkpt><trkpt lat="43.513082863377946" lon="10.851162164658598"><ele>170.0</ele><time>2026-04-18T10:01:04.998Z</time></trkpt><trkpt lat="43.513053648789935" lon="10.851241650720477"><ele>170.2857142857143</ele><time>2026-04-18T10:01:05.998Z</time></trkpt><trkpt lat="43.513030777601315" lon="10.851341035521154"><ele>170.57142857142856</ele><time>2026-04-18T10:01:06.998Z</time></trkpt><trkpt lat="43.51301195521612" lon="10.851449086772938"><ele>170.85714285714286</ele><time>2026-04-18T10:01:07.998Z</time></trkpt><trkpt lat="43.51299884012104" lon="10.851548357460295"><ele>171.14285714285717</ele><time>2026-04-18T10:01:08.998Z</time></trkpt><trkpt lat="43.51298976034215" lon="10.851644783335084"><ele>171.42857142857144</ele><time>2026-04-18T10:01:09.998Z</time></trkpt><trkpt lat="43.512981527180614" lon="10.851735857382776"><ele>171.71428571428572</ele><time>2026-04-18T10:01:10.998Z</time></trkpt><trkpt lat="43.51296969037831" lon="10.851826009084935"><ele>172.0</ele><time>2026-04-18T10:01:11.998Z</time></trkpt><trkpt lat="43.51295325940519" lon="10.851913397675931"><ele>172.0</ele><time>2026-04-18T10:01:12.998Z</time></trkpt><trkpt lat="43.51293721090521" lon="10.852002723644983"><ele>172.0</ele><time>2026-04-18T10:01:13.998Z</time></trkpt><trkpt lat="43.51291432263547" lon="10.852086987084855"><ele>172.0</ele><time>2026-04-18T10:01:14.998Z</time></trkpt><trkpt lat="43.51289177401424" lon="10.85217462878779"><ele>172.0</ele><time>2026-04-18T10:01:15.998Z</time></trkpt><trkpt lat="43.512842681704754" lon="10.852328176585898"><ele>172.0</ele><time>2026-04-18T10:01:17.998Z</time></trkpt><trkpt lat="43.51277937063298" lon="10.852479135748414"><ele>172.0</ele><time>2026-04-18T10:01:19.998Z</time></trkpt><trkpt lat="43.51273245740044" lon="10.852539589016214"><ele>172.33333333333334</ele><time>2026-04-18T10:01:20.998Z</time></trkpt><trkpt lat="43.51270742251651" lon="10.85261933031123"><ele>172.66666666666669</ele><time>2026-04-18T10:01:21.998Z</time></trkpt><trkpt lat="43.51260034395563" lon="10.852712007989055"><ele>173.0</ele><time>2026-04-18T10:01:23.998Z</time></trkpt><trkpt lat="43.51253765399019" lon="10.852749457944087"><ele>173.33333333333334</ele><time>2026-04-18T10:01:24.998Z</time></trkpt><trkpt lat="43.51247857788659" lon="10.852790443951648"><ele>173.66666666666666</ele><time>2026-04-18T10:01:25.998Z</time></trkpt><trkpt lat="43.51242476712966" lon="10.85284907532644"><ele>174.0</ele><time>2026-04-18T10:01:26.998Z</time></trkpt><trkpt lat="43.51238183403309" lon="10.852928672505778"><ele>174.16666666666666</ele><time>2026-04-18T10:01:27.998Z</time></trkpt><trkpt lat="43.512356262318086" lon="10.853023867228114"><ele>174.33333333333334</ele><time>2026-04-18T10:01:28.998Z</time></trkpt><trkpt lat="43.51231952914847" lon="10.853121574141994"><ele>174.5</ele><time>2026-04-18T10:01:29.998Z</time></trkpt><trkpt lat="43.51232595252493" lon="10.853232460910863"><ele>174.66666666666669</ele><time>2026-04-18T10:01:30.998Z</time></trkpt><trkpt lat="43.51232178003639" lon="10.853339456056194"><ele>174.83333333333334</ele><time>2026-04-18T10:01:31.998Z</time></trkpt><trkpt lat="43.5123052388368" lon="10.853444528140786"><ele>175.0</ele><time>2026-04-18T10:01:32.998Z</time></trkpt><trkpt lat="43.512303952322604" lon="10.853541504745275"><ele>175.0</ele><time>2026-04-18T10:01:33.998Z</time></trkpt><trkpt lat="43.512300502064356" lon="10.85365829845056"><ele>175.0</ele><time>2026-04-18T10:01:36.998Z</time></trkpt><trkpt lat="43.51229437767102" lon="10.853784496791691"><ele>175.0</ele><time>2026-04-18T10:01:39.998Z</time></trkpt><trkpt lat="43.51228698629993" lon="10.853905770855913"><ele>175.0</ele><time>2026-04-18T10:01:41.998Z</time></trkpt><trkpt lat="43.512278302022445" lon="10.854028244701903"><ele>175.0</ele><time>2026-04-18T10:01:43.998Z</time></trkpt><trkpt lat="43.512268591946736" lon="10.854165185333375"><ele>175.16666666666669</ele><time>2026-04-18T10:01:45.998Z</time></trkpt><trkpt lat="43.51225756868379" lon="10.854327487283053"><ele>175.33333333333334</ele><time>2026-04-18T10:01:48Z</time></trkpt><trkpt lat="43.512246555039766" lon="10.85450153632937"><ele>175.5</ele><time>2026-04-18T10:01:50Z</time></trkpt><trkpt lat="43.51224127822035" lon="10.854592534537145"><ele>175.66666666666666</ele><time>2026-04-18T10:01:51Z</time></trkpt><trkpt lat="43.51223654526804" lon="10.85468331889509"><ele>175.83333333333331</ele><time>2026-04-18T10:01:52Z</time></trkpt><trkpt lat="43.5122334601446" lon="10.854770337524336"><ele>176.0</ele><time>2026-04-18T10:01:53Z</time></trkpt><trkpt lat="43.51222662222873" lon="10.854942840611319"><ele>176.0</ele><time>2026-04-18T10:01:55Z</time></trkpt><trkpt lat="43.51221616217369" lon="10.85510529045328"><ele>176.0</ele><time>2026-04-18T10:01:57Z</time></trkpt><trkpt lat="43.51220953622935" lon="10.855191719028925"><ele>176.0</ele><time>2026-04-18T10:01:58Z</time></trkpt><trkpt lat="43.51220103991095" lon="10.855280672882058"><ele>176.0</ele><time>2026-04-18T10:01:59Z</time></trkpt><trkpt lat="43.51219123510318" lon="10.855372556918555"><ele>176.0</ele><time>2026-04-18T10:02:00Z</time></trkpt><trkpt lat="43.512181027287" lon="10.855468217667402"><ele>176.0</ele><time>2026-04-18T10:02:01Z</time></trkpt><trkpt lat="43.51217201724203" lon="10.855570258932"><ele>176.16666666666666</ele><time>2026-04-18T10:02:02Z</time></trkpt><trkpt lat="43.5121644727714" lon="10.855672178378162"><ele>176.33333333333331</ele><time>2026-04-18T10:02:03Z</time></trkpt><trkpt lat="43.51215673447927" lon="10.855776716188053"><ele>176.5</ele><time>2026-04-18T10:02:04Z</time></trkpt><trkpt lat="43.51214873168679" lon="10.85588482717771"><ele>176.66666666666666</ele><time>2026-04-18T10:02:05Z</time></trkpt><trkpt lat="43.51214008887488" lon="10.855991258100797"><ele>176.83333333333334</ele><time>2026-04-18T10:02:06Z</time></trkpt><trkpt lat="43.512131660148576" lon="10.856095292663182"><ele>177.0</ele><time>2026-04-18T10:02:07Z</time></trkpt><trkpt lat="43.512120887980096" lon="10.856193008418881"><ele>177.33333333333334</ele><time>2026-04-18T10:02:08Z</time></trkpt><trkpt lat="43.51211047917119" lon="10.856279042410375"><ele>177.66666666666666</ele><time>2026-04-18T10:02:09Z</time></trkpt><trkpt lat="43.51209045417111" lon="10.85642554943894"><ele>178.0</ele><time>2026-04-18T10:02:11Z</time></trkpt><trkpt lat="43.512076042224585" lon="10.85651847978236"><ele>178.33333333333331</ele><time>2026-04-18T10:02:12.999Z</time></trkpt><trkpt lat="43.51206259432352" lon="10.856604704556574"><ele>178.66666666666666</ele><time>2026-04-18T10:02:14.999Z</time></trkpt><trkpt lat="43.51204686446654" lon="10.856704165187217"><ele>179.0</ele><time>2026-04-18T10:02:16.999Z</time></trkpt><trkpt lat="43.51202836126336" lon="10.85683247545245"><ele>179.39999999999998</ele><time>2026-04-18T10:02:18.999Z</time></trkpt><trkpt lat="43.512020603460435" lon="10.856974358879183"><ele>179.8</ele><time>2026-04-18T10:02:20.999Z</time></trkpt><trkpt lat="43.512016008770104" lon="10.85711849739076"><ele>180.2</ele><time>2026-04-18T10:02:22.999Z</time></trkpt><trkpt lat="43.51202600599629" lon="10.85727759780825"><ele>180.60000000000002</ele><time>2026-04-18T10:02:24.999Z</time></trkpt><trkpt lat="43.5120692420621" lon="10.857434600853134"><ele>181.0</ele><time>2026-04-18T10:02:26.999Z</time></trkpt><trkpt lat="43.512090327098434" lon="10.85759728369717"><ele>181.4</ele><time>2026-04-18T10:02:28.999Z</time></trkpt><trkpt lat="43.51213274941488" lon="10.857761560622281"><ele>181.8</ele><time>2026-04-18T10:02:30.999Z</time></trkpt><trkpt lat="43.51215593508483" lon="10.857843306673923"><ele>182.20000000000002</ele><time>2026-04-18T10:02:31.999Z</time></trkpt><trkpt lat="43.512200984916234" lon="10.858002139509443"><ele>182.60000000000002</ele><time>2026-04-18T10:02:33.999Z</time></trkpt><trkpt lat="43.51224692328693" lon="10.858157065359078"><ele>183.0</ele><time>2026-04-18T10:02:35.999Z</time></trkpt><trkpt lat="43.512290587880685" lon="10.858296741254712"><ele>183.0</ele><time>2026-04-18T10:02:37.999Z</time></trkpt><trkpt lat="43.512329374096005" lon="10.858412068355776"><ele>183.0</ele><time>2026-04-18T10:02:39.999Z</time></trkpt><trkpt lat="43.512366090736556" lon="10.858522560003966"><ele>183.0</ele><time>2026-04-18T10:02:42.999Z</time></trkpt><trkpt lat="43.512394866255406" lon="10.858609276859003"><ele>183.0</ele><time>2026-04-18T10:02:44.999Z</time></trkpt><trkpt lat="43.51244729292092" lon="10.858727503820944"><ele>183.0</ele><time>2026-04-18T10:02:46.999Z</time></trkpt><trkpt lat="43.51251665244743" lon="10.858844626531285"><ele>182.25</ele><time>2026-04-18T10:02:48.999Z</time></trkpt><trkpt lat="43.51260031797811" lon="10.858960384914079"><ele>181.5</ele><time>2026-04-18T10:02:50.999Z</time></trkpt><trkpt lat="43.51268486353417" lon="10.859085055783945"><ele>180.75</ele><time>2026-04-18T10:02:52.999Z</time></trkpt><trkpt lat="43.51276200688569" lon="10.859217835753993"><ele>180.0</ele><time>2026-04-18T10:02:54.999Z</time></trkpt><trkpt lat="43.512836490668995" lon="10.859341814611009"><ele>181.25</ele><time>2026-04-18T10:02:56.999Z</time></trkpt><trkpt lat="43.51290738567015" lon="10.859449962908817"><ele>182.5</ele><time>2026-04-18T10:02:58.999Z</time></trkpt><trkpt lat="43.51298814307551" lon="10.85954279383457"><ele>183.75</ele><time>2026-04-18T10:03:00.999Z</time></trkpt><trkpt lat="43.513093308622636" lon="10.85961571788147"><ele>185.0</ele><time>2026-04-18T10:03:02.999Z</time></trkpt><trkpt lat="43.5131817431754" lon="10.859735484690704"><ele>184.99999999999997</ele><time>2026-04-18T10:03:04.999Z</time></trkpt><trkpt lat="43.513228245592835" lon="10.859796254404147"><ele>185.0</ele><time>2026-04-18T10:03:05.999Z</time></trkpt><trkpt lat="43.51327484863115" lon="10.859860301884304"><ele>185.0</ele><time>2026-04-18T10:03:06.999Z</time></trkpt><trkpt lat="43.513320375420406" lon="10.859926724313533"><ele>185.0</ele><time>2026-04-18T10:03:07.999Z</time></trkpt><trkpt lat="43.51336595126396" lon="10.859995073661706"><ele>185.0</ele><time>2026-04-18T10:03:08.999Z</time></trkpt><trkpt lat="43.51342109209348" lon="10.860051579755012"><ele>184.99999999999997</ele><time>2026-04-18T10:03:09.999Z</time></trkpt><trkpt lat="43.51346580139803" lon="10.860116027079888"><ele>185.0</ele><time>2026-04-18T10:03:10.999Z</time></trkpt><trkpt lat="43.51350012898964" lon="10.860198517511334"><ele>184.6</ele><time>2026-04-18T10:03:11.999Z</time></trkpt><trkpt lat="43.513546299614994" lon="10.860265359798566"><ele>184.2</ele><time>2026-04-18T10:03:12.999Z</time></trkpt><trkpt lat="43.513638824082456" lon="10.860391974022793"><ele>183.8</ele><time>2026-04-18T10:03:14.999Z</time></trkpt><trkpt lat="43.51369354490745" lon="10.860447804704343"><ele>183.4</ele><time>2026-04-18T10:03:15.999Z</time></trkpt><trkpt lat="43.51376381265718" lon="10.860469796533854"><ele>183.0</ele><time>2026-04-18T10:03:16.999Z</time></trkpt><trkpt lat="43.51386455334911" lon="10.860541365893388"><ele>185.2</ele><time>2026-04-18T10:03:18.999Z</time></trkpt><trkpt lat="43.51397132811334" lon="10.86060447014943"><ele>187.4</ele><time>2026-04-18T10:03:20.999Z</time></trkpt><trkpt lat="43.51408309634112" lon="10.860664512931386"><ele>189.6</ele><time>2026-04-18T10:03:22.998Z</time></trkpt><trkpt lat="43.514193881793496" lon="10.860738699499183"><ele>191.79999999999998</ele><time>2026-04-18T10:03:24.998Z</time></trkpt><trkpt lat="43.51422451551805" lon="10.860825266668895"><ele>194.0</ele><time>2026-04-18T10:03:25.998Z</time></trkpt><trkpt lat="43.514261586003315" lon="10.860906446794802"><ele>195.14285714285714</ele><time>2026-04-18T10:03:26.998Z</time></trkpt><trkpt lat="43.514293167712665" lon="10.86098904659907"><ele>196.2857142857143</ele><time>2026-04-18T10:03:27.998Z</time></trkpt><trkpt lat="43.51431826728013" lon="10.861073761019306"><ele>197.42857142857144</ele><time>2026-04-18T10:03:28.998Z</time></trkpt><trkpt lat="43.514339171796884" lon="10.861156942930512"><ele>198.57142857142856</ele><time>2026-04-18T10:03:29.998Z</time></trkpt><trkpt lat="43.51435535989669" lon="10.861241496340874"><ele>199.71428571428572</ele><time>2026-04-18T10:03:30.998Z</time></trkpt><trkpt lat="43.51437351957179" lon="10.861326808361826"><ele>200.85714285714286</ele><time>2026-04-18T10:03:31.998Z</time></trkpt><trkpt lat="43.51441674397104" lon="10.861480678098722"><ele>202.0</ele><time>2026-04-18T10:03:33.998Z</time></trkpt><trkpt lat="43.51439822782194" lon="10.861635972969523"><ele>202.0</ele><time>2026-04-18T10:03:35.998Z</time></trkpt><trkpt lat="43.51432292250897" lon="10.861769296652646"><ele>202.0</ele><time>2026-04-18T10:03:37.998Z</time></trkpt><trkpt lat="43.514244885771205" lon="10.861834245265896"><ele>202.0</ele><time>2026-04-18T10:03:39.998Z</time></trkpt><trkpt lat="43.514174969667685" lon="10.861883803832615"><ele>202.0</ele><time>2026-04-18T10:03:41.998Z</time></trkpt><trkpt lat="43.514101868553205" lon="10.861947793390717"><ele>202.0</ele><time>2026-04-18T10:03:43.998Z</time></trkpt><trkpt lat="43.51401655924649" lon="10.862024249422047"><ele>202.6</ele><time>2026-04-18T10:03:45.998Z</time></trkpt><trkpt lat="43.51394775776798" lon="10.86214068872236"><ele>203.2</ele><time>2026-04-18T10:03:47.998Z</time></trkpt><trkpt lat="43.513888350766024" lon="10.862288221730106"><ele>203.8</ele><time>2026-04-18T10:03:49.998Z</time></trkpt><trkpt lat="43.5138587495723" lon="10.862452107342248"><ele>204.4</ele><time>2026-04-18T10:03:51.998Z</time></trkpt><trkpt lat="43.51385221725209" lon="10.862542338276814"><ele>205.0</ele><time>2026-04-18T10:03:53Z</time></trkpt><trkpt lat="43.51385315839135" lon="10.862638348507339"><ele>205.71428571428572</ele><time>2026-04-18T10:03:54Z</time></trkpt><trkpt lat="43.51385577445995" lon="10.862735466095966"><ele>206.42857142857142</ele><time>2026-04-18T10:03:55Z</time></trkpt><trkpt lat="43.51386033655598" lon="10.862836993542444"><ele>207.14285714285714</ele><time>2026-04-18T10:03:56Z</time></trkpt><trkpt lat="43.51387703508214" lon="10.862940122762128"><ele>207.85714285714286</ele><time>2026-04-18T10:03:57Z</time></trkpt><trkpt lat="43.513904171699224" lon="10.863035567312968"><ele>208.57142857142856</ele><time>2026-04-18T10:03:58Z</time></trkpt><trkpt lat="43.51393507771858" lon="10.863123979408936"><ele>209.28571428571428</ele><time>2026-04-18T10:03:59Z</time></trkpt><trkpt lat="43.51396986954464" lon="10.863206038287881"><ele>210.0</ele><time>2026-04-18T10:04:00Z</time></trkpt><trkpt lat="43.514011400059005" lon="10.863281162991589"><ele>210.0</ele><time>2026-04-18T10:04:01Z</time></trkpt><trkpt lat="43.514054830650515" lon="10.863345816163749"><ele>210.0</ele><time>2026-04-18T10:04:02Z</time></trkpt><trkpt lat="43.51413135831688" lon="10.863469724981691"><ele>210.0</ele><time>2026-04-18T10:04:04Z</time></trkpt><trkpt lat="43.51418467096934" lon="10.863609324567797"><ele>210.0</ele><time>2026-04-18T10:04:06Z</time></trkpt><trkpt lat="43.51420955038479" lon="10.86376853196878"><ele>210.0</ele><time>2026-04-18T10:04:08Z</time></trkpt><trkpt lat="43.51421730788693" lon="10.863865904411893"><ele>210.85714285714286</ele><time>2026-04-18T10:04:09Z</time></trkpt><trkpt lat="43.514228594019514" lon="10.863964561268313"><ele>211.71428571428572</ele><time>2026-04-18T10:04:10Z</time></trkpt><trkpt lat="43.514239792585904" lon="10.86406245267269"><ele>212.57142857142856</ele><time>2026-04-18T10:04:11Z</time></trkpt><trkpt lat="43.51425133174403" lon="10.864163321333638"><ele>213.42857142857144</ele><time>2026-04-18T10:04:12Z</time></trkpt><trkpt lat="43.51426174545511" lon="10.864260101831054"><ele>214.28571428571428</ele><time>2026-04-18T10:04:13Z</time></trkpt><trkpt lat="43.51426977362916" lon="10.864358158818652"><ele>215.14285714285714</ele><time>2026-04-18T10:04:14Z</time></trkpt><trkpt lat="43.51427636649723" lon="10.864451151507833"><ele>216.0</ele><time>2026-04-18T10:04:15Z</time></trkpt><trkpt lat="43.514283364557066" lon="10.864554235648848"><ele>217.5</ele><time>2026-04-18T10:04:16Z</time></trkpt><trkpt lat="43.51429069336622" lon="10.864662191848021"><ele>219.0</ele><time>2026-04-18T10:04:17Z</time></trkpt><trkpt lat="43.51429824610093" lon="10.864771637811897"><ele>220.5</ele><time>2026-04-18T10:04:18Z</time></trkpt><trkpt lat="43.514306027408686" lon="10.864882263593099"><ele>222.0</ele><time>2026-04-18T10:04:19Z</time></trkpt><trkpt lat="43.51431494789909" lon="10.864994989971429"><ele>223.5</ele><time>2026-04-18T10:04:20Z</time></trkpt><trkpt lat="43.514325768426545" lon="10.865101061872842"><ele>225.0</ele><time>2026-04-18T10:04:21Z</time></trkpt><trkpt lat="43.51433861979553" lon="10.865208455052073"><ele>226.42857142857144</ele><time>2026-04-18T10:04:22Z</time></trkpt><trkpt lat="43.51435080293162" lon="10.865313700377815"><ele>227.85714285714286</ele><time>2026-04-18T10:04:23Z</time></trkpt><trkpt lat="43.514361832182395" lon="10.865417157829668"><ele>229.28571428571428</ele><time>2026-04-18T10:04:24Z</time></trkpt><trkpt lat="43.51437160897901" lon="10.865512576824255"><ele>230.71428571428572</ele><time>2026-04-18T10:04:24.999Z</time></trkpt><trkpt lat="43.51438052651208" lon="10.865607615717146"><ele>232.1428571428571</ele><time>2026-04-18T10:04:25.999Z</time></trkpt><trkpt lat="43.51439044053074" lon="10.865705040150077"><ele>233.57142857142856</ele><time>2026-04-18T10:04:26.999Z</time></trkpt><trkpt lat="43.51440185010106" lon="10.865808111827725"><ele>235.0</ele><time>2026-04-18T10:04:27.999Z</time></trkpt><trkpt lat="43.51441554962172" lon="10.865915076026804"><ele>235.99999999999997</ele><time>2026-04-18T10:04:28.999Z</time></trkpt><trkpt lat="43.51444872396024" lon="10.866018117949531"><ele>237.0</ele><time>2026-04-18T10:04:29.999Z</time></trkpt><trkpt lat="43.51446842109638" lon="10.866122958050873"><ele>238.0</ele><time>2026-04-18T10:04:30.999Z</time></trkpt><trkpt lat="43.51449050786986" lon="10.866224943651947"><ele>239.0</ele><time>2026-04-18T10:04:31.999Z</time></trkpt><trkpt lat="43.5145121959793" lon="10.866326901408348"><ele>239.99999999999997</ele><time>2026-04-18T10:04:32.999Z</time></trkpt><trkpt lat="43.514532272219625" lon="10.866429464751189"><ele>241.0</ele><time>2026-04-18T10:04:33.999Z</time></trkpt><trkpt lat="43.51455034920164" lon="10.86653590959353"><ele>240.99999999999997</ele><time>2026-04-18T10:04:34.999Z</time></trkpt><trkpt lat="43.51456626728502" lon="10.866643132604343"><ele>241.0</ele><time>2026-04-18T10:04:35.999Z</time></trkpt><trkpt lat="43.5145757418459" lon="10.86674945688759"><ele>241.0</ele><time>2026-04-18T10:04:36.999Z</time></trkpt><trkpt lat="43.514576363089645" lon="10.86685017811358"><ele>241.0</ele><time>2026-04-18T10:04:37.999Z</time></trkpt><trkpt lat="43.51457149175505" lon="10.866948371660804"><ele>240.99999999999997</ele><time>2026-04-18T10:04:38.999Z</time></trkpt><trkpt lat="43.51457016992279" lon="10.86705305591551"><ele>241.0</ele><time>2026-04-18T10:04:39.999Z</time></trkpt><trkpt lat="43.51456269577419" lon="10.86717770110527"><ele>241.0</ele><time>2026-04-18T10:04:40.999Z</time></trkpt><trkpt lat="43.51458372572221" lon="10.867321327663248"><ele>241.0</ele><time>2026-04-18T10:04:41.999Z</time></trkpt><trkpt lat="43.51462683647527" lon="10.867466359982306"><ele>241.0</ele><time>2026-04-18T10:04:42.999Z</time></trkpt><trkpt lat="43.514687392398834" lon="10.867605364825039"><ele>241.0</ele><time>2026-04-18T10:04:43.999Z</time></trkpt><trkpt lat="43.51475089400904" lon="10.867739819404418"><ele>241.0</ele><time>2026-04-18T10:04:44.999Z</time></trkpt><trkpt lat="43.51482588732574" lon="10.867858378875837"><ele>241.00000000000003</ele><time>2026-04-18T10:04:45.999Z</time></trkpt><trkpt lat="43.51488508067681" lon="10.867982811079907"><ele>241.00000000000003</ele><time>2026-04-18T10:04:46.999Z</time></trkpt><trkpt lat="43.51494279464683" lon="10.868088738138018"><ele>241.0</ele><time>2026-04-18T10:04:47.999Z</time></trkpt><trkpt lat="43.514996183371615" lon="10.868183061743649"><ele>241.0</ele><time>2026-04-18T10:04:48.999Z</time></trkpt><trkpt lat="43.515047981203374" lon="10.868271308525362"><ele>241.0</ele><time>2026-04-18T10:04:49.999Z</time></trkpt><trkpt lat="43.51510426869172" lon="10.868368447548495"><ele>241.00000000000003</ele><time>2026-04-18T10:04:50.999Z</time></trkpt><trkpt lat="43.515165459501155" lon="10.868489901343331"><ele>241.00000000000003</ele><time>2026-04-18T10:04:51.999Z</time></trkpt><trkpt lat="43.515223687579194" lon="10.868624275923418"><ele>241.0</ele><time>2026-04-18T10:04:52.999Z</time></trkpt><trkpt lat="43.51531373405123" lon="10.868739853036287"><ele>241.0</ele><time>2026-04-18T10:04:53.999Z</time></trkpt><trkpt lat="43.51540111427168" lon="10.868874849736057"><ele>242.5</ele><time>2026-04-18T10:04:54.999Z</time></trkpt><trkpt lat="43.51549625719029" lon="10.869007025967345"><ele>244.0</ele><time>2026-04-18T10:04:55.999Z</time></trkpt><trkpt lat="43.515583904565545" lon="10.869159151205041"><ele>245.5</ele><time>2026-04-18T10:04:56.999Z</time></trkpt><trkpt lat="43.515684108528326" lon="10.869294889447188"><ele>247.0</ele><time>2026-04-18T10:04:57.999Z</time></trkpt><trkpt lat="43.51578237673152" lon="10.869428005468283"><ele>248.75</ele><time>2026-04-18T10:04:58.999Z</time></trkpt><trkpt lat="43.515889737192865" lon="10.869539027497643"><ele>250.5</ele><time>2026-04-18T10:04:59.999Z</time></trkpt><trkpt lat="43.515980296999736" lon="10.869665589146495"><ele>252.25</ele><time>2026-04-18T10:05:00.999Z</time></trkpt><trkpt lat="43.51606183248155" lon="10.869784764454758"><ele>254.0</ele><time>2026-04-18T10:05:01.999Z</time></trkpt><trkpt lat="43.516134745440226" lon="10.869893129730535"><ele>254.00000000000003</ele><time>2026-04-18T10:05:02.999Z</time></trkpt><trkpt lat="43.516190692100444" lon="10.869982033306963"><ele>254.0</ele><time>2026-04-18T10:05:03.999Z</time></trkpt><trkpt lat="43.51624088649266" lon="10.870063305589465"><ele>254.0</ele><time>2026-04-18T10:05:04.999Z</time></trkpt><trkpt lat="43.51628050987376" lon="10.870151689790877"><ele>254.0</ele><time>2026-04-18T10:05:05.999Z</time></trkpt><trkpt lat="43.516297619636944" lon="10.87024064907359"><ele>254.00000000000003</ele><time>2026-04-18T10:05:06.999Z</time></trkpt><trkpt lat="43.51629875955738" lon="10.870338882395371"><ele>254.0</ele><time>2026-04-18T10:05:07.999Z</time></trkpt><trkpt lat="43.51628751753355" lon="10.870440582186008"><ele>258.5</ele><time>2026-04-18T10:05:08.999Z</time></trkpt><trkpt lat="43.51627311806684" lon="10.870550489643428"><ele>263.0</ele><time>2026-04-18T10:05:09.999Z</time></trkpt><trkpt lat="43.516268482601326" lon="10.870664419446918"><ele>267.5</ele><time>2026-04-18T10:05:10.999Z</time></trkpt><trkpt lat="43.51626780805761" lon="10.870771331899139"><ele>272.0</ele><time>2026-04-18T10:05:11.999Z</time></trkpt><trkpt lat="43.51624918767549" lon="10.870867075999497"><ele>276.5</ele><time>2026-04-18T10:05:12.999Z</time></trkpt><trkpt lat="43.51621344917905" lon="10.870941585092812"><ele>281.0</ele><time>2026-04-18T10:05:13.999Z</time></trkpt><trkpt lat="43.51609974536418" lon="10.870952839561493"><ele>281.7142857142857</ele><time>2026-04-18T10:05:15.999Z</time></trkpt><trkpt lat="43.516035936713074" lon="10.870942147240033"><ele>282.42857142857144</ele><time>2026-04-18T10:05:16.999Z</time></trkpt><trkpt lat="43.51596482096522" lon="10.870946295833217"><ele>283.1428571428571</ele><time>2026-04-18T10:05:17.999Z</time></trkpt><trkpt lat="43.51588781428467" lon="10.870969753778828"><ele>283.8571428571429</ele><time>2026-04-18T10:05:18.999Z</time></trkpt><trkpt lat="43.51581665284601" lon="10.871008804801042"><ele>284.57142857142856</ele><time>2026-04-18T10:05:19.999Z</time></trkpt><trkpt lat="43.51575390028404" lon="10.871067537748102"><ele>285.2857142857143</ele><time>2026-04-18T10:05:20.999Z</time></trkpt><trkpt lat="43.515703624693856" lon="10.87114426333272"><ele>286.0</ele><time>2026-04-18T10:05:21.999Z</time></trkpt><trkpt lat="43.51566614475957" lon="10.87123773798786"><ele>286.0</ele><time>2026-04-18T10:05:22.999Z</time></trkpt><trkpt lat="43.51561931321003" lon="10.871326255254928"><ele>286.0</ele><time>2026-04-18T10:05:23.999Z</time></trkpt><trkpt lat="43.51559342826046" lon="10.871438537134466"><ele>286.0</ele><time>2026-04-18T10:05:24.999Z</time></trkpt><trkpt lat="43.515577091284136" lon="10.871551833312779"><ele>286.0</ele><time>2026-04-18T10:05:25.999Z</time></trkpt><trkpt lat="43.51557636877284" lon="10.871662010335253"><ele>286.0</ele><time>2026-04-18T10:05:26.999Z</time></trkpt><trkpt lat="43.51556180988771" lon="10.871757658264196"><ele>286.0</ele><time>2026-04-18T10:05:27.999Z</time></trkpt><trkpt lat="43.51554367126014" lon="10.871907940630145"><ele>288.0</ele><time>2026-04-18T10:05:29.999Z</time></trkpt><trkpt lat="43.51553565377171" lon="10.872032056793259"><ele>290.0</ele><time>2026-04-18T10:05:31.999Z</time></trkpt><trkpt lat="43.51563338288893" lon="10.872090170702789"><ele>292.0</ele><time>2026-04-18T10:05:33.998Z</time></trkpt><trkpt lat="43.51576060206911" lon="10.872130455408472"><ele>294.0</ele><time>2026-04-18T10:05:35.998Z</time></trkpt><trkpt lat="43.515832426102264" lon="10.872142576081975"><ele>296.0</ele><time>2026-04-18T10:05:36.998Z</time></trkpt><trkpt lat="43.51591444919142" lon="10.87215315173639"><ele>296.0</ele><time>2026-04-18T10:05:37.998Z</time></trkpt><trkpt lat="43.51598792508098" lon="10.87215696593492"><ele>296.0</ele><time>2026-04-18T10:05:38.998Z</time></trkpt><trkpt lat="43.51608009961964" lon="10.87222061774011"><ele>296.0</ele><time>2026-04-18T10:05:40.998Z</time></trkpt><trkpt lat="43.51615089703657" lon="10.872320644685372"><ele>296.0</ele><time>2026-04-18T10:05:42.998Z</time></trkpt><trkpt lat="43.51614552875136" lon="10.872469773842745"><ele>296.0</ele><time>2026-04-18T10:05:44.998Z</time></trkpt><trkpt lat="43.516149050445264" lon="10.872645625628802"><ele>296.83333333333337</ele><time>2026-04-18T10:05:46.998Z</time></trkpt><trkpt lat="43.51618161837019" lon="10.872730735135061"><ele>297.6666666666667</ele><time>2026-04-18T10:05:47.998Z</time></trkpt><trkpt lat="43.516228471706995" lon="10.872797782914407"><ele>298.5</ele><time>2026-04-18T10:05:48.998Z</time></trkpt><trkpt lat="43.51631658657144" lon="10.872881956067475"><ele>299.3333333333333</ele><time>2026-04-18T10:05:50.998Z</time></trkpt><trkpt lat="43.51637577655107" lon="10.872960459492303"><ele>300.16666666666663</ele><time>2026-04-18T10:05:52.998Z</time></trkpt><trkpt lat="43.51638555420258" lon="10.873079826682522"><ele>301.0</ele><time>2026-04-18T10:05:56.998Z</time></trkpt><trkpt lat="43.51634000624337" lon="10.873279754096117"><ele>304.8</ele><time>2026-04-18T10:05:59Z</time></trkpt><trkpt lat="43.51631578571835" lon="10.873514033659527"><ele>308.6</ele><time>2026-04-18T10:06:01Z</time></trkpt><trkpt lat="43.516313955379566" lon="10.873613390931505"><ele>312.4</ele><time>2026-04-18T10:06:02Z</time></trkpt><trkpt lat="43.51630687415528" lon="10.873705890335827"><ele>316.2</ele><time>2026-04-18T10:06:03Z</time></trkpt><trkpt lat="43.51630778136367" lon="10.873807094245896"><ele>320.0</ele><time>2026-04-18T10:06:04Z</time></trkpt><trkpt lat="43.51627917390113" lon="10.873905294011221"><ele>320.0</ele><time>2026-04-18T10:06:05Z</time></trkpt><trkpt lat="43.51626076412542" lon="10.874014892343276"><ele>320.0</ele><time>2026-04-18T10:06:06Z</time></trkpt><trkpt lat="43.516243861731596" lon="10.874130270838874"><ele>320.0</ele><time>2026-04-18T10:06:07Z</time></trkpt><trkpt lat="43.516197855719376" lon="10.874234808800711"><ele>320.0</ele><time>2026-04-18T10:06:08Z</time></trkpt><trkpt lat="43.516144376168654" lon="10.874329118554998"><ele>320.0</ele><time>2026-04-18T10:06:09Z</time></trkpt><trkpt lat="43.51609507080876" lon="10.874415260631753"><ele>320.0</ele><time>2026-04-18T10:06:10Z</time></trkpt><trkpt lat="43.51603851080903" lon="10.874465222280527"><ele>319.0</ele><time>2026-04-18T10:06:11Z</time></trkpt><trkpt lat="43.515968393335896" lon="10.87453689192843"><ele>318.0</ele><time>2026-04-18T10:06:13Z</time></trkpt><trkpt lat="43.5158919951799" lon="10.87458294791303"><ele>317.0</ele><time>2026-04-18T10:06:15Z</time></trkpt><trkpt lat="43.51578147021146" lon="10.874608863628689"><ele>316.0</ele><time>2026-04-18T10:06:17Z</time></trkpt><trkpt lat="43.51567821924399" lon="10.874697274363049"><ele>315.0</ele><time>2026-04-18T10:06:19Z</time></trkpt><trkpt lat="43.51562285604609" lon="10.874748878098465"><ele>315.0</ele><time>2026-04-18T10:06:20Z</time></trkpt><trkpt lat="43.5155667774316" lon="10.874802110660195"><ele>315.0</ele><time>2026-04-18T10:06:21Z</time></trkpt><trkpt lat="43.5155096950023" lon="10.87484463201369"><ele>315.0</ele><time>2026-04-18T10:06:22Z</time></trkpt><trkpt lat="43.51544066949074" lon="10.874873180318632"><ele>315.0</ele><time>2026-04-18T10:06:23Z</time></trkpt><trkpt lat="43.51534992198557" lon="10.87498179868381"><ele>315.0</ele><time>2026-04-18T10:06:25Z</time></trkpt><trkpt lat="43.515270790766074" lon="10.87505267073623"><ele>315.0</ele><time>2026-04-18T10:06:27Z</time></trkpt><trkpt lat="43.515222934623125" lon="10.875127398306338"><ele>315.0</ele><time>2026-04-18T10:06:29Z</time></trkpt><trkpt lat="43.51518643689442" lon="10.875203561624478"><ele>315.0</ele><time>2026-04-18T10:06:31Z</time></trkpt><trkpt lat="43.51514159700799" lon="10.875332354471977"><ele>315.0</ele><time>2026-04-18T10:06:32.999Z</time></trkpt><trkpt lat="43.51514350858933" lon="10.875468668035595"><ele>315.0</ele><time>2026-04-18T10:06:34.999Z</time></trkpt><trkpt lat="43.515134637247435" lon="10.8755837011831"><ele>315.0</ele><time>2026-04-18T10:06:36.999Z</time></trkpt><trkpt lat="43.51511420994153" lon="10.875689442966397"><ele>315.0</ele><time>2026-04-18T10:06:40.999Z</time></trkpt><trkpt lat="43.51511217373952" lon="10.875784618477171"><ele>315.0</ele><time>2026-04-18T10:06:42.999Z</time></trkpt><trkpt lat="43.515093273734806" lon="10.875877253842717"><ele>315.0</ele><time>2026-04-18T10:06:44.999Z</time></trkpt><trkpt lat="43.515094851599635" lon="10.875975083105624"><ele>315.0</ele><time>2026-04-18T10:06:50.999Z</time></trkpt><trkpt lat="43.51522875520065" lon="10.876018714242567"><ele>315.0</ele><time>2026-04-18T10:06:52.999Z</time></trkpt><trkpt lat="43.51532353576952" lon="10.876026969302236"><ele>315.0</ele><time>2026-04-18T10:06:54.999Z</time></trkpt><trkpt lat="43.515435581945034" lon="10.876049439016425"><ele>318.4</ele><time>2026-04-18T10:06:56.999Z</time></trkpt><trkpt lat="43.51554989101706" lon="10.876128121491956"><ele>321.8</ele><time>2026-04-18T10:06:58.999Z</time></trkpt><trkpt lat="43.51561076055637" lon="10.876187057579214"><ele>325.20000000000005</ele><time>2026-04-18T10:06:59.999Z</time></trkpt><trkpt lat="43.51567420598722" lon="10.876259378254156"><ele>328.6</ele><time>2026-04-18T10:07:00.999Z</time></trkpt><trkpt lat="43.515749315698294" lon="10.8763222341385"><ele>332.0</ele><time>2026-04-18T10:07:01.999Z</time></trkpt><trkpt lat="43.515838669912604" lon="10.876361344448062"><ele>332.0</ele><time>2026-04-18T10:07:02.999Z</time></trkpt><trkpt lat="43.51594485914902" lon="10.876362616606729"><ele>332.0</ele><time>2026-04-18T10:07:03.999Z</time></trkpt><trkpt lat="43.5160454664611" lon="10.876299854600521"><ele>332.0</ele><time>2026-04-18T10:07:04.999Z</time></trkpt><trkpt lat="43.51615302858219" lon="10.876266527008184"><ele>332.0</ele><time>2026-04-18T10:07:05.999Z</time></trkpt><trkpt lat="43.51625610754144" lon="10.876209175463014"><ele>332.0</ele><time>2026-04-18T10:07:06.999Z</time></trkpt><trkpt lat="43.51636493748758" lon="10.876143371694367"><ele>332.6</ele><time>2026-04-18T10:07:07.999Z</time></trkpt><trkpt lat="43.51647620020768" lon="10.87607579291093"><ele>333.20000000000005</ele><time>2026-04-18T10:07:08.999Z</time></trkpt><trkpt lat="43.51658311632103" lon="10.87601065090207"><ele>333.8</ele><time>2026-04-18T10:07:09.999Z</time></trkpt><trkpt lat="43.516677734096355" lon="10.875955412803641"><ele>334.4</ele><time>2026-04-18T10:07:10.999Z</time></trkpt><trkpt lat="43.516764904148296" lon="10.875900092637005"><ele>335.0</ele><time>2026-04-18T10:07:11.999Z</time></trkpt><trkpt lat="43.51683286744718" lon="10.875820033129399"><ele>335.0</ele><time>2026-04-18T10:07:12.999Z</time></trkpt><trkpt lat="43.51690428494733" lon="10.875750881901991"><ele>335.0</ele><time>2026-04-18T10:07:13.999Z</time></trkpt><trkpt lat="43.51693855764141" lon="10.875622606797895"><ele>335.0</ele><time>2026-04-18T10:07:14.999Z</time></trkpt><trkpt lat="43.51696878891203" lon="10.875490140298783"><ele>335.0</ele><time>2026-04-18T10:07:15.999Z</time></trkpt><trkpt lat="43.51699788036117" lon="10.87535751860215"><ele>335.0</ele><time>2026-04-18T10:07:16.999Z</time></trkpt><trkpt lat="43.51703853307777" lon="10.875231387626672"><ele>336.8</ele><time>2026-04-18T10:07:17.999Z</time></trkpt><trkpt lat="43.51709464848973" lon="10.875109895134186"><ele>338.6</ele><time>2026-04-18T10:07:18.999Z</time></trkpt><trkpt lat="43.51717746274456" lon="10.875014686911548"><ele>340.4</ele><time>2026-04-18T10:07:19.999Z</time></trkpt><trkpt lat="43.51725938618489" lon="10.874928895456108"><ele>342.2</ele><time>2026-04-18T10:07:20.999Z</time></trkpt><trkpt lat="43.517357753943024" lon="10.874876936761202"><ele>344.0</ele><time>2026-04-18T10:07:21.999Z</time></trkpt><trkpt lat="43.51746149590893" lon="10.874842677478918"><ele>344.0</ele><time>2026-04-18T10:07:22.999Z</time></trkpt><trkpt lat="43.51756784310482" lon="10.874820143505234"><ele>344.0</ele><time>2026-04-18T10:07:23.999Z</time></trkpt><trkpt lat="43.51767456343389" lon="10.874799969715106"><ele>344.0</ele><time>2026-04-18T10:07:24.999Z</time></trkpt><trkpt lat="43.5177772951305" lon="10.87478795876072"><ele>344.0</ele><time>2026-04-18T10:07:25.999Z</time></trkpt><trkpt lat="43.51788073840805" lon="10.874781679816005"><ele>344.0</ele><time>2026-04-18T10:07:26.999Z</time></trkpt><trkpt lat="43.51798570430369" lon="10.87478592513532"><ele>345.6</ele><time>2026-04-18T10:07:27.999Z</time></trkpt><trkpt lat="43.51809396800491" lon="10.874792457245647"><ele>347.2</ele><time>2026-04-18T10:07:28.999Z</time></trkpt><trkpt lat="43.51819937895203" lon="10.8748019149324"><ele>348.8</ele><time>2026-04-18T10:07:29.999Z</time></trkpt><trkpt lat="43.51829649256079" lon="10.874818172016855"><ele>350.40000000000003</ele><time>2026-04-18T10:07:30.999Z</time></trkpt><trkpt lat="43.51839428494721" lon="10.87484105002875"><ele>352.0</ele><time>2026-04-18T10:07:31.999Z</time></trkpt><trkpt lat="43.518494107060434" lon="10.874864082398865"><ele>352.0</ele><time>2026-04-18T10:07:32.999Z</time></trkpt><trkpt lat="43.518598549175834" lon="10.874880512154682"><ele>352.0</ele><time>2026-04-18T10:07:33.999Z</time></trkpt><trkpt lat="43.518706278251614" lon="10.874893015281152"><ele>352.0</ele><time>2026-04-18T10:07:34.999Z</time></trkpt><trkpt lat="43.518804455841746" lon="10.874904043952208"><ele>352.0</ele><time>2026-04-18T10:07:35.999Z</time></trkpt><trkpt lat="43.51889712986419" lon="10.874915612385182"><ele>352.0</ele><time>2026-04-18T10:07:36.999Z</time></trkpt><trkpt lat="43.518987387071135" lon="10.874929971459816"><ele>352.20000000000005</ele><time>2026-04-18T10:07:37.999Z</time></trkpt><trkpt lat="43.519078000915776" lon="10.874950604406699"><ele>352.4</ele><time>2026-04-18T10:07:38.999Z</time></trkpt><trkpt lat="43.51915422849402" lon="10.875030799388504"><ele>352.6</ele><time>2026-04-18T10:07:39.999Z</time></trkpt><trkpt lat="43.51920491916514" lon="10.875150783804335"><ele>352.79999999999995</ele><time>2026-04-18T10:07:40.999Z</time></trkpt><trkpt lat="43.51923799824398" lon="10.875295004720023"><ele>353.0</ele><time>2026-04-18T10:07:41.998Z</time></trkpt><trkpt lat="43.51927249679928" lon="10.875445605002326"><ele>353.0</ele><time>2026-04-18T10:07:42.998Z</time></trkpt><trkpt lat="43.51930530737769" lon="10.875588832988901"><ele>353.0</ele><time>2026-04-18T10:07:43.998Z</time></trkpt><trkpt lat="43.5193461664573" lon="10.875728207291326"><ele>353.0</ele><time>2026-04-18T10:07:44.998Z</time></trkpt><trkpt lat="43.51939934654495" lon="10.875858006051912"><ele>353.0</ele><time>2026-04-18T10:07:45.998Z</time></trkpt><trkpt lat="43.51947286464302" lon="10.875971081000186"><ele>353.0</ele><time>2026-04-18T10:07:46.998Z</time></trkpt><trkpt lat="43.51955987671929" lon="10.876057868193456"><ele>349.0</ele><time>2026-04-18T10:07:47.998Z</time></trkpt><trkpt lat="43.51965425711304" lon="10.876120432545296"><ele>345.0</ele><time>2026-04-18T10:07:48.998Z</time></trkpt><trkpt lat="43.51973678359501" lon="10.876180828072714"><ele>341.0</ele><time>2026-04-18T10:07:49.998Z</time></trkpt><trkpt lat="43.519801243557126" lon="10.876257564782703"><ele>337.0</ele><time>2026-04-18T10:07:50.998Z</time></trkpt><trkpt lat="43.51983396335959" lon="10.876369798719898"><ele>333.0</ele><time>2026-04-18T10:07:51.998Z</time></trkpt><trkpt lat="43.51985862538282" lon="10.876506967321673"><ele>333.0</ele><time>2026-04-18T10:07:52.998Z</time></trkpt><trkpt lat="43.51987170823717" lon="10.876658831520796"><ele>333.0</ele><time>2026-04-18T10:07:53.998Z</time></trkpt><trkpt lat="43.519888547491576" lon="10.876823641930985"><ele>333.0</ele><time>2026-04-18T10:07:54.998Z</time></trkpt><trkpt lat="43.519906759067744" lon="10.876993450849017"><ele>333.0</ele><time>2026-04-18T10:07:55.998Z</time></trkpt><trkpt lat="43.51992627101558" lon="10.877168532335366"><ele>335.25</ele><time>2026-04-18T10:07:56.998Z</time></trkpt><trkpt lat="43.51994626698899" lon="10.877345454820182"><ele>337.5</ele><time>2026-04-18T10:07:57.998Z</time></trkpt><trkpt lat="43.519972281430235" lon="10.877519027098423"><ele>339.75</ele><time>2026-04-18T10:07:58.998Z</time></trkpt><trkpt lat="43.52000666729514" lon="10.877689336570606"><ele>342.0</ele><time>2026-04-18T10:07:59.998Z</time></trkpt><trkpt lat="43.52005054339639" lon="10.87785089489901"><ele>343.0</ele><time>2026-04-18T10:08:00.998Z</time></trkpt><trkpt lat="43.5200960544227" lon="10.877996605096557"><ele>344.0</ele><time>2026-04-18T10:08:01.998Z</time></trkpt><trkpt lat="43.52013676623343" lon="10.878132230943852"><ele>345.0</ele><time>2026-04-18T10:08:02.998Z</time></trkpt><trkpt lat="43.52017073753571" lon="10.8782610331584"><ele>346.0</ele><time>2026-04-18T10:08:03.998Z</time></trkpt><trkpt lat="43.52019898800087" lon="10.87838040401485"><ele>347.0</ele><time>2026-04-18T10:08:05Z</time></trkpt><trkpt lat="43.5202226262166" lon="10.878487033365568"><ele>345.1666666666667</ele><time>2026-04-18T10:08:06Z</time></trkpt><trkpt lat="43.52023923786008" lon="10.87858733789042"><ele>343.33333333333337</ele><time>2026-04-18T10:08:07Z</time></trkpt><trkpt lat="43.52023588959233" lon="10.87867796898663"><ele>341.5</ele><time>2026-04-18T10:08:08Z</time></trkpt><trkpt lat="43.52022058498111" lon="10.878775113592564"><ele>339.6666666666667</ele><time>2026-04-18T10:08:09Z</time></trkpt><trkpt lat="43.52019112933085" lon="10.878871704525807"><ele>337.8333333333333</ele><time>2026-04-18T10:08:10Z</time></trkpt><trkpt lat="43.520142819589346" lon="10.878968529364688"><ele>336.0</ele><time>2026-04-18T10:08:11Z</time></trkpt><trkpt lat="43.52008774692924" lon="10.879078470858689"><ele>336.0</ele><time>2026-04-18T10:08:12Z</time></trkpt><trkpt lat="43.5200103766314" lon="10.87915698645729"><ele>336.0</ele><time>2026-04-18T10:08:13Z</time></trkpt><trkpt lat="43.519920335981524" lon="10.879201292305764"><ele>336.0</ele><time>2026-04-18T10:08:14Z</time></trkpt><trkpt lat="43.51982819534676" lon="10.879215564964152"><ele>336.0</ele><time>2026-04-18T10:08:15Z</time></trkpt><trkpt lat="43.5197306773285" lon="10.879193550547463"><ele>336.0</ele><time>2026-04-18T10:08:16Z</time></trkpt><trkpt lat="43.51963025910096" lon="10.879163444269292"><ele>337.4</ele><time>2026-04-18T10:08:17Z</time></trkpt><trkpt lat="43.51952652301491" lon="10.879141698552724"><ele>338.8</ele><time>2026-04-18T10:08:18Z</time></trkpt><trkpt lat="43.51942005774417" lon="10.879120026410911"><ele>340.2</ele><time>2026-04-18T10:08:19Z</time></trkpt><trkpt lat="43.51931669650814" lon="10.879103223733237"><ele>341.59999999999997</ele><time>2026-04-18T10:08:20Z</time></trkpt><trkpt lat="43.519214719694034" lon="10.879098850042638"><ele>343.0</ele><time>2026-04-18T10:08:21Z</time></trkpt><trkpt lat="43.519121154966875" lon="10.879141692303564"><ele>343.0</ele><time>2026-04-18T10:08:22Z</time></trkpt><trkpt lat="43.51903847597277" lon="10.879170554474141"><ele>343.0</ele><time>2026-04-18T10:08:23Z</time></trkpt><trkpt lat="43.51898086968333" lon="10.879264370394177"><ele>343.0</ele><time>2026-04-18T10:08:24Z</time></trkpt><trkpt lat="43.518949315669445" lon="10.879377281285102"><ele>343.0</ele><time>2026-04-18T10:08:25Z</time></trkpt><trkpt lat="43.518949466435146" lon="10.879497296843939"><ele>343.0</ele><time>2026-04-18T10:08:26Z</time></trkpt><trkpt lat="43.518987235423666" lon="10.879608533659267"><ele>343.0</ele><time>2026-04-18T10:08:27Z</time></trkpt><trkpt lat="43.519057281176465" lon="10.87968162046977"><ele>342.66666666666663</ele><time>2026-04-18T10:08:28Z</time></trkpt><trkpt lat="43.51913891452126" lon="10.879716180466412"><ele>342.3333333333333</ele><time>2026-04-18T10:08:29Z</time></trkpt><trkpt lat="43.51922426700065" lon="10.879737577055273"><ele>342.0</ele><time>2026-04-18T10:08:30Z</time></trkpt><trkpt lat="43.51931676963661" lon="10.879748579555036"><ele>341.6666666666667</ele><time>2026-04-18T10:08:31Z</time></trkpt><trkpt lat="43.51940475863218" lon="10.879784450459399"><ele>341.33333333333337</ele><time>2026-04-18T10:08:32Z</time></trkpt><trkpt lat="43.519486808776875" lon="10.879841755794725"><ele>341.0</ele><time>2026-04-18T10:08:33Z</time></trkpt><trkpt lat="43.519548266286755" lon="10.87992486822767"><ele>339.33333333333337</ele><time>2026-04-18T10:08:34Z</time></trkpt><trkpt lat="43.51960033257296" lon="10.880011317191597"><ele>337.6666666666667</ele><time>2026-04-18T10:08:35Z</time></trkpt><trkpt lat="43.51962657402508" lon="10.880102000863268"><ele>336.0</ele><time>2026-04-18T10:08:36Z</time></trkpt><trkpt lat="43.519626749638846" lon="10.880199650996312"><ele>334.3333333333333</ele><time>2026-04-18T10:08:37Z</time></trkpt><trkpt lat="43.51960377202006" lon="10.88030343088863"><ele>332.66666666666663</ele><time>2026-04-18T10:08:37.999Z</time></trkpt><trkpt lat="43.51957883483477" lon="10.880424955457205"><ele>331.0</ele><time>2026-04-18T10:08:38.999Z</time></trkpt><trkpt lat="43.51955720977936" lon="10.88055828454757"><ele>332.8</ele><time>2026-04-18T10:08:39.999Z</time></trkpt><trkpt lat="43.51954653147231" lon="10.880707379896789"><ele>334.6</ele><time>2026-04-18T10:08:40.999Z</time></trkpt><trkpt lat="43.5195528603172" lon="10.8808572110653"><ele>336.4</ele><time>2026-04-18T10:08:41.999Z</time></trkpt><trkpt lat="43.51959144952704" lon="10.8809914858019"><ele>338.2</ele><time>2026-04-18T10:08:42.999Z</time></trkpt><trkpt lat="43.519579640123254" lon="10.881129194951788"><ele>340.0</ele><time>2026-04-18T10:08:43.999Z</time></trkpt><trkpt lat="43.519566326803535" lon="10.88127102097328"><ele>344.2</ele><time>2026-04-18T10:08:44.999Z</time></trkpt><trkpt lat="43.51953917051583" lon="10.881417292033454"><ele>348.4</ele><time>2026-04-18T10:08:45.999Z</time></trkpt><trkpt lat="43.51951236827503" lon="10.88156565033794"><ele>352.6</ele><time>2026-04-18T10:08:46.999Z</time></trkpt><trkpt lat="43.519491430348374" lon="10.881715637084405"><ele>356.8</ele><time>2026-04-18T10:08:47.999Z</time></trkpt><trkpt lat="43.51949824684008" lon="10.881867195537778"><ele>361.0</ele><time>2026-04-18T10:08:48.999Z</time></trkpt><trkpt lat="43.51949142428703" lon="10.882017919943886"><ele>361.0</ele><time>2026-04-18T10:08:49.999Z</time></trkpt><trkpt lat="43.5195236141632" lon="10.882166837106212"><ele>361.0</ele><time>2026-04-18T10:08:50.999Z</time></trkpt><trkpt lat="43.5195721050214" lon="10.882306570010755"><ele>361.0</ele><time>2026-04-18T10:08:51.999Z</time></trkpt><trkpt lat="43.51962108448381" lon="10.882435635233469"><ele>361.0</ele><time>2026-04-18T10:08:52.999Z</time></trkpt><trkpt lat="43.51967153501887" lon="10.882561369444357"><ele>361.0</ele><time>2026-04-18T10:08:53.999Z</time></trkpt><trkpt lat="43.51973219809899" lon="10.882681150410566"><ele>361.0</ele><time>2026-04-18T10:08:54.999Z</time></trkpt><trkpt lat="43.519818235749455" lon="10.882781324343098"><ele>361.0</ele><time>2026-04-18T10:08:55.999Z</time></trkpt><trkpt lat="43.51991229107838" lon="10.88285705836136"><ele>361.0</ele><time>2026-04-18T10:08:56.999Z</time></trkpt><trkpt lat="43.52000229792887" lon="10.882926561057708"><ele>361.0</ele><time>2026-04-18T10:08:57.999Z</time></trkpt><trkpt lat="43.52008886127379" lon="10.883000313545034"><ele>361.0</ele><time>2026-04-18T10:08:58.999Z</time></trkpt><trkpt lat="43.52017244802162" lon="10.883066444310241"><ele>361.0</ele><time>2026-04-18T10:08:59.999Z</time></trkpt><trkpt lat="43.52025567281327" lon="10.883120309429504"><ele>361.0</ele><time>2026-04-18T10:09:00.999Z</time></trkpt><trkpt lat="43.52034088557913" lon="10.883144884099197"><ele>361.0</ele><time>2026-04-18T10:09:01.999Z</time></trkpt><trkpt lat="43.52042475469874" lon="10.883166729270327"><ele>361.0</ele><time>2026-04-18T10:09:02.999Z</time></trkpt><trkpt lat="43.520514167471156" lon="10.883143239663141"><ele>361.0</ele><time>2026-04-18T10:09:03.999Z</time></trkpt><trkpt lat="43.520597211132014" lon="10.883089685243043"><ele>361.0</ele><time>2026-04-18T10:09:04.999Z</time></trkpt><trkpt lat="43.52068778683562" lon="10.883072466036438"><ele>360.0</ele><time>2026-04-18T10:09:05.999Z</time></trkpt><trkpt lat="43.520771799032474" lon="10.883057202543284"><ele>359.0</ele><time>2026-04-18T10:09:06.999Z</time></trkpt><trkpt lat="43.52087089125511" lon="10.883059189630664"><ele>358.0</ele><time>2026-04-18T10:09:07.999Z</time></trkpt><trkpt lat="43.520957822590056" lon="10.88312737451991"><ele>357.0</ele><time>2026-04-18T10:09:08.999Z</time></trkpt><trkpt lat="43.52105041264084" lon="10.883192519209311"><ele>356.0</ele><time>2026-04-18T10:09:09.999Z</time></trkpt><trkpt lat="43.52114303201408" lon="10.88325944262899"><ele>356.0</ele><time>2026-04-18T10:09:10.999Z</time></trkpt><trkpt lat="43.52121433064832" lon="10.883349615110866"><ele>356.0</ele><time>2026-04-18T10:09:11.999Z</time></trkpt><trkpt lat="43.52127117062502" lon="10.88345261391615"><ele>356.0</ele><time>2026-04-18T10:09:12.999Z</time></trkpt><trkpt lat="43.52131012200154" lon="10.8835650858045"><ele>356.0</ele><time>2026-04-18T10:09:13.999Z</time></trkpt><trkpt lat="43.52133636264355" lon="10.883681257172848"><ele>356.0</ele><time>2026-04-18T10:09:14.999Z</time></trkpt><trkpt lat="43.521334281035465" lon="10.883793505210416"><ele>356.83333333333337</ele><time>2026-04-18T10:09:15.999Z</time></trkpt><trkpt lat="43.52131481012655" lon="10.88390147927918"><ele>357.6666666666667</ele><time>2026-04-18T10:09:16.999Z</time></trkpt><trkpt lat="43.52127773914939" lon="10.883990708955212"><ele>358.5</ele><time>2026-04-18T10:09:17.999Z</time></trkpt><trkpt lat="43.52124263598074" lon="10.884087547259561"><ele>359.3333333333333</ele><time>2026-04-18T10:09:18.999Z</time></trkpt><trkpt lat="43.52118079717994" lon="10.884162670525901"><ele>360.16666666666663</ele><time>2026-04-18T10:09:19.999Z</time></trkpt><trkpt lat="43.5211344083354" lon="10.884259153408701"><ele>361.0</ele><time>2026-04-18T10:09:20.999Z</time></trkpt><trkpt lat="43.52109339879977" lon="10.884373052140536"><ele>362.20000000000005</ele><time>2026-04-18T10:09:21.999Z</time></trkpt><trkpt lat="43.52108174967647" lon="10.884507192882525"><ele>363.40000000000003</ele><time>2026-04-18T10:09:22.999Z</time></trkpt><trkpt lat="43.521097003672296" lon="10.884648697561971"><ele>364.6</ele><time>2026-04-18T10:09:23.999Z</time></trkpt><trkpt lat="43.52113522448691" lon="10.884795291729766"><ele>365.8</ele><time>2026-04-18T10:09:24.999Z</time></trkpt><trkpt lat="43.521176832411115" lon="10.884941174365968"><ele>367.0</ele><time>2026-04-18T10:09:25.999Z</time></trkpt><trkpt lat="43.52122429055952" lon="10.88509265066485"><ele>364.5</ele><time>2026-04-18T10:09:26.999Z</time></trkpt><trkpt lat="43.52127606257735" lon="10.885242974927781"><ele>362.0</ele><time>2026-04-18T10:09:27.999Z</time></trkpt><trkpt lat="43.52133956280261" lon="10.885394061283183"><ele>359.5</ele><time>2026-04-18T10:09:28.999Z</time></trkpt><trkpt lat="43.52141315691825" lon="10.885532546438522"><ele>357.0</ele><time>2026-04-18T10:09:29.999Z</time></trkpt><trkpt lat="43.521489961170296" lon="10.885667683440586"><ele>357.0</ele><time>2026-04-18T10:09:30.999Z</time></trkpt><trkpt lat="43.521569654978116" lon="10.885798435084245"><ele>357.0</ele><time>2026-04-18T10:09:31.999Z</time></trkpt><trkpt lat="43.52164629098487" lon="10.885920717932088"><ele>357.0</ele><time>2026-04-18T10:09:32.999Z</time></trkpt><trkpt lat="43.521712277046504" lon="10.886051853631207"><ele>357.0</ele><time>2026-04-18T10:09:33.999Z</time></trkpt><trkpt lat="43.52177488864483" lon="10.88619202550755"><ele>360.25</ele><time>2026-04-18T10:09:34.999Z</time></trkpt><trkpt lat="43.52183320694201" lon="10.886339374943333"><ele>363.5</ele><time>2026-04-18T10:09:35.999Z</time></trkpt><trkpt lat="43.5218903020852" lon="10.886493761442773"><ele>366.75</ele><time>2026-04-18T10:09:36.999Z</time></trkpt><trkpt lat="43.52194793172751" lon="10.886650248491788"><ele>370.0</ele><time>2026-04-18T10:09:37.999Z</time></trkpt><trkpt lat="43.52200556423837" lon="10.886808051796688"><ele>368.5</ele><time>2026-04-18T10:09:38.999Z</time></trkpt><trkpt lat="43.52206314188992" lon="10.886965704862357"><ele>367.0</ele><time>2026-04-18T10:09:39.999Z</time></trkpt><trkpt lat="43.52213300383746" lon="10.887114911674026"><ele>365.5</ele><time>2026-04-18T10:09:40.999Z</time></trkpt><trkpt lat="43.52219298465018" lon="10.887271205982575"><ele>364.0</ele><time>2026-04-18T10:09:41.999Z</time></trkpt><trkpt lat="43.5222448660628" lon="10.887427698930141"><ele>364.0</ele><time>2026-04-18T10:09:42.999Z</time></trkpt><trkpt lat="43.522300027677936" lon="10.887573531876907"><ele>364.0</ele><time>2026-04-18T10:09:43.999Z</time></trkpt><trkpt lat="43.52234649910209" lon="10.887720144834732"><ele>364.0</ele><time>2026-04-18T10:09:44.998Z</time></trkpt><trkpt lat="43.52237379709364" lon="10.88786165169532"><ele>364.0</ele><time>2026-04-18T10:09:45.998Z</time></trkpt><trkpt lat="43.522384137408544" lon="10.88800987143013"><ele>364.0</ele><time>2026-04-18T10:09:46.998Z</time></trkpt><trkpt lat="43.52237790215517" lon="10.888160594689502"><ele>366.0</ele><time>2026-04-18T10:09:47.998Z</time></trkpt><trkpt lat="43.52236432337616" lon="10.888311075222603"><ele>368.0</ele><time>2026-04-18T10:09:48.998Z</time></trkpt><trkpt lat="43.522348979301206" lon="10.888465851649627"><ele>370.0</ele><time>2026-04-18T10:09:49.998Z</time></trkpt><trkpt lat="43.52233652510629" lon="10.888621395383378"><ele>372.0</ele><time>2026-04-18T10:09:50.998Z</time></trkpt><trkpt lat="43.52232228175693" lon="10.888777686767597"><ele>374.0</ele><time>2026-04-18T10:09:51.998Z</time></trkpt><trkpt lat="43.52230589077732" lon="10.888937736778978"><ele>376.0</ele><time>2026-04-18T10:09:52.998Z</time></trkpt><trkpt lat="43.52229209685731" lon="10.889098652181021"><ele>378.0</ele><time>2026-04-18T10:09:53.998Z</time></trkpt><trkpt lat="43.522275101150626" lon="10.889254895163486"><ele>380.0</ele><time>2026-04-18T10:09:54.998Z</time></trkpt><trkpt lat="43.52226099545766" lon="10.88940409354567"><ele>381.6</ele><time>2026-04-18T10:09:55.998Z</time></trkpt><trkpt lat="43.52224607263678" lon="10.889549971237166"><ele>383.2</ele><time>2026-04-18T10:09:56.998Z</time></trkpt><trkpt lat="43.522228728939176" lon="10.88969548384537"><ele>384.79999999999995</ele><time>2026-04-18T10:09:57.998Z</time></trkpt><trkpt lat="43.52221155211376" lon="10.889844418282268"><ele>386.4</ele><time>2026-04-18T10:09:58.998Z</time></trkpt><trkpt lat="43.522195897524334" lon="10.889995109568103"><ele>388.0</ele><time>2026-04-18T10:09:59.998Z</time></trkpt><trkpt lat="43.52218408596668" lon="10.890145825531063"><ele>389.0</ele><time>2026-04-18T10:10:00.998Z</time></trkpt><trkpt lat="43.52219157259495" lon="10.89030329792853"><ele>390.0</ele><time>2026-04-18T10:10:01.998Z</time></trkpt><trkpt lat="43.522211556884564" lon="10.890461263047554"><ele>391.0</ele><time>2026-04-18T10:10:02.998Z</time></trkpt><trkpt lat="43.52224281978863" lon="10.890621611021057"><ele>392.0</ele><time>2026-04-18T10:10:03.998Z</time></trkpt><trkpt lat="43.52228562828027" lon="10.890783632407164"><ele>393.0</ele><time>2026-04-18T10:10:04.998Z</time></trkpt><trkpt lat="43.52233396255919" lon="10.89094852673566"><ele>394.0</ele><time>2026-04-18T10:10:05.998Z</time></trkpt><trkpt lat="43.52238644648103" lon="10.89111564244795"><ele>395.0</ele><time>2026-04-18T10:10:06.998Z</time></trkpt><trkpt lat="43.52244328990766" lon="10.891285981353773"><ele>396.0</ele><time>2026-04-18T10:10:07.998Z</time></trkpt><trkpt lat="43.52249890397017" lon="10.891452204350548"><ele>396.0</ele><time>2026-04-18T10:10:08.998Z</time></trkpt><trkpt lat="43.522555357728955" lon="10.891618551147932"><ele>396.0</ele><time>2026-04-18T10:10:09.998Z</time></trkpt><trkpt lat="43.522609435063764" lon="10.89178191626141"><ele>396.0</ele><time>2026-04-18T10:10:11Z</time></trkpt><trkpt lat="43.52266089684784" lon="10.891945629511332"><ele>396.0</ele><time>2026-04-18T10:10:12Z</time></trkpt><trkpt lat="43.522712581896165" lon="10.892104247529307"><ele>397.0</ele><time>2026-04-18T10:10:13Z</time></trkpt><trkpt lat="43.52276442252309" lon="10.892259789174728"><ele>398.0</ele><time>2026-04-18T10:10:14Z</time></trkpt><trkpt lat="43.52281640055764" lon="10.892415823912522"><ele>399.0</ele><time>2026-04-18T10:10:15Z</time></trkpt><trkpt lat="43.52286984301154" lon="10.89257399561597"><ele>400.0</ele><time>2026-04-18T10:10:16Z</time></trkpt><trkpt lat="43.52291812086338" lon="10.892738499193356"><ele>400.0</ele><time>2026-04-18T10:10:17Z</time></trkpt><trkpt lat="43.522974426609224" lon="10.89290900486567"><ele>400.0</ele><time>2026-04-18T10:10:18Z</time></trkpt><trkpt lat="43.523033511362954" lon="10.893084278227796"><ele>400.0</ele><time>2026-04-18T10:10:19Z</time></trkpt><trkpt lat="43.523088789306556" lon="10.89326025344428"><ele>400.0</ele><time>2026-04-18T10:10:20Z</time></trkpt><trkpt lat="43.523140556463055" lon="10.893435839130435"><ele>402.0</ele><time>2026-04-18T10:10:21Z</time></trkpt><trkpt lat="43.52319360853396" lon="10.893604853108911"><ele>404.0</ele><time>2026-04-18T10:10:22Z</time></trkpt><trkpt lat="43.52324447787809" lon="10.89376431643825"><ele>406.0</ele><time>2026-04-18T10:10:23Z</time></trkpt><trkpt lat="43.5232930175652" lon="10.893925207834958"><ele>408.0</ele><time>2026-04-18T10:10:24Z</time></trkpt><trkpt lat="43.52332723903091" lon="10.894096488811668"><ele>408.0</ele><time>2026-04-18T10:10:25Z</time></trkpt><trkpt lat="43.52339769864655" lon="10.894238776052395"><ele>408.0</ele><time>2026-04-18T10:10:26Z</time></trkpt><trkpt lat="43.52345719041865" lon="10.8943861490837"><ele>408.0</ele><time>2026-04-18T10:10:27Z</time></trkpt><trkpt lat="43.523504354923546" lon="10.894540734242042"><ele>408.0</ele><time>2026-04-18T10:10:28Z</time></trkpt><trkpt lat="43.52356433658333" lon="10.894682219561775"><ele>407.79999999999995</ele><time>2026-04-18T10:10:29Z</time></trkpt><trkpt lat="43.52363751214755" lon="10.894806199581996"><ele>407.6</ele><time>2026-04-18T10:10:30Z</time></trkpt><trkpt lat="43.52367576395453" lon="10.894948296063593"><ele>407.4</ele><time>2026-04-18T10:10:31Z</time></trkpt><trkpt lat="43.523711586161625" lon="10.895061842156448"><ele>407.20000000000005</ele><time>2026-04-18T10:10:32Z</time></trkpt><trkpt lat="43.523739193304685" lon="10.895158928088925"><ele>407.0</ele><time>2026-04-18T10:10:33Z</time></trkpt><trkpt lat="43.52379020412232" lon="10.895289238879307"><ele>406.99999999999994</ele><time>2026-04-18T10:10:35Z</time></trkpt><trkpt lat="43.5237964969381" lon="10.895377355106678"><ele>407.0</ele><time>2026-04-18T10:10:37Z</time></trkpt><trkpt lat="43.52381928129432" lon="10.895483405774204"><ele>407.0</ele><time>2026-04-18T10:10:39Z</time></trkpt><trkpt lat="43.523856715812784" lon="10.895651293154733"><ele>407.0</ele><time>2026-04-18T10:10:41Z</time></trkpt><trkpt lat="43.52388224340502" lon="10.895760083617821"><ele>406.99999999999994</ele><time>2026-04-18T10:10:42Z</time></trkpt><trkpt lat="43.52391107705761" lon="10.895882963338618"><ele>407.0</ele><time>2026-04-18T10:10:43Z</time></trkpt><trkpt lat="43.52394223792876" lon="10.896015761232983"><ele>408.25</ele><time>2026-04-18T10:10:44Z</time></trkpt><trkpt lat="43.523975508650324" lon="10.89615755048593"><ele>409.5</ele><time>2026-04-18T10:10:45Z</time></trkpt><trkpt lat="43.52400976599638" lon="10.896305171639186"><ele>410.75</ele><time>2026-04-18T10:10:46Z</time></trkpt><trkpt lat="43.524044728454705" lon="10.896456434963936"><ele>412.0</ele><time>2026-04-18T10:10:47Z</time></trkpt><trkpt lat="43.524079809710635" lon="10.896608212335753"><ele>412.25</ele><time>2026-04-18T10:10:48Z</time></trkpt><trkpt lat="43.52411492106156" lon="10.896760119792932"><ele>412.5</ele><time>2026-04-18T10:10:49Z</time></trkpt><trkpt lat="43.524151400130165" lon="10.89691794474344"><ele>412.75</ele><time>2026-04-18T10:10:50Z</time></trkpt><trkpt lat="43.5241890672953" lon="10.897080909909384"><ele>413.0</ele><time>2026-04-18T10:10:51Z</time></trkpt><trkpt lat="43.52422599169784" lon="10.897240661556552"><ele>413.0</ele><time>2026-04-18T10:10:52Z</time></trkpt><trkpt lat="43.52426241340695" lon="10.897398760315617"><ele>413.0</ele><time>2026-04-18T10:10:53Z</time></trkpt><trkpt lat="43.524296226591474" lon="10.897545888412274"><ele>413.0</ele><time>2026-04-18T10:10:53.999Z</time></trkpt><trkpt lat="43.524328305525295" lon="10.897685470445255"><ele>413.0</ele><time>2026-04-18T10:10:54.999Z</time></trkpt><trkpt lat="43.524357227877" lon="10.897808662482788"><ele>413.0</ele><time>2026-04-18T10:10:55.999Z</time></trkpt><trkpt lat="43.52438400158724" lon="10.89790680408661"><ele>414.0</ele><time>2026-04-18T10:10:56.999Z</time></trkpt><trkpt lat="43.5244043678488" lon="10.89805616029641"><ele>415.0</ele><time>2026-04-18T10:10:58.999Z</time></trkpt><trkpt lat="43.52434831735251" lon="10.898181797880797"><ele>416.0</ele><time>2026-04-18T10:11:00.999Z</time></trkpt><trkpt lat="43.52429933914236" lon="10.898251968842604"><ele>417.0</ele><time>2026-04-18T10:11:01.999Z</time></trkpt><trkpt lat="43.52423421675435" lon="10.898331264271066"><ele>418.0</ele><time>2026-04-18T10:11:02.999Z</time></trkpt><trkpt lat="43.524158067421226" lon="10.898415300276552"><ele>420.5</ele><time>2026-04-18T10:11:03.999Z</time></trkpt><trkpt lat="43.5240730027466" lon="10.898513455171134"><ele>423.0</ele><time>2026-04-18T10:11:04.999Z</time></trkpt><trkpt lat="43.52398404648004" lon="10.898615785718926"><ele>425.5</ele><time>2026-04-18T10:11:05.999Z</time></trkpt><trkpt lat="43.52389097654136" lon="10.898726056907297"><ele>428.0</ele><time>2026-04-18T10:11:06.999Z</time></trkpt><trkpt lat="43.523788670154566" lon="10.89883926906589"><ele>427.5</ele><time>2026-04-18T10:11:07.999Z</time></trkpt><trkpt lat="43.52368552630719" lon="10.898958751428845"><ele>427.0</ele><time>2026-04-18T10:11:08.999Z</time></trkpt><trkpt lat="43.52357410438823" lon="10.89907383802527"><ele>426.5</ele><time>2026-04-18T10:11:09.999Z</time></trkpt><trkpt lat="43.52346097701897" lon="10.899183737307586"><ele>426.0</ele><time>2026-04-18T10:11:10.999Z</time></trkpt><trkpt lat="43.52334436773444" lon="10.89928730278743"><ele>426.0</ele><time>2026-04-18T10:11:11.999Z</time></trkpt><trkpt lat="43.52322561535963" lon="10.899381734977437"><ele>426.0</ele><time>2026-04-18T10:11:12.999Z</time></trkpt><trkpt lat="43.52310572657452" lon="10.89946689004152"><ele>426.0</ele><time>2026-04-18T10:11:13.999Z</time></trkpt><trkpt lat="43.522985140236926" lon="10.899539812976263"><ele>426.0</ele><time>2026-04-18T10:11:14.999Z</time></trkpt><trkpt lat="43.52286176573252" lon="10.899605241993195"><ele>426.5</ele><time>2026-04-18T10:11:15.999Z</time></trkpt><trkpt lat="43.5227336012051" lon="10.899665384429941"><ele>427.0</ele><time>2026-04-18T10:11:16.999Z</time></trkpt><trkpt lat="43.522601318260925" lon="10.89972139581105"><ele>427.5</ele><time>2026-04-18T10:11:17.999Z</time></trkpt><trkpt lat="43.52246764642953" lon="10.899779800836795"><ele>428.0</ele><time>2026-04-18T10:11:18.999Z</time></trkpt><trkpt lat="43.52233340761136" lon="10.89983865512125"><ele>428.0</ele><time>2026-04-18T10:11:19.999Z</time></trkpt><trkpt lat="43.522200488408664" lon="10.899897919528527"><ele>428.0</ele><time>2026-04-18T10:11:20.999Z</time></trkpt><trkpt lat="43.52206763427808" lon="10.899962779390583"><ele>428.0</ele><time>2026-04-18T10:11:21.999Z</time></trkpt><trkpt lat="43.52193740976439" lon="10.900044312083327"><ele>428.0</ele><time>2026-04-18T10:11:22.999Z</time></trkpt><trkpt lat="43.521808845911536" lon="10.900144477301701"><ele>429.66666666666663</ele><time>2026-04-18T10:11:23.999Z</time></trkpt><trkpt lat="43.52168131511039" lon="10.900261896175078"><ele>431.33333333333337</ele><time>2026-04-18T10:11:24.999Z</time></trkpt><trkpt lat="43.52155377760651" lon="10.900391108197004"><ele>433.0</ele><time>2026-04-18T10:11:25.999Z</time></trkpt><trkpt lat="43.5214273269775" lon="10.900525273760941"><ele>433.0</ele><time>2026-04-18T10:11:26.999Z</time></trkpt><trkpt lat="43.52130029990181" lon="10.900659330304801"><ele>433.0</ele><time>2026-04-18T10:11:27.999Z</time></trkpt><trkpt lat="43.52117373225692" lon="10.900802035125682"><ele>433.0</ele><time>2026-04-18T10:11:28.999Z</time></trkpt><trkpt lat="43.52104323688848" lon="10.900947611596736"><ele>435.0</ele><time>2026-04-18T10:11:29.999Z</time></trkpt><trkpt lat="43.52091290248952" lon="10.901093581513615"><ele>437.0</ele><time>2026-04-18T10:11:30.999Z</time></trkpt><trkpt lat="43.520780786408885" lon="10.901240951253069"><ele>439.0</ele><time>2026-04-18T10:11:31.999Z</time></trkpt><trkpt lat="43.52064620737124" lon="10.901390000130274"><ele>439.0</ele><time>2026-04-18T10:11:32.999Z</time></trkpt><trkpt lat="43.520509523642744" lon="10.901541603120323"><ele>439.0</ele><time>2026-04-18T10:11:33.999Z</time></trkpt><trkpt lat="43.52037228641014" lon="10.901693660269068"><ele>439.0</ele><time>2026-04-18T10:11:34.999Z</time></trkpt><trkpt lat="43.52023472311955" lon="10.901843688951194"><ele>438.0</ele><time>2026-04-18T10:11:35.999Z</time></trkpt><trkpt lat="43.520097626752005" lon="10.90198985839665"><ele>437.0</ele><time>2026-04-18T10:11:36.999Z</time></trkpt><trkpt lat="43.51996118414627" lon="10.90213078749425"><ele>436.0</ele><time>2026-04-18T10:11:37.999Z</time></trkpt><trkpt lat="43.519821804158944" lon="10.902263460547834"><ele>436.0</ele><time>2026-04-18T10:11:38.999Z</time></trkpt><trkpt lat="43.519676257743654" lon="10.902379474830479"><ele>436.0</ele><time>2026-04-18T10:11:39.999Z</time></trkpt><trkpt lat="43.519525037971476" lon="10.902482663575954"><ele>436.0</ele><time>2026-04-18T10:11:40.999Z</time></trkpt><trkpt lat="43.519370743522956" lon="10.902559919905514"><ele>438.0</ele><time>2026-04-18T10:11:41.999Z</time></trkpt><trkpt lat="43.519208784042675" lon="10.902615570129512"><ele>440.0</ele><time>2026-04-18T10:11:42.999Z</time></trkpt><trkpt lat="43.5190383225347" lon="10.902650926553338"><ele>442.0</ele><time>2026-04-18T10:11:43.999Z</time></trkpt><trkpt lat="43.51886540280318" lon="10.902666456824576"><ele>441.6666666666667</ele><time>2026-04-18T10:11:44.999Z</time></trkpt><trkpt lat="43.518688181773136" lon="10.902675961932811"><ele>441.33333333333337</ele><time>2026-04-18T10:11:45.999Z</time></trkpt><trkpt lat="43.5185076313694" lon="10.902682389408378"><ele>441.0</ele><time>2026-04-18T10:11:46.999Z</time></trkpt><trkpt lat="43.51832828520255" lon="10.90268626716904"><ele>441.0</ele><time>2026-04-18T10:11:47.999Z</time></trkpt><trkpt lat="43.518157615719055" lon="10.902691100909976"><ele>441.0</ele><time>2026-04-18T10:11:48.999Z</time></trkpt><trkpt lat="43.517994303815705" lon="10.902698096965862"><ele>441.0</ele><time>2026-04-18T10:11:49.999Z</time></trkpt><trkpt lat="43.517841871338554" lon="10.902703743067923"><ele>443.25</ele><time>2026-04-18T10:11:50.999Z</time></trkpt><trkpt lat="43.51769810846334" lon="10.902702243793309"><ele>445.5</ele><time>2026-04-18T10:11:51.999Z</time></trkpt><trkpt lat="43.51756421266091" lon="10.902686392924288"><ele>447.75</ele><time>2026-04-18T10:11:52.999Z</time></trkpt><trkpt lat="43.517435285782575" lon="10.902649089523425"><ele>450.0</ele><time>2026-04-18T10:11:53.999Z</time></trkpt><trkpt lat="43.51731223916277" lon="10.902589490556293"><ele>449.75</ele><time>2026-04-18T10:11:54.999Z</time></trkpt><trkpt lat="43.51719478318944" lon="10.902507933978287"><ele>449.5</ele><time>2026-04-18T10:11:55.999Z</time></trkpt><trkpt lat="43.51708413537025" lon="10.902404454864904"><ele>449.25</ele><time>2026-04-18T10:11:56.999Z</time></trkpt><trkpt lat="43.516978538420844" lon="10.902285161577879"><ele>449.0</ele><time>2026-04-18T10:11:57.998Z</time></trkpt><trkpt lat="43.51687280262509" lon="10.902157733195692"><ele>451.75</ele><time>2026-04-18T10:11:58.998Z</time></trkpt><trkpt lat="43.51676353334482" lon="10.902025515376632"><ele>454.5</ele><time>2026-04-18T10:11:59.998Z</time></trkpt><trkpt lat="43.51665267010015" lon="10.901894331202753"><ele>457.25</ele><time>2026-04-18T10:12:00.998Z</time></trkpt><trkpt lat="43.51654234593824" lon="10.901762393031818"><ele>460.0</ele><time>2026-04-18T10:12:01.998Z</time></trkpt><trkpt lat="43.51642828621485" lon="10.90163199309463"><ele>460.0</ele><time>2026-04-18T10:12:02.998Z</time></trkpt><trkpt lat="43.516311093779386" lon="10.901509283814194"><ele>460.0</ele><time>2026-04-18T10:12:03.998Z</time></trkpt><trkpt lat="43.516187520293315" lon="10.901394833415647"><ele>460.0</ele><time>2026-04-18T10:12:04.998Z</time></trkpt><trkpt lat="43.516056858989785" lon="10.901286944828549"><ele>460.0</ele><time>2026-04-18T10:12:05.998Z</time></trkpt><trkpt lat="43.515920436908026" lon="10.90118520608625"><ele>461.33333333333337</ele><time>2026-04-18T10:12:06.998Z</time></trkpt><trkpt lat="43.5157796866773" lon="10.901086588245478"><ele>462.66666666666663</ele><time>2026-04-18T10:12:07.998Z</time></trkpt><trkpt lat="43.51563665067964" lon="10.900989214666113"><ele>464.0</ele><time>2026-04-18T10:12:08.998Z</time></trkpt><trkpt lat="43.5154933899256" lon="10.900896195106082"><ele>467.0</ele><time>2026-04-18T10:12:09.998Z</time></trkpt><trkpt lat="43.51535105218405" lon="10.900806006741478"><ele>470.0</ele><time>2026-04-18T10:12:10.998Z</time></trkpt><trkpt lat="43.51521052243761" lon="10.900718378038446"><ele>473.0</ele><time>2026-04-18T10:12:11.998Z</time></trkpt><trkpt lat="43.515078321343296" lon="10.900633846280739"><ele>473.0</ele><time>2026-04-18T10:12:12.998Z</time></trkpt><trkpt lat="43.51494941297512" lon="10.900552624533207"><ele>473.0</ele><time>2026-04-18T10:12:13.998Z</time></trkpt><trkpt lat="43.514817879631195" lon="10.90047126506653"><ele>473.0</ele><time>2026-04-18T10:12:14.998Z</time></trkpt><trkpt lat="43.51468282384418" lon="10.900387692208769"><ele>473.0</ele><time>2026-04-18T10:12:15.998Z</time></trkpt><trkpt lat="43.514547045237194" lon="10.900294698734346"><ele>474.66666666666663</ele><time>2026-04-18T10:12:17Z</time></trkpt><trkpt lat="43.51441476618414" lon="10.900194459229946"><ele>476.33333333333337</ele><time>2026-04-18T10:12:18Z</time></trkpt><trkpt lat="43.51428599224376" lon="10.90007511075947"><ele>478.0</ele><time>2026-04-18T10:12:19Z</time></trkpt><trkpt lat="43.514156174608644" lon="10.89994530037118"><ele>478.0</ele><time>2026-04-18T10:12:20Z</time></trkpt><trkpt lat="43.514024048938964" lon="10.899804140260304"><ele>478.0</ele><time>2026-04-18T10:12:21Z</time></trkpt><trkpt lat="43.513891691159905" lon="10.899660855856952"><ele>478.0</ele><time>2026-04-18T10:12:22Z</time></trkpt><trkpt lat="43.51376441911092" lon="10.899523310550169"><ele>477.33333333333337</ele><time>2026-04-18T10:12:23Z</time></trkpt><trkpt lat="43.5136414201972" lon="10.8993881790116"><ele>476.66666666666663</ele><time>2026-04-18T10:12:24Z</time></trkpt><trkpt lat="43.51351880679626" lon="10.899263539993665"><ele>476.0</ele><time>2026-04-18T10:12:25Z</time></trkpt><trkpt lat="43.51339080483645" lon="10.89915464381304"><ele>476.5</ele><time>2026-04-18T10:12:26Z</time></trkpt><trkpt lat="43.51325948455164" lon="10.899060425693424"><ele>477.0</ele><time>2026-04-18T10:12:27Z</time></trkpt><trkpt lat="43.51312292789504" lon="10.89898518857914"><ele>477.5</ele><time>2026-04-18T10:12:28Z</time></trkpt><trkpt lat="43.512982069792734" lon="10.89893188823792"><ele>478.0</ele><time>2026-04-18T10:12:29Z</time></trkpt><trkpt lat="43.512834571752315" lon="10.898905900847053"><ele>478.0</ele><time>2026-04-18T10:12:30Z</time></trkpt><trkpt lat="43.51268614895355" lon="10.898906609627373"><ele>478.0</ele><time>2026-04-18T10:12:31Z</time></trkpt><trkpt lat="43.51253876522993" lon="10.898931435507711"><ele>478.0</ele><time>2026-04-18T10:12:32Z</time></trkpt><trkpt lat="43.51239613936696" lon="10.898982060675664"><ele>478.0</ele><time>2026-04-18T10:12:33Z</time></trkpt><trkpt lat="43.51226056063381" lon="10.899062303407266"><ele>478.0</ele><time>2026-04-18T10:12:34Z</time></trkpt><trkpt lat="43.51213380408162" lon="10.899167826736317"><ele>478.0</ele><time>2026-04-18T10:12:35Z</time></trkpt><trkpt lat="43.51202111355402" lon="10.899298780865374"><ele>478.0</ele><time>2026-04-18T10:12:36Z</time></trkpt><trkpt lat="43.5119248062376" lon="10.899452152489905"><ele>478.0</ele><time>2026-04-18T10:12:37Z</time></trkpt><trkpt lat="43.511846297781744" lon="10.899623389753295"><ele>479.5</ele><time>2026-04-18T10:12:38Z</time></trkpt><trkpt lat="43.51179158839658" lon="10.899810990254274"><ele>481.0</ele><time>2026-04-18T10:12:39Z</time></trkpt><trkpt lat="43.511755993099726" lon="10.90001045715166"><ele>482.5</ele><time>2026-04-18T10:12:40Z</time></trkpt><trkpt lat="43.51174153431527" lon="10.900215827892564"><ele>484.0</ele><time>2026-04-18T10:12:41Z</time></trkpt><trkpt lat="43.51173733626238" lon="10.900423997805769"><ele>484.0</ele><time>2026-04-18T10:12:42Z</time></trkpt><trkpt lat="43.51174837864982" lon="10.900638191507262"><ele>484.0</ele><time>2026-04-18T10:12:43Z</time></trkpt><trkpt lat="43.51177373735639" lon="10.900853312993803"><ele>484.0</ele><time>2026-04-18T10:12:44Z</time></trkpt><trkpt lat="43.511811692219425" lon="10.901066392441876"><ele>484.0</ele><time>2026-04-18T10:12:45Z</time></trkpt><trkpt lat="43.511866541644736" lon="10.901274426118627"><ele>484.0</ele><time>2026-04-18T10:12:46Z</time></trkpt><trkpt lat="43.511931585116386" lon="10.901472001400762"><ele>484.0</ele><time>2026-04-18T10:12:47Z</time></trkpt><trkpt lat="43.51199782928307" lon="10.901660952520837"><ele>483.75</ele><time>2026-04-18T10:12:48Z</time></trkpt><trkpt lat="43.51205971819185" lon="10.901847152026933"><ele>483.5</ele><time>2026-04-18T10:12:49Z</time></trkpt><trkpt lat="43.512115894038104" lon="10.9020361478153"><ele>483.25</ele><time>2026-04-18T10:12:50Z</time></trkpt><trkpt lat="43.512158968478516" lon="10.902231770032888"><ele>483.0</ele><time>2026-04-18T10:12:51Z</time></trkpt><trkpt lat="43.512187633397495" lon="10.902436046211458"><ele>483.33333333333337</ele><time>2026-04-18T10:12:52Z</time></trkpt><trkpt lat="43.512199721222366" lon="10.902644548631699"><ele>483.6666666666667</ele><time>2026-04-18T10:12:53Z</time></trkpt><trkpt lat="43.51219438959212" lon="10.902856483189073"><ele>484.0</ele><time>2026-04-18T10:12:54Z</time></trkpt><trkpt lat="43.512181707388436" lon="10.903072072559196"><ele>484.0</ele><time>2026-04-18T10:12:55Z</time></trkpt><trkpt lat="43.512164957966036" lon="10.903291197113479"><ele>484.0</ele><time>2026-04-18T10:12:56Z</time></trkpt><trkpt lat="43.512145568560115" lon="10.903509724321902"><ele>484.0</ele><time>2026-04-18T10:12:57Z</time></trkpt><trkpt lat="43.51212685641209" lon="10.903724698981724"><ele>484.33333333333337</ele><time>2026-04-18T10:12:58Z</time></trkpt><trkpt lat="43.51210775792251" lon="10.903934173205348"><ele>484.66666666666663</ele><time>2026-04-18T10:12:59Z</time></trkpt><trkpt lat="43.51206852069525" lon="10.904131595765284"><ele>485.0</ele><time>2026-04-18T10:13:00Z</time></trkpt><trkpt lat="43.51202029817605" lon="10.904333793506835"><ele>486.66666666666663</ele><time>2026-04-18T10:13:01Z</time></trkpt><trkpt lat="43.51192799932986" lon="10.904496859021677"><ele>488.33333333333337</ele><time>2026-04-18T10:13:02Z</time></trkpt><trkpt lat="43.51180971461032" lon="10.904637209984047"><ele>490.0</ele><time>2026-04-18T10:13:03Z</time></trkpt><trkpt lat="43.5116704834909" lon="10.90474244550453"><ele>490.0</ele><time>2026-04-18T10:13:04Z</time></trkpt><trkpt lat="43.51151386122434" lon="10.90481226242368"><ele>490.0</ele><time>2026-04-18T10:13:05Z</time></trkpt><trkpt lat="43.51135181094138" lon="10.90486443534384"><ele>490.0</ele><time>2026-04-18T10:13:05.999Z</time></trkpt><trkpt lat="43.511185330324246" lon="10.904922280268528"><ele>489.33333333333337</ele><time>2026-04-18T10:13:06.999Z</time></trkpt><trkpt lat="43.51101404619701" lon="10.904982977550636"><ele>488.66666666666663</ele><time>2026-04-18T10:13:07.999Z</time></trkpt><trkpt lat="43.51084033877927" lon="10.905047888393595"><ele>488.0</ele><time>2026-04-18T10:13:08.999Z</time></trkpt><trkpt lat="43.51066332169859" lon="10.905112976631083"><ele>487.0</ele><time>2026-04-18T10:13:09.999Z</time></trkpt><trkpt lat="43.51048308969047" lon="10.905176576925026"><ele>486.0</ele><time>2026-04-18T10:13:10.999Z</time></trkpt><trkpt lat="43.510301114729806" lon="10.905245041017947"><ele>485.0</ele><time>2026-04-18T10:13:11.999Z</time></trkpt><trkpt lat="43.510114649239405" lon="10.905312527737157"><ele>487.0</ele><time>2026-04-18T10:13:12.999Z</time></trkpt><trkpt lat="43.50992421942824" lon="10.905376640674175"><ele>489.0</ele><time>2026-04-18T10:13:13.999Z</time></trkpt><trkpt lat="43.50973271328732" lon="10.905443015321532"><ele>491.0</ele><time>2026-04-18T10:13:14.999Z</time></trkpt><trkpt lat="43.50953954568599" lon="10.905512749810102"><ele>493.66666666666663</ele><time>2026-04-18T10:13:15.999Z</time></trkpt><trkpt lat="43.509344495190525" lon="10.905583003778705"><ele>496.33333333333337</ele><time>2026-04-18T10:13:16.999Z</time></trkpt><trkpt lat="43.50914841819904" lon="10.905652661253681"><ele>499.0</ele><time>2026-04-18T10:13:17.999Z</time></trkpt><trkpt lat="43.50895285602052" lon="10.905722402717332"><ele>499.0</ele><time>2026-04-18T10:13:18.999Z</time></trkpt><trkpt lat="43.50875770142411" lon="10.90579254587146"><ele>499.0</ele><time>2026-04-18T10:13:19.999Z</time></trkpt><trkpt lat="43.50856412092593" lon="10.90586171869171"><ele>499.0</ele><time>2026-04-18T10:13:20.999Z</time></trkpt><trkpt lat="43.50837493027735" lon="10.905925839995577"><ele>501.6666666666667</ele><time>2026-04-18T10:13:21.999Z</time></trkpt><trkpt lat="43.508193173774515" lon="10.905988231960913"><ele>504.33333333333337</ele><time>2026-04-18T10:13:22.999Z</time></trkpt><trkpt lat="43.50801908861844" lon="10.90604759375471"><ele>507.0</ele><time>2026-04-18T10:13:23.999Z</time></trkpt><trkpt lat="43.50785248946352" lon="10.906107532631726"><ele>508.0</ele><time>2026-04-18T10:13:24.999Z</time></trkpt><trkpt lat="43.507699588665425" lon="10.906187399884208"><ele>509.0</ele><time>2026-04-18T10:13:25.999Z</time></trkpt><trkpt lat="43.50755560268011" lon="10.906290603613115"><ele>510.0</ele><time>2026-04-18T10:13:26.999Z</time></trkpt><trkpt lat="43.507416406310604" lon="10.906417285670148"><ele>510.0</ele><time>2026-04-18T10:13:27.999Z</time></trkpt><trkpt lat="43.50728178831141" lon="10.906559450867762"><ele>510.0</ele><time>2026-04-18T10:13:28.999Z</time></trkpt><trkpt lat="43.507148820693985" lon="10.906713859901831"><ele>510.0</ele><time>2026-04-18T10:13:29.999Z</time></trkpt><trkpt lat="43.5070099039124" lon="10.906869656664961"><ele>513.3333333333334</ele><time>2026-04-18T10:13:30.999Z</time></trkpt><trkpt lat="43.506870189427424" lon="10.907027982996656"><ele>516.6666666666667</ele><time>2026-04-18T10:13:31.999Z</time></trkpt><trkpt lat="43.50673128896742" lon="10.907188285253715"><ele>520.0</ele><time>2026-04-18T10:13:32.999Z</time></trkpt><trkpt lat="43.50659419739533" lon="10.907343096550346"><ele>520.0</ele><time>2026-04-18T10:13:33.999Z</time></trkpt><trkpt lat="43.506454824022896" lon="10.907470692709547"><ele>520.0</ele><time>2026-04-18T10:13:34.999Z</time></trkpt><trkpt lat="43.506326396868374" lon="10.907614055224633"><ele>520.0</ele><time>2026-04-18T10:13:35.999Z</time></trkpt><trkpt lat="43.50620072574451" lon="10.90775256413752"><ele>521.3333333333334</ele><time>2026-04-18T10:13:36.999Z</time></trkpt><trkpt lat="43.50608426407532" lon="10.907898686552223"><ele>522.6666666666666</ele><time>2026-04-18T10:13:37.999Z</time></trkpt><trkpt lat="43.505947421590996" lon="10.90800430113988"><ele>524.0</ele><time>2026-04-18T10:13:38.999Z</time></trkpt><trkpt lat="43.505798250561114" lon="10.908088431949421"><ele>524.0</ele><time>2026-04-18T10:13:39.999Z</time></trkpt><trkpt lat="43.50564320651536" lon="10.90814741082301"><ele>524.0</ele><time>2026-04-18T10:13:40.999Z</time></trkpt><trkpt lat="43.50548254120569" lon="10.908177821673961"><ele>524.0</ele><time>2026-04-18T10:13:41.999Z</time></trkpt><trkpt lat="43.505318141132975" lon="10.908175891907145"><ele>525.3333333333333</ele><time>2026-04-18T10:13:42.999Z</time></trkpt><trkpt lat="43.50514954709581" lon="10.908151780698349"><ele>526.6666666666666</ele><time>2026-04-18T10:13:43.999Z</time></trkpt><trkpt lat="43.50497823363967" lon="10.908123636193746"><ele>528.0</ele><time>2026-04-18T10:13:44.999Z</time></trkpt><trkpt lat="43.504802967486256" lon="10.908097562932145"><ele>528.0</ele><time>2026-04-18T10:13:45.999Z</time></trkpt><trkpt lat="43.50462635518869" lon="10.908074631626334"><ele>528.0</ele><time>2026-04-18T10:13:46.999Z</time></trkpt><trkpt lat="43.50444759509764" lon="10.908052074527163"><ele>528.0</ele><time>2026-04-18T10:13:47.999Z</time></trkpt><trkpt lat="43.504269717721726" lon="10.90802257386765"><ele>530.0</ele><time>2026-04-18T10:13:48.999Z</time></trkpt><trkpt lat="43.50409271464483" lon="10.907992884863098"><ele>532.0</ele><time>2026-04-18T10:13:49.999Z</time></trkpt><trkpt lat="43.50391471718629" lon="10.907967687512457"><ele>534.0</ele><time>2026-04-18T10:13:50.999Z</time></trkpt><trkpt lat="43.503736137855974" lon="10.907943190476187"><ele>534.6666666666666</ele><time>2026-04-18T10:13:51.999Z</time></trkpt><trkpt lat="43.503556876262344" lon="10.907916211095092"><ele>535.3333333333333</ele><time>2026-04-18T10:13:52.999Z</time></trkpt><trkpt lat="43.50337948110288" lon="10.907885785148217"><ele>536.0</ele><time>2026-04-18T10:13:53.999Z</time></trkpt><trkpt lat="43.503202805768964" lon="10.907856299855169"><ele>536.0</ele><time>2026-04-18T10:13:54.999Z</time></trkpt><trkpt lat="43.50302744621432" lon="10.907829080119097"><ele>536.0</ele><time>2026-04-18T10:13:55.999Z</time></trkpt><trkpt lat="43.50285365911689" lon="10.907803196420971"><ele>536.0</ele><time>2026-04-18T10:13:56.999Z</time></trkpt><trkpt lat="43.502682803555636" lon="10.907777133707791"><ele>535.3333333333333</ele><time>2026-04-18T10:13:57.999Z</time></trkpt><trkpt lat="43.50251633517642" lon="10.907749992604678"><ele>534.6666666666666</ele><time>2026-04-18T10:13:58.999Z</time></trkpt><trkpt lat="43.50235329840023" lon="10.907724514138781"><ele>534.0</ele><time>2026-04-18T10:13:59.999Z</time></trkpt><trkpt lat="43.50219878520669" lon="10.907702671137224"><ele>534.75</ele><time>2026-04-18T10:14:00.999Z</time></trkpt><trkpt lat="43.502057973670304" lon="10.907685905579743"><ele>535.5</ele><time>2026-04-18T10:14:01.999Z</time></trkpt><trkpt lat="43.501923388040694" lon="10.907675411408102"><ele>536.25</ele><time>2026-04-18T10:14:02.999Z</time></trkpt><trkpt lat="43.501792823647655" lon="10.907688315631423"><ele>537.0</ele><time>2026-04-18T10:14:03.999Z</time></trkpt><trkpt lat="43.50166915919443" lon="10.907733451543075"><ele>537.0</ele><time>2026-04-18T10:14:04.999Z</time></trkpt><trkpt lat="43.50154692644181" lon="10.907803950827118"><ele>537.0</ele><time>2026-04-18T10:14:05.999Z</time></trkpt><trkpt lat="43.50141684866401" lon="10.907883547789366"><ele>537.0</ele><time>2026-04-18T10:14:06.998Z</time></trkpt><trkpt lat="43.50130357263243" lon="10.908017775454141"><ele>537.0</ele><time>2026-04-18T10:14:07.998Z</time></trkpt><trkpt lat="43.50121349957847" lon="10.90819245434548"><ele>538.6666666666666</ele><time>2026-04-18T10:14:08.998Z</time></trkpt><trkpt lat="43.50112044105646" lon="10.908359448047815"><ele>540.3333333333333</ele><time>2026-04-18T10:14:09.998Z</time></trkpt><trkpt lat="43.50103023778383" lon="10.908531145369782"><ele>542.0</ele><time>2026-04-18T10:14:10.998Z</time></trkpt><trkpt lat="43.5009487226187" lon="10.908713723746908"><ele>542.0</ele><time>2026-04-18T10:14:11.998Z</time></trkpt><trkpt lat="43.500877086112354" lon="10.908905772737464"><ele>542.0</ele><time>2026-04-18T10:14:12.998Z</time></trkpt><trkpt lat="43.50081513054092" lon="10.909103444948192"><ele>542.0</ele><time>2026-04-18T10:14:13.998Z</time></trkpt><trkpt lat="43.500759147352746" lon="10.909299168792927"><ele>542.0</ele><time>2026-04-18T10:14:14.998Z</time></trkpt><trkpt lat="43.500709470372655" lon="10.909488870449334"><ele>542.0</ele><time>2026-04-18T10:14:15.998Z</time></trkpt><trkpt lat="43.50066425820505" lon="10.9096687612138"><ele>542.0</ele><time>2026-04-18T10:14:16.998Z</time></trkpt><trkpt lat="43.50062362541025" lon="10.9098399801697"><ele>542.0</ele><time>2026-04-18T10:14:17.998Z</time></trkpt><trkpt lat="43.500589909725505" lon="10.910000390836604"><ele>543.0</ele><time>2026-04-18T10:14:18.998Z</time></trkpt><trkpt lat="43.50057043845865" lon="10.910158953056795"><ele>544.0</ele><time>2026-04-18T10:14:19.998Z</time></trkpt><trkpt lat="43.50056929770282" lon="10.91030836894126"><ele>545.0</ele><time>2026-04-18T10:14:20.998Z</time></trkpt><trkpt lat="43.50056420569497" lon="10.910461439578485"><ele>546.0</ele><time>2026-04-18T10:14:21.998Z</time></trkpt><trkpt lat="43.50060469070411" lon="10.910618492792638"><ele>546.0</ele><time>2026-04-18T10:14:23Z</time></trkpt><trkpt lat="43.500635551310545" lon="10.910785773140665"><ele>546.0</ele><time>2026-04-18T10:14:24Z</time></trkpt><trkpt lat="43.50065142826664" lon="10.910967760080304"><ele>546.0</ele><time>2026-04-18T10:14:25Z</time></trkpt><trkpt lat="43.50068570701487" lon="10.911157193052711"><ele>546.0</ele><time>2026-04-18T10:14:26Z</time></trkpt><trkpt lat="43.5007209552117" lon="10.911347838614681"><ele>546.0</ele><time>2026-04-18T10:14:27Z</time></trkpt><trkpt lat="43.500769385797106" lon="10.911531466144568"><ele>546.0</ele><time>2026-04-18T10:14:28Z</time></trkpt><trkpt lat="43.50078954859646" lon="10.91172491844605"><ele>546.0</ele><time>2026-04-18T10:14:29Z</time></trkpt><trkpt lat="43.50078433410152" lon="10.911912374277122"><ele>546.0</ele><time>2026-04-18T10:14:30Z</time></trkpt><trkpt lat="43.500754172587925" lon="10.912099752691507"><ele>544.3333333333334</ele><time>2026-04-18T10:14:31Z</time></trkpt><trkpt lat="43.50070356691036" lon="10.912288991188225"><ele>542.6666666666667</ele><time>2026-04-18T10:14:32Z</time></trkpt><trkpt lat="43.50063893643563" lon="10.912481702178509"><ele>541.0</ele><time>2026-04-18T10:14:33Z</time></trkpt><trkpt lat="43.500569656445805" lon="10.91268473741111"><ele>539.6666666666667</ele><time>2026-04-18T10:14:34Z</time></trkpt><trkpt lat="43.50049818603545" lon="10.912892163823123"><ele>538.3333333333334</ele><time>2026-04-18T10:14:35Z</time></trkpt><trkpt lat="43.500418281287644" lon="10.913099170115116"><ele>537.0</ele><time>2026-04-18T10:14:36Z</time></trkpt><trkpt lat="43.50033160104285" lon="10.913299039412825"><ele>537.3333333333334</ele><time>2026-04-18T10:14:37Z</time></trkpt><trkpt lat="43.50023951817066" lon="10.913491588558099"><ele>537.6666666666667</ele><time>2026-04-18T10:14:38Z</time></trkpt><trkpt lat="43.50014911044997" lon="10.913675454154472"><ele>538.0</ele><time>2026-04-18T10:14:39Z</time></trkpt><trkpt lat="43.50006302745587" lon="10.913856116280924"><ele>538.0</ele><time>2026-04-18T10:14:40Z</time></trkpt><trkpt lat="43.4999851681405" lon="10.9140198385408"><ele>538.0</ele><time>2026-04-18T10:14:41Z</time></trkpt><trkpt lat="43.4999179853095" lon="10.914179616705265"><ele>538.0</ele><time>2026-04-18T10:14:42Z</time></trkpt><trkpt lat="43.4998682706404" lon="10.914341531291537"><ele>538.0</ele><time>2026-04-18T10:14:43Z</time></trkpt><trkpt lat="43.499824311615995" lon="10.914509039211897"><ele>538.0</ele><time>2026-04-18T10:14:44Z</time></trkpt><trkpt lat="43.49983566588526" lon="10.914696084878193"><ele>538.0</ele><time>2026-04-18T10:14:45Z</time></trkpt><trkpt lat="43.49985092184399" lon="10.914883571731856"><ele>538.0</ele><time>2026-04-18T10:14:46Z</time></trkpt><trkpt lat="43.49987473220985" lon="10.915083078903006"><ele>538.0</ele><time>2026-04-18T10:14:47Z</time></trkpt><trkpt lat="43.49990187342926" lon="10.915293738914793"><ele>537.75</ele><time>2026-04-18T10:14:48Z</time></trkpt><trkpt lat="43.499929926957506" lon="10.915499957359438"><ele>537.5</ele><time>2026-04-18T10:14:49Z</time></trkpt><trkpt lat="43.49995761812537" lon="10.915702294658"><ele>537.25</ele><time>2026-04-18T10:14:50Z</time></trkpt><trkpt lat="43.49998215702823" lon="10.91589965384779"><ele>537.0</ele><time>2026-04-18T10:14:51Z</time></trkpt><trkpt lat="43.499996148095796" lon="10.916095393594775"><ele>536.5</ele><time>2026-04-18T10:14:52Z</time></trkpt><trkpt lat="43.49998440779236" lon="10.916287921270312"><ele>536.0</ele><time>2026-04-18T10:14:53Z</time></trkpt><trkpt lat="43.49994623126198" lon="10.91647063969116"><ele>535.5</ele><time>2026-04-18T10:14:54Z</time></trkpt><trkpt lat="43.499876149351756" lon="10.916632058904222"><ele>535.0</ele><time>2026-04-18T10:14:55Z</time></trkpt><trkpt lat="43.49976758858225" lon="10.916750004500928"><ele>536.0</ele><time>2026-04-18T10:14:56Z</time></trkpt><trkpt lat="43.49965211689239" lon="10.916850978991226"><ele>537.0</ele><time>2026-04-18T10:14:57Z</time></trkpt><trkpt lat="43.499535359940104" lon="10.916968106839688"><ele>538.0</ele><time>2026-04-18T10:14:58Z</time></trkpt><trkpt lat="43.49940326388277" lon="10.91706958819356"><ele>539.0</ele><time>2026-04-18T10:14:59Z</time></trkpt><trkpt lat="43.499273297723214" lon="10.917166286784267"><ele>540.0</ele><time>2026-04-18T10:15:00Z</time></trkpt><trkpt lat="43.49915036224877" lon="10.917259268953195"><ele>541.0</ele><time>2026-04-18T10:15:01Z</time></trkpt><trkpt lat="43.49902962563648" lon="10.917354250778903"><ele>542.0</ele><time>2026-04-18T10:15:02Z</time></trkpt><trkpt lat="43.49891759303563" lon="10.917450588955102"><ele>543.0</ele><time>2026-04-18T10:15:03Z</time></trkpt><trkpt lat="43.498809610571556" lon="10.917538576179963"><ele>541.75</ele><time>2026-04-18T10:15:04Z</time></trkpt><trkpt lat="43.49870041053709" lon="10.917616845469096"><ele>540.5</ele><time>2026-04-18T10:15:05Z</time></trkpt><trkpt lat="43.49857954884803" lon="10.91764883088803"><ele>539.25</ele><time>2026-04-18T10:15:06Z</time></trkpt><trkpt lat="43.49845867054621" lon="10.917677552960697"><ele>538.0</ele><time>2026-04-18T10:15:07Z</time></trkpt><trkpt lat="43.49833984049059" lon="10.91771445395184"><ele>538.0</ele><time>2026-04-18T10:15:08Z</time></trkpt><trkpt lat="43.498224475579406" lon="10.917736061880651"><ele>538.0</ele><time>2026-04-18T10:15:09Z</time></trkpt><trkpt lat="43.49811413747029" lon="10.9177552792147"><ele>538.0</ele><time>2026-04-18T10:15:09.999Z</time></trkpt><trkpt lat="43.49801047271261" lon="10.917846049812077"><ele>538.0</ele><time>2026-04-18T10:15:10.999Z</time></trkpt><trkpt lat="43.49795862374138" lon="10.918003063719103"><ele>538.0</ele><time>2026-04-18T10:15:11.999Z</time></trkpt><trkpt lat="43.4979090189381" lon="10.91816483787953"><ele>538.0</ele><time>2026-04-18T10:15:12.999Z</time></trkpt><trkpt lat="43.49785874153692" lon="10.918346305897732"><ele>538.0</ele><time>2026-04-18T10:15:13.999Z</time></trkpt><trkpt lat="43.49778824066098" lon="10.918537299588964"><ele>538.0</ele><time>2026-04-18T10:15:14.999Z</time></trkpt><trkpt lat="43.49774576385238" lon="10.918758494404424"><ele>538.0</ele><time>2026-04-18T10:15:15.999Z</time></trkpt><trkpt lat="43.49768321538212" lon="10.918964341949044"><ele>538.0</ele><time>2026-04-18T10:15:16.999Z</time></trkpt><trkpt lat="43.49760387253904" lon="10.919150839895703"><ele>538.0</ele><time>2026-04-18T10:15:17.999Z</time></trkpt><trkpt lat="43.497537204267886" lon="10.919338788907787"><ele>536.5</ele><time>2026-04-18T10:15:18.999Z</time></trkpt><trkpt lat="43.49748731686662" lon="10.919527027856368"><ele>535.0</ele><time>2026-04-18T10:15:19.999Z</time></trkpt><trkpt lat="43.49742935366571" lon="10.919699091463961"><ele>533.5</ele><time>2026-04-18T10:15:20.999Z</time></trkpt><trkpt lat="43.49739332661197" lon="10.919889232377129"><ele>532.0</ele><time>2026-04-18T10:15:21.999Z</time></trkpt><trkpt lat="43.49738915367648" lon="10.920091096545526"><ele>530.75</ele><time>2026-04-18T10:15:22.999Z</time></trkpt><trkpt lat="43.49738870683511" lon="10.920280630571625"><ele>529.5</ele><time>2026-04-18T10:15:23.999Z</time></trkpt><trkpt lat="43.49739726701279" lon="10.920451848474594"><ele>528.25</ele><time>2026-04-18T10:15:24.999Z</time></trkpt><trkpt lat="43.497404002846295" lon="10.920607167334369"><ele>527.0</ele><time>2026-04-18T10:15:25.999Z</time></trkpt><trkpt lat="43.49740057984754" lon="10.920740098007183"><ele>527.0</ele><time>2026-04-18T10:15:26.999Z</time></trkpt><trkpt lat="43.49733161443066" lon="10.92083660535817"><ele>527.0</ele><time>2026-04-18T10:15:27.999Z</time></trkpt><trkpt lat="43.49724936554869" lon="10.920906826323069"><ele>527.0</ele><time>2026-04-18T10:15:28.999Z</time></trkpt><trkpt lat="43.49714575267176" lon="10.920966805002047"><ele>527.0</ele><time>2026-04-18T10:15:29.999Z</time></trkpt><trkpt lat="43.49702468691988" lon="10.921031480294548"><ele>527.0</ele><time>2026-04-18T10:15:30.999Z</time></trkpt><trkpt lat="43.49689243719043" lon="10.921116317373528"><ele>524.75</ele><time>2026-04-18T10:15:31.999Z</time></trkpt><trkpt lat="43.496753574908894" lon="10.921174911687938"><ele>522.5</ele><time>2026-04-18T10:15:32.999Z</time></trkpt><trkpt lat="43.496617858550316" lon="10.921237304404182"><ele>520.25</ele><time>2026-04-18T10:15:33.999Z</time></trkpt><trkpt lat="43.496491696330764" lon="10.921328086267367"><ele>518.0</ele><time>2026-04-18T10:15:34.999Z</time></trkpt><trkpt lat="43.49638113618409" lon="10.921453359660356"><ele>518.0</ele><time>2026-04-18T10:15:35.999Z</time></trkpt><trkpt lat="43.496287435939806" lon="10.921605439882377"><ele>518.0</ele><time>2026-04-18T10:15:36.999Z</time></trkpt><trkpt lat="43.49619776196389" lon="10.921787889909798"><ele>518.0</ele><time>2026-04-18T10:15:37.999Z</time></trkpt><trkpt lat="43.496108843537606" lon="10.921975148647416"><ele>517.6666666666666</ele><time>2026-04-18T10:15:38.999Z</time></trkpt><trkpt lat="43.49602359980438" lon="10.92216397108677"><ele>517.3333333333334</ele><time>2026-04-18T10:15:39.999Z</time></trkpt><trkpt lat="43.495939133841986" lon="10.922350641772814"><ele>517.0</ele><time>2026-04-18T10:15:40.999Z</time></trkpt><trkpt lat="43.49585534012004" lon="10.922530196191698"><ele>517.6666666666667</ele><time>2026-04-18T10:15:41.999Z</time></trkpt><trkpt lat="43.49576938220135" lon="10.922705055496488"><ele>518.3333333333334</ele><time>2026-04-18T10:15:42.999Z</time></trkpt><trkpt lat="43.49566550067599" lon="10.922871757040458"><ele>519.0</ele><time>2026-04-18T10:15:43.999Z</time></trkpt><trkpt lat="43.495547474213566" lon="10.923032076103112"><ele>517.6666666666666</ele><time>2026-04-18T10:15:44.999Z</time></trkpt><trkpt lat="43.49541699301103" lon="10.923185565339447"><ele>516.3333333333333</ele><time>2026-04-18T10:15:45.999Z</time></trkpt><trkpt lat="43.49528411531392" lon="10.923338001453203"><ele>515.0</ele><time>2026-04-18T10:15:46.999Z</time></trkpt><trkpt lat="43.495156322502446" lon="10.923487853390926"><ele>515.0</ele><time>2026-04-18T10:15:47.999Z</time></trkpt><trkpt lat="43.495034720970594" lon="10.9236336715652"><ele>515.0</ele><time>2026-04-18T10:15:48.999Z</time></trkpt><trkpt lat="43.494915430840884" lon="10.92377633148428"><ele>515.0</ele><time>2026-04-18T10:15:49.999Z</time></trkpt><trkpt lat="43.494803538813365" lon="10.92391769748925"><ele>515.0</ele><time>2026-04-18T10:15:50.999Z</time></trkpt><trkpt lat="43.49469316884731" lon="10.924058900723947"><ele>515.0</ele><time>2026-04-18T10:15:51.999Z</time></trkpt><trkpt lat="43.49458513798138" lon="10.924203278955494"><ele>515.0</ele><time>2026-04-18T10:15:52.999Z</time></trkpt><trkpt lat="43.494476407969735" lon="10.924346409787963"><ele>513.0</ele><time>2026-04-18T10:15:53.999Z</time></trkpt><trkpt lat="43.49436845977222" lon="10.924488297458117"><ele>511.0</ele><time>2026-04-18T10:15:54.999Z</time></trkpt><trkpt lat="43.49426498131823" lon="10.924632902484404"><ele>509.0</ele><time>2026-04-18T10:15:55.999Z</time></trkpt><trkpt lat="43.49416663536689" lon="10.924770181585117"><ele>507.0</ele><time>2026-04-18T10:15:56.999Z</time></trkpt><trkpt lat="43.494075478555615" lon="10.924896463640978"><ele>507.0</ele><time>2026-04-18T10:15:57.999Z</time></trkpt><trkpt lat="43.49400132708166" lon="10.925020164351817"><ele>507.0</ele><time>2026-04-18T10:15:58.999Z</time></trkpt><trkpt lat="43.49395205515263" lon="10.925171053538445"><ele>507.0</ele><time>2026-04-18T10:15:59.999Z</time></trkpt><trkpt lat="43.49392184005644" lon="10.925337722854191"><ele>507.0</ele><time>2026-04-18T10:16:00.999Z</time></trkpt><trkpt lat="43.493912685889185" lon="10.925527336076657"><ele>506.0</ele><time>2026-04-18T10:16:01.999Z</time></trkpt><trkpt lat="43.4939120321463" lon="10.9257278608577"><ele>505.0</ele><time>2026-04-18T10:16:02.999Z</time></trkpt><trkpt lat="43.49390724318033" lon="10.925931952406222"><ele>504.0</ele><time>2026-04-18T10:16:03.999Z</time></trkpt><trkpt lat="43.49390099738802" lon="10.926121481974276"><ele>503.0</ele><time>2026-04-18T10:16:04.999Z</time></trkpt><trkpt lat="43.49390032946462" lon="10.926283116661729"><ele>502.0</ele><time>2026-04-18T10:16:05.998Z</time></trkpt><trkpt lat="43.49388225000415" lon="10.926418765763371"><ele>500.99999999999994</ele><time>2026-04-18T10:16:06.998Z</time></trkpt><trkpt lat="43.493883409835846" lon="10.9265368085186"><ele>499.99999999999994</ele><time>2026-04-18T10:16:07.998Z</time></trkpt><trkpt lat="43.49388589329816" lon="10.92663270450227"><ele>499.0</ele><time>2026-04-18T10:16:08.998Z</time></trkpt><trkpt lat="43.49387486137444" lon="10.926749040655626"><ele>498.0</ele><time>2026-04-18T10:16:10.998Z</time></trkpt><trkpt lat="43.493780339959706" lon="10.92683056075781"><ele>498.0</ele><time>2026-04-18T10:16:11.998Z</time></trkpt><trkpt lat="43.49371043733065" lon="10.92690163704073"><ele>497.99999999999994</ele><time>2026-04-18T10:16:12.998Z</time></trkpt><trkpt lat="43.49363077362959" lon="10.9269923361888"><ele>497.99999999999994</ele><time>2026-04-18T10:16:13.998Z</time></trkpt><trkpt lat="43.49354608287164" lon="10.927097135284095"><ele>498.0</ele><time>2026-04-18T10:16:14.998Z</time></trkpt><trkpt lat="43.493455373531475" lon="10.927222842671444"><ele>498.0</ele><time>2026-04-18T10:16:15.998Z</time></trkpt><trkpt lat="43.493359888759066" lon="10.927362748183834"><ele>498.0</ele><time>2026-04-18T10:16:16.998Z</time></trkpt><trkpt lat="43.49326089899339" lon="10.927519873621502"><ele>498.0</ele><time>2026-04-18T10:16:17.998Z</time></trkpt><trkpt lat="43.49315814340153" lon="10.927678159363927"><ele>498.0</ele><time>2026-04-18T10:16:18.998Z</time></trkpt><trkpt lat="43.49305297995256" lon="10.927833985900145"><ele>496.66666666666663</ele><time>2026-04-18T10:16:19.998Z</time></trkpt><trkpt lat="43.492940495545454" lon="10.927988457350423"><ele>495.3333333333333</ele><time>2026-04-18T10:16:20.998Z</time></trkpt><trkpt lat="43.49284311235132" lon="10.9281431522877"><ele>494.0</ele><time>2026-04-18T10:16:21.998Z</time></trkpt><trkpt lat="43.492741709040665" lon="10.92828651446998"><ele>491.5</ele><time>2026-04-18T10:16:22.998Z</time></trkpt><trkpt lat="43.49264989124606" lon="10.928419200160064"><ele>489.0</ele><time>2026-04-18T10:16:23.998Z</time></trkpt><trkpt lat="43.49256415571992" lon="10.928531952109338"><ele>486.5</ele><time>2026-04-18T10:16:24.998Z</time></trkpt><trkpt lat="43.49247318295393" lon="10.92863341393082"><ele>484.0</ele><time>2026-04-18T10:16:25.998Z</time></trkpt><trkpt lat="43.4923805576419" lon="10.928714484853005"><ele>484.0</ele><time>2026-04-18T10:16:26.998Z</time></trkpt><trkpt lat="43.49228392967403" lon="10.928769940146884"><ele>484.0</ele><time>2026-04-18T10:16:27.998Z</time></trkpt><trkpt lat="43.492179026542104" lon="10.92880372163034"><ele>484.0</ele><time>2026-04-18T10:16:29Z</time></trkpt><trkpt lat="43.49206537081323" lon="10.928807565658172"><ele>484.0</ele><time>2026-04-18T10:16:30Z</time></trkpt><trkpt lat="43.491950752486886" lon="10.928788993331134"><ele>484.0</ele><time>2026-04-18T10:16:31Z</time></trkpt><trkpt lat="43.491839887538454" lon="10.928735059585142"><ele>484.4</ele><time>2026-04-18T10:16:32Z</time></trkpt><trkpt lat="43.49173197922644" lon="10.928671490387702"><ele>484.79999999999995</ele><time>2026-04-18T10:16:33Z</time></trkpt><trkpt lat="43.49163391286719" lon="10.928601290165627"><ele>485.20000000000005</ele><time>2026-04-18T10:16:34Z</time></trkpt><trkpt lat="43.4915443449197" lon="10.928540682642348"><ele>485.6</ele><time>2026-04-18T10:16:35Z</time></trkpt><trkpt lat="43.49144993350335" lon="10.928502214846311"><ele>486.0</ele><time>2026-04-18T10:16:36Z</time></trkpt><trkpt lat="43.49135267677205" lon="10.92849163622619"><ele>483.8</ele><time>2026-04-18T10:16:37Z</time></trkpt><trkpt lat="43.491254486410604" lon="10.928519343986466"><ele>481.6</ele><time>2026-04-18T10:16:38Z</time></trkpt><trkpt lat="43.49116417587553" lon="10.928576388781137"><ele>479.4</ele><time>2026-04-18T10:16:39Z</time></trkpt><trkpt lat="43.491084638305466" lon="10.928658249167224"><ele>477.2</ele><time>2026-04-18T10:16:40Z</time></trkpt><trkpt lat="43.49101198376525" lon="10.928759721092861"><ele>475.0</ele><time>2026-04-18T10:16:41Z</time></trkpt><trkpt lat="43.490948025774856" lon="10.92887664724324"><ele>475.0</ele><time>2026-04-18T10:16:42Z</time></trkpt><trkpt lat="43.49088660268899" lon="10.929016833029694"><ele>475.0</ele><time>2026-04-18T10:16:43Z</time></trkpt><trkpt lat="43.49082723280465" lon="10.929167973938846"><ele>475.0</ele><time>2026-04-18T10:16:44Z</time></trkpt><trkpt lat="43.49076222391217" lon="10.929326221889966"><ele>475.0</ele><time>2026-04-18T10:16:45Z</time></trkpt><trkpt lat="43.49068920174058" lon="10.929490221613134"><ele>476.25</ele><time>2026-04-18T10:16:46Z</time></trkpt><trkpt lat="43.49061628871957" lon="10.929656340669862"><ele>477.5</ele><time>2026-04-18T10:16:47Z</time></trkpt><trkpt lat="43.49054475056197" lon="10.92982574101901"><ele>478.75</ele><time>2026-04-18T10:16:48Z</time></trkpt><trkpt lat="43.49047543618895" lon="10.929989473300092"><ele>480.0</ele><time>2026-04-18T10:16:49Z</time></trkpt><trkpt lat="43.49040833333328" lon="10.930145107606146"><ele>475.5</ele><time>2026-04-18T10:16:50Z</time></trkpt><trkpt lat="43.4903410037559" lon="10.930297413028248"><ele>471.0</ele><time>2026-04-18T10:16:51Z</time></trkpt><trkpt lat="43.490277682776295" lon="10.93044742818613"><ele>466.5</ele><time>2026-04-18T10:16:52Z</time></trkpt><trkpt lat="43.49021895660354" lon="10.930597435279571"><ele>462.0</ele><time>2026-04-18T10:16:53Z</time></trkpt><trkpt lat="43.49016951265831" lon="10.93074941734107"><ele>461.8</ele><time>2026-04-18T10:16:54Z</time></trkpt><trkpt lat="43.490128643111944" lon="10.930902968483707"><ele>461.6</ele><time>2026-04-18T10:16:55Z</time></trkpt><trkpt lat="43.49010019068791" lon="10.9310554076171"><ele>461.40000000000003</ele><time>2026-04-18T10:16:56Z</time></trkpt><trkpt lat="43.49008553458361" lon="10.931206835668013"><ele>461.20000000000005</ele><time>2026-04-18T10:16:57Z</time></trkpt><trkpt lat="43.49007482269244" lon="10.931333800937617"><ele>461.0</ele><time>2026-04-18T10:16:58Z</time></trkpt><trkpt lat="43.490071299144184" lon="10.931458326721163"><ele>461.0</ele><time>2026-04-18T10:16:59Z</time></trkpt><trkpt lat="43.49006972984837" lon="10.93156815972594"><ele>461.0</ele><time>2026-04-18T10:17:00Z</time></trkpt><trkpt lat="43.49005777479019" lon="10.931712606191464"><ele>461.0</ele><time>2026-04-18T10:17:02Z</time></trkpt><trkpt lat="43.490057898498776" lon="10.931807855868984"><ele>461.0</ele><time>2026-04-18T10:18:15.998Z</time></trkpt><trkpt lat="43.49007132565986" lon="10.93191455081288"><ele>461.0</ele><time>2026-04-18T10:18:17.998Z</time></trkpt><trkpt lat="43.490082481121185" lon="10.932094967293477"><ele>460.4</ele><time>2026-04-18T10:18:19.998Z</time></trkpt><trkpt lat="43.49008137363763" lon="10.932195727007601"><ele>459.8</ele><time>2026-04-18T10:18:20.998Z</time></trkpt><trkpt lat="43.49007695781945" lon="10.932288997558187"><ele>459.19999999999993</ele><time>2026-04-18T10:18:21.998Z</time></trkpt><trkpt lat="43.490041751201375" lon="10.932442840346257"><ele>458.59999999999997</ele><time>2026-04-18T10:18:23.998Z</time></trkpt><trkpt lat="43.49003796406031" lon="10.932620288191634"><ele>458.0</ele><time>2026-04-18T10:18:25.998Z</time></trkpt><trkpt lat="43.49005104946783" lon="10.932705895041623"><ele>457.8333333333333</ele><time>2026-04-18T10:18:26.998Z</time></trkpt><trkpt lat="43.49006806389007" lon="10.932879532254796"><ele>457.66666666666663</ele><time>2026-04-18T10:18:28.998Z</time></trkpt><trkpt lat="43.49006833836278" lon="10.932975174428337"><ele>457.5</ele><time>2026-04-18T10:18:29.998Z</time></trkpt><trkpt lat="43.490065389478744" lon="10.933073837181862"><ele>457.33333333333337</ele><time>2026-04-18T10:18:30.998Z</time></trkpt><trkpt lat="43.490073739684654" lon="10.933176955133941"><ele>457.1666666666667</ele><time>2026-04-18T10:18:31.998Z</time></trkpt><trkpt lat="43.49006613124791" lon="10.933279318542379"><ele>457.0</ele><time>2026-04-18T10:18:32.998Z</time></trkpt><trkpt lat="43.49006013134181" lon="10.933382117144967"><ele>457.1666666666667</ele><time>2026-04-18T10:18:33.998Z</time></trkpt><trkpt lat="43.49005271267202" lon="10.93348225473482"><ele>457.33333333333337</ele><time>2026-04-18T10:18:34.999Z</time></trkpt><trkpt lat="43.49004377848675" lon="10.933575372029726"><ele>457.5</ele><time>2026-04-18T10:18:35.999Z</time></trkpt><trkpt lat="43.49003478476529" lon="10.93366294670729"><ele>457.66666666666663</ele><time>2026-04-18T10:18:36.999Z</time></trkpt><trkpt lat="43.49001625230322" lon="10.933792375760506"><ele>457.8333333333333</ele><time>2026-04-18T10:18:38.999Z</time></trkpt><trkpt lat="43.489979326574094" lon="10.933895939365604"><ele>458.0</ele><time>2026-04-18T10:18:41.999Z</time></trkpt><trkpt lat="43.49005160598399" lon="10.93374899760396"><ele>457.99999999999994</ele><time>2026-04-18T10:18:59.999Z</time></trkpt><trkpt lat="43.490066664949005" lon="10.933664276698924"><ele>458.0</ele><time>2026-04-18T10:19:00.999Z</time></trkpt><trkpt lat="43.49007544736564" lon="10.93356408401086"><ele>458.0</ele><time>2026-04-18T10:19:01.999Z</time></trkpt><trkpt lat="43.49008381050878" lon="10.933449043988599"><ele>458.0</ele><time>2026-04-18T10:19:02.999Z</time></trkpt><trkpt lat="43.49008979207802" lon="10.933317208285592"><ele>457.99999999999994</ele><time>2026-04-18T10:19:03.999Z</time></trkpt><trkpt lat="43.49009293114214" lon="10.93319222322936"><ele>458.0</ele><time>2026-04-18T10:19:04.999Z</time></trkpt><trkpt lat="43.490095078604" lon="10.933046534707126"><ele>458.0</ele><time>2026-04-18T10:19:05.999Z</time></trkpt><trkpt lat="43.49009557851094" lon="10.932897697647853"><ele>457.99999999999994</ele><time>2026-04-18T10:19:06.999Z</time></trkpt><trkpt lat="43.49009646644861" lon="10.93274401865506"><ele>457.99999999999994</ele><time>2026-04-18T10:19:07.999Z</time></trkpt><trkpt lat="43.49009911980989" lon="10.932586595593657"><ele>458.0</ele><time>2026-04-18T10:19:08.999Z</time></trkpt><trkpt lat="43.49010283370038" lon="10.932429079692"><ele>458.0</ele><time>2026-04-18T10:19:09.999Z</time></trkpt><trkpt lat="43.490084317556224" lon="10.932269550726753"><ele>458.0</ele><time>2026-04-18T10:19:10.999Z</time></trkpt><trkpt lat="43.490106653642556" lon="10.932095522349723"><ele>458.0</ele><time>2026-04-18T10:19:11.999Z</time></trkpt><trkpt lat="43.4901087396622" lon="10.931923476193532"><ele>458.0</ele><time>2026-04-18T10:19:12.999Z</time></trkpt><trkpt lat="43.490110966738946" lon="10.93174778573908"><ele>458.0</ele><time>2026-04-18T10:19:13.999Z</time></trkpt><trkpt lat="43.49011122959711" lon="10.931568803680284"><ele>458.75</ele><time>2026-04-18T10:19:14.999Z</time></trkpt><trkpt lat="43.49011341236877" lon="10.931387181796055"><ele>459.5</ele><time>2026-04-18T10:19:15.999Z</time></trkpt><trkpt lat="43.490121320368694" lon="10.93120863674146"><ele>460.25</ele><time>2026-04-18T10:19:16.999Z</time></trkpt><trkpt lat="43.49014004508494" lon="10.931036096160936"><ele>461.0</ele><time>2026-04-18T10:19:17.999Z</time></trkpt><trkpt lat="43.49017242494903" lon="10.930863433012538"><ele>461.25</ele><time>2026-04-18T10:19:18.999Z</time></trkpt><trkpt lat="43.49022115681937" lon="10.930696554293185"><ele>461.5</ele><time>2026-04-18T10:19:19.999Z</time></trkpt><trkpt lat="43.49027995547235" lon="10.930534355615512"><ele>461.75</ele><time>2026-04-18T10:19:20.999Z</time></trkpt><trkpt lat="43.4903457113633" lon="10.930382860633706"><ele>462.0</ele><time>2026-04-18T10:19:21.999Z</time></trkpt><trkpt lat="43.49041186472526" lon="10.930233945979651"><ele>466.5</ele><time>2026-04-18T10:19:22.999Z</time></trkpt><trkpt lat="43.49047408084108" lon="10.930081886298904"><ele>471.0</ele><time>2026-04-18T10:19:23.999Z</time></trkpt><trkpt lat="43.49053498271974" lon="10.92992573045913"><ele>475.5</ele><time>2026-04-18T10:19:24.999Z</time></trkpt><trkpt lat="43.4905998761494" lon="10.92977027203018"><ele>480.0</ele><time>2026-04-18T10:19:25.999Z</time></trkpt><trkpt lat="43.49066405080172" lon="10.929617708990422"><ele>480.0</ele><time>2026-04-18T10:19:26.999Z</time></trkpt><trkpt lat="43.490726790585065" lon="10.92946700963507"><ele>480.0</ele><time>2026-04-18T10:19:27.999Z</time></trkpt><trkpt lat="43.49078971689033" lon="10.929323016126661"><ele>480.0</ele><time>2026-04-18T10:19:28.999Z</time></trkpt><trkpt lat="43.49084904410679" lon="10.92917778016181"><ele>480.0</ele><time>2026-04-18T10:19:29.999Z</time></trkpt><trkpt lat="43.490912068531955" lon="10.929041055663651"><ele>479.0</ele><time>2026-04-18T10:19:30.999Z</time></trkpt><trkpt lat="43.490971844110405" lon="10.928908557020028"><ele>478.0</ele><time>2026-04-18T10:19:31.999Z</time></trkpt><trkpt lat="43.49103142716356" lon="10.928782816865683"><ele>477.0</ele><time>2026-04-18T10:19:32.999Z</time></trkpt><trkpt lat="43.49110493426274" lon="10.92867194712263"><ele>476.0</ele><time>2026-04-18T10:19:33.999Z</time></trkpt><trkpt lat="43.491191765445684" lon="10.928589386088305"><ele>475.0</ele><time>2026-04-18T10:19:34.999Z</time></trkpt><trkpt lat="43.491289602668225" lon="10.928534523530235"><ele>477.2</ele><time>2026-04-18T10:19:35.999Z</time></trkpt><trkpt lat="43.491392842096666" lon="10.928519124669897"><ele>479.4</ele><time>2026-04-18T10:19:36.999Z</time></trkpt><trkpt lat="43.49149689261949" lon="10.928539776524392"><ele>481.6</ele><time>2026-04-18T10:19:37.999Z</time></trkpt><trkpt lat="43.491588599434316" lon="10.928614476138698"><ele>483.8</ele><time>2026-04-18T10:19:38.999Z</time></trkpt><trkpt lat="43.491680288621744" lon="10.928682615925597"><ele>486.0</ele><time>2026-04-18T10:19:39.999Z</time></trkpt><trkpt lat="43.49177586355713" lon="10.928745896175707"><ele>486.0</ele><time>2026-04-18T10:19:40.999Z</time></trkpt><trkpt lat="43.491875116031544" lon="10.92877573870944"><ele>486.0</ele><time>2026-04-18T10:19:41.999Z</time></trkpt><trkpt lat="43.491967500425375" lon="10.928810952868963"><ele>486.0</ele><time>2026-04-18T10:19:42.999Z</time></trkpt><trkpt lat="43.49206239740724" lon="10.928828460284958"><ele>486.0</ele><time>2026-04-18T10:19:43.999Z</time></trkpt><trkpt lat="43.49215488457065" lon="10.928828808463383"><ele>486.0</ele><time>2026-04-18T10:19:44.999Z</time></trkpt><trkpt lat="43.49224220069141" lon="10.928809075340158"><ele>485.6666666666667</ele><time>2026-04-18T10:19:45.998Z</time></trkpt><trkpt lat="43.49231614582997" lon="10.928781353731077"><ele>485.33333333333337</ele><time>2026-04-18T10:19:46.998Z</time></trkpt><trkpt lat="43.49242417335514" lon="10.928771588892069"><ele>485.0</ele><time>2026-04-18T10:19:48.998Z</time></trkpt><trkpt lat="43.49245907961979" lon="10.928855803629224"><ele>484.6666666666667</ele><time>2026-04-18T10:19:50.998Z</time></trkpt><trkpt lat="43.492518843424" lon="10.928735380694391"><ele>484.33333333333337</ele><time>2026-04-18T10:19:53.998Z</time></trkpt><trkpt lat="43.492588334134226" lon="10.928767907100669"><ele>484.0</ele><time>2026-04-18T10:26:06Z</time></trkpt><trkpt lat="43.49264899999999" lon="10.928719000000001"><ele>484.00000000000006</ele><time>2026-04-18T11:37:57.929Z</time></trkpt><trkpt lat="43.492607166666666" lon="10.928639666666667"><ele>484.0</ele><time>2026-04-18T11:38:01.953Z</time></trkpt><trkpt lat="43.49251733333334" lon="10.92864366666667"><ele>484.0</ele><time>2026-04-18T11:38:04.921Z</time></trkpt><trkpt lat="43.49243616666666" lon="10.928688333333334"><ele>484.0</ele><time>2026-04-18T11:38:06.93Z</time></trkpt><trkpt lat="43.49233483333334" lon="10.928745"><ele>484.00000000000006</ele><time>2026-04-18T11:38:08.927Z</time></trkpt><trkpt lat="43.49227316666667" lon="10.92877"><ele>484.0</ele><time>2026-04-18T11:38:09.918Z</time></trkpt><trkpt lat="43.49220316666667" lon="10.92878583333333"><ele>484.0</ele><time>2026-04-18T11:38:10.925Z</time></trkpt><trkpt lat="43.49212583333333" lon="10.928793333333331"><ele>484.0</ele><time>2026-04-18T11:38:11.912Z</time></trkpt><trkpt lat="43.49204366666666" lon="10.928788166666667"><ele>484.0</ele><time>2026-04-18T11:38:12.917Z</time></trkpt><trkpt lat="43.491957" lon="10.928767833333332"><ele>484.0</ele><time>2026-04-18T11:38:13.961Z</time></trkpt><trkpt lat="43.49182783333334" lon="10.928706666666669"><ele>484.0</ele><time>2026-04-18T11:38:14.939Z</time></trkpt><trkpt lat="43.491704500000004" lon="10.928623"><ele>484.4</ele><time>2026-04-18T11:38:16.955Z</time></trkpt><trkpt lat="43.4916225" lon="10.928570166666669"><ele>484.79999999999995</ele><time>2026-04-18T11:38:17.936Z</time></trkpt><trkpt lat="43.49153833333333" lon="10.928527166666667"><ele>485.20000000000005</ele><time>2026-04-18T11:38:18.929Z</time></trkpt><trkpt lat="43.49140583333333" lon="10.928501333333333"><ele>485.6</ele><time>2026-04-18T11:38:19.914Z</time></trkpt><trkpt lat="43.491317499999994" lon="10.928517166666666"><ele>486.0</ele><time>2026-04-18T11:38:20.927Z</time></trkpt><trkpt lat="43.49118058905335" lon="10.928551879553172"><ele>483.8</ele><time>2026-04-18T11:38:22.914Z</time></trkpt><trkpt lat="43.49109928185408" lon="10.928622169369575"><ele>481.6</ele><time>2026-04-18T11:38:23.934Z</time></trkpt><trkpt lat="43.49102212303169" lon="10.928720327665317"><ele>479.4</ele><time>2026-04-18T11:38:24.92Z</time></trkpt><trkpt lat="43.49095729845776" lon="10.928839947599602"><ele>477.2</ele><time>2026-04-18T11:38:25.938Z</time></trkpt><trkpt lat="43.49089611083683" lon="10.928972978871194"><ele>475.0</ele><time>2026-04-18T11:38:26.91Z</time></trkpt><trkpt lat="43.490805643128986" lon="10.929194992610002"><ele>476.25</ele><time>2026-04-18T11:38:27.942Z</time></trkpt><trkpt lat="43.490741592192336" lon="10.929348797968578"><ele>477.5</ele><time>2026-04-18T11:38:28.922Z</time></trkpt><trkpt lat="43.49067390956151" lon="10.929508352009886"><ele>478.75</ele><time>2026-04-18T11:38:29.957Z</time></trkpt><trkpt lat="43.49060657498778" lon="10.929667800045689"><ele>480.0</ele><time>2026-04-18T11:38:30.919Z</time></trkpt><trkpt lat="43.49057267180674" lon="10.929748508860119"><ele>480.0</ele><time>2026-04-18T11:38:31.943Z</time></trkpt><trkpt lat="43.490504327349285" lon="10.92991120753637"><ele>480.0</ele><time>2026-04-18T11:38:32.917Z</time></trkpt><trkpt lat="43.49043554283462" lon="10.930074953717746"><ele>480.0</ele><time>2026-04-18T11:38:33.974Z</time></trkpt><trkpt lat="43.490367156751354" lon="10.93023775148985"><ele>480.0</ele><time>2026-04-18T11:38:34.913Z</time></trkpt><trkpt lat="43.49026550496855" lon="10.930477237595488"><ele>475.5</ele><time>2026-04-18T11:38:35.933Z</time></trkpt><trkpt lat="43.49020355604208" lon="10.930640756205502"><ele>471.0</ele><time>2026-04-18T11:38:36.934Z</time></trkpt><trkpt lat="43.490145672277535" lon="10.93080779909895"><ele>466.5</ele><time>2026-04-18T11:38:37.922Z</time></trkpt><trkpt lat="43.49010425422279" lon="10.930980568645003"><ele>462.0</ele><time>2026-04-18T11:38:38.919Z</time></trkpt><trkpt lat="43.49008139989064" lon="10.9311614579733"><ele>461.8</ele><time>2026-04-18T11:38:39.921Z</time></trkpt><trkpt lat="43.49007460429715" lon="10.931249772771412"><ele>461.6</ele><time>2026-04-18T11:38:40.927Z</time></trkpt><trkpt lat="43.49006807160362" lon="10.931424239920368"><ele>461.40000000000003</ele><time>2026-04-18T11:38:41.912Z</time></trkpt><trkpt lat="43.49006588525541" lon="10.931592463631006"><ele>461.20000000000005</ele><time>2026-04-18T11:38:42.91Z</time></trkpt><trkpt lat="43.49006675635366" lon="10.93175140605919"><ele>461.0</ele><time>2026-04-18T11:38:43.911Z</time></trkpt><trkpt lat="43.49006656429111" lon="10.931896639009697"><ele>460.49999999999994</ele><time>2026-04-18T11:38:44.942Z</time></trkpt><trkpt lat="43.49006626392114" lon="10.932029134873785"><ele>460.0</ele><time>2026-04-18T11:38:46.07Z</time></trkpt><trkpt lat="43.49006600435569" lon="10.932143631625207"><ele>459.5</ele><time>2026-04-18T11:38:46.907Z</time></trkpt><trkpt lat="43.49006417869711" lon="10.932245749302188"><ele>459.0</ele><time>2026-04-18T11:38:47.907Z</time></trkpt><trkpt lat="43.49005399999999" lon="10.932414166666668"><ele>458.49999999999994</ele><time>2026-04-18T11:38:49.922Z</time></trkpt><trkpt lat="43.48999816666666" lon="10.932458"><ele>458.0</ele><time>2026-04-18T11:38:50.918Z</time></trkpt><trkpt lat="43.489933333333326" lon="10.932464999999999"><ele>457.99999999999994</ele><time>2026-04-18T11:38:51.914Z</time></trkpt><trkpt lat="43.48987133333333" lon="10.9324295"><ele>458.0</ele><time>2026-04-18T11:38:52.923Z</time></trkpt><trkpt lat="43.48982566666666" lon="10.932356"><ele>458.0</ele><time>2026-04-18T11:38:53.933Z</time></trkpt><trkpt lat="43.48980199999999" lon="10.932257"><ele>458.0</ele><time>2026-04-18T11:38:54.915Z</time></trkpt><trkpt lat="43.48979166666667" lon="10.932141166666668"><ele>457.99999999999994</ele><time>2026-04-18T11:38:55.921Z</time></trkpt><trkpt lat="43.48978183333333" lon="10.932009833333332"><ele>458.0</ele><time>2026-04-18T11:38:56.919Z</time></trkpt><trkpt lat="43.489768500000004" lon="10.931863500000002"><ele>458.75</ele><time>2026-04-18T11:38:57.942Z</time></trkpt><trkpt lat="43.48975166666668" lon="10.931704666666667"><ele>459.5</ele><time>2026-04-18T11:38:58.916Z</time></trkpt><trkpt lat="43.48973383333333" lon="10.931537166666667"><ele>460.25</ele><time>2026-04-18T11:38:59.924Z</time></trkpt><trkpt lat="43.48971716666667" lon="10.931356833333332"><ele>461.0</ele><time>2026-04-18T11:39:00.916Z</time></trkpt><trkpt lat="43.48969999999999" lon="10.9311645"><ele>461.0</ele><time>2026-04-18T11:39:01.938Z</time></trkpt><trkpt lat="43.489682166666675" lon="10.930965"><ele>461.0</ele><time>2026-04-18T11:39:02.903Z</time></trkpt><trkpt lat="43.48966166666668" lon="10.930761666666669"><ele>461.0</ele><time>2026-04-18T11:39:03.914Z</time></trkpt><trkpt lat="43.48963816666666" lon="10.9305575"><ele>461.0</ele><time>2026-04-18T11:39:04.926Z</time></trkpt><trkpt lat="43.48960883333332" lon="10.930353666666667"><ele>453.3333333333333</ele><time>2026-04-18T11:39:05.929Z</time></trkpt><trkpt lat="43.489568999999996" lon="10.93015216666667"><ele>445.66666666666663</ele><time>2026-04-18T11:39:06.917Z</time></trkpt><trkpt lat="43.48951783333334" lon="10.929955666666666"><ele>438.0</ele><time>2026-04-18T11:39:07.914Z</time></trkpt><trkpt lat="43.48946233333333" lon="10.929765000000002"><ele>437.75</ele><time>2026-04-18T11:39:08.909Z</time></trkpt><trkpt lat="43.48940616666667" lon="10.929579333333333"><ele>437.5</ele><time>2026-04-18T11:39:09.924Z</time></trkpt><trkpt lat="43.489349499999996" lon="10.929395833333334"><ele>437.25</ele><time>2026-04-18T11:39:10.95Z</time></trkpt><trkpt lat="43.489299333333335" lon="10.929211500000001"><ele>437.0</ele><time>2026-04-18T11:39:11.912Z</time></trkpt><trkpt lat="43.489267999999996" lon="10.929021666666666"><ele>436.75</ele><time>2026-04-18T11:39:12.921Z</time></trkpt><trkpt lat="43.489260333333334" lon="10.928825166666666"><ele>436.5</ele><time>2026-04-18T11:39:13.915Z</time></trkpt><trkpt lat="43.48926916666666" lon="10.928622833333334"><ele>436.25</ele><time>2026-04-18T11:39:14.912Z</time></trkpt><trkpt lat="43.48928349999999" lon="10.928413333333333"><ele>436.0</ele><time>2026-04-18T11:39:15.916Z</time></trkpt><trkpt lat="43.489298" lon="10.928196666666667"><ele>435.33333333333337</ele><time>2026-04-18T11:39:16.903Z</time></trkpt><trkpt lat="43.48931183333334" lon="10.927973666666666"><ele>434.66666666666663</ele><time>2026-04-18T11:39:18.11Z</time></trkpt><trkpt lat="43.48932533333333" lon="10.927749666666667"><ele>434.0</ele><time>2026-04-18T11:39:18.936Z</time></trkpt><trkpt lat="43.489338499999995" lon="10.927525333333332"><ele>433.3333333333333</ele><time>2026-04-18T11:39:19.92Z</time></trkpt><trkpt lat="43.489354500000005" lon="10.927301833333335"><ele>432.66666666666663</ele><time>2026-04-18T11:39:20.918Z</time></trkpt><trkpt lat="43.48937716666666" lon="10.927076499999998"><ele>432.0</ele><time>2026-04-18T11:39:21.909Z</time></trkpt><trkpt lat="43.48940416666666" lon="10.926846499999998"><ele>429.66666666666663</ele><time>2026-04-18T11:39:22.933Z</time></trkpt><trkpt lat="43.489432666666666" lon="10.926612"><ele>427.3333333333333</ele><time>2026-04-18T11:39:23.909Z</time></trkpt><trkpt lat="43.4894645" lon="10.926373000000002"><ele>425.0</ele><time>2026-04-18T11:39:24.927Z</time></trkpt><trkpt lat="43.4894985" lon="10.926129833333333"><ele>427.0</ele><time>2026-04-18T11:39:25.922Z</time></trkpt><trkpt lat="43.489533333333334" lon="10.925884666666665"><ele>429.0</ele><time>2026-04-18T11:39:27.025Z</time></trkpt><trkpt lat="43.48956833333333" lon="10.925638166666666"><ele>431.0</ele><time>2026-04-18T11:39:27.925Z</time></trkpt><trkpt lat="43.48960466666668" lon="10.925392833333335"><ele>431.0</ele><time>2026-04-18T11:39:28.925Z</time></trkpt><trkpt lat="43.4896415" lon="10.925148666666667"><ele>431.0</ele><time>2026-04-18T11:39:29.915Z</time></trkpt><trkpt lat="43.489676833333334" lon="10.924905833333332"><ele>431.0</ele><time>2026-04-18T11:39:30.91Z</time></trkpt><trkpt lat="43.48971216666667" lon="10.924667499999998"><ele>429.0</ele><time>2026-04-18T11:39:31.937Z</time></trkpt><trkpt lat="43.48974833333334" lon="10.924439833333334"><ele>427.0</ele><time>2026-04-18T11:39:32.914Z</time></trkpt><trkpt lat="43.48978016666667" lon="10.924231000000002"><ele>425.0</ele><time>2026-04-18T11:39:34.115Z</time></trkpt><trkpt lat="43.4898065" lon="10.924042"><ele>425.0</ele><time>2026-04-18T11:39:34.926Z</time></trkpt><trkpt lat="43.48982983333334" lon="10.923873333333333"><ele>425.0</ele><time>2026-04-18T11:39:35.938Z</time></trkpt><trkpt lat="43.48984933333333" lon="10.923723500000003"><ele>425.0</ele><time>2026-04-18T11:39:36.922Z</time></trkpt><trkpt lat="43.4898665" lon="10.923588666666667"><ele>425.0</ele><time>2026-04-18T11:39:37.915Z</time></trkpt><trkpt lat="43.489882333333334" lon="10.923467166666667"><ele>425.0</ele><time>2026-04-18T11:39:38.915Z</time></trkpt><trkpt lat="43.48989450000001" lon="10.923358166666667"><ele>424.99999999999994</ele><time>2026-04-18T11:39:39.908Z</time></trkpt><trkpt lat="43.48989866666667" lon="10.923260166666667"><ele>425.0</ele><time>2026-04-18T11:39:40.91Z</time></trkpt><trkpt lat="43.48988816666667" lon="10.923109"><ele>425.0</ele><time>2026-04-18T11:39:42.906Z</time></trkpt><trkpt lat="43.48985616666668" lon="10.923025166666667"><ele>425.0</ele><time>2026-04-18T11:39:44.911Z</time></trkpt><trkpt lat="43.48987666666667" lon="10.923121"><ele>424.99999999999994</ele><time>2026-04-18T11:40:07.913Z</time></trkpt><trkpt lat="43.489951315381845" lon="10.923125643779866"><ele>425.0</ele><time>2026-04-18T11:40:09.926Z</time></trkpt><trkpt lat="43.48988616666667" lon="10.9232945"><ele>425.0</ele><time>2026-04-18T11:40:10.914Z</time></trkpt><trkpt lat="43.489873833333334" lon="10.9234685"><ele>425.0</ele><time>2026-04-18T11:40:12.918Z</time></trkpt><trkpt lat="43.4898615" lon="10.923573"><ele>425.0</ele><time>2026-04-18T11:40:13.927Z</time></trkpt><trkpt lat="43.489844" lon="10.923688"><ele>425.0</ele><time>2026-04-18T11:40:14.906Z</time></trkpt><trkpt lat="43.489812500000006" lon="10.923872666666666"><ele>425.0</ele><time>2026-04-18T11:40:15.905Z</time></trkpt><trkpt lat="43.489791000000004" lon="10.924002333333332"><ele>425.0</ele><time>2026-04-18T11:40:16.912Z</time></trkpt><trkpt lat="43.48977283333333" lon="10.924135333333332"><ele>425.0</ele><time>2026-04-18T11:40:17.918Z</time></trkpt><trkpt lat="43.48975383333333" lon="10.9242695"><ele>425.0</ele><time>2026-04-18T11:40:18.934Z</time></trkpt><trkpt lat="43.489732999999994" lon="10.924405833333333"><ele>425.0</ele><time>2026-04-18T11:40:19.909Z</time></trkpt><trkpt lat="43.489711666666665" lon="10.924546000000001"><ele>425.0</ele><time>2026-04-18T11:40:20.918Z</time></trkpt><trkpt lat="43.489677833333324" lon="10.924742499999999"><ele>425.0</ele><time>2026-04-18T11:40:22.909Z</time></trkpt><trkpt lat="43.489648" lon="10.924829166666665"><ele>425.0</ele><time>2026-04-18T11:40:23.914Z</time></trkpt><trkpt lat="43.48956066666666" lon="10.924877333333331"><ele>425.0</ele><time>2026-04-18T11:40:26.12Z</time></trkpt><trkpt lat="43.489465833333334" lon="10.924869000000001"><ele>425.0</ele><time>2026-04-18T11:40:27.911Z</time></trkpt><trkpt lat="43.489357999999996" lon="10.924915333333335"><ele>425.0</ele><time>2026-04-18T11:40:29.897Z</time></trkpt><trkpt lat="43.489258500000005" lon="10.925017333333336"><ele>423.66666666666663</ele><time>2026-04-18T11:40:31.931Z</time></trkpt><trkpt lat="43.48921716666667" lon="10.925084499999999"><ele>422.3333333333333</ele><time>2026-04-18T11:40:32.905Z</time></trkpt><trkpt lat="43.48917499999999" lon="10.925205333333334"><ele>421.0</ele><time>2026-04-18T11:40:33.906Z</time></trkpt><trkpt lat="43.489159666666666" lon="10.9252925"><ele>419.66666666666663</ele><time>2026-04-18T11:40:34.918Z</time></trkpt><trkpt lat="43.48914916666666" lon="10.925479333333334"><ele>418.3333333333333</ele><time>2026-04-18T11:40:36.967Z</time></trkpt><trkpt lat="43.48914883333334" lon="10.925577666666667"><ele>417.0</ele><time>2026-04-18T11:40:37.91Z</time></trkpt><trkpt lat="43.48914533333333" lon="10.925676333333334"><ele>417.0</ele><time>2026-04-18T11:40:38.905Z</time></trkpt><trkpt lat="43.48913716666666" lon="10.925775500000002"><ele>417.0</ele><time>2026-04-18T11:40:39.939Z</time></trkpt><trkpt lat="43.48911916666666" lon="10.925873999999999"><ele>417.0</ele><time>2026-04-18T11:40:40.905Z</time></trkpt><trkpt lat="43.48909133333333" lon="10.925971833333332"><ele>417.0</ele><time>2026-04-18T11:40:41.921Z</time></trkpt><trkpt lat="43.48905450000001" lon="10.926065333333334"><ele>417.0</ele><time>2026-04-18T11:40:42.915Z</time></trkpt><trkpt lat="43.48900533333333" lon="10.926153333333332"><ele>417.0</ele><time>2026-04-18T11:40:43.923Z</time></trkpt><trkpt lat="43.48890483333333" lon="10.926265500000001"><ele>419.0</ele><time>2026-04-18T11:40:45.91Z</time></trkpt><trkpt lat="43.48882583333334" lon="10.926323166666668"><ele>421.0</ele><time>2026-04-18T11:40:46.906Z</time></trkpt><trkpt lat="43.488696" lon="10.926390499999998"><ele>423.0</ele><time>2026-04-18T11:40:47.902Z</time></trkpt><trkpt lat="43.48860566666667" lon="10.926427499999999"><ele>425.0</ele><time>2026-04-18T11:40:48.952Z</time></trkpt><trkpt lat="43.48846466666667" lon="10.926474666666664"><ele>423.16666666666663</ele><time>2026-04-18T11:40:50.91Z</time></trkpt><trkpt lat="43.4883735" lon="10.926503666666667"><ele>421.3333333333333</ele><time>2026-04-18T11:40:51.933Z</time></trkpt><trkpt lat="43.48828766666667" lon="10.926533"><ele>419.5</ele><time>2026-04-18T11:40:52.933Z</time></trkpt><trkpt lat="43.48820883333333" lon="10.926571166666667"><ele>417.66666666666663</ele><time>2026-04-18T11:40:53.914Z</time></trkpt><trkpt lat="43.48813816666668" lon="10.926627333333332"><ele>415.8333333333333</ele><time>2026-04-18T11:40:54.911Z</time></trkpt><trkpt lat="43.48806182592897" lon="10.926675369051603"><ele>414.0</ele><time>2026-04-18T11:40:55.911Z</time></trkpt><trkpt lat="43.487994233169815" lon="10.926761733074748"><ele>414.0</ele><time>2026-04-18T11:40:56.937Z</time></trkpt><trkpt lat="43.4879499179013" lon="10.926858637489401"><ele>414.0</ele><time>2026-04-18T11:40:57.92Z</time></trkpt><trkpt lat="43.48789812186932" lon="10.927001935018335"><ele>414.0</ele><time>2026-04-18T11:40:58.909Z</time></trkpt><trkpt lat="43.48784016666667" lon="10.927117166666669"><ele>414.0</ele><time>2026-04-18T11:41:00.918Z</time></trkpt><trkpt lat="43.48767394358214" lon="10.927142003439364"><ele>410.4</ele><time>2026-04-18T11:41:02.905Z</time></trkpt><trkpt lat="43.48759962219803" lon="10.927083111744615"><ele>406.79999999999995</ele><time>2026-04-18T11:41:03.925Z</time></trkpt><trkpt lat="43.48756367465283" lon="10.92691124593445"><ele>403.20000000000005</ele><time>2026-04-18T11:41:05.926Z</time></trkpt><trkpt lat="43.487594666666666" lon="10.926805666666667"><ele>399.6</ele><time>2026-04-18T11:41:06.91Z</time></trkpt><trkpt lat="43.487600166666674" lon="10.926700833333333"><ele>396.0</ele><time>2026-04-18T11:41:07.909Z</time></trkpt><trkpt lat="43.48758683333333" lon="10.926594499999998"><ele>395.20000000000005</ele><time>2026-04-18T11:41:08.91Z</time></trkpt><trkpt lat="43.48754766666666" lon="10.926496333333333"><ele>394.40000000000003</ele><time>2026-04-18T11:41:09.931Z</time></trkpt><trkpt lat="43.48748233333334" lon="10.926427666666665"><ele>393.6</ele><time>2026-04-18T11:41:10.913Z</time></trkpt><trkpt lat="43.48735166666667" lon="10.926371166666668"><ele>392.8</ele><time>2026-04-18T11:41:11.915Z</time></trkpt><trkpt lat="43.48724266666667" lon="10.926350833333332"><ele>392.0</ele><time>2026-04-18T11:41:12.91Z</time></trkpt><trkpt lat="43.48712233333334" lon="10.926331999999999"><ele>388.5</ele><time>2026-04-18T11:41:13.942Z</time></trkpt><trkpt lat="43.48699433333333" lon="10.926312"><ele>385.0</ele><time>2026-04-18T11:41:14.91Z</time></trkpt><trkpt lat="43.48686083333334" lon="10.926295166666668"><ele>381.5</ele><time>2026-04-18T11:41:15.918Z</time></trkpt><trkpt lat="43.486792333333334" lon="10.926285666666669"><ele>378.0</ele><time>2026-04-18T11:41:16.915Z</time></trkpt><trkpt lat="43.486654833333326" lon="10.926263500000001"><ele>378.0</ele><time>2026-04-18T11:41:17.935Z</time></trkpt><trkpt lat="43.48651633333334" lon="10.926244333333333"><ele>378.0</ele><time>2026-04-18T11:41:18.902Z</time></trkpt><trkpt lat="43.48637733333334" lon="10.926227166666667"><ele>378.0</ele><time>2026-04-18T11:41:19.905Z</time></trkpt><trkpt lat="43.48623233333333" lon="10.926223333333335"><ele>378.0</ele><time>2026-04-18T11:41:20.904Z</time></trkpt><trkpt lat="43.486011999999995" lon="10.926240499999997"><ele>377.5</ele><time>2026-04-18T11:41:21.921Z</time></trkpt><trkpt lat="43.48586366666667" lon="10.926258"><ele>377.0</ele><time>2026-04-18T11:41:22.946Z</time></trkpt><trkpt lat="43.4857223125929" lon="10.926251085047234"><ele>376.5</ele><time>2026-04-18T11:41:23.919Z</time></trkpt><trkpt lat="43.48565594367018" lon="10.926258482769125"><ele>376.0</ele><time>2026-04-18T11:41:24.915Z</time></trkpt><trkpt lat="43.48547533333334" lon="10.926286833333332"><ele>374.0</ele><time>2026-04-18T11:41:25.91Z</time></trkpt><trkpt lat="43.48536000000001" lon="10.926283166666668"><ele>372.0</ele><time>2026-04-18T11:41:26.934Z</time></trkpt><trkpt lat="43.485247166666674" lon="10.926256333333333"><ele>370.0</ele><time>2026-04-18T11:41:27.901Z</time></trkpt><trkpt lat="43.48513883333333" lon="10.926204666666669"><ele>368.0</ele><time>2026-04-18T11:41:28.908Z</time></trkpt><trkpt lat="43.48503683333334" lon="10.926125833333334"><ele>368.0</ele><time>2026-04-18T11:41:29.907Z</time></trkpt><trkpt lat="43.48494016666667" lon="10.926020166666667"><ele>368.0</ele><time>2026-04-18T11:41:30.929Z</time></trkpt><trkpt lat="43.484849" lon="10.925901666666668"><ele>368.0</ele><time>2026-04-18T11:41:31.907Z</time></trkpt><trkpt lat="43.48476300000001" lon="10.925784166666666"><ele>368.0</ele><time>2026-04-18T11:41:32.914Z</time></trkpt><trkpt lat="43.4846435" lon="10.92564"><ele>366.75</ele><time>2026-04-18T11:41:34.934Z</time></trkpt><trkpt lat="43.48451666666667" lon="10.925558333333333"><ele>365.5</ele><time>2026-04-18T11:41:35.959Z</time></trkpt><trkpt lat="43.48437478284476" lon="10.925494036442357"><ele>364.25</ele><time>2026-04-18T11:41:37.898Z</time></trkpt><trkpt lat="43.484271620882005" lon="10.925493681473382"><ele>363.0</ele><time>2026-04-18T11:41:38.918Z</time></trkpt><trkpt lat="43.484160312383466" lon="10.925507879125199"><ele>363.0</ele><time>2026-04-18T11:41:39.952Z</time></trkpt><trkpt lat="43.48399901625857" lon="10.925575345409463"><ele>363.0</ele><time>2026-04-18T11:41:40.904Z</time></trkpt><trkpt lat="43.48389623619378" lon="10.925648809339828"><ele>363.0</ele><time>2026-04-18T11:41:41.913Z</time></trkpt><trkpt lat="43.483801846137965" lon="10.925734631431576"><ele>363.0</ele><time>2026-04-18T11:41:42.908Z</time></trkpt><trkpt lat="43.48371228762252" lon="10.92583054507619"><ele>360.5</ele><time>2026-04-18T11:41:44.039Z</time></trkpt><trkpt lat="43.48362840368291" lon="10.925926674271947"><ele>358.0</ele><time>2026-04-18T11:41:44.967Z</time></trkpt><trkpt lat="43.48354876103562" lon="10.926023304063735"><ele>355.5</ele><time>2026-04-18T11:41:45.914Z</time></trkpt><trkpt lat="43.48342810784073" lon="10.926152992654293"><ele>353.0</ele><time>2026-04-18T11:41:47.934Z</time></trkpt><trkpt lat="43.483342456430655" lon="10.92622992399583"><ele>353.0</ele><time>2026-04-18T11:41:48.918Z</time></trkpt><trkpt lat="43.48324130018481" lon="10.926295390992214"><ele>353.0</ele><time>2026-04-18T11:41:49.902Z</time></trkpt><trkpt lat="43.48312672086124" lon="10.92635502246568"><ele>353.0</ele><time>2026-04-18T11:41:50.919Z</time></trkpt><trkpt lat="43.48300321554083" lon="10.926405911086773"><ele>353.0</ele><time>2026-04-18T11:41:51.931Z</time></trkpt><trkpt lat="43.482880666666674" lon="10.926474833333335"><ele>352.75</ele><time>2026-04-18T11:41:52.946Z</time></trkpt><trkpt lat="43.48275400000001" lon="10.926518999999999"><ele>352.5</ele><time>2026-04-18T11:41:53.906Z</time></trkpt><trkpt lat="43.48262966666667" lon="10.9265655"><ele>352.25</ele><time>2026-04-18T11:41:54.906Z</time></trkpt><trkpt lat="43.482507637445984" lon="10.92659478831301"><ele>352.0</ele><time>2026-04-18T11:41:55.912Z</time></trkpt><trkpt lat="43.48234574273113" lon="10.9266953245156"><ele>351.66666666666663</ele><time>2026-04-18T11:41:57.029Z</time></trkpt><trkpt lat="43.48219013840209" lon="10.926838546116425"><ele>351.3333333333333</ele><time>2026-04-18T11:41:58.899Z</time></trkpt><trkpt lat="43.48206008666976" lon="10.92702328039733"><ele>351.0</ele><time>2026-04-18T11:41:59.917Z</time></trkpt><trkpt lat="43.48198056995449" lon="10.927140581791813"><ele>349.6666666666667</ele><time>2026-04-18T11:42:00.931Z</time></trkpt><trkpt lat="43.481858166666676" lon="10.927305333333333"><ele>348.33333333333337</ele><time>2026-04-18T11:42:02.902Z</time></trkpt><trkpt lat="43.481688333333345" lon="10.927357166666665"><ele>347.0</ele><time>2026-04-18T11:42:03.912Z</time></trkpt><trkpt lat="43.48157166666667" lon="10.927362333333335"><ele>347.0</ele><time>2026-04-18T11:42:04.918Z</time></trkpt><trkpt lat="43.48145083333334" lon="10.9273515"><ele>347.0</ele><time>2026-04-18T11:42:05.936Z</time></trkpt><trkpt lat="43.481326" lon="10.9273285"><ele>347.0</ele><time>2026-04-18T11:42:06.905Z</time></trkpt><trkpt lat="43.48119499999999" lon="10.927300333333335"><ele>347.0</ele><time>2026-04-18T11:42:07.923Z</time></trkpt><trkpt lat="43.481056833333334" lon="10.927270333333334"><ele>346.25</ele><time>2026-04-18T11:42:08.905Z</time></trkpt><trkpt lat="43.48091333333333" lon="10.927244833333335"><ele>345.5</ele><time>2026-04-18T11:42:09.934Z</time></trkpt><trkpt lat="43.48076716666666" lon="10.927226166666665"><ele>344.75</ele><time>2026-04-18T11:42:10.967Z</time></trkpt><trkpt lat="43.4806925" lon="10.927217833333335"><ele>344.0</ele><time>2026-04-18T11:42:11.922Z</time></trkpt><trkpt lat="43.48054333333333" lon="10.927200833333332"><ele>343.5</ele><time>2026-04-18T11:42:12.918Z</time></trkpt><trkpt lat="43.48039716666667" lon="10.927181499999998"><ele>343.0</ele><time>2026-04-18T11:42:13.922Z</time></trkpt><trkpt lat="43.480253833333336" lon="10.927170166666668"><ele>342.5</ele><time>2026-04-18T11:42:14.91Z</time></trkpt><trkpt lat="43.48011116666667" lon="10.927165666666667"><ele>342.0</ele><time>2026-04-18T11:42:15.906Z</time></trkpt><trkpt lat="43.47996799999999" lon="10.927162166666667"><ele>342.0</ele><time>2026-04-18T11:42:16.913Z</time></trkpt><trkpt lat="43.47982483333333" lon="10.927161833333333"><ele>342.0</ele><time>2026-04-18T11:42:17.933Z</time></trkpt><trkpt lat="43.47968116666666" lon="10.927163666666669"><ele>342.0</ele><time>2026-04-18T11:42:18.938Z</time></trkpt><trkpt lat="43.479537666666666" lon="10.927168166666668"><ele>342.0</ele><time>2026-04-18T11:42:19.904Z</time></trkpt><trkpt lat="43.479330833333336" lon="10.927177666666667"><ele>341.25</ele><time>2026-04-18T11:42:20.924Z</time></trkpt><trkpt lat="43.479199" lon="10.927183833333332"><ele>340.5</ele><time>2026-04-18T11:42:21.918Z</time></trkpt><trkpt lat="43.47906966666666" lon="10.927190166666666"><ele>339.75</ele><time>2026-04-18T11:42:22.919Z</time></trkpt><trkpt lat="43.4789415" lon="10.927186166666669"><ele>339.0</ele><time>2026-04-18T11:42:23.919Z</time></trkpt><trkpt lat="43.47881583333333" lon="10.9271615"><ele>337.79999999999995</ele><time>2026-04-18T11:42:24.911Z</time></trkpt><trkpt lat="43.47870083333334" lon="10.927122999999998"><ele>336.59999999999997</ele><time>2026-04-18T11:42:25.93Z</time></trkpt><trkpt lat="43.47856633333334" lon="10.927063666666667"><ele>335.4</ele><time>2026-04-18T11:42:27.913Z</time></trkpt><trkpt lat="43.47849933333334" lon="10.927034166666665"><ele>334.2</ele><time>2026-04-18T11:42:28.91Z</time></trkpt><trkpt lat="43.478436333333335" lon="10.927005333333334"><ele>333.0</ele><time>2026-04-18T11:42:29.922Z</time></trkpt><trkpt lat="43.47833333333333" lon="10.926960000000001"><ele>333.0</ele><time>2026-04-18T11:42:30.93Z</time></trkpt><trkpt lat="43.478249999999996" lon="10.926926500000002"><ele>333.0</ele><time>2026-04-18T11:42:31.914Z</time></trkpt><trkpt lat="43.47815333333333" lon="10.926886333333334"><ele>333.0</ele><time>2026-04-18T11:42:32.909Z</time></trkpt><trkpt lat="43.47804333333333" lon="10.926839666666668"><ele>333.0</ele><time>2026-04-18T11:42:33.91Z</time></trkpt><trkpt lat="43.47786016666667" lon="10.926764833333333"><ele>334.3333333333333</ele><time>2026-04-18T11:42:35.91Z</time></trkpt><trkpt lat="43.47773416666667" lon="10.926712166666666"><ele>335.66666666666663</ele><time>2026-04-18T11:42:36.921Z</time></trkpt><trkpt lat="43.47754583333334" lon="10.926620666666668"><ele>337.0</ele><time>2026-04-18T11:42:37.906Z</time></trkpt><trkpt lat="43.4774205" lon="10.926547333333334"><ele>337.0</ele><time>2026-04-18T11:42:38.927Z</time></trkpt><trkpt lat="43.477295000000005" lon="10.926468833333335"><ele>337.0</ele><time>2026-04-18T11:42:39.931Z</time></trkpt><trkpt lat="43.477168666666664" lon="10.926389833333333"><ele>337.0</ele><time>2026-04-18T11:42:40.91Z</time></trkpt><trkpt lat="43.4770425" lon="10.926308833333332"><ele>337.0</ele><time>2026-04-18T11:42:41.997Z</time></trkpt><trkpt lat="43.4769185" lon="10.926227333333333"><ele>334.0</ele><time>2026-04-18T11:42:42.928Z</time></trkpt><trkpt lat="43.47679833333333" lon="10.926145333333334"><ele>331.0</ele><time>2026-04-18T11:42:43.91Z</time></trkpt><trkpt lat="43.4766845" lon="10.926069833333333"><ele>328.0</ele><time>2026-04-18T11:42:44.905Z</time></trkpt><trkpt lat="43.476528666666674" lon="10.9259635"><ele>325.0</ele><time>2026-04-18T11:42:46.906Z</time></trkpt><trkpt lat="43.47643133333333" lon="10.925901999999999"><ele>325.0</ele><time>2026-04-18T11:42:47.947Z</time></trkpt><trkpt lat="43.47628983333334" lon="10.925817666666669"><ele>325.0</ele><time>2026-04-18T11:42:48.911Z</time></trkpt><trkpt lat="43.476190833333334" lon="10.925774666666666"><ele>325.0</ele><time>2026-04-18T11:42:49.903Z</time></trkpt><trkpt lat="43.47608466666667" lon="10.925747999999999"><ele>325.0</ele><time>2026-04-18T11:42:50.92Z</time></trkpt><trkpt lat="43.47583628020293" lon="10.925734400943858"><ele>325.0</ele><time>2026-04-18T11:42:52.912Z</time></trkpt><trkpt lat="43.47576750477347" lon="10.925745646673912"><ele>325.0</ele><time>2026-04-18T11:42:53.92Z</time></trkpt><trkpt lat="43.475545536481825" lon="10.925804175524927"><ele>325.0</ele><time>2026-04-18T11:42:54.907Z</time></trkpt><trkpt lat="43.475396743180966" lon="10.925844119351936"><ele>325.0</ele><time>2026-04-18T11:42:55.926Z</time></trkpt><trkpt lat="43.47525170927764" lon="10.925885801358545"><ele>318.75</ele><time>2026-04-18T11:42:56.916Z</time></trkpt><trkpt lat="43.475113166666674" lon="10.925945666666667"><ele>312.5</ele><time>2026-04-18T11:42:57.897Z</time></trkpt><trkpt lat="43.474976166666664" lon="10.925980333333333"><ele>306.25</ele><time>2026-04-18T11:42:58.92Z</time></trkpt><trkpt lat="43.47484850000001" lon="10.92601"><ele>300.0</ele><time>2026-04-18T11:42:59.923Z</time></trkpt><trkpt lat="43.474724833333326" lon="10.92602583333333"><ele>301.75</ele><time>2026-04-18T11:43:00.939Z</time></trkpt><trkpt lat="43.47460416666666" lon="10.926026833333331"><ele>303.5</ele><time>2026-04-18T11:43:01.903Z</time></trkpt><trkpt lat="43.47449066666666" lon="10.926009500000003"><ele>305.25</ele><time>2026-04-18T11:43:02.917Z</time></trkpt><trkpt lat="43.4743805" lon="10.925966500000001"><ele>307.0</ele><time>2026-04-18T11:43:03.906Z</time></trkpt><trkpt lat="43.474273833333335" lon="10.925891000000002"><ele>307.0</ele><time>2026-04-18T11:43:04.932Z</time></trkpt><trkpt lat="43.47416433333333" lon="10.925787333333336"><ele>307.0</ele><time>2026-04-18T11:43:05.927Z</time></trkpt><trkpt lat="43.47405733333333" lon="10.925660833333332"><ele>307.0</ele><time>2026-04-18T11:43:06.907Z</time></trkpt><trkpt lat="43.47394119986363" lon="10.925544231625224"><ele>307.0</ele><time>2026-04-18T11:43:07.92Z</time></trkpt><trkpt lat="43.47385349999999" lon="10.925399166666667"><ele>305.0</ele><time>2026-04-18T11:43:08.898Z</time></trkpt><trkpt lat="43.4737482246102" lon="10.925280094574035"><ele>303.0</ele><time>2026-04-18T11:43:09.937Z</time></trkpt><trkpt lat="43.473658692627744" lon="10.92512705348834"><ele>301.0</ele><time>2026-04-18T11:43:10.914Z</time></trkpt><trkpt lat="43.47361850942038" lon="10.925050095459373"><ele>299.0</ele><time>2026-04-18T11:43:11.914Z</time></trkpt><trkpt lat="43.47355583333333" lon="10.924879666666667"><ele>299.0</ele><time>2026-04-18T11:43:13.019Z</time></trkpt><trkpt lat="43.47348583333334" lon="10.92472766666667"><ele>299.0</ele><time>2026-04-18T11:43:13.907Z</time></trkpt><trkpt lat="43.47341066666666" lon="10.924587"><ele>299.0</ele><time>2026-04-18T11:43:14.918Z</time></trkpt><trkpt lat="43.47332166666667" lon="10.924458333333332"><ele>299.0</ele><time>2026-04-18T11:43:15.921Z</time></trkpt><trkpt lat="43.473214999999996" lon="10.924343"><ele>301.6666666666667</ele><time>2026-04-18T11:43:16.905Z</time></trkpt><trkpt lat="43.47302866666667" lon="10.924187166666664"><ele>304.3333333333333</ele><time>2026-04-18T11:43:17.926Z</time></trkpt><trkpt lat="43.47289483333334" lon="10.924074499999998"><ele>307.0</ele><time>2026-04-18T11:43:18.918Z</time></trkpt><trkpt lat="43.47282583333334" lon="10.924017166666665"><ele>301.0</ele><time>2026-04-18T11:43:19.899Z</time></trkpt><trkpt lat="43.472691000000005" lon="10.923908500000001"><ele>295.0</ele><time>2026-04-18T11:43:20.914Z</time></trkpt><trkpt lat="43.472509666666674" lon="10.923761166666667"><ele>289.0</ele><time>2026-04-18T11:43:21.936Z</time></trkpt><trkpt lat="43.472404833333336" lon="10.923677333333334"><ele>289.0</ele><time>2026-04-18T11:43:22.903Z</time></trkpt><trkpt lat="43.47224450000001" lon="10.923501666666667"><ele>289.0</ele><time>2026-04-18T11:43:24.905Z</time></trkpt><trkpt lat="43.47219166666667" lon="10.923407833333332"><ele>289.0</ele><time>2026-04-18T11:43:25.927Z</time></trkpt><trkpt lat="43.47216183333334" lon="10.923298833333336"><ele>289.0</ele><time>2026-04-18T11:43:26.907Z</time></trkpt><trkpt lat="43.47213614420804" lon="10.92317946599847"><ele>290.0</ele><time>2026-04-18T11:43:27.911Z</time></trkpt><trkpt lat="43.472150271207155" lon="10.923056593158918"><ele>291.0</ele><time>2026-04-18T11:43:28.919Z</time></trkpt><trkpt lat="43.47229099999999" lon="10.92281683333333"><ele>292.0</ele><time>2026-04-18T11:43:30.933Z</time></trkpt><trkpt lat="43.47238699999999" lon="10.922688833333332"><ele>293.0</ele><time>2026-04-18T11:43:31.904Z</time></trkpt><trkpt lat="43.47249716666667" lon="10.922563833333333"><ele>290.25</ele><time>2026-04-18T11:43:32.905Z</time></trkpt><trkpt lat="43.4726095" lon="10.922442333333333"><ele>287.5</ele><time>2026-04-18T11:43:33.923Z</time></trkpt><trkpt lat="43.47272183333333" lon="10.922322333333332"><ele>284.75</ele><time>2026-04-18T11:43:34.931Z</time></trkpt><trkpt lat="43.47282283333334" lon="10.922190833333332"><ele>282.0</ele><time>2026-04-18T11:43:35.902Z</time></trkpt><trkpt lat="43.47291650000001" lon="10.922052666666666"><ele>281.6</ele><time>2026-04-18T11:43:36.915Z</time></trkpt><trkpt lat="43.473005" lon="10.921915166666667"><ele>281.2</ele><time>2026-04-18T11:43:37.91Z</time></trkpt><trkpt lat="43.473046833333335" lon="10.921847500000002"><ele>280.8</ele><time>2026-04-18T11:43:38.931Z</time></trkpt><trkpt lat="43.47312766666667" lon="10.921719"><ele>280.4</ele><time>2026-04-18T11:43:39.911Z</time></trkpt><trkpt lat="43.47320266666667" lon="10.921593499999998"><ele>280.0</ele><time>2026-04-18T11:43:40.912Z</time></trkpt><trkpt lat="43.473266333333335" lon="10.921463999999999"><ele>280.0</ele><time>2026-04-18T11:43:41.909Z</time></trkpt><trkpt lat="43.47331783333334" lon="10.921323500000003"><ele>280.0</ele><time>2026-04-18T11:43:42.923Z</time></trkpt><trkpt lat="43.473354500000006" lon="10.921172333333335"><ele>280.0</ele><time>2026-04-18T11:43:43.898Z</time></trkpt><trkpt lat="43.47337900000001" lon="10.921013333333333"><ele>280.0</ele><time>2026-04-18T11:43:44.908Z</time></trkpt><trkpt lat="43.47341200000001" lon="10.920778333333333"><ele>276.66666666666663</ele><time>2026-04-18T11:43:45.913Z</time></trkpt><trkpt lat="43.473434" lon="10.920488166666667"><ele>273.3333333333333</ele><time>2026-04-18T11:43:47.923Z</time></trkpt><trkpt lat="43.47340166666666" lon="10.920293833333336"><ele>270.0</ele><time>2026-04-18T11:43:49.908Z</time></trkpt><trkpt lat="43.473382162887376" lon="10.920159448035589"><ele>268.6</ele><time>2026-04-18T11:43:50.908Z</time></trkpt><trkpt lat="43.473330598814655" lon="10.920039801841732"><ele>267.2</ele><time>2026-04-18T11:43:51.939Z</time></trkpt><trkpt lat="43.473258946112324" lon="10.91993002401951"><ele>265.8</ele><time>2026-04-18T11:43:52.905Z</time></trkpt><trkpt lat="43.47317675632288" lon="10.919841043818252"><ele>264.4</ele><time>2026-04-18T11:43:53.92Z</time></trkpt><trkpt lat="43.47309961420757" lon="10.919758862658556"><ele>263.0</ele><time>2026-04-18T11:43:54.911Z</time></trkpt><trkpt lat="43.472994833333324" lon="10.9196055"><ele>263.0</ele><time>2026-04-18T11:43:55.933Z</time></trkpt><trkpt lat="43.472955" lon="10.919458666666667"><ele>263.0</ele><time>2026-04-18T11:43:56.915Z</time></trkpt><trkpt lat="43.472929333333326" lon="10.919294666666667"><ele>263.0</ele><time>2026-04-18T11:43:57.915Z</time></trkpt><trkpt lat="43.47290800000001" lon="10.9190445"><ele>263.0</ele><time>2026-04-18T11:43:59.918Z</time></trkpt><trkpt lat="43.472889833333326" lon="10.918888333333333"><ele>260.75</ele><time>2026-04-18T11:44:00.927Z</time></trkpt><trkpt lat="43.47285383333333" lon="10.918744"><ele>258.5</ele><time>2026-04-18T11:44:01.901Z</time></trkpt><trkpt lat="43.472798" lon="10.918606333333333"><ele>256.25</ele><time>2026-04-18T11:44:02.908Z</time></trkpt><trkpt lat="43.4727124643271" lon="10.918365826168177"><ele>254.0</ele><time>2026-04-18T11:44:03.918Z</time></trkpt><trkpt lat="43.47263292139834" lon="10.918207796164648"><ele>252.79999999999998</ele><time>2026-04-18T11:44:04.947Z</time></trkpt><trkpt lat="43.47259425168359" lon="10.918131639516847"><ele>251.59999999999997</ele><time>2026-04-18T11:44:05.907Z</time></trkpt><trkpt lat="43.472519155276046" lon="10.917983897445934"><ele>250.4</ele><time>2026-04-18T11:44:06.913Z</time></trkpt><trkpt lat="43.47244677315695" lon="10.917841996371516"><ele>249.2</ele><time>2026-04-18T11:44:07.915Z</time></trkpt><trkpt lat="43.472366" lon="10.917721833333333"><ele>248.0</ele><time>2026-04-18T11:44:08.927Z</time></trkpt><trkpt lat="43.472303333333336" lon="10.9176"><ele>247.25</ele><time>2026-04-18T11:44:09.958Z</time></trkpt><trkpt lat="43.472251058173626" lon="10.917475623728482"><ele>246.5</ele><time>2026-04-18T11:44:10.915Z</time></trkpt><trkpt lat="43.472172355115" lon="10.917365254959451"><ele>245.75</ele><time>2026-04-18T11:44:11.912Z</time></trkpt><trkpt lat="43.47201771604468" lon="10.917241881505946"><ele>245.0</ele><time>2026-04-18T11:44:12.916Z</time></trkpt><trkpt lat="43.471921015856545" lon="10.917188981362832"><ele>243.75</ele><time>2026-04-18T11:44:13.914Z</time></trkpt><trkpt lat="43.47182606542367" lon="10.917156377423"><ele>242.5</ele><time>2026-04-18T11:44:14.912Z</time></trkpt><trkpt lat="43.471728000000006" lon="10.917141436827958"><ele>241.25</ele><time>2026-04-18T11:44:15.914Z</time></trkpt><trkpt lat="43.47150354609335" lon="10.917202537064627"><ele>240.0</ele><time>2026-04-18T11:44:17.913Z</time></trkpt><trkpt lat="43.471447573834006" lon="10.917244913639937"><ele>240.0</ele><time>2026-04-18T11:44:18.903Z</time></trkpt><trkpt lat="43.47127833168261" lon="10.917406291733496"><ele>240.0</ele><time>2026-04-18T11:44:19.91Z</time></trkpt><trkpt lat="43.47114981474797" lon="10.917541286985905"><ele>240.0</ele><time>2026-04-18T11:44:20.915Z</time></trkpt><trkpt lat="43.47101660391689" lon="10.91768126664232"><ele>239.5</ele><time>2026-04-18T11:44:21.931Z</time></trkpt><trkpt lat="43.47088660087438" lon="10.917817945470803"><ele>239.0</ele><time>2026-04-18T11:44:22.913Z</time></trkpt><trkpt lat="43.47076066874725" lon="10.917947576018259"><ele>238.5</ele><time>2026-04-18T11:44:23.906Z</time></trkpt><trkpt lat="43.470700115204096" lon="10.918008161061914"><ele>238.0</ele><time>2026-04-18T11:44:24.907Z</time></trkpt><trkpt lat="43.470582301674106" lon="10.918129176752359"><ele>238.0</ele><time>2026-04-18T11:44:25.923Z</time></trkpt><trkpt lat="43.470475003569966" lon="10.91824473946026"><ele>238.0</ele><time>2026-04-18T11:44:26.906Z</time></trkpt><trkpt lat="43.470378521601546" lon="10.918345265875306"><ele>238.0</ele><time>2026-04-18T11:44:27.899Z</time></trkpt><trkpt lat="43.47025957490176" lon="10.918463814092021"><ele>238.0</ele><time>2026-04-18T11:44:28.903Z</time></trkpt><trkpt lat="43.47010669615584" lon="10.918517131646599"><ele>236.8</ele><time>2026-04-18T11:44:30.934Z</time></trkpt><trkpt lat="43.47002366666668" lon="10.918498333333332"><ele>235.60000000000002</ele><time>2026-04-18T11:44:31.912Z</time></trkpt><trkpt lat="43.469967166666656" lon="10.918406666666666"><ele>234.39999999999998</ele><time>2026-04-18T11:44:32.917Z</time></trkpt><trkpt lat="43.469935833333324" lon="10.918283166666667"><ele>233.2</ele><time>2026-04-18T11:44:33.921Z</time></trkpt><trkpt lat="43.46994633333334" lon="10.918039666666667"><ele>232.0</ele><time>2026-04-18T11:44:35.905Z</time></trkpt><trkpt lat="43.46997533333333" lon="10.917876666666666"><ele>230.5</ele><time>2026-04-18T11:44:36.911Z</time></trkpt><trkpt lat="43.469993666666674" lon="10.917667333333334"><ele>229.0</ele><time>2026-04-18T11:44:37.923Z</time></trkpt><trkpt lat="43.469972999999996" lon="10.917483666666666"><ele>227.5</ele><time>2026-04-18T11:44:39.903Z</time></trkpt><trkpt lat="43.46992657552683" lon="10.91732605854976"><ele>226.0</ele><time>2026-04-18T11:44:40.915Z</time></trkpt><trkpt lat="43.46985085199641" lon="10.917247888711353"><ele>224.5</ele><time>2026-04-18T11:44:41.907Z</time></trkpt><trkpt lat="43.46974327117315" lon="10.917209938754857"><ele>223.0</ele><time>2026-04-18T11:44:42.938Z</time></trkpt><trkpt lat="43.46968053671642" lon="10.917202614511668"><ele>221.5</ele><time>2026-04-18T11:44:43.903Z</time></trkpt><trkpt lat="43.46953469332643" lon="10.91719705776598"><ele>220.0</ele><time>2026-04-18T11:44:44.913Z</time></trkpt><trkpt lat="43.46936083630655" lon="10.917197980507435"><ele>216.66666666666666</ele><time>2026-04-18T11:44:45.905Z</time></trkpt><trkpt lat="43.46917697034134" lon="10.917200724366776"><ele>213.33333333333331</ele><time>2026-04-18T11:44:46.931Z</time></trkpt><trkpt lat="43.46900236928765" lon="10.917203425416949"><ele>210.0</ele><time>2026-04-18T11:44:48.059Z</time></trkpt><trkpt lat="43.468841670788414" lon="10.917204323791795"><ele>208.25</ele><time>2026-04-18T11:44:48.914Z</time></trkpt><trkpt lat="43.46869281856529" lon="10.91720367617122"><ele>206.5</ele><time>2026-04-18T11:44:49.916Z</time></trkpt><trkpt lat="43.468556454557515" lon="10.917202277889738"><ele>204.75</ele><time>2026-04-18T11:44:50.916Z</time></trkpt><trkpt lat="43.46842808529789" lon="10.917190459104054"><ele>203.0</ele><time>2026-04-18T11:44:51.923Z</time></trkpt><trkpt lat="43.46830162369766" lon="10.917155669386364"><ele>203.0</ele><time>2026-04-18T11:44:52.917Z</time></trkpt><trkpt lat="43.46810906991289" lon="10.917053857956828"><ele>203.0</ele><time>2026-04-18T11:44:53.916Z</time></trkpt><trkpt lat="43.468050568224896" lon="10.917012935244728"><ele>203.0</ele><time>2026-04-18T11:44:54.908Z</time></trkpt><trkpt lat="43.46788816666667" lon="10.916896333333334"><ele>202.25</ele><time>2026-04-18T11:44:55.938Z</time></trkpt><trkpt lat="43.467805" lon="10.916787333333334"><ele>201.5</ele><time>2026-04-18T11:44:56.908Z</time></trkpt><trkpt lat="43.467746000000005" lon="10.9166545"><ele>200.75</ele><time>2026-04-18T11:44:57.905Z</time></trkpt><trkpt lat="43.467718166666664" lon="10.916502333333336"><ele>200.0</ele><time>2026-04-18T11:44:58.907Z</time></trkpt><trkpt lat="43.467746500000004" lon="10.9160875"><ele>199.0</ele><time>2026-04-18T11:45:01.923Z</time></trkpt><trkpt lat="43.46778516666666" lon="10.915906666666668"><ele>198.0</ele><time>2026-04-18T11:45:02.91Z</time></trkpt><trkpt lat="43.46782350000001" lon="10.915727333333333"><ele>197.0</ele><time>2026-04-18T11:45:03.919Z</time></trkpt><trkpt lat="43.46785366666666" lon="10.915550166666666"><ele>196.0</ele><time>2026-04-18T11:45:04.908Z</time></trkpt><trkpt lat="43.46787266666667" lon="10.915277666666668"><ele>194.5</ele><time>2026-04-18T11:45:05.906Z</time></trkpt><trkpt lat="43.46787066666667" lon="10.915184166666664"><ele>193.0</ele><time>2026-04-18T11:45:06.922Z</time></trkpt><trkpt lat="43.46785966666666" lon="10.914992166666664"><ele>191.5</ele><time>2026-04-18T11:45:07.923Z</time></trkpt><trkpt lat="43.46784133333334" lon="10.914794333333335"><ele>190.0</ele><time>2026-04-18T11:45:08.931Z</time></trkpt><trkpt lat="43.467817333333336" lon="10.914593666666667"><ele>189.25</ele><time>2026-04-18T11:45:09.912Z</time></trkpt><trkpt lat="43.46779516666667" lon="10.914391833333333"><ele>188.5</ele><time>2026-04-18T11:45:10.908Z</time></trkpt><trkpt lat="43.467774999999996" lon="10.914192500000002"><ele>187.75</ele><time>2026-04-18T11:45:11.915Z</time></trkpt><trkpt lat="43.46775783333332" lon="10.9140025"><ele>187.0</ele><time>2026-04-18T11:45:12.947Z</time></trkpt><trkpt lat="43.467738" lon="10.913825833333332"><ele>186.8</ele><time>2026-04-18T11:45:13.912Z</time></trkpt><trkpt lat="43.4677185" lon="10.913659333333332"><ele>186.6</ele><time>2026-04-18T11:45:14.903Z</time></trkpt><trkpt lat="43.46771128109138" lon="10.913502423695272"><ele>186.4</ele><time>2026-04-18T11:45:15.913Z</time></trkpt><trkpt lat="43.467682714716965" lon="10.913365765543423"><ele>186.20000000000002</ele><time>2026-04-18T11:45:16.902Z</time></trkpt><trkpt lat="43.46764746752511" lon="10.913252615903055"><ele>186.0</ele><time>2026-04-18T11:45:17.911Z</time></trkpt><trkpt lat="43.46759953554082" lon="10.9131495705582"><ele>185.60000000000002</ele><time>2026-04-18T11:45:18.912Z</time></trkpt><trkpt lat="43.46753680501435" lon="10.913075819607092"><ele>185.2</ele><time>2026-04-18T11:45:19.905Z</time></trkpt><trkpt lat="43.467446187087404" lon="10.913021161775054"><ele>184.8</ele><time>2026-04-18T11:45:20.916Z</time></trkpt><trkpt lat="43.46734445837274" lon="10.913014284126243"><ele>184.39999999999998</ele><time>2026-04-18T11:45:21.935Z</time></trkpt><trkpt lat="43.467241538118195" lon="10.91303900068363"><ele>184.0</ele><time>2026-04-18T11:45:22.916Z</time></trkpt><trkpt lat="43.467127139431824" lon="10.913081397119273"><ele>185.0</ele><time>2026-04-18T11:45:23.912Z</time></trkpt><trkpt lat="43.46701201886911" lon="10.91312695847985"><ele>186.0</ele><time>2026-04-18T11:45:24.925Z</time></trkpt><trkpt lat="43.466893953016346" lon="10.913167541218558"><ele>187.0</ele><time>2026-04-18T11:45:25.948Z</time></trkpt><trkpt lat="43.46670829708991" lon="10.913177806865205"><ele>188.0</ele><time>2026-04-18T11:45:26.91Z</time></trkpt><trkpt lat="43.466639348120545" lon="10.91316807892241"><ele>188.0</ele><time>2026-04-18T11:45:27.907Z</time></trkpt><trkpt lat="43.46641987878094" lon="10.913133106134364"><ele>188.0</ele><time>2026-04-18T11:45:28.917Z</time></trkpt><trkpt lat="43.466345047602395" lon="10.91312038581039"><ele>188.0</ele><time>2026-04-18T11:45:29.929Z</time></trkpt><trkpt lat="43.466197119529646" lon="10.913095239973964"><ele>188.0</ele><time>2026-04-18T11:45:30.911Z</time></trkpt><trkpt lat="43.46605598027384" lon="10.913070072310404"><ele>189.0</ele><time>2026-04-18T11:45:31.917Z</time></trkpt><trkpt lat="43.465925303377226" lon="10.913037912082926"><ele>190.0</ele><time>2026-04-18T11:45:32.911Z</time></trkpt><trkpt lat="43.46580095627137" lon="10.913014587337628"><ele>191.0</ele><time>2026-04-18T11:45:33.916Z</time></trkpt><trkpt lat="43.465684373913575" lon="10.913003109416184"><ele>192.0</ele><time>2026-04-18T11:45:34.941Z</time></trkpt><trkpt lat="43.46557522661214" lon="10.913003585189506"><ele>192.0</ele><time>2026-04-18T11:45:35.908Z</time></trkpt><trkpt lat="43.4654636677976" lon="10.913028319351257"><ele>192.0</ele><time>2026-04-18T11:45:36.912Z</time></trkpt><trkpt lat="43.46534903494894" lon="10.913082147931732"><ele>192.0</ele><time>2026-04-18T11:45:37.923Z</time></trkpt><trkpt lat="43.4652344438512" lon="10.91317446527213"><ele>192.0</ele><time>2026-04-18T11:45:38.924Z</time></trkpt><trkpt lat="43.46511804139557" lon="10.913288204231446"><ele>193.0</ele><time>2026-04-18T11:45:39.899Z</time></trkpt><trkpt lat="43.465001604842016" lon="10.913417992441058"><ele>194.0</ele><time>2026-04-18T11:45:40.903Z</time></trkpt><trkpt lat="43.46489783333333" lon="10.913564166666665"><ele>195.0</ele><time>2026-04-18T11:45:42.012Z</time></trkpt><trkpt lat="43.4647855" lon="10.913686666666669"><ele>196.0</ele><time>2026-04-18T11:45:43.052Z</time></trkpt><trkpt lat="43.46467916666668" lon="10.913798666666667"><ele>195.0</ele><time>2026-04-18T11:45:43.914Z</time></trkpt><trkpt lat="43.4645775" lon="10.913893333333332"><ele>194.0</ele><time>2026-04-18T11:45:44.906Z</time></trkpt><trkpt lat="43.46447666666666" lon="10.913959833333337"><ele>193.0</ele><time>2026-04-18T11:45:45.907Z</time></trkpt><trkpt lat="43.464374833333345" lon="10.913996166666667"><ele>192.0</ele><time>2026-04-18T11:45:46.944Z</time></trkpt><trkpt lat="43.46427" lon="10.913996000000001"><ele>191.0</ele><time>2026-04-18T11:45:47.939Z</time></trkpt><trkpt lat="43.464175355577694" lon="10.91393390646322"><ele>191.0</ele><time>2026-04-18T11:45:48.955Z</time></trkpt><trkpt lat="43.46407533333333" lon="10.913893333333332"><ele>191.0</ele><time>2026-04-18T11:45:49.904Z</time></trkpt><trkpt lat="43.46398949999999" lon="10.913841"><ele>191.0</ele><time>2026-04-18T11:45:50.931Z</time></trkpt><trkpt lat="43.463904666666664" lon="10.913818833333334"><ele>191.0</ele><time>2026-04-18T11:45:51.929Z</time></trkpt><trkpt lat="43.463824166666676" lon="10.913831999999998"><ele>191.0</ele><time>2026-04-18T11:45:52.903Z</time></trkpt><trkpt lat="43.46375166666667" lon="10.913879166666668"><ele>191.0</ele><time>2026-04-18T11:45:53.998Z</time></trkpt><trkpt lat="43.4636875" lon="10.9139555"><ele>192.20000000000002</ele><time>2026-04-18T11:45:54.925Z</time></trkpt><trkpt lat="43.463628166666666" lon="10.914049"><ele>193.4</ele><time>2026-04-18T11:45:55.918Z</time></trkpt><trkpt lat="43.463566166666666" lon="10.914158500000001"><ele>194.6</ele><time>2026-04-18T11:45:56.968Z</time></trkpt><trkpt lat="43.4634955" lon="10.914282166666665"><ele>195.8</ele><time>2026-04-18T11:45:57.912Z</time></trkpt><trkpt lat="43.463424" lon="10.914419333333335"><ele>197.0</ele><time>2026-04-18T11:45:58.911Z</time></trkpt><trkpt lat="43.463309333333335" lon="10.914633"><ele>197.0</ele><time>2026-04-18T11:45:59.95Z</time></trkpt><trkpt lat="43.463271" lon="10.914704833333333"><ele>197.0</ele><time>2026-04-18T11:46:00.919Z</time></trkpt><trkpt lat="43.46319483333333" lon="10.914845166666666"><ele>197.0</ele><time>2026-04-18T11:46:01.911Z</time></trkpt><trkpt lat="43.46311983333333" lon="10.9149785"><ele>197.0</ele><time>2026-04-18T11:46:02.904Z</time></trkpt><trkpt lat="43.463004166666664" lon="10.915157333333331"><ele>199.33333333333334</ele><time>2026-04-18T11:46:03.924Z</time></trkpt><trkpt lat="43.462864" lon="10.915306"><ele>201.66666666666669</ele><time>2026-04-18T11:46:05.905Z</time></trkpt><trkpt lat="43.462755" lon="10.915382833333336"><ele>204.0</ele><time>2026-04-18T11:46:06.92Z</time></trkpt><trkpt lat="43.462581" lon="10.915488666666667"><ele>204.0</ele><time>2026-04-18T11:46:07.931Z</time></trkpt><trkpt lat="43.462455" lon="10.915554833333331"><ele>204.0</ele><time>2026-04-18T11:46:08.922Z</time></trkpt><trkpt lat="43.462391833333335" lon="10.915583833333335"><ele>204.0</ele><time>2026-04-18T11:46:09.91Z</time></trkpt><trkpt lat="43.46226016666666" lon="10.915635000000002"><ele>204.0</ele><time>2026-04-18T11:46:10.919Z</time></trkpt><trkpt lat="43.462117166666665" lon="10.915669999999999"><ele>206.75</ele><time>2026-04-18T11:46:11.91Z</time></trkpt><trkpt lat="43.46196833333334" lon="10.915695666666666"><ele>209.5</ele><time>2026-04-18T11:46:12.946Z</time></trkpt><trkpt lat="43.461823477026186" lon="10.91570189942364"><ele>212.25</ele><time>2026-04-18T11:46:13.907Z</time></trkpt><trkpt lat="43.461694053925385" lon="10.915735582627192"><ele>215.0</ele><time>2026-04-18T11:46:14.913Z</time></trkpt><trkpt lat="43.46157422874586" lon="10.915766767950702"><ele>215.0</ele><time>2026-04-18T11:46:15.914Z</time></trkpt><trkpt lat="43.46146368171025" lon="10.915792958230249"><ele>215.0</ele><time>2026-04-18T11:46:16.928Z</time></trkpt><trkpt lat="43.461357895129936" lon="10.915814576775986"><ele>215.0</ele><time>2026-04-18T11:46:17.966Z</time></trkpt><trkpt lat="43.461253437345874" lon="10.915832148074106"><ele>215.0</ele><time>2026-04-18T11:46:18.913Z</time></trkpt><trkpt lat="43.46115048018343" lon="10.915844409215989"><ele>215.0</ele><time>2026-04-18T11:46:19.914Z</time></trkpt><trkpt lat="43.46100834536141" lon="10.91580186073112"><ele>216.2</ele><time>2026-04-18T11:46:20.936Z</time></trkpt><trkpt lat="43.46092774500561" lon="10.915737453833495"><ele>217.4</ele><time>2026-04-18T11:46:21.904Z</time></trkpt><trkpt lat="43.46084610270471" lon="10.9156648425808"><ele>218.60000000000002</ele><time>2026-04-18T11:46:22.984Z</time></trkpt><trkpt lat="43.46073100096734" lon="10.91556246199358"><ele>219.8</ele><time>2026-04-18T11:46:24.921Z</time></trkpt><trkpt lat="43.46066854801646" lon="10.915506913686077"><ele>221.0</ele><time>2026-04-18T11:46:25.946Z</time></trkpt><trkpt lat="43.46052333333334" lon="10.915673166666666"><ele>222.5</ele><time>2026-04-18T11:46:26.905Z</time></trkpt><trkpt lat="43.46044066666666" lon="10.915749333333332"><ele>224.0</ele><time>2026-04-18T11:46:27.908Z</time></trkpt><trkpt lat="43.46035733333333" lon="10.915836"><ele>225.5</ele><time>2026-04-18T11:46:28.907Z</time></trkpt><trkpt lat="43.460257666666664" lon="10.915900666666667"><ele>227.0</ele><time>2026-04-18T11:46:29.933Z</time></trkpt><trkpt lat="43.460093" lon="10.91592316666667"><ele>227.0</ele><time>2026-04-18T11:46:30.914Z</time></trkpt><trkpt lat="43.45998383333334" lon="10.9159075"><ele>227.0</ele><time>2026-04-18T11:46:31.92Z</time></trkpt><trkpt lat="43.459833499999995" lon="10.915833999999998"><ele>227.0</ele><time>2026-04-18T11:46:33.928Z</time></trkpt><trkpt lat="43.45974416666667" lon="10.915744666666667"><ele>227.0</ele><time>2026-04-18T11:46:34.905Z</time></trkpt><trkpt lat="43.45966683333333" lon="10.915636333333333"><ele>227.6</ele><time>2026-04-18T11:46:35.907Z</time></trkpt><trkpt lat="43.45959716666666" lon="10.915517166666666"><ele>228.2</ele><time>2026-04-18T11:46:36.909Z</time></trkpt><trkpt lat="43.459530666666666" lon="10.915401333333334"><ele>228.8</ele><time>2026-04-18T11:46:37.915Z</time></trkpt><trkpt lat="43.45945333333334" lon="10.915303166666668"><ele>229.4</ele><time>2026-04-18T11:46:38.911Z</time></trkpt><trkpt lat="43.45936716666667" lon="10.915242999999997"><ele>230.0</ele><time>2026-04-18T11:46:39.903Z</time></trkpt><trkpt lat="43.45927883333334" lon="10.915219166666668"><ele>230.0</ele><time>2026-04-18T11:46:40.901Z</time></trkpt><trkpt lat="43.45918866666666" lon="10.915233"><ele>230.0</ele><time>2026-04-18T11:46:41.925Z</time></trkpt><trkpt lat="43.45910433333333" lon="10.915285500000001"><ele>230.0</ele><time>2026-04-18T11:46:42.935Z</time></trkpt><trkpt lat="43.459018666666665" lon="10.915339333333334"><ele>230.0</ele><time>2026-04-18T11:46:43.964Z</time></trkpt><trkpt lat="43.458927166666676" lon="10.915352666666669"><ele>230.0</ele><time>2026-04-18T11:46:44.913Z</time></trkpt><trkpt lat="43.45883499999999" lon="10.915319333333333"><ele>229.0</ele><time>2026-04-18T11:46:45.925Z</time></trkpt><trkpt lat="43.45874683333333" lon="10.9152555"><ele>228.0</ele><time>2026-04-18T11:46:46.937Z</time></trkpt><trkpt lat="43.45866866666667" lon="10.9151645"><ele>227.0</ele><time>2026-04-18T11:46:47.905Z</time></trkpt><trkpt lat="43.458603499999995" lon="10.915052166666664"><ele>226.0</ele><time>2026-04-18T11:46:48.909Z</time></trkpt><trkpt lat="43.458559" lon="10.9149245"><ele>225.0</ele><time>2026-04-18T11:46:49.909Z</time></trkpt><trkpt lat="43.45853133333333" lon="10.914702499999999"><ele>227.5</ele><time>2026-04-18T11:46:50.936Z</time></trkpt><trkpt lat="43.458525333333334" lon="10.914537333333332"><ele>230.0</ele><time>2026-04-18T11:46:51.909Z</time></trkpt><trkpt lat="43.45852549999999" lon="10.914447333333332"><ele>232.5</ele><time>2026-04-18T11:46:52.901Z</time></trkpt><trkpt lat="43.458524999999995" lon="10.914261"><ele>235.0</ele><time>2026-04-18T11:46:53.914Z</time></trkpt><trkpt lat="43.458521999999995" lon="10.914069166666664"><ele>237.0</ele><time>2026-04-18T11:46:55.04Z</time></trkpt><trkpt lat="43.45852216666667" lon="10.913876499999999"><ele>239.0</ele><time>2026-04-18T11:46:55.944Z</time></trkpt><trkpt lat="43.45852683333332" lon="10.913691833333333"><ele>241.0</ele><time>2026-04-18T11:46:57.076Z</time></trkpt><trkpt lat="43.458532" lon="10.913525666666665"><ele>243.0</ele><time>2026-04-18T11:46:57.909Z</time></trkpt><trkpt lat="43.45853583333332" lon="10.913383833333334"><ele>244.16666666666666</ele><time>2026-04-18T11:46:58.924Z</time></trkpt><trkpt lat="43.458528333333334" lon="10.913261333333333"><ele>245.33333333333331</ele><time>2026-04-18T11:46:59.932Z</time></trkpt><trkpt lat="43.458509" lon="10.913158833333334"><ele>246.5</ele><time>2026-04-18T11:47:00.92Z</time></trkpt><trkpt lat="43.458481166666665" lon="10.913072333333332"><ele>247.66666666666666</ele><time>2026-04-18T11:47:01.907Z</time></trkpt><trkpt lat="43.458442500000004" lon="10.912993166666668"><ele>248.83333333333331</ele><time>2026-04-18T11:47:02.909Z</time></trkpt><trkpt lat="43.4583885" lon="10.912914833333332"><ele>250.0</ele><time>2026-04-18T11:47:03.934Z</time></trkpt><trkpt lat="43.458319499999995" lon="10.912842666666664"><ele>250.0</ele><time>2026-04-18T11:47:04.914Z</time></trkpt><trkpt lat="43.45823583333334" lon="10.9127745"><ele>250.0</ele><time>2026-04-18T11:47:05.91Z</time></trkpt><trkpt lat="43.45813983333334" lon="10.912704"><ele>250.0</ele><time>2026-04-18T11:47:06.914Z</time></trkpt><trkpt lat="43.45803533333333" lon="10.912633333333334"><ele>250.0</ele><time>2026-04-18T11:47:07.93Z</time></trkpt><trkpt lat="43.457922333333336" lon="10.912556666666669"><ele>250.0</ele><time>2026-04-18T11:47:08.916Z</time></trkpt><trkpt lat="43.457800666666664" lon="10.912471666666667"><ele>253.0</ele><time>2026-04-18T11:47:09.905Z</time></trkpt><trkpt lat="43.4576725" lon="10.912382500000001"><ele>256.0</ele><time>2026-04-18T11:47:10.912Z</time></trkpt><trkpt lat="43.4575365" lon="10.912287833333336"><ele>259.0</ele><time>2026-04-18T11:47:11.915Z</time></trkpt><trkpt lat="43.45739183333334" lon="10.912186499999999"><ele>259.0</ele><time>2026-04-18T11:47:12.959Z</time></trkpt><trkpt lat="43.457241999999994" lon="10.912083333333332"><ele>259.0</ele><time>2026-04-18T11:47:13.905Z</time></trkpt><trkpt lat="43.45709866666666" lon="10.911983000000003"><ele>259.0</ele><time>2026-04-18T11:47:14.919Z</time></trkpt><trkpt lat="43.456964333333325" lon="10.911887833333333"><ele>260.0</ele><time>2026-04-18T11:47:15.916Z</time></trkpt><trkpt lat="43.45683999999999" lon="10.911797833333333"><ele>261.0</ele><time>2026-04-18T11:47:16.908Z</time></trkpt><trkpt lat="43.45672666666666" lon="10.911714666666667"><ele>262.0</ele><time>2026-04-18T11:47:17.9Z</time></trkpt><trkpt lat="43.456624833333336" lon="10.911640499999999"><ele>263.0</ele><time>2026-04-18T11:47:18.91Z</time></trkpt><trkpt lat="43.456534" lon="10.911578"><ele>263.2</ele><time>2026-04-18T11:47:19.916Z</time></trkpt><trkpt lat="43.45644816666666" lon="10.911533833333332"><ele>263.4</ele><time>2026-04-18T11:47:20.914Z</time></trkpt><trkpt lat="43.45636433333334" lon="10.911522666666666"><ele>263.59999999999997</ele><time>2026-04-18T11:47:21.915Z</time></trkpt><trkpt lat="43.456282166666675" lon="10.911543166666668"><ele>263.8</ele><time>2026-04-18T11:47:22.92Z</time></trkpt><trkpt lat="43.45619450000001" lon="10.911591833333334"><ele>264.0</ele><time>2026-04-18T11:47:23.915Z</time></trkpt><trkpt lat="43.45609433333334" lon="10.911650999999999"><ele>266.0</ele><time>2026-04-18T11:47:24.917Z</time></trkpt><trkpt lat="43.45598516666667" lon="10.911706"><ele>268.0</ele><time>2026-04-18T11:47:25.916Z</time></trkpt><trkpt lat="43.455871333333334" lon="10.911758833333334"><ele>270.0</ele><time>2026-04-18T11:47:26.916Z</time></trkpt><trkpt lat="43.45575233333334" lon="10.911812000000001"><ele>272.0</ele><time>2026-04-18T11:47:27.909Z</time></trkpt><trkpt lat="43.45562916666666" lon="10.911862333333332"><ele>272.0</ele><time>2026-04-18T11:47:28.916Z</time></trkpt><trkpt lat="43.45550016666666" lon="10.9119055"><ele>272.0</ele><time>2026-04-18T11:47:29.908Z</time></trkpt><trkpt lat="43.45536416666667" lon="10.911939166666665"><ele>272.0</ele><time>2026-04-18T11:47:30.906Z</time></trkpt><trkpt lat="43.455225666666664" lon="10.911965000000002"><ele>272.0</ele><time>2026-04-18T11:47:31.913Z</time></trkpt><trkpt lat="43.455090500000004" lon="10.911981333333332"><ele>275.33333333333337</ele><time>2026-04-18T11:47:32.909Z</time></trkpt><trkpt lat="43.4549575" lon="10.912015166666666"><ele>278.6666666666667</ele><time>2026-04-18T11:47:33.937Z</time></trkpt><trkpt lat="43.454826000000004" lon="10.9120815"><ele>282.0</ele><time>2026-04-18T11:47:34.909Z</time></trkpt><trkpt lat="43.454642" lon="10.912205166666668"><ele>284.5</ele><time>2026-04-18T11:47:35.912Z</time></trkpt><trkpt lat="43.45451283333333" lon="10.912254833333334"><ele>287.0</ele><time>2026-04-18T11:47:37.011Z</time></trkpt><trkpt lat="43.45437466666667" lon="10.912281499999999"><ele>289.5</ele><time>2026-04-18T11:47:37.948Z</time></trkpt><trkpt lat="43.454235000000004" lon="10.912283333333333"><ele>292.0</ele><time>2026-04-18T11:47:38.909Z</time></trkpt><trkpt lat="43.454111333333344" lon="10.912266333333333"><ele>292.0</ele><time>2026-04-18T11:47:39.913Z</time></trkpt><trkpt lat="43.45400349999999" lon="10.9122415"><ele>292.0</ele><time>2026-04-18T11:47:40.921Z</time></trkpt><trkpt lat="43.4538695" lon="10.912192833333332"><ele>292.0</ele><time>2026-04-18T11:47:42.943Z</time></trkpt><trkpt lat="43.45378716666667" lon="10.912161166666666"><ele>292.0</ele><time>2026-04-18T11:47:43.914Z</time></trkpt><trkpt lat="43.45369866666667" lon="10.912139333333334"><ele>292.0</ele><time>2026-04-18T11:47:44.921Z</time></trkpt><trkpt lat="43.453604500000004" lon="10.912134166666666"><ele>292.4</ele><time>2026-04-18T11:47:45.919Z</time></trkpt><trkpt lat="43.45350416666666" lon="10.912145666666666"><ele>292.79999999999995</ele><time>2026-04-18T11:47:46.942Z</time></trkpt><trkpt lat="43.453397333333335" lon="10.912171166666667"><ele>293.2</ele><time>2026-04-18T11:47:47.904Z</time></trkpt><trkpt lat="43.453284000000004" lon="10.912203666666668"><ele>293.59999999999997</ele><time>2026-04-18T11:47:48.909Z</time></trkpt><trkpt lat="43.45316883333333" lon="10.9122385"><ele>294.0</ele><time>2026-04-18T11:47:49.911Z</time></trkpt><trkpt lat="43.45305416666667" lon="10.912272166666666"><ele>293.59999999999997</ele><time>2026-04-18T11:47:50.937Z</time></trkpt><trkpt lat="43.45294283333333" lon="10.912297333333333"><ele>293.2</ele><time>2026-04-18T11:47:51.913Z</time></trkpt><trkpt lat="43.45283583333333" lon="10.9123185"><ele>292.79999999999995</ele><time>2026-04-18T11:47:52.917Z</time></trkpt><trkpt lat="43.45273283333332" lon="10.9123305"><ele>292.4</ele><time>2026-04-18T11:47:53.909Z</time></trkpt><trkpt lat="43.452635369829395" lon="10.91230265092691"><ele>292.0</ele><time>2026-04-18T11:47:54.929Z</time></trkpt><trkpt lat="43.45254294754558" lon="10.91226006296365"><ele>292.0</ele><time>2026-04-18T11:47:55.912Z</time></trkpt><trkpt lat="43.452448343572044" lon="10.912203752796549"><ele>292.0</ele><time>2026-04-18T11:47:56.909Z</time></trkpt><trkpt lat="43.452345701302114" lon="10.912158415200635"><ele>292.0</ele><time>2026-04-18T11:47:57.917Z</time></trkpt><trkpt lat="43.452238759383626" lon="10.912123176831557"><ele>292.0</ele><time>2026-04-18T11:47:58.927Z</time></trkpt><trkpt lat="43.45212345643457" lon="10.912098150029157"><ele>292.0</ele><time>2026-04-18T11:47:59.931Z</time></trkpt><trkpt lat="43.45199666666667" lon="10.9121095"><ele>290.75</ele><time>2026-04-18T11:48:00.912Z</time></trkpt><trkpt lat="43.451865500000004" lon="10.912102333333332"><ele>289.5</ele><time>2026-04-18T11:48:01.914Z</time></trkpt><trkpt lat="43.451736" lon="10.912102333333332"><ele>288.25</ele><time>2026-04-18T11:48:02.922Z</time></trkpt><trkpt lat="43.45155300256381" lon="10.912062888115061"><ele>287.0</ele><time>2026-04-18T11:48:03.945Z</time></trkpt><trkpt lat="43.45144116559477" lon="10.912029176661699"><ele>287.0</ele><time>2026-04-18T11:48:04.913Z</time></trkpt><trkpt lat="43.45133315617798" lon="10.911987079918976"><ele>287.0</ele><time>2026-04-18T11:48:05.906Z</time></trkpt><trkpt lat="43.45123346520934" lon="10.911943518042314"><ele>287.0</ele><time>2026-04-18T11:48:07.017Z</time></trkpt><trkpt lat="43.451136584335465" lon="10.911920011508974"><ele>287.0</ele><time>2026-04-18T11:48:07.929Z</time></trkpt><trkpt lat="43.45103949999999" lon="10.9119445"><ele>287.0</ele><time>2026-04-18T11:48:08.913Z</time></trkpt><trkpt lat="43.45094650437759" lon="10.91194136239149"><ele>286.2</ele><time>2026-04-18T11:48:09.913Z</time></trkpt><trkpt lat="43.45086271169985" lon="10.91195744381682"><ele>285.4</ele><time>2026-04-18T11:48:10.908Z</time></trkpt><trkpt lat="43.450762436731864" lon="10.911934618242771"><ele>284.6</ele><time>2026-04-18T11:48:12.904Z</time></trkpt><trkpt lat="43.45068666666666" lon="10.911867"><ele>283.8</ele><time>2026-04-18T11:48:13.908Z</time></trkpt><trkpt lat="43.45063595310059" lon="10.911750765859544"><ele>283.0</ele><time>2026-04-18T11:48:14.92Z</time></trkpt><trkpt lat="43.45055810981666" lon="10.911638845357173"><ele>281.75</ele><time>2026-04-18T11:48:15.926Z</time></trkpt><trkpt lat="43.45045150148712" lon="10.911551008767399"><ele>280.5</ele><time>2026-04-18T11:48:16.928Z</time></trkpt><trkpt lat="43.45032453643086" lon="10.91146586329225"><ele>279.25</ele><time>2026-04-18T11:48:17.918Z</time></trkpt><trkpt lat="43.45017686118403" lon="10.911370879183774"><ele>278.0</ele><time>2026-04-18T11:48:18.91Z</time></trkpt><trkpt lat="43.45001386558693" lon="10.911271454975154"><ele>278.0</ele><time>2026-04-18T11:48:19.909Z</time></trkpt><trkpt lat="43.44985083115762" lon="10.911184120534084"><ele>278.0</ele><time>2026-04-18T11:48:20.932Z</time></trkpt><trkpt lat="43.449690271509155" lon="10.911103285974912"><ele>278.0</ele><time>2026-04-18T11:48:21.911Z</time></trkpt><trkpt lat="43.44953499424579" lon="10.911015278916597"><ele>276.33333333333337</ele><time>2026-04-18T11:48:22.906Z</time></trkpt><trkpt lat="43.449367716247345" lon="10.910929863285903"><ele>274.6666666666667</ele><time>2026-04-18T11:48:23.919Z</time></trkpt><trkpt lat="43.44920184278051" lon="10.910863605339255"><ele>273.0</ele><time>2026-04-18T11:48:24.926Z</time></trkpt><trkpt lat="43.44904501844942" lon="10.910809800050046"><ele>273.0</ele><time>2026-04-18T11:48:25.914Z</time></trkpt><trkpt lat="43.44889950051429" lon="10.910761105534949"><ele>273.0</ele><time>2026-04-18T11:48:26.909Z</time></trkpt><trkpt lat="43.448761135448926" lon="10.910692728156937"><ele>273.0</ele><time>2026-04-18T11:48:28.017Z</time></trkpt><trkpt lat="43.44862620144972" lon="10.910597269775625"><ele>273.0</ele><time>2026-04-18T11:48:28.935Z</time></trkpt><trkpt lat="43.448495693654735" lon="10.910491904160324"><ele>272.75</ele><time>2026-04-18T11:48:29.913Z</time></trkpt><trkpt lat="43.448376935629064" lon="10.910388432516944"><ele>272.5</ele><time>2026-04-18T11:48:30.913Z</time></trkpt><trkpt lat="43.44826469219399" lon="10.910297747143286"><ele>272.25</ele><time>2026-04-18T11:48:31.909Z</time></trkpt><trkpt lat="43.4481496191836" lon="10.910217049800924"><ele>272.0</ele><time>2026-04-18T11:48:32.929Z</time></trkpt><trkpt lat="43.448031321783" lon="10.910143914413124"><ele>270.75</ele><time>2026-04-18T11:48:33.929Z</time></trkpt><trkpt lat="43.44791210974179" lon="10.910073434853556"><ele>269.5</ele><time>2026-04-18T11:48:34.918Z</time></trkpt><trkpt lat="43.4477901571275" lon="10.910007201930544"><ele>268.25</ele><time>2026-04-18T11:48:35.911Z</time></trkpt><trkpt lat="43.44766784934174" lon="10.909943486737806"><ele>267.0</ele><time>2026-04-18T11:48:36.909Z</time></trkpt><trkpt lat="43.447545869808714" lon="10.909872508036077"><ele>267.0</ele><time>2026-04-18T11:48:37.934Z</time></trkpt><trkpt lat="43.44742500061037" lon="10.909794571833103"><ele>267.0</ele><time>2026-04-18T11:48:38.912Z</time></trkpt><trkpt lat="43.44730374270531" lon="10.909715704929283"><ele>267.0</ele><time>2026-04-18T11:48:39.908Z</time></trkpt><trkpt lat="43.447180026251544" lon="10.9096424294949"><ele>267.0</ele><time>2026-04-18T11:48:40.913Z</time></trkpt><trkpt lat="43.447055423493474" lon="10.909575482895919"><ele>265.5</ele><time>2026-04-18T11:48:41.927Z</time></trkpt><trkpt lat="43.446930676492066" lon="10.909524234727106"><ele>264.0</ele><time>2026-04-18T11:48:42.948Z</time></trkpt><trkpt lat="43.4468150723364" lon="10.909480825892436"><ele>262.5</ele><time>2026-04-18T11:48:43.913Z</time></trkpt><trkpt lat="43.446709903309966" lon="10.909443940820138"><ele>261.0</ele><time>2026-04-18T11:48:44.901Z</time></trkpt><trkpt lat="43.44661421897479" lon="10.909406777334874"><ele>261.0</ele><time>2026-04-18T11:48:45.916Z</time></trkpt><trkpt lat="43.44653416132023" lon="10.90934391248873"><ele>261.0</ele><time>2026-04-18T11:48:46.918Z</time></trkpt><trkpt lat="43.446461935688504" lon="10.90925738215717"><ele>261.0</ele><time>2026-04-18T11:48:47.906Z</time></trkpt><trkpt lat="43.44639312906137" lon="10.9091370149514"><ele>261.0</ele><time>2026-04-18T11:48:48.918Z</time></trkpt><trkpt lat="43.44632698191579" lon="10.908987739496872"><ele>261.0</ele><time>2026-04-18T11:48:50.04Z</time></trkpt><trkpt lat="43.4462658738439" lon="10.90882469164043"><ele>260.0</ele><time>2026-04-18T11:48:50.942Z</time></trkpt><trkpt lat="43.44621108815008" lon="10.908660149645764"><ele>259.0</ele><time>2026-04-18T11:48:51.91Z</time></trkpt><trkpt lat="43.44616579740437" lon="10.908497108280898"><ele>258.0</ele><time>2026-04-18T11:48:52.914Z</time></trkpt><trkpt lat="43.44612366235874" lon="10.908335920168383"><ele>257.0</ele><time>2026-04-18T11:48:53.912Z</time></trkpt><trkpt lat="43.44608551066392" lon="10.908194241787799"><ele>257.0</ele><time>2026-04-18T11:48:54.936Z</time></trkpt><trkpt lat="43.44604393133501" lon="10.908057909900052"><ele>257.0</ele><time>2026-04-18T11:48:55.917Z</time></trkpt><trkpt lat="43.445995160657255" lon="10.907924230751881"><ele>257.0</ele><time>2026-04-18T11:48:56.918Z</time></trkpt><trkpt lat="43.445940399804925" lon="10.907794905939959"><ele>257.0</ele><time>2026-04-18T11:48:57.915Z</time></trkpt><trkpt lat="43.4458711805187" lon="10.907660603761814"><ele>257.0</ele><time>2026-04-18T11:48:58.934Z</time></trkpt><trkpt lat="43.4457900176791" lon="10.907529681118014"><ele>256.5</ele><time>2026-04-18T11:48:59.934Z</time></trkpt><trkpt lat="43.44570123742989" lon="10.907387380454947"><ele>256.0</ele><time>2026-04-18T11:49:00.909Z</time></trkpt><trkpt lat="43.44561285024349" lon="10.907238175781115"><ele>255.5</ele><time>2026-04-18T11:49:01.918Z</time></trkpt><trkpt lat="43.44552875248799" lon="10.907088201361466"><ele>255.0</ele><time>2026-04-18T11:49:02.918Z</time></trkpt><trkpt lat="43.445446303097455" lon="10.906941166694644"><ele>254.25</ele><time>2026-04-18T11:49:03.908Z</time></trkpt><trkpt lat="43.44536483548989" lon="10.90679691665712"><ele>253.5</ele><time>2026-04-18T11:49:04.907Z</time></trkpt><trkpt lat="43.4452806957922" lon="10.90665272034433"><ele>252.75</ele><time>2026-04-18T11:49:05.908Z</time></trkpt><trkpt lat="43.44518997911619" lon="10.906505922552812"><ele>252.0</ele><time>2026-04-18T11:49:06.909Z</time></trkpt><trkpt lat="43.4450894282148" lon="10.906363119806368"><ele>252.0</ele><time>2026-04-18T11:49:07.95Z</time></trkpt><trkpt lat="43.44498047614595" lon="10.906220290018531"><ele>252.0</ele><time>2026-04-18T11:49:08.909Z</time></trkpt><trkpt lat="43.44487254314788" lon="10.90607665191014"><ele>252.0</ele><time>2026-04-18T11:49:09.907Z</time></trkpt><trkpt lat="43.44476729800282" lon="10.90593318876566"><ele>252.0</ele><time>2026-04-18T11:49:10.903Z</time></trkpt><trkpt lat="43.44466568167609" lon="10.905793259967124"><ele>251.0</ele><time>2026-04-18T11:49:12.033Z</time></trkpt><trkpt lat="43.44457890614943" lon="10.905653197995166"><ele>250.0</ele><time>2026-04-18T11:49:12.943Z</time></trkpt><trkpt lat="43.44450570608924" lon="10.905500653778697"><ele>249.0</ele><time>2026-04-18T11:49:13.902Z</time></trkpt><trkpt lat="43.44443815244025" lon="10.905351385437465"><ele>248.0</ele><time>2026-04-18T11:49:14.903Z</time></trkpt><trkpt lat="43.4443717358003" lon="10.905209823666727"><ele>248.75</ele><time>2026-04-18T11:49:15.927Z</time></trkpt><trkpt lat="43.44430133940615" lon="10.905076705773563"><ele>249.5</ele><time>2026-04-18T11:49:16.931Z</time></trkpt><trkpt lat="43.44421351980764" lon="10.904957909524473"><ele>250.25</ele><time>2026-04-18T11:49:17.905Z</time></trkpt><trkpt lat="43.444114348568796" lon="10.904846123854684"><ele>251.0</ele><time>2026-04-18T11:49:18.918Z</time></trkpt><trkpt lat="43.44400579273547" lon="10.904740502414619"><ele>251.0</ele><time>2026-04-18T11:49:19.932Z</time></trkpt><trkpt lat="43.443894761902634" lon="10.90463306663246"><ele>251.0</ele><time>2026-04-18T11:49:21.039Z</time></trkpt><trkpt lat="43.44378068664768" lon="10.904526743322606"><ele>251.0</ele><time>2026-04-18T11:49:21.906Z</time></trkpt><trkpt lat="43.44366451306644" lon="10.904419308457532"><ele>251.0</ele><time>2026-04-18T11:49:22.909Z</time></trkpt><trkpt lat="43.443549224837994" lon="10.904312414170231"><ele>249.5</ele><time>2026-04-18T11:49:23.913Z</time></trkpt><trkpt lat="43.44343623380421" lon="10.904207378508637"><ele>248.0</ele><time>2026-04-18T11:49:24.94Z</time></trkpt><trkpt lat="43.44332437142743" lon="10.904104022686202"><ele>246.5</ele><time>2026-04-18T11:49:25.911Z</time></trkpt><trkpt lat="43.44321225301886" lon="10.904004316754039"><ele>245.0</ele><time>2026-04-18T11:49:26.912Z</time></trkpt><trkpt lat="43.44309810424336" lon="10.90390647494758"><ele>245.0</ele><time>2026-04-18T11:49:27.911Z</time></trkpt><trkpt lat="43.4429779726212" lon="10.903806696895183"><ele>245.0</ele><time>2026-04-18T11:49:28.943Z</time></trkpt><trkpt lat="43.4428578471376" lon="10.903707194571659"><ele>245.0</ele><time>2026-04-18T11:49:29.961Z</time></trkpt><trkpt lat="43.442740459215756" lon="10.903604085156822"><ele>245.0</ele><time>2026-04-18T11:49:30.917Z</time></trkpt><trkpt lat="43.44262497264059" lon="10.90349890322012"><ele>245.25</ele><time>2026-04-18T11:49:31.91Z</time></trkpt><trkpt lat="43.442511421550975" lon="10.903388582966164"><ele>245.5</ele><time>2026-04-18T11:49:32.929Z</time></trkpt><trkpt lat="43.44239941901591" lon="10.903275869420522"><ele>245.75</ele><time>2026-04-18T11:49:33.918Z</time></trkpt><trkpt lat="43.442287132151435" lon="10.903164319033317"><ele>246.0</ele><time>2026-04-18T11:49:34.911Z</time></trkpt><trkpt lat="43.44217341749641" lon="10.90306446378945"><ele>245.5</ele><time>2026-04-18T11:49:35.906Z</time></trkpt><trkpt lat="43.44206011327626" lon="10.902972546903982"><ele>245.0</ele><time>2026-04-18T11:49:36.933Z</time></trkpt><trkpt lat="43.441947823964" lon="10.902883596107246"><ele>244.5</ele><time>2026-04-18T11:49:37.939Z</time></trkpt><trkpt lat="43.44182920081187" lon="10.902807136154857"><ele>244.0</ele><time>2026-04-18T11:49:38.917Z</time></trkpt><trkpt lat="43.44170319692412" lon="10.902745104642973"><ele>244.0</ele><time>2026-04-18T11:49:39.909Z</time></trkpt><trkpt lat="43.441566902234264" lon="10.902700165881694"><ele>244.0</ele><time>2026-04-18T11:49:40.918Z</time></trkpt><trkpt lat="43.441426684109075" lon="10.902676724673896"><ele>244.0</ele><time>2026-04-18T11:49:41.902Z</time></trkpt><trkpt lat="43.441292569637085" lon="10.902667544116614"><ele>244.0</ele><time>2026-04-18T11:49:42.91Z</time></trkpt><trkpt lat="43.44116182384016" lon="10.902658988526497"><ele>243.5</ele><time>2026-04-18T11:49:43.91Z</time></trkpt><trkpt lat="43.44103532924643" lon="10.902645553568023"><ele>243.0</ele><time>2026-04-18T11:49:44.918Z</time></trkpt><trkpt lat="43.44090968110497" lon="10.902625423640934"><ele>242.5</ele><time>2026-04-18T11:49:45.93Z</time></trkpt><trkpt lat="43.440785000000005" lon="10.902610666666666"><ele>242.0</ele><time>2026-04-18T11:49:46.945Z</time></trkpt><trkpt lat="43.440665833333334" lon="10.90256016666667"><ele>243.0</ele><time>2026-04-18T11:49:47.904Z</time></trkpt><trkpt lat="43.44054783333333" lon="10.902494833333332"><ele>244.0</ele><time>2026-04-18T11:49:48.929Z</time></trkpt><trkpt lat="43.44042783333333" lon="10.902413000000001"><ele>245.0</ele><time>2026-04-18T11:49:49.928Z</time></trkpt><trkpt lat="43.44030850000001" lon="10.902308166666668"><ele>246.0</ele><time>2026-04-18T11:49:50.945Z</time></trkpt><trkpt lat="43.440192333333336" lon="10.902185166666667"><ele>247.0</ele><time>2026-04-18T11:49:51.911Z</time></trkpt><trkpt lat="43.440100535790194" lon="10.902022599937519"><ele>248.0</ele><time>2026-04-18T11:49:52.918Z</time></trkpt><trkpt lat="43.44001306323001" lon="10.901859823767209"><ele>249.0</ele><time>2026-04-18T11:49:53.924Z</time></trkpt><trkpt lat="43.43992782997731" lon="10.90170298416911"><ele>250.0</ele><time>2026-04-18T11:49:54.907Z</time></trkpt><trkpt lat="43.43984814004654" lon="10.901559180676955"><ele>250.0</ele><time>2026-04-18T11:49:55.905Z</time></trkpt><trkpt lat="43.43977655291494" lon="10.90142110427962"><ele>250.0</ele><time>2026-04-18T11:49:56.914Z</time></trkpt><trkpt lat="43.439717695603775" lon="10.901286282463454"><ele>250.0</ele><time>2026-04-18T11:49:57.905Z</time></trkpt><trkpt lat="43.43967955158154" lon="10.901143815049046"><ele>250.0</ele><time>2026-04-18T11:49:58.916Z</time></trkpt><trkpt lat="43.439654130982085" lon="10.900987303113116"><ele>249.25</ele><time>2026-04-18T11:49:59.971Z</time></trkpt><trkpt lat="43.43965007807341" lon="10.900821013954074"><ele>248.5</ele><time>2026-04-18T11:50:00.902Z</time></trkpt><trkpt lat="43.43965816417665" lon="10.900648027929625"><ele>247.75</ele><time>2026-04-18T11:50:01.915Z</time></trkpt><trkpt lat="43.4396723060056" lon="10.900477034424444"><ele>247.0</ele><time>2026-04-18T11:50:03.143Z</time></trkpt><trkpt lat="43.439698281353444" lon="10.900160067185718"><ele>247.0</ele><time>2026-04-18T11:50:04.918Z</time></trkpt><trkpt lat="43.439705018493406" lon="10.900016141379535"><ele>247.0</ele><time>2026-04-18T11:50:05.914Z</time></trkpt><trkpt lat="43.43969540944635" lon="10.899872437198432"><ele>247.0</ele><time>2026-04-18T11:50:06.925Z</time></trkpt><trkpt lat="43.43967205961986" lon="10.899750502262547"><ele>247.0</ele><time>2026-04-18T11:50:07.93Z</time></trkpt><trkpt lat="43.4396374657848" lon="10.899634697799074"><ele>247.0</ele><time>2026-04-18T11:50:08.914Z</time></trkpt><trkpt lat="43.43959446121835" lon="10.899536559224062"><ele>247.66666666666666</ele><time>2026-04-18T11:50:10.003Z</time></trkpt><trkpt lat="43.43953672564995" lon="10.89945125805731"><ele>248.33333333333331</ele><time>2026-04-18T11:50:10.917Z</time></trkpt><trkpt lat="43.439467380983615" lon="10.899385993080129"><ele>249.0</ele><time>2026-04-18T11:50:11.936Z</time></trkpt><trkpt lat="43.43939576461226" lon="10.899321042508847"><ele>249.66666666666669</ele><time>2026-04-18T11:50:12.917Z</time></trkpt><trkpt lat="43.43932528477006" lon="10.899245316633701"><ele>250.33333333333334</ele><time>2026-04-18T11:50:13.91Z</time></trkpt><trkpt lat="43.43925140466239" lon="10.899156116213767"><ele>251.0</ele><time>2026-04-18T11:50:14.912Z</time></trkpt><trkpt lat="43.43917587194526" lon="10.899064920436413"><ele>251.0</ele><time>2026-04-18T11:50:15.901Z</time></trkpt><trkpt lat="43.439099946570245" lon="10.898973250665946"><ele>251.00000000000003</ele><time>2026-04-18T11:50:16.917Z</time></trkpt><trkpt lat="43.43902328273974" lon="10.898882593510761"><ele>251.00000000000003</ele><time>2026-04-18T11:50:17.908Z</time></trkpt><trkpt lat="43.438946148046355" lon="10.898794075368965"><ele>251.0</ele><time>2026-04-18T11:50:18.924Z</time></trkpt><trkpt lat="43.438879182073265" lon="10.898698064253898"><ele>251.0</ele><time>2026-04-18T11:50:19.933Z</time></trkpt><trkpt lat="43.438822814429535" lon="10.898583705403738"><ele>250.60000000000002</ele><time>2026-04-18T11:50:20.915Z</time></trkpt><trkpt lat="43.43877750419374" lon="10.898461888159712"><ele>250.20000000000002</ele><time>2026-04-18T11:50:21.906Z</time></trkpt><trkpt lat="43.43875260721945" lon="10.898332149088723"><ele>249.79999999999998</ele><time>2026-04-18T11:50:22.906Z</time></trkpt><trkpt lat="43.438724306523206" lon="10.898194187800533"><ele>249.39999999999998</ele><time>2026-04-18T11:50:23.929Z</time></trkpt><trkpt lat="43.43867745054702" lon="10.898062997063022"><ele>249.0</ele><time>2026-04-18T11:50:24.947Z</time></trkpt><trkpt lat="43.43861504947724" lon="10.897946002754104"><ele>248.6</ele><time>2026-04-18T11:50:25.914Z</time></trkpt><trkpt lat="43.43854493288331" lon="10.897835093929686"><ele>248.2</ele><time>2026-04-18T11:50:26.919Z</time></trkpt><trkpt lat="43.438482579103585" lon="10.897726311386194"><ele>247.79999999999998</ele><time>2026-04-18T11:50:27.91Z</time></trkpt><trkpt lat="43.438424548867616" lon="10.897608230580587"><ele>247.39999999999998</ele><time>2026-04-18T11:50:28.937Z</time></trkpt><trkpt lat="43.438376500000004" lon="10.8974665"><ele>247.0</ele><time>2026-04-18T11:50:29.919Z</time></trkpt><trkpt lat="43.43836083333334" lon="10.897295333333334"><ele>245.0</ele><time>2026-04-18T11:50:30.909Z</time></trkpt><trkpt lat="43.43836836620708" lon="10.897098689460009"><ele>243.0</ele><time>2026-04-18T11:50:31.914Z</time></trkpt><trkpt lat="43.43833680663028" lon="10.89690034699798"><ele>241.0</ele><time>2026-04-18T11:50:32.927Z</time></trkpt><trkpt lat="43.43829010119544" lon="10.896722419640946"><ele>239.0</ele><time>2026-04-18T11:50:33.914Z</time></trkpt><trkpt lat="43.43823945668409" lon="10.896564306618945"><ele>237.6</ele><time>2026-04-18T11:50:34.916Z</time></trkpt><trkpt lat="43.438185000000004" lon="10.896425333333331"><ele>236.2</ele><time>2026-04-18T11:50:35.911Z</time></trkpt><trkpt lat="43.43817333333333" lon="10.896278500000001"><ele>234.79999999999998</ele><time>2026-04-18T11:50:36.936Z</time></trkpt><trkpt lat="43.438184666666665" lon="10.89615"><ele>233.39999999999998</ele><time>2026-04-18T11:50:37.901Z</time></trkpt><trkpt lat="43.438197833333334" lon="10.896035833333332"><ele>232.0</ele><time>2026-04-18T11:50:38.923Z</time></trkpt><trkpt lat="43.43819716666667" lon="10.8959305"><ele>231.8</ele><time>2026-04-18T11:50:39.904Z</time></trkpt><trkpt lat="43.43819660770539" lon="10.89582077195888"><ele>231.6</ele><time>2026-04-18T11:50:40.92Z</time></trkpt><trkpt lat="43.43815726578556" lon="10.895731516419561"><ele>231.40000000000003</ele><time>2026-04-18T11:50:41.916Z</time></trkpt><trkpt lat="43.4380944410293" lon="10.89565677894014"><ele>231.20000000000002</ele><time>2026-04-18T11:50:42.914Z</time></trkpt><trkpt lat="43.43802996892215" lon="10.895592817780951"><ele>231.0</ele><time>2026-04-18T11:50:44.199Z</time></trkpt><trkpt lat="43.43790025629017" lon="10.895450762198095"><ele>230.60000000000002</ele><time>2026-04-18T11:50:45.939Z</time></trkpt><trkpt lat="43.43783133333333" lon="10.895362"><ele>230.20000000000002</ele><time>2026-04-18T11:50:46.912Z</time></trkpt><trkpt lat="43.437782" lon="10.895243833333332"><ele>229.79999999999998</ele><time>2026-04-18T11:50:47.915Z</time></trkpt><trkpt lat="43.437751283382134" lon="10.895108098916472"><ele>229.39999999999998</ele><time>2026-04-18T11:50:48.915Z</time></trkpt><trkpt lat="43.43770628672718" lon="10.894976604177515"><ele>229.0</ele><time>2026-04-18T11:50:49.927Z</time></trkpt><trkpt lat="43.43766026410153" lon="10.894842254845367"><ele>228.6</ele><time>2026-04-18T11:50:50.902Z</time></trkpt><trkpt lat="43.437610890168926" lon="10.894713996782482"><ele>228.2</ele><time>2026-04-18T11:50:51.912Z</time></trkpt><trkpt lat="43.43755524746763" lon="10.894584335631043"><ele>227.79999999999998</ele><time>2026-04-18T11:50:52.925Z</time></trkpt><trkpt lat="43.43748610190926" lon="10.894470737602061"><ele>227.39999999999998</ele><time>2026-04-18T11:50:53.92Z</time></trkpt><trkpt lat="43.437406824851514" lon="10.894365400557742"><ele>227.0</ele><time>2026-04-18T11:50:55.051Z</time></trkpt><trkpt lat="43.43731458241378" lon="10.89427036669923"><ele>225.5</ele><time>2026-04-18T11:50:55.911Z</time></trkpt><trkpt lat="43.43721796811264" lon="10.894188842704907"><ele>224.0</ele><time>2026-04-18T11:50:56.914Z</time></trkpt><trkpt lat="43.43712230561663" lon="10.894105519550797"><ele>222.5</ele><time>2026-04-18T11:50:57.922Z</time></trkpt><trkpt lat="43.43702276809902" lon="10.894030792391067"><ele>221.0</ele><time>2026-04-18T11:50:59.154Z</time></trkpt><trkpt lat="43.43681491901534" lon="10.89392136540824"><ele>220.4</ele><time>2026-04-18T11:51:00.919Z</time></trkpt><trkpt lat="43.43670740313581" lon="10.893885289790697"><ele>219.8</ele><time>2026-04-18T11:51:01.915Z</time></trkpt><trkpt lat="43.436597550699936" lon="10.893856901133022"><ele>219.20000000000002</ele><time>2026-04-18T11:51:02.928Z</time></trkpt><trkpt lat="43.436493427217606" lon="10.89383644732467"><ele>218.60000000000002</ele><time>2026-04-18T11:51:03.912Z</time></trkpt><trkpt lat="43.43639440177412" lon="10.893812898266182"><ele>218.0</ele><time>2026-04-18T11:51:04.918Z</time></trkpt><trkpt lat="43.436299977701246" lon="10.893778246414817"><ele>218.00000000000003</ele><time>2026-04-18T11:51:05.918Z</time></trkpt><trkpt lat="43.43621125393633" lon="10.893736038274895"><ele>218.0</ele><time>2026-04-18T11:51:06.935Z</time></trkpt><trkpt lat="43.43613041243265" lon="10.893688593963287"><ele>218.0</ele><time>2026-04-18T11:51:07.907Z</time></trkpt><trkpt lat="43.43604950000001" lon="10.893649999999997"><ele>218.0</ele><time>2026-04-18T11:51:08.912Z</time></trkpt><trkpt lat="43.4359825" lon="10.893578666666668"><ele>218.00000000000003</ele><time>2026-04-18T11:51:09.911Z</time></trkpt><trkpt lat="43.435930046599296" lon="10.893475498256903"><ele>218.0</ele><time>2026-04-18T11:51:10.926Z</time></trkpt><trkpt lat="43.43586260118467" lon="10.893376595431905"><ele>218.0</ele><time>2026-04-18T11:51:11.932Z</time></trkpt><trkpt lat="43.435791576296666" lon="10.89326705384931"><ele>218.0</ele><time>2026-04-18T11:51:12.912Z</time></trkpt><trkpt lat="43.43571504832743" lon="10.893149551837809"><ele>218.0</ele><time>2026-04-18T11:51:13.903Z</time></trkpt><trkpt lat="43.435630191427826" lon="10.893025451454257"><ele>218.0</ele><time>2026-04-18T11:51:14.911Z</time></trkpt><trkpt lat="43.43553908329367" lon="10.892896466944698"><ele>216.25</ele><time>2026-04-18T11:51:15.934Z</time></trkpt><trkpt lat="43.43544480243695" lon="10.89276656188569"><ele>214.5</ele><time>2026-04-18T11:51:16.914Z</time></trkpt><trkpt lat="43.43534907984847" lon="10.892637903997771"><ele>212.75</ele><time>2026-04-18T11:51:17.92Z</time></trkpt><trkpt lat="43.435248111976954" lon="10.892516048292636"><ele>211.0</ele><time>2026-04-18T11:51:18.915Z</time></trkpt><trkpt lat="43.43510416557967" lon="10.89235818518724"><ele>211.0</ele><time>2026-04-18T11:51:19.934Z</time></trkpt><trkpt lat="43.43496183333333" lon="10.892223166666668"><ele>211.0</ele><time>2026-04-18T11:51:21.911Z</time></trkpt><trkpt lat="43.4348925" lon="10.892099"><ele>211.0</ele><time>2026-04-18T11:51:22.912Z</time></trkpt><trkpt lat="43.43485234280558" lon="10.891954588052586"><ele>211.0</ele><time>2026-04-18T11:51:23.932Z</time></trkpt><trkpt lat="43.4348199248395" lon="10.89181836859183"><ele>211.60000000000002</ele><time>2026-04-18T11:51:24.917Z</time></trkpt><trkpt lat="43.43478864056522" lon="10.891695815534698"><ele>212.2</ele><time>2026-04-18T11:51:25.911Z</time></trkpt><trkpt lat="43.4347565735143" lon="10.891606037312128"><ele>212.79999999999998</ele><time>2026-04-18T11:51:26.918Z</time></trkpt><trkpt lat="43.43469378571994" lon="10.891529153207639"><ele>213.39999999999998</ele><time>2026-04-18T11:51:27.926Z</time></trkpt><trkpt lat="43.434600863557044" lon="10.891525247723019"><ele>214.0</ele><time>2026-04-18T11:51:29.91Z</time></trkpt><trkpt lat="43.43450313826371" lon="10.891624966657188"><ele>212.14285714285717</ele><time>2026-04-18T11:51:31.921Z</time></trkpt><trkpt lat="43.43446589264885" lon="10.89169577889174"><ele>210.28571428571428</ele><time>2026-04-18T11:51:32.944Z</time></trkpt><trkpt lat="43.4344358248916" lon="10.891779457769836"><ele>208.42857142857144</ele><time>2026-04-18T11:51:33.909Z</time></trkpt><trkpt lat="43.434413839732386" lon="10.891870864011047"><ele>206.57142857142858</ele><time>2026-04-18T11:51:34.921Z</time></trkpt><trkpt lat="43.43439597192704" lon="10.891964068014502"><ele>204.71428571428572</ele><time>2026-04-18T11:51:35.914Z</time></trkpt><trkpt lat="43.43438408117768" lon="10.89206320689345"><ele>202.85714285714286</ele><time>2026-04-18T11:51:36.934Z</time></trkpt><trkpt lat="43.434391355727136" lon="10.892173524203203"><ele>201.0</ele><time>2026-04-18T11:51:37.903Z</time></trkpt><trkpt lat="43.43441667850323" lon="10.892279410424099"><ele>200.20000000000002</ele><time>2026-04-18T11:51:38.913Z</time></trkpt><trkpt lat="43.43444898821946" lon="10.892388603148943"><ele>199.4</ele><time>2026-04-18T11:51:39.921Z</time></trkpt><trkpt lat="43.43448970122723" lon="10.89250144661964"><ele>198.6</ele><time>2026-04-18T11:51:40.927Z</time></trkpt><trkpt lat="43.43453779750035" lon="10.892618679151317"><ele>197.8</ele><time>2026-04-18T11:51:41.905Z</time></trkpt><trkpt lat="43.434588231056416" lon="10.892735711924516"><ele>197.0</ele><time>2026-04-18T11:51:42.908Z</time></trkpt><trkpt lat="43.434641" lon="10.892854499999999"><ele>196.6</ele><time>2026-04-18T11:51:43.912Z</time></trkpt><trkpt lat="43.43466166666667" lon="10.892997833333334"><ele>196.2</ele><time>2026-04-18T11:51:44.924Z</time></trkpt><trkpt lat="43.434668333333335" lon="10.893148000000002"><ele>195.8</ele><time>2026-04-18T11:51:45.943Z</time></trkpt><trkpt lat="43.43466583333334" lon="10.893301000000001"><ele>195.4</ele><time>2026-04-18T11:51:46.922Z</time></trkpt><trkpt lat="43.43467283333333" lon="10.893448166666667"><ele>195.0</ele><time>2026-04-18T11:51:47.912Z</time></trkpt><trkpt lat="43.43466661081082" lon="10.893581236530515"><ele>195.0</ele><time>2026-04-18T11:51:48.926Z</time></trkpt><trkpt lat="43.43467947678606" lon="10.893692821874915"><ele>195.0</ele><time>2026-04-18T11:51:49.939Z</time></trkpt><trkpt lat="43.434690488687444" lon="10.893781880792707"><ele>195.0</ele><time>2026-04-18T11:51:50.916Z</time></trkpt><trkpt lat="43.43468916666667" lon="10.893901999999999"><ele>195.0</ele><time>2026-04-18T11:51:52.911Z</time></trkpt><trkpt lat="43.43459516666667" lon="10.893925999999999"><ele>195.0</ele><time>2026-04-18T11:51:54.92Z</time></trkpt><trkpt lat="43.434495" lon="10.893827"><ele>194.0</ele><time>2026-04-18T11:51:56.925Z</time></trkpt><trkpt lat="43.434438666666665" lon="10.893753666666665"><ele>193.0</ele><time>2026-04-18T11:51:57.911Z</time></trkpt><trkpt lat="43.434375166666655" lon="10.893670333333333"><ele>192.0</ele><time>2026-04-18T11:51:58.915Z</time></trkpt><trkpt lat="43.43431450251759" lon="10.893562617572643"><ele>191.0</ele><time>2026-04-18T11:51:59.914Z</time></trkpt><trkpt lat="43.434232927611426" lon="10.893474946749846"><ele>190.0</ele><time>2026-04-18T11:52:00.916Z</time></trkpt><trkpt lat="43.43414381129735" lon="10.893395134842923"><ele>190.0</ele><time>2026-04-18T11:52:01.916Z</time></trkpt><trkpt lat="43.434050990430705" lon="10.893326224888"><ele>190.0</ele><time>2026-04-18T11:52:02.939Z</time></trkpt><trkpt lat="43.43394883333333" lon="10.893288"><ele>190.0</ele><time>2026-04-18T11:52:03.915Z</time></trkpt><trkpt lat="43.433854999999994" lon="10.893228833333334"><ele>190.0</ele><time>2026-04-18T11:52:04.915Z</time></trkpt><trkpt lat="43.43377250453826" lon="10.893146205397017"><ele>190.0</ele><time>2026-04-18T11:52:05.915Z</time></trkpt><trkpt lat="43.43368752182235" lon="10.893072325291392"><ele>187.6</ele><time>2026-04-18T11:52:06.939Z</time></trkpt><trkpt lat="43.43360648162684" lon="10.89299023173105"><ele>185.2</ele><time>2026-04-18T11:52:07.906Z</time></trkpt><trkpt lat="43.43352536811349" lon="10.892906121853052"><ele>182.8</ele><time>2026-04-18T11:52:08.906Z</time></trkpt><trkpt lat="43.4334462703118" lon="10.892824102133062"><ele>180.4</ele><time>2026-04-18T11:52:10.004Z</time></trkpt><trkpt lat="43.43337142250288" lon="10.892749983728462"><ele>178.0</ele><time>2026-04-18T11:52:10.927Z</time></trkpt><trkpt lat="43.43329593308075" lon="10.89269006872041"><ele>178.0</ele><time>2026-04-18T11:52:11.907Z</time></trkpt><trkpt lat="43.43321338188476" lon="10.892645620512287"><ele>178.0</ele><time>2026-04-18T11:52:12.911Z</time></trkpt><trkpt lat="43.43307507785772" lon="10.89263124066108"><ele>178.0</ele><time>2026-04-18T11:52:13.916Z</time></trkpt><trkpt lat="43.432969252101586" lon="10.892656477007463"><ele>178.0</ele><time>2026-04-18T11:52:14.927Z</time></trkpt><trkpt lat="43.43285708378478" lon="10.892690951890426"><ele>176.75</ele><time>2026-04-18T11:52:15.915Z</time></trkpt><trkpt lat="43.432740691141404" lon="10.89272929323697"><ele>175.5</ele><time>2026-04-18T11:52:16.914Z</time></trkpt><trkpt lat="43.43262616666666" lon="10.8927875"><ele>174.25</ele><time>2026-04-18T11:52:17.911Z</time></trkpt><trkpt lat="43.43250716666667" lon="10.892819666666666"><ele>173.0</ele><time>2026-04-18T11:52:18.91Z</time></trkpt><trkpt lat="43.43238983333334" lon="10.892850666666666"><ele>173.0</ele><time>2026-04-18T11:52:19.942Z</time></trkpt><trkpt lat="43.43227456671626" lon="10.89285385935812"><ele>173.0</ele><time>2026-04-18T11:52:20.908Z</time></trkpt><trkpt lat="43.432175333333326" lon="10.8929005"><ele>173.0</ele><time>2026-04-18T11:52:21.916Z</time></trkpt><trkpt lat="43.4320875" lon="10.892920499999999"><ele>173.0</ele><time>2026-04-18T11:52:22.907Z</time></trkpt><trkpt lat="43.432016833333336" lon="10.892937166666664"><ele>173.0</ele><time>2026-04-18T11:52:23.912Z</time></trkpt><trkpt lat="43.431925025905706" lon="10.892943335982899"><ele>174.0</ele><time>2026-04-18T11:52:25.916Z</time></trkpt><trkpt lat="43.43184215373477" lon="10.893079298610354"><ele>175.0</ele><time>2026-04-18T11:52:28.927Z</time></trkpt><trkpt lat="43.43186466580886" lon="10.893223912672664"><ele>176.0</ele><time>2026-04-18T11:52:31.924Z</time></trkpt><trkpt lat="43.43188351716782" lon="10.893351159410157"><ele>177.0</ele><time>2026-04-18T11:52:32.94Z</time></trkpt><trkpt lat="43.43189794723824" lon="10.893453918076752"><ele>178.0</ele><time>2026-04-18T11:52:33.92Z</time></trkpt><trkpt lat="43.431924333333335" lon="10.893564666666668"><ele>178.2</ele><time>2026-04-18T11:52:34.928Z</time></trkpt><trkpt lat="43.431922333333326" lon="10.893684333333333"><ele>178.4</ele><time>2026-04-18T11:52:35.92Z</time></trkpt><trkpt lat="43.431909499999996" lon="10.8938085"><ele>178.6</ele><time>2026-04-18T11:52:36.932Z</time></trkpt><trkpt lat="43.43188133333333" lon="10.893938166666665"><ele>178.79999999999998</ele><time>2026-04-18T11:52:37.928Z</time></trkpt><trkpt lat="43.43184466666666" lon="10.894070166666666"><ele>179.0</ele><time>2026-04-18T11:52:38.925Z</time></trkpt><trkpt lat="43.4318055" lon="10.894201833333334"><ele>178.75</ele><time>2026-04-18T11:52:39.906Z</time></trkpt><trkpt lat="43.43176666666666" lon="10.894329333333333"><ele>178.5</ele><time>2026-04-18T11:52:40.928Z</time></trkpt><trkpt lat="43.43169866666667" lon="10.894503499999999"><ele>178.25</ele><time>2026-04-18T11:52:42.921Z</time></trkpt><trkpt lat="43.43161549999999" lon="10.894648833333333"><ele>178.0</ele><time>2026-04-18T11:52:43.909Z</time></trkpt><trkpt lat="43.43147558743143" lon="10.894781966756183"><ele>178.0</ele><time>2026-04-18T11:52:45.945Z</time></trkpt><trkpt lat="43.431429036958264" lon="10.894925594131411"><ele>178.0</ele><time>2026-04-18T11:52:47.918Z</time></trkpt><trkpt lat="43.431424848982914" lon="10.8950245"><ele>178.0</ele><time>2026-04-18T11:52:48.927Z</time></trkpt><trkpt lat="43.43143492063034" lon="10.895123636844744"><ele>178.0</ele><time>2026-04-18T11:52:49.948Z</time></trkpt><trkpt lat="43.431455152115" lon="10.895222254999705"><ele>178.0</ele><time>2026-04-18T11:52:50.912Z</time></trkpt><trkpt lat="43.4314904436225" lon="10.895329209214285"><ele>178.0</ele><time>2026-04-18T11:52:51.917Z</time></trkpt><trkpt lat="43.43154390325914" lon="10.89549870933382"><ele>178.60000000000002</ele><time>2026-04-18T11:52:52.922Z</time></trkpt><trkpt lat="43.43157588642998" lon="10.895621152020516"><ele>179.20000000000002</ele><time>2026-04-18T11:52:53.948Z</time></trkpt><trkpt lat="43.43160335832113" lon="10.895751249044329"><ele>179.8</ele><time>2026-04-18T11:52:54.916Z</time></trkpt><trkpt lat="43.431626752287116" lon="10.895884876214135"><ele>180.4</ele><time>2026-04-18T11:52:55.92Z</time></trkpt><trkpt lat="43.43164588569645" lon="10.896014889255685"><ele>181.0</ele><time>2026-04-18T11:52:56.92Z</time></trkpt><trkpt lat="43.43165748882588" lon="10.896123619843323"><ele>181.83333333333334</ele><time>2026-04-18T11:52:57.926Z</time></trkpt><trkpt lat="43.431652166666666" lon="10.896211000000001"><ele>182.66666666666669</ele><time>2026-04-18T11:52:58.952Z</time></trkpt><trkpt lat="43.431562166666666" lon="10.896290500000001"><ele>183.5</ele><time>2026-04-18T11:53:00.915Z</time></trkpt><trkpt lat="43.43148633333334" lon="10.89624416666667"><ele>184.33333333333334</ele><time>2026-04-18T11:53:02.93Z</time></trkpt><trkpt lat="43.431438666666665" lon="10.896180833333334"><ele>185.16666666666666</ele><time>2026-04-18T11:53:03.913Z</time></trkpt><trkpt lat="43.43138833333334" lon="10.896112666666665"><ele>186.0</ele><time>2026-04-18T11:53:04.914Z</time></trkpt><trkpt lat="43.431330333333335" lon="10.896060833333335"><ele>186.66666666666666</ele><time>2026-04-18T11:53:05.92Z</time></trkpt><trkpt lat="43.43126533333334" lon="10.8960255"><ele>187.33333333333334</ele><time>2026-04-18T11:53:06.935Z</time></trkpt><trkpt lat="43.431192833333334" lon="10.895999500000002"><ele>188.0</ele><time>2026-04-18T11:53:07.904Z</time></trkpt><trkpt lat="43.43111283333332" lon="10.895973833333334"><ele>188.66666666666669</ele><time>2026-04-18T11:53:08.907Z</time></trkpt><trkpt lat="43.431035671146" lon="10.895923790052931"><ele>189.33333333333334</ele><time>2026-04-18T11:53:09.92Z</time></trkpt><trkpt lat="43.43095500693577" lon="10.89588694430483"><ele>190.0</ele><time>2026-04-18T11:53:10.943Z</time></trkpt><trkpt lat="43.430833276799405" lon="10.895833267407058"><ele>190.0</ele><time>2026-04-18T11:53:11.906Z</time></trkpt><trkpt lat="43.43075896316272" lon="10.895805900156239"><ele>190.0</ele><time>2026-04-18T11:53:12.921Z</time></trkpt><trkpt lat="43.43068428999337" lon="10.89580654012155"><ele>190.0</ele><time>2026-04-18T11:53:13.913Z</time></trkpt><trkpt lat="43.43063466666667" lon="10.895864166666668"><ele>190.0</ele><time>2026-04-18T11:53:14.932Z</time></trkpt><trkpt lat="43.43057827079774" lon="10.895997466833197"><ele>190.0</ele><time>2026-04-18T11:53:16.917Z</time></trkpt><trkpt lat="43.430630666666666" lon="10.896110333333334"><ele>190.0</ele><time>2026-04-18T11:53:18.927Z</time></trkpt><trkpt lat="43.430657017918925" lon="10.896191928115279"><ele>191.83333333333334</ele><time>2026-04-18T11:53:19.958Z</time></trkpt><trkpt lat="43.430703865173875" lon="10.896264985976234"><ele>193.66666666666669</ele><time>2026-04-18T11:53:20.906Z</time></trkpt><trkpt lat="43.43076516666666" lon="10.8963305"><ele>195.5</ele><time>2026-04-18T11:53:21.916Z</time></trkpt><trkpt lat="43.430819500000005" lon="10.896417833333333"><ele>197.33333333333334</ele><time>2026-04-18T11:53:22.917Z</time></trkpt><trkpt lat="43.430877333333335" lon="10.896506166666665"><ele>199.16666666666666</ele><time>2026-04-18T11:53:23.94Z</time></trkpt><trkpt lat="43.43093283333333" lon="10.89658883333333"><ele>201.0</ele><time>2026-04-18T11:53:24.923Z</time></trkpt><trkpt lat="43.4309925" lon="10.896723000000001"><ele>202.33333333333334</ele><time>2026-04-18T11:53:25.922Z</time></trkpt><trkpt lat="43.43101" lon="10.896823833333334"><ele>203.66666666666669</ele><time>2026-04-18T11:53:26.921Z</time></trkpt><trkpt lat="43.4310105" lon="10.896933166666669"><ele>205.0</ele><time>2026-04-18T11:53:27.932Z</time></trkpt><trkpt lat="43.4310015" lon="10.897042666666668"><ele>206.33333333333334</ele><time>2026-04-18T11:53:28.916Z</time></trkpt><trkpt lat="43.43098683333332" lon="10.897151166666667"><ele>207.66666666666669</ele><time>2026-04-18T11:53:29.911Z</time></trkpt><trkpt lat="43.430965666666665" lon="10.897254666666667"><ele>209.0</ele><time>2026-04-18T11:53:30.913Z</time></trkpt><trkpt lat="43.430896182924855" lon="10.897358789045521"><ele>209.0</ele><time>2026-04-18T11:53:32.912Z</time></trkpt><trkpt lat="43.43079516666666" lon="10.897430333333332"><ele>209.0</ele><time>2026-04-18T11:53:34.922Z</time></trkpt><trkpt lat="43.430744432147094" lon="10.897365698125723"><ele>209.0</ele><time>2026-04-18T11:53:35.932Z</time></trkpt><trkpt lat="43.430653193293935" lon="10.897156573574756"><ele>209.0</ele><time>2026-04-18T11:53:37.917Z</time></trkpt><trkpt lat="43.43057760610831" lon="10.897084189018104"><ele>210.39999999999998</ele><time>2026-04-18T11:53:38.913Z</time></trkpt><trkpt lat="43.43043774169048" lon="10.897124768035933"><ele>211.8</ele><time>2026-04-18T11:53:40.936Z</time></trkpt><trkpt lat="43.430358724094184" lon="10.897174572895752"><ele>213.20000000000002</ele><time>2026-04-18T11:53:41.911Z</time></trkpt><trkpt lat="43.43027138114355" lon="10.897236809968078"><ele>214.60000000000002</ele><time>2026-04-18T11:53:42.915Z</time></trkpt><trkpt lat="43.43017699966467" lon="10.897302226527616"><ele>216.0</ele><time>2026-04-18T11:53:43.921Z</time></trkpt><trkpt lat="43.43008557389092" lon="10.897359456498773"><ele>216.0</ele><time>2026-04-18T11:53:44.941Z</time></trkpt><trkpt lat="43.43000611122711" lon="10.897426811616603"><ele>216.00000000000003</ele><time>2026-04-18T11:53:45.948Z</time></trkpt><trkpt lat="43.42994420998215" lon="10.89751803152214"><ele>216.00000000000003</ele><time>2026-04-18T11:53:46.906Z</time></trkpt><trkpt lat="43.429914718111114" lon="10.897645247285459"><ele>216.0</ele><time>2026-04-18T11:53:47.918Z</time></trkpt><trkpt lat="43.42992533333333" lon="10.897773666666668"><ele>216.0</ele><time>2026-04-18T11:53:48.928Z</time></trkpt><trkpt lat="43.42992733333334" lon="10.897903"><ele>217.20000000000002</ele><time>2026-04-18T11:53:49.949Z</time></trkpt><trkpt lat="43.42992399999999" lon="10.898042000000004"><ele>218.40000000000003</ele><time>2026-04-18T11:53:50.924Z</time></trkpt><trkpt lat="43.42991583333334" lon="10.898183833333333"><ele>219.6</ele><time>2026-04-18T11:53:51.912Z</time></trkpt><trkpt lat="43.42991433333333" lon="10.898330666666668"><ele>220.8</ele><time>2026-04-18T11:53:52.93Z</time></trkpt><trkpt lat="43.429917833333334" lon="10.898489166666666"><ele>222.0</ele><time>2026-04-18T11:53:53.953Z</time></trkpt><trkpt lat="43.42993033333334" lon="10.898648500000002"><ele>223.0</ele><time>2026-04-18T11:53:54.917Z</time></trkpt><trkpt lat="43.429949666666666" lon="10.89879383333333"><ele>224.0</ele><time>2026-04-18T11:53:55.914Z</time></trkpt><trkpt lat="43.42995383333334" lon="10.898919166666667"><ele>225.0</ele><time>2026-04-18T11:53:56.913Z</time></trkpt><trkpt lat="43.42993416666667" lon="10.899018333333334"><ele>226.0</ele><time>2026-04-18T11:53:57.939Z</time></trkpt><trkpt lat="43.429889333333335" lon="10.899081333333335"><ele>227.0</ele><time>2026-04-18T11:53:58.922Z</time></trkpt><trkpt lat="43.429823333333324" lon="10.899063853048254"><ele>228.0</ele><time>2026-04-18T11:53:59.923Z</time></trkpt><trkpt lat="43.42976256883723" lon="10.899034037931923"><ele>228.0</ele><time>2026-04-18T11:54:00.912Z</time></trkpt><trkpt lat="43.429678826775245" lon="10.89900773821593"><ele>228.0</ele><time>2026-04-18T11:54:01.932Z</time></trkpt><trkpt lat="43.42958273515525" lon="10.89898978238842"><ele>228.0</ele><time>2026-04-18T11:54:02.911Z</time></trkpt><trkpt lat="43.42942171717953" lon="10.899028423337823"><ele>228.0</ele><time>2026-04-18T11:54:03.922Z</time></trkpt><trkpt lat="43.42930612913015" lon="10.899070342250546"><ele>230.0</ele><time>2026-04-18T11:54:04.914Z</time></trkpt><trkpt lat="43.429152517034815" lon="10.899127513588239"><ele>232.0</ele><time>2026-04-18T11:54:06.937Z</time></trkpt><trkpt lat="43.42903698185731" lon="10.89917938482066"><ele>234.0</ele><time>2026-04-18T11:54:07.905Z</time></trkpt><trkpt lat="43.42896966321986" lon="10.899294182568358"><ele>236.0</ele><time>2026-04-18T11:54:09.922Z</time></trkpt><trkpt lat="43.4289885" lon="10.899405166666668"><ele>237.60000000000002</ele><time>2026-04-18T11:54:10.943Z</time></trkpt><trkpt lat="43.42901333333332" lon="10.899510833333334"><ele>239.20000000000002</ele><time>2026-04-18T11:54:11.916Z</time></trkpt><trkpt lat="43.429059" lon="10.899628333333332"><ele>240.79999999999998</ele><time>2026-04-18T11:54:12.919Z</time></trkpt><trkpt lat="43.42910983333333" lon="10.899753166666668"><ele>242.39999999999998</ele><time>2026-04-18T11:54:13.915Z</time></trkpt><trkpt lat="43.429152666666674" lon="10.899868333333332"><ele>244.0</ele><time>2026-04-18T11:54:14.929Z</time></trkpt><trkpt lat="43.42917683333333" lon="10.899982666666665"><ele>245.0</ele><time>2026-04-18T11:54:15.914Z</time></trkpt><trkpt lat="43.429181666666665" lon="10.900102166666667"><ele>245.99999999999997</ele><time>2026-04-18T11:54:16.921Z</time></trkpt><trkpt lat="43.42916733333333" lon="10.900226666666667"><ele>246.99999999999997</ele><time>2026-04-18T11:54:17.92Z</time></trkpt><trkpt lat="43.42913083333333" lon="10.9003465"><ele>248.0</ele><time>2026-04-18T11:54:18.932Z</time></trkpt><trkpt lat="43.42907700000001" lon="10.900449499999999"><ele>249.0</ele><time>2026-04-18T11:54:19.913Z</time></trkpt><trkpt lat="43.429009666666666" lon="10.9005285"><ele>249.0</ele><time>2026-04-18T11:54:20.917Z</time></trkpt><trkpt lat="43.42892590789546" lon="10.9005370850104"><ele>248.99999999999997</ele><time>2026-04-18T11:54:21.905Z</time></trkpt><trkpt lat="43.42883526282528" lon="10.900546381497554"><ele>248.99999999999997</ele><time>2026-04-18T11:54:22.937Z</time></trkpt><trkpt lat="43.428744643695765" lon="10.900574343057654"><ele>249.0</ele><time>2026-04-18T11:54:23.935Z</time></trkpt><trkpt lat="43.42866885596937" lon="10.90064535032427"><ele>249.0</ele><time>2026-04-18T11:54:24.922Z</time></trkpt><trkpt lat="43.428640166666675" lon="10.9007655"><ele>250.6</ele><time>2026-04-18T11:54:25.913Z</time></trkpt><trkpt lat="43.42861816666667" lon="10.900882166666667"><ele>252.2</ele><time>2026-04-18T11:54:26.916Z</time></trkpt><trkpt lat="43.42861866666667" lon="10.901021166666665"><ele>253.79999999999998</ele><time>2026-04-18T11:54:27.945Z</time></trkpt><trkpt lat="43.42864416666666" lon="10.901173166666668"><ele>255.39999999999998</ele><time>2026-04-18T11:54:28.924Z</time></trkpt><trkpt lat="43.42868966666666" lon="10.901328333333334"><ele>257.0</ele><time>2026-04-18T11:54:29.911Z</time></trkpt><trkpt lat="43.42875583333333" lon="10.901477833333335"><ele>256.33333333333337</ele><time>2026-04-18T11:54:30.925Z</time></trkpt><trkpt lat="43.428856499999995" lon="10.90161233333333"><ele>255.66666666666669</ele><time>2026-04-18T11:54:31.946Z</time></trkpt><trkpt lat="43.428973833333345" lon="10.901747"><ele>255.0</ele><time>2026-04-18T11:54:32.916Z</time></trkpt><trkpt lat="43.42911983333333" lon="10.901970333333335"><ele>258.25</ele><time>2026-04-18T11:54:33.92Z</time></trkpt><trkpt lat="43.42920583333333" lon="10.902108333333334"><ele>261.5</ele><time>2026-04-18T11:54:34.914Z</time></trkpt><trkpt lat="43.42930483333333" lon="10.902222666666667"><ele>264.75</ele><time>2026-04-18T11:54:35.928Z</time></trkpt><trkpt lat="43.429415500000005" lon="10.902320333333332"><ele>268.0</ele><time>2026-04-18T11:54:36.948Z</time></trkpt><trkpt lat="43.42952050000001" lon="10.902409"><ele>268.0</ele><time>2026-04-18T11:54:37.904Z</time></trkpt><trkpt lat="43.4296065" lon="10.902488666666667"><ele>268.0</ele><time>2026-04-18T11:54:38.907Z</time></trkpt><trkpt lat="43.42966766666667" lon="10.902566666666667"><ele>268.0</ele><time>2026-04-18T11:54:39.914Z</time></trkpt><trkpt lat="43.42969016666667" lon="10.902698166666669"><ele>268.0</ele><time>2026-04-18T11:54:41.922Z</time></trkpt><trkpt lat="43.4296250965611" lon="10.902776748359523"><ele>268.0</ele><time>2026-04-18T11:54:42.919Z</time></trkpt><trkpt lat="43.429562451703816" lon="10.902786003553306"><ele>268.0</ele><time>2026-04-18T11:54:43.917Z</time></trkpt><trkpt lat="43.42947473634018" lon="10.902798845646343"><ele>268.0</ele><time>2026-04-18T11:54:44.91Z</time></trkpt><trkpt lat="43.429327834551216" lon="10.9028116037385"><ele>268.0</ele><time>2026-04-18T11:54:46.926Z</time></trkpt><trkpt lat="43.42924577045613" lon="10.902789799895245"><ele>268.0</ele><time>2026-04-18T11:54:47.919Z</time></trkpt><trkpt lat="43.429179829699486" lon="10.902719266824667"><ele>268.0</ele><time>2026-04-18T11:54:48.931Z</time></trkpt><trkpt lat="43.429125069796555" lon="10.902601235778326"><ele>268.0</ele><time>2026-04-18T11:54:49.917Z</time></trkpt><trkpt lat="43.429069160576645" lon="10.902485682631857"><ele>268.0</ele><time>2026-04-18T11:54:50.914Z</time></trkpt><trkpt lat="43.429006082029964" lon="10.902378524923803"><ele>268.0</ele><time>2026-04-18T11:54:51.916Z</time></trkpt><trkpt lat="43.428924432915444" lon="10.902306770465497"><ele>268.0</ele><time>2026-04-18T11:54:52.929Z</time></trkpt><trkpt lat="43.4288478753653" lon="10.902256441638537"><ele>268.0</ele><time>2026-04-18T11:54:53.909Z</time></trkpt><trkpt lat="43.428751996461564" lon="10.902231514443026"><ele>268.0</ele><time>2026-04-18T11:54:54.914Z</time></trkpt><trkpt lat="43.42864773637976" lon="10.902245708125887"><ele>270.5</ele><time>2026-04-18T11:54:55.92Z</time></trkpt><trkpt lat="43.42853507628284" lon="10.90227284406798"><ele>273.0</ele><time>2026-04-18T11:54:56.92Z</time></trkpt><trkpt lat="43.42841846908164" lon="10.90231437330335"><ele>275.5</ele><time>2026-04-18T11:54:57.954Z</time></trkpt><trkpt lat="43.42830377520083" lon="10.902352826388574"><ele>278.0</ele><time>2026-04-18T11:54:58.913Z</time></trkpt><trkpt lat="43.428186243154585" lon="10.902340223743485"><ele>278.0</ele><time>2026-04-18T11:54:59.922Z</time></trkpt><trkpt lat="43.428067183661" lon="10.902279448678607"><ele>278.0</ele><time>2026-04-18T11:55:00.922Z</time></trkpt><trkpt lat="43.42794966701284" lon="10.902216195547886"><ele>278.0</ele><time>2026-04-18T11:55:01.945Z</time></trkpt><trkpt lat="43.427850007588745" lon="10.902159621630446"><ele>278.0</ele><time>2026-04-18T11:55:02.906Z</time></trkpt><trkpt lat="43.4277629312632" lon="10.902117559322003"><ele>278.5</ele><time>2026-04-18T11:55:03.909Z</time></trkpt><trkpt lat="43.42764874217516" lon="10.902134959910882"><ele>279.0</ele><time>2026-04-18T11:55:04.926Z</time></trkpt><trkpt lat="43.42759145952235" lon="10.902194065863135"><ele>279.5</ele><time>2026-04-18T11:55:05.928Z</time></trkpt><trkpt lat="43.427575833333336" lon="10.902295833333335"><ele>280.0</ele><time>2026-04-18T11:55:06.921Z</time></trkpt><trkpt lat="43.42758099999999" lon="10.902393500000002"><ele>280.5</ele><time>2026-04-18T11:55:07.922Z</time></trkpt><trkpt lat="43.427619" lon="10.902465333333335"><ele>281.0</ele><time>2026-04-18T11:55:08.928Z</time></trkpt><trkpt lat="43.427674499999995" lon="10.902527666666668"><ele>282.5</ele><time>2026-04-18T11:55:09.919Z</time></trkpt><trkpt lat="43.427743" lon="10.902600833333334"><ele>284.0</ele><time>2026-04-18T11:55:10.916Z</time></trkpt><trkpt lat="43.427871" lon="10.902727666666665"><ele>285.5</ele><time>2026-04-18T11:55:12.906Z</time></trkpt><trkpt lat="43.42796366666667" lon="10.902821166666667"><ele>287.0</ele><time>2026-04-18T11:55:13.912Z</time></trkpt><trkpt lat="43.42806133333333" lon="10.9029145"><ele>287.0</ele><time>2026-04-18T11:55:14.946Z</time></trkpt><trkpt lat="43.42815783333334" lon="10.90299483333333"><ele>287.0</ele><time>2026-04-18T11:55:15.915Z</time></trkpt><trkpt lat="43.42833633333333" lon="10.9031285"><ele>287.0</ele><time>2026-04-18T11:55:17.914Z</time></trkpt><trkpt lat="43.428411833333335" lon="10.903212499999999"><ele>287.0</ele><time>2026-04-18T11:55:18.929Z</time></trkpt><trkpt lat="43.4284765" lon="10.9033175"><ele>288.8</ele><time>2026-04-18T11:55:19.919Z</time></trkpt><trkpt lat="43.428535499999995" lon="10.90343516666667"><ele>290.6</ele><time>2026-04-18T11:55:20.929Z</time></trkpt><trkpt lat="43.428596" lon="10.903559833333334"><ele>292.40000000000003</ele><time>2026-04-18T11:55:21.909Z</time></trkpt><trkpt lat="43.42865749999999" lon="10.9036945"><ele>294.2</ele><time>2026-04-18T11:55:22.933Z</time></trkpt><trkpt lat="43.42871350000001" lon="10.903842166666667"><ele>296.0</ele><time>2026-04-18T11:55:23.914Z</time></trkpt><trkpt lat="43.42876683333334" lon="10.904001000000001"><ele>295.5</ele><time>2026-04-18T11:55:24.917Z</time></trkpt><trkpt lat="43.42884666666667" lon="10.9042445"><ele>295.0</ele><time>2026-04-18T11:55:25.906Z</time></trkpt><trkpt lat="43.42888800000001" lon="10.904408333333334"><ele>294.5</ele><time>2026-04-18T11:55:26.928Z</time></trkpt><trkpt lat="43.42891783333332" lon="10.904567166666666"><ele>294.0</ele><time>2026-04-18T11:55:27.949Z</time></trkpt><trkpt lat="43.42894283333333" lon="10.904715333333336"><ele>294.0</ele><time>2026-04-18T11:55:28.919Z</time></trkpt><trkpt lat="43.42898533333334" lon="10.904850833333334"><ele>294.0</ele><time>2026-04-18T11:55:29.91Z</time></trkpt><trkpt lat="43.4291025" lon="10.905031499999998"><ele>294.0</ele><time>2026-04-18T11:55:31.916Z</time></trkpt><trkpt lat="43.429184" lon="10.905140666666666"><ele>294.0</ele><time>2026-04-18T11:55:32.925Z</time></trkpt><trkpt lat="43.429264499999995" lon="10.905241999999998"><ele>296.0</ele><time>2026-04-18T11:55:33.908Z</time></trkpt><trkpt lat="43.429335333333334" lon="10.9053445"><ele>298.0</ele><time>2026-04-18T11:55:34.932Z</time></trkpt><trkpt lat="43.429382833333335" lon="10.905458166666666"><ele>300.0</ele><time>2026-04-18T11:55:35.934Z</time></trkpt><trkpt lat="43.429401000000006" lon="10.905581166666664"><ele>302.0</ele><time>2026-04-18T11:55:36.909Z</time></trkpt><trkpt lat="43.42939150000001" lon="10.905698833333334"><ele>304.0</ele><time>2026-04-18T11:55:37.911Z</time></trkpt><trkpt lat="43.42933316666666" lon="10.905833000000001"><ele>304.0</ele><time>2026-04-18T11:55:38.92Z</time></trkpt><trkpt lat="43.429268" lon="10.905885166666668"><ele>304.0</ele><time>2026-04-18T11:55:39.934Z</time></trkpt><trkpt lat="43.42919083333334" lon="10.905890666666668"><ele>304.0</ele><time>2026-04-18T11:55:40.909Z</time></trkpt><trkpt lat="43.42911300000001" lon="10.905868166666668"><ele>304.0</ele><time>2026-04-18T11:55:41.905Z</time></trkpt><trkpt lat="43.42904520483123" lon="10.905802261924228"><ele>304.0</ele><time>2026-04-18T11:55:42.909Z</time></trkpt><trkpt lat="43.42896257752165" lon="10.90574490187255"><ele>304.0</ele><time>2026-04-18T11:55:43.914Z</time></trkpt><trkpt lat="43.42886651787949" lon="10.905676771782225"><ele>307.25</ele><time>2026-04-18T11:55:44.918Z</time></trkpt><trkpt lat="43.42875879254912" lon="10.905602794812353"><ele>310.5</ele><time>2026-04-18T11:55:45.909Z</time></trkpt><trkpt lat="43.428640383966545" lon="10.90552605576132"><ele>313.75</ele><time>2026-04-18T11:55:46.918Z</time></trkpt><trkpt lat="43.42851001570388" lon="10.90544992826111"><ele>317.0</ele><time>2026-04-18T11:55:47.914Z</time></trkpt><trkpt lat="43.42837954908685" lon="10.905376691084715"><ele>317.0</ele><time>2026-04-18T11:55:48.942Z</time></trkpt><trkpt lat="43.42825837794907" lon="10.905308671856742"><ele>317.0</ele><time>2026-04-18T11:55:49.907Z</time></trkpt><trkpt lat="43.428146859029724" lon="10.905244600872456"><ele>317.0</ele><time>2026-04-18T11:55:50.91Z</time></trkpt><trkpt lat="43.42804357295809" lon="10.90518077126733"><ele>317.0</ele><time>2026-04-18T11:55:51.92Z</time></trkpt><trkpt lat="43.42794323514919" lon="10.905114049922949"><ele>317.25</ele><time>2026-04-18T11:55:52.937Z</time></trkpt><trkpt lat="43.427844528709144" lon="10.905047290488922"><ele>317.5</ele><time>2026-04-18T11:55:53.973Z</time></trkpt><trkpt lat="43.42774712250856" lon="10.904981536277557"><ele>317.75</ele><time>2026-04-18T11:55:54.922Z</time></trkpt><trkpt lat="43.42764923137635" lon="10.904913756655938"><ele>318.0</ele><time>2026-04-18T11:55:55.911Z</time></trkpt><trkpt lat="43.427450867109705" lon="10.90478721323461"><ele>318.0</ele><time>2026-04-18T11:55:57.911Z</time></trkpt><trkpt lat="43.427355021338" lon="10.90476951902444"><ele>318.0</ele><time>2026-04-18T11:55:58.908Z</time></trkpt><trkpt lat="43.427265370235254" lon="10.904798493874154"><ele>318.0</ele><time>2026-04-18T11:55:59.918Z</time></trkpt><trkpt lat="43.427200023019225" lon="10.904861886319743"><ele>318.0</ele><time>2026-04-18T11:56:00.929Z</time></trkpt><trkpt lat="43.42716099999999" lon="10.904962333333334"><ele>318.0</ele><time>2026-04-18T11:56:01.938Z</time></trkpt><trkpt lat="43.42711733333334" lon="10.905061166666668"><ele>318.0</ele><time>2026-04-18T11:56:02.904Z</time></trkpt><trkpt lat="43.42707416666667" lon="10.905173833333334"><ele>320.6</ele><time>2026-04-18T11:56:03.914Z</time></trkpt><trkpt lat="43.427018000000004" lon="10.905287166666668"><ele>323.20000000000005</ele><time>2026-04-18T11:56:04.915Z</time></trkpt><trkpt lat="43.4269495" lon="10.905383666666667"><ele>325.8</ele><time>2026-04-18T11:56:05.922Z</time></trkpt><trkpt lat="43.42686116419065" lon="10.905429755825235"><ele>328.40000000000003</ele><time>2026-04-18T11:56:06.913Z</time></trkpt><trkpt lat="43.4267794540004" lon="10.905474378811494"><ele>331.0</ele><time>2026-04-18T11:56:07.911Z</time></trkpt><trkpt lat="43.42670783333333" lon="10.905523166666669"><ele>331.0</ele><time>2026-04-18T11:56:08.906Z</time></trkpt><trkpt lat="43.42664116666667" lon="10.9055555"><ele>331.0</ele><time>2026-04-18T11:56:09.933Z</time></trkpt><trkpt lat="43.42659216666666" lon="10.905680166666665"><ele>331.0</ele><time>2026-04-18T11:56:11.925Z</time></trkpt><trkpt lat="43.42665999999999" lon="10.905801499999999"><ele>331.0</ele><time>2026-04-18T11:56:13.922Z</time></trkpt><trkpt lat="43.42672583333333" lon="10.905842166666666"><ele>331.0</ele><time>2026-04-18T11:56:14.936Z</time></trkpt><trkpt lat="43.426799833333334" lon="10.905883333333335"><ele>331.0</ele><time>2026-04-18T11:56:15.925Z</time></trkpt><trkpt lat="43.42687733333334" lon="10.905937666666667"><ele>334.66666666666663</ele><time>2026-04-18T11:56:16.916Z</time></trkpt><trkpt lat="43.427036" lon="10.906074333333333"><ele>338.3333333333333</ele><time>2026-04-18T11:56:18.937Z</time></trkpt><trkpt lat="43.42711883333333" lon="10.906150833333335"><ele>342.0</ele><time>2026-04-18T11:56:19.906Z</time></trkpt><trkpt lat="43.427279666666664" lon="10.906291833333334"><ele>342.0</ele><time>2026-04-18T11:56:21.921Z</time></trkpt><trkpt lat="43.42735733333334" lon="10.906354166666665"><ele>342.0</ele><time>2026-04-18T11:56:22.944Z</time></trkpt><trkpt lat="43.42742549999999" lon="10.906429666666668"><ele>342.0</ele><time>2026-04-18T11:56:23.92Z</time></trkpt><trkpt lat="43.42748366666667" lon="10.906523166666666"><ele>342.0</ele><time>2026-04-18T11:56:24.92Z</time></trkpt><trkpt lat="43.42753316666667" lon="10.906625666666665"><ele>342.0</ele><time>2026-04-18T11:56:25.92Z</time></trkpt><trkpt lat="43.42757783333333" lon="10.906736333333333"><ele>342.0</ele><time>2026-04-18T11:56:26.918Z</time></trkpt><trkpt lat="43.42761766666666" lon="10.906853833333333"><ele>344.5</ele><time>2026-04-18T11:56:27.945Z</time></trkpt><trkpt lat="43.427678666666665" lon="10.907030666666667"><ele>347.0</ele><time>2026-04-18T11:56:29.923Z</time></trkpt><trkpt lat="43.42772150000001" lon="10.907148500000002"><ele>349.5</ele><time>2026-04-18T11:56:30.924Z</time></trkpt><trkpt lat="43.4277565" lon="10.907272833333332"><ele>352.0</ele><time>2026-04-18T11:56:31.933Z</time></trkpt><trkpt lat="43.42778583333334" lon="10.907463166666666"><ele>353.0</ele><time>2026-04-18T11:56:32.909Z</time></trkpt><trkpt lat="43.427775999999994" lon="10.907715333333332"><ele>354.0</ele><time>2026-04-18T11:56:34.919Z</time></trkpt><trkpt lat="43.4277495" lon="10.907831"><ele>355.0</ele><time>2026-04-18T11:56:35.937Z</time></trkpt><trkpt lat="43.42771033333333" lon="10.907941666666666"><ele>356.0</ele><time>2026-04-18T11:56:36.918Z</time></trkpt><trkpt lat="43.42766516666667" lon="10.908053333333331"><ele>356.0</ele><time>2026-04-18T11:56:37.919Z</time></trkpt><trkpt lat="43.4276175" lon="10.908166000000001"><ele>356.0</ele><time>2026-04-18T11:56:38.918Z</time></trkpt><trkpt lat="43.42755882636119" lon="10.908269762598282"><ele>356.0</ele><time>2026-04-18T11:56:39.926Z</time></trkpt><trkpt lat="43.42750917137102" lon="10.908379477491469"><ele>356.0</ele><time>2026-04-18T11:56:40.909Z</time></trkpt><trkpt lat="43.4274580557862" lon="10.90848005955151"><ele>356.0</ele><time>2026-04-18T11:56:41.915Z</time></trkpt><trkpt lat="43.427399385031435" lon="10.908550958403868"><ele>356.8</ele><time>2026-04-18T11:56:42.906Z</time></trkpt><trkpt lat="43.427328084559356" lon="10.908581183558331"><ele>357.6</ele><time>2026-04-18T11:56:43.927Z</time></trkpt><trkpt lat="43.42725134422754" lon="10.908620056637401"><ele>358.4</ele><time>2026-04-18T11:56:44.939Z</time></trkpt><trkpt lat="43.42711637325341" lon="10.908761565260553"><ele>359.2</ele><time>2026-04-18T11:56:46.914Z</time></trkpt><trkpt lat="43.42711683333334" lon="10.908865500000001"><ele>360.0</ele><time>2026-04-18T11:56:47.922Z</time></trkpt><trkpt lat="43.427142999999994" lon="10.908950166666667"><ele>360.0</ele><time>2026-04-18T11:56:48.952Z</time></trkpt><trkpt lat="43.427182806404204" lon="10.909048219436361"><ele>360.0</ele><time>2026-04-18T11:56:49.923Z</time></trkpt><trkpt lat="43.42729863477862" lon="10.909166786818098"><ele>360.0</ele><time>2026-04-18T11:56:51.909Z</time></trkpt><trkpt lat="43.42738619052079" lon="10.909235097876456"><ele>360.0</ele><time>2026-04-18T11:56:52.942Z</time></trkpt><trkpt lat="43.42752494439315" lon="10.909336203992153"><ele>362.25</ele><time>2026-04-18T11:56:53.925Z</time></trkpt><trkpt lat="43.427620833333336" lon="10.909383500000002"><ele>364.5</ele><time>2026-04-18T11:56:54.909Z</time></trkpt><trkpt lat="43.4277435" lon="10.909594166666666"><ele>366.75</ele><time>2026-04-18T11:56:56.919Z</time></trkpt><trkpt lat="43.42777016666667" lon="10.909783666666666"><ele>369.0</ele><time>2026-04-18T11:56:58.913Z</time></trkpt><trkpt lat="43.42775383333333" lon="10.9099615"><ele>370.75</ele><time>2026-04-18T11:56:59.907Z</time></trkpt><trkpt lat="43.4277235" lon="10.910077833333332"><ele>372.5</ele><time>2026-04-18T11:57:00.93Z</time></trkpt><trkpt lat="43.427702499999995" lon="10.910203833333332"><ele>374.25</ele><time>2026-04-18T11:57:01.93Z</time></trkpt><trkpt lat="43.42777666666666" lon="10.910451333333333"><ele>376.0</ele><time>2026-04-18T11:57:03.922Z</time></trkpt><trkpt lat="43.427837" lon="10.910577499999999"><ele>376.0</ele><time>2026-04-18T11:57:04.925Z</time></trkpt><trkpt lat="43.42788716666667" lon="10.910718000000001"><ele>376.0</ele><time>2026-04-18T11:57:05.953Z</time></trkpt><trkpt lat="43.427913999999994" lon="10.910873666666664"><ele>376.0</ele><time>2026-04-18T11:57:06.918Z</time></trkpt><trkpt lat="43.427913999999994" lon="10.911043333333335"><ele>376.0</ele><time>2026-04-18T11:57:07.919Z</time></trkpt><trkpt lat="43.42789406173171" lon="10.911130024088866"><ele>376.0</ele><time>2026-04-18T11:57:08.914Z</time></trkpt><trkpt lat="43.42788711549919" lon="10.911314136592884"><ele>378.0</ele><time>2026-04-18T11:57:09.931Z</time></trkpt><trkpt lat="43.427881186475645" lon="10.911499371170446"><ele>380.0</ele><time>2026-04-18T11:57:10.915Z</time></trkpt><trkpt lat="43.427871891874354" lon="10.911676566230279"><ele>382.0</ele><time>2026-04-18T11:57:11.924Z</time></trkpt><trkpt lat="43.427877333333335" lon="10.911847"><ele>384.0</ele><time>2026-04-18T11:57:12.916Z</time></trkpt><trkpt lat="43.427863166666675" lon="10.912002666666668"><ele>384.79999999999995</ele><time>2026-04-18T11:57:13.934Z</time></trkpt><trkpt lat="43.4278365" lon="10.9122115"><ele>385.59999999999997</ele><time>2026-04-18T11:57:14.918Z</time></trkpt><trkpt lat="43.42779391981565" lon="10.912328383637686"><ele>386.4</ele><time>2026-04-18T11:57:15.91Z</time></trkpt><trkpt lat="43.42775470287414" lon="10.912449186373328"><ele>387.2</ele><time>2026-04-18T11:57:16.913Z</time></trkpt><trkpt lat="43.42770895903955" lon="10.912577729882285"><ele>388.0</ele><time>2026-04-18T11:57:17.926Z</time></trkpt><trkpt lat="43.42765443473989" lon="10.912712699551003"><ele>388.0</ele><time>2026-04-18T11:57:18.918Z</time></trkpt><trkpt lat="43.427600166666664" lon="10.912855999999998"><ele>388.0</ele><time>2026-04-18T11:57:19.911Z</time></trkpt><trkpt lat="43.42753016666667" lon="10.91298716666667"><ele>388.0</ele><time>2026-04-18T11:57:20.913Z</time></trkpt><trkpt lat="43.42745004948763" lon="10.913104499038898"><ele>388.0</ele><time>2026-04-18T11:57:21.917Z</time></trkpt><trkpt lat="43.427386763029915" lon="10.913232121056677"><ele>388.0</ele><time>2026-04-18T11:57:22.946Z</time></trkpt><trkpt lat="43.42734674791256" lon="10.913367438350264"><ele>388.0</ele><time>2026-04-18T11:57:23.911Z</time></trkpt><trkpt lat="43.42732787843054" lon="10.913495498217204"><ele>388.0</ele><time>2026-04-18T11:57:24.907Z</time></trkpt><trkpt lat="43.42732504954394" lon="10.913623666666668"><ele>388.0</ele><time>2026-04-18T11:57:25.915Z</time></trkpt><trkpt lat="43.42735365569799" lon="10.913755467743888"><ele>388.0</ele><time>2026-04-18T11:57:26.916Z</time></trkpt><trkpt lat="43.42741683333334" lon="10.913876833333333"><ele>387.75</ele><time>2026-04-18T11:57:27.92Z</time></trkpt><trkpt lat="43.42748650000001" lon="10.914013333333333"><ele>387.5</ele><time>2026-04-18T11:57:28.918Z</time></trkpt><trkpt lat="43.42757233333333" lon="10.914162333333335"><ele>387.25</ele><time>2026-04-18T11:57:29.916Z</time></trkpt><trkpt lat="43.427669833333326" lon="10.914320833333333"><ele>387.0</ele><time>2026-04-18T11:57:30.908Z</time></trkpt><trkpt lat="43.427722333333335" lon="10.914401500000002"><ele>385.6666666666667</ele><time>2026-04-18T11:57:31.916Z</time></trkpt><trkpt lat="43.427825500000004" lon="10.9145635"><ele>384.33333333333337</ele><time>2026-04-18T11:57:32.917Z</time></trkpt><trkpt lat="43.4279245" lon="10.914723666666665"><ele>383.0</ele><time>2026-04-18T11:57:33.909Z</time></trkpt><trkpt lat="43.42801899999999" lon="10.914879166666667"><ele>385.0</ele><time>2026-04-18T11:57:34.932Z</time></trkpt><trkpt lat="43.42810933333333" lon="10.9150275"><ele>387.0</ele><time>2026-04-18T11:57:35.942Z</time></trkpt><trkpt lat="43.42818404181846" lon="10.915181164818504"><ele>389.0</ele><time>2026-04-18T11:57:36.921Z</time></trkpt><trkpt lat="43.42827541733627" lon="10.915308273396342"><ele>391.0</ele><time>2026-04-18T11:57:37.91Z</time></trkpt><trkpt lat="43.428387981540475" lon="10.915389338948904"><ele>391.20000000000005</ele><time>2026-04-18T11:57:38.919Z</time></trkpt><trkpt lat="43.4285023542395" lon="10.915434966920715"><ele>391.40000000000003</ele><time>2026-04-18T11:57:39.943Z</time></trkpt><trkpt lat="43.42862" lon="10.915438333333336"><ele>391.6</ele><time>2026-04-18T11:57:40.952Z</time></trkpt><trkpt lat="43.428724166666676" lon="10.915479333333332"><ele>391.8</ele><time>2026-04-18T11:57:41.914Z</time></trkpt><trkpt lat="43.428811833333334" lon="10.9155425"><ele>392.0</ele><time>2026-04-18T11:57:42.928Z</time></trkpt><trkpt lat="43.4288775" lon="10.915629333333333"><ele>394.8333333333333</ele><time>2026-04-18T11:57:43.934Z</time></trkpt><trkpt lat="43.42892199999999" lon="10.915731833333332"><ele>397.66666666666663</ele><time>2026-04-18T11:57:44.907Z</time></trkpt><trkpt lat="43.42893146684112" lon="10.915847305821865"><ele>400.5</ele><time>2026-04-18T11:57:45.924Z</time></trkpt><trkpt lat="43.42893424958055" lon="10.915962166666668"><ele>403.33333333333337</ele><time>2026-04-18T11:57:46.908Z</time></trkpt><trkpt lat="43.4289296098838" lon="10.916080438358543"><ele>406.1666666666667</ele><time>2026-04-18T11:57:47.93Z</time></trkpt><trkpt lat="43.428922629264015" lon="10.916208436987196"><ele>409.0</ele><time>2026-04-18T11:57:48.918Z</time></trkpt><trkpt lat="43.42893434125114" lon="10.916341395126107"><ele>410.0</ele><time>2026-04-18T11:57:49.917Z</time></trkpt><trkpt lat="43.42897249999999" lon="10.916470166666667"><ele>411.0</ele><time>2026-04-18T11:57:50.921Z</time></trkpt><trkpt lat="43.428994833333334" lon="10.916612166666667"><ele>412.0</ele><time>2026-04-18T11:57:51.915Z</time></trkpt><trkpt lat="43.42902233333333" lon="10.916760333333333"><ele>413.0</ele><time>2026-04-18T11:57:52.941Z</time></trkpt><trkpt lat="43.42903001206092" lon="10.91691984424693"><ele>414.0</ele><time>2026-04-18T11:57:53.918Z</time></trkpt><trkpt lat="43.42905322731345" lon="10.917080572231558"><ele>414.5</ele><time>2026-04-18T11:57:54.915Z</time></trkpt><trkpt lat="43.42908062095531" lon="10.91724135421311"><ele>415.0</ele><time>2026-04-18T11:57:55.922Z</time></trkpt><trkpt lat="43.42913546875207" lon="10.917472412239869"><ele>415.5</ele><time>2026-04-18T11:57:56.947Z</time></trkpt><trkpt lat="43.429175644628124" lon="10.917622491590066"><ele>416.0</ele><time>2026-04-18T11:57:57.915Z</time></trkpt><trkpt lat="43.42923000000001" lon="10.917766833333333"><ele>416.0</ele><time>2026-04-18T11:57:58.911Z</time></trkpt><trkpt lat="43.42925333477952" lon="10.918012905823433"><ele>416.0</ele><time>2026-04-18T11:58:00.934Z</time></trkpt><trkpt lat="43.42927002920923" lon="10.918176687325463"><ele>416.0</ele><time>2026-04-18T11:58:01.915Z</time></trkpt><trkpt lat="43.429280074397546" lon="10.91834486359763"><ele>416.0</ele><time>2026-04-18T11:58:02.91Z</time></trkpt><trkpt lat="43.42929883333333" lon="10.918512833333335"><ele>417.25</ele><time>2026-04-18T11:58:03.914Z</time></trkpt><trkpt lat="43.42927325350913" lon="10.918678830486618"><ele>418.5</ele><time>2026-04-18T11:58:04.921Z</time></trkpt><trkpt lat="43.42925305343598" lon="10.918847255574683"><ele>419.75</ele><time>2026-04-18T11:58:05.954Z</time></trkpt><trkpt lat="43.429219575174066" lon="10.919018334722947"><ele>421.0</ele><time>2026-04-18T11:58:06.915Z</time></trkpt><trkpt lat="43.42917434642163" lon="10.91918646825273"><ele>422.25</ele><time>2026-04-18T11:58:07.918Z</time></trkpt><trkpt lat="43.42911472036418" lon="10.919347189987803"><ele>423.5</ele><time>2026-04-18T11:58:08.927Z</time></trkpt><trkpt lat="43.429053239395635" lon="10.91950137138787"><ele>424.75</ele><time>2026-04-18T11:58:09.952Z</time></trkpt><trkpt lat="43.42899397596877" lon="10.919644053092949"><ele>426.0</ele><time>2026-04-18T11:58:10.926Z</time></trkpt><trkpt lat="43.428937667953114" lon="10.91977769474076"><ele>426.0</ele><time>2026-04-18T11:58:11.919Z</time></trkpt><trkpt lat="43.42888844811109" lon="10.91991169434445"><ele>426.0</ele><time>2026-04-18T11:58:12.905Z</time></trkpt><trkpt lat="43.428856757540984" lon="10.92004834571762"><ele>426.0</ele><time>2026-04-18T11:58:13.938Z</time></trkpt><trkpt lat="43.428851449644114" lon="10.920183333333334"><ele>426.0</ele><time>2026-04-18T11:58:14.911Z</time></trkpt><trkpt lat="43.428865473055076" lon="10.920311169056145"><ele>426.0</ele><time>2026-04-18T11:58:15.916Z</time></trkpt><trkpt lat="43.42889164977433" lon="10.920444372186282"><ele>426.0</ele><time>2026-04-18T11:58:16.916Z</time></trkpt><trkpt lat="43.42892441009385" lon="10.920586204672436"><ele>426.0</ele><time>2026-04-18T11:58:17.949Z</time></trkpt><trkpt lat="43.428956594247" lon="10.92073294367843"><ele>426.0</ele><time>2026-04-18T11:58:18.906Z</time></trkpt><trkpt lat="43.428985553686985" lon="10.920875516637388"><ele>426.0</ele><time>2026-04-18T11:58:19.914Z</time></trkpt><trkpt lat="43.429020666666666" lon="10.921008666666667"><ele>426.0</ele><time>2026-04-18T11:58:20.915Z</time></trkpt><trkpt lat="43.42900117186426" lon="10.921135705695917"><ele>425.20000000000005</ele><time>2026-04-18T11:58:21.931Z</time></trkpt><trkpt lat="43.42898117661503" lon="10.921254571004601"><ele>424.40000000000003</ele><time>2026-04-18T11:58:22.929Z</time></trkpt><trkpt lat="43.428946891828545" lon="10.921356622701655"><ele>423.6</ele><time>2026-04-18T11:58:23.912Z</time></trkpt><trkpt lat="43.428896678493295" lon="10.921451129836404"><ele>422.8</ele><time>2026-04-18T11:58:24.922Z</time></trkpt><trkpt lat="43.428828646424506" lon="10.921539900271506"><ele>422.0</ele><time>2026-04-18T11:58:25.92Z</time></trkpt><trkpt lat="43.42874093432109" lon="10.921624192253823"><ele>422.0</ele><time>2026-04-18T11:58:26.93Z</time></trkpt><trkpt lat="43.42864168248948" lon="10.921714828944996"><ele>422.0</ele><time>2026-04-18T11:58:27.917Z</time></trkpt><trkpt lat="43.428531298346805" lon="10.921815437648345"><ele>422.0</ele><time>2026-04-18T11:58:28.914Z</time></trkpt><trkpt lat="43.428423765596264" lon="10.921938853066433"><ele>422.0</ele><time>2026-04-18T11:58:29.915Z</time></trkpt><trkpt lat="43.42827857477684" lon="10.922175360746444"><ele>422.0</ele><time>2026-04-18T11:58:30.935Z</time></trkpt><trkpt lat="43.428208939286726" lon="10.922362096684182"><ele>422.0</ele><time>2026-04-18T11:58:31.927Z</time></trkpt><trkpt lat="43.42815939985019" lon="10.92255209575077"><ele>422.0</ele><time>2026-04-18T11:58:32.929Z</time></trkpt><trkpt lat="43.42811582730966" lon="10.922725439478237"><ele>422.0</ele><time>2026-04-18T11:58:33.911Z</time></trkpt><trkpt lat="43.42807488295021" lon="10.922885764312495"><ele>422.3333333333333</ele><time>2026-04-18T11:58:34.919Z</time></trkpt><trkpt lat="43.42803624743339" lon="10.923037048509409"><ele>422.66666666666663</ele><time>2026-04-18T11:58:35.913Z</time></trkpt><trkpt lat="43.427957996842586" lon="10.923345742620102"><ele>423.0</ele><time>2026-04-18T11:58:37.918Z</time></trkpt><trkpt lat="43.427932666666656" lon="10.923514833333336"><ele>431.0</ele><time>2026-04-18T11:58:39.024Z</time></trkpt><trkpt lat="43.42791133333334" lon="10.923596666666667"><ele>439.0</ele><time>2026-04-18T11:58:39.912Z</time></trkpt><trkpt lat="43.42787499999999" lon="10.923763666666664"><ele>447.0</ele><time>2026-04-18T11:58:40.906Z</time></trkpt><trkpt lat="43.427844333333326" lon="10.924026499999998"><ele>455.0</ele><time>2026-04-18T11:58:41.914Z</time></trkpt><trkpt lat="43.42783883333333" lon="10.924119833333334"><ele>456.66666666666663</ele><time>2026-04-18T11:58:42.919Z</time></trkpt><trkpt lat="43.42783299999999" lon="10.924321333333335"><ele>458.33333333333337</ele><time>2026-04-18T11:58:43.946Z</time></trkpt><trkpt lat="43.42783383333334" lon="10.924545166666666"><ele>460.0</ele><time>2026-04-18T11:58:44.91Z</time></trkpt><trkpt lat="43.42783783333332" lon="10.924903666666667"><ele>459.5</ele><time>2026-04-18T11:58:45.915Z</time></trkpt><trkpt lat="43.42784183333334" lon="10.925128333333335"><ele>459.0</ele><time>2026-04-18T11:58:46.912Z</time></trkpt><trkpt lat="43.42784483333333" lon="10.925233333333333"><ele>458.5</ele><time>2026-04-18T11:58:47.93Z</time></trkpt><trkpt lat="43.427846833333334" lon="10.925424999999999"><ele>458.0</ele><time>2026-04-18T11:58:48.916Z</time></trkpt><trkpt lat="43.42784766666667" lon="10.925671666666664"><ele>457.99999999999994</ele><time>2026-04-18T11:58:49.916Z</time></trkpt><trkpt lat="43.42784333333334" lon="10.925810166666668"><ele>458.0</ele><time>2026-04-18T11:58:50.924Z</time></trkpt><trkpt lat="43.427821166666675" lon="10.925930500000002"><ele>458.0</ele><time>2026-04-18T11:58:51.932Z</time></trkpt><trkpt lat="43.427782166666674" lon="10.926042166666667"><ele>458.0</ele><time>2026-04-18T11:58:52.919Z</time></trkpt><trkpt lat="43.427741499999996" lon="10.926145833333331"><ele>457.99999999999994</ele><time>2026-04-18T11:58:53.906Z</time></trkpt><trkpt lat="43.427685294642416" lon="10.926212321139182"><ele>458.0</ele><time>2026-04-18T11:58:54.917Z</time></trkpt><trkpt lat="43.42757810942093" lon="10.92633036089667"><ele>457.4</ele><time>2026-04-18T11:58:56.927Z</time></trkpt><trkpt lat="43.42745725166436" lon="10.92635411608935"><ele>456.79999999999995</ele><time>2026-04-18T11:58:58.922Z</time></trkpt><trkpt lat="43.42735580404739" lon="10.926374581754066"><ele>456.2</ele><time>2026-04-18T11:58:59.921Z</time></trkpt><trkpt lat="43.42725470021664" lon="10.926397105188189"><ele>455.6</ele><time>2026-04-18T11:59:00.939Z</time></trkpt><trkpt lat="43.427160499836745" lon="10.926425494478199"><ele>455.0</ele><time>2026-04-18T11:59:01.924Z</time></trkpt><trkpt lat="43.42707202996908" lon="10.926482934553205"><ele>457.6</ele><time>2026-04-18T11:59:02.916Z</time></trkpt><trkpt lat="43.42699898192423" lon="10.926570341236511"><ele>460.2</ele><time>2026-04-18T11:59:03.926Z</time></trkpt><trkpt lat="43.42695440254737" lon="10.926687061948376"><ele>462.79999999999995</ele><time>2026-04-18T11:59:04.944Z</time></trkpt><trkpt lat="43.42694413827063" lon="10.9268105055607"><ele>465.4</ele><time>2026-04-18T11:59:05.966Z</time></trkpt><trkpt lat="43.4270075" lon="10.926970833333334"><ele>468.0</ele><time>2026-04-18T11:59:06.912Z</time></trkpt><trkpt lat="43.427076166666666" lon="10.927049166666665"><ele>467.59999999999997</ele><time>2026-04-18T11:59:07.915Z</time></trkpt><trkpt lat="43.427164499999996" lon="10.927113499999999"><ele>467.19999999999993</ele><time>2026-04-18T11:59:08.912Z</time></trkpt><trkpt lat="43.42726566666667" lon="10.927174666666668"><ele>466.8</ele><time>2026-04-18T11:59:09.933Z</time></trkpt><trkpt lat="43.42737283333332" lon="10.927238833333334"><ele>466.4</ele><time>2026-04-18T11:59:10.923Z</time></trkpt><trkpt lat="43.427474000000004" lon="10.927322666666665"><ele>466.0</ele><time>2026-04-18T11:59:11.919Z</time></trkpt><trkpt lat="43.42755416666667" lon="10.927433666666666"><ele>466.0</ele><time>2026-04-18T11:59:12.916Z</time></trkpt><trkpt lat="43.427617" lon="10.927557166666668"><ele>466.0</ele><time>2026-04-18T11:59:13.948Z</time></trkpt><trkpt lat="43.427676166666664" lon="10.927687166666665"><ele>466.0</ele><time>2026-04-18T11:59:14.918Z</time></trkpt><trkpt lat="43.42773399999999" lon="10.927823166666668"><ele>466.0</ele><time>2026-04-18T11:59:15.913Z</time></trkpt><trkpt lat="43.42779316666667" lon="10.927963666666669"><ele>470.0</ele><time>2026-04-18T11:59:16.918Z</time></trkpt><trkpt lat="43.427908166666676" lon="10.928215166666666"><ele>474.0</ele><time>2026-04-18T11:59:18.911Z</time></trkpt><trkpt lat="43.42794716666668" lon="10.928334166666666"><ele>478.0</ele><time>2026-04-18T11:59:19.916Z</time></trkpt><trkpt lat="43.427967833333334" lon="10.928465333333333"><ele>482.0</ele><time>2026-04-18T11:59:20.916Z</time></trkpt><trkpt lat="43.42795948711869" lon="10.928617267254001"><ele>482.75</ele><time>2026-04-18T11:59:21.932Z</time></trkpt><trkpt lat="43.4279815" lon="10.928774833333332"><ele>483.5</ele><time>2026-04-18T11:59:22.908Z</time></trkpt><trkpt lat="43.427991500000005" lon="10.928934333333332"><ele>484.25</ele><time>2026-04-18T11:59:23.924Z</time></trkpt><trkpt lat="43.428006986505835" lon="10.929107138828634"><ele>485.0</ele><time>2026-04-18T11:59:24.913Z</time></trkpt><trkpt lat="43.428056169613214" lon="10.929284910417712"><ele>485.0</ele><time>2026-04-18T11:59:25.927Z</time></trkpt><trkpt lat="43.42811640904002" lon="10.929457828752856"><ele>485.0</ele><time>2026-04-18T11:59:26.951Z</time></trkpt><trkpt lat="43.428168975811374" lon="10.929618901786922"><ele>485.0</ele><time>2026-04-18T11:59:27.924Z</time></trkpt><trkpt lat="43.42820898976604" lon="10.929764092032267"><ele>485.0</ele><time>2026-04-18T11:59:28.92Z</time></trkpt><trkpt lat="43.42822876089682" lon="10.929901070714813"><ele>485.0</ele><time>2026-04-18T11:59:29.924Z</time></trkpt><trkpt lat="43.428233332564126" lon="10.930023303685712"><ele>485.0</ele><time>2026-04-18T11:59:30.936Z</time></trkpt><trkpt lat="43.42822059390829" lon="10.930141138692868"><ele>485.0</ele><time>2026-04-18T11:59:31.913Z</time></trkpt><trkpt lat="43.42819747386401" lon="10.930263507941046"><ele>485.0</ele><time>2026-04-18T11:59:32.916Z</time></trkpt><trkpt lat="43.428167461611345" lon="10.930398761176987"><ele>485.0</ele><time>2026-04-18T11:59:33.909Z</time></trkpt><trkpt lat="43.42813232396317" lon="10.93054861899484"><ele>487.25</ele><time>2026-04-18T11:59:34.936Z</time></trkpt><trkpt lat="43.42809495487789" lon="10.930712494007768"><ele>489.5</ele><time>2026-04-18T11:59:35.913Z</time></trkpt><trkpt lat="43.42806311351487" lon="10.930877568395584"><ele>491.75</ele><time>2026-04-18T11:59:36.912Z</time></trkpt><trkpt lat="43.4280363049623" lon="10.931036265514638"><ele>494.0</ele><time>2026-04-18T11:59:37.912Z</time></trkpt><trkpt lat="43.42802204022178" lon="10.931192041268455"><ele>496.2</ele><time>2026-04-18T11:59:38.918Z</time></trkpt><trkpt lat="43.42803383333334" lon="10.931337833333336"><ele>498.4</ele><time>2026-04-18T11:59:39.938Z</time></trkpt><trkpt lat="43.42804816666667" lon="10.931474333333332"><ele>500.6</ele><time>2026-04-18T11:59:40.923Z</time></trkpt><trkpt lat="43.428072500000006" lon="10.931608166666669"><ele>502.8</ele><time>2026-04-18T11:59:41.923Z</time></trkpt><trkpt lat="43.42808161957157" lon="10.931751350951851"><ele>505.0</ele><time>2026-04-18T11:59:42.928Z</time></trkpt><trkpt lat="43.428114666666666" lon="10.932012166666668"><ele>506.4</ele><time>2026-04-18T11:59:44.925Z</time></trkpt><trkpt lat="43.428081500000005" lon="10.932134166666666"><ele>507.8</ele><time>2026-04-18T11:59:45.908Z</time></trkpt><trkpt lat="43.42802666666667" lon="10.932231666666667"><ele>509.20000000000005</ele><time>2026-04-18T11:59:46.927Z</time></trkpt><trkpt lat="43.42794057600488" lon="10.932276067414078"><ele>510.6</ele><time>2026-04-18T11:59:47.947Z</time></trkpt><trkpt lat="43.42785485648746" lon="10.932328776881487"><ele>512.0</ele><time>2026-04-18T11:59:48.964Z</time></trkpt><trkpt lat="43.42773933333333" lon="10.932482166666667"><ele>512.4</ele><time>2026-04-18T11:59:50.917Z</time></trkpt><trkpt lat="43.42772499999999" lon="10.932614666666666"><ele>512.8000000000001</ele><time>2026-04-18T11:59:52.912Z</time></trkpt><trkpt lat="43.42774483333333" lon="10.932711166666664"><ele>513.2</ele><time>2026-04-18T11:59:53.918Z</time></trkpt><trkpt lat="43.427783" lon="10.932814"><ele>513.6</ele><time>2026-04-18T11:59:54.933Z</time></trkpt><trkpt lat="43.427828" lon="10.932932333333333"><ele>514.0</ele><time>2026-04-18T11:59:55.924Z</time></trkpt><trkpt lat="43.427903666666666" lon="10.933133666666667"><ele>514.0</ele><time>2026-04-18T11:59:56.934Z</time></trkpt><trkpt lat="43.42794766666666" lon="10.933266333333332"><ele>514.0</ele><time>2026-04-18T11:59:57.911Z</time></trkpt><trkpt lat="43.42796549855433" lon="10.933399246784656"><ele>514.0</ele><time>2026-04-18T11:59:58.928Z</time></trkpt><trkpt lat="43.42799664819824" lon="10.933510721254642"><ele>514.0</ele><time>2026-04-18T11:59:59.92Z</time></trkpt><trkpt lat="43.428029901813154" lon="10.93361452004088"><ele>514.0</ele><time>2026-04-18T12:00:00.945Z</time></trkpt><trkpt lat="43.42807064464109" lon="10.933713853301375"><ele>511.0</ele><time>2026-04-18T12:00:01.919Z</time></trkpt><trkpt lat="43.428146400716" lon="10.933853562147432"><ele>508.0</ele><time>2026-04-18T12:00:03.937Z</time></trkpt><trkpt lat="43.428212680736344" lon="10.933941267738122"><ele>505.0</ele><time>2026-04-18T12:00:04.952Z</time></trkpt><trkpt lat="43.42829718038917" lon="10.93402309138078"><ele>502.0</ele><time>2026-04-18T12:00:05.92Z</time></trkpt><trkpt lat="43.42838893603099" lon="10.93410941339192"><ele>499.0</ele><time>2026-04-18T12:00:06.907Z</time></trkpt><trkpt lat="43.4284879783824" lon="10.934195250814707"><ele>496.5</ele><time>2026-04-18T12:00:07.919Z</time></trkpt><trkpt lat="43.42859061935248" lon="10.934281514929404"><ele>494.0</ele><time>2026-04-18T12:00:08.912Z</time></trkpt><trkpt lat="43.42874516300692" lon="10.934421963092293"><ele>491.5</ele><time>2026-04-18T12:00:09.916Z</time></trkpt><trkpt lat="43.42884791840172" lon="10.934519331205985"><ele>489.0</ele><time>2026-04-18T12:00:10.916Z</time></trkpt><trkpt lat="43.42900645019411" lon="10.934652810795274"><ele>489.0</ele><time>2026-04-18T12:00:12.922Z</time></trkpt><trkpt lat="43.429119513805524" lon="10.934733876884955"><ele>489.0</ele><time>2026-04-18T12:00:13.946Z</time></trkpt><trkpt lat="43.42923851974159" lon="10.934812773584063"><ele>489.0</ele><time>2026-04-18T12:00:14.915Z</time></trkpt><trkpt lat="43.429359748070404" lon="10.934893170702733"><ele>489.0</ele><time>2026-04-18T12:00:15.924Z</time></trkpt><trkpt lat="43.4294787478073" lon="10.93497220030933"><ele>489.0</ele><time>2026-04-18T12:00:16.929Z</time></trkpt><trkpt lat="43.42959462049649" lon="10.935049481989711"><ele>489.0</ele><time>2026-04-18T12:00:17.95Z</time></trkpt><trkpt lat="43.429704788495684" lon="10.935127219594095"><ele>489.0</ele><time>2026-04-18T12:00:18.927Z</time></trkpt><trkpt lat="43.42980964576681" lon="10.935208311318906"><ele>489.0</ele><time>2026-04-18T12:00:19.925Z</time></trkpt><trkpt lat="43.42991018520292" lon="10.935288663024211"><ele>489.2</ele><time>2026-04-18T12:00:20.919Z</time></trkpt><trkpt lat="43.430002094299724" lon="10.935366127992102"><ele>489.4</ele><time>2026-04-18T12:00:21.933Z</time></trkpt><trkpt lat="43.43008485492772" lon="10.935442233912239"><ele>489.6</ele><time>2026-04-18T12:00:22.908Z</time></trkpt><trkpt lat="43.430158439935184" lon="10.935520982049102"><ele>489.8</ele><time>2026-04-18T12:00:23.916Z</time></trkpt><trkpt lat="43.43023116897925" lon="10.935607759226144"><ele>490.0</ele><time>2026-04-18T12:00:24.913Z</time></trkpt><trkpt lat="43.430308333333336" lon="10.935698833333333"><ele>490.0</ele><time>2026-04-18T12:00:25.932Z</time></trkpt><trkpt lat="43.430375999999995" lon="10.935812333333335"><ele>490.0</ele><time>2026-04-18T12:00:26.917Z</time></trkpt><trkpt lat="43.43044866666668" lon="10.935921499999997"><ele>490.0</ele><time>2026-04-18T12:00:27.916Z</time></trkpt><trkpt lat="43.430522833333335" lon="10.936028833333333"><ele>490.0</ele><time>2026-04-18T12:00:28.92Z</time></trkpt><trkpt lat="43.430593833333326" lon="10.936144999999998"><ele>490.0</ele><time>2026-04-18T12:00:29.926Z</time></trkpt><trkpt lat="43.430659500000004" lon="10.936266833333333"><ele>490.75</ele><time>2026-04-18T12:00:30.944Z</time></trkpt><trkpt lat="43.430735874648676" lon="10.936478928170743"><ele>491.5</ele><time>2026-04-18T12:00:31.917Z</time></trkpt><trkpt lat="43.4308115" lon="10.936598833333335"><ele>492.25</ele><time>2026-04-18T12:00:32.92Z</time></trkpt><trkpt lat="43.43086216666667" lon="10.936740333333335"><ele>493.0</ele><time>2026-04-18T12:00:33.936Z</time></trkpt><trkpt lat="43.43090816666666" lon="10.936889"><ele>493.0</ele><time>2026-04-18T12:00:34.944Z</time></trkpt><trkpt lat="43.430950333333335" lon="10.937039166666667"><ele>493.0</ele><time>2026-04-18T12:00:35.92Z</time></trkpt><trkpt lat="43.43099866666666" lon="10.937181166666669"><ele>493.0</ele><time>2026-04-18T12:00:36.925Z</time></trkpt><trkpt lat="43.431058833333324" lon="10.937306833333333"><ele>493.0</ele><time>2026-04-18T12:00:37.919Z</time></trkpt><trkpt lat="43.43108790395476" lon="10.937463388804094"><ele>491.59999999999997</ele><time>2026-04-18T12:00:38.944Z</time></trkpt><trkpt lat="43.431172476513346" lon="10.937557555079819"><ele>490.19999999999993</ele><time>2026-04-18T12:00:39.916Z</time></trkpt><trkpt lat="43.43125962950467" lon="10.937637268273367"><ele>488.8</ele><time>2026-04-18T12:00:40.926Z</time></trkpt><trkpt lat="43.43134705791643" lon="10.937718698434967"><ele>487.4</ele><time>2026-04-18T12:00:41.909Z</time></trkpt><trkpt lat="43.43143539604222" lon="10.937807840812251"><ele>486.0</ele><time>2026-04-18T12:00:42.928Z</time></trkpt><trkpt lat="43.43151726022622" lon="10.9379068049945"><ele>490.66666666666663</ele><time>2026-04-18T12:00:43.965Z</time></trkpt><trkpt lat="43.43163222910332" lon="10.938072814482881"><ele>495.3333333333333</ele><time>2026-04-18T12:00:45.907Z</time></trkpt><trkpt lat="43.43173885681504" lon="10.938242999122822"><ele>500.0</ele><time>2026-04-18T12:00:46.925Z</time></trkpt><trkpt lat="43.43183648757601" lon="10.938418735041804"><ele>500.0</ele><time>2026-04-18T12:00:48.923Z</time></trkpt><trkpt lat="43.431925865048946" lon="10.938610885433603"><ele>500.0</ele><time>2026-04-18T12:00:49.917Z</time></trkpt><trkpt lat="43.43199299999999" lon="10.938823333333334"><ele>500.0</ele><time>2026-04-18T12:00:51.952Z</time></trkpt><trkpt lat="43.43199833333333" lon="10.938986333333334"><ele>501.0</ele><time>2026-04-18T12:00:52.919Z</time></trkpt><trkpt lat="43.43195798325391" lon="10.939232347019633"><ele>502.0</ele><time>2026-04-18T12:00:53.928Z</time></trkpt><trkpt lat="43.43194155670611" lon="10.939394091058235"><ele>503.0</ele><time>2026-04-18T12:00:54.916Z</time></trkpt><trkpt lat="43.43194151911991" lon="10.939552591526827"><ele>504.0</ele><time>2026-04-18T12:00:55.937Z</time></trkpt><trkpt lat="43.43198620166215" lon="10.939689756113934"><ele>504.0</ele><time>2026-04-18T12:00:56.908Z</time></trkpt><trkpt lat="43.43205383333334" lon="10.939784666666666"><ele>504.0</ele><time>2026-04-18T12:00:57.913Z</time></trkpt><trkpt lat="43.43207502027302" lon="10.939899907783792"><ele>504.0</ele><time>2026-04-18T12:00:58.916Z</time></trkpt><trkpt lat="43.43206345724123" lon="10.94000187292306"><ele>504.0</ele><time>2026-04-18T12:00:59.93Z</time></trkpt><trkpt lat="43.43204749674669" lon="10.940110381007582"><ele>504.0</ele><time>2026-04-18T12:01:00.964Z</time></trkpt><trkpt lat="43.432028675072665" lon="10.940224328746446"><ele>504.0</ele><time>2026-04-18T12:01:01.919Z</time></trkpt><trkpt lat="43.43200971359819" lon="10.940351861718554"><ele>505.5</ele><time>2026-04-18T12:01:02.916Z</time></trkpt><trkpt lat="43.431989341042076" lon="10.940489683801747"><ele>507.0</ele><time>2026-04-18T12:01:03.926Z</time></trkpt><trkpt lat="43.43196416666667" lon="10.940723833333335"><ele>508.5</ele><time>2026-04-18T12:01:05.921Z</time></trkpt><trkpt lat="43.431938333333335" lon="10.940889833333332"><ele>510.0</ele><time>2026-04-18T12:01:06.916Z</time></trkpt><trkpt lat="43.43191466666668" lon="10.941069"><ele>511.66666666666663</ele><time>2026-04-18T12:01:07.925Z</time></trkpt><trkpt lat="43.43187251176338" lon="10.941363505185015"><ele>513.3333333333333</ele><time>2026-04-18T12:01:08.933Z</time></trkpt><trkpt lat="43.43187083604612" lon="10.94147256708391"><ele>515.0</ele><time>2026-04-18T12:01:09.922Z</time></trkpt><trkpt lat="43.43186764448324" lon="10.941687148564567"><ele>515.3333333333333</ele><time>2026-04-18T12:01:10.91Z</time></trkpt><trkpt lat="43.43186294803257" lon="10.941904984996555"><ele>515.6666666666666</ele><time>2026-04-18T12:01:11.913Z</time></trkpt><trkpt lat="43.43185620460129" lon="10.942233979187096"><ele>516.0</ele><time>2026-04-18T12:01:12.921Z</time></trkpt><trkpt lat="43.43185260993158" lon="10.942447946083872"><ele>514.3333333333334</ele><time>2026-04-18T12:01:13.921Z</time></trkpt><trkpt lat="43.43186258209985" lon="10.94267324805296"><ele>512.6666666666667</ele><time>2026-04-18T12:01:14.918Z</time></trkpt><trkpt lat="43.43187965765846" lon="10.942919721696882"><ele>511.0</ele><time>2026-04-18T12:01:15.92Z</time></trkpt><trkpt lat="43.43191183333334" lon="10.943174333333332"><ele>510.0</ele><time>2026-04-18T12:01:16.927Z</time></trkpt><trkpt lat="43.43191583333334" lon="10.943423"><ele>509.0</ele><time>2026-04-18T12:01:17.908Z</time></trkpt><trkpt lat="43.431918833333334" lon="10.943648833333334"><ele>508.0</ele><time>2026-04-18T12:01:18.913Z</time></trkpt><trkpt lat="43.43190089075282" lon="10.943854802574323"><ele>508.0</ele><time>2026-04-18T12:01:19.92Z</time></trkpt><trkpt lat="43.43191668906663" lon="10.944037276917825"><ele>508.0</ele><time>2026-04-18T12:01:20.925Z</time></trkpt><trkpt lat="43.43194557852101" lon="10.944194222851525"><ele>508.0</ele><time>2026-04-18T12:01:21.934Z</time></trkpt><trkpt lat="43.43198624209406" lon="10.9443359555127"><ele>508.0</ele><time>2026-04-18T12:01:22.917Z</time></trkpt><trkpt lat="43.43204934668739" lon="10.944455320128245"><ele>508.75</ele><time>2026-04-18T12:01:23.912Z</time></trkpt><trkpt lat="43.43214345632435" lon="10.944533280668715"><ele>509.5</ele><time>2026-04-18T12:01:24.914Z</time></trkpt><trkpt lat="43.4322466351803" lon="10.94456154129019"><ele>510.25</ele><time>2026-04-18T12:01:25.945Z</time></trkpt><trkpt lat="43.432357321445544" lon="10.944566631374192"><ele>511.0</ele><time>2026-04-18T12:01:26.911Z</time></trkpt><trkpt lat="43.43248176487914" lon="10.944559538532049"><ele>511.0</ele><time>2026-04-18T12:01:27.92Z</time></trkpt><trkpt lat="43.43261824120207" lon="10.944534756074047"><ele>511.0</ele><time>2026-04-18T12:01:28.913Z</time></trkpt><trkpt lat="43.4327612265677" lon="10.944497869142461"><ele>511.0</ele><time>2026-04-18T12:01:29.932Z</time></trkpt><trkpt lat="43.43290565335501" lon="10.944460782813051"><ele>511.0</ele><time>2026-04-18T12:01:30.921Z</time></trkpt><trkpt lat="43.433048085476614" lon="10.94442357136857"><ele>512.2</ele><time>2026-04-18T12:01:31.933Z</time></trkpt><trkpt lat="43.4331745" lon="10.944366166666667"><ele>513.4000000000001</ele><time>2026-04-18T12:01:32.932Z</time></trkpt><trkpt lat="43.43328916666666" lon="10.944346"><ele>514.6</ele><time>2026-04-18T12:01:33.932Z</time></trkpt><trkpt lat="43.433389951974966" lon="10.944371953565856"><ele>515.8000000000001</ele><time>2026-04-18T12:01:34.921Z</time></trkpt><trkpt lat="43.43347674272258" lon="10.944404951499493"><ele>517.0</ele><time>2026-04-18T12:01:35.919Z</time></trkpt><trkpt lat="43.43359476705673" lon="10.944477693813589"><ele>517.0</ele><time>2026-04-18T12:01:37.924Z</time></trkpt><trkpt lat="43.433671088026394" lon="10.944533383166599"><ele>517.0</ele><time>2026-04-18T12:01:38.937Z</time></trkpt><trkpt lat="43.43374545470367" lon="10.944596911327439"><ele>517.0</ele><time>2026-04-18T12:01:39.912Z</time></trkpt><trkpt lat="43.433823503704055" lon="10.944665355148361"><ele>517.0</ele><time>2026-04-18T12:01:40.915Z</time></trkpt><trkpt lat="43.43390423818275" lon="10.944731874654622"><ele>517.0</ele><time>2026-04-18T12:01:41.909Z</time></trkpt><trkpt lat="43.434035909526834" lon="10.944813665798412"><ele>519.2</ele><time>2026-04-18T12:01:42.925Z</time></trkpt><trkpt lat="43.434129500000004" lon="10.944836166666668"><ele>521.4000000000001</ele><time>2026-04-18T12:01:43.916Z</time></trkpt><trkpt lat="43.43426049999999" lon="10.944892166666666"><ele>523.5999999999999</ele><time>2026-04-18T12:01:45.921Z</time></trkpt><trkpt lat="43.4343412752483" lon="10.944942869855348"><ele>525.8</ele><time>2026-04-18T12:01:46.939Z</time></trkpt><trkpt lat="43.43442815950424" lon="10.944965966788073"><ele>528.0</ele><time>2026-04-18T12:01:47.958Z</time></trkpt><trkpt lat="43.43451272007768" lon="10.944976109401924"><ele>528.0</ele><time>2026-04-18T12:01:48.914Z</time></trkpt><trkpt lat="43.43459500273928" lon="10.944984683339904"><ele>528.0</ele><time>2026-04-18T12:01:49.923Z</time></trkpt><trkpt lat="43.43471594260249" lon="10.94503182421511"><ele>528.0</ele><time>2026-04-18T12:01:50.92Z</time></trkpt><trkpt lat="43.43476742185541" lon="10.945098000817088"><ele>528.0</ele><time>2026-04-18T12:01:51.94Z</time></trkpt><trkpt lat="43.43481966746614" lon="10.945250589172359"><ele>528.0</ele><time>2026-04-18T12:01:53.925Z</time></trkpt><trkpt lat="43.43486192828308" lon="10.945380985547974"><ele>531.0</ele><time>2026-04-18T12:01:55.944Z</time></trkpt><trkpt lat="43.4349095" lon="10.945467166666667"><ele>534.0</ele><time>2026-04-18T12:01:56.925Z</time></trkpt><trkpt lat="43.43495116666666" lon="10.945559833333334"><ele>537.0</ele><time>2026-04-18T12:01:57.913Z</time></trkpt><trkpt lat="43.43502717296045" lon="10.945690038020274"><ele>540.0</ele><time>2026-04-18T12:01:58.92Z</time></trkpt><trkpt lat="43.435113917448895" lon="10.945810385298069"><ele>543.0</ele><time>2026-04-18T12:02:00.912Z</time></trkpt><trkpt lat="43.43517718868394" lon="10.945885211205518"><ele>545.0</ele><time>2026-04-18T12:02:01.913Z</time></trkpt><trkpt lat="43.43527508482981" lon="10.945988896577887"><ele>547.0</ele><time>2026-04-18T12:02:02.913Z</time></trkpt><trkpt lat="43.43533806856028" lon="10.94605166424522"><ele>549.0</ele><time>2026-04-18T12:02:03.929Z</time></trkpt><trkpt lat="43.435408499999994" lon="10.946106333333333"><ele>551.0</ele><time>2026-04-18T12:02:04.917Z</time></trkpt><trkpt lat="43.435547666666665" lon="10.946243"><ele>551.0</ele><time>2026-04-18T12:02:06.929Z</time></trkpt><trkpt lat="43.4356171328361" lon="10.946325256922949"><ele>551.0</ele><time>2026-04-18T12:02:07.916Z</time></trkpt><trkpt lat="43.435696911241244" lon="10.94640601172229"><ele>551.0</ele><time>2026-04-18T12:02:08.949Z</time></trkpt><trkpt lat="43.43578430225476" lon="10.946492920011204"><ele>551.0</ele><time>2026-04-18T12:02:09.925Z</time></trkpt><trkpt lat="43.43586982412969" lon="10.946576156105161"><ele>551.0</ele><time>2026-04-18T12:02:10.92Z</time></trkpt><trkpt lat="43.43594878467069" lon="10.946674071165148"><ele>554.2</ele><time>2026-04-18T12:02:11.92Z</time></trkpt><trkpt lat="43.43602216976859" lon="10.946786676080432"><ele>557.4000000000001</ele><time>2026-04-18T12:02:12.921Z</time></trkpt><trkpt lat="43.436091004043085" lon="10.94690311782949"><ele>560.6</ele><time>2026-04-18T12:02:13.922Z</time></trkpt><trkpt lat="43.43615043613501" lon="10.947013250505247"><ele>563.8000000000001</ele><time>2026-04-18T12:02:14.925Z</time></trkpt><trkpt lat="43.436202692581716" lon="10.947117909754661"><ele>567.0</ele><time>2026-04-18T12:02:15.925Z</time></trkpt><trkpt lat="43.43624317910874" lon="10.947212021777956"><ele>567.0</ele><time>2026-04-18T12:02:16.934Z</time></trkpt><trkpt lat="43.43628376522336" lon="10.947349707370046"><ele>567.0</ele><time>2026-04-18T12:02:18.917Z</time></trkpt><trkpt lat="43.43627170492638" lon="10.947445273419895"><ele>567.0</ele><time>2026-04-18T12:02:20.928Z</time></trkpt><trkpt lat="43.436227340304036" lon="10.94752048712562"><ele>567.0</ele><time>2026-04-18T12:02:21.954Z</time></trkpt><trkpt lat="43.43617516299138" lon="10.947688823238801"><ele>567.0</ele><time>2026-04-18T12:02:22.926Z</time></trkpt><trkpt lat="43.43614951670954" lon="10.94781973017367"><ele>566.75</ele><time>2026-04-18T12:02:23.917Z</time></trkpt><trkpt lat="43.43613899191851" lon="10.947957767607393"><ele>566.5</ele><time>2026-04-18T12:02:24.917Z</time></trkpt><trkpt lat="43.43614527662187" lon="10.948145424372784"><ele>566.25</ele><time>2026-04-18T12:02:26.918Z</time></trkpt><trkpt lat="43.43616093546551" lon="10.948326212831132"><ele>566.0</ele><time>2026-04-18T12:02:27.918Z</time></trkpt><trkpt lat="43.436176157605196" lon="10.948450673443327"><ele>565.0</ele><time>2026-04-18T12:02:28.915Z</time></trkpt><trkpt lat="43.43620694936111" lon="10.948568476821185"><ele>564.0</ele><time>2026-04-18T12:02:29.935Z</time></trkpt><trkpt lat="43.4362513098645" lon="10.948677781631048"><ele>563.0</ele><time>2026-04-18T12:02:30.923Z</time></trkpt><trkpt lat="43.43632614393318" lon="10.948820292417983"><ele>562.0</ele><time>2026-04-18T12:02:32.914Z</time></trkpt><trkpt lat="43.43638928479218" lon="10.94896629443924"><ele>561.0</ele><time>2026-04-18T12:02:33.929Z</time></trkpt><trkpt lat="43.43645251650405" lon="10.949112505870337"><ele>560.75</ele><time>2026-04-18T12:02:35.913Z</time></trkpt><trkpt lat="43.4364966082888" lon="10.949214459926253"><ele>560.5</ele><time>2026-04-18T12:02:36.909Z</time></trkpt><trkpt lat="43.436559344192666" lon="10.949325633191314"><ele>560.25</ele><time>2026-04-18T12:02:37.929Z</time></trkpt><trkpt lat="43.43666616871095" lon="10.949477391854133"><ele>560.0</ele><time>2026-04-18T12:02:38.95Z</time></trkpt><trkpt lat="43.436795712630065" lon="10.949606069234225"><ele>560.0</ele><time>2026-04-18T12:02:40.918Z</time></trkpt><trkpt lat="43.43696012027274" lon="10.949690067112648"><ele>560.0</ele><time>2026-04-18T12:02:41.918Z</time></trkpt><trkpt lat="43.43707170088141" lon="10.949724042466148"><ele>560.0</ele><time>2026-04-18T12:02:42.913Z</time></trkpt><trkpt lat="43.43719033336995" lon="10.949749058382073"><ele>560.0</ele><time>2026-04-18T12:02:43.926Z</time></trkpt><trkpt lat="43.437311165399564" lon="10.9497640904554"><ele>561.3333333333333</ele><time>2026-04-18T12:02:44.923Z</time></trkpt><trkpt lat="43.437478949457905" lon="10.94980103792182"><ele>562.6666666666666</ele><time>2026-04-18T12:02:46.933Z</time></trkpt><trkpt lat="43.437640667188155" lon="10.949872997893506"><ele>564.0</ele><time>2026-04-18T12:02:47.916Z</time></trkpt><trkpt lat="43.4377454036131" lon="10.949940481243893"><ele>564.0</ele><time>2026-04-18T12:02:48.927Z</time></trkpt><trkpt lat="43.43784355148523" lon="10.950025241810518"><ele>564.0</ele><time>2026-04-18T12:02:49.918Z</time></trkpt><trkpt lat="43.43794442920664" lon="10.950126223547972"><ele>564.0</ele><time>2026-04-18T12:02:50.932Z</time></trkpt><trkpt lat="43.43805013493702" lon="10.950233549390461"><ele>564.0</ele><time>2026-04-18T12:02:52.05Z</time></trkpt><trkpt lat="43.438159471667994" lon="10.950351378489238"><ele>564.25</ele><time>2026-04-18T12:02:52.926Z</time></trkpt><trkpt lat="43.43821500938584" lon="10.950411230097327"><ele>564.5</ele><time>2026-04-18T12:02:53.921Z</time></trkpt><trkpt lat="43.43832752877835" lon="10.950532489153636"><ele>564.75</ele><time>2026-04-18T12:02:55.026Z</time></trkpt><trkpt lat="43.43844157891914" lon="10.950655398130035"><ele>565.0</ele><time>2026-04-18T12:02:55.909Z</time></trkpt><trkpt lat="43.43861635189234" lon="10.950843745944209"><ele>564.0</ele><time>2026-04-18T12:02:56.923Z</time></trkpt><trkpt lat="43.438737106729704" lon="10.950972072971835"><ele>563.0</ele><time>2026-04-18T12:02:57.922Z</time></trkpt><trkpt lat="43.43885930670248" lon="10.951100046711234"><ele>562.0</ele><time>2026-04-18T12:02:58.908Z</time></trkpt><trkpt lat="43.43898188173252" lon="10.951228410303306"><ele>563.5</ele><time>2026-04-18T12:02:59.943Z</time></trkpt><trkpt lat="43.43910383929403" lon="10.951352706512889"><ele>565.0</ele><time>2026-04-18T12:03:00.921Z</time></trkpt><trkpt lat="43.43922314809406" lon="10.951475413482601"><ele>566.5</ele><time>2026-04-18T12:03:01.921Z</time></trkpt><trkpt lat="43.43933829994238" lon="10.951597285303171"><ele>568.0</ele><time>2026-04-18T12:03:02.918Z</time></trkpt><trkpt lat="43.439452835738635" lon="10.95171912066977"><ele>568.0</ele><time>2026-04-18T12:03:03.942Z</time></trkpt><trkpt lat="43.439565031418425" lon="10.951838482289501"><ele>568.0</ele><time>2026-04-18T12:03:04.921Z</time></trkpt><trkpt lat="43.43967465095003" lon="10.951955104039339"><ele>568.0</ele><time>2026-04-18T12:03:05.921Z</time></trkpt><trkpt lat="43.43978185454104" lon="10.95206915552186"><ele>568.0</ele><time>2026-04-18T12:03:06.936Z</time></trkpt><trkpt lat="43.43988651444242" lon="10.95218050083053"><ele>571.0</ele><time>2026-04-18T12:03:07.942Z</time></trkpt><trkpt lat="43.43998883415033" lon="10.952289356387162"><ele>574.0</ele><time>2026-04-18T12:03:08.916Z</time></trkpt><trkpt lat="43.44008906368261" lon="10.952395988406618"><ele>577.0</ele><time>2026-04-18T12:03:09.914Z</time></trkpt><trkpt lat="43.44018757356115" lon="10.952500790850289"><ele>580.0</ele><time>2026-04-18T12:03:10.915Z</time></trkpt><trkpt lat="43.44028278518949" lon="10.952604605212475"><ele>580.0</ele><time>2026-04-18T12:03:11.927Z</time></trkpt><trkpt lat="43.44037669020521" lon="10.952708069788706"><ele>580.0</ele><time>2026-04-18T12:03:12.958Z</time></trkpt><trkpt lat="43.44047116353905" lon="10.952808420371904"><ele>580.0</ele><time>2026-04-18T12:03:13.918Z</time></trkpt><trkpt lat="43.44056342848716" lon="10.952898810548493"><ele>580.0</ele><time>2026-04-18T12:03:14.919Z</time></trkpt><trkpt lat="43.44065636888045" lon="10.9529874286308"><ele>584.0</ele><time>2026-04-18T12:03:15.914Z</time></trkpt><trkpt lat="43.44084137883078" lon="10.953136187186594"><ele>588.0</ele><time>2026-04-18T12:03:17.913Z</time></trkpt><trkpt lat="43.44093672193569" lon="10.953176271810381"><ele>592.0</ele><time>2026-04-18T12:03:18.909Z</time></trkpt><trkpt lat="43.441076912971305" lon="10.953153901430674"><ele>592.0</ele><time>2026-04-18T12:03:20.918Z</time></trkpt><trkpt lat="43.44116983333333" lon="10.9530405"><ele>592.0</ele><time>2026-04-18T12:03:21.91Z</time></trkpt><trkpt lat="43.441242333333335" lon="10.952843666666668"><ele>592.0</ele><time>2026-04-18T12:03:23.925Z</time></trkpt><trkpt lat="43.441251333333334" lon="10.952728666666667"><ele>592.0</ele><time>2026-04-18T12:03:24.938Z</time></trkpt><trkpt lat="43.441261000000004" lon="10.952619166666668"><ele>592.0</ele><time>2026-04-18T12:03:25.947Z</time></trkpt><trkpt lat="43.44128816666666" lon="10.952521666666668"><ele>593.5</ele><time>2026-04-18T12:03:26.915Z</time></trkpt><trkpt lat="43.44133616666666" lon="10.952443333333333"><ele>595.0</ele><time>2026-04-18T12:03:27.923Z</time></trkpt><trkpt lat="43.44140786682308" lon="10.952430876459502"><ele>596.5</ele><time>2026-04-18T12:03:28.916Z</time></trkpt><trkpt lat="43.44151387558074" lon="10.952435287031875"><ele>598.0</ele><time>2026-04-18T12:03:30.982Z</time></trkpt><trkpt lat="43.44157864498614" lon="10.952457637475666"><ele>599.5</ele><time>2026-04-18T12:03:31.91Z</time></trkpt><trkpt lat="43.44164043120009" lon="10.952485123502063"><ele>601.0</ele><time>2026-04-18T12:03:32.916Z</time></trkpt><trkpt lat="43.44171448592882" lon="10.952542976673115"><ele>601.6</ele><time>2026-04-18T12:03:34.926Z</time></trkpt><trkpt lat="43.44167795883335" lon="10.952649502776788"><ele>602.2</ele><time>2026-04-18T12:03:37.937Z</time></trkpt><trkpt lat="43.44164888315566" lon="10.952795180769954"><ele>602.8</ele><time>2026-04-18T12:03:39.927Z</time></trkpt><trkpt lat="43.441642870370664" lon="10.952916879009226"><ele>603.4</ele><time>2026-04-18T12:03:40.914Z</time></trkpt><trkpt lat="43.44165011022847" lon="10.953065020989252"><ele>604.0</ele><time>2026-04-18T12:03:41.965Z</time></trkpt><trkpt lat="43.441661822539366" lon="10.953226240592807"><ele>604.0</ele><time>2026-04-18T12:03:42.928Z</time></trkpt><trkpt lat="43.441674633394946" lon="10.95340187103897"><ele>604.0</ele><time>2026-04-18T12:03:43.917Z</time></trkpt><trkpt lat="43.44168593436287" lon="10.953592967852"><ele>604.0</ele><time>2026-04-18T12:03:44.92Z</time></trkpt><trkpt lat="43.44169781410198" lon="10.95379385170439"><ele>604.0</ele><time>2026-04-18T12:03:45.922Z</time></trkpt><trkpt lat="43.441709983248955" lon="10.953999629073982"><ele>604.0</ele><time>2026-04-18T12:03:46.938Z</time></trkpt><trkpt lat="43.441716625510395" lon="10.954203841611402"><ele>604.0</ele><time>2026-04-18T12:03:47.921Z</time></trkpt><trkpt lat="43.44170376541959" lon="10.954404857972701"><ele>604.0</ele><time>2026-04-18T12:03:48.926Z</time></trkpt><trkpt lat="43.44167394450198" lon="10.954615482879358"><ele>603.6666666666667</ele><time>2026-04-18T12:03:49.918Z</time></trkpt><trkpt lat="43.44164224589957" lon="10.954824900092692"><ele>603.3333333333334</ele><time>2026-04-18T12:03:50.945Z</time></trkpt><trkpt lat="43.441606580603555" lon="10.95502714685245"><ele>603.0</ele><time>2026-04-18T12:03:51.927Z</time></trkpt><trkpt lat="43.441567817755896" lon="10.95521852491935"><ele>602.5</ele><time>2026-04-18T12:03:52.926Z</time></trkpt><trkpt lat="43.441527959050326" lon="10.955400158121295"><ele>602.0</ele><time>2026-04-18T12:03:53.918Z</time></trkpt><trkpt lat="43.44148523955728" lon="10.95557217392422"><ele>601.5</ele><time>2026-04-18T12:03:54.937Z</time></trkpt><trkpt lat="43.441433831870825" lon="10.955742030466604"><ele>601.0</ele><time>2026-04-18T12:03:55.958Z</time></trkpt><trkpt lat="43.44137351873967" lon="10.955912024403014"><ele>600.3333333333334</ele><time>2026-04-18T12:03:57.182Z</time></trkpt><trkpt lat="43.44121451931586" lon="10.956246175768756"><ele>599.6666666666666</ele><time>2026-04-18T12:03:58.929Z</time></trkpt><trkpt lat="43.441115761272385" lon="10.956407226241515"><ele>599.0</ele><time>2026-04-18T12:03:59.926Z</time></trkpt><trkpt lat="43.44101145989959" lon="10.956572058032965"><ele>600.0</ele><time>2026-04-18T12:04:00.968Z</time></trkpt><trkpt lat="43.4409023142962" lon="10.956739224738458"><ele>601.0</ele><time>2026-04-18T12:04:01.998Z</time></trkpt><trkpt lat="43.440789124251985" lon="10.956908119895322"><ele>602.0</ele><time>2026-04-18T12:04:02.93Z</time></trkpt><trkpt lat="43.44067803516863" lon="10.957078391640767"><ele>602.0</ele><time>2026-04-18T12:04:03.942Z</time></trkpt><trkpt lat="43.44056763586543" lon="10.95724824620971"><ele>602.0</ele><time>2026-04-18T12:04:04.927Z</time></trkpt><trkpt lat="43.440457286241596" lon="10.95741820813706"><ele>602.0</ele><time>2026-04-18T12:04:05.919Z</time></trkpt><trkpt lat="43.4403460784835" lon="10.957596952984584"><ele>600.6666666666666</ele><time>2026-04-18T12:04:07.013Z</time></trkpt><trkpt lat="43.44023496269164" lon="10.957782104511907"><ele>599.3333333333334</ele><time>2026-04-18T12:04:07.942Z</time></trkpt><trkpt lat="43.440122326042626" lon="10.957969790510147"><ele>598.0</ele><time>2026-04-18T12:04:08.91Z</time></trkpt><trkpt lat="43.44000892849411" lon="10.958161600884186"><ele>598.0</ele><time>2026-04-18T12:04:09.924Z</time></trkpt><trkpt lat="43.4398946537333" lon="10.958356297138783"><ele>598.0</ele><time>2026-04-18T12:04:10.914Z</time></trkpt><trkpt lat="43.43977929165968" lon="10.958552844124817"><ele>598.0</ele><time>2026-04-18T12:04:11.925Z</time></trkpt><trkpt lat="43.439664013819566" lon="10.958751088630793"><ele>595.6666666666667</ele><time>2026-04-18T12:04:12.954Z</time></trkpt><trkpt lat="43.43954669965447" lon="10.958947624358991"><ele>593.3333333333334</ele><time>2026-04-18T12:04:13.931Z</time></trkpt><trkpt lat="43.439428622931665" lon="10.959144656545563"><ele>591.0</ele><time>2026-04-18T12:04:14.927Z</time></trkpt><trkpt lat="43.43931070525267" lon="10.959337651510422"><ele>590.6666666666666</ele><time>2026-04-18T12:04:15.923Z</time></trkpt><trkpt lat="43.43919388858117" lon="10.959527455362583"><ele>590.3333333333333</ele><time>2026-04-18T12:04:16.918Z</time></trkpt><trkpt lat="43.43907243254555" lon="10.959703209226912"><ele>590.0</ele><time>2026-04-18T12:04:17.913Z</time></trkpt><trkpt lat="43.43893783333333" lon="10.959873"><ele>590.0</ele><time>2026-04-18T12:04:18.924Z</time></trkpt><trkpt lat="43.438779333333336" lon="10.960012833333332"><ele>590.0</ele><time>2026-04-18T12:04:19.916Z</time></trkpt><trkpt lat="43.43861416666667" lon="10.960152166666667"><ele>590.0</ele><time>2026-04-18T12:04:20.916Z</time></trkpt><trkpt lat="43.43844766666666" lon="10.960293333333334"><ele>590.3333333333333</ele><time>2026-04-18T12:04:21.925Z</time></trkpt><trkpt lat="43.438281833333335" lon="10.960430833333332"><ele>590.6666666666666</ele><time>2026-04-18T12:04:22.918Z</time></trkpt><trkpt lat="43.43811516666666" lon="10.960560166666667"><ele>591.0</ele><time>2026-04-18T12:04:23.915Z</time></trkpt><trkpt lat="43.43795149999999" lon="10.960682833333331"><ele>590.3333333333334</ele><time>2026-04-18T12:04:24.935Z</time></trkpt><trkpt lat="43.4377905" lon="10.960792166666666"><ele>589.6666666666667</ele><time>2026-04-18T12:04:25.913Z</time></trkpt><trkpt lat="43.437632666666666" lon="10.960884833333333"><ele>589.0</ele><time>2026-04-18T12:04:26.914Z</time></trkpt><trkpt lat="43.437480333333326" lon="10.9609675"><ele>590.3333333333334</ele><time>2026-04-18T12:04:27.918Z</time></trkpt><trkpt lat="43.43733749999999" lon="10.961058333333336"><ele>591.6666666666666</ele><time>2026-04-18T12:04:28.921Z</time></trkpt><trkpt lat="43.437209333333335" lon="10.961174499999998"><ele>593.0</ele><time>2026-04-18T12:04:29.945Z</time></trkpt><trkpt lat="43.437098" lon="10.961315"><ele>591.25</ele><time>2026-04-18T12:04:30.922Z</time></trkpt><trkpt lat="43.437009833333335" lon="10.961478333333332"><ele>589.5</ele><time>2026-04-18T12:04:31.927Z</time></trkpt><trkpt lat="43.436929270183484" lon="10.961646842446612"><ele>587.75</ele><time>2026-04-18T12:04:32.918Z</time></trkpt><trkpt lat="43.43687242130497" lon="10.961834655600242"><ele>586.0</ele><time>2026-04-18T12:04:33.955Z</time></trkpt><trkpt lat="43.43683222170649" lon="10.962035436201067"><ele>586.0</ele><time>2026-04-18T12:04:34.927Z</time></trkpt><trkpt lat="43.43680110337679" lon="10.962234004767218"><ele>586.0</ele><time>2026-04-18T12:04:35.93Z</time></trkpt><trkpt lat="43.43676662474314" lon="10.96242665896372"><ele>586.0</ele><time>2026-04-18T12:04:36.917Z</time></trkpt><trkpt lat="43.436721999999996" lon="10.962610500000002"><ele>586.0</ele><time>2026-04-18T12:04:37.933Z</time></trkpt><trkpt lat="43.4366355" lon="10.962759000000002"><ele>586.3333333333334</ele><time>2026-04-18T12:04:38.917Z</time></trkpt><trkpt lat="43.43647266666667" lon="10.962925833333335"><ele>586.6666666666666</ele><time>2026-04-18T12:04:39.923Z</time></trkpt><trkpt lat="43.43635916666667" lon="10.963022666666665"><ele>587.0</ele><time>2026-04-18T12:04:40.915Z</time></trkpt><trkpt lat="43.43625016666667" lon="10.963126166666665"><ele>586.75</ele><time>2026-04-18T12:04:41.927Z</time></trkpt><trkpt lat="43.43619733333333" lon="10.963182666666667"><ele>586.5</ele><time>2026-04-18T12:04:42.926Z</time></trkpt><trkpt lat="43.43609483333333" lon="10.9633095"><ele>586.25</ele><time>2026-04-18T12:04:43.915Z</time></trkpt><trkpt lat="43.43599583333333" lon="10.96345"><ele>586.0</ele><time>2026-04-18T12:04:44.926Z</time></trkpt><trkpt lat="43.435903333333336" lon="10.963602500000002"><ele>586.0</ele><time>2026-04-18T12:04:45.918Z</time></trkpt><trkpt lat="43.435821000000004" lon="10.963767166666665"><ele>586.0</ele><time>2026-04-18T12:04:46.962Z</time></trkpt><trkpt lat="43.43575616666667" lon="10.963945833333332"><ele>586.0</ele><time>2026-04-18T12:04:47.91Z</time></trkpt><trkpt lat="43.4357015" lon="10.964130666666664"><ele>586.0</ele><time>2026-04-18T12:04:48.925Z</time></trkpt><trkpt lat="43.43564316666666" lon="10.964312833333333"><ele>584.6666666666667</ele><time>2026-04-18T12:04:49.924Z</time></trkpt><trkpt lat="43.43556783333334" lon="10.964483333333332"><ele>583.3333333333334</ele><time>2026-04-18T12:04:50.95Z</time></trkpt><trkpt lat="43.43543133333333" lon="10.964721833333334"><ele>582.0</ele><time>2026-04-18T12:04:51.923Z</time></trkpt><trkpt lat="43.43534016666667" lon="10.964885499999998"><ele>580.0</ele><time>2026-04-18T12:04:52.927Z</time></trkpt><trkpt lat="43.43524949999999" lon="10.965053833333332"><ele>578.0</ele><time>2026-04-18T12:04:53.929Z</time></trkpt><trkpt lat="43.43516983333334" lon="10.965233333333332"><ele>576.0</ele><time>2026-04-18T12:04:54.948Z</time></trkpt><trkpt lat="43.43509649999999" lon="10.965416166666667"><ele>576.0</ele><time>2026-04-18T12:04:55.924Z</time></trkpt><trkpt lat="43.4350225" lon="10.965594833333334"><ele>576.0</ele><time>2026-04-18T12:04:56.911Z</time></trkpt><trkpt lat="43.43492916666667" lon="10.9657575"><ele>576.0</ele><time>2026-04-18T12:04:57.917Z</time></trkpt><trkpt lat="43.4348185" lon="10.965902333333334"><ele>573.3333333333334</ele><time>2026-04-18T12:04:58.931Z</time></trkpt><trkpt lat="43.43470000000001" lon="10.966036166666667"><ele>570.6666666666667</ele><time>2026-04-18T12:04:59.952Z</time></trkpt><trkpt lat="43.434585500000004" lon="10.966178999999999"><ele>568.0</ele><time>2026-04-18T12:05:00.926Z</time></trkpt><trkpt lat="43.43448433333333" lon="10.9663435"><ele>568.0</ele><time>2026-04-18T12:05:01.918Z</time></trkpt><trkpt lat="43.43438716666666" lon="10.966518666666664"><ele>568.0</ele><time>2026-04-18T12:05:02.918Z</time></trkpt><trkpt lat="43.43428983333333" lon="10.966696333333333"><ele>568.0</ele><time>2026-04-18T12:05:04.058Z</time></trkpt><trkpt lat="43.434175333333336" lon="10.966855333333335"><ele>566.3333333333334</ele><time>2026-04-18T12:05:04.93Z</time></trkpt><trkpt lat="43.434048" lon="10.966995333333333"><ele>564.6666666666666</ele><time>2026-04-18T12:05:05.912Z</time></trkpt><trkpt lat="43.4339065" lon="10.967112666666665"><ele>563.0</ele><time>2026-04-18T12:05:06.926Z</time></trkpt><trkpt lat="43.43375516666667" lon="10.967221166666665"><ele>562.3333333333333</ele><time>2026-04-18T12:05:07.943Z</time></trkpt><trkpt lat="43.433597999999996" lon="10.967329166666666"><ele>561.6666666666666</ele><time>2026-04-18T12:05:08.93Z</time></trkpt><trkpt lat="43.433442500000005" lon="10.967437500000003"><ele>561.0</ele><time>2026-04-18T12:05:09.928Z</time></trkpt><trkpt lat="43.433293500000005" lon="10.967545833333334"><ele>560.75</ele><time>2026-04-18T12:05:10.927Z</time></trkpt><trkpt lat="43.433155333333325" lon="10.967649666666667"><ele>560.5</ele><time>2026-04-18T12:05:11.919Z</time></trkpt><trkpt lat="43.43302116666666" lon="10.967735666666666"><ele>560.25</ele><time>2026-04-18T12:05:12.915Z</time></trkpt><trkpt lat="43.432954833333326" lon="10.967766833333332"><ele>560.0</ele><time>2026-04-18T12:05:13.929Z</time></trkpt><trkpt lat="43.432761666666664" lon="10.9678295"><ele>560.0</ele><time>2026-04-18T12:05:14.912Z</time></trkpt><trkpt lat="43.432642" lon="10.9678805"><ele>560.0</ele><time>2026-04-18T12:05:15.928Z</time></trkpt><trkpt lat="43.43253833333333" lon="10.967973"><ele>560.0</ele><time>2026-04-18T12:05:16.947Z</time></trkpt><trkpt lat="43.43243942747631" lon="10.96807850410737"><ele>560.0</ele><time>2026-04-18T12:05:17.914Z</time></trkpt><trkpt lat="43.43235852011101" lon="10.968210100254417"><ele>560.0</ele><time>2026-04-18T12:05:18.919Z</time></trkpt><trkpt lat="43.43228800000001" lon="10.9683445"><ele>560.0</ele><time>2026-04-18T12:05:19.931Z</time></trkpt><trkpt lat="43.4321865" lon="10.9684225"><ele>560.0</ele><time>2026-04-18T12:05:20.921Z</time></trkpt><trkpt lat="43.43207266666667" lon="10.968459499999998"><ele>560.0</ele><time>2026-04-18T12:05:21.914Z</time></trkpt><trkpt lat="43.431950166666674" lon="10.968458833333335"><ele>558.25</ele><time>2026-04-18T12:05:22.923Z</time></trkpt><trkpt lat="43.4318855" lon="10.968450666666667"><ele>556.5</ele><time>2026-04-18T12:05:23.919Z</time></trkpt><trkpt lat="43.431748166666665" lon="10.968419833333334"><ele>554.75</ele><time>2026-04-18T12:05:24.943Z</time></trkpt><trkpt lat="43.43160566666667" lon="10.968375666666669"><ele>553.0</ele><time>2026-04-18T12:05:25.922Z</time></trkpt><trkpt lat="43.43139483333332" lon="10.968274666666666"><ele>553.0</ele><time>2026-04-18T12:05:26.92Z</time></trkpt><trkpt lat="43.43132633333333" lon="10.968233000000001"><ele>553.0</ele><time>2026-04-18T12:05:27.916Z</time></trkpt><trkpt lat="43.431189333333336" lon="10.9681525"><ele>553.0</ele><time>2026-04-18T12:05:28.914Z</time></trkpt><trkpt lat="43.4310495" lon="10.968095000000002"><ele>553.0</ele><time>2026-04-18T12:05:29.948Z</time></trkpt><trkpt lat="43.43091750000001" lon="10.968063500000001"><ele>551.75</ele><time>2026-04-18T12:05:30.92Z</time></trkpt><trkpt lat="43.430794166666665" lon="10.968044333333333"><ele>550.5</ele><time>2026-04-18T12:05:31.915Z</time></trkpt><trkpt lat="43.43062083333333" lon="10.968042500000003"><ele>549.25</ele><time>2026-04-18T12:05:33.03Z</time></trkpt><trkpt lat="43.43050816666667" lon="10.968079666666666"><ele>548.0</ele><time>2026-04-18T12:05:33.959Z</time></trkpt><trkpt lat="43.43039816666666" lon="10.968155666666666"><ele>545.5</ele><time>2026-04-18T12:05:34.91Z</time></trkpt><trkpt lat="43.430289166666675" lon="10.968260666666668"><ele>543.0</ele><time>2026-04-18T12:05:35.923Z</time></trkpt><trkpt lat="43.43017783333333" lon="10.968382166666666"><ele>540.5</ele><time>2026-04-18T12:05:36.922Z</time></trkpt><trkpt lat="43.430122" lon="10.968445166666667"><ele>538.0</ele><time>2026-04-18T12:05:37.947Z</time></trkpt><trkpt lat="43.43000816666666" lon="10.968571666666667"><ele>538.0</ele><time>2026-04-18T12:05:38.927Z</time></trkpt><trkpt lat="43.42989466666666" lon="10.968704333333335"><ele>538.0</ele><time>2026-04-18T12:05:39.924Z</time></trkpt><trkpt lat="43.42977164345032" lon="10.968827306594735"><ele>538.0</ele><time>2026-04-18T12:05:41.018Z</time></trkpt><trkpt lat="43.429667442859134" lon="10.969004011460362"><ele>535.6666666666667</ele><time>2026-04-18T12:05:41.943Z</time></trkpt><trkpt lat="43.429586666666665" lon="10.969199666666668"><ele>533.3333333333334</ele><time>2026-04-18T12:05:42.916Z</time></trkpt><trkpt lat="43.429499166666666" lon="10.9693895"><ele>531.0</ele><time>2026-04-18T12:05:43.916Z</time></trkpt><trkpt lat="43.4293986708621" lon="10.969560709885293"><ele>531.0</ele><time>2026-04-18T12:05:44.925Z</time></trkpt><trkpt lat="43.42931706874861" lon="10.969725859614774"><ele>531.0</ele><time>2026-04-18T12:05:45.929Z</time></trkpt><trkpt lat="43.42925466666667" lon="10.969885"><ele>531.0</ele><time>2026-04-18T12:05:47.062Z</time></trkpt><trkpt lat="43.42916866666666" lon="10.970003833333331"><ele>531.0</ele><time>2026-04-18T12:05:47.91Z</time></trkpt><trkpt lat="43.42906916666668" lon="10.970094333333336"><ele>531.25</ele><time>2026-04-18T12:05:48.911Z</time></trkpt><trkpt lat="43.428955499999994" lon="10.970155666666669"><ele>531.5</ele><time>2026-04-18T12:05:49.937Z</time></trkpt><trkpt lat="43.428828" lon="10.970196500000002"><ele>531.75</ele><time>2026-04-18T12:05:50.93Z</time></trkpt><trkpt lat="43.428689" lon="10.970228666666666"><ele>532.0</ele><time>2026-04-18T12:05:51.923Z</time></trkpt><trkpt lat="43.42854533333334" lon="10.970256500000001"><ele>531.0</ele><time>2026-04-18T12:05:52.916Z</time></trkpt><trkpt lat="43.428413666666664" lon="10.9702855"><ele>530.0</ele><time>2026-04-18T12:05:53.925Z</time></trkpt><trkpt lat="43.4283055" lon="10.970319166666664"><ele>529.0</ele><time>2026-04-18T12:05:54.951Z</time></trkpt><trkpt lat="43.428218333333334" lon="10.970363666666666"><ele>528.0</ele><time>2026-04-18T12:05:55.914Z</time></trkpt><trkpt lat="43.42815116666667" lon="10.970433166666666"><ele>527.0</ele><time>2026-04-18T12:05:56.924Z</time></trkpt><trkpt lat="43.42809080912784" lon="10.970519715716271"><ele>527.0</ele><time>2026-04-18T12:05:57.93Z</time></trkpt><trkpt lat="43.42806488711211" lon="10.970642006799348"><ele>527.0</ele><time>2026-04-18T12:05:58.932Z</time></trkpt><trkpt lat="43.428054546220494" lon="10.970788619717611"><ele>527.0</ele><time>2026-04-18T12:05:59.914Z</time></trkpt><trkpt lat="43.42806090736753" lon="10.97095367256976"><ele>527.0</ele><time>2026-04-18T12:06:00.929Z</time></trkpt><trkpt lat="43.4280701466894" lon="10.971128045287049"><ele>527.0</ele><time>2026-04-18T12:06:01.925Z</time></trkpt><trkpt lat="43.42807683223077" lon="10.971307415306603"><ele>526.25</ele><time>2026-04-18T12:06:02.934Z</time></trkpt><trkpt lat="43.42807906966873" lon="10.971478320349435"><ele>525.5</ele><time>2026-04-18T12:06:03.95Z</time></trkpt><trkpt lat="43.428050931373114" lon="10.971653221970577"><ele>524.75</ele><time>2026-04-18T12:06:04.915Z</time></trkpt><trkpt lat="43.42799366666666" lon="10.971825166666669"><ele>524.0</ele><time>2026-04-18T12:06:06.005Z</time></trkpt><trkpt lat="43.427903" lon="10.971982666666667"><ele>520.3333333333333</ele><time>2026-04-18T12:06:07.022Z</time></trkpt><trkpt lat="43.42780883333333" lon="10.972150166666665"><ele>516.6666666666666</ele><time>2026-04-18T12:06:07.961Z</time></trkpt><trkpt lat="43.427710833333336" lon="10.972328999999998"><ele>513.0</ele><time>2026-04-18T12:06:08.922Z</time></trkpt><trkpt lat="43.427598999999994" lon="10.972508999999999"><ele>512.6666666666666</ele><time>2026-04-18T12:06:09.92Z</time></trkpt><trkpt lat="43.42747616666667" lon="10.972692166666665"><ele>512.3333333333333</ele><time>2026-04-18T12:06:10.916Z</time></trkpt><trkpt lat="43.4273445" lon="10.9728755"><ele>512.0</ele><time>2026-04-18T12:06:11.956Z</time></trkpt><trkpt lat="43.42720500000001" lon="10.973058499999999"><ele>511.66666666666663</ele><time>2026-04-18T12:06:12.926Z</time></trkpt><trkpt lat="43.42705933333333" lon="10.973237999999998"><ele>511.33333333333337</ele><time>2026-04-18T12:06:13.922Z</time></trkpt><trkpt lat="43.42691116666666" lon="10.973397833333335"><ele>511.0</ele><time>2026-04-18T12:06:14.927Z</time></trkpt><trkpt lat="43.42675933333334" lon="10.9735275"><ele>510.6666666666667</ele><time>2026-04-18T12:06:15.946Z</time></trkpt><trkpt lat="43.42659783333334" lon="10.9736185"><ele>510.33333333333337</ele><time>2026-04-18T12:06:16.918Z</time></trkpt><trkpt lat="43.42643066666666" lon="10.973674666666666"><ele>510.0</ele><time>2026-04-18T12:06:17.908Z</time></trkpt><trkpt lat="43.4262685" lon="10.973702666666668"><ele>509.5</ele><time>2026-04-18T12:06:18.931Z</time></trkpt><trkpt lat="43.42612416666665" lon="10.973698333333335"><ele>509.0</ele><time>2026-04-18T12:06:19.928Z</time></trkpt><trkpt lat="43.42600833333333" lon="10.9736525"><ele>508.5</ele><time>2026-04-18T12:06:20.926Z</time></trkpt><trkpt lat="43.425914" lon="10.973573166666664"><ele>508.0</ele><time>2026-04-18T12:06:21.919Z</time></trkpt><trkpt lat="43.42583549999999" lon="10.973471666666669"><ele>508.0</ele><time>2026-04-18T12:06:22.927Z</time></trkpt><trkpt lat="43.42575766666667" lon="10.973376833333333"><ele>508.0</ele><time>2026-04-18T12:06:23.931Z</time></trkpt><trkpt lat="43.425670000000004" lon="10.973306666666668"><ele>508.0</ele><time>2026-04-18T12:06:24.943Z</time></trkpt><trkpt lat="43.425516833333326" lon="10.973250666666669"><ele>508.0</ele><time>2026-04-18T12:06:25.91Z</time></trkpt><trkpt lat="43.42540666666667" lon="10.9732395"><ele>505.5</ele><time>2026-04-18T12:06:26.925Z</time></trkpt><trkpt lat="43.425254499999994" lon="10.973284000000001"><ele>503.0</ele><time>2026-04-18T12:06:28.947Z</time></trkpt><trkpt lat="43.425124075721" lon="10.973402739026156"><ele>500.5</ele><time>2026-04-18T12:06:29.964Z</time></trkpt><trkpt lat="43.42506715146273" lon="10.973536562205593"><ele>498.0</ele><time>2026-04-18T12:06:30.928Z</time></trkpt><trkpt lat="43.42504472827129" lon="10.973694574587627"><ele>498.0</ele><time>2026-04-18T12:06:31.926Z</time></trkpt><trkpt lat="43.42501574302546" lon="10.974032512761086"><ele>498.0</ele><time>2026-04-18T12:06:33.914Z</time></trkpt><trkpt lat="43.42500735265999" lon="10.97411859848621"><ele>498.0</ele><time>2026-04-18T12:06:34.979Z</time></trkpt><trkpt lat="43.42498666666667" lon="10.974293333333334"><ele>498.0</ele><time>2026-04-18T12:06:35.922Z</time></trkpt><trkpt lat="43.42491179808686" lon="10.974460629560216"><ele>496.66666666666663</ele><time>2026-04-18T12:06:36.933Z</time></trkpt><trkpt lat="43.42485666666666" lon="10.974654333333335"><ele>495.3333333333333</ele><time>2026-04-18T12:06:37.919Z</time></trkpt><trkpt lat="43.424747333333336" lon="10.974900500000002"><ele>494.0</ele><time>2026-04-18T12:06:38.92Z</time></trkpt><trkpt lat="43.42466566666667" lon="10.975032666666667"><ele>493.75</ele><time>2026-04-18T12:06:39.921Z</time></trkpt><trkpt lat="43.42456650000001" lon="10.975139333333335"><ele>493.5</ele><time>2026-04-18T12:06:40.913Z</time></trkpt><trkpt lat="43.42445133333334" lon="10.975223333333334"><ele>493.25</ele><time>2026-04-18T12:06:41.947Z</time></trkpt><trkpt lat="43.42432333333333" lon="10.975295666666668"><ele>493.0</ele><time>2026-04-18T12:06:42.92Z</time></trkpt><trkpt lat="43.42418483333332" lon="10.975366000000001"><ele>493.0</ele><time>2026-04-18T12:06:43.914Z</time></trkpt><trkpt lat="43.424039166666674" lon="10.975435000000001"><ele>493.0</ele><time>2026-04-18T12:06:44.919Z</time></trkpt><trkpt lat="43.42389316666666" lon="10.975501833333333"><ele>493.0</ele><time>2026-04-18T12:06:45.94Z</time></trkpt><trkpt lat="43.42375383333333" lon="10.975580833333334"><ele>493.25</ele><time>2026-04-18T12:06:46.927Z</time></trkpt><trkpt lat="43.42362249999999" lon="10.975675333333333"><ele>493.5</ele><time>2026-04-18T12:06:47.919Z</time></trkpt><trkpt lat="43.42355716666666" lon="10.975726999999997"><ele>493.75</ele><time>2026-04-18T12:06:48.916Z</time></trkpt><trkpt lat="43.42342416666667" lon="10.975835500000002"><ele>494.0</ele><time>2026-04-18T12:06:49.929Z</time></trkpt><trkpt lat="43.42328633333333" lon="10.975944666666665"><ele>494.66666666666663</ele><time>2026-04-18T12:06:50.921Z</time></trkpt><trkpt lat="43.42314283333333" lon="10.976043833333332"><ele>495.33333333333337</ele><time>2026-04-18T12:06:51.92Z</time></trkpt><trkpt lat="43.42299733333333" lon="10.976128666666668"><ele>496.0</ele><time>2026-04-18T12:06:52.915Z</time></trkpt><trkpt lat="43.42285683333333" lon="10.976194833333333"><ele>496.0</ele><time>2026-04-18T12:06:53.927Z</time></trkpt><trkpt lat="43.42272416666667" lon="10.976232666666666"><ele>496.0</ele><time>2026-04-18T12:06:54.913Z</time></trkpt><trkpt lat="43.422541" lon="10.9762325"><ele>496.0</ele><time>2026-04-18T12:06:55.931Z</time></trkpt><trkpt lat="43.422429" lon="10.976196166666666"><ele>496.0</ele><time>2026-04-18T12:06:57.003Z</time></trkpt><trkpt lat="43.42228116666667" lon="10.9760765"><ele>496.0</ele><time>2026-04-18T12:06:58.939Z</time></trkpt><trkpt lat="43.422149999999995" lon="10.975920833333332"><ele>496.0</ele><time>2026-04-18T12:06:59.93Z</time></trkpt><trkpt lat="43.42201983333332" lon="10.975797666666665"><ele>496.0</ele><time>2026-04-18T12:07:01.925Z</time></trkpt><trkpt lat="43.421918999999995" lon="10.975757333333336"><ele>496.0</ele><time>2026-04-18T12:07:02.93Z</time></trkpt><trkpt lat="43.4218085" lon="10.975752666666665"><ele>498.75</ele><time>2026-04-18T12:07:03.96Z</time></trkpt><trkpt lat="43.421632" lon="10.975800833333336"><ele>501.5</ele><time>2026-04-18T12:07:04.989Z</time></trkpt><trkpt lat="43.421505833333335" lon="10.975840666666667"><ele>504.25</ele><time>2026-04-18T12:07:05.925Z</time></trkpt><trkpt lat="43.421372500000004" lon="10.975872166666665"><ele>507.0</ele><time>2026-04-18T12:07:06.932Z</time></trkpt><trkpt lat="43.42130433333333" lon="10.975879333333333"><ele>508.66666666666663</ele><time>2026-04-18T12:07:07.972Z</time></trkpt><trkpt lat="43.421027333333335" lon="10.975838"><ele>510.3333333333333</ele><time>2026-04-18T12:07:09.916Z</time></trkpt><trkpt lat="43.42088766666668" lon="10.975788833333336"><ele>512.0</ele><time>2026-04-18T12:07:10.926Z</time></trkpt><trkpt lat="43.42074783333334" lon="10.975738833333331"><ele>512.0</ele><time>2026-04-18T12:07:11.918Z</time></trkpt><trkpt lat="43.42052966666667" lon="10.975696833333332"><ele>512.0</ele><time>2026-04-18T12:07:12.918Z</time></trkpt><trkpt lat="43.420454500000005" lon="10.975692666666665"><ele>512.0</ele><time>2026-04-18T12:07:13.915Z</time></trkpt><trkpt lat="43.42023283333333" lon="10.975709333333334"><ele>513.6666666666666</ele><time>2026-04-18T12:07:14.929Z</time></trkpt><trkpt lat="43.420159500000004" lon="10.975719833333335"><ele>515.3333333333334</ele><time>2026-04-18T12:07:15.955Z</time></trkpt><trkpt lat="43.42001216666666" lon="10.9757495"><ele>517.0</ele><time>2026-04-18T12:07:16.922Z</time></trkpt><trkpt lat="43.41978916666667" lon="10.975823500000002"><ele>517.5</ele><time>2026-04-18T12:07:17.992Z</time></trkpt><trkpt lat="43.419712499999996" lon="10.975857166666668"><ele>518.0</ele><time>2026-04-18T12:07:18.924Z</time></trkpt><trkpt lat="43.4194795" lon="10.975975000000002"><ele>518.5</ele><time>2026-04-18T12:07:19.925Z</time></trkpt><trkpt lat="43.41940233333333" lon="10.976017"><ele>519.0</ele><time>2026-04-18T12:07:20.926Z</time></trkpt><trkpt lat="43.419252333333326" lon="10.976093833333334"><ele>519.0</ele><time>2026-04-18T12:07:21.924Z</time></trkpt><trkpt lat="43.419113333333335" lon="10.976167666666667"><ele>519.0</ele><time>2026-04-18T12:07:22.921Z</time></trkpt><trkpt lat="43.41892983333334" lon="10.976251333333334"><ele>519.0</ele><time>2026-04-18T12:07:23.942Z</time></trkpt><trkpt lat="43.418815" lon="10.976266999999998"><ele>520.0</ele><time>2026-04-18T12:07:24.926Z</time></trkpt><trkpt lat="43.41871133333334" lon="10.976231666666669"><ele>521.0</ele><time>2026-04-18T12:07:25.914Z</time></trkpt><trkpt lat="43.418624" lon="10.976155666666667"><ele>522.0</ele><time>2026-04-18T12:07:26.92Z</time></trkpt><trkpt lat="43.418540666666665" lon="10.9760735"><ele>523.0</ele><time>2026-04-18T12:07:27.928Z</time></trkpt><trkpt lat="43.41845283333333" lon="10.976012833333334"><ele>524.0</ele><time>2026-04-18T12:07:28.947Z</time></trkpt><trkpt lat="43.41836383333332" lon="10.975976833333334"><ele>524.0</ele><time>2026-04-18T12:07:29.918Z</time></trkpt><trkpt lat="43.41827433333333" lon="10.975963666666667"><ele>524.0</ele><time>2026-04-18T12:07:30.916Z</time></trkpt><trkpt lat="43.41818100000001" lon="10.975970666666667"><ele>524.0</ele><time>2026-04-18T12:07:31.922Z</time></trkpt><trkpt lat="43.418083666666675" lon="10.975991666666669"><ele>524.0</ele><time>2026-04-18T12:07:32.939Z</time></trkpt><trkpt lat="43.4179825" lon="10.976019166666667"><ele>524.0</ele><time>2026-04-18T12:07:33.921Z</time></trkpt><trkpt lat="43.41787983333334" lon="10.976043499999998"><ele>524.75</ele><time>2026-04-18T12:07:34.915Z</time></trkpt><trkpt lat="43.417779833333334" lon="10.976055166666667"><ele>525.5</ele><time>2026-04-18T12:07:35.918Z</time></trkpt><trkpt lat="43.41760166666666" lon="10.976086333333335"><ele>526.25</ele><time>2026-04-18T12:07:37.915Z</time></trkpt><trkpt lat="43.4175215" lon="10.976125833333333"><ele>527.0</ele><time>2026-04-18T12:07:38.912Z</time></trkpt><trkpt lat="43.4174455" lon="10.976181"><ele>527.0</ele><time>2026-04-18T12:07:39.912Z</time></trkpt><trkpt lat="43.41737249999999" lon="10.976249"><ele>527.0</ele><time>2026-04-18T12:07:40.927Z</time></trkpt><trkpt lat="43.417291999999996" lon="10.9763015"><ele>527.0</ele><time>2026-04-18T12:07:41.956Z</time></trkpt><trkpt lat="43.41720133333334" lon="10.976322"><ele>527.0</ele><time>2026-04-18T12:07:42.91Z</time></trkpt><trkpt lat="43.4170085" lon="10.9762565"><ele>526.4</ele><time>2026-04-18T12:07:44.919Z</time></trkpt><trkpt lat="43.416907666666674" lon="10.976215833333333"><ele>525.8000000000001</ele><time>2026-04-18T12:07:45.951Z</time></trkpt><trkpt lat="43.416802666666676" lon="10.976199333333334"><ele>525.2</ele><time>2026-04-18T12:07:46.911Z</time></trkpt><trkpt lat="43.416698333333336" lon="10.97620616666667"><ele>524.6</ele><time>2026-04-18T12:07:47.913Z</time></trkpt><trkpt lat="43.416597" lon="10.9762365"><ele>524.0</ele><time>2026-04-18T12:07:48.93Z</time></trkpt><trkpt lat="43.41650133333332" lon="10.976287666666668"><ele>524.0</ele><time>2026-04-18T12:07:49.92Z</time></trkpt><trkpt lat="43.41641483333333" lon="10.976344500000002"><ele>524.0</ele><time>2026-04-18T12:07:50.917Z</time></trkpt><trkpt lat="43.41634283333333" lon="10.976416166666668"><ele>524.0</ele><time>2026-04-18T12:07:51.915Z</time></trkpt><trkpt lat="43.4162905" lon="10.976515"><ele>524.0</ele><time>2026-04-18T12:07:52.916Z</time></trkpt><trkpt lat="43.416251166666676" lon="10.976628666666667"><ele>524.0</ele><time>2026-04-18T12:07:53.94Z</time></trkpt><trkpt lat="43.41620241782912" lon="10.976740040240745"><ele>524.5</ele><time>2026-04-18T12:07:54.96Z</time></trkpt><trkpt lat="43.41616918053041" lon="10.976854443195279"><ele>525.0</ele><time>2026-04-18T12:07:55.917Z</time></trkpt><trkpt lat="43.41612958621105" lon="10.976988836002809"><ele>525.5</ele><time>2026-04-18T12:07:57.934Z</time></trkpt><trkpt lat="43.41610383333334" lon="10.977083833333333"><ele>526.0</ele><time>2026-04-18T12:07:59.912Z</time></trkpt><trkpt lat="43.416036500000004" lon="10.977075333333335"><ele>526.5</ele><time>2026-04-18T12:08:03.926Z</time></trkpt><trkpt lat="43.41608514006443" lon="10.976971314185281"><ele>527.0</ele><time>2026-04-18T12:08:17.936Z</time></trkpt><trkpt lat="43.416096" lon="10.976818"><ele>527.0</ele><time>2026-04-18T12:08:19.944Z</time></trkpt><trkpt lat="43.416111" lon="10.976724333333333"><ele>527.0</ele><time>2026-04-18T12:08:20.923Z</time></trkpt><trkpt lat="43.4161450335867" lon="10.976626140281574"><ele>527.0</ele><time>2026-04-18T12:08:21.922Z</time></trkpt><trkpt lat="43.41616508250092" lon="10.976518723648397"><ele>527.0</ele><time>2026-04-18T12:08:22.932Z</time></trkpt><trkpt lat="43.41618435185925" lon="10.976411274967676"><ele>527.0</ele><time>2026-04-18T12:08:23.938Z</time></trkpt><trkpt lat="43.41621385914845" lon="10.976312481093338"><ele>527.0</ele><time>2026-04-18T12:08:24.916Z</time></trkpt><trkpt lat="43.41625407379677" lon="10.976211603007103"><ele>526.4</ele><time>2026-04-18T12:08:25.925Z</time></trkpt><trkpt lat="43.4163022450243" lon="10.976109453794578"><ele>525.8000000000001</ele><time>2026-04-18T12:08:26.924Z</time></trkpt><trkpt lat="43.41635959471885" lon="10.976008224707478"><ele>525.2</ele><time>2026-04-18T12:08:27.918Z</time></trkpt><trkpt lat="43.41642305033818" lon="10.975912125074794"><ele>524.6</ele><time>2026-04-18T12:08:28.928Z</time></trkpt><trkpt lat="43.41649807791817" lon="10.975825449896346"><ele>524.0</ele><time>2026-04-18T12:08:29.921Z</time></trkpt><trkpt lat="43.416583876671986" lon="10.97575200224891"><ele>521.4</ele><time>2026-04-18T12:08:30.924Z</time></trkpt><trkpt lat="43.41668059002888" lon="10.975692035006263"><ele>518.8</ele><time>2026-04-18T12:08:31.915Z</time></trkpt><trkpt lat="43.41678001100323" lon="10.97564234466039"><ele>516.2</ele><time>2026-04-18T12:08:32.947Z</time></trkpt><trkpt lat="43.41687083333333" lon="10.975591166666666"><ele>513.6</ele><time>2026-04-18T12:08:33.924Z</time></trkpt><trkpt lat="43.41696166666668" lon="10.975567000000002"><ele>511.0</ele><time>2026-04-18T12:08:34.927Z</time></trkpt><trkpt lat="43.41705085732691" lon="10.97556318481124"><ele>511.0</ele><time>2026-04-18T12:08:35.92Z</time></trkpt><trkpt lat="43.41712166666666" lon="10.9754985"><ele>511.0</ele><time>2026-04-18T12:08:36.914Z</time></trkpt><trkpt lat="43.41725433333333" lon="10.975346666666667"><ele>511.0</ele><time>2026-04-18T12:08:38.925Z</time></trkpt><trkpt lat="43.41732533333334" lon="10.975264000000001"><ele>511.0</ele><time>2026-04-18T12:08:39.923Z</time></trkpt><trkpt lat="43.41739933333333" lon="10.975173666666667"><ele>511.0</ele><time>2026-04-18T12:08:40.949Z</time></trkpt><trkpt lat="43.41747866666666" lon="10.9750845"><ele>508.83333333333337</ele><time>2026-04-18T12:08:41.962Z</time></trkpt><trkpt lat="43.417553" lon="10.974995333333334"><ele>506.6666666666667</ele><time>2026-04-18T12:08:42.921Z</time></trkpt><trkpt lat="43.41761933333334" lon="10.974908000000001"><ele>504.5</ele><time>2026-04-18T12:08:43.916Z</time></trkpt><trkpt lat="43.417675666666675" lon="10.974831333333334"><ele>502.33333333333337</ele><time>2026-04-18T12:08:44.938Z</time></trkpt><trkpt lat="43.417716166666665" lon="10.974757166666665"><ele>500.1666666666667</ele><time>2026-04-18T12:08:45.955Z</time></trkpt><trkpt lat="43.41773433333333" lon="10.9746635"><ele>498.0</ele><time>2026-04-18T12:08:46.928Z</time></trkpt><trkpt lat="43.41774737409456" lon="10.974549286260409"><ele>498.0</ele><time>2026-04-18T12:08:47.922Z</time></trkpt><trkpt lat="43.417657375233674" lon="10.974288955498725"><ele>498.0</ele><time>2026-04-18T12:08:49.94Z</time></trkpt><trkpt lat="43.41751694327533" lon="10.97399786081599"><ele>495.0</ele><time>2026-04-18T12:08:51.92Z</time></trkpt><trkpt lat="43.41744568728724" lon="10.973844752330406"><ele>492.0</ele><time>2026-04-18T12:08:52.922Z</time></trkpt><trkpt lat="43.41737390878169" lon="10.973688962134643"><ele>489.0</ele><time>2026-04-18T12:08:53.939Z</time></trkpt><trkpt lat="43.41729815953605" lon="10.973523950157878"><ele>486.0</ele><time>2026-04-18T12:08:54.953Z</time></trkpt><trkpt lat="43.41722333992401" lon="10.973358728279432"><ele>483.5</ele><time>2026-04-18T12:08:55.924Z</time></trkpt><trkpt lat="43.41713533333333" lon="10.973199166666667"><ele>481.0</ele><time>2026-04-18T12:08:57.02Z</time></trkpt><trkpt lat="43.41707083333334" lon="10.973010833333335"><ele>478.5</ele><time>2026-04-18T12:08:57.944Z</time></trkpt><trkpt lat="43.41701266666667" lon="10.972819666666666"><ele>476.0</ele><time>2026-04-18T12:08:58.956Z</time></trkpt><trkpt lat="43.416966" lon="10.972627166666665"><ele>475.75</ele><time>2026-04-18T12:08:59.912Z</time></trkpt><trkpt lat="43.41691433333333" lon="10.972439666666666"><ele>475.5</ele><time>2026-04-18T12:09:00.924Z</time></trkpt><trkpt lat="43.416889499999996" lon="10.972346666666665"><ele>475.25</ele><time>2026-04-18T12:09:01.933Z</time></trkpt><trkpt lat="43.416838000000006" lon="10.972162166666665"><ele>475.0</ele><time>2026-04-18T12:09:02.944Z</time></trkpt><trkpt lat="43.416791499999995" lon="10.971978833333333"><ele>475.0</ele><time>2026-04-18T12:09:03.923Z</time></trkpt><trkpt lat="43.416747" lon="10.971794499999998"><ele>475.0</ele><time>2026-04-18T12:09:04.929Z</time></trkpt><trkpt lat="43.416688666666666" lon="10.971618999999997"><ele>475.0</ele><time>2026-04-18T12:09:05.921Z</time></trkpt><trkpt lat="43.41659733333332" lon="10.971367333333335"><ele>475.75</ele><time>2026-04-18T12:09:06.943Z</time></trkpt><trkpt lat="43.41656333333334" lon="10.971286666666666"><ele>476.5</ele><time>2026-04-18T12:09:07.921Z</time></trkpt><trkpt lat="43.416486500000005" lon="10.971129166666667"><ele>477.25</ele><time>2026-04-18T12:09:08.928Z</time></trkpt><trkpt lat="43.416364333333334" lon="10.970891666666667"><ele>478.0</ele><time>2026-04-18T12:09:09.925Z</time></trkpt><trkpt lat="43.41627816666667" lon="10.970728666666664"><ele>479.33333333333337</ele><time>2026-04-18T12:09:10.943Z</time></trkpt><trkpt lat="43.41618683333333" lon="10.970565166666667"><ele>480.66666666666663</ele><time>2026-04-18T12:09:11.928Z</time></trkpt><trkpt lat="43.41609566666666" lon="10.970396333333333"><ele>482.0</ele><time>2026-04-18T12:09:12.916Z</time></trkpt><trkpt lat="43.415999166666666" lon="10.970225499999998"><ele>482.0</ele><time>2026-04-18T12:09:13.92Z</time></trkpt><trkpt lat="43.4159065" lon="10.9700495"><ele>482.0</ele><time>2026-04-18T12:09:14.936Z</time></trkpt><trkpt lat="43.41581183333333" lon="10.969874666666666"><ele>482.0</ele><time>2026-04-18T12:09:15.948Z</time></trkpt><trkpt lat="43.415720166666674" lon="10.9697035"><ele>481.3333333333333</ele><time>2026-04-18T12:09:16.924Z</time></trkpt><trkpt lat="43.41564" lon="10.969532"><ele>480.66666666666663</ele><time>2026-04-18T12:09:17.914Z</time></trkpt><trkpt lat="43.41553950000001" lon="10.969167833333332"><ele>480.0</ele><time>2026-04-18T12:09:19.934Z</time></trkpt><trkpt lat="43.415532166666665" lon="10.969071166666666"><ele>479.0</ele><time>2026-04-18T12:09:20.918Z</time></trkpt><trkpt lat="43.415532500000005" lon="10.968874666666666"><ele>478.0</ele><time>2026-04-18T12:09:21.924Z</time></trkpt><trkpt lat="43.41553699999999" lon="10.968675833333336"><ele>477.0</ele><time>2026-04-18T12:09:22.92Z</time></trkpt><trkpt lat="43.41554683333334" lon="10.9684665"><ele>476.0</ele><time>2026-04-18T12:09:23.944Z</time></trkpt><trkpt lat="43.415571666666665" lon="10.968139"><ele>476.0</ele><time>2026-04-18T12:09:24.927Z</time></trkpt><trkpt lat="43.41557139627962" lon="10.967917081385892"><ele>476.0</ele><time>2026-04-18T12:09:25.924Z</time></trkpt><trkpt lat="43.41558969732678" lon="10.967700280596754"><ele>476.0</ele><time>2026-04-18T12:09:26.921Z</time></trkpt><trkpt lat="43.415611278213504" lon="10.967494812408553"><ele>478.0</ele><time>2026-04-18T12:09:27.946Z</time></trkpt><trkpt lat="43.41563440423365" lon="10.967301991326346"><ele>480.0</ele><time>2026-04-18T12:09:28.973Z</time></trkpt><trkpt lat="43.41565785077878" lon="10.967117997860997"><ele>482.0</ele><time>2026-04-18T12:09:29.928Z</time></trkpt><trkpt lat="43.41569616666668" lon="10.966952"><ele>484.0</ele><time>2026-04-18T12:09:30.924Z</time></trkpt><trkpt lat="43.415709500000006" lon="10.966792333333334"><ele>485.75</ele><time>2026-04-18T12:09:31.933Z</time></trkpt><trkpt lat="43.41572533333333" lon="10.966646833333334"><ele>487.5</ele><time>2026-04-18T12:09:32.961Z</time></trkpt><trkpt lat="43.415737166666666" lon="10.966516000000002"><ele>489.25</ele><time>2026-04-18T12:09:33.98Z</time></trkpt><trkpt lat="43.41574066666667" lon="10.966394166666666"><ele>491.0</ele><time>2026-04-18T12:09:34.924Z</time></trkpt><trkpt lat="43.415722499999994" lon="10.966141666666667"><ele>491.0</ele><time>2026-04-18T12:09:36.931Z</time></trkpt><trkpt lat="43.41569916666667" lon="10.966006499999999"><ele>491.0</ele><time>2026-04-18T12:09:37.913Z</time></trkpt><trkpt lat="43.415667500000005" lon="10.965870166666665"><ele>491.0</ele><time>2026-04-18T12:09:38.922Z</time></trkpt><trkpt lat="43.41562616666666" lon="10.965660333333334"><ele>491.0</ele><time>2026-04-18T12:09:40.937Z</time></trkpt><trkpt lat="43.41560916666668" lon="10.965433666666668"><ele>491.75</ele><time>2026-04-18T12:09:42.078Z</time></trkpt><trkpt lat="43.415628" lon="10.965198666666666"><ele>492.5</ele><time>2026-04-18T12:09:43.917Z</time></trkpt><trkpt lat="43.415651999999994" lon="10.965051"><ele>493.25</ele><time>2026-04-18T12:09:44.937Z</time></trkpt><trkpt lat="43.41567583333334" lon="10.964913666666666"><ele>494.0</ele><time>2026-04-18T12:09:45.929Z</time></trkpt><trkpt lat="43.41570016666666" lon="10.964792"><ele>494.49999999999994</ele><time>2026-04-18T12:09:46.919Z</time></trkpt><trkpt lat="43.41571300000001" lon="10.964695166666669"><ele>495.0</ele><time>2026-04-18T12:09:47.915Z</time></trkpt><trkpt lat="43.415704833333336" lon="10.9645965"><ele>495.5</ele><time>2026-04-18T12:09:48.932Z</time></trkpt><trkpt lat="43.415668499999995" lon="10.964488166666667"><ele>496.0</ele><time>2026-04-18T12:09:50.918Z</time></trkpt><trkpt lat="43.4156155" lon="10.964378666666667"><ele>496.49999999999994</ele><time>2026-04-18T12:09:52.924Z</time></trkpt><trkpt lat="43.415529" lon="10.964257333333334"><ele>497.0</ele><time>2026-04-18T12:09:54.92Z</time></trkpt><trkpt lat="43.41549272636535" lon="10.96417340625071"><ele>496.16666666666663</ele><time>2026-04-18T12:09:55.92Z</time></trkpt><trkpt lat="43.41544279559464" lon="10.964097567775172"><ele>495.3333333333333</ele><time>2026-04-18T12:09:56.921Z</time></trkpt><trkpt lat="43.4153846786153" lon="10.964028070551144"><ele>494.5</ele><time>2026-04-18T12:09:57.953Z</time></trkpt><trkpt lat="43.415320468914395" lon="10.96396801653247"><ele>493.66666666666663</ele><time>2026-04-18T12:09:58.924Z</time></trkpt><trkpt lat="43.41525497542693" lon="10.96391979518499"><ele>492.8333333333333</ele><time>2026-04-18T12:09:59.922Z</time></trkpt><trkpt lat="43.41518380796956" lon="10.9638763225699"><ele>492.0</ele><time>2026-04-18T12:10:00.935Z</time></trkpt><trkpt lat="43.415112641426234" lon="10.963850802837452"><ele>492.0</ele><time>2026-04-18T12:10:01.928Z</time></trkpt><trkpt lat="43.41504826375335" lon="10.963804054416276"><ele>492.0</ele><time>2026-04-18T12:10:02.948Z</time></trkpt><trkpt lat="43.41497883333333" lon="10.963758666666669"><ele>492.0</ele><time>2026-04-18T12:10:03.925Z</time></trkpt><trkpt lat="43.414921616048886" lon="10.96367464316758"><ele>492.0</ele><time>2026-04-18T12:10:04.926Z</time></trkpt><trkpt lat="43.4148432170934" lon="10.963607179631905"><ele>492.0</ele><time>2026-04-18T12:10:05.925Z</time></trkpt><trkpt lat="43.41475216998721" lon="10.963557937711425"><ele>492.0</ele><time>2026-04-18T12:10:06.956Z</time></trkpt><trkpt lat="43.4146537442651" lon="10.963527413505673"><ele>489.6</ele><time>2026-04-18T12:10:07.929Z</time></trkpt><trkpt lat="43.41455770872952" lon="10.963508221677813"><ele>487.20000000000005</ele><time>2026-04-18T12:10:08.941Z</time></trkpt><trkpt lat="43.41442553464288" lon="10.963482225902926"><ele>484.8</ele><time>2026-04-18T12:10:11.052Z</time></trkpt><trkpt lat="43.41434093597965" lon="10.963460714369734"><ele>482.4</ele><time>2026-04-18T12:10:11.916Z</time></trkpt><trkpt lat="43.41423040043302" lon="10.963409427351724"><ele>480.0</ele><time>2026-04-18T12:10:12.922Z</time></trkpt><trkpt lat="43.414163264400656" lon="10.963331932096388"><ele>480.0</ele><time>2026-04-18T12:10:14.95Z</time></trkpt><trkpt lat="43.41410994970233" lon="10.963224766332184"><ele>480.0</ele><time>2026-04-18T12:10:15.929Z</time></trkpt><trkpt lat="43.414036" lon="10.963066833333336"><ele>480.0</ele><time>2026-04-18T12:10:17.927Z</time></trkpt><trkpt lat="43.414010999999995" lon="10.962969500000002"><ele>480.0</ele><time>2026-04-18T12:10:19.957Z</time></trkpt><trkpt lat="43.413959000000006" lon="10.962889500000001"><ele>480.0</ele><time>2026-04-18T12:11:28.929Z</time></trkpt><trkpt lat="43.41389032170018" lon="10.962821052306019"><ele>478.0</ele><time>2026-04-18T12:11:30.931Z</time></trkpt><trkpt lat="43.413810320949" lon="10.962865846908501"><ele>476.0</ele><time>2026-04-18T12:11:32.925Z</time></trkpt><trkpt lat="43.41369784604395" lon="10.962976474108839"><ele>474.0</ele><time>2026-04-18T12:11:34.925Z</time></trkpt><trkpt lat="43.413642166844085" lon="10.963019179534726"><ele>472.0</ele><time>2026-04-18T12:11:36.925Z</time></trkpt><trkpt lat="43.413560565566684" lon="10.963052932896211"><ele>470.0</ele><time>2026-04-18T12:11:38.917Z</time></trkpt><trkpt lat="43.41350042299334" lon="10.963081133590705"><ele>468.0</ele><time>2026-04-18T12:11:39.946Z</time></trkpt><trkpt lat="43.413417970801184" lon="10.963110828138554"><ele>468.0</ele><time>2026-04-18T12:11:43.943Z</time></trkpt><trkpt lat="43.41334555433925" lon="10.963120880626194"><ele>468.0</ele><time>2026-04-18T12:11:45.929Z</time></trkpt><trkpt lat="43.41327683333334" lon="10.963113333333334"><ele>468.0</ele><time>2026-04-18T12:11:47.921Z</time></trkpt><trkpt lat="43.41321783333333" lon="10.963061999999999"><ele>468.0</ele><time>2026-04-18T12:11:48.949Z</time></trkpt><trkpt lat="43.41314616666667" lon="10.96298"><ele>468.0</ele><time>2026-04-18T12:11:49.927Z</time></trkpt><trkpt lat="43.41306599999999" lon="10.962871"><ele>468.0</ele><time>2026-04-18T12:11:50.926Z</time></trkpt><trkpt lat="43.41294016666667" lon="10.9627095"><ele>464.79999999999995</ele><time>2026-04-18T12:11:51.927Z</time></trkpt><trkpt lat="43.41279916666667" lon="10.962537666666668"><ele>461.59999999999997</ele><time>2026-04-18T12:11:53.947Z</time></trkpt><trkpt lat="43.41275399999999" lon="10.962470666666665"><ele>458.40000000000003</ele><time>2026-04-18T12:11:54.925Z</time></trkpt><trkpt lat="43.41271516666668" lon="10.962371499999998"><ele>455.20000000000005</ele><time>2026-04-18T12:11:56.937Z</time></trkpt><trkpt lat="43.41267710073539" lon="10.962288166666665"><ele>452.0</ele><time>2026-04-18T12:11:57.961Z</time></trkpt><trkpt lat="43.41269217583805" lon="10.962105481444242"><ele>451.6</ele><time>2026-04-18T12:11:58.917Z</time></trkpt><trkpt lat="43.4127233748772" lon="10.961968176998978"><ele>451.20000000000005</ele><time>2026-04-18T12:11:59.925Z</time></trkpt><trkpt lat="43.41277316666667" lon="10.961829833333335"><ele>450.8</ele><time>2026-04-18T12:12:00.937Z</time></trkpt><trkpt lat="43.41279916666667" lon="10.961686666666667"><ele>450.4</ele><time>2026-04-18T12:12:01.942Z</time></trkpt><trkpt lat="43.4128255" lon="10.961549666666668"><ele>450.0</ele><time>2026-04-18T12:12:02.921Z</time></trkpt><trkpt lat="43.412848333333336" lon="10.961422333333333"><ele>449.0</ele><time>2026-04-18T12:12:03.929Z</time></trkpt><trkpt lat="43.412858166666666" lon="10.961294666666666"><ele>448.0</ele><time>2026-04-18T12:12:04.919Z</time></trkpt><trkpt lat="43.41285383333334" lon="10.961161166666667"><ele>447.0</ele><time>2026-04-18T12:12:05.95Z</time></trkpt><trkpt lat="43.41283616666666" lon="10.961022"><ele>446.0</ele><time>2026-04-18T12:12:06.925Z</time></trkpt><trkpt lat="43.412814833333336" lon="10.960876666666666"><ele>445.0</ele><time>2026-04-18T12:12:07.934Z</time></trkpt><trkpt lat="43.41279800000001" lon="10.960733833333332"><ele>441.75</ele><time>2026-04-18T12:12:08.922Z</time></trkpt><trkpt lat="43.412769042718594" lon="10.960593087368952"><ele>438.5</ele><time>2026-04-18T12:12:09.939Z</time></trkpt><trkpt lat="43.412783000000005" lon="10.960442666666665"><ele>435.25</ele><time>2026-04-18T12:12:10.948Z</time></trkpt><trkpt lat="43.412797" lon="10.960281166666668"><ele>432.0</ele><time>2026-04-18T12:12:11.983Z</time></trkpt><trkpt lat="43.41281600000001" lon="10.960112833333335"><ele>429.5</ele><time>2026-04-18T12:12:12.925Z</time></trkpt><trkpt lat="43.412838" lon="10.959943333333333"><ele>427.0</ele><time>2026-04-18T12:12:13.931Z</time></trkpt><trkpt lat="43.41285450000001" lon="10.959857666666668"><ele>424.5</ele><time>2026-04-18T12:12:14.927Z</time></trkpt><trkpt lat="43.41291116666667" lon="10.959609333333333"><ele>422.0</ele><time>2026-04-18T12:12:15.93Z</time></trkpt><trkpt lat="43.41295166666667" lon="10.959464833333334"><ele>422.0</ele><time>2026-04-18T12:12:16.934Z</time></trkpt><trkpt lat="43.412981499999994" lon="10.959340166666667"><ele>422.0</ele><time>2026-04-18T12:12:17.919Z</time></trkpt><trkpt lat="43.4129785837925" lon="10.959219442842132"><ele>422.0</ele><time>2026-04-18T12:12:18.945Z</time></trkpt><trkpt lat="43.41298201155744" lon="10.959109518061696"><ele>422.0</ele><time>2026-04-18T12:12:19.922Z</time></trkpt><trkpt lat="43.41297156045917" lon="10.958993216051049"><ele>422.0</ele><time>2026-04-18T12:12:20.986Z</time></trkpt><trkpt lat="43.412918166666664" lon="10.958703333333336"><ele>419.5</ele><time>2026-04-18T12:12:22.941Z</time></trkpt><trkpt lat="43.41287333333333" lon="10.958536333333333"><ele>417.0</ele><time>2026-04-18T12:12:23.933Z</time></trkpt><trkpt lat="43.41285083333334" lon="10.958449333333332"><ele>414.5</ele><time>2026-04-18T12:12:24.925Z</time></trkpt><trkpt lat="43.41280316666666" lon="10.958269499999998"><ele>412.0</ele><time>2026-04-18T12:12:25.927Z</time></trkpt><trkpt lat="43.41275483333334" lon="10.958086666666668"><ele>410.0</ele><time>2026-04-18T12:12:26.943Z</time></trkpt><trkpt lat="43.41267966666666" lon="10.957814833333336"><ele>408.0</ele><time>2026-04-18T12:12:27.95Z</time></trkpt><trkpt lat="43.412630166666666" lon="10.957639166666668"><ele>406.0</ele><time>2026-04-18T12:12:28.926Z</time></trkpt><trkpt lat="43.412606999999994" lon="10.957554"><ele>404.0</ele><time>2026-04-18T12:12:29.93Z</time></trkpt><trkpt lat="43.412544" lon="10.957321000000002"><ele>402.0</ele><time>2026-04-18T12:12:30.931Z</time></trkpt><trkpt lat="43.412503666666666" lon="10.957181666666669"><ele>400.0</ele><time>2026-04-18T12:12:31.958Z</time></trkpt><trkpt lat="43.41246483333333" lon="10.957049166666664"><ele>398.0</ele><time>2026-04-18T12:12:32.926Z</time></trkpt><trkpt lat="43.41242900000001" lon="10.95692883333333"><ele>396.0</ele><time>2026-04-18T12:12:33.927Z</time></trkpt><trkpt lat="43.41239933333333" lon="10.956820999999998"><ele>394.0</ele><time>2026-04-18T12:12:34.928Z</time></trkpt><trkpt lat="43.41238799999999" lon="10.956726833333335"><ele>393.1666666666667</ele><time>2026-04-18T12:12:35.921Z</time></trkpt><trkpt lat="43.412361528410635" lon="10.956618881776146"><ele>392.33333333333337</ele><time>2026-04-18T12:12:37.923Z</time></trkpt><trkpt lat="43.41232903171468" lon="10.956496462346662"><ele>391.5</ele><time>2026-04-18T12:12:38.924Z</time></trkpt><trkpt lat="43.41230763141832" lon="10.956408150401236"><ele>390.66666666666663</ele><time>2026-04-18T12:12:40.046Z</time></trkpt><trkpt lat="43.4122839239453" lon="10.95631031772882"><ele>389.8333333333333</ele><time>2026-04-18T12:12:40.962Z</time></trkpt><trkpt lat="43.41225965505237" lon="10.956210168319636"><ele>389.0</ele><time>2026-04-18T12:12:41.919Z</time></trkpt><trkpt lat="43.41223557462095" lon="10.956110796325367"><ele>389.0</ele><time>2026-04-18T12:12:42.945Z</time></trkpt><trkpt lat="43.41221361953589" lon="10.956009878581824"><ele>389.0</ele><time>2026-04-18T12:12:43.941Z</time></trkpt><trkpt lat="43.412195138950544" lon="10.955915371811708"><ele>389.0</ele><time>2026-04-18T12:12:44.963Z</time></trkpt><trkpt lat="43.41213916666668" lon="10.9557775"><ele>389.0</ele><time>2026-04-18T12:12:46.925Z</time></trkpt><trkpt lat="43.41213940470902" lon="10.955662531333163"><ele>389.0</ele><time>2026-04-18T12:12:48.953Z</time></trkpt><trkpt lat="43.4121287782313" lon="10.955494112128163"><ele>389.0</ele><time>2026-04-18T12:12:50.933Z</time></trkpt><trkpt lat="43.4121315" lon="10.955380333333336"><ele>389.0</ele><time>2026-04-18T12:12:52.917Z</time></trkpt><trkpt lat="43.41213733333334" lon="10.955244"><ele>389.0</ele><time>2026-04-18T12:12:53.917Z</time></trkpt><trkpt lat="43.41213316666667" lon="10.955140499999999"><ele>389.0</ele><time>2026-04-18T12:12:54.919Z</time></trkpt><trkpt lat="43.412120393389024" lon="10.954973315461308"><ele>389.0</ele><time>2026-04-18T12:12:56.916Z</time></trkpt><trkpt lat="43.41208198689518" lon="10.954790900480708"><ele>391.25</ele><time>2026-04-18T12:12:57.918Z</time></trkpt><trkpt lat="43.41199109038105" lon="10.954591459946142"><ele>393.5</ele><time>2026-04-18T12:12:59.918Z</time></trkpt><trkpt lat="43.4119475" lon="10.954497499999997"><ele>395.75</ele><time>2026-04-18T12:13:00.915Z</time></trkpt><trkpt lat="43.41192783333333" lon="10.954267166666666"><ele>398.0</ele><time>2026-04-18T12:13:02.923Z</time></trkpt><trkpt lat="43.411918500000006" lon="10.954074500000003"><ele>398.4</ele><time>2026-04-18T12:13:04.932Z</time></trkpt><trkpt lat="43.411907666666664" lon="10.953940000000001"><ele>398.79999999999995</ele><time>2026-04-18T12:13:05.945Z</time></trkpt><trkpt lat="43.41189683333334" lon="10.953799499999999"><ele>399.2</ele><time>2026-04-18T12:13:06.914Z</time></trkpt><trkpt lat="43.41188566666666" lon="10.953654666666667"><ele>399.6</ele><time>2026-04-18T12:13:07.919Z</time></trkpt><trkpt lat="43.411875666666674" lon="10.953505666666668"><ele>400.0</ele><time>2026-04-18T12:13:08.926Z</time></trkpt><trkpt lat="43.411864333333334" lon="10.953349166666666"><ele>401.5</ele><time>2026-04-18T12:13:09.944Z</time></trkpt><trkpt lat="43.41185366666667" lon="10.953190333333335"><ele>403.0</ele><time>2026-04-18T12:13:10.929Z</time></trkpt><trkpt lat="43.411841833333334" lon="10.953031666666668"><ele>404.5</ele><time>2026-04-18T12:13:11.926Z</time></trkpt><trkpt lat="43.411830666666674" lon="10.952875500000001"><ele>406.0</ele><time>2026-04-18T12:13:12.92Z</time></trkpt><trkpt lat="43.411819666666666" lon="10.952724333333334"><ele>406.0</ele><time>2026-04-18T12:13:13.938Z</time></trkpt><trkpt lat="43.41181266666667" lon="10.952575833333334"><ele>406.0</ele><time>2026-04-18T12:13:14.923Z</time></trkpt><trkpt lat="43.41180216666667" lon="10.952428000000001"><ele>406.0</ele><time>2026-04-18T12:13:15.925Z</time></trkpt><trkpt lat="43.41179116666667" lon="10.952277666666665"><ele>406.0</ele><time>2026-04-18T12:13:16.925Z</time></trkpt><trkpt lat="43.41178" lon="10.952123833333333"><ele>406.0</ele><time>2026-04-18T12:13:17.928Z</time></trkpt><trkpt lat="43.411772166666665" lon="10.95196866666667"><ele>407.5</ele><time>2026-04-18T12:13:18.92Z</time></trkpt><trkpt lat="43.41176133333334" lon="10.951812333333331"><ele>409.0</ele><time>2026-04-18T12:13:19.924Z</time></trkpt><trkpt lat="43.41175033333334" lon="10.951654166666668"><ele>410.5</ele><time>2026-04-18T12:13:20.928Z</time></trkpt><trkpt lat="43.41173666666667" lon="10.951493500000002"><ele>412.0</ele><time>2026-04-18T12:13:21.921Z</time></trkpt><trkpt lat="43.41172233333334" lon="10.951330333333333"><ele>413.0</ele><time>2026-04-18T12:13:22.955Z</time></trkpt><trkpt lat="43.41170900000001" lon="10.951166166666667"><ele>414.0</ele><time>2026-04-18T12:13:23.917Z</time></trkpt><trkpt lat="43.411697999999994" lon="10.951005166666667"><ele>415.0</ele><time>2026-04-18T12:13:24.93Z</time></trkpt><trkpt lat="43.411687500000006" lon="10.950847833333334"><ele>416.0</ele><time>2026-04-18T12:13:25.922Z</time></trkpt><trkpt lat="43.41167466666668" lon="10.950693333333334"><ele>417.0</ele><time>2026-04-18T12:13:26.934Z</time></trkpt><trkpt lat="43.41165783333333" lon="10.950539499999998"><ele>418.0</ele><time>2026-04-18T12:13:27.946Z</time></trkpt><trkpt lat="43.41163633333334" lon="10.950384333333334"><ele>419.0</ele><time>2026-04-18T12:13:29.082Z</time></trkpt><trkpt lat="43.41161" lon="10.950230666666668"><ele>420.0</ele><time>2026-04-18T12:13:29.925Z</time></trkpt><trkpt lat="43.41158366666667" lon="10.950086500000001"><ele>420.5</ele><time>2026-04-18T12:13:30.938Z</time></trkpt><trkpt lat="43.41154833333333" lon="10.949888666666668"><ele>421.0</ele><time>2026-04-18T12:13:31.937Z</time></trkpt><trkpt lat="43.411512333333334" lon="10.949712666666668"><ele>421.5</ele><time>2026-04-18T12:13:33.929Z</time></trkpt><trkpt lat="43.411477" lon="10.949595333333331"><ele>422.0</ele><time>2026-04-18T12:13:34.926Z</time></trkpt><trkpt lat="43.41143333333333" lon="10.949471000000003"><ele>422.0</ele><time>2026-04-18T12:13:35.936Z</time></trkpt><trkpt lat="43.41134933333333" lon="10.949298666666667"><ele>422.0</ele><time>2026-04-18T12:13:36.97Z</time></trkpt><trkpt lat="43.41126729513791" lon="10.949137264970403"><ele>422.0</ele><time>2026-04-18T12:13:38.928Z</time></trkpt><trkpt lat="43.41120980041575" lon="10.9490333190905"><ele>422.0</ele><time>2026-04-18T12:13:39.927Z</time></trkpt><trkpt lat="43.41114650137091" lon="10.948950343059158"><ele>421.6</ele><time>2026-04-18T12:13:40.93Z</time></trkpt><trkpt lat="43.41108276897131" lon="10.948867947699426"><ele>421.20000000000005</ele><time>2026-04-18T12:13:41.926Z</time></trkpt><trkpt lat="43.41102058971915" lon="10.948782533402435"><ele>420.8</ele><time>2026-04-18T12:13:42.917Z</time></trkpt><trkpt lat="43.41094233333334" lon="10.948614166666669"><ele>420.4</ele><time>2026-04-18T12:13:43.93Z</time></trkpt><trkpt lat="43.41092233333334" lon="10.948457333333334"><ele>420.0</ele><time>2026-04-18T12:13:44.917Z</time></trkpt><trkpt lat="43.41089616666667" lon="10.948238833333336"><ele>419.5</ele><time>2026-04-18T12:13:46.929Z</time></trkpt><trkpt lat="43.41088" lon="10.948065"><ele>419.0</ele><time>2026-04-18T12:13:47.934Z</time></trkpt><trkpt lat="43.410879333333334" lon="10.9478385"><ele>418.5</ele><time>2026-04-18T12:13:49.93Z</time></trkpt><trkpt lat="43.410892499999996" lon="10.947714333333334"><ele>418.0</ele><time>2026-04-18T12:13:50.923Z</time></trkpt><trkpt lat="43.41090883333333" lon="10.947583333333334"><ele>419.0</ele><time>2026-04-18T12:13:51.936Z</time></trkpt><trkpt lat="43.41092933333333" lon="10.947448999999999"><ele>420.0</ele><time>2026-04-18T12:13:52.942Z</time></trkpt><trkpt lat="43.41096116666666" lon="10.947250499999999"><ele>421.0</ele><time>2026-04-18T12:13:54.919Z</time></trkpt><trkpt lat="43.41097733333333" lon="10.947115166666666"><ele>422.0</ele><time>2026-04-18T12:13:55.927Z</time></trkpt><trkpt lat="43.410992500000006" lon="10.946898"><ele>422.0</ele><time>2026-04-18T12:13:56.946Z</time></trkpt><trkpt lat="43.411019116272676" lon="10.946743688570416"><ele>422.0</ele><time>2026-04-18T12:13:57.921Z</time></trkpt><trkpt lat="43.411028868003" lon="10.946578473453846"><ele>422.0</ele><time>2026-04-18T12:13:58.922Z</time></trkpt><trkpt lat="43.411034970293" lon="10.946416044758342"><ele>422.0</ele><time>2026-04-18T12:13:59.929Z</time></trkpt><trkpt lat="43.41102383333334" lon="10.946256000000002"><ele>423.0</ele><time>2026-04-18T12:14:00.943Z</time></trkpt><trkpt lat="43.41102583333333" lon="10.946099333333331"><ele>424.0</ele><time>2026-04-18T12:14:01.967Z</time></trkpt><trkpt lat="43.411021" lon="10.945944166666669"><ele>425.0</ele><time>2026-04-18T12:14:02.917Z</time></trkpt><trkpt lat="43.41101466666667" lon="10.94578916666667"><ele>426.0</ele><time>2026-04-18T12:14:03.918Z</time></trkpt><trkpt lat="43.410999499999996" lon="10.945632166666668"><ele>426.0</ele><time>2026-04-18T12:14:04.934Z</time></trkpt><trkpt lat="43.410982" lon="10.945475833333335"><ele>426.0</ele><time>2026-04-18T12:14:05.962Z</time></trkpt><trkpt lat="43.41096299999999" lon="10.945322500000001"><ele>426.0</ele><time>2026-04-18T12:14:06.928Z</time></trkpt><trkpt lat="43.410963832221526" lon="10.945166058658742"><ele>426.0</ele><time>2026-04-18T12:14:07.928Z</time></trkpt><trkpt lat="43.41095027771435" lon="10.945012563413298"><ele>426.0</ele><time>2026-04-18T12:14:08.931Z</time></trkpt><trkpt lat="43.410930232774525" lon="10.944775585581283"><ele>426.0</ele><time>2026-04-18T12:14:10.932Z</time></trkpt><trkpt lat="43.41091636310918" lon="10.944611613886961"><ele>426.0</ele><time>2026-04-18T12:14:11.932Z</time></trkpt><trkpt lat="43.4108947794302" lon="10.944362570477447"><ele>425.25</ele><time>2026-04-18T12:14:12.926Z</time></trkpt><trkpt lat="43.41087066666667" lon="10.944199333333332"><ele>424.5</ele><time>2026-04-18T12:14:13.94Z</time></trkpt><trkpt lat="43.4108595" lon="10.944033999999998"><ele>423.75</ele><time>2026-04-18T12:14:14.925Z</time></trkpt><trkpt lat="43.41084183333334" lon="10.943788166666664"><ele>423.0</ele><time>2026-04-18T12:14:16.927Z</time></trkpt><trkpt lat="43.41083183333333" lon="10.943624333333332"><ele>423.0</ele><time>2026-04-18T12:14:17.947Z</time></trkpt><trkpt lat="43.410824833333336" lon="10.943378166666665"><ele>423.0</ele><time>2026-04-18T12:14:18.962Z</time></trkpt><trkpt lat="43.410783309923055" lon="10.943034653147109"><ele>423.0</ele><time>2026-04-18T12:14:20.936Z</time></trkpt><trkpt lat="43.410776166666665" lon="10.942852166666666"><ele>423.0</ele><time>2026-04-18T12:14:21.932Z</time></trkpt><trkpt lat="43.410762166666665" lon="10.942763666666668"><ele>423.0</ele><time>2026-04-18T12:14:22.95Z</time></trkpt><trkpt lat="43.41070833333333" lon="10.942505"><ele>423.0</ele><time>2026-04-18T12:14:23.929Z</time></trkpt><trkpt lat="43.410656" lon="10.942336666666666"><ele>423.0</ele><time>2026-04-18T12:14:24.918Z</time></trkpt><trkpt lat="43.41062755098902" lon="10.942151870799425"><ele>421.75</ele><time>2026-04-18T12:14:26.028Z</time></trkpt><trkpt lat="43.41057993112953" lon="10.941970317259994"><ele>420.5</ele><time>2026-04-18T12:14:26.96Z</time></trkpt><trkpt lat="43.41052775349056" lon="10.941791897358144"><ele>419.25</ele><time>2026-04-18T12:14:27.926Z</time></trkpt><trkpt lat="43.41047380313994" lon="10.94161827030115"><ele>418.0</ele><time>2026-04-18T12:14:28.931Z</time></trkpt><trkpt lat="43.41042387799665" lon="10.941458919782178"><ele>415.4</ele><time>2026-04-18T12:14:29.919Z</time></trkpt><trkpt lat="43.41037815361928" lon="10.94131297710552"><ele>412.79999999999995</ele><time>2026-04-18T12:14:30.938Z</time></trkpt><trkpt lat="43.41032950000001" lon="10.941192666666666"><ele>410.2</ele><time>2026-04-18T12:14:31.93Z</time></trkpt><trkpt lat="43.41028800000001" lon="10.941039"><ele>407.6</ele><time>2026-04-18T12:14:33.935Z</time></trkpt><trkpt lat="43.41027349999999" lon="10.940915500000003"><ele>405.0</ele><time>2026-04-18T12:14:34.939Z</time></trkpt><trkpt lat="43.4102703108089" lon="10.94081572405591"><ele>404.6</ele><time>2026-04-18T12:14:35.962Z</time></trkpt><trkpt lat="43.410362476516944" lon="10.940730948091069"><ele>404.2</ele><time>2026-04-18T12:14:37.928Z</time></trkpt><trkpt lat="43.41048000000001" lon="10.940700000000001"><ele>403.79999999999995</ele><time>2026-04-18T12:14:38.919Z</time></trkpt><trkpt lat="43.41054685184471" lon="10.940649868485984"><ele>403.4</ele><time>2026-04-18T12:14:39.944Z</time></trkpt><trkpt lat="43.41061043342601" lon="10.940609183531185"><ele>403.0</ele><time>2026-04-18T12:14:40.979Z</time></trkpt><trkpt lat="43.41069649999999" lon="10.940494166666667"><ele>403.0</ele><time>2026-04-18T12:14:42.923Z</time></trkpt><trkpt lat="43.41069366666667" lon="10.940344000000001"><ele>403.0</ele><time>2026-04-18T12:14:44.934Z</time></trkpt><trkpt lat="43.410677166666666" lon="10.940234666666667"><ele>403.0</ele><time>2026-04-18T12:14:45.918Z</time></trkpt><trkpt lat="43.41065633333333" lon="10.940047499999999"><ele>403.0</ele><time>2026-04-18T12:14:47.235Z</time></trkpt><trkpt lat="43.410644166666664" lon="10.939839833333334"><ele>401.79999999999995</ele><time>2026-04-18T12:14:48.962Z</time></trkpt><trkpt lat="43.410637333333334" lon="10.93970116666667"><ele>400.6</ele><time>2026-04-18T12:14:49.926Z</time></trkpt><trkpt lat="43.41062916666666" lon="10.939500666666667"><ele>399.4</ele><time>2026-04-18T12:14:50.923Z</time></trkpt><trkpt lat="43.41063000000001" lon="10.939367833333332"><ele>398.20000000000005</ele><time>2026-04-18T12:14:51.939Z</time></trkpt><trkpt lat="43.410644166666664" lon="10.939237666666667"><ele>397.0</ele><time>2026-04-18T12:14:52.919Z</time></trkpt><trkpt lat="43.4106585" lon="10.939111666666667"><ele>396.0</ele><time>2026-04-18T12:14:53.922Z</time></trkpt><trkpt lat="43.41066033333333" lon="10.938987166666667"><ele>395.0</ele><time>2026-04-18T12:14:54.922Z</time></trkpt><trkpt lat="43.410639333333336" lon="10.938862333333335"><ele>394.0</ele><time>2026-04-18T12:14:55.941Z</time></trkpt><trkpt lat="43.410622459374636" lon="10.938725230706167"><ele>393.0</ele><time>2026-04-18T12:14:56.948Z</time></trkpt><trkpt lat="43.410568336345115" lon="10.938527275148319"><ele>392.0</ele><time>2026-04-18T12:14:58.918Z</time></trkpt><trkpt lat="43.41051272672339" lon="10.93835839211478"><ele>390.75</ele><time>2026-04-18T12:14:59.936Z</time></trkpt><trkpt lat="43.41041309991117" lon="10.938168346292771"><ele>389.5</ele><time>2026-04-18T12:15:01.928Z</time></trkpt><trkpt lat="43.410298355466175" lon="10.938079589684618"><ele>388.25</ele><time>2026-04-18T12:15:03.931Z</time></trkpt><trkpt lat="43.41018231949344" lon="10.93801421289208"><ele>387.0</ele><time>2026-04-18T12:15:04.925Z</time></trkpt><trkpt lat="43.410111969782434" lon="10.937987540290592"><ele>387.0</ele><time>2026-04-18T12:15:06.042Z</time></trkpt><trkpt lat="43.410039599691395" lon="10.937961314618668"><ele>387.0</ele><time>2026-04-18T12:15:06.929Z</time></trkpt><trkpt lat="43.40996793917037" lon="10.93793551574892"><ele>387.0</ele><time>2026-04-18T12:15:07.924Z</time></trkpt><trkpt lat="43.409881664722036" lon="10.937889977115367"><ele>387.0</ele><time>2026-04-18T12:15:09.961Z</time></trkpt><trkpt lat="43.40983083333333" lon="10.937743333333332"><ele>387.0</ele><time>2026-04-18T12:15:11.922Z</time></trkpt><trkpt lat="43.40983916666668" lon="10.937605166666666"><ele>386.20000000000005</ele><time>2026-04-18T12:15:12.922Z</time></trkpt><trkpt lat="43.40983566666667" lon="10.937504333333333"><ele>385.4</ele><time>2026-04-18T12:15:13.959Z</time></trkpt><trkpt lat="43.40982633333333" lon="10.937392166666667"><ele>384.6</ele><time>2026-04-18T12:15:14.934Z</time></trkpt><trkpt lat="43.409818666666666" lon="10.937268666666668"><ele>383.79999999999995</ele><time>2026-04-18T12:15:15.932Z</time></trkpt><trkpt lat="43.40981366666667" lon="10.937144166666666"><ele>383.0</ele><time>2026-04-18T12:15:16.924Z</time></trkpt><trkpt lat="43.40982883333333" lon="10.93691383333333"><ele>383.0</ele><time>2026-04-18T12:15:18.93Z</time></trkpt><trkpt lat="43.409847166666665" lon="10.936806166666667"><ele>383.0</ele><time>2026-04-18T12:15:19.933Z</time></trkpt><trkpt lat="43.409857333333335" lon="10.9367095"><ele>383.0</ele><time>2026-04-18T12:15:20.923Z</time></trkpt><trkpt lat="43.40983466666666" lon="10.936551666666665"><ele>383.0</ele><time>2026-04-18T12:15:22.951Z</time></trkpt><trkpt lat="43.40982103676067" lon="10.936454834444952"><ele>383.0</ele><time>2026-04-18T12:15:23.914Z</time></trkpt><trkpt lat="43.409775916015356" lon="10.936365899395662"><ele>383.0</ele><time>2026-04-18T12:15:24.926Z</time></trkpt><trkpt lat="43.4097210774418" lon="10.936278735112227"><ele>381.4</ele><time>2026-04-18T12:15:25.925Z</time></trkpt><trkpt lat="43.40962373898591" lon="10.936146173130213"><ele>379.79999999999995</ele><time>2026-04-18T12:15:27.915Z</time></trkpt><trkpt lat="43.40954950259734" lon="10.936060896745804"><ele>378.2</ele><time>2026-04-18T12:15:28.933Z</time></trkpt><trkpt lat="43.40947351640214" lon="10.935975826787002"><ele>376.6</ele><time>2026-04-18T12:15:29.927Z</time></trkpt><trkpt lat="43.40939023414996" lon="10.93588517096057"><ele>375.0</ele><time>2026-04-18T12:15:30.954Z</time></trkpt><trkpt lat="43.40925819211055" lon="10.935750701103391"><ele>374.8</ele><time>2026-04-18T12:15:31.929Z</time></trkpt><trkpt lat="43.40915962292296" lon="10.935662131219575"><ele>374.6</ele><time>2026-04-18T12:15:32.925Z</time></trkpt><trkpt lat="43.40906730022943" lon="10.935582041238114"><ele>374.4</ele><time>2026-04-18T12:15:33.937Z</time></trkpt><trkpt lat="43.408982964126174" lon="10.935494385419101"><ele>374.2</ele><time>2026-04-18T12:15:34.918Z</time></trkpt><trkpt lat="43.40891559125645" lon="10.935398753049059"><ele>374.0</ele><time>2026-04-18T12:15:35.926Z</time></trkpt><trkpt lat="43.408855350461025" lon="10.935296238952521"><ele>372.6</ele><time>2026-04-18T12:15:36.927Z</time></trkpt><trkpt lat="43.40880038679045" lon="10.935185494049534"><ele>371.2</ele><time>2026-04-18T12:15:37.919Z</time></trkpt><trkpt lat="43.40874233333334" lon="10.935063333333334"><ele>369.8</ele><time>2026-04-18T12:15:38.941Z</time></trkpt><trkpt lat="43.40871083333333" lon="10.934916833333332"><ele>368.40000000000003</ele><time>2026-04-18T12:15:39.943Z</time></trkpt><trkpt lat="43.40868650000001" lon="10.934754833333335"><ele>367.0</ele><time>2026-04-18T12:15:40.934Z</time></trkpt><trkpt lat="43.408659333333325" lon="10.9345"><ele>367.0</ele><time>2026-04-18T12:15:42.92Z</time></trkpt><trkpt lat="43.40864333333334" lon="10.934326666666667"><ele>367.0</ele><time>2026-04-18T12:15:43.959Z</time></trkpt><trkpt lat="43.40861316666666" lon="10.934064333333334"><ele>367.0</ele><time>2026-04-18T12:15:44.923Z</time></trkpt><trkpt lat="43.408588666666674" lon="10.933888333333336"><ele>367.0</ele><time>2026-04-18T12:15:45.928Z</time></trkpt><trkpt lat="43.408563333333326" lon="10.933712333333334"><ele>367.0</ele><time>2026-04-18T12:15:46.923Z</time></trkpt><trkpt lat="43.408539000000005" lon="10.933539000000001"><ele>367.0</ele><time>2026-04-18T12:15:47.943Z</time></trkpt><trkpt lat="43.40851483333333" lon="10.933369666666666"><ele>367.0</ele><time>2026-04-18T12:15:48.923Z</time></trkpt><trkpt lat="43.408480833333336" lon="10.933204499999999"><ele>367.0</ele><time>2026-04-18T12:15:49.935Z</time></trkpt><trkpt lat="43.40845208812284" lon="10.933035839844944"><ele>367.0</ele><time>2026-04-18T12:15:50.931Z</time></trkpt><trkpt lat="43.40840182080531" lon="10.932872852313146"><ele>367.0</ele><time>2026-04-18T12:15:51.933Z</time></trkpt><trkpt lat="43.408340337453694" lon="10.932716262239069"><ele>367.0</ele><time>2026-04-18T12:15:52.927Z</time></trkpt><trkpt lat="43.40827889246162" lon="10.932569566335708"><ele>366.5</ele><time>2026-04-18T12:15:53.931Z</time></trkpt><trkpt lat="43.40822540284627" lon="10.932429414601868"><ele>366.0</ele><time>2026-04-18T12:15:54.918Z</time></trkpt><trkpt lat="43.40817385193576" lon="10.932291597949817"><ele>365.5</ele><time>2026-04-18T12:15:55.931Z</time></trkpt><trkpt lat="43.40812263598814" lon="10.932154676751777"><ele>365.0</ele><time>2026-04-18T12:15:57.051Z</time></trkpt><trkpt lat="43.408071074749245" lon="10.932016832482804"><ele>365.0</ele><time>2026-04-18T12:15:57.93Z</time></trkpt><trkpt lat="43.40801871974072" lon="10.93188055261752"><ele>365.0</ele><time>2026-04-18T12:15:58.916Z</time></trkpt><trkpt lat="43.40795183333333" lon="10.931754999999997"><ele>365.0</ele><time>2026-04-18T12:15:59.931Z</time></trkpt><trkpt lat="43.407911571731816" lon="10.931609455170939"><ele>365.0</ele><time>2026-04-18T12:16:00.926Z</time></trkpt><trkpt lat="43.40785311882323" lon="10.931480546707029"><ele>365.0</ele><time>2026-04-18T12:16:01.919Z</time></trkpt><trkpt lat="43.40778878461127" lon="10.931347521148242"><ele>365.33333333333337</ele><time>2026-04-18T12:16:02.921Z</time></trkpt><trkpt lat="43.40768965377466" lon="10.931146233367848"><ele>365.6666666666667</ele><time>2026-04-18T12:16:04.937Z</time></trkpt><trkpt lat="43.40758920098655" lon="10.93093747455354"><ele>366.0</ele><time>2026-04-18T12:16:05.93Z</time></trkpt><trkpt lat="43.40752452459665" lon="10.93080441705903"><ele>367.0</ele><time>2026-04-18T12:16:06.924Z</time></trkpt><trkpt lat="43.407463533756975" lon="10.930689231882319"><ele>368.0</ele><time>2026-04-18T12:16:07.935Z</time></trkpt><trkpt lat="43.40739833333334" lon="10.930596333333336"><ele>369.0</ele><time>2026-04-18T12:16:08.939Z</time></trkpt><trkpt lat="43.40737033333333" lon="10.930413833333334"><ele>370.0</ele><time>2026-04-18T12:16:10.932Z</time></trkpt><trkpt lat="43.4073695" lon="10.930288000000001"><ele>371.0</ele><time>2026-04-18T12:16:11.92Z</time></trkpt><trkpt lat="43.40737949999999" lon="10.930081"><ele>371.0</ele><time>2026-04-18T12:16:12.94Z</time></trkpt><trkpt lat="43.40738533333334" lon="10.929928166666667"><ele>371.0</ele><time>2026-04-18T12:16:13.919Z</time></trkpt><trkpt lat="43.40738366666666" lon="10.929765333333334"><ele>371.0</ele><time>2026-04-18T12:16:14.92Z</time></trkpt><trkpt lat="43.407377333333336" lon="10.929593833333335"><ele>371.0</ele><time>2026-04-18T12:16:15.923Z</time></trkpt><trkpt lat="43.40736733333333" lon="10.929416833333336"><ele>371.0</ele><time>2026-04-18T12:16:16.931Z</time></trkpt><trkpt lat="43.407360000000004" lon="10.929240833333331"><ele>371.0</ele><time>2026-04-18T12:16:17.918Z</time></trkpt><trkpt lat="43.407352833333334" lon="10.929069"><ele>371.0</ele><time>2026-04-18T12:16:18.923Z</time></trkpt><trkpt lat="43.407340999999995" lon="10.9288965"><ele>371.0</ele><time>2026-04-18T12:16:19.93Z</time></trkpt><trkpt lat="43.40731949999999" lon="10.928727499999999"><ele>370.5</ele><time>2026-04-18T12:16:20.935Z</time></trkpt><trkpt lat="43.407280333333325" lon="10.928573166666666"><ele>370.0</ele><time>2026-04-18T12:16:21.952Z</time></trkpt><trkpt lat="43.40724899499402" lon="10.928411474630195"><ele>369.5</ele><time>2026-04-18T12:16:22.926Z</time></trkpt><trkpt lat="43.40717133792544" lon="10.92828866040365"><ele>369.0</ele><time>2026-04-18T12:16:23.927Z</time></trkpt><trkpt lat="43.40707658505663" lon="10.928186865493656"><ele>368.4</ele><time>2026-04-18T12:16:24.932Z</time></trkpt><trkpt lat="43.40698409111069" lon="10.928085732645787"><ele>367.79999999999995</ele><time>2026-04-18T12:16:25.943Z</time></trkpt><trkpt lat="43.40689412303314" lon="10.927987361652795"><ele>367.20000000000005</ele><time>2026-04-18T12:16:26.946Z</time></trkpt><trkpt lat="43.406800499999996" lon="10.927913499999999"><ele>366.6</ele><time>2026-04-18T12:16:27.919Z</time></trkpt><trkpt lat="43.40672783333333" lon="10.92782266666667"><ele>366.0</ele><time>2026-04-18T12:16:28.923Z</time></trkpt><trkpt lat="43.406671833333334" lon="10.927717"><ele>366.0</ele><time>2026-04-18T12:16:29.948Z</time></trkpt><trkpt lat="43.40663033333334" lon="10.927593833333333"><ele>366.0</ele><time>2026-04-18T12:16:30.947Z</time></trkpt><trkpt lat="43.406593333333326" lon="10.927458999999999"><ele>366.0</ele><time>2026-04-18T12:16:31.931Z</time></trkpt><trkpt lat="43.406537833333346" lon="10.927232499999999"><ele>366.0</ele><time>2026-04-18T12:16:33.926Z</time></trkpt><trkpt lat="43.40648816666667" lon="10.927074499999998"><ele>368.5</ele><time>2026-04-18T12:16:35.046Z</time></trkpt><trkpt lat="43.406427666666666" lon="10.926921833333333"><ele>371.0</ele><time>2026-04-18T12:16:35.919Z</time></trkpt><trkpt lat="43.40637516968615" lon="10.926763992690185"><ele>373.5</ele><time>2026-04-18T12:16:36.941Z</time></trkpt><trkpt lat="43.406293724086474" lon="10.926622490669182"><ele>376.0</ele><time>2026-04-18T12:16:37.924Z</time></trkpt><trkpt lat="43.40615421264288" lon="10.926463616111718"><ele>376.66666666666663</ele><time>2026-04-18T12:16:38.951Z</time></trkpt><trkpt lat="43.40606693855589" lon="10.926361981902204"><ele>377.3333333333333</ele><time>2026-04-18T12:16:39.952Z</time></trkpt><trkpt lat="43.405911387647805" lon="10.926175723668509"><ele>378.0</ele><time>2026-04-18T12:16:41.935Z</time></trkpt><trkpt lat="43.405801781036416" lon="10.926035442818657"><ele>378.0</ele><time>2026-04-18T12:16:43.959Z</time></trkpt><trkpt lat="43.40572814973075" lon="10.925936254306194"><ele>378.0</ele><time>2026-04-18T12:16:44.919Z</time></trkpt><trkpt lat="43.405613144724796" lon="10.92577220051995"><ele>378.0</ele><time>2026-04-18T12:16:45.926Z</time></trkpt><trkpt lat="43.40549018243855" lon="10.92559679570116"><ele>378.0</ele><time>2026-04-18T12:16:47.927Z</time></trkpt><trkpt lat="43.40540432911077" lon="10.925472244973218"><ele>378.25</ele><time>2026-04-18T12:16:48.924Z</time></trkpt><trkpt lat="43.405308702201346" lon="10.925345978657054"><ele>378.5</ele><time>2026-04-18T12:16:49.915Z</time></trkpt><trkpt lat="43.405198561825294" lon="10.925225711897001"><ele>378.75</ele><time>2026-04-18T12:16:50.916Z</time></trkpt><trkpt lat="43.40507950382526" lon="10.925120205212192"><ele>379.0</ele><time>2026-04-18T12:16:51.959Z</time></trkpt><trkpt lat="43.40495598856064" lon="10.925010381712541"><ele>379.0</ele><time>2026-04-18T12:16:52.928Z</time></trkpt><trkpt lat="43.40482887046655" lon="10.924896932688144"><ele>379.0</ele><time>2026-04-18T12:16:53.917Z</time></trkpt><trkpt lat="43.40470059262975" lon="10.92477998598775"><ele>379.0</ele><time>2026-04-18T12:16:54.917Z</time></trkpt><trkpt lat="43.40456936105677" lon="10.924658289114234"><ele>378.0</ele><time>2026-04-18T12:16:55.949Z</time></trkpt><trkpt lat="43.40443729091908" lon="10.924531359841222"><ele>377.0</ele><time>2026-04-18T12:16:56.945Z</time></trkpt><trkpt lat="43.40430652383116" lon="10.924399605207949"><ele>376.0</ele><time>2026-04-18T12:16:57.919Z</time></trkpt><trkpt lat="43.40418046392434" lon="10.9242630197139"><ele>375.0</ele><time>2026-04-18T12:16:58.92Z</time></trkpt><trkpt lat="43.40405685074606" lon="10.92412414291022"><ele>374.0</ele><time>2026-04-18T12:16:59.932Z</time></trkpt><trkpt lat="43.40393800913534" lon="10.923986439149084"><ele>373.0</ele><time>2026-04-18T12:17:00.958Z</time></trkpt><trkpt lat="43.40382932791318" lon="10.923848836628464"><ele>373.0</ele><time>2026-04-18T12:17:01.928Z</time></trkpt><trkpt lat="43.403719833333334" lon="10.923724833333333"><ele>373.0</ele><time>2026-04-18T12:17:02.934Z</time></trkpt><trkpt lat="43.40363933333333" lon="10.923575833333333"><ele>373.0</ele><time>2026-04-18T12:17:03.929Z</time></trkpt><trkpt lat="43.403579666666666" lon="10.923412833333334"><ele>373.0</ele><time>2026-04-18T12:17:04.957Z</time></trkpt><trkpt lat="43.40353433333333" lon="10.923241666666668"><ele>373.75</ele><time>2026-04-18T12:17:05.925Z</time></trkpt><trkpt lat="43.403495166666666" lon="10.923067"><ele>374.5</ele><time>2026-04-18T12:17:07.093Z</time></trkpt><trkpt lat="43.40342699999999" lon="10.922807333333333"><ele>375.25</ele><time>2026-04-18T12:17:07.925Z</time></trkpt><trkpt lat="43.403402333333325" lon="10.922719666666667"><ele>376.0</ele><time>2026-04-18T12:17:09.041Z</time></trkpt><trkpt lat="43.40334899999999" lon="10.922544333333333"><ele>376.0</ele><time>2026-04-18T12:17:09.916Z</time></trkpt><trkpt lat="43.40329366666666" lon="10.922366333333333"><ele>376.0</ele><time>2026-04-18T12:17:10.937Z</time></trkpt><trkpt lat="43.403242500000005" lon="10.922185833333334"><ele>376.0</ele><time>2026-04-18T12:17:11.924Z</time></trkpt><trkpt lat="43.403199166666674" lon="10.922002333333333"><ele>376.0</ele><time>2026-04-18T12:17:12.928Z</time></trkpt><trkpt lat="43.40315766666666" lon="10.921825000000002"><ele>375.0</ele><time>2026-04-18T12:17:13.93Z</time></trkpt><trkpt lat="43.40312116666667" lon="10.921655500000002"><ele>374.0</ele><time>2026-04-18T12:17:14.93Z</time></trkpt><trkpt lat="43.403088833333335" lon="10.921499999999998"><ele>373.0</ele><time>2026-04-18T12:17:15.932Z</time></trkpt><trkpt lat="43.40307316666667" lon="10.921352333333335"><ele>372.0</ele><time>2026-04-18T12:17:16.947Z</time></trkpt><trkpt lat="43.403086" lon="10.921132499999999"><ele>372.0</ele><time>2026-04-18T12:17:17.948Z</time></trkpt><trkpt lat="43.40311533333333" lon="10.920978"><ele>372.0</ele><time>2026-04-18T12:17:18.919Z</time></trkpt><trkpt lat="43.40316183333333" lon="10.920818333333333"><ele>372.0</ele><time>2026-04-18T12:17:19.926Z</time></trkpt><trkpt lat="43.403221" lon="10.92065533333333"><ele>372.0</ele><time>2026-04-18T12:17:20.931Z</time></trkpt><trkpt lat="43.40328416666666" lon="10.920490500000001"><ele>371.0</ele><time>2026-04-18T12:17:21.947Z</time></trkpt><trkpt lat="43.40334816666667" lon="10.920324333333333"><ele>370.0</ele><time>2026-04-18T12:17:22.932Z</time></trkpt><trkpt lat="43.40340966666666" lon="10.920157"><ele>369.0</ele><time>2026-04-18T12:17:23.924Z</time></trkpt><trkpt lat="43.40346983333334" lon="10.919988499999999"><ele>368.0</ele><time>2026-04-18T12:17:24.933Z</time></trkpt><trkpt lat="43.40353033333334" lon="10.919815833333333"><ele>367.5</ele><time>2026-04-18T12:17:25.958Z</time></trkpt><trkpt lat="43.403586" lon="10.919628666666666"><ele>367.0</ele><time>2026-04-18T12:17:26.964Z</time></trkpt><trkpt lat="43.40361299999999" lon="10.919529833333335"><ele>366.5</ele><time>2026-04-18T12:17:27.925Z</time></trkpt><trkpt lat="43.40366483333334" lon="10.919326166666668"><ele>366.0</ele><time>2026-04-18T12:17:28.948Z</time></trkpt><trkpt lat="43.403707000000004" lon="10.919130500000001"><ele>365.0</ele><time>2026-04-18T12:17:29.937Z</time></trkpt><trkpt lat="43.403738000000004" lon="10.918950166666665"><ele>364.0</ele><time>2026-04-18T12:17:30.952Z</time></trkpt><trkpt lat="43.40376" lon="10.9187755"><ele>363.0</ele><time>2026-04-18T12:17:31.917Z</time></trkpt><trkpt lat="43.403782750628686" lon="10.918609333333333"><ele>362.0</ele><time>2026-04-18T12:17:32.924Z</time></trkpt><trkpt lat="43.40377541210244" lon="10.9184584420591"><ele>360.5</ele><time>2026-04-18T12:17:33.931Z</time></trkpt><trkpt lat="43.40375698928782" lon="10.918339506958368"><ele>359.0</ele><time>2026-04-18T12:17:34.963Z</time></trkpt><trkpt lat="43.40371695296762" lon="10.918192951080227"><ele>357.5</ele><time>2026-04-18T12:17:35.924Z</time></trkpt><trkpt lat="43.40362824015019" lon="10.917988574508982"><ele>356.0</ele><time>2026-04-18T12:17:37.932Z</time></trkpt><trkpt lat="43.40353499877752" lon="10.91782850042192"><ele>356.0</ele><time>2026-04-18T12:17:39.934Z</time></trkpt><trkpt lat="43.40347590483266" lon="10.917709551982917"><ele>356.0</ele><time>2026-04-18T12:17:40.926Z</time></trkpt><trkpt lat="43.403394666666664" lon="10.917513666666665"><ele>356.0</ele><time>2026-04-18T12:17:41.929Z</time></trkpt><trkpt lat="43.403367166666676" lon="10.917361833333333"><ele>356.0</ele><time>2026-04-18T12:17:42.932Z</time></trkpt><trkpt lat="43.403335" lon="10.917143666666666"><ele>354.25</ele><time>2026-04-18T12:17:44.92Z</time></trkpt><trkpt lat="43.40330077571273" lon="10.91694144178883"><ele>352.5</ele><time>2026-04-18T12:17:45.924Z</time></trkpt><trkpt lat="43.403250663842535" lon="10.916824747438167"><ele>350.75</ele><time>2026-04-18T12:17:46.945Z</time></trkpt><trkpt lat="43.403185385120416" lon="10.916712632303074"><ele>349.0</ele><time>2026-04-18T12:17:47.94Z</time></trkpt><trkpt lat="43.40310710495989" lon="10.916604226447145"><ele>348.75</ele><time>2026-04-18T12:17:48.92Z</time></trkpt><trkpt lat="43.403018060308796" lon="10.916492863542777"><ele>348.5</ele><time>2026-04-18T12:17:49.928Z</time></trkpt><trkpt lat="43.40292186714183" lon="10.916378504238212"><ele>348.25</ele><time>2026-04-18T12:17:50.927Z</time></trkpt><trkpt lat="43.40287137079023" lon="10.916321404465345"><ele>348.0</ele><time>2026-04-18T12:17:51.947Z</time></trkpt><trkpt lat="43.402723490864766" lon="10.91616473103452"><ele>348.0</ele><time>2026-04-18T12:17:52.922Z</time></trkpt><trkpt lat="43.40263119557626" lon="10.916072414721388"><ele>348.0</ele><time>2026-04-18T12:17:53.923Z</time></trkpt><trkpt lat="43.40254352991798" lon="10.915987960076206"><ele>348.0</ele><time>2026-04-18T12:17:54.925Z</time></trkpt><trkpt lat="43.40246181185917" lon="10.915909234982433"><ele>348.0</ele><time>2026-04-18T12:17:55.945Z</time></trkpt><trkpt lat="43.40231568691209" lon="10.915775853862446"><ele>346.0</ele><time>2026-04-18T12:17:57.927Z</time></trkpt><trkpt lat="43.40223327252626" lon="10.915686722479885"><ele>344.0</ele><time>2026-04-18T12:17:59.957Z</time></trkpt><trkpt lat="43.40220666666667" lon="10.915599666666665"><ele>342.0</ele><time>2026-04-18T12:18:01.939Z</time></trkpt><trkpt lat="43.40228033333333" lon="10.915514166666666"><ele>340.0</ele><time>2026-04-18T12:18:03.945Z</time></trkpt><trkpt lat="43.40236316666666" lon="10.915474999999999"><ele>338.0</ele><time>2026-04-18T12:18:05.928Z</time></trkpt><trkpt lat="43.402463166666664" lon="10.915428666666667"><ele>338.0</ele><time>2026-04-18T12:18:06.923Z</time></trkpt><trkpt lat="43.4025335" lon="10.915386666666667"><ele>338.0</ele><time>2026-04-18T12:18:07.929Z</time></trkpt><trkpt lat="43.4026015" lon="10.915332166666667"><ele>338.0</ele><time>2026-04-18T12:18:08.957Z</time></trkpt><trkpt lat="43.40266183333333" lon="10.91525816666667"><ele>338.0</ele><time>2026-04-18T12:18:09.924Z</time></trkpt><trkpt lat="43.40271116666666" lon="10.915161499999998"><ele>338.0</ele><time>2026-04-18T12:18:10.925Z</time></trkpt><trkpt lat="43.40276488172732" lon="10.91504888820854"><ele>338.0</ele><time>2026-04-18T12:18:11.93Z</time></trkpt><trkpt lat="43.402785333333334" lon="10.914900833333334"><ele>334.6666666666667</ele><time>2026-04-18T12:18:12.946Z</time></trkpt><trkpt lat="43.40283666666666" lon="10.914664833333331"><ele>331.3333333333333</ele><time>2026-04-18T12:18:14.928Z</time></trkpt><trkpt lat="43.40288816666666" lon="10.914411166666667"><ele>328.0</ele><time>2026-04-18T12:18:15.936Z</time></trkpt><trkpt lat="43.402922000000004" lon="10.914234166666665"><ele>326.5</ele><time>2026-04-18T12:18:16.947Z</time></trkpt><trkpt lat="43.402937666666666" lon="10.914143166666667"><ele>325.0</ele><time>2026-04-18T12:18:17.931Z</time></trkpt><trkpt lat="43.40299317057277" lon="10.91386645421364"><ele>323.5</ele><time>2026-04-18T12:18:18.928Z</time></trkpt><trkpt lat="43.403014603531055" lon="10.913670290330337"><ele>322.0</ele><time>2026-04-18T12:18:19.929Z</time></trkpt><trkpt lat="43.403023036710785" lon="10.913569112908242"><ele>321.3333333333333</ele><time>2026-04-18T12:18:20.944Z</time></trkpt><trkpt lat="43.40303186566599" lon="10.91325270304543"><ele>320.6666666666667</ele><time>2026-04-18T12:18:21.961Z</time></trkpt><trkpt lat="43.403017674588064" lon="10.913035526580973"><ele>320.0</ele><time>2026-04-18T12:18:22.933Z</time></trkpt><trkpt lat="43.40299720163925" lon="10.912815130273808"><ele>320.0</ele><time>2026-04-18T12:18:23.929Z</time></trkpt><trkpt lat="43.40298399064556" lon="10.912697661410546"><ele>320.0</ele><time>2026-04-18T12:18:24.936Z</time></trkpt><trkpt lat="43.40295580425404" lon="10.912446221777204"><ele>320.0</ele><time>2026-04-18T12:18:26.057Z</time></trkpt><trkpt lat="43.40292478473401" lon="10.912174942981348"><ele>321.0</ele><time>2026-04-18T12:18:26.924Z</time></trkpt><trkpt lat="43.402892260768326" lon="10.911890507252265"><ele>322.0</ele><time>2026-04-18T12:18:27.929Z</time></trkpt><trkpt lat="43.40285963541211" lon="10.911606317023669"><ele>323.0</ele><time>2026-04-18T12:18:28.917Z</time></trkpt><trkpt lat="43.40282810286105" lon="10.911337824215124"><ele>325.0</ele><time>2026-04-18T12:18:29.941Z</time></trkpt><trkpt lat="43.40279725691548" lon="10.9110898653256"><ele>327.0</ele><time>2026-04-18T12:18:30.929Z</time></trkpt><trkpt lat="43.402763345284676" lon="10.910859765902698"><ele>329.0</ele><time>2026-04-18T12:18:32.097Z</time></trkpt><trkpt lat="43.40271870317083" lon="10.91064335731378"><ele>330.5</ele><time>2026-04-18T12:18:32.922Z</time></trkpt><trkpt lat="43.40265138292928" lon="10.910451717428424"><ele>332.0</ele><time>2026-04-18T12:18:33.927Z</time></trkpt><trkpt lat="43.40257691919491" lon="10.91027916833714"><ele>333.5</ele><time>2026-04-18T12:18:34.949Z</time></trkpt><trkpt lat="43.402513123796915" lon="10.910115513271439"><ele>335.0</ele><time>2026-04-18T12:18:35.928Z</time></trkpt><trkpt lat="43.40245401835423" lon="10.909958733455369"><ele>337.0</ele><time>2026-04-18T12:18:36.925Z</time></trkpt><trkpt lat="43.402397462643684" lon="10.90980756437735"><ele>339.0</ele><time>2026-04-18T12:18:37.94Z</time></trkpt><trkpt lat="43.40234010668102" lon="10.909654228473238"><ele>341.0</ele><time>2026-04-18T12:18:38.957Z</time></trkpt><trkpt lat="43.40228088078795" lon="10.909495893515055"><ele>343.0</ele><time>2026-04-18T12:18:39.925Z</time></trkpt><trkpt lat="43.4022204570283" lon="10.909331591140202"><ele>343.75</ele><time>2026-04-18T12:18:40.929Z</time></trkpt><trkpt lat="43.40215925077781" lon="10.909162966657968"><ele>344.5</ele><time>2026-04-18T12:18:41.928Z</time></trkpt><trkpt lat="43.402097206953464" lon="10.908996315159623"><ele>345.25</ele><time>2026-04-18T12:18:42.959Z</time></trkpt><trkpt lat="43.4020374807433" lon="10.90883948066235"><ele>346.0</ele><time>2026-04-18T12:18:43.928Z</time></trkpt><trkpt lat="43.40198152307473" lon="10.908698810151215"><ele>346.0</ele><time>2026-04-18T12:18:44.929Z</time></trkpt><trkpt lat="43.40192690690419" lon="10.908589326731196"><ele>346.0</ele><time>2026-04-18T12:18:45.929Z</time></trkpt><trkpt lat="43.40182804571905" lon="10.908494780144757"><ele>346.0</ele><time>2026-04-18T12:18:46.95Z</time></trkpt><trkpt lat="43.401724" lon="10.908497833333335"><ele>346.0</ele><time>2026-04-18T12:18:48.93Z</time></trkpt><trkpt lat="43.40161945333877" lon="10.908479144346032"><ele>346.0</ele><time>2026-04-18T12:18:49.92Z</time></trkpt><trkpt lat="43.40153786562761" lon="10.908492125129994"><ele>346.0</ele><time>2026-04-18T12:18:50.94Z</time></trkpt><trkpt lat="43.40145116666666" lon="10.908525833333334"><ele>346.0</ele><time>2026-04-18T12:18:51.953Z</time></trkpt><trkpt lat="43.40135583333334" lon="10.908535500000003"><ele>346.0</ele><time>2026-04-18T12:18:52.919Z</time></trkpt><trkpt lat="43.40125566666667" lon="10.908543333333334"><ele>346.0</ele><time>2026-04-18T12:18:53.929Z</time></trkpt><trkpt lat="43.40115216666666" lon="10.908549166666667"><ele>346.0</ele><time>2026-04-18T12:18:54.921Z</time></trkpt><trkpt lat="43.40104533333333" lon="10.908556833333334"><ele>346.0</ele><time>2026-04-18T12:18:55.953Z</time></trkpt><trkpt lat="43.400936" lon="10.908567666666666"><ele>346.0</ele><time>2026-04-18T12:18:56.928Z</time></trkpt><trkpt lat="43.40082483333334" lon="10.908580500000001"><ele>346.0</ele><time>2026-04-18T12:18:57.929Z</time></trkpt><trkpt lat="43.40071566666667" lon="10.908587499999998"><ele>346.0</ele><time>2026-04-18T12:18:58.926Z</time></trkpt><trkpt lat="43.40056216666667" lon="10.908599833333335"><ele>346.3333333333333</ele><time>2026-04-18T12:19:00.922Z</time></trkpt><trkpt lat="43.40047249999999" lon="10.908609166666666"><ele>346.66666666666663</ele><time>2026-04-18T12:19:01.937Z</time></trkpt><trkpt lat="43.40039466666667" lon="10.908617000000001"><ele>347.0</ele><time>2026-04-18T12:19:02.919Z</time></trkpt><trkpt lat="43.4003305" lon="10.908619999999999"><ele>347.3333333333333</ele><time>2026-04-18T12:19:03.953Z</time></trkpt><trkpt lat="43.40025533333334" lon="10.908610666666668"><ele>347.6666666666667</ele><time>2026-04-18T12:19:05.923Z</time></trkpt><trkpt lat="43.40019816666666" lon="10.908556333333335"><ele>348.0</ele><time>2026-04-18T12:19:09.926Z</time></trkpt><trkpt lat="43.400166999999996" lon="10.908458499999998"><ele>348.5</ele><time>2026-04-18T12:19:11.925Z</time></trkpt><trkpt lat="43.40013166666666" lon="10.908317833333335"><ele>349.0</ele><time>2026-04-18T12:19:13.924Z</time></trkpt><trkpt lat="43.40009416666667" lon="10.908242166666666"><ele>349.5</ele><time>2026-04-18T12:19:14.925Z</time></trkpt><trkpt lat="43.40004949999999" lon="10.908164"><ele>350.0</ele><time>2026-04-18T12:19:15.926Z</time></trkpt><trkpt lat="43.40000883333334" lon="10.908070666666667"><ele>350.5</ele><time>2026-04-18T12:19:16.926Z</time></trkpt><trkpt lat="43.399980000000006" lon="10.907968"><ele>351.0</ele><time>2026-04-18T12:19:17.938Z</time></trkpt><trkpt lat="43.39997233333334" lon="10.907852166666665"><ele>351.0</ele><time>2026-04-18T12:19:18.928Z</time></trkpt><trkpt lat="43.3999845" lon="10.907723833333334"><ele>351.0</ele><time>2026-04-18T12:19:19.922Z</time></trkpt><trkpt lat="43.4000205" lon="10.907503999999998"><ele>351.0</ele><time>2026-04-18T12:19:20.941Z</time></trkpt><trkpt lat="43.40005633333333" lon="10.907344666666665"><ele>351.0</ele><time>2026-04-18T12:19:21.928Z</time></trkpt><trkpt lat="43.400093500000004" lon="10.907185166666666"><ele>349.25</ele><time>2026-04-18T12:19:22.929Z</time></trkpt><trkpt lat="43.400128333333335" lon="10.907029"><ele>347.5</ele><time>2026-04-18T12:19:23.921Z</time></trkpt><trkpt lat="43.40018067254005" lon="10.906885780719838"><ele>345.75</ele><time>2026-04-18T12:19:25.034Z</time></trkpt><trkpt lat="43.40020016666667" lon="10.906734333333334"><ele>344.0</ele><time>2026-04-18T12:19:25.957Z</time></trkpt><trkpt lat="43.4002335" lon="10.906597333333332"><ele>343.4</ele><time>2026-04-18T12:19:26.916Z</time></trkpt><trkpt lat="43.400258" lon="10.906461833333333"><ele>342.79999999999995</ele><time>2026-04-18T12:19:27.932Z</time></trkpt><trkpt lat="43.400263833333334" lon="10.906320999999998"><ele>342.20000000000005</ele><time>2026-04-18T12:19:28.934Z</time></trkpt><trkpt lat="43.400248666666656" lon="10.906174666666669"><ele>341.6</ele><time>2026-04-18T12:19:29.92Z</time></trkpt><trkpt lat="43.40021149999999" lon="10.906024166666668"><ele>341.0</ele><time>2026-04-18T12:19:30.927Z</time></trkpt><trkpt lat="43.40017532301123" lon="10.905856470996062"><ele>341.0</ele><time>2026-04-18T12:19:31.921Z</time></trkpt><trkpt lat="43.40014102870753" lon="10.905780772218483"><ele>341.0</ele><time>2026-04-18T12:19:32.932Z</time></trkpt><trkpt lat="43.40006696057808" lon="10.905633909849143"><ele>341.0</ele><time>2026-04-18T12:19:33.948Z</time></trkpt><trkpt lat="43.39998333333333" lon="10.905502999999998"><ele>341.0</ele><time>2026-04-18T12:19:34.919Z</time></trkpt><trkpt lat="43.39992650000001" lon="10.905361833333332"><ele>341.0</ele><time>2026-04-18T12:19:35.922Z</time></trkpt><trkpt lat="43.39988733333333" lon="10.905229166666668"><ele>341.0</ele><time>2026-04-18T12:19:37.009Z</time></trkpt><trkpt lat="43.39985866666667" lon="10.905119166666667"><ele>341.0</ele><time>2026-04-18T12:19:37.928Z</time></trkpt><trkpt lat="43.399816166666675" lon="10.904985833333333"><ele>341.0</ele><time>2026-04-18T12:19:39.929Z</time></trkpt><trkpt lat="43.39976799637984" lon="10.904914373521862"><ele>341.0</ele><time>2026-04-18T12:19:40.925Z</time></trkpt><trkpt lat="43.39965619805566" lon="10.905002865705566"><ele>341.0</ele><time>2026-04-18T12:19:42.966Z</time></trkpt><trkpt lat="43.39962990842514" lon="10.905151517795412"><ele>341.0</ele><time>2026-04-18T12:19:44.926Z</time></trkpt><trkpt lat="43.39964108965214" lon="10.905251127148293"><ele>341.0</ele><time>2026-04-18T12:19:45.925Z</time></trkpt><trkpt lat="43.39967816055055" lon="10.905383732469522"><ele>341.0</ele><time>2026-04-18T12:19:46.966Z</time></trkpt><trkpt lat="43.39970270044832" lon="10.905481974872961"><ele>341.0</ele><time>2026-04-18T12:19:48.933Z</time></trkpt><trkpt lat="43.39968000000001" lon="10.905598999999999"><ele>341.0</ele><time>2026-04-18T12:19:50.945Z</time></trkpt><trkpt lat="43.39959683333333" lon="10.9055735"><ele>341.0</ele><time>2026-04-18T12:19:52.935Z</time></trkpt><trkpt lat="43.39954266666667" lon="10.905522833333336"><ele>336.83333333333337</ele><time>2026-04-18T12:19:53.927Z</time></trkpt><trkpt lat="43.3994695" lon="10.905414333333331"><ele>332.6666666666667</ele><time>2026-04-18T12:19:54.937Z</time></trkpt><trkpt lat="43.399435833333335" lon="10.905316000000001"><ele>328.5</ele><time>2026-04-18T12:19:55.944Z</time></trkpt><trkpt lat="43.39941016666666" lon="10.905207666666668"><ele>324.3333333333333</ele><time>2026-04-18T12:19:56.923Z</time></trkpt><trkpt lat="43.39938216666666" lon="10.905099"><ele>320.16666666666663</ele><time>2026-04-18T12:19:57.93Z</time></trkpt><trkpt lat="43.39934483333333" lon="10.905001333333331"><ele>316.0</ele><time>2026-04-18T12:19:58.928Z</time></trkpt><trkpt lat="43.399302" lon="10.904912166666668"><ele>316.0</ele><time>2026-04-18T12:19:59.962Z</time></trkpt><trkpt lat="43.399260000000005" lon="10.904767666666665"><ele>316.0</ele><time>2026-04-18T12:20:01.93Z</time></trkpt><trkpt lat="43.399267333333334" lon="10.904662666666665"><ele>316.0</ele><time>2026-04-18T12:20:02.933Z</time></trkpt><trkpt lat="43.399306833333334" lon="10.904567166666666"><ele>316.0</ele><time>2026-04-18T12:20:03.948Z</time></trkpt><trkpt lat="43.399364166666665" lon="10.904482166666666"><ele>316.0</ele><time>2026-04-18T12:20:04.969Z</time></trkpt><trkpt lat="43.39945516666667" lon="10.904363"><ele>316.0</ele><time>2026-04-18T12:20:05.93Z</time></trkpt><trkpt lat="43.39951607649146" lon="10.904291425388553"><ele>316.0</ele><time>2026-04-18T12:20:06.931Z</time></trkpt><trkpt lat="43.399545572390956" lon="10.904208397566379"><ele>316.0</ele><time>2026-04-18T12:20:07.948Z</time></trkpt><trkpt lat="43.39953466666666" lon="10.904073166666668"><ele>316.0</ele><time>2026-04-18T12:20:09.928Z</time></trkpt><trkpt lat="43.39941339387001" lon="10.90399833204967"><ele>316.0</ele><time>2026-04-18T12:20:12.962Z</time></trkpt><trkpt lat="43.39929286408312" lon="10.904080696648302"><ele>316.0</ele><time>2026-04-18T12:20:14.927Z</time></trkpt><trkpt lat="43.399229158397794" lon="10.904152131643327"><ele>316.0</ele><time>2026-04-18T12:20:16.042Z</time></trkpt><trkpt lat="43.399164377587645" lon="10.904230708383244"><ele>316.0</ele><time>2026-04-18T12:20:16.949Z</time></trkpt><trkpt lat="43.39909550090089" lon="10.90431434965467"><ele>316.0</ele><time>2026-04-18T12:20:17.925Z</time></trkpt><trkpt lat="43.39902902394693" lon="10.90440822466761"><ele>316.0</ele><time>2026-04-18T12:20:18.936Z</time></trkpt><trkpt lat="43.39896728106134" lon="10.904518283745482"><ele>316.0</ele><time>2026-04-18T12:20:19.936Z</time></trkpt><trkpt lat="43.39892334947493" lon="10.904648851820237"><ele>316.0</ele><time>2026-04-18T12:20:20.925Z</time></trkpt><trkpt lat="43.39888474095385" lon="10.904783865537883"><ele>316.0</ele><time>2026-04-18T12:20:21.956Z</time></trkpt><trkpt lat="43.39881475159707" lon="10.90499323888168"><ele>316.0</ele><time>2026-04-18T12:20:23.927Z</time></trkpt><trkpt lat="43.39875717143227" lon="10.905122716859271"><ele>311.25</ele><time>2026-04-18T12:20:24.929Z</time></trkpt><trkpt lat="43.39870019560124" lon="10.905248263865383"><ele>306.5</ele><time>2026-04-18T12:20:25.974Z</time></trkpt><trkpt lat="43.39862290665359" lon="10.905427943671857"><ele>301.75</ele><time>2026-04-18T12:20:26.93Z</time></trkpt><trkpt lat="43.39855810339858" lon="10.905577883572713"><ele>297.0</ele><time>2026-04-18T12:20:28.933Z</time></trkpt><trkpt lat="43.39852883333333" lon="10.905659500000002"><ele>297.0</ele><time>2026-04-18T12:20:29.964Z</time></trkpt><trkpt lat="43.39846433333334" lon="10.905678166666666"><ele>297.0</ele><time>2026-04-18T12:20:30.921Z</time></trkpt><trkpt lat="43.398399500000004" lon="10.905652166666668"><ele>297.0</ele><time>2026-04-18T12:20:31.923Z</time></trkpt><trkpt lat="43.3983445" lon="10.905588166666668"><ele>297.0</ele><time>2026-04-18T12:20:32.934Z</time></trkpt><trkpt lat="43.39830083333332" lon="10.905498833333334"><ele>297.0</ele><time>2026-04-18T12:20:33.955Z</time></trkpt><trkpt lat="43.39826816666667" lon="10.905388666666667"><ele>297.0</ele><time>2026-04-18T12:20:34.927Z</time></trkpt><trkpt lat="43.398240666666666" lon="10.905258166666664"><ele>297.0</ele><time>2026-04-18T12:20:35.919Z</time></trkpt><trkpt lat="43.398213" lon="10.905121000000001"><ele>297.0</ele><time>2026-04-18T12:20:36.929Z</time></trkpt><trkpt lat="43.39818816666666" lon="10.904990833333333"><ele>297.0</ele><time>2026-04-18T12:20:37.949Z</time></trkpt><trkpt lat="43.39817633333334" lon="10.904707166666666"><ele>297.0</ele><time>2026-04-18T12:20:39.925Z</time></trkpt><trkpt lat="43.39820233333334" lon="10.904595666666665"><ele>296.5</ele><time>2026-04-18T12:20:40.924Z</time></trkpt><trkpt lat="43.39822949999999" lon="10.904483166666667"><ele>296.0</ele><time>2026-04-18T12:20:41.93Z</time></trkpt><trkpt lat="43.39825750000001" lon="10.904381666666666"><ele>295.5</ele><time>2026-04-18T12:20:42.966Z</time></trkpt><trkpt lat="43.39828133333334" lon="10.904295500000002"><ele>295.0</ele><time>2026-04-18T12:20:43.93Z</time></trkpt><trkpt lat="43.398305463983604" lon="10.904161637873166"><ele>294.5</ele><time>2026-04-18T12:20:45.93Z</time></trkpt><trkpt lat="43.39824066007841" lon="10.904087237649058"><ele>294.0</ele><time>2026-04-18T12:20:47.986Z</time></trkpt><trkpt lat="43.39815167538428" lon="10.90410382255201"><ele>293.0</ele><time>2026-04-18T12:20:48.933Z</time></trkpt><trkpt lat="43.39804090807006" lon="10.904233041421323"><ele>292.0</ele><time>2026-04-18T12:20:50.965Z</time></trkpt><trkpt lat="43.397982626363515" lon="10.904303875423652"><ele>291.0</ele><time>2026-04-18T12:20:51.933Z</time></trkpt><trkpt lat="43.39787272900603" lon="10.90447821844224"><ele>290.0</ele><time>2026-04-18T12:20:53.925Z</time></trkpt><trkpt lat="43.397823603308055" lon="10.904588615433658"><ele>286.6666666666667</ele><time>2026-04-18T12:20:54.937Z</time></trkpt><trkpt lat="43.3977528385815" lon="10.904771327529"><ele>283.3333333333333</ele><time>2026-04-18T12:20:56.929Z</time></trkpt><trkpt lat="43.397677990816526" lon="10.904966233157952"><ele>280.0</ele><time>2026-04-18T12:20:57.935Z</time></trkpt><trkpt lat="43.3975880058647" lon="10.905224436346368"><ele>280.0</ele><time>2026-04-18T12:20:59.938Z</time></trkpt><trkpt lat="43.39754219724362" lon="10.905341306130547"><ele>280.0</ele><time>2026-04-18T12:21:00.925Z</time></trkpt><trkpt lat="43.39750983333333" lon="10.905462833333335"><ele>280.0</ele><time>2026-04-18T12:21:01.931Z</time></trkpt><trkpt lat="43.39745046739441" lon="10.905556787129715"><ele>280.0</ele><time>2026-04-18T12:21:02.935Z</time></trkpt><trkpt lat="43.39741134531144" lon="10.905666027562244"><ele>280.0</ele><time>2026-04-18T12:21:03.954Z</time></trkpt><trkpt lat="43.3973959434011" lon="10.905763943673223"><ele>280.0</ele><time>2026-04-18T12:21:04.937Z</time></trkpt><trkpt lat="43.39737641078426" lon="10.905848005428863"><ele>280.0</ele><time>2026-04-18T12:21:06.927Z</time></trkpt><trkpt lat="43.397271" lon="10.905872666666667"><ele>280.0</ele><time>2026-04-18T12:21:08.927Z</time></trkpt><trkpt lat="43.397211" lon="10.905770833333333"><ele>280.0</ele><time>2026-04-18T12:21:10.928Z</time></trkpt><trkpt lat="43.3971785" lon="10.905667000000003"><ele>280.0</ele><time>2026-04-18T12:21:11.926Z</time></trkpt><trkpt lat="43.39712049999999" lon="10.905502833333333"><ele>280.0</ele><time>2026-04-18T12:21:12.931Z</time></trkpt><trkpt lat="43.397087" lon="10.905399833333334"><ele>277.3333333333333</ele><time>2026-04-18T12:21:13.931Z</time></trkpt><trkpt lat="43.397059166666665" lon="10.905313166666668"><ele>274.66666666666663</ele><time>2026-04-18T12:21:14.924Z</time></trkpt><trkpt lat="43.39699716666667" lon="10.905204833333334"><ele>272.0</ele><time>2026-04-18T12:21:16.962Z</time></trkpt><trkpt lat="43.396890185429115" lon="10.905193883410359"><ele>269.3333333333333</ele><time>2026-04-18T12:21:18.925Z</time></trkpt><trkpt lat="43.396841022260624" lon="10.905251348531097"><ele>266.6666666666667</ele><time>2026-04-18T12:21:19.937Z</time></trkpt><trkpt lat="43.39680005110514" lon="10.90533859628076"><ele>264.0</ele><time>2026-04-18T12:21:20.954Z</time></trkpt><trkpt lat="43.39674868019897" lon="10.905482347000175"><ele>264.0</ele><time>2026-04-18T12:21:22.934Z</time></trkpt><trkpt lat="43.396711677187575" lon="10.905574767300827"><ele>264.0</ele><time>2026-04-18T12:21:23.939Z</time></trkpt><trkpt lat="43.39668216666667" lon="10.905674"><ele>264.0</ele><time>2026-04-18T12:21:24.951Z</time></trkpt><trkpt lat="43.396610833333334" lon="10.905703999999998"><ele>264.0</ele><time>2026-04-18T12:21:25.922Z</time></trkpt><trkpt lat="43.396542" lon="10.905705"><ele>264.0</ele><time>2026-04-18T12:21:26.931Z</time></trkpt><trkpt lat="43.39647063180625" lon="10.905701145085192"><ele>264.0</ele><time>2026-04-18T12:21:27.943Z</time></trkpt><trkpt lat="43.396431500000006" lon="10.9056195"><ele>264.0</ele><time>2026-04-18T12:21:28.939Z</time></trkpt><trkpt lat="43.39640066666666" lon="10.905535666666665"><ele>264.0</ele><time>2026-04-18T12:21:29.979Z</time></trkpt><trkpt lat="43.396395" lon="10.905435833333334"><ele>264.0</ele><time>2026-04-18T12:21:30.927Z</time></trkpt><trkpt lat="43.39641433333333" lon="10.905327"><ele>264.0</ele><time>2026-04-18T12:21:31.927Z</time></trkpt><trkpt lat="43.39644400000001" lon="10.905211333333334"><ele>264.0</ele><time>2026-04-18T12:21:32.935Z</time></trkpt><trkpt lat="43.396476666666665" lon="10.905081499999998"><ele>264.0</ele><time>2026-04-18T12:21:33.963Z</time></trkpt><trkpt lat="43.39651966666667" lon="10.904873166666667"><ele>264.2</ele><time>2026-04-18T12:21:34.922Z</time></trkpt><trkpt lat="43.39653416666666" lon="10.904720666666666"><ele>264.4</ele><time>2026-04-18T12:21:35.927Z</time></trkpt><trkpt lat="43.39653150000001" lon="10.904567833333333"><ele>264.6</ele><time>2026-04-18T12:21:36.937Z</time></trkpt><trkpt lat="43.396511833333335" lon="10.904416"><ele>264.8</ele><time>2026-04-18T12:21:37.966Z</time></trkpt><trkpt lat="43.39647633333334" lon="10.904266833333333"><ele>265.0</ele><time>2026-04-18T12:21:38.93Z</time></trkpt><trkpt lat="43.396412666666656" lon="10.904048000000001"><ele>264.2</ele><time>2026-04-18T12:21:40.922Z</time></trkpt><trkpt lat="43.39637550000001" lon="10.903916833333335"><ele>263.4</ele><time>2026-04-18T12:21:41.953Z</time></trkpt><trkpt lat="43.396351833333334" lon="10.903794666666666"><ele>262.6</ele><time>2026-04-18T12:21:42.955Z</time></trkpt><trkpt lat="43.396341500000005" lon="10.903608333333333"><ele>261.8</ele><time>2026-04-18T12:21:43.931Z</time></trkpt><trkpt lat="43.396325714542236" lon="10.903478866925456"><ele>261.0</ele><time>2026-04-18T12:21:44.927Z</time></trkpt><trkpt lat="43.3963515" lon="10.903217500000002"><ele>258.40000000000003</ele><time>2026-04-18T12:21:46.974Z</time></trkpt><trkpt lat="43.39635733333333" lon="10.903103333333336"><ele>255.8</ele><time>2026-04-18T12:21:47.931Z</time></trkpt><trkpt lat="43.396378166666665" lon="10.9030095"><ele>253.20000000000002</ele><time>2026-04-18T12:21:48.927Z</time></trkpt><trkpt lat="43.39648183333333" lon="10.902892999999997"><ele>250.60000000000002</ele><time>2026-04-18T12:21:50.962Z</time></trkpt><trkpt lat="43.39660950000001" lon="10.902816333333332"><ele>248.0</ele><time>2026-04-18T12:21:52.928Z</time></trkpt><trkpt lat="43.396654500000004" lon="10.902751499999999"><ele>248.0</ele><time>2026-04-18T12:21:53.922Z</time></trkpt><trkpt lat="43.39665733333333" lon="10.9025915"><ele>248.0</ele><time>2026-04-18T12:21:55.921Z</time></trkpt><trkpt lat="43.39659066666666" lon="10.902513333333332"><ele>248.0</ele><time>2026-04-18T12:21:57.926Z</time></trkpt><trkpt lat="43.39649510285248" lon="10.902450606323097"><ele>248.0</ele><time>2026-04-18T12:21:58.947Z</time></trkpt><trkpt lat="43.39641038611191" lon="10.902444841311484"><ele>248.0</ele><time>2026-04-18T12:21:59.933Z</time></trkpt><trkpt lat="43.39632649593023" lon="10.902466213521388"><ele>245.4</ele><time>2026-04-18T12:22:00.935Z</time></trkpt><trkpt lat="43.3962432206089" lon="10.90250701102616"><ele>242.8</ele><time>2026-04-18T12:22:01.931Z</time></trkpt><trkpt lat="43.396163178554566" lon="10.90257331029023"><ele>240.2</ele><time>2026-04-18T12:22:02.937Z</time></trkpt><trkpt lat="43.396089489643884" lon="10.9026855344721"><ele>237.6</ele><time>2026-04-18T12:22:03.954Z</time></trkpt><trkpt lat="43.39603414347649" lon="10.902800674666594"><ele>235.0</ele><time>2026-04-18T12:22:04.931Z</time></trkpt><trkpt lat="43.39597028218198" lon="10.902900693816697"><ele>234.99999999999997</ele><time>2026-04-18T12:22:05.929Z</time></trkpt><trkpt lat="43.39591067632798" lon="10.902995874607685"><ele>235.0</ele><time>2026-04-18T12:22:06.941Z</time></trkpt><trkpt lat="43.395862233331066" lon="10.903076895141837"><ele>235.0</ele><time>2026-04-18T12:22:07.95Z</time></trkpt><trkpt lat="43.3958054078403" lon="10.90318162052975"><ele>235.0</ele><time>2026-04-18T12:22:09.923Z</time></trkpt><trkpt lat="43.39577223176714" lon="10.903270168521688"><ele>234.99999999999997</ele><time>2026-04-18T12:22:10.934Z</time></trkpt><trkpt lat="43.39575423788782" lon="10.903376871667074"><ele>235.0</ele><time>2026-04-18T12:22:11.938Z</time></trkpt><trkpt lat="43.395747775787974" lon="10.903547490883657"><ele>236.0</ele><time>2026-04-18T12:22:12.935Z</time></trkpt><trkpt lat="43.39574944901055" lon="10.903649499999998"><ele>237.0</ele><time>2026-04-18T12:22:13.922Z</time></trkpt><trkpt lat="43.39575249999999" lon="10.903814666666664"><ele>238.0</ele><time>2026-04-18T12:22:15.942Z</time></trkpt><trkpt lat="43.3956615" lon="10.9038555"><ele>239.0</ele><time>2026-04-18T12:22:17.934Z</time></trkpt><trkpt lat="43.39559533333333" lon="10.903739166666666"><ele>240.0</ele><time>2026-04-18T12:22:19.946Z</time></trkpt><trkpt lat="43.39557966666666" lon="10.903646499999999"><ele>240.0</ele><time>2026-04-18T12:22:20.945Z</time></trkpt><trkpt lat="43.3955615" lon="10.903539333333333"><ele>240.0</ele><time>2026-04-18T12:22:21.938Z</time></trkpt><trkpt lat="43.3955425" lon="10.903423666666667"><ele>240.0</ele><time>2026-04-18T12:22:22.935Z</time></trkpt><trkpt lat="43.39552483333334" lon="10.903300333333334"><ele>240.0</ele><time>2026-04-18T12:22:23.937Z</time></trkpt><trkpt lat="43.39551066666666" lon="10.903168666666668"><ele>240.0</ele><time>2026-04-18T12:22:24.954Z</time></trkpt><trkpt lat="43.395505166666666" lon="10.903036166666668"><ele>239.16666666666666</ele><time>2026-04-18T12:22:25.926Z</time></trkpt><trkpt lat="43.39550866666667" lon="10.902916833333332"><ele>238.33333333333331</ele><time>2026-04-18T12:22:26.935Z</time></trkpt><trkpt lat="43.395514666666664" lon="10.902813"><ele>237.5</ele><time>2026-04-18T12:22:27.933Z</time></trkpt><trkpt lat="43.39551316666666" lon="10.902720666666669"><ele>236.66666666666666</ele><time>2026-04-18T12:22:28.94Z</time></trkpt><trkpt lat="43.395453333333336" lon="10.902592499999999"><ele>235.83333333333331</ele><time>2026-04-18T12:22:30.936Z</time></trkpt><trkpt lat="43.39537283333334" lon="10.902566666666667"><ele>235.0</ele><time>2026-04-18T12:22:32.937Z</time></trkpt><trkpt lat="43.39530866666667" lon="10.902576166666664"><ele>233.8</ele><time>2026-04-18T12:22:33.952Z</time></trkpt><trkpt lat="43.39523211358463" lon="10.902564391569658"><ele>232.6</ele><time>2026-04-18T12:22:34.925Z</time></trkpt><trkpt lat="43.39510649124743" lon="10.90256895141454"><ele>231.39999999999998</ele><time>2026-04-18T12:22:36.022Z</time></trkpt><trkpt lat="43.39502100327363" lon="10.902563551202386"><ele>230.2</ele><time>2026-04-18T12:22:36.943Z</time></trkpt><trkpt lat="43.394939490284756" lon="10.902549129607346"><ele>229.0</ele><time>2026-04-18T12:22:37.956Z</time></trkpt><trkpt lat="43.394812833333326" lon="10.9024995"><ele>228.99999999999997</ele><time>2026-04-18T12:22:39.935Z</time></trkpt><trkpt lat="43.394783833333335" lon="10.902395"><ele>229.0</ele><time>2026-04-18T12:22:41.964Z</time></trkpt><trkpt lat="43.39481316666667" lon="10.902288166666665"><ele>229.0</ele><time>2026-04-18T12:22:42.922Z</time></trkpt><trkpt lat="43.39485416666666" lon="10.902214166666665"><ele>229.0</ele><time>2026-04-18T12:22:43.926Z</time></trkpt><trkpt lat="43.394899666666674" lon="10.902126666666668"><ele>228.99999999999997</ele><time>2026-04-18T12:22:44.935Z</time></trkpt><trkpt lat="43.39494883333334" lon="10.902026000000001"><ele>229.0</ele><time>2026-04-18T12:22:45.936Z</time></trkpt><trkpt lat="43.39499666666667" lon="10.901915666666666"><ele>229.0</ele><time>2026-04-18T12:22:46.97Z</time></trkpt><trkpt lat="43.395044000000006" lon="10.901801833333332"><ele>228.99999999999997</ele><time>2026-04-18T12:22:47.925Z</time></trkpt><trkpt lat="43.39509283333334" lon="10.901685833333332"><ele>228.99999999999997</ele><time>2026-04-18T12:22:48.928Z</time></trkpt><trkpt lat="43.39514066666667" lon="10.901571166666669"><ele>229.0</ele><time>2026-04-18T12:22:49.953Z</time></trkpt><trkpt lat="43.39517683333333" lon="10.901454666666666"><ele>229.0</ele><time>2026-04-18T12:22:50.973Z</time></trkpt><trkpt lat="43.39520483333334" lon="10.901329666666667"><ele>229.2</ele><time>2026-04-18T12:22:51.931Z</time></trkpt><trkpt lat="43.395212333333326" lon="10.901124"><ele>229.39999999999998</ele><time>2026-04-18T12:22:53.932Z</time></trkpt><trkpt lat="43.395199166666664" lon="10.900988"><ele>229.6</ele><time>2026-04-18T12:22:54.955Z</time></trkpt><trkpt lat="43.39518700000001" lon="10.900862833333333"><ele>229.8</ele><time>2026-04-18T12:22:55.93Z</time></trkpt><trkpt lat="43.39518733333333" lon="10.900746499999999"><ele>230.0</ele><time>2026-04-18T12:22:56.931Z</time></trkpt><trkpt lat="43.39520266666666" lon="10.900638166666665"><ele>231.75</ele><time>2026-04-18T12:22:57.923Z</time></trkpt><trkpt lat="43.395229333333326" lon="10.900529999999998"><ele>233.5</ele><time>2026-04-18T12:22:58.946Z</time></trkpt><trkpt lat="43.3952735" lon="10.900351000000002"><ele>235.25</ele><time>2026-04-18T12:22:59.934Z</time></trkpt><trkpt lat="43.395337547967884" lon="10.900090384285212"><ele>237.0</ele><time>2026-04-18T12:23:01.932Z</time></trkpt><trkpt lat="43.395427798837225" lon="10.899895029672937"><ele>235.0</ele><time>2026-04-18T12:23:03.918Z</time></trkpt><trkpt lat="43.39546041877576" lon="10.89971738177717"><ele>233.0</ele><time>2026-04-18T12:23:04.935Z</time></trkpt><trkpt lat="43.39544477885877" lon="10.899491431232287"><ele>231.0</ele><time>2026-04-18T12:23:05.928Z</time></trkpt><trkpt lat="43.395519833333346" lon="10.899309833333332"><ele>233.0</ele><time>2026-04-18T12:23:07.959Z</time></trkpt><trkpt lat="43.395596499999996" lon="10.899207833333332"><ele>235.00000000000003</ele><time>2026-04-18T12:23:08.93Z</time></trkpt><trkpt lat="43.39567183333333" lon="10.899088333333335"><ele>237.00000000000003</ele><time>2026-04-18T12:23:09.934Z</time></trkpt><trkpt lat="43.39574266666667" lon="10.898963"><ele>239.0</ele><time>2026-04-18T12:23:10.938Z</time></trkpt><trkpt lat="43.395823372099514" lon="10.898878046079368"><ele>241.0</ele><time>2026-04-18T12:23:11.956Z</time></trkpt><trkpt lat="43.39589455047626" lon="10.898790221672222"><ele>241.0</ele><time>2026-04-18T12:23:12.979Z</time></trkpt><trkpt lat="43.39595657901558" lon="10.898700336444488"><ele>241.00000000000003</ele><time>2026-04-18T12:23:13.926Z</time></trkpt><trkpt lat="43.39600043797273" lon="10.89859433843236"><ele>241.00000000000003</ele><time>2026-04-18T12:23:14.927Z</time></trkpt><trkpt lat="43.396025166666675" lon="10.898406666666665"><ele>241.0</ele><time>2026-04-18T12:23:15.958Z</time></trkpt><trkpt lat="43.396057" lon="10.898291666666669"><ele>241.0</ele><time>2026-04-18T12:23:16.93Z</time></trkpt><trkpt lat="43.39613366666667" lon="10.898139666666667"><ele>241.20000000000002</ele><time>2026-04-18T12:23:18.918Z</time></trkpt><trkpt lat="43.396222000838016" lon="10.898084291028535"><ele>241.40000000000003</ele><time>2026-04-18T12:23:19.944Z</time></trkpt><trkpt lat="43.39631913468716" lon="10.898022869022244"><ele>241.6</ele><time>2026-04-18T12:23:20.975Z</time></trkpt><trkpt lat="43.39641849531557" lon="10.897952365049157"><ele>241.8</ele><time>2026-04-18T12:23:21.939Z</time></trkpt><trkpt lat="43.39650651224293" lon="10.897868167376958"><ele>242.0</ele><time>2026-04-18T12:23:22.927Z</time></trkpt><trkpt lat="43.396573000000004" lon="10.897770666666668"><ele>242.0</ele><time>2026-04-18T12:23:23.939Z</time></trkpt><trkpt lat="43.39664116666666" lon="10.897698666666669"><ele>242.0</ele><time>2026-04-18T12:23:24.96Z</time></trkpt><trkpt lat="43.39673659288435" lon="10.897604896798356"><ele>242.0</ele><time>2026-04-18T12:23:25.935Z</time></trkpt><trkpt lat="43.39679038693885" lon="10.897477758657626"><ele>242.0</ele><time>2026-04-18T12:23:27.937Z</time></trkpt><trkpt lat="43.39679366666666" lon="10.8973725"><ele>242.0</ele><time>2026-04-18T12:23:28.959Z</time></trkpt><trkpt lat="43.39680866666666" lon="10.897267166666666"><ele>244.33333333333334</ele><time>2026-04-18T12:23:29.938Z</time></trkpt><trkpt lat="43.396825166666666" lon="10.897159833333335"><ele>246.66666666666669</ele><time>2026-04-18T12:23:30.922Z</time></trkpt><trkpt lat="43.396882712764956" lon="10.89701949573736"><ele>249.0</ele><time>2026-04-18T12:23:31.935Z</time></trkpt><trkpt lat="43.39692361410391" lon="10.896924374164943"><ele>251.33333333333331</ele><time>2026-04-18T12:23:32.93Z</time></trkpt><trkpt lat="43.39696311044668" lon="10.896827615113496"><ele>253.66666666666666</ele><time>2026-04-18T12:23:33.927Z</time></trkpt><trkpt lat="43.3970005773618" lon="10.896721521752033"><ele>256.0</ele><time>2026-04-18T12:23:34.936Z</time></trkpt><trkpt lat="43.397011000000006" lon="10.896593833333334"><ele>255.5</ele><time>2026-04-18T12:23:35.919Z</time></trkpt><trkpt lat="43.397035499999994" lon="10.89646883333333"><ele>255.0</ele><time>2026-04-18T12:23:36.938Z</time></trkpt><trkpt lat="43.39712500000001" lon="10.896205"><ele>254.5</ele><time>2026-04-18T12:23:38.931Z</time></trkpt><trkpt lat="43.39718283333333" lon="10.896081166666667"><ele>254.0</ele><time>2026-04-18T12:23:39.926Z</time></trkpt><trkpt lat="43.3972285" lon="10.895951833333333"><ele>255.75</ele><time>2026-04-18T12:23:40.93Z</time></trkpt><trkpt lat="43.39725549999999" lon="10.895807500000002"><ele>257.5</ele><time>2026-04-18T12:23:41.96Z</time></trkpt><trkpt lat="43.397286" lon="10.895586333333332"><ele>259.25</ele><time>2026-04-18T12:23:43.929Z</time></trkpt><trkpt lat="43.397346500000005" lon="10.895376333333335"><ele>261.0</ele><time>2026-04-18T12:23:44.937Z</time></trkpt><trkpt lat="43.3974095" lon="10.895243166666669"><ele>263.25</ele><time>2026-04-18T12:23:45.959Z</time></trkpt><trkpt lat="43.3975345" lon="10.894997000000002"><ele>265.5</ele><time>2026-04-18T12:23:47.928Z</time></trkpt><trkpt lat="43.397613500000006" lon="10.894887833333334"><ele>267.75</ele><time>2026-04-18T12:23:49.015Z</time></trkpt><trkpt lat="43.39771861915016" lon="10.894822274508497"><ele>270.0</ele><time>2026-04-18T12:23:49.948Z</time></trkpt><trkpt lat="43.39786537522686" lon="10.89471878938999"><ele>270.0</ele><time>2026-04-18T12:23:51.931Z</time></trkpt><trkpt lat="43.39795287267425" lon="10.894655058870264"><ele>270.0</ele><time>2026-04-18T12:23:52.921Z</time></trkpt><trkpt lat="43.398082096315456" lon="10.894547069001517"><ele>270.0</ele><time>2026-04-18T12:23:53.933Z</time></trkpt><trkpt lat="43.39816324434559" lon="10.894453163840025"><ele>270.0</ele><time>2026-04-18T12:23:54.939Z</time></trkpt><trkpt lat="43.398235301145874" lon="10.894352395243708"><ele>270.8</ele><time>2026-04-18T12:23:55.936Z</time></trkpt><trkpt lat="43.39829537727439" lon="10.89424565764245"><ele>271.6</ele><time>2026-04-18T12:23:56.923Z</time></trkpt><trkpt lat="43.39833" lon="10.894123500000001"><ele>272.4</ele><time>2026-04-18T12:23:57.941Z</time></trkpt><trkpt lat="43.39839657622149" lon="10.894041260161025"><ele>273.2</ele><time>2026-04-18T12:23:58.955Z</time></trkpt><trkpt lat="43.39849285294233" lon="10.893914752349282"><ele>274.0</ele><time>2026-04-18T12:24:00.933Z</time></trkpt><trkpt lat="43.398585000000004" lon="10.893767333333336"><ele>274.0</ele><time>2026-04-18T12:24:01.936Z</time></trkpt><trkpt lat="43.398654333333326" lon="10.893677666666667"><ele>274.0</ele><time>2026-04-18T12:24:02.952Z</time></trkpt><trkpt lat="43.398722" lon="10.89358716666667"><ele>274.0</ele><time>2026-04-18T12:24:03.923Z</time></trkpt><trkpt lat="43.3988655" lon="10.893415666666666"><ele>274.0</ele><time>2026-04-18T12:24:05.936Z</time></trkpt><trkpt lat="43.398946499999994" lon="10.893350833333335"><ele>275.2</ele><time>2026-04-18T12:24:06.935Z</time></trkpt><trkpt lat="43.39903283333333" lon="10.893303833333334"><ele>276.4</ele><time>2026-04-18T12:24:07.944Z</time></trkpt><trkpt lat="43.399118833333326" lon="10.893267500000002"><ele>277.6</ele><time>2026-04-18T12:24:08.928Z</time></trkpt><trkpt lat="43.39928633333334" lon="10.893244134933994"><ele>278.8</ele><time>2026-04-18T12:24:10.919Z</time></trkpt><trkpt lat="43.39936001938027" lon="10.893255945863629"><ele>280.0</ele><time>2026-04-18T12:24:11.927Z</time></trkpt><trkpt lat="43.3994289512131" lon="10.893265316414675"><ele>280.0</ele><time>2026-04-18T12:24:12.931Z</time></trkpt><trkpt lat="43.39955165602456" lon="10.893199944562719"><ele>280.0</ele><time>2026-04-18T12:24:14.935Z</time></trkpt><trkpt lat="43.39959583333333" lon="10.893096666666667"><ele>280.0</ele><time>2026-04-18T12:24:16.982Z</time></trkpt><trkpt lat="43.399647333333334" lon="10.892974333333331"><ele>280.0</ele><time>2026-04-18T12:24:18.942Z</time></trkpt><trkpt lat="43.39968366666667" lon="10.892872666666664"><ele>280.0</ele><time>2026-04-18T12:24:20.931Z</time></trkpt><trkpt lat="43.39969249063823" lon="10.892782025878267"><ele>280.0</ele><time>2026-04-18T12:24:23.936Z</time></trkpt><trkpt lat="43.399572500000005" lon="10.892821833333334"><ele>280.0</ele><time>2026-04-18T12:24:27.944Z</time></trkpt><trkpt lat="43.39950533333334" lon="10.892907333333335"><ele>280.0</ele><time>2026-04-18T12:24:29.934Z</time></trkpt><trkpt lat="43.39941783333334" lon="10.892952"><ele>280.0</ele><time>2026-04-18T12:24:31.928Z</time></trkpt><trkpt lat="43.39934683333333" lon="10.892959666666666"><ele>280.0</ele><time>2026-04-18T12:24:32.944Z</time></trkpt><trkpt lat="43.39926749999999" lon="10.8929575"><ele>280.0</ele><time>2026-04-18T12:24:33.925Z</time></trkpt><trkpt lat="43.3991795" lon="10.892956333333332"><ele>280.0</ele><time>2026-04-18T12:24:34.92Z</time></trkpt><trkpt lat="43.39908233333334" lon="10.892962666666664"><ele>280.0</ele><time>2026-04-18T12:24:35.918Z</time></trkpt><trkpt lat="43.39897716666666" lon="10.892975000000002"><ele>280.0</ele><time>2026-04-18T12:24:36.955Z</time></trkpt><trkpt lat="43.398807500000004" lon="10.8930005"><ele>283.5</ele><time>2026-04-18T12:24:37.927Z</time></trkpt><trkpt lat="43.39868633333334" lon="10.893025166666666"><ele>287.0</ele><time>2026-04-18T12:24:38.93Z</time></trkpt><trkpt lat="43.39856216666667" lon="10.893065000000002"><ele>290.5</ele><time>2026-04-18T12:24:39.927Z</time></trkpt><trkpt lat="43.398438166666665" lon="10.893117833333335"><ele>294.0</ele><time>2026-04-18T12:24:40.932Z</time></trkpt><trkpt lat="43.39831383333334" lon="10.893168666666668"><ele>294.0</ele><time>2026-04-18T12:24:41.952Z</time></trkpt><trkpt lat="43.398188000000005" lon="10.893216833333334"><ele>294.0</ele><time>2026-04-18T12:24:42.935Z</time></trkpt><trkpt lat="43.3980595" lon="10.893261666666668"><ele>294.0</ele><time>2026-04-18T12:24:43.927Z</time></trkpt><trkpt lat="43.39799299999999" lon="10.893276666666667"><ele>294.0</ele><time>2026-04-18T12:24:44.939Z</time></trkpt><trkpt lat="43.39785799999999" lon="10.893292833333332"><ele>296.25</ele><time>2026-04-18T12:24:45.961Z</time></trkpt><trkpt lat="43.39771916666667" lon="10.893299000000003"><ele>298.5</ele><time>2026-04-18T12:24:46.94Z</time></trkpt><trkpt lat="43.397578833333334" lon="10.893296000000001"><ele>300.75</ele><time>2026-04-18T12:24:47.929Z</time></trkpt><trkpt lat="43.397439500000004" lon="10.893285166666665"><ele>303.0</ele><time>2026-04-18T12:24:48.936Z</time></trkpt><trkpt lat="43.397301666666664" lon="10.89327933333333"><ele>301.5</ele><time>2026-04-18T12:24:49.952Z</time></trkpt><trkpt lat="43.397096" lon="10.8933025"><ele>300.0</ele><time>2026-04-18T12:24:50.932Z</time></trkpt><trkpt lat="43.39695983333333" lon="10.893341666666666"><ele>298.5</ele><time>2026-04-18T12:24:51.915Z</time></trkpt><trkpt lat="43.396892166666674" lon="10.893367333333334"><ele>297.0</ele><time>2026-04-18T12:24:52.934Z</time></trkpt><trkpt lat="43.3967575" lon="10.893432833333334"><ele>297.0</ele><time>2026-04-18T12:24:53.944Z</time></trkpt><trkpt lat="43.39655533333333" lon="10.893552"><ele>297.0</ele><time>2026-04-18T12:24:54.925Z</time></trkpt><trkpt lat="43.3964865" lon="10.8935955"><ele>297.0</ele><time>2026-04-18T12:24:55.92Z</time></trkpt><trkpt lat="43.39634516666667" lon="10.893681833333336"><ele>301.6666666666667</ele><time>2026-04-18T12:24:56.92Z</time></trkpt><trkpt lat="43.396198999999996" lon="10.893772499999999"><ele>306.33333333333337</ele><time>2026-04-18T12:24:57.955Z</time></trkpt><trkpt lat="43.39604883333333" lon="10.893865666666667"><ele>311.0</ele><time>2026-04-18T12:24:58.949Z</time></trkpt><trkpt lat="43.39589550000001" lon="10.893957000000002"><ele>311.0</ele><time>2026-04-18T12:24:59.934Z</time></trkpt><trkpt lat="43.395742999999996" lon="10.894047333333333"><ele>311.0</ele><time>2026-04-18T12:25:00.924Z</time></trkpt><trkpt lat="43.39559250000001" lon="10.894136166666666"><ele>311.0</ele><time>2026-04-18T12:25:01.943Z</time></trkpt><trkpt lat="43.39544566666667" lon="10.894226499999998"><ele>312.6666666666667</ele><time>2026-04-18T12:25:02.956Z</time></trkpt><trkpt lat="43.39530183333333" lon="10.894319666666668"><ele>314.3333333333333</ele><time>2026-04-18T12:25:03.924Z</time></trkpt><trkpt lat="43.39516033333332" lon="10.894416333333334"><ele>316.0</ele><time>2026-04-18T12:25:04.927Z</time></trkpt><trkpt lat="43.39502383333333" lon="10.894525333333336"><ele>316.0</ele><time>2026-04-18T12:25:05.926Z</time></trkpt><trkpt lat="43.39489449999999" lon="10.894652833333335"><ele>316.0</ele><time>2026-04-18T12:25:06.927Z</time></trkpt><trkpt lat="43.39476916666667" lon="10.894789833333336"><ele>316.0</ele><time>2026-04-18T12:25:07.924Z</time></trkpt><trkpt lat="43.394646166666675" lon="10.894928499999999"><ele>318.66666666666663</ele><time>2026-04-18T12:25:08.924Z</time></trkpt><trkpt lat="43.39452166666666" lon="10.895065333333331"><ele>321.3333333333333</ele><time>2026-04-18T12:25:09.94Z</time></trkpt><trkpt lat="43.39438983333333" lon="10.895196666666667"><ele>324.0</ele><time>2026-04-18T12:25:10.931Z</time></trkpt><trkpt lat="43.39424949999999" lon="10.895321166666667"><ele>324.0</ele><time>2026-04-18T12:25:11.932Z</time></trkpt><trkpt lat="43.394103166666675" lon="10.895436500000002"><ele>324.0</ele><time>2026-04-18T12:25:12.927Z</time></trkpt><trkpt lat="43.39395316666667" lon="10.895543000000002"><ele>324.0</ele><time>2026-04-18T12:25:14.017Z</time></trkpt><trkpt lat="43.39380083333334" lon="10.895639666666666"><ele>327.0</ele><time>2026-04-18T12:25:14.928Z</time></trkpt><trkpt lat="43.393648500000005" lon="10.895722000000001"><ele>330.0</ele><time>2026-04-18T12:25:15.921Z</time></trkpt><trkpt lat="43.393500333333336" lon="10.895786666666668"><ele>333.0</ele><time>2026-04-18T12:25:16.931Z</time></trkpt><trkpt lat="43.393358166666665" lon="10.895831500000002"><ele>333.0</ele><time>2026-04-18T12:25:17.936Z</time></trkpt><trkpt lat="43.3932315" lon="10.895858500000001"><ele>333.0</ele><time>2026-04-18T12:25:18.927Z</time></trkpt><trkpt lat="43.39306583333334" lon="10.895874833333334"><ele>333.0</ele><time>2026-04-18T12:25:19.928Z</time></trkpt><trkpt lat="43.39296383333333" lon="10.895876500000002"><ele>333.0</ele><time>2026-04-18T12:25:20.929Z</time></trkpt><trkpt lat="43.392867333333335" lon="10.895871499999998"><ele>333.0</ele><time>2026-04-18T12:25:21.934Z</time></trkpt><trkpt lat="43.392733833333324" lon="10.895855"><ele>333.0</ele><time>2026-04-18T12:25:23.921Z</time></trkpt><trkpt lat="43.392654166666674" lon="10.895829666666668"><ele>333.0</ele><time>2026-04-18T12:25:24.931Z</time></trkpt><trkpt lat="43.392587" lon="10.895787499999997"><ele>333.0</ele><time>2026-04-18T12:25:25.926Z</time></trkpt><trkpt lat="43.392522166666666" lon="10.895700166666666"><ele>333.0</ele><time>2026-04-18T12:25:26.928Z</time></trkpt><trkpt lat="43.39249316666666" lon="10.895585666666666"><ele>333.0</ele><time>2026-04-18T12:25:28.972Z</time></trkpt><trkpt lat="43.3924905" lon="10.895442500000001"><ele>333.0</ele><time>2026-04-18T12:25:29.922Z</time></trkpt><trkpt lat="43.39249666666666" lon="10.895330833333333"><ele>333.0</ele><time>2026-04-18T12:25:30.929Z</time></trkpt><trkpt lat="43.392483081707894" lon="10.895207485190179"><ele>333.0</ele><time>2026-04-18T12:25:31.926Z</time></trkpt><trkpt lat="43.392498833333335" lon="10.895071833333333"><ele>333.0</ele><time>2026-04-18T12:25:32.931Z</time></trkpt><trkpt lat="43.39249683333335" lon="10.894939166666665"><ele>333.0</ele><time>2026-04-18T12:25:33.93Z</time></trkpt><trkpt lat="43.39250233333334" lon="10.894808"><ele>333.0</ele><time>2026-04-18T12:25:34.927Z</time></trkpt><trkpt lat="43.39252533333333" lon="10.894679666666665"><ele>333.0</ele><time>2026-04-18T12:25:35.929Z</time></trkpt><trkpt lat="43.39257666666667" lon="10.894556666666665"><ele>333.0</ele><time>2026-04-18T12:25:36.952Z</time></trkpt><trkpt lat="43.392649833333344" lon="10.894441166666665"><ele>333.0</ele><time>2026-04-18T12:25:37.989Z</time></trkpt><trkpt lat="43.39284369852504" lon="10.894221860748257"><ele>333.0</ele><time>2026-04-18T12:25:39.92Z</time></trkpt><trkpt lat="43.39294797645216" lon="10.894108066726599"><ele>333.0</ele><time>2026-04-18T12:25:40.944Z</time></trkpt><trkpt lat="43.393057826260936" lon="10.894002359024592"><ele>333.0</ele><time>2026-04-18T12:25:41.923Z</time></trkpt><trkpt lat="43.39317610424127" lon="10.893915113879316"><ele>333.0</ele><time>2026-04-18T12:25:42.92Z</time></trkpt><trkpt lat="43.39329498737376" lon="10.893833338742056"><ele>334.75</ele><time>2026-04-18T12:25:43.924Z</time></trkpt><trkpt lat="43.39341073380308" lon="10.893747530661937"><ele>336.5</ele><time>2026-04-18T12:25:44.957Z</time></trkpt><trkpt lat="43.39352276978095" lon="10.893649203981852"><ele>338.25</ele><time>2026-04-18T12:25:45.953Z</time></trkpt><trkpt lat="43.39361678126858" lon="10.893511887455212"><ele>340.0</ele><time>2026-04-18T12:25:46.928Z</time></trkpt><trkpt lat="43.39369724359025" lon="10.893364269439912"><ele>340.0</ele><time>2026-04-18T12:25:47.928Z</time></trkpt><trkpt lat="43.39373296059539" lon="10.893289405017203"><ele>340.0</ele><time>2026-04-18T12:25:48.932Z</time></trkpt><trkpt lat="43.39382333333333" lon="10.893058666666665"><ele>340.0</ele><time>2026-04-18T12:25:49.959Z</time></trkpt><trkpt lat="43.39388333333333" lon="10.892916333333336"><ele>340.0</ele><time>2026-04-18T12:25:50.934Z</time></trkpt><trkpt lat="43.393921666666664" lon="10.892765166666669"><ele>340.25</ele><time>2026-04-18T12:25:51.931Z</time></trkpt><trkpt lat="43.393934333333334" lon="10.892608833333334"><ele>340.5</ele><time>2026-04-18T12:25:52.928Z</time></trkpt><trkpt lat="43.393916833333336" lon="10.892454833333332"><ele>340.75</ele><time>2026-04-18T12:25:53.957Z</time></trkpt><trkpt lat="43.393867833333324" lon="10.892315"><ele>341.0</ele><time>2026-04-18T12:25:54.931Z</time></trkpt><trkpt lat="43.39378983333332" lon="10.892189833333335"><ele>340.5</ele><time>2026-04-18T12:25:55.937Z</time></trkpt><trkpt lat="43.393744" lon="10.892129666666664"><ele>340.0</ele><time>2026-04-18T12:25:56.922Z</time></trkpt><trkpt lat="43.39364633333333" lon="10.892006499999999"><ele>339.5</ele><time>2026-04-18T12:25:57.941Z</time></trkpt><trkpt lat="43.393547833333336" lon="10.8918765"><ele>339.0</ele><time>2026-04-18T12:25:58.936Z</time></trkpt><trkpt lat="43.39345183333334" lon="10.891735000000002"><ele>342.5</ele><time>2026-04-18T12:25:59.933Z</time></trkpt><trkpt lat="43.393364166666665" lon="10.891577833333335"><ele>346.0</ele><time>2026-04-18T12:26:00.936Z</time></trkpt><trkpt lat="43.393286833333335" lon="10.891410166666667"><ele>349.5</ele><time>2026-04-18T12:26:01.936Z</time></trkpt><trkpt lat="43.39321766666667" lon="10.891246166666667"><ele>353.0</ele><time>2026-04-18T12:26:02.947Z</time></trkpt><trkpt lat="43.39315416666667" lon="10.8910915"><ele>353.0</ele><time>2026-04-18T12:26:03.923Z</time></trkpt><trkpt lat="43.39309783333333" lon="10.890948"><ele>353.0</ele><time>2026-04-18T12:26:04.926Z</time></trkpt><trkpt lat="43.39306366666666" lon="10.890806666666668"><ele>353.0</ele><time>2026-04-18T12:26:05.928Z</time></trkpt><trkpt lat="43.39306633333334" lon="10.890665166666667"><ele>353.0</ele><time>2026-04-18T12:26:06.948Z</time></trkpt><trkpt lat="43.393100833333335" lon="10.8905305"><ele>353.0</ele><time>2026-04-18T12:26:07.932Z</time></trkpt><trkpt lat="43.393154" lon="10.890395833333333"><ele>356.0</ele><time>2026-04-18T12:26:08.934Z</time></trkpt><trkpt lat="43.39321433333333" lon="10.890253833333334"><ele>359.0</ele><time>2026-04-18T12:26:09.938Z</time></trkpt><trkpt lat="43.393279" lon="10.890101666666665"><ele>362.0</ele><time>2026-04-18T12:26:10.953Z</time></trkpt><trkpt lat="43.393348" lon="10.889939666666665"><ele>365.0</ele><time>2026-04-18T12:26:11.926Z</time></trkpt><trkpt lat="43.39342016666666" lon="10.889770833333333"><ele>365.0</ele><time>2026-04-18T12:26:12.929Z</time></trkpt><trkpt lat="43.393492" lon="10.889603833333334"><ele>365.0</ele><time>2026-04-18T12:26:13.948Z</time></trkpt><trkpt lat="43.393567" lon="10.889447166666667"><ele>365.0</ele><time>2026-04-18T12:26:14.948Z</time></trkpt><trkpt lat="43.39365983333334" lon="10.889311833333332"><ele>365.0</ele><time>2026-04-18T12:26:15.929Z</time></trkpt><trkpt lat="43.393782361767535" lon="10.889221554000516"><ele>367.75</ele><time>2026-04-18T12:26:16.929Z</time></trkpt><trkpt lat="43.39390964347376" lon="10.889129500763442"><ele>370.5</ele><time>2026-04-18T12:26:17.927Z</time></trkpt><trkpt lat="43.39404127071699" lon="10.889033330079855"><ele>373.25</ele><time>2026-04-18T12:26:18.94Z</time></trkpt><trkpt lat="43.39416966057809" lon="10.888938051767543"><ele>376.0</ele><time>2026-04-18T12:26:19.96Z</time></trkpt><trkpt lat="43.39434856648877" lon="10.888782332760115"><ele>376.0</ele><time>2026-04-18T12:26:20.941Z</time></trkpt><trkpt lat="43.3944342028155" lon="10.888643939262982"><ele>376.0</ele><time>2026-04-18T12:26:21.926Z</time></trkpt><trkpt lat="43.394493942006505" lon="10.888494056354372"><ele>376.0</ele><time>2026-04-18T12:26:22.936Z</time></trkpt><trkpt lat="43.3945562624324" lon="10.888287105599549"><ele>376.0</ele><time>2026-04-18T12:26:24.928Z</time></trkpt><trkpt lat="43.394591000000005" lon="10.888161333333334"><ele>376.8333333333333</ele><time>2026-04-18T12:26:25.923Z</time></trkpt><trkpt lat="43.39467044428882" lon="10.88811954850784"><ele>377.66666666666663</ele><time>2026-04-18T12:26:26.93Z</time></trkpt><trkpt lat="43.39474104817521" lon="10.888114046305562"><ele>378.5</ele><time>2026-04-18T12:26:27.962Z</time></trkpt><trkpt lat="43.39479606214929" lon="10.888161209000465"><ele>379.3333333333333</ele><time>2026-04-18T12:26:28.924Z</time></trkpt><trkpt lat="43.3948353620543" lon="10.888244016178943"><ele>380.1666666666667</ele><time>2026-04-18T12:26:29.924Z</time></trkpt><trkpt lat="43.39485722464414" lon="10.888358161941548"><ele>381.0</ele><time>2026-04-18T12:26:30.928Z</time></trkpt><trkpt lat="43.394875666666664" lon="10.888497"><ele>381.6</ele><time>2026-04-18T12:26:31.949Z</time></trkpt><trkpt lat="43.3948655" lon="10.888643333333334"><ele>382.20000000000005</ele><time>2026-04-18T12:26:32.948Z</time></trkpt><trkpt lat="43.3948475" lon="10.88878416666667"><ele>382.79999999999995</ele><time>2026-04-18T12:26:34.098Z</time></trkpt><trkpt lat="43.394833" lon="10.888918499999999"><ele>383.4</ele><time>2026-04-18T12:26:34.937Z</time></trkpt><trkpt lat="43.39481581347656" lon="10.889045540792276"><ele>384.0</ele><time>2026-04-18T12:26:35.931Z</time></trkpt><trkpt lat="43.39482720379704" lon="10.889166818501325"><ele>384.0</ele><time>2026-04-18T12:26:36.958Z</time></trkpt><trkpt lat="43.394860096068804" lon="10.889279030778802"><ele>384.0</ele><time>2026-04-18T12:26:37.936Z</time></trkpt><trkpt lat="43.394926919575056" lon="10.889362844725754"><ele>384.0</ele><time>2026-04-18T12:26:38.93Z</time></trkpt><trkpt lat="43.39500655824677" lon="10.889387300813897"><ele>384.0</ele><time>2026-04-18T12:26:39.932Z</time></trkpt><trkpt lat="43.39507916666667" lon="10.889342500000003"><ele>384.0</ele><time>2026-04-18T12:26:40.966Z</time></trkpt><trkpt lat="43.395141333333335" lon="10.88929283333333"><ele>384.0</ele><time>2026-04-18T12:26:41.928Z</time></trkpt><trkpt lat="43.39519766666667" lon="10.889214499999998"><ele>384.0</ele><time>2026-04-18T12:26:42.929Z</time></trkpt><trkpt lat="43.39525149999999" lon="10.889112333333332"><ele>384.0</ele><time>2026-04-18T12:26:43.952Z</time></trkpt><trkpt lat="43.39530416666667" lon="10.888990999999999"><ele>384.0</ele><time>2026-04-18T12:26:44.942Z</time></trkpt><trkpt lat="43.395357" lon="10.888856666666669"><ele>384.0</ele><time>2026-04-18T12:26:45.932Z</time></trkpt><trkpt lat="43.39541283333333" lon="10.888714166666666"><ele>384.0</ele><time>2026-04-18T12:26:46.94Z</time></trkpt><trkpt lat="43.395473333333335" lon="10.888567"><ele>385.75</ele><time>2026-04-18T12:26:47.929Z</time></trkpt><trkpt lat="43.39553566666667" lon="10.888416666666668"><ele>387.5</ele><time>2026-04-18T12:26:48.958Z</time></trkpt><trkpt lat="43.395598500000006" lon="10.888269500000002"><ele>389.25</ele><time>2026-04-18T12:26:49.94Z</time></trkpt><trkpt lat="43.395672" lon="10.888136166666667"><ele>391.0</ele><time>2026-04-18T12:26:50.925Z</time></trkpt><trkpt lat="43.3958095" lon="10.887985"><ele>391.0</ele><time>2026-04-18T12:26:51.927Z</time></trkpt><trkpt lat="43.39595066666668" lon="10.887867833333335"><ele>391.0</ele><time>2026-04-18T12:26:53.958Z</time></trkpt><trkpt lat="43.39602166666667" lon="10.887765666666667"><ele>391.0</ele><time>2026-04-18T12:26:54.93Z</time></trkpt><trkpt lat="43.39606533333334" lon="10.88763883333333"><ele>391.0</ele><time>2026-04-18T12:26:55.929Z</time></trkpt><trkpt lat="43.39607533333333" lon="10.887497333333332"><ele>392.5</ele><time>2026-04-18T12:26:56.934Z</time></trkpt><trkpt lat="43.396053833333326" lon="10.887351999999998"><ele>394.0</ele><time>2026-04-18T12:26:57.962Z</time></trkpt><trkpt lat="43.39601616666667" lon="10.887202166666668"><ele>395.5</ele><time>2026-04-18T12:26:58.921Z</time></trkpt><trkpt lat="43.395974499999994" lon="10.887043000000002"><ele>397.0</ele><time>2026-04-18T12:26:59.924Z</time></trkpt><trkpt lat="43.39594583333332" lon="10.88687333333333"><ele>398.0</ele><time>2026-04-18T12:27:00.937Z</time></trkpt><trkpt lat="43.3959385" lon="10.8866995"><ele>399.0</ele><time>2026-04-18T12:27:01.949Z</time></trkpt><trkpt lat="43.395954166666655" lon="10.886525333333335"><ele>400.0</ele><time>2026-04-18T12:27:02.928Z</time></trkpt><trkpt lat="43.39602266666667" lon="10.886273166666667"><ele>400.0</ele><time>2026-04-18T12:27:03.933Z</time></trkpt><trkpt lat="43.39609699999999" lon="10.886113333333334"><ele>400.0</ele><time>2026-04-18T12:27:04.93Z</time></trkpt><trkpt lat="43.3961845" lon="10.885954666666665"><ele>400.0</ele><time>2026-04-18T12:27:05.931Z</time></trkpt><trkpt lat="43.39623116666667" lon="10.885874000000001"><ele>400.0</ele><time>2026-04-18T12:27:06.973Z</time></trkpt><trkpt lat="43.396330166666665" lon="10.885709166666667"><ele>403.0</ele><time>2026-04-18T12:27:07.938Z</time></trkpt><trkpt lat="43.396433333333334" lon="10.885540500000003"><ele>406.0</ele><time>2026-04-18T12:27:09.02Z</time></trkpt><trkpt lat="43.396540333333334" lon="10.885367333333333"><ele>409.0</ele><time>2026-04-18T12:27:09.94Z</time></trkpt><trkpt lat="43.396649499999995" lon="10.885184166666667"><ele>408.0</ele><time>2026-04-18T12:27:10.969Z</time></trkpt><trkpt lat="43.396761333333345" lon="10.884994999999998"><ele>407.0</ele><time>2026-04-18T12:27:11.977Z</time></trkpt><trkpt lat="43.39687266666667" lon="10.88480516666667"><ele>406.0</ele><time>2026-04-18T12:27:12.94Z</time></trkpt><trkpt lat="43.397038166666675" lon="10.884534333333333"><ele>406.0</ele><time>2026-04-18T12:27:14.03Z</time></trkpt><trkpt lat="43.39708999999999" lon="10.8844475"><ele>406.0</ele><time>2026-04-18T12:27:15.05Z</time></trkpt><trkpt lat="43.39717883333333" lon="10.884275500000001"><ele>406.0</ele><time>2026-04-18T12:27:15.937Z</time></trkpt><trkpt lat="43.39723216666666" lon="10.884099166666665"><ele>406.0</ele><time>2026-04-18T12:27:16.939Z</time></trkpt><trkpt lat="43.39724666666666" lon="10.883920166666666"><ele>406.75</ele><time>2026-04-18T12:27:17.937Z</time></trkpt><trkpt lat="43.39723533333334" lon="10.883737499999999"><ele>407.5</ele><time>2026-04-18T12:27:18.953Z</time></trkpt><trkpt lat="43.39720966666667" lon="10.883542833333335"><ele>408.25</ele><time>2026-04-18T12:27:19.925Z</time></trkpt><trkpt lat="43.39717666666667" lon="10.883333"><ele>409.0</ele><time>2026-04-18T12:27:20.925Z</time></trkpt><trkpt lat="43.39714933333333" lon="10.883111833333333"><ele>406.6666666666667</ele><time>2026-04-18T12:27:21.929Z</time></trkpt><trkpt lat="43.39713400000001" lon="10.882884"><ele>404.33333333333337</ele><time>2026-04-18T12:27:22.941Z</time></trkpt><trkpt lat="43.39713183333333" lon="10.882652499999997"><ele>402.0</ele><time>2026-04-18T12:27:23.978Z</time></trkpt><trkpt lat="43.397133333333336" lon="10.88241833333333"><ele>402.0</ele><time>2026-04-18T12:27:24.93Z</time></trkpt><trkpt lat="43.39709766666667" lon="10.882072666666666"><ele>402.0</ele><time>2026-04-18T12:27:25.934Z</time></trkpt><trkpt lat="43.39705266666667" lon="10.881847333333333"><ele>402.0</ele><time>2026-04-18T12:27:26.933Z</time></trkpt><trkpt lat="43.39700633333334" lon="10.881622666666667"><ele>405.0</ele><time>2026-04-18T12:27:27.957Z</time></trkpt><trkpt lat="43.39698283333334" lon="10.881510666666669"><ele>408.0</ele><time>2026-04-18T12:27:28.929Z</time></trkpt><trkpt lat="43.396936999999994" lon="10.881286166666667"><ele>411.0</ele><time>2026-04-18T12:27:29.93Z</time></trkpt><trkpt lat="43.396892333333334" lon="10.881065333333334"><ele>414.0</ele><time>2026-04-18T12:27:30.933Z</time></trkpt><trkpt lat="43.39685133333334" lon="10.880850500000001"><ele>417.33333333333337</ele><time>2026-04-18T12:27:31.95Z</time></trkpt><trkpt lat="43.3968245" lon="10.880640166666668"><ele>420.6666666666667</ele><time>2026-04-18T12:27:32.933Z</time></trkpt><trkpt lat="43.396807" lon="10.880434166666666"><ele>424.0</ele><time>2026-04-18T12:27:33.942Z</time></trkpt><trkpt lat="43.39679100000001" lon="10.880232333333334"><ele>427.0</ele><time>2026-04-18T12:27:34.929Z</time></trkpt><trkpt lat="43.39675216666666" lon="10.879930500000002"><ele>430.0</ele><time>2026-04-18T12:27:35.953Z</time></trkpt><trkpt lat="43.3967345" lon="10.879828999999999"><ele>433.0</ele><time>2026-04-18T12:27:36.97Z</time></trkpt><trkpt lat="43.39669966666666" lon="10.87962566666667"><ele>433.0</ele><time>2026-04-18T12:27:37.934Z</time></trkpt><trkpt lat="43.3966735" lon="10.879422333333332"><ele>433.0</ele><time>2026-04-18T12:27:38.937Z</time></trkpt><trkpt lat="43.39666133333334" lon="10.879118"><ele>433.0</ele><time>2026-04-18T12:27:39.941Z</time></trkpt><trkpt lat="43.3966675" lon="10.878918333333335"><ele>434.5</ele><time>2026-04-18T12:27:40.969Z</time></trkpt><trkpt lat="43.39667666666666" lon="10.87882"><ele>436.0</ele><time>2026-04-18T12:27:41.933Z</time></trkpt><trkpt lat="43.39671383333333" lon="10.878632000000001"><ele>437.5</ele><time>2026-04-18T12:27:42.921Z</time></trkpt><trkpt lat="43.396775" lon="10.878466166666666"><ele>439.0</ele><time>2026-04-18T12:27:43.933Z</time></trkpt><trkpt lat="43.396878666666666" lon="10.878236666666664"><ele>439.0</ele><time>2026-04-18T12:27:44.946Z</time></trkpt><trkpt lat="43.3969295" lon="10.878065166666666"><ele>439.0</ele><time>2026-04-18T12:27:45.925Z</time></trkpt><trkpt lat="43.39694616666667" lon="10.877972499999998"><ele>439.0</ele><time>2026-04-18T12:27:46.934Z</time></trkpt><trkpt lat="43.3969885" lon="10.877676333333334"><ele>439.0</ele><time>2026-04-18T12:27:47.934Z</time></trkpt><trkpt lat="43.397004" lon="10.877573"><ele>439.0</ele><time>2026-04-18T12:27:48.926Z</time></trkpt><trkpt lat="43.3970365" lon="10.877362000000002"><ele>439.0</ele><time>2026-04-18T12:27:49.986Z</time></trkpt><trkpt lat="43.397067" lon="10.877146499999998"><ele>439.0</ele><time>2026-04-18T12:27:50.938Z</time></trkpt><trkpt lat="43.397091" lon="10.876930499999999"><ele>440.25</ele><time>2026-04-18T12:27:51.937Z</time></trkpt><trkpt lat="43.397110166666664" lon="10.876724333333334"><ele>441.5</ele><time>2026-04-18T12:27:52.949Z</time></trkpt><trkpt lat="43.397133333333336" lon="10.876529166666668"><ele>442.75</ele><time>2026-04-18T12:27:53.97Z</time></trkpt><trkpt lat="43.397166666666664" lon="10.87634"><ele>444.0</ele><time>2026-04-18T12:27:54.941Z</time></trkpt><trkpt lat="43.397240833333335" lon="10.876059999999999"><ele>449.75</ele><time>2026-04-18T12:27:55.929Z</time></trkpt><trkpt lat="43.3973065" lon="10.875874"><ele>455.5</ele><time>2026-04-18T12:27:56.953Z</time></trkpt><trkpt lat="43.39734283333334" lon="10.875780666666667"><ele>461.25</ele><time>2026-04-18T12:27:57.965Z</time></trkpt><trkpt lat="43.39741683333334" lon="10.875592166666667"><ele>467.0</ele><time>2026-04-18T12:27:58.933Z</time></trkpt><trkpt lat="43.39748733333333" lon="10.875400666666666"><ele>467.0</ele><time>2026-04-18T12:27:59.926Z</time></trkpt><trkpt lat="43.3975495" lon="10.875211000000002"><ele>467.0</ele><time>2026-04-18T12:28:00.936Z</time></trkpt><trkpt lat="43.397605000000006" lon="10.875028166666667"><ele>467.0</ele><time>2026-04-18T12:28:01.954Z</time></trkpt><trkpt lat="43.39765916666667" lon="10.874847499999998"><ele>467.0</ele><time>2026-04-18T12:28:02.93Z</time></trkpt><trkpt lat="43.39772216666667" lon="10.874672333333335"><ele>466.25</ele><time>2026-04-18T12:28:03.938Z</time></trkpt><trkpt lat="43.39779866666667" lon="10.874510500000001"><ele>465.5</ele><time>2026-04-18T12:28:04.932Z</time></trkpt><trkpt lat="43.39788866666666" lon="10.874366166666668"><ele>464.75</ele><time>2026-04-18T12:28:05.949Z</time></trkpt><trkpt lat="43.39799618564649" lon="10.874248179840514"><ele>464.0</ele><time>2026-04-18T12:28:06.957Z</time></trkpt><trkpt lat="43.39808890489064" lon="10.874118193461571"><ele>468.25</ele><time>2026-04-18T12:28:07.925Z</time></trkpt><trkpt lat="43.39816583333333" lon="10.873983500000001"><ele>472.5</ele><time>2026-04-18T12:28:08.936Z</time></trkpt><trkpt lat="43.39828533333333" lon="10.87382"><ele>476.75</ele><time>2026-04-18T12:28:09.929Z</time></trkpt><trkpt lat="43.39834483333334" lon="10.873727"><ele>481.0</ele><time>2026-04-18T12:28:10.961Z</time></trkpt><trkpt lat="43.39840466666666" lon="10.873618333333331"><ele>481.00000000000006</ele><time>2026-04-18T12:28:12.938Z</time></trkpt><trkpt lat="43.398441166666665" lon="10.873535166666667"><ele>481.0</ele><time>2026-04-18T12:28:15.938Z</time></trkpt><trkpt lat="43.39848566666666" lon="10.873444333333335"><ele>481.0</ele><time>2026-04-18T12:28:17.923Z</time></trkpt><trkpt lat="43.39853916666666" lon="10.873322"><ele>481.0</ele><time>2026-04-18T12:28:19.954Z</time></trkpt><trkpt lat="43.398573166666665" lon="10.873245833333332"><ele>481.00000000000006</ele><time>2026-04-18T12:28:20.938Z</time></trkpt><trkpt lat="43.398616999999994" lon="10.873162333333335"><ele>481.0</ele><time>2026-04-18T12:28:21.936Z</time></trkpt><trkpt lat="43.39866549999999" lon="10.873067333333331"><ele>480.4</ele><time>2026-04-18T12:28:22.946Z</time></trkpt><trkpt lat="43.39872133333333" lon="10.872962333333332"><ele>479.8</ele><time>2026-04-18T12:28:23.946Z</time></trkpt><trkpt lat="43.39878016666667" lon="10.872850666666666"><ele>479.19999999999993</ele><time>2026-04-18T12:28:24.93Z</time></trkpt><trkpt lat="43.398839166666654" lon="10.872733166666668"><ele>478.59999999999997</ele><time>2026-04-18T12:28:25.942Z</time></trkpt><trkpt lat="43.398899833333346" lon="10.872612166666666"><ele>478.0</ele><time>2026-04-18T12:28:26.942Z</time></trkpt><trkpt lat="43.39896283333333" lon="10.8724925"><ele>480.4</ele><time>2026-04-18T12:28:27.969Z</time></trkpt><trkpt lat="43.39903016666667" lon="10.872379333333333"><ele>482.79999999999995</ele><time>2026-04-18T12:28:28.937Z</time></trkpt><trkpt lat="43.399104333333334" lon="10.872272833333332"><ele>485.2</ele><time>2026-04-18T12:28:29.934Z</time></trkpt><trkpt lat="43.39918016666667" lon="10.872170833333334"><ele>487.6</ele><time>2026-04-18T12:28:30.931Z</time></trkpt><trkpt lat="43.39925333333334" lon="10.872074666666668"><ele>490.0</ele><time>2026-04-18T12:28:31.927Z</time></trkpt><trkpt lat="43.399349" lon="10.871925166666665"><ele>490.4</ele><time>2026-04-18T12:28:33.925Z</time></trkpt><trkpt lat="43.39943316666666" lon="10.871762833333333"><ele>490.8</ele><time>2026-04-18T12:28:34.942Z</time></trkpt><trkpt lat="43.399485999999996" lon="10.8716525"><ele>491.20000000000005</ele><time>2026-04-18T12:28:35.951Z</time></trkpt><trkpt lat="43.39953266666666" lon="10.8715405"><ele>491.6</ele><time>2026-04-18T12:28:36.986Z</time></trkpt><trkpt lat="43.399572000000006" lon="10.871427999999998"><ele>492.0</ele><time>2026-04-18T12:28:37.934Z</time></trkpt><trkpt lat="43.39960583333333" lon="10.871319999999997"><ele>492.0</ele><time>2026-04-18T12:28:38.933Z</time></trkpt><trkpt lat="43.3996355" lon="10.871219333333332"><ele>492.0</ele><time>2026-04-18T12:28:39.942Z</time></trkpt><trkpt lat="43.3996615" lon="10.871126"><ele>492.0</ele><time>2026-04-18T12:28:40.974Z</time></trkpt><trkpt lat="43.399680833333335" lon="10.871038333333335"><ele>492.0</ele><time>2026-04-18T12:28:41.937Z</time></trkpt><trkpt lat="43.39970266666666" lon="10.870904499999998"><ele>492.0</ele><time>2026-04-18T12:28:44.029Z</time></trkpt><trkpt lat="43.39971" lon="10.870813333333336"><ele>492.0</ele><time>2026-04-18T12:28:47.942Z</time></trkpt><trkpt lat="43.399715666666665" lon="10.870707166666667"><ele>491.8</ele><time>2026-04-18T12:28:50.927Z</time></trkpt><trkpt lat="43.399713166666665" lon="10.870576000000002"><ele>491.6</ele><time>2026-04-18T12:28:52.937Z</time></trkpt><trkpt lat="43.39970150000001" lon="10.870415333333336"><ele>491.40000000000003</ele><time>2026-04-18T12:28:54.93Z</time></trkpt><trkpt lat="43.39969433333334" lon="10.870329166666666"><ele>491.20000000000005</ele><time>2026-04-18T12:28:55.937Z</time></trkpt><trkpt lat="43.39967883333333" lon="10.870147166666667"><ele>491.0</ele><time>2026-04-18T12:28:57.958Z</time></trkpt><trkpt lat="43.39967033333334" lon="10.870057833333332"><ele>492.8</ele><time>2026-04-18T12:28:58.935Z</time></trkpt><trkpt lat="43.399657999999995" lon="10.869895333333334"><ele>494.6</ele><time>2026-04-18T12:29:00.938Z</time></trkpt><trkpt lat="43.39964583333334" lon="10.869736666666666"><ele>496.4</ele><time>2026-04-18T12:29:02.928Z</time></trkpt><trkpt lat="43.399632833333335" lon="10.869569499999999"><ele>498.2</ele><time>2026-04-18T12:29:04.939Z</time></trkpt><trkpt lat="43.399624166666676" lon="10.869479666666667"><ele>500.0</ele><time>2026-04-18T12:29:05.943Z</time></trkpt><trkpt lat="43.39961366666667" lon="10.869391666666669"><ele>500.2</ele><time>2026-04-18T12:29:06.926Z</time></trkpt><trkpt lat="43.39958433333333" lon="10.869227666666665"><ele>500.4</ele><time>2026-04-18T12:29:08.934Z</time></trkpt><trkpt lat="43.39955283333334" lon="10.869067333333332"><ele>500.6</ele><time>2026-04-18T12:29:10.973Z</time></trkpt><trkpt lat="43.399522" lon="10.868930166666667"><ele>500.8</ele><time>2026-04-18T12:29:12.937Z</time></trkpt><trkpt lat="43.399494000000004" lon="10.868804333333333"><ele>501.0</ele><time>2026-04-18T12:29:14.955Z</time></trkpt><trkpt lat="43.3994595" lon="10.868645499999998"><ele>501.0</ele><time>2026-04-18T12:29:16.938Z</time></trkpt><trkpt lat="43.39943933333334" lon="10.868551666666667"><ele>501.0</ele><time>2026-04-18T12:29:17.926Z</time></trkpt><trkpt lat="43.399419" lon="10.868453499999998"><ele>501.0</ele><time>2026-04-18T12:29:18.958Z</time></trkpt><trkpt lat="43.399389" lon="10.868308"><ele>501.0</ele><time>2026-04-18T12:29:20.924Z</time></trkpt><trkpt lat="43.39936916666667" lon="10.8682155"><ele>501.0</ele><time>2026-04-18T12:29:21.925Z</time></trkpt><trkpt lat="43.39935083333334" lon="10.86813"><ele>501.0</ele><time>2026-04-18T12:29:22.959Z</time></trkpt><trkpt lat="43.39931916666666" lon="10.867983333333333"><ele>501.0</ele><time>2026-04-18T12:29:24.931Z</time></trkpt><trkpt lat="43.39928549999999" lon="10.867828666666666"><ele>501.0</ele><time>2026-04-18T12:29:26.95Z</time></trkpt><trkpt lat="43.39926016666667" lon="10.867662166666666"><ele>501.0</ele><time>2026-04-18T12:29:28.938Z</time></trkpt><trkpt lat="43.39924666666668" lon="10.867512"><ele>501.0</ele><time>2026-04-18T12:29:30.945Z</time></trkpt><trkpt lat="43.39924033333333" lon="10.867397333333335"><ele>501.0</ele><time>2026-04-18T12:29:37.922Z</time></trkpt><trkpt lat="43.399236" lon="10.867302166666665"><ele>502.20000000000005</ele><time>2026-04-18T12:29:39.941Z</time></trkpt><trkpt lat="43.39923633333333" lon="10.867134166666665"><ele>503.40000000000003</ele><time>2026-04-18T12:29:41.935Z</time></trkpt><trkpt lat="43.39923633333333" lon="10.866975500000002"><ele>504.6</ele><time>2026-04-18T12:29:43.939Z</time></trkpt><trkpt lat="43.39923533333334" lon="10.86686"><ele>505.8</ele><time>2026-04-18T12:29:45.934Z</time></trkpt><trkpt lat="43.39923566666666" lon="10.866748666666668"><ele>507.0</ele><time>2026-04-18T12:29:46.93Z</time></trkpt><trkpt lat="43.39923866666667" lon="10.866629499999998"><ele>508.40000000000003</ele><time>2026-04-18T12:29:48.977Z</time></trkpt><trkpt lat="43.399244" lon="10.866452666666664"><ele>509.80000000000007</ele><time>2026-04-18T12:29:50.927Z</time></trkpt><trkpt lat="43.39924633333333" lon="10.866297833333332"><ele>511.2</ele><time>2026-04-18T12:29:51.935Z</time></trkpt><trkpt lat="43.39924966666667" lon="10.866187833333333"><ele>512.6</ele><time>2026-04-18T12:29:52.963Z</time></trkpt><trkpt lat="43.399254" lon="10.866080833333335"><ele>514.0</ele><time>2026-04-18T12:29:53.933Z</time></trkpt><trkpt lat="43.399257999999996" lon="10.8659775"><ele>514.6666666666667</ele><time>2026-04-18T12:29:54.927Z</time></trkpt><trkpt lat="43.39926033333333" lon="10.865828833333333"><ele>515.3333333333334</ele><time>2026-04-18T12:29:56.948Z</time></trkpt><trkpt lat="43.39925066666666" lon="10.8657345"><ele>516.0</ele><time>2026-04-18T12:29:58.077Z</time></trkpt><trkpt lat="43.39923266666666" lon="10.865645833333334"><ele>516.6666666666666</ele><time>2026-04-18T12:29:58.934Z</time></trkpt><trkpt lat="43.39919450000001" lon="10.865482166666668"><ele>517.3333333333333</ele><time>2026-04-18T12:30:00.932Z</time></trkpt><trkpt lat="43.399183166666674" lon="10.865389999999998"><ele>518.0</ele><time>2026-04-18T12:30:02.045Z</time></trkpt><trkpt lat="43.39917699999999" lon="10.8652825"><ele>518.0</ele><time>2026-04-18T12:30:02.925Z</time></trkpt><trkpt lat="43.399176000000004" lon="10.86516"><ele>518.0</ele><time>2026-04-18T12:30:03.926Z</time></trkpt><trkpt lat="43.39918250000001" lon="10.865024000000002"><ele>518.0</ele><time>2026-04-18T12:30:04.933Z</time></trkpt><trkpt lat="43.399193" lon="10.864877000000002"><ele>518.0</ele><time>2026-04-18T12:30:05.959Z</time></trkpt><trkpt lat="43.3992015" lon="10.864723333333332"><ele>518.0</ele><time>2026-04-18T12:30:06.938Z</time></trkpt><trkpt lat="43.39921166666666" lon="10.864563166666668"><ele>517.75</ele><time>2026-04-18T12:30:07.938Z</time></trkpt><trkpt lat="43.399226166666665" lon="10.864397"><ele>517.5</ele><time>2026-04-18T12:30:09.035Z</time></trkpt><trkpt lat="43.3992435" lon="10.864139166666666"><ele>517.25</ele><time>2026-04-18T12:30:09.947Z</time></trkpt><trkpt lat="43.399257500000004" lon="10.863963499999999"><ele>517.0</ele><time>2026-04-18T12:30:10.93Z</time></trkpt><trkpt lat="43.39926766666668" lon="10.863783999999997"><ele>516.5</ele><time>2026-04-18T12:30:11.93Z</time></trkpt><trkpt lat="43.39927899999999" lon="10.863600499999999"><ele>516.0</ele><time>2026-04-18T12:30:12.938Z</time></trkpt><trkpt lat="43.39929516666666" lon="10.863414333333333"><ele>515.5</ele><time>2026-04-18T12:30:13.946Z</time></trkpt><trkpt lat="43.39930916666667" lon="10.863224666666667"><ele>515.0</ele><time>2026-04-18T12:30:14.937Z</time></trkpt><trkpt lat="43.39932883333332" lon="10.8629325"><ele>513.3333333333333</ele><time>2026-04-18T12:30:16.934Z</time></trkpt><trkpt lat="43.399348666666675" lon="10.862633500000001"><ele>511.66666666666663</ele><time>2026-04-18T12:30:17.942Z</time></trkpt><trkpt lat="43.39936533333333" lon="10.862431833333336"><ele>510.0</ele><time>2026-04-18T12:30:19.058Z</time></trkpt><trkpt lat="43.3993815" lon="10.862231333333334"><ele>508.25</ele><time>2026-04-18T12:30:19.93Z</time></trkpt><trkpt lat="43.399396333333335" lon="10.862031333333332"><ele>506.5</ele><time>2026-04-18T12:30:20.936Z</time></trkpt><trkpt lat="43.399409500000004" lon="10.861832333333332"><ele>504.75</ele><time>2026-04-18T12:30:21.936Z</time></trkpt><trkpt lat="43.3994145" lon="10.861732500000002"><ele>503.0</ele><time>2026-04-18T12:30:22.954Z</time></trkpt><trkpt lat="43.399428333333326" lon="10.861534166666669"><ele>501.0</ele><time>2026-04-18T12:30:23.934Z</time></trkpt><trkpt lat="43.39944333333333" lon="10.861336666666666"><ele>499.0</ele><time>2026-04-18T12:30:24.923Z</time></trkpt><trkpt lat="43.399457500000004" lon="10.8611415"><ele>497.0</ele><time>2026-04-18T12:30:25.926Z</time></trkpt><trkpt lat="43.3994715" lon="10.860948666666665"><ele>495.0</ele><time>2026-04-18T12:30:27.158Z</time></trkpt><trkpt lat="43.39948866666666" lon="10.860663833333335"><ele>493.75</ele><time>2026-04-18T12:30:27.959Z</time></trkpt><trkpt lat="43.399494999999995" lon="10.860569333333334"><ele>492.5</ele><time>2026-04-18T12:30:28.935Z</time></trkpt><trkpt lat="43.39951550000001" lon="10.860290833333332"><ele>491.25</ele><time>2026-04-18T12:30:29.943Z</time></trkpt><trkpt lat="43.39952799999999" lon="10.860117166666665"><ele>490.0</ele><time>2026-04-18T12:30:30.945Z</time></trkpt><trkpt lat="43.399539999999995" lon="10.859960666666666"><ele>489.2</ele><time>2026-04-18T12:30:31.946Z</time></trkpt><trkpt lat="43.39954949999999" lon="10.859816833333332"><ele>488.4</ele><time>2026-04-18T12:30:32.923Z</time></trkpt><trkpt lat="43.3995585" lon="10.859684166666666"><ele>487.6</ele><time>2026-04-18T12:30:34.023Z</time></trkpt><trkpt lat="43.399572000000006" lon="10.859560833333333"><ele>486.8</ele><time>2026-04-18T12:30:34.943Z</time></trkpt><trkpt lat="43.399604" lon="10.859448333333335"><ele>486.0</ele><time>2026-04-18T12:30:35.971Z</time></trkpt><trkpt lat="43.39965483333334" lon="10.859347500000002"><ele>488.1666666666667</ele><time>2026-04-18T12:30:36.938Z</time></trkpt><trkpt lat="43.399712" lon="10.859253666666666"><ele>490.33333333333337</ele><time>2026-04-18T12:30:37.927Z</time></trkpt><trkpt lat="43.39977149999999" lon="10.859165166666665"><ele>492.5</ele><time>2026-04-18T12:30:38.933Z</time></trkpt><trkpt lat="43.39983366666667" lon="10.859083333333334"><ele>494.6666666666667</ele><time>2026-04-18T12:30:39.963Z</time></trkpt><trkpt lat="43.3998955" lon="10.859005333333334"><ele>496.83333333333337</ele><time>2026-04-18T12:30:40.935Z</time></trkpt><trkpt lat="43.399954166666674" lon="10.858929166666668"><ele>499.0</ele><time>2026-04-18T12:30:41.936Z</time></trkpt><trkpt lat="43.40001183333334" lon="10.858853"><ele>499.00000000000006</ele><time>2026-04-18T12:30:42.93Z</time></trkpt><trkpt lat="43.40007133333334" lon="10.858772166666665"><ele>499.0</ele><time>2026-04-18T12:30:43.948Z</time></trkpt><trkpt lat="43.40013133333334" lon="10.858683000000001"><ele>499.0</ele><time>2026-04-18T12:30:44.942Z</time></trkpt><trkpt lat="43.40019583333333" lon="10.858592333333334"><ele>499.0</ele><time>2026-04-18T12:30:45.988Z</time></trkpt><trkpt lat="43.400255" lon="10.858507999999997"><ele>499.00000000000006</ele><time>2026-04-18T12:30:46.932Z</time></trkpt><trkpt lat="43.400299833333335" lon="10.858444000000002"><ele>499.0</ele><time>2026-04-18T12:30:47.936Z</time></trkpt><trkpt lat="43.40035233333333" lon="10.858372166666667"><ele>501.00000000000006</ele><time>2026-04-18T12:30:49.931Z</time></trkpt><trkpt lat="43.400414500000004" lon="10.858281"><ele>503.0</ele><time>2026-04-18T12:30:51.93Z</time></trkpt><trkpt lat="43.40048133333333" lon="10.858173666666668"><ele>505.0</ele><time>2026-04-18T12:30:53.929Z</time></trkpt><trkpt lat="43.40051449999999" lon="10.858083"><ele>507.0</ele><time>2026-04-18T12:30:55.925Z</time></trkpt><trkpt lat="43.40047766666667" lon="10.858006000000001"><ele>509.00000000000006</ele><time>2026-04-18T12:30:57.932Z</time></trkpt><trkpt lat="43.40038583333333" lon="10.857996666666667"><ele>511.0</ele><time>2026-04-18T12:30:59.934Z</time></trkpt><trkpt lat="43.400323666666665" lon="10.858013333333334"><ele>506.0</ele><time>2026-04-18T12:31:00.93Z</time></trkpt><trkpt lat="43.400243652083546" lon="10.858015441428986"><ele>501.0</ele><time>2026-04-18T12:31:01.935Z</time></trkpt><trkpt lat="43.400162413449806" lon="10.858060750397783"><ele>496.0</ele><time>2026-04-18T12:31:02.938Z</time></trkpt><trkpt lat="43.400081833333324" lon="10.858122500000002"><ele>491.0</ele><time>2026-04-18T12:31:03.938Z</time></trkpt><trkpt lat="43.399986166666665" lon="10.858163333333335"><ele>486.0</ele><time>2026-04-18T12:31:05.06Z</time></trkpt><trkpt lat="43.39988516666667" lon="10.858198000000002"><ele>486.0</ele><time>2026-04-18T12:31:05.936Z</time></trkpt><trkpt lat="43.399780666666665" lon="10.858230833333334"><ele>486.0</ele><time>2026-04-18T12:31:06.926Z</time></trkpt><trkpt lat="43.3996735" lon="10.8582655"><ele>486.0</ele><time>2026-04-18T12:31:07.926Z</time></trkpt><trkpt lat="43.39956383333333" lon="10.858304333333335"><ele>486.0</ele><time>2026-04-18T12:31:08.939Z</time></trkpt><trkpt lat="43.39945266666667" lon="10.858348000000001"><ele>486.0</ele><time>2026-04-18T12:31:09.959Z</time></trkpt><trkpt lat="43.39934199999999" lon="10.858405999999999"><ele>484.5</ele><time>2026-04-18T12:31:10.935Z</time></trkpt><trkpt lat="43.399235" lon="10.858483000000001"><ele>483.0</ele><time>2026-04-18T12:31:11.939Z</time></trkpt><trkpt lat="43.3991365" lon="10.858584"><ele>481.5</ele><time>2026-04-18T12:31:12.935Z</time></trkpt><trkpt lat="43.39904866666667" lon="10.858701666666665"><ele>480.0</ele><time>2026-04-18T12:31:13.955Z</time></trkpt><trkpt lat="43.398914" lon="10.858958000000001"><ele>480.0</ele><time>2026-04-18T12:31:15.929Z</time></trkpt><trkpt lat="43.398864" lon="10.859080833333334"><ele>480.0</ele><time>2026-04-18T12:31:16.943Z</time></trkpt><trkpt lat="43.398821500000004" lon="10.859185666666667"><ele>480.0</ele><time>2026-04-18T12:31:17.959Z</time></trkpt><trkpt lat="43.398786833333325" lon="10.859264499999998"><ele>480.0</ele><time>2026-04-18T12:31:18.922Z</time></trkpt><trkpt lat="43.3987235" lon="10.859339"><ele>480.0</ele><time>2026-04-18T12:31:20.932Z</time></trkpt><trkpt lat="43.39866233333334" lon="10.859398333333335"><ele>480.0</ele><time>2026-04-18T12:31:22.963Z</time></trkpt><trkpt lat="43.39862249999999" lon="10.859471666666666"><ele>477.3333333333333</ele><time>2026-04-18T12:31:24.944Z</time></trkpt><trkpt lat="43.39858483333334" lon="10.859618000000001"><ele>474.66666666666663</ele><time>2026-04-18T12:31:26.969Z</time></trkpt><trkpt lat="43.39857816666666" lon="10.859711666666666"><ele>472.0</ele><time>2026-04-18T12:31:27.939Z</time></trkpt><trkpt lat="43.39855949803317" lon="10.859814232080737"><ele>469.3333333333333</ele><time>2026-04-18T12:31:28.926Z</time></trkpt><trkpt lat="43.398565880687926" lon="10.859930538205179"><ele>466.66666666666663</ele><time>2026-04-18T12:31:29.929Z</time></trkpt><trkpt lat="43.39858627378232" lon="10.860059137991994"><ele>464.0</ele><time>2026-04-18T12:31:30.938Z</time></trkpt><trkpt lat="43.39861197407152" lon="10.860189454166667"><ele>464.0</ele><time>2026-04-18T12:31:31.976Z</time></trkpt><trkpt lat="43.398637004338084" lon="10.860326286212517"><ele>464.0</ele><time>2026-04-18T12:31:32.94Z</time></trkpt><trkpt lat="43.398671" lon="10.860460333333334"><ele>464.0</ele><time>2026-04-18T12:31:33.94Z</time></trkpt><trkpt lat="43.39867283333333" lon="10.860603833333334"><ele>464.0</ele><time>2026-04-18T12:31:34.943Z</time></trkpt><trkpt lat="43.39866583333334" lon="10.860746333333335"><ele>464.0</ele><time>2026-04-18T12:31:35.983Z</time></trkpt><trkpt lat="43.398650333333336" lon="10.860883000000001"><ele>465.0</ele><time>2026-04-18T12:31:36.924Z</time></trkpt><trkpt lat="43.398622666666675" lon="10.861008833333335"><ele>466.0</ele><time>2026-04-18T12:31:37.935Z</time></trkpt><trkpt lat="43.39857816666666" lon="10.861118666666668"><ele>467.0</ele><time>2026-04-18T12:31:38.935Z</time></trkpt><trkpt lat="43.39851883333334" lon="10.861213833333334"><ele>468.0</ele><time>2026-04-18T12:31:39.971Z</time></trkpt><trkpt lat="43.39845083333333" lon="10.861306833333332"><ele>469.0</ele><time>2026-04-18T12:31:40.94Z</time></trkpt><trkpt lat="43.398343499999996" lon="10.8614585"><ele>469.0</ele><time>2026-04-18T12:31:41.937Z</time></trkpt><trkpt lat="43.39827216666666" lon="10.861570833333333"><ele>469.0</ele><time>2026-04-18T12:31:42.934Z</time></trkpt><trkpt lat="43.39816966666667" lon="10.861754000000001"><ele>469.0</ele><time>2026-04-18T12:31:44.934Z</time></trkpt><trkpt lat="43.39810383333333" lon="10.861880499999998"><ele>469.0</ele><time>2026-04-18T12:31:45.933Z</time></trkpt><trkpt lat="43.398033000000005" lon="10.862000333333333"><ele>467.6</ele><time>2026-04-18T12:31:46.935Z</time></trkpt><trkpt lat="43.397951666666664" lon="10.862104833333333"><ele>466.2</ele><time>2026-04-18T12:31:47.948Z</time></trkpt><trkpt lat="43.39786233333332" lon="10.862191000000001"><ele>464.80000000000007</ele><time>2026-04-18T12:31:48.954Z</time></trkpt><trkpt lat="43.39776933333333" lon="10.862259666666667"><ele>463.40000000000003</ele><time>2026-04-18T12:31:49.93Z</time></trkpt><trkpt lat="43.39767366666667" lon="10.862312999999999"><ele>462.0</ele><time>2026-04-18T12:31:50.944Z</time></trkpt><trkpt lat="43.39757899999999" lon="10.862366333333332"><ele>462.0</ele><time>2026-04-18T12:31:51.935Z</time></trkpt><trkpt lat="43.397486" lon="10.862419833333336"><ele>462.00000000000006</ele><time>2026-04-18T12:31:52.958Z</time></trkpt><trkpt lat="43.39738783333334" lon="10.862460333333335"><ele>462.00000000000006</ele><time>2026-04-18T12:31:53.926Z</time></trkpt><trkpt lat="43.39728583333334" lon="10.862483666666668"><ele>462.0</ele><time>2026-04-18T12:31:54.932Z</time></trkpt><trkpt lat="43.39718150000001" lon="10.8624875"><ele>462.0</ele><time>2026-04-18T12:31:55.935Z</time></trkpt><trkpt lat="43.397079500000004" lon="10.8624745"><ele>461.5</ele><time>2026-04-18T12:31:56.959Z</time></trkpt><trkpt lat="43.396981000000004" lon="10.862443666666666"><ele>461.0</ele><time>2026-04-18T12:31:57.928Z</time></trkpt><trkpt lat="43.39683983333333" lon="10.862384166666667"><ele>460.5</ele><time>2026-04-18T12:31:58.928Z</time></trkpt><trkpt lat="43.396748166666676" lon="10.862367666666668"><ele>460.0</ele><time>2026-04-18T12:31:59.928Z</time></trkpt><trkpt lat="43.396609833333336" lon="10.862388500000002"><ele>460.0</ele><time>2026-04-18T12:32:01.931Z</time></trkpt><trkpt lat="43.396515833333325" lon="10.862421"><ele>460.0</ele><time>2026-04-18T12:32:02.934Z</time></trkpt><trkpt lat="43.396364666666656" lon="10.862483333333333"><ele>460.0</ele><time>2026-04-18T12:32:03.935Z</time></trkpt><trkpt lat="43.39625966666667" lon="10.862528166666667"><ele>460.0</ele><time>2026-04-18T12:32:04.933Z</time></trkpt><trkpt lat="43.396157666666674" lon="10.862572499999999"><ele>457.8</ele><time>2026-04-18T12:32:05.935Z</time></trkpt><trkpt lat="43.39606133333333" lon="10.862614166666667"><ele>455.6</ele><time>2026-04-18T12:32:06.934Z</time></trkpt><trkpt lat="43.395971666666675" lon="10.862651833333334"><ele>453.4</ele><time>2026-04-18T12:32:07.925Z</time></trkpt><trkpt lat="43.395885" lon="10.862677333333332"><ele>451.2</ele><time>2026-04-18T12:32:08.935Z</time></trkpt><trkpt lat="43.39579683333333" lon="10.862678833333332"><ele>449.0</ele><time>2026-04-18T12:32:09.979Z</time></trkpt><trkpt lat="43.395707666666674" lon="10.862658666666668"><ele>449.0</ele><time>2026-04-18T12:32:10.935Z</time></trkpt><trkpt lat="43.39561633333333" lon="10.862628500000001"><ele>449.0</ele><time>2026-04-18T12:32:11.936Z</time></trkpt><trkpt lat="43.3954755" lon="10.862581666666665"><ele>449.0</ele><time>2026-04-18T12:32:13.935Z</time></trkpt><trkpt lat="43.39533766666666" lon="10.862536333333333"><ele>449.0</ele><time>2026-04-18T12:32:14.934Z</time></trkpt><trkpt lat="43.3952495" lon="10.862503833333335"><ele>447.6</ele><time>2026-04-18T12:32:15.94Z</time></trkpt><trkpt lat="43.395165166666665" lon="10.862472333333335"><ele>446.2</ele><time>2026-04-18T12:32:16.942Z</time></trkpt><trkpt lat="43.3950845" lon="10.862453666666667"><ele>444.80000000000007</ele><time>2026-04-18T12:32:17.939Z</time></trkpt><trkpt lat="43.39496783333334" lon="10.862476"><ele>443.40000000000003</ele><time>2026-04-18T12:32:19.927Z</time></trkpt><trkpt lat="43.3948905" lon="10.862516833333332"><ele>442.0</ele><time>2026-04-18T12:32:20.931Z</time></trkpt><trkpt lat="43.39475983333333" lon="10.862589833333333"><ele>438.75</ele><time>2026-04-18T12:32:21.964Z</time></trkpt><trkpt lat="43.39462083333333" lon="10.862671333333333"><ele>435.5</ele><time>2026-04-18T12:32:23.924Z</time></trkpt><trkpt lat="43.394480666666674" lon="10.862768666666666"><ele>432.25</ele><time>2026-04-18T12:32:24.923Z</time></trkpt><trkpt lat="43.39438116666667" lon="10.862837"><ele>429.0</ele><time>2026-04-18T12:32:25.933Z</time></trkpt><trkpt lat="43.3942765" lon="10.862902833333331"><ele>429.0</ele><time>2026-04-18T12:32:26.926Z</time></trkpt><trkpt lat="43.39417083333333" lon="10.862963833333334"><ele>429.0</ele><time>2026-04-18T12:32:27.932Z</time></trkpt><trkpt lat="43.39407150000001" lon="10.863022333333333"><ele>429.0</ele><time>2026-04-18T12:32:28.939Z</time></trkpt><trkpt lat="43.39393033333334" lon="10.863080833333333"><ele>429.0</ele><time>2026-04-18T12:32:30.928Z</time></trkpt><trkpt lat="43.393845833333344" lon="10.863093"><ele>426.3333333333333</ele><time>2026-04-18T12:32:31.925Z</time></trkpt><trkpt lat="43.39377140824383" lon="10.863107419693094"><ele>423.66666666666663</ele><time>2026-04-18T12:32:32.936Z</time></trkpt><trkpt lat="43.393699209476395" lon="10.863074330258135"><ele>421.0</ele><time>2026-04-18T12:32:33.939Z</time></trkpt><trkpt lat="43.39368283333333" lon="10.862972833333334"><ele>418.3333333333333</ele><time>2026-04-18T12:32:34.933Z</time></trkpt><trkpt lat="43.39366883333334" lon="10.862883666666667"><ele>415.66666666666663</ele><time>2026-04-18T12:32:36.068Z</time></trkpt><trkpt lat="43.393663" lon="10.862778166666665"><ele>413.0</ele><time>2026-04-18T12:32:36.929Z</time></trkpt><trkpt lat="43.39365500000001" lon="10.862665"><ele>412.2</ele><time>2026-04-18T12:32:37.927Z</time></trkpt><trkpt lat="43.3936445" lon="10.862552666666666"><ele>411.4</ele><time>2026-04-18T12:32:38.936Z</time></trkpt><trkpt lat="43.393628166666666" lon="10.862436833333334"><ele>410.59999999999997</ele><time>2026-04-18T12:32:39.972Z</time></trkpt><trkpt lat="43.39360266666666" lon="10.862313166666668"><ele>409.79999999999995</ele><time>2026-04-18T12:32:40.939Z</time></trkpt><trkpt lat="43.39357033333334" lon="10.862180000000002"><ele>409.0</ele><time>2026-04-18T12:32:41.927Z</time></trkpt><trkpt lat="43.393535166666666" lon="10.862034333333334"><ele>409.0</ele><time>2026-04-18T12:32:42.943Z</time></trkpt><trkpt lat="43.39349550000001" lon="10.861879500000002"><ele>409.0</ele><time>2026-04-18T12:32:44.263Z</time></trkpt><trkpt lat="43.39339566666666" lon="10.861562666666668"><ele>409.0</ele><time>2026-04-18T12:32:45.93Z</time></trkpt><trkpt lat="43.39333583333334" lon="10.861398833333332"><ele>409.2</ele><time>2026-04-18T12:32:46.931Z</time></trkpt><trkpt lat="43.39328166666666" lon="10.861239333333332"><ele>409.4</ele><time>2026-04-18T12:32:47.956Z</time></trkpt><trkpt lat="43.39323666666666" lon="10.861089833333331"><ele>409.6</ele><time>2026-04-18T12:32:48.934Z</time></trkpt><trkpt lat="43.393200166666674" lon="10.860955166666667"><ele>409.8</ele><time>2026-04-18T12:32:49.93Z</time></trkpt><trkpt lat="43.39317" lon="10.8608345"><ele>410.0</ele><time>2026-04-18T12:32:50.928Z</time></trkpt><trkpt lat="43.39313583333333" lon="10.860736666666666"><ele>409.4</ele><time>2026-04-18T12:32:51.939Z</time></trkpt><trkpt lat="43.393088166666665" lon="10.860677999999998"><ele>408.8</ele><time>2026-04-18T12:32:52.964Z</time></trkpt><trkpt lat="43.39298699999999" lon="10.860694666666665"><ele>408.20000000000005</ele><time>2026-04-18T12:32:54.93Z</time></trkpt><trkpt lat="43.392884696429526" lon="10.860819734818058"><ele>407.6</ele><time>2026-04-18T12:32:56.951Z</time></trkpt><trkpt lat="43.39286063861341" lon="10.86092722115761"><ele>407.0</ele><time>2026-04-18T12:32:57.924Z</time></trkpt><trkpt lat="43.39285045441771" lon="10.861054696226976"><ele>403.0</ele><time>2026-04-18T12:32:58.943Z</time></trkpt><trkpt lat="43.3928527965432" lon="10.861187994927432"><ele>399.0</ele><time>2026-04-18T12:32:59.936Z</time></trkpt><trkpt lat="43.39285206162815" lon="10.86131318123174"><ele>395.0</ele><time>2026-04-18T12:33:00.96Z</time></trkpt><trkpt lat="43.39284181092481" lon="10.861441641495356"><ele>391.0</ele><time>2026-04-18T12:33:01.938Z</time></trkpt><trkpt lat="43.392829666666664" lon="10.861573666666667"><ele>387.0</ele><time>2026-04-18T12:33:02.928Z</time></trkpt><trkpt lat="43.39276366666666" lon="10.861679833333334"><ele>387.0</ele><time>2026-04-18T12:33:03.927Z</time></trkpt><trkpt lat="43.39267983333334" lon="10.861761166666668"><ele>387.0</ele><time>2026-04-18T12:33:04.928Z</time></trkpt><trkpt lat="43.392598" lon="10.861819166666665"><ele>387.0</ele><time>2026-04-18T12:33:05.928Z</time></trkpt><trkpt lat="43.39252116666667" lon="10.861840166666665"><ele>387.0</ele><time>2026-04-18T12:33:06.931Z</time></trkpt><trkpt lat="43.392462666666674" lon="10.861768666666666"><ele>387.0</ele><time>2026-04-18T12:33:08.951Z</time></trkpt><trkpt lat="43.39242533333333" lon="10.861679166666667"><ele>387.0</ele><time>2026-04-18T12:33:10.924Z</time></trkpt><trkpt lat="43.39239366666668" lon="10.861592333333332"><ele>387.0</ele><time>2026-04-18T12:33:12.949Z</time></trkpt><trkpt lat="43.39235983333333" lon="10.861511"><ele>387.0</ele><time>2026-04-18T12:33:17.963Z</time></trkpt><trkpt lat="43.392314" lon="10.861383166666668"><ele>387.0</ele><time>2026-04-18T12:35:37.942Z</time></trkpt><trkpt lat="43.392263166666666" lon="10.861217166666666"><ele>387.0</ele><time>2026-04-18T12:35:39.93Z</time></trkpt><trkpt lat="43.392228833333334" lon="10.861118500000002"><ele>387.0</ele><time>2026-04-18T12:35:40.93Z</time></trkpt><trkpt lat="43.392204152200485" lon="10.861005627048039"><ele>382.8</ele><time>2026-04-18T12:35:41.938Z</time></trkpt><trkpt lat="43.39215575549767" lon="10.860903914786123"><ele>378.6</ele><time>2026-04-18T12:35:42.965Z</time></trkpt><trkpt lat="43.392090185926854" lon="10.86081546567104"><ele>374.40000000000003</ele><time>2026-04-18T12:35:43.93Z</time></trkpt><trkpt lat="43.39199716666667" lon="10.860768166666666"><ele>370.20000000000005</ele><time>2026-04-18T12:35:44.935Z</time></trkpt><trkpt lat="43.3919055" lon="10.860711833333335"><ele>366.0</ele><time>2026-04-18T12:35:45.938Z</time></trkpt><trkpt lat="43.39180766666667" lon="10.8606645"><ele>366.0</ele><time>2026-04-18T12:35:46.945Z</time></trkpt><trkpt lat="43.39171263470813" lon="10.860599728646442"><ele>366.0</ele><time>2026-04-18T12:35:48.248Z</time></trkpt><trkpt lat="43.39153306968226" lon="10.86051299958762"><ele>366.0</ele><time>2026-04-18T12:35:49.938Z</time></trkpt><trkpt lat="43.39145466666667" lon="10.860491333333334"><ele>366.0</ele><time>2026-04-18T12:35:50.95Z</time></trkpt><trkpt lat="43.39139066666667" lon="10.860438666666669"><ele>363.20000000000005</ele><time>2026-04-18T12:35:51.957Z</time></trkpt><trkpt lat="43.39133766666667" lon="10.860363"><ele>360.40000000000003</ele><time>2026-04-18T12:35:52.941Z</time></trkpt><trkpt lat="43.3912975" lon="10.860263333333334"><ele>357.6</ele><time>2026-04-18T12:35:53.939Z</time></trkpt><trkpt lat="43.391264333333325" lon="10.860138500000001"><ele>354.8</ele><time>2026-04-18T12:35:54.935Z</time></trkpt><trkpt lat="43.39122483333333" lon="10.85998516666667"><ele>352.0</ele><time>2026-04-18T12:35:55.974Z</time></trkpt><trkpt lat="43.39117983333334" lon="10.859809499999999"><ele>351.0</ele><time>2026-04-18T12:35:56.939Z</time></trkpt><trkpt lat="43.39113133333334" lon="10.859621"><ele>350.0</ele><time>2026-04-18T12:35:57.928Z</time></trkpt><trkpt lat="43.39108266666668" lon="10.859424333333335"><ele>349.0</ele><time>2026-04-18T12:35:58.932Z</time></trkpt><trkpt lat="43.39103966666667" lon="10.8592195"><ele>348.0</ele><time>2026-04-18T12:35:59.965Z</time></trkpt><trkpt lat="43.391006000000004" lon="10.859000833333335"><ele>347.0</ele><time>2026-04-18T12:36:00.957Z</time></trkpt><trkpt lat="43.39098066666667" lon="10.8587805"><ele>346.0</ele><time>2026-04-18T12:36:01.937Z</time></trkpt><trkpt lat="43.39095683333333" lon="10.858575333333333"><ele>344.6</ele><time>2026-04-18T12:36:02.941Z</time></trkpt><trkpt lat="43.39093433333335" lon="10.858393000000001"><ele>343.20000000000005</ele><time>2026-04-18T12:36:03.95Z</time></trkpt><trkpt lat="43.39091733333333" lon="10.858238333333334"><ele>341.79999999999995</ele><time>2026-04-18T12:36:04.936Z</time></trkpt><trkpt lat="43.39090483333332" lon="10.858115000000002"><ele>340.4</ele><time>2026-04-18T12:36:05.944Z</time></trkpt><trkpt lat="43.390882666666656" lon="10.858017333333331"><ele>339.0</ele><time>2026-04-18T12:36:06.93Z</time></trkpt><trkpt lat="43.39084016666668" lon="10.857931666666666"><ele>339.0</ele><time>2026-04-18T12:36:07.95Z</time></trkpt><trkpt lat="43.39077183333334" lon="10.857858666666669"><ele>339.0</ele><time>2026-04-18T12:36:08.931Z</time></trkpt><trkpt lat="43.39068016666667" lon="10.857783333333334"><ele>339.0</ele><time>2026-04-18T12:36:09.943Z</time></trkpt><trkpt lat="43.39057516666667" lon="10.857695333333334"><ele>339.0</ele><time>2026-04-18T12:36:10.938Z</time></trkpt><trkpt lat="43.39046466666667" lon="10.857604833333335"><ele>339.0</ele><time>2026-04-18T12:36:12.045Z</time></trkpt><trkpt lat="43.39035350000001" lon="10.857512333333332"><ele>336.0</ele><time>2026-04-18T12:36:12.957Z</time></trkpt><trkpt lat="43.390246833333336" lon="10.857419833333331"><ele>333.0</ele><time>2026-04-18T12:36:13.937Z</time></trkpt><trkpt lat="43.39014399999999" lon="10.857334666666668"><ele>330.0</ele><time>2026-04-18T12:36:14.95Z</time></trkpt><trkpt lat="43.390055457864136" lon="10.857236773791382"><ele>327.0</ele><time>2026-04-18T12:36:15.933Z</time></trkpt><trkpt lat="43.38996043694718" lon="10.857171177240081"><ele>327.0</ele><time>2026-04-18T12:36:16.961Z</time></trkpt><trkpt lat="43.38982766666666" lon="10.857097166666664"><ele>327.0</ele><time>2026-04-18T12:36:17.936Z</time></trkpt><trkpt lat="43.38972766666667" lon="10.856951666666664"><ele>327.0</ele><time>2026-04-18T12:36:19.925Z</time></trkpt><trkpt lat="43.389664666666675" lon="10.856844"><ele>327.0</ele><time>2026-04-18T12:36:20.937Z</time></trkpt><trkpt lat="43.389582999999995" lon="10.856758666666666"><ele>325.0</ele><time>2026-04-18T12:36:21.954Z</time></trkpt><trkpt lat="43.389486166666664" lon="10.856687666666668"><ele>323.0</ele><time>2026-04-18T12:36:22.934Z</time></trkpt><trkpt lat="43.38938183333333" lon="10.856606833333336"><ele>321.0</ele><time>2026-04-18T12:36:23.934Z</time></trkpt><trkpt lat="43.3892715" lon="10.856521333333335"><ele>319.0</ele><time>2026-04-18T12:36:24.942Z</time></trkpt><trkpt lat="43.38916266666667" lon="10.856435166666666"><ele>319.0</ele><time>2026-04-18T12:36:25.967Z</time></trkpt><trkpt lat="43.38905783333333" lon="10.856342666666668"><ele>319.0</ele><time>2026-04-18T12:36:26.936Z</time></trkpt><trkpt lat="43.38896066666666" lon="10.856248999999998"><ele>319.0</ele><time>2026-04-18T12:36:27.929Z</time></trkpt><trkpt lat="43.388873333333336" lon="10.856163166666665"><ele>319.0</ele><time>2026-04-18T12:36:28.938Z</time></trkpt><trkpt lat="43.38879416666667" lon="10.8560785"><ele>316.75</ele><time>2026-04-18T12:36:29.957Z</time></trkpt><trkpt lat="43.38872116666666" lon="10.855978333333333"><ele>314.5</ele><time>2026-04-18T12:36:30.941Z</time></trkpt><trkpt lat="43.388656499999996" lon="10.855851500000002"><ele>312.25</ele><time>2026-04-18T12:36:31.927Z</time></trkpt><trkpt lat="43.388594833333336" lon="10.855702666666666"><ele>310.0</ele><time>2026-04-18T12:36:32.929Z</time></trkpt><trkpt lat="43.388528" lon="10.855545500000002"><ele>310.0</ele><time>2026-04-18T12:36:33.934Z</time></trkpt><trkpt lat="43.38845766666667" lon="10.855384833333336"><ele>310.0</ele><time>2026-04-18T12:36:34.981Z</time></trkpt><trkpt lat="43.388385666666665" lon="10.855225166666665"><ele>310.0</ele><time>2026-04-18T12:36:35.929Z</time></trkpt><trkpt lat="43.38831499999999" lon="10.855073499999998"><ele>310.0</ele><time>2026-04-18T12:36:36.943Z</time></trkpt><trkpt lat="43.38824983333334" lon="10.854925500000002"><ele>309.4</ele><time>2026-04-18T12:36:37.937Z</time></trkpt><trkpt lat="43.38819216666667" lon="10.854785000000001"><ele>308.8</ele><time>2026-04-18T12:36:38.945Z</time></trkpt><trkpt lat="43.38813683333333" lon="10.854660166666667"><ele>308.2</ele><time>2026-04-18T12:36:39.937Z</time></trkpt><trkpt lat="43.388071000000004" lon="10.854551"><ele>307.6</ele><time>2026-04-18T12:36:40.933Z</time></trkpt><trkpt lat="43.388002264763394" lon="10.854431223343965"><ele>307.0</ele><time>2026-04-18T12:36:41.946Z</time></trkpt><trkpt lat="43.387910710437325" lon="10.85432302271349"><ele>303.5</ele><time>2026-04-18T12:36:42.965Z</time></trkpt><trkpt lat="43.38781072951359" lon="10.85421330071324"><ele>300.0</ele><time>2026-04-18T12:36:43.932Z</time></trkpt><trkpt lat="43.3877081277834" lon="10.854112824770853"><ele>296.5</ele><time>2026-04-18T12:36:44.93Z</time></trkpt><trkpt lat="43.387613034343" lon="10.854019869498895"><ele>293.0</ele><time>2026-04-18T12:36:46.032Z</time></trkpt><trkpt lat="43.38752821347776" lon="10.853924386051649"><ele>293.0</ele><time>2026-04-18T12:36:46.966Z</time></trkpt><trkpt lat="43.387447623109" lon="10.853825558146044"><ele>293.0</ele><time>2026-04-18T12:36:47.929Z</time></trkpt><trkpt lat="43.38737133922542" lon="10.853735578346722"><ele>293.0</ele><time>2026-04-18T12:36:48.933Z</time></trkpt><trkpt lat="43.3872905443286" lon="10.853664628901985"><ele>293.0</ele><time>2026-04-18T12:36:49.935Z</time></trkpt><trkpt lat="43.387195553793866" lon="10.853624095514318"><ele>293.0</ele><time>2026-04-18T12:36:50.929Z</time></trkpt><trkpt lat="43.38708515454784" lon="10.853629029133064"><ele>291.2</ele><time>2026-04-18T12:36:51.942Z</time></trkpt><trkpt lat="43.38697333344451" lon="10.85366092227713"><ele>289.4</ele><time>2026-04-18T12:36:52.929Z</time></trkpt><trkpt lat="43.38686450999692" lon="10.853703071534342"><ele>287.59999999999997</ele><time>2026-04-18T12:36:53.937Z</time></trkpt><trkpt lat="43.38676379615082" lon="10.853746270249742"><ele>285.8</ele><time>2026-04-18T12:36:54.941Z</time></trkpt><trkpt lat="43.386675015833234" lon="10.853808772345612"><ele>284.0</ele><time>2026-04-18T12:36:55.935Z</time></trkpt><trkpt lat="43.38661931549184" lon="10.853913948816777"><ele>284.0</ele><time>2026-04-18T12:36:56.95Z</time></trkpt><trkpt lat="43.3866028512558" lon="10.854047364733816"><ele>284.0</ele><time>2026-04-18T12:36:57.93Z</time></trkpt><trkpt lat="43.386597290155144" lon="10.854171167039308"><ele>284.0</ele><time>2026-04-18T12:36:59.037Z</time></trkpt><trkpt lat="43.38659262536653" lon="10.854297782618417"><ele>284.0</ele><time>2026-04-18T12:36:59.962Z</time></trkpt><trkpt lat="43.38658588560406" lon="10.854480064489104"><ele>284.0</ele><time>2026-04-18T12:37:00.939Z</time></trkpt><trkpt lat="43.38657004306268" lon="10.854650164619498"><ele>283.59999999999997</ele><time>2026-04-18T12:37:02.938Z</time></trkpt><trkpt lat="43.38650769178883" lon="10.85470083659814"><ele>283.2</ele><time>2026-04-18T12:37:05.938Z</time></trkpt><trkpt lat="43.38637159998675" lon="10.854721395573268"><ele>282.79999999999995</ele><time>2026-04-18T12:37:07.942Z</time></trkpt><trkpt lat="43.38628536355627" lon="10.854731129672778"><ele>282.4</ele><time>2026-04-18T12:37:08.965Z</time></trkpt><trkpt lat="43.386201648753456" lon="10.854742096252574"><ele>282.0</ele><time>2026-04-18T12:37:09.933Z</time></trkpt><trkpt lat="43.38612070303344" lon="10.854762183106347"><ele>279.2</ele><time>2026-04-18T12:37:10.934Z</time></trkpt><trkpt lat="43.38604143555065" lon="10.854804306113179"><ele>276.4</ele><time>2026-04-18T12:37:11.935Z</time></trkpt><trkpt lat="43.385979037686766" lon="10.854887796262378"><ele>273.6</ele><time>2026-04-18T12:37:12.973Z</time></trkpt><trkpt lat="43.3859407950036" lon="10.854990240297145"><ele>270.8</ele><time>2026-04-18T12:37:13.95Z</time></trkpt><trkpt lat="43.38584161305915" lon="10.855099989859758"><ele>268.0</ele><time>2026-04-18T12:37:15.943Z</time></trkpt><trkpt lat="43.3857715" lon="10.855114468816002"><ele>268.0</ele><time>2026-04-18T12:37:16.958Z</time></trkpt><trkpt lat="43.385692500000005" lon="10.855115999999999"><ele>268.0</ele><time>2026-04-18T12:37:17.931Z</time></trkpt><trkpt lat="43.38560833333332" lon="10.855075"><ele>268.0</ele><time>2026-04-18T12:37:18.934Z</time></trkpt><trkpt lat="43.385514666666666" lon="10.855022166666666"><ele>268.0</ele><time>2026-04-18T12:37:19.944Z</time></trkpt><trkpt lat="43.38540966666666" lon="10.854965666666665"><ele>268.0</ele><time>2026-04-18T12:37:20.927Z</time></trkpt><trkpt lat="43.38529816666667" lon="10.854907166666665"><ele>265.0</ele><time>2026-04-18T12:37:21.938Z</time></trkpt><trkpt lat="43.3851815" lon="10.854851166666668"><ele>262.0</ele><time>2026-04-18T12:37:22.936Z</time></trkpt><trkpt lat="43.38506099999999" lon="10.854791666666666"><ele>259.0</ele><time>2026-04-18T12:37:23.929Z</time></trkpt><trkpt lat="43.38494666666667" lon="10.854728833333336"><ele>256.0</ele><time>2026-04-18T12:37:24.934Z</time></trkpt><trkpt lat="43.38484933333334" lon="10.854666666666665"><ele>256.0</ele><time>2026-04-18T12:37:25.937Z</time></trkpt><trkpt lat="43.38476783333334" lon="10.854609666666667"><ele>256.0</ele><time>2026-04-18T12:37:26.933Z</time></trkpt><trkpt lat="43.38468733333334" lon="10.854564166666668"><ele>256.0</ele><time>2026-04-18T12:37:27.931Z</time></trkpt><trkpt lat="43.38460465950294" lon="10.854510400364298"><ele>256.0</ele><time>2026-04-18T12:37:28.951Z</time></trkpt><trkpt lat="43.384505000000004" lon="10.854515499999998"><ele>256.0</ele><time>2026-04-18T12:37:29.946Z</time></trkpt><trkpt lat="43.38440833333334" lon="10.854508833333334"><ele>254.0</ele><time>2026-04-18T12:37:30.986Z</time></trkpt><trkpt lat="43.38431554589087" lon="10.854482901904321"><ele>252.00000000000003</ele><time>2026-04-18T12:37:31.935Z</time></trkpt><trkpt lat="43.38422687325659" lon="10.854487069122317"><ele>250.00000000000003</ele><time>2026-04-18T12:37:32.93Z</time></trkpt><trkpt lat="43.384141005234994" lon="10.854519475151003"><ele>248.0</ele><time>2026-04-18T12:37:33.954Z</time></trkpt><trkpt lat="43.38407574564992" lon="10.85457844077879"><ele>246.0</ele><time>2026-04-18T12:37:34.93Z</time></trkpt><trkpt lat="43.38398551108662" lon="10.854662446755702"><ele>246.0</ele><time>2026-04-18T12:37:36.929Z</time></trkpt><trkpt lat="43.38391133333333" lon="10.854677833333335"><ele>246.0</ele><time>2026-04-18T12:37:38.96Z</time></trkpt><trkpt lat="43.383858333333336" lon="10.854624333333334"><ele>246.0</ele><time>2026-04-18T12:37:40.934Z</time></trkpt><trkpt lat="43.383783124158974" lon="10.85459091481748"><ele>246.0</ele><time>2026-04-18T12:37:44.938Z</time></trkpt><trkpt lat="43.38379366666666" lon="10.8544245"><ele>246.0</ele><time>2026-04-18T12:37:45.938Z</time></trkpt><trkpt lat="43.3837595" lon="10.854329833333335"><ele>246.0</ele><time>2026-04-18T12:37:48.935Z</time></trkpt><trkpt lat="43.383774333333335" lon="10.8544145"><ele>244.83333333333334</ele><time>2026-04-18T12:38:00.942Z</time></trkpt><trkpt lat="43.38380166666667" lon="10.85452916666667"><ele>243.66666666666669</ele><time>2026-04-18T12:38:03.968Z</time></trkpt><trkpt lat="43.38383733333333" lon="10.854613333333335"><ele>242.5</ele><time>2026-04-18T12:38:07.964Z</time></trkpt><trkpt lat="43.38378907447845" lon="10.854690647584205"><ele>241.33333333333334</ele><time>2026-04-18T12:38:18.935Z</time></trkpt><trkpt lat="43.383732020356156" lon="10.854766356612993"><ele>240.16666666666669</ele><time>2026-04-18T12:38:20.966Z</time></trkpt><trkpt lat="43.38365683333333" lon="10.854828666666666"><ele>239.0</ele><time>2026-04-18T12:38:22.934Z</time></trkpt><trkpt lat="43.383557999999994" lon="10.854821166666667"><ele>239.00000000000003</ele><time>2026-04-18T12:38:24.946Z</time></trkpt><trkpt lat="43.383466" lon="10.854808"><ele>239.0</ele><time>2026-04-18T12:38:26.944Z</time></trkpt><trkpt lat="43.383366666666674" lon="10.854822166666668"><ele>239.0</ele><time>2026-04-18T12:38:28.962Z</time></trkpt><trkpt lat="43.38328033333334" lon="10.854860666666665"><ele>239.0</ele><time>2026-04-18T12:38:30.932Z</time></trkpt><trkpt lat="43.383216833333336" lon="10.854901500000002"><ele>239.00000000000003</ele><time>2026-04-18T12:38:31.947Z</time></trkpt><trkpt lat="43.38313864626816" lon="10.854929099819865"><ele>239.0</ele><time>2026-04-18T12:38:32.943Z</time></trkpt><trkpt lat="43.383063665772895" lon="10.854983692388162"><ele>237.66666666666669</ele><time>2026-04-18T12:38:33.966Z</time></trkpt><trkpt lat="43.382990793058" lon="10.855034876300373"><ele>236.33333333333334</ele><time>2026-04-18T12:38:34.943Z</time></trkpt><trkpt lat="43.38292266666668" lon="10.85509633333333"><ele>235.0</ele><time>2026-04-18T12:38:36.022Z</time></trkpt><trkpt lat="43.382843666666666" lon="10.855116333333335"><ele>233.66666666666669</ele><time>2026-04-18T12:38:36.935Z</time></trkpt><trkpt lat="43.382762166666666" lon="10.855105"><ele>232.33333333333334</ele><time>2026-04-18T12:38:37.931Z</time></trkpt><trkpt lat="43.382673999999994" lon="10.855069333333333"><ele>231.0</ele><time>2026-04-18T12:38:38.939Z</time></trkpt><trkpt lat="43.38257666666667" lon="10.855016166666667"><ele>231.0</ele><time>2026-04-18T12:38:39.938Z</time></trkpt><trkpt lat="43.38247333333334" lon="10.854959166666667"><ele>231.0</ele><time>2026-04-18T12:38:40.935Z</time></trkpt><trkpt lat="43.382367666666674" lon="10.854898833333335"><ele>231.0</ele><time>2026-04-18T12:38:41.958Z</time></trkpt><trkpt lat="43.38226083333334" lon="10.8548365"><ele>231.0</ele><time>2026-04-18T12:38:42.926Z</time></trkpt><trkpt lat="43.38215449999999" lon="10.854777333333333"><ele>230.20000000000002</ele><time>2026-04-18T12:38:43.939Z</time></trkpt><trkpt lat="43.38205283333333" lon="10.854719833333336"><ele>229.40000000000003</ele><time>2026-04-18T12:38:44.935Z</time></trkpt><trkpt lat="43.3819585" lon="10.854669000000001"><ele>228.6</ele><time>2026-04-18T12:38:45.938Z</time></trkpt><trkpt lat="43.38187033333334" lon="10.8546205"><ele>227.8</ele><time>2026-04-18T12:38:46.967Z</time></trkpt><trkpt lat="43.38178966666666" lon="10.854564333333334"><ele>227.0</ele><time>2026-04-18T12:38:47.942Z</time></trkpt><trkpt lat="43.38171933333333" lon="10.854489666666666"><ele>227.0</ele><time>2026-04-18T12:38:48.93Z</time></trkpt><trkpt lat="43.381664" lon="10.854393499999999"><ele>227.0</ele><time>2026-04-18T12:38:49.946Z</time></trkpt><trkpt lat="43.38162033333333" lon="10.854280666666666"><ele>227.0</ele><time>2026-04-18T12:38:50.947Z</time></trkpt><trkpt lat="43.38157233333333" lon="10.854166666666666"><ele>227.0</ele><time>2026-04-18T12:38:51.931Z</time></trkpt><trkpt lat="43.3815145" lon="10.854057333333332"><ele>227.0</ele><time>2026-04-18T12:38:52.934Z</time></trkpt><trkpt lat="43.381443166666664" lon="10.853959166666668"><ele>226.2</ele><time>2026-04-18T12:38:53.939Z</time></trkpt><trkpt lat="43.3813635" lon="10.853868"><ele>225.39999999999998</ele><time>2026-04-18T12:38:54.959Z</time></trkpt><trkpt lat="43.38127833333333" lon="10.853782"><ele>224.60000000000002</ele><time>2026-04-18T12:38:55.94Z</time></trkpt><trkpt lat="43.381189" lon="10.853693833333333"><ele>223.8</ele><time>2026-04-18T12:38:56.946Z</time></trkpt><trkpt lat="43.381099999999996" lon="10.853607666666669"><ele>223.0</ele><time>2026-04-18T12:38:57.932Z</time></trkpt><trkpt lat="43.3810155" lon="10.853523499999998"><ele>221.8</ele><time>2026-04-18T12:38:58.952Z</time></trkpt><trkpt lat="43.3808985" lon="10.853418833333334"><ele>220.60000000000002</ele><time>2026-04-18T12:38:59.938Z</time></trkpt><trkpt lat="43.38080033333334" lon="10.853330000000001"><ele>219.39999999999998</ele><time>2026-04-18T12:39:01.931Z</time></trkpt><trkpt lat="43.380741333333326" lon="10.853282166666668"><ele>218.2</ele><time>2026-04-18T12:39:02.938Z</time></trkpt><trkpt lat="43.380683" lon="10.853239166666667"><ele>217.0</ele><time>2026-04-18T12:39:03.966Z</time></trkpt><trkpt lat="43.380608833333326" lon="10.853191666666664"><ele>216.99999999999997</ele><time>2026-04-18T12:39:05.93Z</time></trkpt><trkpt lat="43.38067387598809" lon="10.853219342176441"><ele>217.0</ele><time>2026-04-18T12:39:45.959Z</time></trkpt><trkpt lat="43.38074233333334" lon="10.8532815"><ele>217.0</ele><time>2026-04-18T12:39:50.968Z</time></trkpt><trkpt lat="43.38082716666666" lon="10.853357666666666"><ele>217.0</ele><time>2026-04-18T12:39:53.942Z</time></trkpt><trkpt lat="43.38090233333334" lon="10.85342583333333"><ele>216.99999999999997</ele><time>2026-04-18T12:39:55.935Z</time></trkpt><trkpt lat="43.38097316666667" lon="10.853491833333331"><ele>217.0</ele><time>2026-04-18T12:39:57.931Z</time></trkpt><trkpt lat="43.38103216666667" lon="10.853529833333335"><ele>216.99999999999997</ele><time>2026-04-18T12:39:59.932Z</time></trkpt><trkpt lat="43.38109883333333" lon="10.853492000000001"><ele>217.0</ele><time>2026-04-18T12:40:02.951Z</time></trkpt><trkpt lat="43.38111816666666" lon="10.853378333333334"><ele>217.0</ele><time>2026-04-18T12:40:05.932Z</time></trkpt><trkpt lat="43.38111850000001" lon="10.853272666666665"><ele>217.0</ele><time>2026-04-18T12:40:07.963Z</time></trkpt><trkpt lat="43.381106166666655" lon="10.853155833333334"><ele>216.99999999999997</ele><time>2026-04-18T12:40:09.935Z</time></trkpt><trkpt lat="43.381081333333334" lon="10.853028166666665"><ele>217.0</ele><time>2026-04-18T12:40:11.959Z</time></trkpt><trkpt lat="43.381040500000005" lon="10.852892999999998"><ele>217.0</ele><time>2026-04-18T12:40:13.944Z</time></trkpt><trkpt lat="43.38098566666666" lon="10.852749333333334"><ele>217.0</ele><time>2026-04-18T12:40:15.962Z</time></trkpt><trkpt lat="43.38093033333333" lon="10.852605999999998"><ele>217.0</ele><time>2026-04-18T12:40:17.952Z</time></trkpt><trkpt lat="43.38087016666667" lon="10.852472333333333"><ele>217.0</ele><time>2026-04-18T12:40:19.948Z</time></trkpt><trkpt lat="43.38081183333334" lon="10.852337666666665"><ele>216.33333333333331</ele><time>2026-04-18T12:40:21.946Z</time></trkpt><trkpt lat="43.38074633333334" lon="10.852200666666665"><ele>215.66666666666666</ele><time>2026-04-18T12:40:23.948Z</time></trkpt><trkpt lat="43.38071066666666" lon="10.852127333333332"><ele>215.0</ele><time>2026-04-18T12:40:24.954Z</time></trkpt><trkpt lat="43.380674666666664" lon="10.852050000000002"><ele>214.33333333333331</ele><time>2026-04-18T12:40:25.938Z</time></trkpt><trkpt lat="43.38063733333334" lon="10.851969999999998"><ele>213.66666666666666</ele><time>2026-04-18T12:40:26.933Z</time></trkpt><trkpt lat="43.38059766666667" lon="10.851888333333331"><ele>213.0</ele><time>2026-04-18T12:40:27.939Z</time></trkpt><trkpt lat="43.380556999999996" lon="10.8518025"><ele>211.83333333333334</ele><time>2026-04-18T12:40:28.963Z</time></trkpt><trkpt lat="43.38051516666666" lon="10.851713833333335"><ele>210.66666666666669</ele><time>2026-04-18T12:40:29.932Z</time></trkpt><trkpt lat="43.380474500000005" lon="10.851621666666665"><ele>209.5</ele><time>2026-04-18T12:40:30.939Z</time></trkpt><trkpt lat="43.38043699999999" lon="10.851527166666665"><ele>208.33333333333334</ele><time>2026-04-18T12:40:31.939Z</time></trkpt><trkpt lat="43.38040266666666" lon="10.851433833333331"><ele>207.16666666666669</ele><time>2026-04-18T12:40:32.956Z</time></trkpt><trkpt lat="43.380376166666665" lon="10.851343333333334"><ele>206.0</ele><time>2026-04-18T12:40:33.926Z</time></trkpt><trkpt lat="43.38034016666667" lon="10.851193"><ele>205.99999999999997</ele><time>2026-04-18T12:40:35.941Z</time></trkpt><trkpt lat="43.380321" lon="10.851102666666668"><ele>206.0</ele><time>2026-04-18T12:40:37.947Z</time></trkpt><trkpt lat="43.380308500000005" lon="10.851014333333335"><ele>206.0</ele><time>2026-04-18T12:40:44.936Z</time></trkpt><trkpt lat="43.38029616666666" lon="10.850900166666667"><ele>206.0</ele><time>2026-04-18T12:40:52.94Z</time></trkpt><trkpt lat="43.380284333333336" lon="10.850772"><ele>206.0</ele><time>2026-04-18T12:40:54.954Z</time></trkpt><trkpt lat="43.38027866666666" lon="10.850684833333332"><ele>205.99999999999997</ele><time>2026-04-18T12:40:55.936Z</time></trkpt><trkpt lat="43.380269" lon="10.850591166666666"><ele>206.0</ele><time>2026-04-18T12:40:56.927Z</time></trkpt><trkpt lat="43.38025133333334" lon="10.850503499999997"><ele>205.20000000000002</ele><time>2026-04-18T12:40:57.936Z</time></trkpt><trkpt lat="43.38021066666666" lon="10.850393833333332"><ele>204.4</ele><time>2026-04-18T12:40:58.964Z</time></trkpt><trkpt lat="43.380162500000004" lon="10.850295333333335"><ele>203.6</ele><time>2026-04-18T12:41:00.937Z</time></trkpt><trkpt lat="43.38009683333333" lon="10.850156166666666"><ele>202.8</ele><time>2026-04-18T12:41:02.931Z</time></trkpt><trkpt lat="43.380044" lon="10.849989333333333"><ele>202.0</ele><time>2026-04-18T12:41:04.935Z</time></trkpt><trkpt lat="43.38002616666667" lon="10.849886333333332"><ele>200.66666666666666</ele><time>2026-04-18T12:41:05.94Z</time></trkpt><trkpt lat="43.380011499999995" lon="10.849776333333333"><ele>199.33333333333331</ele><time>2026-04-18T12:41:06.955Z</time></trkpt><trkpt lat="43.37999483333333" lon="10.849661166666666"><ele>198.0</ele><time>2026-04-18T12:41:07.955Z</time></trkpt><trkpt lat="43.37997733333333" lon="10.849544500000002"><ele>196.66666666666669</ele><time>2026-04-18T12:41:08.943Z</time></trkpt><trkpt lat="43.37995250000001" lon="10.849433500000002"><ele>195.33333333333334</ele><time>2026-04-18T12:41:09.945Z</time></trkpt><trkpt lat="43.379915499999996" lon="10.849331333333335"><ele>194.0</ele><time>2026-04-18T12:41:10.957Z</time></trkpt><trkpt lat="43.3798705" lon="10.849234000000001"><ele>192.6</ele><time>2026-04-18T12:41:11.953Z</time></trkpt><trkpt lat="43.379818166666674" lon="10.849135833333332"><ele>191.2</ele><time>2026-04-18T12:41:12.927Z</time></trkpt><trkpt lat="43.379756833333346" lon="10.849037500000001"><ele>189.79999999999998</ele><time>2026-04-18T12:41:13.94Z</time></trkpt><trkpt lat="43.379690833333335" lon="10.848940333333333"><ele>188.39999999999998</ele><time>2026-04-18T12:41:14.939Z</time></trkpt><trkpt lat="43.37962566666666" lon="10.848844"><ele>187.0</ele><time>2026-04-18T12:41:15.96Z</time></trkpt><trkpt lat="43.3795555" lon="10.848758000000002"><ele>185.6</ele><time>2026-04-18T12:41:16.944Z</time></trkpt><trkpt lat="43.3794785" lon="10.848682499999999"><ele>184.2</ele><time>2026-04-18T12:41:17.928Z</time></trkpt><trkpt lat="43.379401166666675" lon="10.848612"><ele>182.8</ele><time>2026-04-18T12:41:18.936Z</time></trkpt><trkpt lat="43.379295500000005" lon="10.848507666666668"><ele>181.4</ele><time>2026-04-18T12:41:19.961Z</time></trkpt><trkpt lat="43.37923766666666" lon="10.848438666666668"><ele>180.0</ele><time>2026-04-18T12:41:21.081Z</time></trkpt><trkpt lat="43.3791895" lon="10.848372833333334"><ele>180.0</ele><time>2026-04-18T12:41:21.938Z</time></trkpt><trkpt lat="43.37911916666667" lon="10.848243333333334"><ele>180.0</ele><time>2026-04-18T12:41:23.944Z</time></trkpt><trkpt lat="43.379073500000004" lon="10.848120333333334"><ele>180.0</ele><time>2026-04-18T12:41:25.944Z</time></trkpt><trkpt lat="43.37904533333334" lon="10.848001333333332"><ele>180.0</ele><time>2026-04-18T12:41:27.951Z</time></trkpt><trkpt lat="43.37903283333333" lon="10.847894166666666"><ele>180.0</ele><time>2026-04-18T12:41:29.936Z</time></trkpt><trkpt lat="43.379023833333335" lon="10.8478015"><ele>180.0</ele><time>2026-04-18T12:41:31.939Z</time></trkpt><trkpt lat="43.3790115" lon="10.847716500000002"><ele>180.0</ele><time>2026-04-18T12:41:33.988Z</time></trkpt><trkpt lat="43.37899183333334" lon="10.847616833333333"><ele>180.0</ele><time>2026-04-18T12:41:36.93Z</time></trkpt><trkpt lat="43.37896116666667" lon="10.847515333333334"><ele>180.0</ele><time>2026-04-18T12:41:40.942Z</time></trkpt><trkpt lat="43.37892583333334" lon="10.8474185"><ele>180.0</ele><time>2026-04-18T12:42:02.951Z</time></trkpt><trkpt lat="43.37890000000001" lon="10.847319999999998"><ele>180.0</ele><time>2026-04-18T12:42:05.937Z</time></trkpt><trkpt lat="43.378878" lon="10.847214833333332"><ele>180.4</ele><time>2026-04-18T12:42:07.931Z</time></trkpt><trkpt lat="43.37885883333334" lon="10.847080666666667"><ele>180.8</ele><time>2026-04-18T12:42:09.93Z</time></trkpt><trkpt lat="43.378838333333334" lon="10.846927166666667"><ele>181.2</ele><time>2026-04-18T12:42:11.928Z</time></trkpt><trkpt lat="43.37880566666666" lon="10.846767166666666"><ele>181.6</ele><time>2026-04-18T12:42:13.929Z</time></trkpt><trkpt lat="43.378780166666665" lon="10.846686166666665"><ele>182.0</ele><time>2026-04-18T12:42:14.95Z</time></trkpt><trkpt lat="43.378749333333325" lon="10.846605666666667"><ele>181.0</ele><time>2026-04-18T12:42:15.961Z</time></trkpt><trkpt lat="43.3787135" lon="10.846524833333335"><ele>180.0</ele><time>2026-04-18T12:42:16.937Z</time></trkpt><trkpt lat="43.37867716666667" lon="10.8464425"><ele>179.0</ele><time>2026-04-18T12:42:17.93Z</time></trkpt><trkpt lat="43.37863866666667" lon="10.846358333333333"><ele>178.0</ele><time>2026-04-18T12:42:18.937Z</time></trkpt><trkpt lat="43.378599666666666" lon="10.846271999999997"><ele>177.0</ele><time>2026-04-18T12:42:19.96Z</time></trkpt><trkpt lat="43.37856116666667" lon="10.846182666666667"><ele>176.0</ele><time>2026-04-18T12:42:20.937Z</time></trkpt><trkpt lat="43.37852633333333" lon="10.846088666666665"><ele>175.0</ele><time>2026-04-18T12:42:21.944Z</time></trkpt><trkpt lat="43.37849433333334" lon="10.845991"><ele>175.5</ele><time>2026-04-18T12:42:22.933Z</time></trkpt><trkpt lat="43.37846166666667" lon="10.845893"><ele>176.0</ele><time>2026-04-18T12:42:23.957Z</time></trkpt><trkpt lat="43.37841066666667" lon="10.845745"><ele>176.5</ele><time>2026-04-18T12:42:24.937Z</time></trkpt><trkpt lat="43.37837366666666" lon="10.845647666666666"><ele>177.0</ele><time>2026-04-18T12:42:25.931Z</time></trkpt><trkpt lat="43.37833883333333" lon="10.845548833333332"><ele>177.5</ele><time>2026-04-18T12:42:26.945Z</time></trkpt><trkpt lat="43.378314" lon="10.845446166666667"><ele>178.0</ele><time>2026-04-18T12:42:27.94Z</time></trkpt><trkpt lat="43.37829066666666" lon="10.845345000000002"><ele>178.0</ele><time>2026-04-18T12:42:28.951Z</time></trkpt><trkpt lat="43.37824266666666" lon="10.845201999999999"><ele>178.0</ele><time>2026-04-18T12:42:30.941Z</time></trkpt><trkpt lat="43.37820216666667" lon="10.845114166666667"><ele>178.0</ele><time>2026-04-18T12:42:31.945Z</time></trkpt><trkpt lat="43.37815616666667" lon="10.845034666666669"><ele>178.0</ele><time>2026-04-18T12:42:32.945Z</time></trkpt><trkpt lat="43.37810833333334" lon="10.844962999999998"><ele>178.0</ele><time>2026-04-18T12:42:33.94Z</time></trkpt><trkpt lat="43.37806050000001" lon="10.844892333333332"><ele>178.0</ele><time>2026-04-18T12:42:34.937Z</time></trkpt><trkpt lat="43.37800966666667" lon="10.844818166666668"><ele>177.83333333333334</ele><time>2026-04-18T12:42:35.949Z</time></trkpt><trkpt lat="43.37795800000001" lon="10.844734833333332"><ele>177.66666666666669</ele><time>2026-04-18T12:42:36.961Z</time></trkpt><trkpt lat="43.37790683333333" lon="10.844645500000002"><ele>177.5</ele><time>2026-04-18T12:42:37.944Z</time></trkpt><trkpt lat="43.377856166666675" lon="10.844554500000001"><ele>177.33333333333334</ele><time>2026-04-18T12:42:38.941Z</time></trkpt><trkpt lat="43.37780633333333" lon="10.844465999999999"><ele>177.16666666666666</ele><time>2026-04-18T12:42:39.931Z</time></trkpt><trkpt lat="43.377759166666664" lon="10.8443815"><ele>177.0</ele><time>2026-04-18T12:42:40.948Z</time></trkpt><trkpt lat="43.37772233333334" lon="10.84429"><ele>177.0</ele><time>2026-04-18T12:42:41.93Z</time></trkpt><trkpt lat="43.37769916666666" lon="10.844191166666667"><ele>177.0</ele><time>2026-04-18T12:42:42.951Z</time></trkpt><trkpt lat="43.37768566666667" lon="10.844090666666666"><ele>177.0</ele><time>2026-04-18T12:42:43.937Z</time></trkpt><trkpt lat="43.3776755" lon="10.843991166666667"><ele>177.0</ele><time>2026-04-18T12:42:44.95Z</time></trkpt><trkpt lat="43.377667833333334" lon="10.843894166666667"><ele>177.0</ele><time>2026-04-18T12:42:45.953Z</time></trkpt><trkpt lat="43.37765866666667" lon="10.8437975"><ele>177.0</ele><time>2026-04-18T12:42:46.945Z</time></trkpt><trkpt lat="43.3776445" lon="10.843700666666665"><ele>177.0</ele><time>2026-04-18T12:42:47.931Z</time></trkpt><trkpt lat="43.3776245" lon="10.843600833333335"><ele>177.0</ele><time>2026-04-18T12:42:48.938Z</time></trkpt><trkpt lat="43.37760333333334" lon="10.843498833333333"><ele>177.0</ele><time>2026-04-18T12:42:49.965Z</time></trkpt><trkpt lat="43.37758" lon="10.8433975"><ele>177.0</ele><time>2026-04-18T12:42:50.944Z</time></trkpt><trkpt lat="43.377553500000005" lon="10.843297833333335"><ele>177.0</ele><time>2026-04-18T12:42:51.937Z</time></trkpt><trkpt lat="43.37752650000001" lon="10.843198"><ele>177.0</ele><time>2026-04-18T12:42:52.941Z</time></trkpt><trkpt lat="43.37749766666668" lon="10.843098833333334"><ele>177.0</ele><time>2026-04-18T12:42:53.955Z</time></trkpt><trkpt lat="43.37746533333333" lon="10.843002666666667"><ele>177.0</ele><time>2026-04-18T12:42:54.936Z</time></trkpt><trkpt lat="43.377429666666664" lon="10.842908499999998"><ele>177.0</ele><time>2026-04-18T12:42:55.938Z</time></trkpt><trkpt lat="43.377388333333336" lon="10.842816333333333"><ele>177.0</ele><time>2026-04-18T12:42:56.936Z</time></trkpt><trkpt lat="43.37734" lon="10.842725166666666"><ele>177.0</ele><time>2026-04-18T12:42:57.956Z</time></trkpt><trkpt lat="43.37728799999999" lon="10.842635833333334"><ele>177.0</ele><time>2026-04-18T12:42:58.929Z</time></trkpt><trkpt lat="43.377236833333335" lon="10.842553666666667"><ele>177.0</ele><time>2026-04-18T12:42:59.951Z</time></trkpt><trkpt lat="43.377189833333325" lon="10.842482166666665"><ele>175.66666666666666</ele><time>2026-04-18T12:43:00.95Z</time></trkpt><trkpt lat="43.37714516666667" lon="10.842419166666666"><ele>174.33333333333334</ele><time>2026-04-18T12:43:01.949Z</time></trkpt><trkpt lat="43.377057833333346" lon="10.842296333333335"><ele>173.0</ele><time>2026-04-18T12:43:03.933Z</time></trkpt><trkpt lat="43.37701333333333" lon="10.842233333333336"><ele>171.66666666666669</ele><time>2026-04-18T12:43:04.934Z</time></trkpt><trkpt lat="43.37696533333333" lon="10.84217"><ele>170.33333333333334</ele><time>2026-04-18T12:43:05.941Z</time></trkpt><trkpt lat="43.376912499999996" lon="10.842106166666667"><ele>169.0</ele><time>2026-04-18T12:43:06.961Z</time></trkpt><trkpt lat="43.37685750000001" lon="10.842041500000002"><ele>169.0</ele><time>2026-04-18T12:43:07.941Z</time></trkpt><trkpt lat="43.37680333333333" lon="10.841977333333332"><ele>169.0</ele><time>2026-04-18T12:43:08.932Z</time></trkpt><trkpt lat="43.37675216666667" lon="10.84191666666667"><ele>169.0</ele><time>2026-04-18T12:43:09.942Z</time></trkpt><trkpt lat="43.37670283333334" lon="10.841858666666667"><ele>169.0</ele><time>2026-04-18T12:43:10.973Z</time></trkpt><trkpt lat="43.37665716666667" lon="10.841791166666667"><ele>169.0</ele><time>2026-04-18T12:43:11.937Z</time></trkpt><trkpt lat="43.376620333333335" lon="10.8417135"><ele>169.0</ele><time>2026-04-18T12:43:12.938Z</time></trkpt><trkpt lat="43.37658883333334" lon="10.841630166666667"><ele>169.0</ele><time>2026-04-18T12:43:13.934Z</time></trkpt><trkpt lat="43.376557000000005" lon="10.841545833333331"><ele>168.16666666666669</ele><time>2026-04-18T12:43:14.946Z</time></trkpt><trkpt lat="43.376522333333334" lon="10.841462166666666"><ele>167.33333333333334</ele><time>2026-04-18T12:43:15.928Z</time></trkpt><trkpt lat="43.376482833333334" lon="10.841378"><ele>166.5</ele><time>2026-04-18T12:43:16.928Z</time></trkpt><trkpt lat="43.376436" lon="10.841291000000002"><ele>165.66666666666666</ele><time>2026-04-18T12:43:17.934Z</time></trkpt><trkpt lat="43.376381499999994" lon="10.841203166666665"><ele>164.83333333333331</ele><time>2026-04-18T12:43:18.945Z</time></trkpt><trkpt lat="43.376320333333325" lon="10.841120666666665"><ele>164.0</ele><time>2026-04-18T12:43:19.955Z</time></trkpt><trkpt lat="43.37625583333334" lon="10.841036666666666"><ele>163.33333333333331</ele><time>2026-04-18T12:43:20.934Z</time></trkpt><trkpt lat="43.376191000000006" lon="10.840950666666668"><ele>162.66666666666666</ele><time>2026-04-18T12:43:21.946Z</time></trkpt><trkpt lat="43.37612566666666" lon="10.8408635"><ele>162.0</ele><time>2026-04-18T12:43:22.939Z</time></trkpt><trkpt lat="43.37606" lon="10.840777833333334"><ele>161.33333333333334</ele><time>2026-04-18T12:43:23.958Z</time></trkpt><trkpt lat="43.37599616666667" lon="10.840695666666667"><ele>160.66666666666669</ele><time>2026-04-18T12:43:24.934Z</time></trkpt><trkpt lat="43.37593316666666" lon="10.840614500000001"><ele>160.0</ele><time>2026-04-18T12:43:25.933Z</time></trkpt><trkpt lat="43.375871833333335" lon="10.840531166666665"><ele>160.0</ele><time>2026-04-18T12:43:26.937Z</time></trkpt><trkpt lat="43.37581216666667" lon="10.840444833333333"><ele>160.0</ele><time>2026-04-18T12:43:27.968Z</time></trkpt><trkpt lat="43.37575566666666" lon="10.84035833333333"><ele>160.0</ele><time>2026-04-18T12:43:28.946Z</time></trkpt><trkpt lat="43.375700833333326" lon="10.840275999999998"><ele>160.0</ele><time>2026-04-18T12:43:29.938Z</time></trkpt><trkpt lat="43.375648333333324" lon="10.840197000000002"><ele>160.0</ele><time>2026-04-18T12:43:30.944Z</time></trkpt><trkpt lat="43.375602166666674" lon="10.840118166666665"><ele>160.0</ele><time>2026-04-18T12:43:31.948Z</time></trkpt><trkpt lat="43.375549166666666" lon="10.839993666666665"><ele>159.6</ele><time>2026-04-18T12:43:33.951Z</time></trkpt><trkpt lat="43.375555" lon="10.839904166666669"><ele>159.2</ele><time>2026-04-18T12:43:35.938Z</time></trkpt><trkpt lat="43.375587499999995" lon="10.839799000000001"><ele>158.8</ele><time>2026-04-18T12:43:37.936Z</time></trkpt><trkpt lat="43.375591333333325" lon="10.839646499999999"><ele>158.4</ele><time>2026-04-18T12:43:39.933Z</time></trkpt><trkpt lat="43.375565" lon="10.839473333333336"><ele>158.0</ele><time>2026-04-18T12:43:41.937Z</time></trkpt><trkpt lat="43.375551166666675" lon="10.839381833333334"><ele>157.66666666666666</ele><time>2026-04-18T12:43:42.937Z</time></trkpt><trkpt lat="43.375541000000005" lon="10.839288666666668"><ele>157.33333333333331</ele><time>2026-04-18T12:43:43.941Z</time></trkpt><trkpt lat="43.37553866666667" lon="10.839193333333332"><ele>157.0</ele><time>2026-04-18T12:43:44.95Z</time></trkpt><trkpt lat="43.375542833333334" lon="10.839100833333335"><ele>156.66666666666666</ele><time>2026-04-18T12:43:45.945Z</time></trkpt><trkpt lat="43.3754843559439" lon="10.839022397572384"><ele>156.33333333333334</ele><time>2026-04-18T12:43:46.945Z</time></trkpt><trkpt lat="43.37546132248331" lon="10.838881913897103"><ele>156.0</ele><time>2026-04-18T12:43:48.945Z</time></trkpt><trkpt lat="43.375438451229364" lon="10.838691333333333"><ele>156.0</ele><time>2026-04-18T12:43:50.939Z</time></trkpt><trkpt lat="43.375451466716896" lon="10.838567877759392"><ele>156.0</ele><time>2026-04-18T12:43:51.937Z</time></trkpt><trkpt lat="43.37547475665509" lon="10.838483233978316"><ele>156.0</ele><time>2026-04-18T12:43:52.944Z</time></trkpt><trkpt lat="43.37551254953776" lon="10.83836879311188"><ele>156.0</ele><time>2026-04-18T12:43:54.943Z</time></trkpt><trkpt lat="43.37554853674256" lon="10.838271091397562"><ele>156.0</ele><time>2026-04-18T12:43:56.95Z</time></trkpt><trkpt lat="43.37560243294558" lon="10.838156857935168"><ele>156.0</ele><time>2026-04-18T12:43:58.966Z</time></trkpt><trkpt lat="43.37569999196277" lon="10.838043443162974"><ele>155.4</ele><time>2026-04-18T12:44:00.933Z</time></trkpt><trkpt lat="43.375806174685735" lon="10.837993974947434"><ele>154.8</ele><time>2026-04-18T12:44:02.939Z</time></trkpt><trkpt lat="43.375912932454895" lon="10.837974282713466"><ele>154.20000000000002</ele><time>2026-04-18T12:44:04.938Z</time></trkpt><trkpt lat="43.376015036870704" lon="10.837982961098218"><ele>153.6</ele><time>2026-04-18T12:44:06.953Z</time></trkpt><trkpt lat="43.37609902033756" lon="10.837999214720377"><ele>153.0</ele><time>2026-04-18T12:44:08.942Z</time></trkpt><trkpt lat="43.376172033992674" lon="10.83801248951022"><ele>153.0</ele><time>2026-04-18T12:44:10.961Z</time></trkpt><trkpt lat="43.37624778826485" lon="10.838023911126816"><ele>153.0</ele><time>2026-04-18T12:44:13.95Z</time></trkpt><trkpt lat="43.376315999999996" lon="10.838027166666667"><ele>153.0</ele><time>2026-04-18T12:44:29.95Z</time></trkpt><trkpt lat="43.37640333333334" lon="10.838008833333333"><ele>153.0</ele><time>2026-04-18T12:44:33.946Z</time></trkpt><trkpt lat="43.37646783333333" lon="10.838008333333335"><ele>153.0</ele><time>2026-04-18T12:44:35.948Z</time></trkpt><trkpt lat="43.37655483333333" lon="10.838002666666666"><ele>153.0</ele><time>2026-04-18T12:44:37.93Z</time></trkpt><trkpt lat="43.37666051135108" lon="10.838027352880296"><ele>150.20000000000002</ele><time>2026-04-18T12:44:39.958Z</time></trkpt><trkpt lat="43.37678202892246" lon="10.838031888633546"><ele>147.4</ele><time>2026-04-18T12:44:41.951Z</time></trkpt><trkpt lat="43.37687443804681" lon="10.838036781240167"><ele>144.60000000000002</ele><time>2026-04-18T12:44:43.944Z</time></trkpt><trkpt lat="43.37695368111927" lon="10.838039562964045"><ele>141.8</ele><time>2026-04-18T12:44:45.937Z</time></trkpt><trkpt lat="43.37704065768101" lon="10.838041147562482"><ele>139.0</ele><time>2026-04-18T12:44:47.938Z</time></trkpt><trkpt lat="43.37715861893278" lon="10.838035065882218"><ele>136.8</ele><time>2026-04-18T12:44:50.942Z</time></trkpt><trkpt lat="43.37725020368398" lon="10.838009373093334"><ele>134.60000000000002</ele><time>2026-04-18T12:44:52.959Z</time></trkpt><trkpt lat="43.377333876906455" lon="10.837962643148378"><ele>132.4</ele><time>2026-04-18T12:44:54.945Z</time></trkpt><trkpt lat="43.3774123061583" lon="10.83788343844446"><ele>130.20000000000002</ele><time>2026-04-18T12:44:56.947Z</time></trkpt><trkpt lat="43.377506313953646" lon="10.837764049222661"><ele>128.0</ele><time>2026-04-18T12:44:58.937Z</time></trkpt><trkpt lat="43.37756509876023" lon="10.837630264275735"><ele>128.0</ele><time>2026-04-18T12:45:00.942Z</time></trkpt><trkpt lat="43.377606091195446" lon="10.837519466802448"><ele>128.0</ele><time>2026-04-18T12:45:02.935Z</time></trkpt><trkpt lat="43.37766256578849" lon="10.837461181088447"><ele>128.0</ele><time>2026-04-18T12:45:05.95Z</time></trkpt><trkpt lat="43.377753958261586" lon="10.837465072108397"><ele>128.0</ele><time>2026-04-18T12:45:07.945Z</time></trkpt><trkpt lat="43.37785562259398" lon="10.83741538229052"><ele>128.0</ele><time>2026-04-18T12:45:10.967Z</time></trkpt><trkpt lat="43.37794572168816" lon="10.837359468680816"><ele>127.4</ele><time>2026-04-18T12:45:12.943Z</time></trkpt><trkpt lat="43.37804544081448" lon="10.837314111270079"><ele>126.80000000000001</ele><time>2026-04-18T12:45:14.962Z</time></trkpt><trkpt lat="43.378145207305025" lon="10.837287167152079"><ele>126.2</ele><time>2026-04-18T12:45:16.946Z</time></trkpt><trkpt lat="43.37822775918309" lon="10.837267961433907"><ele>125.6</ele><time>2026-04-18T12:45:18.958Z</time></trkpt><trkpt lat="43.3782909382099" lon="10.837122346077088"><ele>125.0</ele><time>2026-04-18T12:45:20.941Z</time></trkpt><trkpt lat="43.378297886813094" lon="10.836947284255697"><ele>124.99999999999999</ele><time>2026-04-18T12:45:22.951Z</time></trkpt><trkpt lat="43.37830166450662" lon="10.836838081462899"><ele>125.0</ele><time>2026-04-18T12:45:24.932Z</time></trkpt><trkpt lat="43.37830475004001" lon="10.836748887848785"><ele>125.0</ele><time>2026-04-18T12:45:25.934Z</time></trkpt><trkpt lat="43.3783061925181" lon="10.836646010993583"><ele>125.0</ele><time>2026-04-18T12:45:28.938Z</time></trkpt><trkpt lat="43.378305803916895" lon="10.836538128560928"><ele>124.99999999999999</ele><time>2026-04-18T12:45:51.93Z</time></trkpt><trkpt lat="43.378301112055084" lon="10.836394393604001"><ele>125.0</ele><time>2026-04-18T12:45:53.958Z</time></trkpt><trkpt lat="43.378287014887064" lon="10.836230933680648"><ele>124.99999999999999</ele><time>2026-04-18T12:45:55.955Z</time></trkpt><trkpt lat="43.3782783382251" lon="10.836139161354973"><ele>125.0</ele><time>2026-04-18T12:45:56.945Z</time></trkpt><trkpt lat="43.37826877034742" lon="10.836037962637883"><ele>125.0</ele><time>2026-04-18T12:45:57.951Z</time></trkpt><trkpt lat="43.3782581264273" lon="10.835929006617363"><ele>125.0</ele><time>2026-04-18T12:45:58.934Z</time></trkpt><trkpt lat="43.378243226831" lon="10.835814982537503"><ele>124.99999999999999</ele><time>2026-04-18T12:45:59.93Z</time></trkpt><trkpt lat="43.37822386559705" lon="10.835702163600443"><ele>125.0</ele><time>2026-04-18T12:46:00.955Z</time></trkpt><trkpt lat="43.378199283778876" lon="10.835583405564666"><ele>125.2</ele><time>2026-04-18T12:46:01.961Z</time></trkpt><trkpt lat="43.37817122445903" lon="10.835460528448365"><ele>125.4</ele><time>2026-04-18T12:46:02.94Z</time></trkpt><trkpt lat="43.37814255247466" lon="10.835336399012707"><ele>125.6</ele><time>2026-04-18T12:46:03.935Z</time></trkpt><trkpt lat="43.37811374100197" lon="10.835211665975914"><ele>125.8</ele><time>2026-04-18T12:46:04.934Z</time></trkpt><trkpt lat="43.37808424002963" lon="10.835085284328217"><ele>126.0</ele><time>2026-04-18T12:46:05.952Z</time></trkpt><trkpt lat="43.378051499121305" lon="10.834956928514638"><ele>125.0</ele><time>2026-04-18T12:46:06.99Z</time></trkpt><trkpt lat="43.37800994686652" lon="10.834827862308922"><ele>124.0</ele><time>2026-04-18T12:46:07.944Z</time></trkpt><trkpt lat="43.377963123794814" lon="10.834701233865337"><ele>123.0</ele><time>2026-04-18T12:46:08.951Z</time></trkpt><trkpt lat="43.377911870654884" lon="10.8345761229405"><ele>122.0</ele><time>2026-04-18T12:46:09.951Z</time></trkpt><trkpt lat="43.37785765329368" lon="10.834453489644684"><ele>121.0</ele><time>2026-04-18T12:46:10.965Z</time></trkpt><trkpt lat="43.37780039785729" lon="10.834336826161959"><ele>121.19999999999999</ele><time>2026-04-18T12:46:11.999Z</time></trkpt><trkpt lat="43.37774034769143" lon="10.834226749131693"><ele>121.39999999999999</ele><time>2026-04-18T12:46:12.939Z</time></trkpt><trkpt lat="43.37767988450599" lon="10.834119425851911"><ele>121.6</ele><time>2026-04-18T12:46:13.946Z</time></trkpt><trkpt lat="43.37761710621314" lon="10.834010546523725"><ele>121.8</ele><time>2026-04-18T12:46:14.963Z</time></trkpt><trkpt lat="43.37755246876757" lon="10.833901940711314"><ele>122.0</ele><time>2026-04-18T12:46:15.947Z</time></trkpt><trkpt lat="43.37748459049811" lon="10.833791607188902"><ele>122.0</ele><time>2026-04-18T12:46:16.951Z</time></trkpt><trkpt lat="43.37741299626937" lon="10.833684233923393"><ele>121.99999999999999</ele><time>2026-04-18T12:46:17.943Z</time></trkpt><trkpt lat="43.37733977003321" lon="10.833581970320406"><ele>121.99999999999999</ele><time>2026-04-18T12:46:18.929Z</time></trkpt><trkpt lat="43.377264332256516" lon="10.833486682407536"><ele>122.0</ele><time>2026-04-18T12:46:19.946Z</time></trkpt><trkpt lat="43.37718652637429" lon="10.83339556699182"><ele>122.0</ele><time>2026-04-18T12:46:20.931Z</time></trkpt><trkpt lat="43.37710535647969" lon="10.833306716592174"><ele>120.8</ele><time>2026-04-18T12:46:21.947Z</time></trkpt><trkpt lat="43.377022387112284" lon="10.833220819321996"><ele>119.6</ele><time>2026-04-18T12:46:22.944Z</time></trkpt><trkpt lat="43.37693947437215" lon="10.833138629883173"><ele>118.39999999999999</ele><time>2026-04-18T12:46:23.978Z</time></trkpt><trkpt lat="43.37685586162942" lon="10.833055746308197"><ele>117.19999999999999</ele><time>2026-04-18T12:46:24.95Z</time></trkpt><trkpt lat="43.376768487826205" lon="10.832975288896646"><ele>116.0</ele><time>2026-04-18T12:46:25.93Z</time></trkpt><trkpt lat="43.37667886076588" lon="10.832896936690037"><ele>116.0</ele><time>2026-04-18T12:46:26.943Z</time></trkpt><trkpt lat="43.37658411547506" lon="10.83282875751861"><ele>116.0</ele><time>2026-04-18T12:46:27.947Z</time></trkpt><trkpt lat="43.37648233333333" lon="10.832782"><ele>116.0</ele><time>2026-04-18T12:46:28.938Z</time></trkpt><trkpt lat="43.37638983333333" lon="10.832711833333335"><ele>116.0</ele><time>2026-04-18T12:46:29.944Z</time></trkpt><trkpt lat="43.3762985" lon="10.832641"><ele>116.0</ele><time>2026-04-18T12:46:30.943Z</time></trkpt><trkpt lat="43.37620833333334" lon="10.832570500000001"><ele>116.19999999999999</ele><time>2026-04-18T12:46:31.977Z</time></trkpt><trkpt lat="43.37612916850409" lon="10.832480722435589"><ele>116.39999999999999</ele><time>2026-04-18T12:46:32.938Z</time></trkpt><trkpt lat="43.37604368491904" lon="10.83240840909192"><ele>116.6</ele><time>2026-04-18T12:46:33.939Z</time></trkpt><trkpt lat="43.3759588109387" lon="10.832336611641818"><ele>116.8</ele><time>2026-04-18T12:46:34.948Z</time></trkpt><trkpt lat="43.37587160218859" lon="10.832266826532942"><ele>117.0</ele><time>2026-04-18T12:46:35.958Z</time></trkpt><trkpt lat="43.37578335128155" lon="10.832202771488356"><ele>117.0</ele><time>2026-04-18T12:46:36.934Z</time></trkpt><trkpt lat="43.37569319074582" lon="10.832144667957218"><ele>116.99999999999999</ele><time>2026-04-18T12:46:37.939Z</time></trkpt><trkpt lat="43.37560270329036" lon="10.832092631689582"><ele>116.99999999999999</ele><time>2026-04-18T12:46:38.943Z</time></trkpt><trkpt lat="43.37551120237953" lon="10.832042845531948"><ele>117.0</ele><time>2026-04-18T12:46:39.947Z</time></trkpt><trkpt lat="43.37537485715083" lon="10.831983972424533"><ele>117.0</ele><time>2026-04-18T12:46:41.935Z</time></trkpt><trkpt lat="43.37528480523519" lon="10.831951965137545"><ele>116.16666666666667</ele><time>2026-04-18T12:46:43.027Z</time></trkpt><trkpt lat="43.37519647071141" lon="10.831922666826488"><ele>115.33333333333334</ele><time>2026-04-18T12:46:43.958Z</time></trkpt><trkpt lat="43.37510979179474" lon="10.831897466813212"><ele>114.5</ele><time>2026-04-18T12:46:44.944Z</time></trkpt><trkpt lat="43.37502545948215" lon="10.831874119971106"><ele>113.66666666666667</ele><time>2026-04-18T12:46:45.929Z</time></trkpt><trkpt lat="43.37494181679198" lon="10.831853179117637"><ele>112.83333333333334</ele><time>2026-04-18T12:46:46.934Z</time></trkpt><trkpt lat="43.37486049549503" lon="10.83183697042"><ele>112.0</ele><time>2026-04-18T12:46:47.956Z</time></trkpt><trkpt lat="43.37478596756476" lon="10.831826688160906"><ele>112.00000000000001</ele><time>2026-04-18T12:46:48.964Z</time></trkpt><trkpt lat="43.37470981055046" lon="10.831823119658658"><ele>112.0</ele><time>2026-04-18T12:46:50.938Z</time></trkpt><trkpt lat="43.3746389959947" lon="10.831822261734544"><ele>112.0</ele><time>2026-04-18T12:47:56.968Z</time></trkpt><trkpt lat="43.37455948221664" lon="10.831823175685484"><ele>112.0</ele><time>2026-04-18T12:47:58.944Z</time></trkpt><trkpt lat="43.3744456747114" lon="10.831828499991317"><ele>112.00000000000001</ele><time>2026-04-18T12:48:00.948Z</time></trkpt><trkpt lat="43.37438074688786" lon="10.831834341078062"><ele>112.0</ele><time>2026-04-18T12:48:01.973Z</time></trkpt><trkpt lat="43.37431103901155" lon="10.831842391726324"><ele>111.66666666666667</ele><time>2026-04-18T12:48:02.949Z</time></trkpt><trkpt lat="43.37423920821347" lon="10.831855315515597"><ele>111.33333333333334</ele><time>2026-04-18T12:48:03.945Z</time></trkpt><trkpt lat="43.37416624376522" lon="10.8318725011328"><ele>111.0</ele><time>2026-04-18T12:48:04.943Z</time></trkpt><trkpt lat="43.37409228929186" lon="10.831890682483426"><ele>110.66666666666666</ele><time>2026-04-18T12:48:05.98Z</time></trkpt><trkpt lat="43.373977772185405" lon="10.831919795903259"><ele>110.33333333333333</ele><time>2026-04-18T12:48:07.952Z</time></trkpt><trkpt lat="43.373899233871775" lon="10.831940396503942"><ele>110.0</ele><time>2026-04-18T12:48:08.947Z</time></trkpt><trkpt lat="43.37381967718404" lon="10.831962958629818"><ele>109.83333333333333</ele><time>2026-04-18T12:48:09.964Z</time></trkpt><trkpt lat="43.37373812102863" lon="10.83198592010779"><ele>109.66666666666666</ele><time>2026-04-18T12:48:10.942Z</time></trkpt><trkpt lat="43.373654977513006" lon="10.832011237930189"><ele>109.5</ele><time>2026-04-18T12:48:11.945Z</time></trkpt><trkpt lat="43.37357108859669" lon="10.832037403025222"><ele>109.33333333333334</ele><time>2026-04-18T12:48:12.94Z</time></trkpt><trkpt lat="43.37348645555559" lon="10.832065008163125"><ele>109.16666666666667</ele><time>2026-04-18T12:48:13.964Z</time></trkpt><trkpt lat="43.373400759137" lon="10.832093179051176"><ele>109.0</ele><time>2026-04-18T12:48:14.939Z</time></trkpt><trkpt lat="43.373314221498724" lon="10.832122451347098"><ele>109.0</ele><time>2026-04-18T12:48:15.936Z</time></trkpt><trkpt lat="43.37322667413977" lon="10.832155647543141"><ele>109.0</ele><time>2026-04-18T12:48:16.942Z</time></trkpt><trkpt lat="43.37314051956905" lon="10.832186692060743"><ele>109.0</ele><time>2026-04-18T12:48:17.952Z</time></trkpt><trkpt lat="43.37305337720939" lon="10.832211174567934"><ele>109.0</ele><time>2026-04-18T12:48:18.96Z</time></trkpt><trkpt lat="43.37291851981773" lon="10.832244724695935"><ele>109.0</ele><time>2026-04-18T12:48:19.944Z</time></trkpt><trkpt lat="43.372787450869744" lon="10.832281705887043"><ele>109.00000000000001</ele><time>2026-04-18T12:48:21.948Z</time></trkpt><trkpt lat="43.37270455070321" lon="10.832303527363614"><ele>109.0</ele><time>2026-04-18T12:48:22.972Z</time></trkpt><trkpt lat="43.372627493668915" lon="10.832323359829045"><ele>109.0</ele><time>2026-04-18T12:48:23.944Z</time></trkpt><trkpt lat="43.37255618386946" lon="10.832343494999922"><ele>109.0</ele><time>2026-04-18T12:48:24.942Z</time></trkpt><trkpt lat="43.37248733931433" lon="10.83236585851543"><ele>109.00000000000001</ele><time>2026-04-18T12:48:25.936Z</time></trkpt><trkpt lat="43.372412892655234" lon="10.83238991118398"><ele>109.0</ele><time>2026-04-18T12:48:26.964Z</time></trkpt><trkpt lat="43.37233187371734" lon="10.832412720794355"><ele>109.00000000000001</ele><time>2026-04-18T12:48:27.948Z</time></trkpt><trkpt lat="43.372246828880535" lon="10.832432245284505"><ele>109.0</ele><time>2026-04-18T12:48:28.938Z</time></trkpt><trkpt lat="43.37216092642691" lon="10.832446939710865"><ele>109.0</ele><time>2026-04-18T12:48:29.936Z</time></trkpt><trkpt lat="43.37207449999999" lon="10.83245247281138"><ele>109.0</ele><time>2026-04-18T12:48:30.96Z</time></trkpt><trkpt lat="43.37198679241269" lon="10.83244882959928"><ele>109.00000000000001</ele><time>2026-04-18T12:48:31.946Z</time></trkpt><trkpt lat="43.371898442865614" lon="10.83243975419477"><ele>109.0</ele><time>2026-04-18T12:48:32.934Z</time></trkpt><trkpt lat="43.371810861695785" lon="10.832426811197754"><ele>108.4</ele><time>2026-04-18T12:48:33.948Z</time></trkpt><trkpt lat="43.371723519718344" lon="10.832406503596184"><ele>107.80000000000001</ele><time>2026-04-18T12:48:34.965Z</time></trkpt><trkpt lat="43.371633493902145" lon="10.832382350317225"><ele>107.19999999999999</ele><time>2026-04-18T12:48:35.972Z</time></trkpt><trkpt lat="43.37154101057498" lon="10.832354734423811"><ele>106.6</ele><time>2026-04-18T12:48:36.951Z</time></trkpt><trkpt lat="43.37144300478522" lon="10.832319996930645"><ele>106.0</ele><time>2026-04-18T12:48:37.94Z</time></trkpt><trkpt lat="43.37133990474515" lon="10.832272328108658"><ele>104.5</ele><time>2026-04-18T12:48:38.941Z</time></trkpt><trkpt lat="43.37118860472764" lon="10.83217914278127"><ele>103.0</ele><time>2026-04-18T12:48:39.949Z</time></trkpt><trkpt lat="43.371088351697615" lon="10.832106419485363"><ele>101.5</ele><time>2026-04-18T12:48:40.953Z</time></trkpt><trkpt lat="43.37099194229275" lon="10.832024504020671"><ele>100.0</ele><time>2026-04-18T12:48:41.953Z</time></trkpt><trkpt lat="43.370861466584984" lon="10.831885058067982"><ele>99.0</ele><time>2026-04-18T12:48:43.965Z</time></trkpt><trkpt lat="43.370781920682944" lon="10.831782935177653"><ele>98.0</ele><time>2026-04-18T12:48:44.985Z</time></trkpt><trkpt lat="43.37070676152644" lon="10.831677448200344"><ele>97.0</ele><time>2026-04-18T12:48:45.941Z</time></trkpt><trkpt lat="43.370635925205306" lon="10.831570285567466"><ele>96.0</ele><time>2026-04-18T12:48:46.943Z</time></trkpt><trkpt lat="43.37056808468437" lon="10.83145867141558"><ele>95.0</ele><time>2026-04-18T12:48:47.953Z</time></trkpt><trkpt lat="43.3705027066707" lon="10.831343133200392"><ele>95.0</ele><time>2026-04-18T12:48:48.94Z</time></trkpt><trkpt lat="43.37044094848884" lon="10.831222059724965"><ele>95.0</ele><time>2026-04-18T12:48:49.945Z</time></trkpt><trkpt lat="43.37038247531998" lon="10.831094666375808"><ele>95.0</ele><time>2026-04-18T12:48:51.025Z</time></trkpt><trkpt lat="43.37032258384076" lon="10.830965096379261"><ele>95.0</ele><time>2026-04-18T12:48:51.948Z</time></trkpt><trkpt lat="43.3702602659126" lon="10.830837708523937"><ele>95.0</ele><time>2026-04-18T12:48:53.07Z</time></trkpt><trkpt lat="43.37019752970414" lon="10.830709466025825"><ele>95.75</ele><time>2026-04-18T12:48:53.93Z</time></trkpt><trkpt lat="43.37013301412074" lon="10.830580076503072"><ele>96.5</ele><time>2026-04-18T12:48:54.941Z</time></trkpt><trkpt lat="43.370068154917874" lon="10.830449230294704"><ele>97.25</ele><time>2026-04-18T12:48:55.941Z</time></trkpt><trkpt lat="43.3700052199085" lon="10.830315648091023"><ele>98.0</ele><time>2026-04-18T12:48:56.969Z</time></trkpt><trkpt lat="43.36991346414794" lon="10.830102468562632"><ele>99.0</ele><time>2026-04-18T12:48:57.933Z</time></trkpt><trkpt lat="43.369858218109165" lon="10.829952278235066"><ele>100.0</ele><time>2026-04-18T12:48:58.946Z</time></trkpt><trkpt lat="43.36981287974654" lon="10.829794418783933"><ele>101.0</ele><time>2026-04-18T12:48:59.955Z</time></trkpt><trkpt lat="43.36977052061452" lon="10.829631915179933"><ele>102.0</ele><time>2026-04-18T12:49:00.956Z</time></trkpt><trkpt lat="43.369716000000004" lon="10.829480499999999"><ele>99.0</ele><time>2026-04-18T12:49:01.936Z</time></trkpt><trkpt lat="43.36969148727148" lon="10.829317967986913"><ele>96.0</ele><time>2026-04-18T12:49:02.941Z</time></trkpt><trkpt lat="43.3696355" lon="10.829171"><ele>93.0</ele><time>2026-04-18T12:49:03.94Z</time></trkpt><trkpt lat="43.369572249673766" lon="10.828851350119766"><ele>93.0</ele><time>2026-04-18T12:49:05.986Z</time></trkpt><trkpt lat="43.3695190955748" lon="10.82861811080759"><ele>93.0</ele><time>2026-04-18T12:49:07.95Z</time></trkpt><trkpt lat="43.36948464440149" lon="10.82846542344027"><ele>93.0</ele><time>2026-04-18T12:49:09.048Z</time></trkpt><trkpt lat="43.369450798685016" lon="10.828315419477681"><ele>93.0</ele><time>2026-04-18T12:49:09.967Z</time></trkpt><trkpt lat="43.369419299307836" lon="10.828168286042537"><ele>93.25</ele><time>2026-04-18T12:49:10.937Z</time></trkpt><trkpt lat="43.369375166666664" lon="10.828030666666667"><ele>93.5</ele><time>2026-04-18T12:49:11.937Z</time></trkpt><trkpt lat="43.36935466666667" lon="10.827884333333333"><ele>93.75</ele><time>2026-04-18T12:49:12.941Z</time></trkpt><trkpt lat="43.36934083333333" lon="10.827735666666667"><ele>94.0</ele><time>2026-04-18T12:49:13.974Z</time></trkpt><trkpt lat="43.369335166666666" lon="10.827505833333332"><ele>94.25</ele><time>2026-04-18T12:49:14.941Z</time></trkpt><trkpt lat="43.369341500000004" lon="10.8272625"><ele>94.5</ele><time>2026-04-18T12:49:16.937Z</time></trkpt><trkpt lat="43.36935216666667" lon="10.827092833333332"><ele>94.75</ele><time>2026-04-18T12:49:17.953Z</time></trkpt><trkpt lat="43.36936850000001" lon="10.826924333333332"><ele>95.0</ele><time>2026-04-18T12:49:18.974Z</time></trkpt><trkpt lat="43.36941106254719" lon="10.82676744871753"><ele>94.25</ele><time>2026-04-18T12:49:19.942Z</time></trkpt><trkpt lat="43.369445436611485" lon="10.826613238774296"><ele>93.5</ele><time>2026-04-18T12:49:20.945Z</time></trkpt><trkpt lat="43.36946983333334" lon="10.826452500000002"><ele>92.75</ele><time>2026-04-18T12:49:21.956Z</time></trkpt><trkpt lat="43.369512500000006" lon="10.826297166666665"><ele>92.0</ele><time>2026-04-18T12:49:22.978Z</time></trkpt><trkpt lat="43.369553333333336" lon="10.826141166666666"><ele>92.0</ele><time>2026-04-18T12:49:23.95Z</time></trkpt><trkpt lat="43.36959516666667" lon="10.825989"><ele>92.0</ele><time>2026-04-18T12:49:24.944Z</time></trkpt><trkpt lat="43.3696511990915" lon="10.825850116381574"><ele>92.0</ele><time>2026-04-18T12:49:25.949Z</time></trkpt><trkpt lat="43.369690761895974" lon="10.825710716422874"><ele>92.0</ele><time>2026-04-18T12:49:26.973Z</time></trkpt><trkpt lat="43.36973770547207" lon="10.825515110669942"><ele>91.66666666666667</ele><time>2026-04-18T12:49:27.945Z</time></trkpt><trkpt lat="43.369755000000005" lon="10.825338500000003"><ele>91.33333333333334</ele><time>2026-04-18T12:49:29.952Z</time></trkpt><trkpt lat="43.36977166666667" lon="10.825237833333333"><ele>91.0</ele><time>2026-04-18T12:49:30.958Z</time></trkpt><trkpt lat="43.36978683333333" lon="10.825118000000002"><ele>90.66666666666667</ele><time>2026-04-18T12:49:31.941Z</time></trkpt><trkpt lat="43.369794666666664" lon="10.825028666666666"><ele>90.33333333333333</ele><time>2026-04-18T12:49:33.944Z</time></trkpt><trkpt lat="43.369798666666675" lon="10.824939500000001"><ele>90.0</ele><time>2026-04-18T12:49:43.964Z</time></trkpt><trkpt lat="43.36979516666667" lon="10.824832666666667"><ele>90.0</ele><time>2026-04-18T12:49:55.945Z</time></trkpt><trkpt lat="43.369793" lon="10.824736333333332"><ele>90.0</ele><time>2026-04-18T12:49:57.953Z</time></trkpt><trkpt lat="43.36978816666666" lon="10.8246295"><ele>90.0</ele><time>2026-04-18T12:49:59.938Z</time></trkpt><trkpt lat="43.36977366666667" lon="10.824456833333334"><ele>90.0</ele><time>2026-04-18T12:50:01.941Z</time></trkpt><trkpt lat="43.36975533333333" lon="10.824307500000002"><ele>90.0</ele><time>2026-04-18T12:50:02.932Z</time></trkpt><trkpt lat="43.36972683333333" lon="10.824146"><ele>89.2</ele><time>2026-04-18T12:50:04.958Z</time></trkpt><trkpt lat="43.36970116666666" lon="10.824033833333331"><ele>88.4</ele><time>2026-04-18T12:50:05.949Z</time></trkpt><trkpt lat="43.369670833333345" lon="10.823920666666666"><ele>87.6</ele><time>2026-04-18T12:50:06.944Z</time></trkpt><trkpt lat="43.36963300000001" lon="10.8238065"><ele>86.8</ele><time>2026-04-18T12:50:07.956Z</time></trkpt><trkpt lat="43.36958716666666" lon="10.823686000000002"><ele>86.0</ele><time>2026-04-18T12:50:08.961Z</time></trkpt><trkpt lat="43.36955085748158" lon="10.823546020551017"><ele>85.75</ele><time>2026-04-18T12:50:09.946Z</time></trkpt><trkpt lat="43.36946733852473" lon="10.823361849562641"><ele>85.5</ele><time>2026-04-18T12:50:10.946Z</time></trkpt><trkpt lat="43.369410507817705" lon="10.823255067586258"><ele>85.25</ele><time>2026-04-18T12:50:11.95Z</time></trkpt><trkpt lat="43.369326281394244" lon="10.82311971943985"><ele>85.0</ele><time>2026-04-18T12:50:13.969Z</time></trkpt><trkpt lat="43.36926350000001" lon="10.823063833333332"><ele>85.0</ele><time>2026-04-18T12:50:16.949Z</time></trkpt><trkpt lat="43.369216333333334" lon="10.823005"><ele>85.0</ele><time>2026-04-18T12:50:19.945Z</time></trkpt><trkpt lat="43.36914748780995" lon="10.822903362471184"><ele>85.0</ele><time>2026-04-18T12:50:21.964Z</time></trkpt><trkpt lat="43.36903586923598" lon="10.822787999981188"><ele>85.0</ele><time>2026-04-18T12:50:23.95Z</time></trkpt><trkpt lat="43.36890101757955" lon="10.822652318793928"><ele>84.75</ele><time>2026-04-18T12:50:25.952Z</time></trkpt><trkpt lat="43.3688227309876" lon="10.822578242548008"><ele>84.5</ele><time>2026-04-18T12:50:26.965Z</time></trkpt><trkpt lat="43.36865637295754" lon="10.822432027175829"><ele>84.25</ele><time>2026-04-18T12:50:28.944Z</time></trkpt><trkpt lat="43.368573483203654" lon="10.822364581857585"><ele>84.0</ele><time>2026-04-18T12:50:29.946Z</time></trkpt><trkpt lat="43.36849001248698" lon="10.822303265624656"><ele>84.0</ele><time>2026-04-18T12:50:30.977Z</time></trkpt><trkpt lat="43.36838418245322" lon="10.822192347777975"><ele>84.0</ele><time>2026-04-18T12:50:32.941Z</time></trkpt><trkpt lat="43.36829883333333" lon="10.822156333333332"><ele>84.0</ele><time>2026-04-18T12:50:33.95Z</time></trkpt><trkpt lat="43.368198833333324" lon="10.822059999999999"><ele>84.0</ele><time>2026-04-18T12:50:34.957Z</time></trkpt><trkpt lat="43.368133333333326" lon="10.822002166666667"><ele>84.0</ele><time>2026-04-18T12:50:35.983Z</time></trkpt><trkpt lat="43.368066500000005" lon="10.821949833333335"><ele>83.80000000000001</ele><time>2026-04-18T12:50:36.95Z</time></trkpt><trkpt lat="43.368016859571746" lon="10.821856515867053"><ele>83.60000000000001</ele><time>2026-04-18T12:50:37.942Z</time></trkpt><trkpt lat="43.36794608127664" lon="10.821792130209165"><ele>83.4</ele><time>2026-04-18T12:50:38.948Z</time></trkpt><trkpt lat="43.36782315329727" lon="10.821682958537204"><ele>83.2</ele><time>2026-04-18T12:50:41.017Z</time></trkpt><trkpt lat="43.367733788882084" lon="10.821603594498098"><ele>83.0</ele><time>2026-04-18T12:50:41.936Z</time></trkpt><trkpt lat="43.36764231142523" lon="10.82152235386712"><ele>83.4</ele><time>2026-04-18T12:50:42.953Z</time></trkpt><trkpt lat="43.367550576228346" lon="10.821438638233559"><ele>83.80000000000001</ele><time>2026-04-18T12:50:43.969Z</time></trkpt><trkpt lat="43.36745955734807" lon="10.821355326054219"><ele>84.2</ele><time>2026-04-18T12:50:44.953Z</time></trkpt><trkpt lat="43.36737044781688" lon="10.821273761576926"><ele>84.6</ele><time>2026-04-18T12:50:45.941Z</time></trkpt><trkpt lat="43.3672824610404" lon="10.821195387470393"><ele>85.0</ele><time>2026-04-18T12:50:46.946Z</time></trkpt><trkpt lat="43.367196890187905" lon="10.821119478467994"><ele>83.75</ele><time>2026-04-18T12:50:47.964Z</time></trkpt><trkpt lat="43.36707152533977" lon="10.821010725816913"><ele>82.5</ele><time>2026-04-18T12:50:48.951Z</time></trkpt><trkpt lat="43.36699184546248" lon="10.820943075791444"><ele>81.25</ele><time>2026-04-18T12:50:49.941Z</time></trkpt><trkpt lat="43.36691555486541" lon="10.820875868557748"><ele>80.0</ele><time>2026-04-18T12:50:50.946Z</time></trkpt><trkpt lat="43.36680599710536" lon="10.820775849873398"><ele>80.0</ele><time>2026-04-18T12:50:52.934Z</time></trkpt><trkpt lat="43.36670810625137" lon="10.820676643741894"><ele>80.0</ele><time>2026-04-18T12:50:53.944Z</time></trkpt><trkpt lat="43.36664707966484" lon="10.820607091995019"><ele>80.0</ele><time>2026-04-18T12:50:54.95Z</time></trkpt><trkpt lat="43.36658839485359" lon="10.82053734601166"><ele>80.0</ele><time>2026-04-18T12:50:55.966Z</time></trkpt><trkpt lat="43.36653189026244" lon="10.820470191265292"><ele>80.0</ele><time>2026-04-18T12:50:56.981Z</time></trkpt><trkpt lat="43.36645015164287" lon="10.820373046184299"><ele>80.0</ele><time>2026-04-18T12:50:58.935Z</time></trkpt><trkpt lat="43.36639723897552" lon="10.82030861705454"><ele>80.0</ele><time>2026-04-18T12:51:00.054Z</time></trkpt><trkpt lat="43.36634337298234" lon="10.820242499543129"><ele>80.0</ele><time>2026-04-18T12:51:00.942Z</time></trkpt><trkpt lat="43.36625965329005" lon="10.820129759508095"><ele>80.0</ele><time>2026-04-18T12:51:01.944Z</time></trkpt><trkpt lat="43.36617794682657" lon="10.820011394487933"><ele>80.0</ele><time>2026-04-18T12:51:03.951Z</time></trkpt><trkpt lat="43.36612551048968" lon="10.819928993641389"><ele>79.8</ele><time>2026-04-18T12:51:04.949Z</time></trkpt><trkpt lat="43.366070103466136" lon="10.819844938378296"><ele>79.6</ele><time>2026-04-18T12:51:05.938Z</time></trkpt><trkpt lat="43.36601169244936" lon="10.81976022748202"><ele>79.4</ele><time>2026-04-18T12:51:06.941Z</time></trkpt><trkpt lat="43.365917313623086" lon="10.819628108656056"><ele>79.2</ele><time>2026-04-18T12:51:07.939Z</time></trkpt><trkpt lat="43.365848515998415" lon="10.81953228788357"><ele>79.0</ele><time>2026-04-18T12:51:08.962Z</time></trkpt><trkpt lat="43.36577035236553" lon="10.81942474240854"><ele>79.0</ele><time>2026-04-18T12:51:09.936Z</time></trkpt><trkpt lat="43.36568724414569" lon="10.819307202732547"><ele>79.0</ele><time>2026-04-18T12:51:10.946Z</time></trkpt><trkpt lat="43.36561178428751" lon="10.81918335137237"><ele>79.0</ele><time>2026-04-18T12:51:11.95Z</time></trkpt><trkpt lat="43.36549571387988" lon="10.819012467619919"><ele>79.0</ele><time>2026-04-18T12:51:13.99Z</time></trkpt><trkpt lat="43.3654211906156" lon="10.818904018775765"><ele>79.0</ele><time>2026-04-18T12:51:14.934Z</time></trkpt><trkpt lat="43.3653485684207" lon="10.818798336930762"><ele>79.0</ele><time>2026-04-18T12:51:15.95Z</time></trkpt><trkpt lat="43.36527718224813" lon="10.818694453666936"><ele>79.0</ele><time>2026-04-18T12:51:16.95Z</time></trkpt><trkpt lat="43.365206028093645" lon="10.818590907827259"><ele>79.0</ele><time>2026-04-18T12:51:17.966Z</time></trkpt><trkpt lat="43.36513644688521" lon="10.818489679659685"><ele>79.0</ele><time>2026-04-18T12:51:18.95Z</time></trkpt><trkpt lat="43.3650357008972" lon="10.818345220363096"><ele>78.8</ele><time>2026-04-18T12:51:19.952Z</time></trkpt><trkpt lat="43.364970879583" lon="10.818252273506467"><ele>78.60000000000001</ele><time>2026-04-18T12:51:20.942Z</time></trkpt><trkpt lat="43.36490788454606" lon="10.818161945184281"><ele>78.4</ele><time>2026-04-18T12:51:21.969Z</time></trkpt><trkpt lat="43.36481202026394" lon="10.81802448573662"><ele>78.2</ele><time>2026-04-18T12:51:23.944Z</time></trkpt><trkpt lat="43.36474399418127" lon="10.817926222947683"><ele>78.0</ele><time>2026-04-18T12:51:24.933Z</time></trkpt><trkpt lat="43.36467020222117" lon="10.817818384031234"><ele>78.0</ele><time>2026-04-18T12:51:25.958Z</time></trkpt><trkpt lat="43.364595934407056" lon="10.817709849473031"><ele>78.0</ele><time>2026-04-18T12:51:26.938Z</time></trkpt><trkpt lat="43.36448760395435" lon="10.81755153612803"><ele>78.0</ele><time>2026-04-18T12:51:27.939Z</time></trkpt><trkpt lat="43.364350481228215" lon="10.81735114610093"><ele>77.5</ele><time>2026-04-18T12:51:29.955Z</time></trkpt><trkpt lat="43.364256182914446" lon="10.81721333923625"><ele>77.0</ele><time>2026-04-18T12:51:31.942Z</time></trkpt><trkpt lat="43.36418161110367" lon="10.817104360477225"><ele>76.5</ele><time>2026-04-18T12:51:32.949Z</time></trkpt><trkpt lat="43.364098302701386" lon="10.816982614171224"><ele>76.0</ele><time>2026-04-18T12:51:34.979Z</time></trkpt><trkpt lat="43.364040328172145" lon="10.816897890656325"><ele>75.8</ele><time>2026-04-18T12:51:36.937Z</time></trkpt><trkpt lat="43.363967833333334" lon="10.816807500000001"><ele>75.6</ele><time>2026-04-18T12:51:38.965Z</time></trkpt><trkpt lat="43.36398351283943" lon="10.816663270912464"><ele>75.4</ele><time>2026-04-18T12:51:41.952Z</time></trkpt><trkpt lat="43.36402951414838" lon="10.81659709590881"><ele>75.2</ele><time>2026-04-18T12:51:43.941Z</time></trkpt><trkpt lat="43.36410863308714" lon="10.816510545322249"><ele>75.0</ele><time>2026-04-18T12:51:45.002Z</time></trkpt><trkpt lat="43.364170283221064" lon="10.816437624776894"><ele>75.0</ele><time>2026-04-18T12:51:45.954Z</time></trkpt><trkpt lat="43.364228083894105" lon="10.816355981552631"><ele>75.0</ele><time>2026-04-18T12:51:46.955Z</time></trkpt><trkpt lat="43.36428344738251" lon="10.816274726688386"><ele>75.0</ele><time>2026-04-18T12:51:47.96Z</time></trkpt><trkpt lat="43.364339052912165" lon="10.816196159283106"><ele>75.0</ele><time>2026-04-18T12:51:48.958Z</time></trkpt><trkpt lat="43.364395416317656" lon="10.81611862323944"><ele>75.0</ele><time>2026-04-18T12:51:49.95Z</time></trkpt><trkpt lat="43.364438500000006" lon="10.816028333333335"><ele>75.0</ele><time>2026-04-18T12:51:50.95Z</time></trkpt><trkpt lat="43.36451566666666" lon="10.815923833333333"><ele>75.0</ele><time>2026-04-18T12:51:52.944Z</time></trkpt><trkpt lat="43.36456533333334" lon="10.815855500000001"><ele>75.0</ele><time>2026-04-18T12:51:53.945Z</time></trkpt><trkpt lat="43.36464683333333" lon="10.815758666666667"><ele>75.0</ele><time>2026-04-18T12:51:54.954Z</time></trkpt><trkpt lat="43.36470633333333" lon="10.8157045"><ele>75.0</ele><time>2026-04-18T12:51:55.962Z</time></trkpt><trkpt lat="43.364765500000004" lon="10.815657333333336"><ele>75.0</ele><time>2026-04-18T12:51:56.941Z</time></trkpt><trkpt lat="43.36485116666666" lon="10.815586666666665"><ele>75.0</ele><time>2026-04-18T12:51:58.955Z</time></trkpt><trkpt lat="43.364906000000005" lon="10.815539333333334"><ele>75.33333333333333</ele><time>2026-04-18T12:51:59.958Z</time></trkpt><trkpt lat="43.364961166666674" lon="10.815491166666668"><ele>75.66666666666667</ele><time>2026-04-18T12:52:00.938Z</time></trkpt><trkpt lat="43.3650165" lon="10.81544266666667"><ele>76.0</ele><time>2026-04-18T12:52:01.933Z</time></trkpt><trkpt lat="43.365071500000006" lon="10.815397833333334"><ele>76.33333333333334</ele><time>2026-04-18T12:52:02.941Z</time></trkpt><trkpt lat="43.36513686187734" lon="10.815391647228447"><ele>76.66666666666667</ele><time>2026-04-18T12:52:03.946Z</time></trkpt><trkpt lat="43.36524266556114" lon="10.81535198419902"><ele>77.0</ele><time>2026-04-18T12:52:04.975Z</time></trkpt><trkpt lat="43.36536736280869" lon="10.815314369021076"><ele>77.0</ele><time>2026-04-18T12:52:06.945Z</time></trkpt><trkpt lat="43.36545302651895" lon="10.81528860197472"><ele>77.0</ele><time>2026-04-18T12:52:07.938Z</time></trkpt><trkpt lat="43.3655824761376" lon="10.815249664433727"><ele>77.0</ele><time>2026-04-18T12:52:08.969Z</time></trkpt><trkpt lat="43.365711976755904" lon="10.815214781263943"><ele>77.0</ele><time>2026-04-18T12:52:10.942Z</time></trkpt><trkpt lat="43.3658418558914" lon="10.815186739489858"><ele>78.2</ele><time>2026-04-18T12:52:11.948Z</time></trkpt><trkpt lat="43.365930121002734" lon="10.815171871914448"><ele>79.4</ele><time>2026-04-18T12:52:12.956Z</time></trkpt><trkpt lat="43.36602292621364" lon="10.815161177016446"><ele>80.60000000000001</ele><time>2026-04-18T12:52:13.937Z</time></trkpt><trkpt lat="43.366118484682495" lon="10.815153925819052"><ele>81.80000000000001</ele><time>2026-04-18T12:52:14.942Z</time></trkpt><trkpt lat="43.366214792342745" lon="10.81515599452732"><ele>83.0</ele><time>2026-04-18T12:52:15.946Z</time></trkpt><trkpt lat="43.36630750928236" lon="10.815163755022471"><ele>84.5</ele><time>2026-04-18T12:52:16.941Z</time></trkpt><trkpt lat="43.36639196351564" lon="10.815171662527245"><ele>86.0</ele><time>2026-04-18T12:52:17.946Z</time></trkpt><trkpt lat="43.36646445174507" lon="10.815180270949186"><ele>87.5</ele><time>2026-04-18T12:52:18.946Z</time></trkpt><trkpt lat="43.366561000000004" lon="10.815177833333333"><ele>89.0</ele><time>2026-04-18T12:52:20.95Z</time></trkpt><trkpt lat="43.366623833333335" lon="10.815161000000002"><ele>90.5</ele><time>2026-04-18T12:52:26.937Z</time></trkpt><trkpt lat="43.36661633333333" lon="10.815037166666665"><ele>92.0</ele><time>2026-04-18T12:52:31.951Z</time></trkpt><trkpt lat="43.36654883333334" lon="10.815013500000003"><ele>92.0</ele><time>2026-04-18T12:52:32.942Z</time></trkpt><trkpt lat="43.3664385" lon="10.814947166666665"><ele>92.0</ele><time>2026-04-18T12:52:34.945Z</time></trkpt><trkpt lat="43.3663685" lon="10.8149125"><ele>92.0</ele><time>2026-04-18T12:52:35.946Z</time></trkpt><trkpt lat="43.36628666666667" lon="10.814874333333336"><ele>92.0</ele><time>2026-04-18T12:52:36.937Z</time></trkpt><trkpt lat="43.366198000000004" lon="10.814833166666665"><ele>92.0</ele><time>2026-04-18T12:52:37.952Z</time></trkpt><trkpt lat="43.366105333333344" lon="10.814788"><ele>89.75</ele><time>2026-04-18T12:52:38.971Z</time></trkpt><trkpt lat="43.36596466666666" lon="10.814705666666669"><ele>87.5</ele><time>2026-04-18T12:52:40.942Z</time></trkpt><trkpt lat="43.365824999999994" lon="10.8146045"><ele>85.25</ele><time>2026-04-18T12:52:41.943Z</time></trkpt><trkpt lat="43.36573166666667" lon="10.814525833333335"><ele>83.0</ele><time>2026-04-18T12:52:42.944Z</time></trkpt><trkpt lat="43.36563783333333" lon="10.814442499999998"><ele>83.0</ele><time>2026-04-18T12:52:43.937Z</time></trkpt><trkpt lat="43.365543166666676" lon="10.814357333333332"><ele>83.0</ele><time>2026-04-18T12:52:44.935Z</time></trkpt><trkpt lat="43.365447833333334" lon="10.814269666666666"><ele>83.0</ele><time>2026-04-18T12:52:45.95Z</time></trkpt><trkpt lat="43.365351833333335" lon="10.814180166666665"><ele>83.0</ele><time>2026-04-18T12:52:46.954Z</time></trkpt><trkpt lat="43.36525533333334" lon="10.814092"><ele>81.66666666666667</ele><time>2026-04-18T12:52:47.939Z</time></trkpt><trkpt lat="43.365064166666656" lon="10.813912333333333"><ele>80.33333333333333</ele><time>2026-04-18T12:52:49.955Z</time></trkpt><trkpt lat="43.36497016666667" lon="10.813823"><ele>79.0</ele><time>2026-04-18T12:52:50.959Z</time></trkpt><trkpt lat="43.36487783333334" lon="10.813734666666669"><ele>79.0</ele><time>2026-04-18T12:52:51.949Z</time></trkpt><trkpt lat="43.36478683333333" lon="10.813648333333333"><ele>79.0</ele><time>2026-04-18T12:52:52.951Z</time></trkpt><trkpt lat="43.36469666666667" lon="10.813563666666669"><ele>79.0</ele><time>2026-04-18T12:52:53.948Z</time></trkpt><trkpt lat="43.364521333333336" lon="10.813398833333334"><ele>79.0</ele><time>2026-04-18T12:52:55.962Z</time></trkpt><trkpt lat="43.364436" lon="10.813318666666666"><ele>78.8</ele><time>2026-04-18T12:52:56.937Z</time></trkpt><trkpt lat="43.364351500000005" lon="10.8132405"><ele>78.60000000000001</ele><time>2026-04-18T12:52:57.948Z</time></trkpt><trkpt lat="43.364268833333334" lon="10.813164666666667"><ele>78.4</ele><time>2026-04-18T12:52:58.946Z</time></trkpt><trkpt lat="43.364189999999994" lon="10.813091000000002"><ele>78.2</ele><time>2026-04-18T12:52:59.943Z</time></trkpt><trkpt lat="43.364116333333335" lon="10.813023833333334"><ele>78.0</ele><time>2026-04-18T12:53:00.947Z</time></trkpt><trkpt lat="43.3640505" lon="10.812963666666668"><ele>78.0</ele><time>2026-04-18T12:53:01.945Z</time></trkpt><trkpt lat="43.36399633333333" lon="10.812914166666667"><ele>78.0</ele><time>2026-04-18T12:53:02.938Z</time></trkpt><trkpt lat="43.36392033333333" lon="10.812838"><ele>78.0</ele><time>2026-04-18T12:53:04.937Z</time></trkpt><trkpt lat="43.363858666666665" lon="10.812761499999999"><ele>78.0</ele><time>2026-04-18T12:53:07.955Z</time></trkpt><trkpt lat="43.363806666666676" lon="10.81270216666667"><ele>78.0</ele><time>2026-04-18T12:53:09.94Z</time></trkpt><trkpt lat="43.363691" lon="10.812664999999999"><ele>78.0</ele><time>2026-04-18T12:53:11.947Z</time></trkpt><trkpt lat="43.363626590223625" lon="10.81264330405069"><ele>78.16666666666667</ele><time>2026-04-18T12:53:12.964Z</time></trkpt><trkpt lat="43.36355388215342" lon="10.812638910023587"><ele>78.33333333333333</ele><time>2026-04-18T12:53:13.951Z</time></trkpt><trkpt lat="43.36347643467782" lon="10.812636300045897"><ele>78.5</ele><time>2026-04-18T12:53:14.943Z</time></trkpt><trkpt lat="43.363397756799245" lon="10.812635735468241"><ele>78.66666666666666</ele><time>2026-04-18T12:53:15.937Z</time></trkpt><trkpt lat="43.363317333333335" lon="10.812656333333333"><ele>78.83333333333333</ele><time>2026-04-18T12:53:16.955Z</time></trkpt><trkpt lat="43.36323600000001" lon="10.812655166666666"><ele>79.0</ele><time>2026-04-18T12:53:17.945Z</time></trkpt><trkpt lat="43.363154" lon="10.812654333333333"><ele>79.0</ele><time>2026-04-18T12:53:18.942Z</time></trkpt><trkpt lat="43.363073500000006" lon="10.812652833333335"><ele>79.0</ele><time>2026-04-18T12:53:19.934Z</time></trkpt><trkpt lat="43.36299600000001" lon="10.81265083333333"><ele>79.0</ele><time>2026-04-18T12:53:20.946Z</time></trkpt><trkpt lat="43.36292166666667" lon="10.812648666666666"><ele>79.0</ele><time>2026-04-18T12:53:21.938Z</time></trkpt><trkpt lat="43.362784" lon="10.812646500000001"><ele>79.0</ele><time>2026-04-18T12:53:23.942Z</time></trkpt><trkpt lat="43.362661" lon="10.812646500000001"><ele>79.0</ele><time>2026-04-18T12:53:25.971Z</time></trkpt><trkpt lat="43.36254316666666" lon="10.812645166666668"><ele>79.0</ele><time>2026-04-18T12:53:27.943Z</time></trkpt><trkpt lat="43.362424833333336" lon="10.8126435"><ele>79.0</ele><time>2026-04-18T12:53:29.963Z</time></trkpt><trkpt lat="43.36236183333334" lon="10.812639500000001"><ele>79.0</ele><time>2026-04-18T12:53:30.951Z</time></trkpt><trkpt lat="43.36222883333333" lon="10.812630833333333"><ele>79.0</ele><time>2026-04-18T12:53:32.951Z</time></trkpt><trkpt lat="43.362160499999995" lon="10.812625166666665"><ele>78.5</ele><time>2026-04-18T12:53:33.938Z</time></trkpt><trkpt lat="43.362089000000005" lon="10.812614833333335"><ele>78.0</ele><time>2026-04-18T12:53:34.952Z</time></trkpt><trkpt lat="43.3620115" lon="10.8125995"><ele>77.5</ele><time>2026-04-18T12:53:35.934Z</time></trkpt><trkpt lat="43.361924833333326" lon="10.812577333333337"><ele>77.0</ele><time>2026-04-18T12:53:36.951Z</time></trkpt><trkpt lat="43.36183033333333" lon="10.812543833333333"><ele>76.5</ele><time>2026-04-18T12:53:37.947Z</time></trkpt><trkpt lat="43.361732499999995" lon="10.812500833333335"><ele>76.0</ele><time>2026-04-18T12:53:38.954Z</time></trkpt><trkpt lat="43.36163533333333" lon="10.812444833333332"><ele>76.0</ele><time>2026-04-18T12:53:39.951Z</time></trkpt><trkpt lat="43.36153933333333" lon="10.8123805"><ele>76.0</ele><time>2026-04-18T12:53:40.939Z</time></trkpt><trkpt lat="43.36144416666666" lon="10.812312333333333"><ele>76.0</ele><time>2026-04-18T12:53:41.946Z</time></trkpt><trkpt lat="43.361352999999994" lon="10.812233499999998"><ele>76.0</ele><time>2026-04-18T12:53:42.942Z</time></trkpt><trkpt lat="43.36126816666666" lon="10.812145833333332"><ele>76.0</ele><time>2026-04-18T12:53:43.946Z</time></trkpt><trkpt lat="43.36119" lon="10.812051499999999"><ele>75.75</ele><time>2026-04-18T12:53:44.955Z</time></trkpt><trkpt lat="43.361090499999996" lon="10.811892"><ele>75.5</ele><time>2026-04-18T12:53:46.965Z</time></trkpt><trkpt lat="43.36099616666667" lon="10.811733833333335"><ele>75.25</ele><time>2026-04-18T12:53:47.941Z</time></trkpt><trkpt lat="43.36093583333333" lon="10.811630333333335"><ele>75.0</ele><time>2026-04-18T12:53:48.942Z</time></trkpt><trkpt lat="43.36087783333334" lon="10.811528833333332"><ele>75.0</ele><time>2026-04-18T12:53:49.954Z</time></trkpt><trkpt lat="43.360824333333326" lon="10.811423"><ele>75.0</ele><time>2026-04-18T12:53:50.959Z</time></trkpt><trkpt lat="43.36077233333334" lon="10.811315333333335"><ele>75.0</ele><time>2026-04-18T12:53:51.942Z</time></trkpt><trkpt lat="43.36072049999999" lon="10.811208"><ele>75.0</ele><time>2026-04-18T12:53:52.947Z</time></trkpt><trkpt lat="43.36066916666667" lon="10.811097333333331"><ele>75.0</ele><time>2026-04-18T12:53:53.938Z</time></trkpt><trkpt lat="43.360597000000006" lon="10.810922666666665"><ele>74.2</ele><time>2026-04-18T12:53:55.975Z</time></trkpt><trkpt lat="43.360554666666665" lon="10.810796666666665"><ele>73.4</ele><time>2026-04-18T12:53:56.938Z</time></trkpt><trkpt lat="43.36051349999999" lon="10.810664999999998"><ele>72.6</ele><time>2026-04-18T12:53:57.938Z</time></trkpt><trkpt lat="43.360471666666676" lon="10.8105295"><ele>71.8</ele><time>2026-04-18T12:53:58.954Z</time></trkpt><trkpt lat="43.360428000000006" lon="10.810389666666666"><ele>71.0</ele><time>2026-04-18T12:53:59.972Z</time></trkpt><trkpt lat="43.36038316666666" lon="10.810245166666668"><ele>71.25</ele><time>2026-04-18T12:54:00.937Z</time></trkpt><trkpt lat="43.360338333333324" lon="10.810096999999999"><ele>71.5</ele><time>2026-04-18T12:54:01.935Z</time></trkpt><trkpt lat="43.360291999999994" lon="10.809945833333332"><ele>71.75</ele><time>2026-04-18T12:54:02.942Z</time></trkpt><trkpt lat="43.36024483333334" lon="10.809790500000002"><ele>72.0</ele><time>2026-04-18T12:54:03.954Z</time></trkpt><trkpt lat="43.360196333333334" lon="10.809634"><ele>72.0</ele><time>2026-04-18T12:54:04.958Z</time></trkpt><trkpt lat="43.36014616666667" lon="10.809476833333333"><ele>72.0</ele><time>2026-04-18T12:54:05.947Z</time></trkpt><trkpt lat="43.36009483333334" lon="10.809320166666666"><ele>72.0</ele><time>2026-04-18T12:54:06.954Z</time></trkpt><trkpt lat="43.36004233333333" lon="10.8091645"><ele>72.0</ele><time>2026-04-18T12:54:07.957Z</time></trkpt><trkpt lat="43.35999149999999" lon="10.809009"><ele>72.5</ele><time>2026-04-18T12:54:08.974Z</time></trkpt><trkpt lat="43.35994183333334" lon="10.808853500000001"><ele>73.0</ele><time>2026-04-18T12:54:09.95Z</time></trkpt><trkpt lat="43.35989299999999" lon="10.8086985"><ele>73.5</ele><time>2026-04-18T12:54:10.955Z</time></trkpt><trkpt lat="43.359844833333334" lon="10.808542666666666"><ele>74.0</ele><time>2026-04-18T12:54:11.947Z</time></trkpt><trkpt lat="43.35979666666667" lon="10.808385666666666"><ele>75.0</ele><time>2026-04-18T12:54:12.959Z</time></trkpt><trkpt lat="43.359748499999995" lon="10.808227499999997"><ele>76.0</ele><time>2026-04-18T12:54:13.939Z</time></trkpt><trkpt lat="43.35970116666667" lon="10.808067999999999"><ele>77.0</ele><time>2026-04-18T12:54:14.939Z</time></trkpt><trkpt lat="43.359654666666664" lon="10.807908666666666"><ele>78.0</ele><time>2026-04-18T12:54:15.947Z</time></trkpt><trkpt lat="43.359607666666676" lon="10.807748666666665"><ele>76.0</ele><time>2026-04-18T12:54:16.942Z</time></trkpt><trkpt lat="43.35953183333333" lon="10.8075005"><ele>74.0</ele><time>2026-04-18T12:54:17.938Z</time></trkpt><trkpt lat="43.35950549999999" lon="10.807415833333334"><ele>72.0</ele><time>2026-04-18T12:54:18.944Z</time></trkpt><trkpt lat="43.359452" lon="10.807244833333334"><ele>70.0</ele><time>2026-04-18T12:54:19.942Z</time></trkpt><trkpt lat="43.359397" lon="10.807073500000001"><ele>70.0</ele><time>2026-04-18T12:54:20.94Z</time></trkpt><trkpt lat="43.35934316666667" lon="10.806902166666665"><ele>70.0</ele><time>2026-04-18T12:54:21.942Z</time></trkpt><trkpt lat="43.35929133333334" lon="10.806731999999998"><ele>70.0</ele><time>2026-04-18T12:54:22.95Z</time></trkpt><trkpt lat="43.359245166666675" lon="10.806563999999998"><ele>70.0</ele><time>2026-04-18T12:54:23.938Z</time></trkpt><trkpt lat="43.359219333333336" lon="10.806394333333333"><ele>69.66666666666666</ele><time>2026-04-18T12:54:24.952Z</time></trkpt><trkpt lat="43.359227" lon="10.806134333333333"><ele>69.33333333333333</ele><time>2026-04-18T12:54:25.943Z</time></trkpt><trkpt lat="43.35925083333333" lon="10.805952166666668"><ele>69.0</ele><time>2026-04-18T12:54:26.954Z</time></trkpt><trkpt lat="43.35927616666666" lon="10.805756333333333"><ele>69.0</ele><time>2026-04-18T12:54:27.94Z</time></trkpt><trkpt lat="43.35930133333333" lon="10.8055475"><ele>69.0</ele><time>2026-04-18T12:54:28.957Z</time></trkpt><trkpt lat="43.35931383333333" lon="10.805437833333334"><ele>69.0</ele><time>2026-04-18T12:54:29.939Z</time></trkpt><trkpt lat="43.35935316666667" lon="10.805097833333331"><ele>68.33333333333333</ele><time>2026-04-18T12:54:30.95Z</time></trkpt><trkpt lat="43.35938049999999" lon="10.804867833333333"><ele>67.66666666666666</ele><time>2026-04-18T12:54:31.94Z</time></trkpt><trkpt lat="43.35940583333333" lon="10.804639333333334"><ele>67.0</ele><time>2026-04-18T12:54:32.947Z</time></trkpt><trkpt lat="43.359430499999995" lon="10.804414166666668"><ele>66.33333333333333</ele><time>2026-04-18T12:54:33.967Z</time></trkpt><trkpt lat="43.35945449999999" lon="10.804192499999997"><ele>65.66666666666667</ele><time>2026-04-18T12:54:34.943Z</time></trkpt><trkpt lat="43.35946633333333" lon="10.803974"><ele>65.0</ele><time>2026-04-18T12:54:35.951Z</time></trkpt><trkpt lat="43.35946033333333" lon="10.80375916666667"><ele>65.0</ele><time>2026-04-18T12:54:36.953Z</time></trkpt><trkpt lat="43.35945133333333" lon="10.803653166666667"><ele>65.0</ele><time>2026-04-18T12:54:37.97Z</time></trkpt><trkpt lat="43.35942133333333" lon="10.8034435"><ele>65.0</ele><time>2026-04-18T12:54:38.945Z</time></trkpt><trkpt lat="43.359385" lon="10.803235333333335"><ele>65.0</ele><time>2026-04-18T12:54:39.946Z</time></trkpt><trkpt lat="43.35934133333333" lon="10.8030305"><ele>65.33333333333334</ele><time>2026-04-18T12:54:40.943Z</time></trkpt><trkpt lat="43.35927816666668" lon="10.802835000000002"><ele>65.66666666666667</ele><time>2026-04-18T12:54:41.959Z</time></trkpt><trkpt lat="43.35919500000001" lon="10.802647666666667"><ele>66.0</ele><time>2026-04-18T12:54:42.967Z</time></trkpt><trkpt lat="43.3590385" lon="10.802379833333335"><ele>65.75</ele><time>2026-04-18T12:54:43.957Z</time></trkpt><trkpt lat="43.35892233333334" lon="10.802204666666668"><ele>65.5</ele><time>2026-04-18T12:54:44.939Z</time></trkpt><trkpt lat="43.35880583333333" lon="10.8020305"><ele>65.25</ele><time>2026-04-18T12:54:45.944Z</time></trkpt><trkpt lat="43.358749833333334" lon="10.801943000000001"><ele>65.0</ele><time>2026-04-18T12:54:46.97Z</time></trkpt><trkpt lat="43.3585835" lon="10.801679166666668"><ele>65.5</ele><time>2026-04-18T12:54:47.943Z</time></trkpt><trkpt lat="43.35852933333334" lon="10.801590166666665"><ele>66.0</ele><time>2026-04-18T12:54:48.953Z</time></trkpt><trkpt lat="43.35842616666667" lon="10.801406833333333"><ele>66.5</ele><time>2026-04-18T12:54:49.945Z</time></trkpt><trkpt lat="43.358330333333335" lon="10.801215"><ele>67.0</ele><time>2026-04-18T12:54:50.974Z</time></trkpt><trkpt lat="43.35824683333333" lon="10.801011833333334"><ele>66.0</ele><time>2026-04-18T12:54:51.938Z</time></trkpt><trkpt lat="43.35817533333334" lon="10.8007985"><ele>65.0</ele><time>2026-04-18T12:54:52.948Z</time></trkpt><trkpt lat="43.35806816666667" lon="10.800476833333335"><ele>64.0</ele><time>2026-04-18T12:54:53.935Z</time></trkpt><trkpt lat="43.35799866666667" lon="10.8002615"><ele>64.25</ele><time>2026-04-18T12:54:54.964Z</time></trkpt><trkpt lat="43.357929" lon="10.8000475"><ele>64.5</ele><time>2026-04-18T12:54:55.991Z</time></trkpt><trkpt lat="43.357858333333326" lon="10.799835166666666"><ele>64.75</ele><time>2026-04-18T12:54:56.938Z</time></trkpt><trkpt lat="43.357822500000005" lon="10.799729666666666"><ele>65.0</ele><time>2026-04-18T12:54:57.946Z</time></trkpt><trkpt lat="43.35774616666666" lon="10.799521333333333"><ele>65.66666666666667</ele><time>2026-04-18T12:54:58.945Z</time></trkpt><trkpt lat="43.35765500000001" lon="10.799320166666666"><ele>66.33333333333333</ele><time>2026-04-18T12:54:59.98Z</time></trkpt><trkpt lat="43.35754683333332" lon="10.799122666666664"><ele>67.0</ele><time>2026-04-18T12:55:00.939Z</time></trkpt><trkpt lat="43.35742449999999" lon="10.798922666666666"><ele>67.0</ele><time>2026-04-18T12:55:01.947Z</time></trkpt><trkpt lat="43.35728949999999" lon="10.798718666666666"><ele>67.0</ele><time>2026-04-18T12:55:02.948Z</time></trkpt><trkpt lat="43.35715183333334" lon="10.798510666666667"><ele>67.0</ele><time>2026-04-18T12:55:03.975Z</time></trkpt><trkpt lat="43.35701966666667" lon="10.798296833333332"><ele>66.33333333333333</ele><time>2026-04-18T12:55:04.94Z</time></trkpt><trkpt lat="43.3568985" lon="10.798077"><ele>65.66666666666667</ele><time>2026-04-18T12:55:05.955Z</time></trkpt><trkpt lat="43.3567895" lon="10.7978495"><ele>65.0</ele><time>2026-04-18T12:55:06.943Z</time></trkpt><trkpt lat="43.35669333333334" lon="10.797612666666664"><ele>66.66666666666667</ele><time>2026-04-18T12:55:07.968Z</time></trkpt><trkpt lat="43.35660766666666" lon="10.797370000000003"><ele>68.33333333333333</ele><time>2026-04-18T12:55:08.953Z</time></trkpt><trkpt lat="43.3565335" lon="10.797122166666668"><ele>70.0</ele><time>2026-04-18T12:55:09.947Z</time></trkpt><trkpt lat="43.35647116666667" lon="10.796869"><ele>71.33333333333333</ele><time>2026-04-18T12:55:10.948Z</time></trkpt><trkpt lat="43.35642016666667" lon="10.796611"><ele>72.66666666666667</ele><time>2026-04-18T12:55:11.959Z</time></trkpt><trkpt lat="43.35638316666667" lon="10.796346999999999"><ele>74.0</ele><time>2026-04-18T12:55:12.947Z</time></trkpt><trkpt lat="43.35635933333333" lon="10.796077666666667"><ele>70.0</ele><time>2026-04-18T12:55:13.957Z</time></trkpt><trkpt lat="43.35634633333334" lon="10.795804833333333"><ele>66.0</ele><time>2026-04-18T12:55:14.944Z</time></trkpt><trkpt lat="43.35634266666666" lon="10.795531000000002"><ele>62.0</ele><time>2026-04-18T12:55:15.955Z</time></trkpt><trkpt lat="43.35634983333333" lon="10.795256333333336"><ele>62.333333333333336</ele><time>2026-04-18T12:55:16.979Z</time></trkpt><trkpt lat="43.356368" lon="10.794982666666666"><ele>62.66666666666667</ele><time>2026-04-18T12:55:17.948Z</time></trkpt><trkpt lat="43.356396499999995" lon="10.794711333333332"><ele>63.0</ele><time>2026-04-18T12:55:18.947Z</time></trkpt><trkpt lat="43.356434166666666" lon="10.794443166666667"><ele>62.33333333333333</ele><time>2026-04-18T12:55:19.947Z</time></trkpt><trkpt lat="43.35647966666667" lon="10.794178666666669"><ele>61.666666666666664</ele><time>2026-04-18T12:55:20.952Z</time></trkpt><trkpt lat="43.356533999999996" lon="10.793918166666666"><ele>61.0</ele><time>2026-04-18T12:55:21.939Z</time></trkpt><trkpt lat="43.356589" lon="10.793658666666666"><ele>60.666666666666664</ele><time>2026-04-18T12:55:22.935Z</time></trkpt><trkpt lat="43.35664383333333" lon="10.793400499999999"><ele>60.33333333333333</ele><time>2026-04-18T12:55:23.943Z</time></trkpt><trkpt lat="43.35670066666666" lon="10.793144"><ele>60.0</ele><time>2026-04-18T12:55:24.973Z</time></trkpt><trkpt lat="43.35675549999999" lon="10.792887666666665"><ele>59.33333333333333</ele><time>2026-04-18T12:55:25.953Z</time></trkpt><trkpt lat="43.356811500000006" lon="10.792633166666668"><ele>58.666666666666664</ele><time>2026-04-18T12:55:26.941Z</time></trkpt><trkpt lat="43.356866499999995" lon="10.792379500000001"><ele>58.0</ele><time>2026-04-18T12:55:27.944Z</time></trkpt><trkpt lat="43.356920499999994" lon="10.792126499999998"><ele>58.0</ele><time>2026-04-18T12:55:28.95Z</time></trkpt><trkpt lat="43.35697333333332" lon="10.791872833333331"><ele>58.0</ele><time>2026-04-18T12:55:29.965Z</time></trkpt><trkpt lat="43.35702433333333" lon="10.791615166666668"><ele>58.0</ele><time>2026-04-18T12:55:30.947Z</time></trkpt><trkpt lat="43.357073000000014" lon="10.7913495"><ele>58.33333333333333</ele><time>2026-04-18T12:55:32.031Z</time></trkpt><trkpt lat="43.35711866666667" lon="10.791074333333333"><ele>58.66666666666667</ele><time>2026-04-18T12:55:32.947Z</time></trkpt><trkpt lat="43.35715933333333" lon="10.790793"><ele>59.0</ele><time>2026-04-18T12:55:33.967Z</time></trkpt><trkpt lat="43.35719466666666" lon="10.790507333333334"><ele>59.66666666666667</ele><time>2026-04-18T12:55:34.942Z</time></trkpt><trkpt lat="43.35722366666667" lon="10.790218166666667"><ele>60.33333333333333</ele><time>2026-04-18T12:55:35.942Z</time></trkpt><trkpt lat="43.3572455" lon="10.789924666666666"><ele>61.0</ele><time>2026-04-18T12:55:36.964Z</time></trkpt><trkpt lat="43.35726133333333" lon="10.7896255"><ele>63.666666666666664</ele><time>2026-04-18T12:55:37.975Z</time></trkpt><trkpt lat="43.357271000000004" lon="10.789323000000001"><ele>66.33333333333333</ele><time>2026-04-18T12:55:38.952Z</time></trkpt><trkpt lat="43.35727566666666" lon="10.7890205"><ele>69.0</ele><time>2026-04-18T12:55:39.945Z</time></trkpt><trkpt lat="43.357275333333334" lon="10.788718833333332"><ele>67.5</ele><time>2026-04-18T12:55:40.957Z</time></trkpt><trkpt lat="43.35726366666666" lon="10.788268500000001"><ele>66.0</ele><time>2026-04-18T12:55:41.968Z</time></trkpt><trkpt lat="43.35724783333334" lon="10.787970166666666"><ele>65.0</ele><time>2026-04-18T12:55:42.964Z</time></trkpt><trkpt lat="43.35722666666667" lon="10.787673666666667"><ele>64.0</ele><time>2026-04-18T12:55:43.963Z</time></trkpt><trkpt lat="43.357200500000005" lon="10.787377833333336"><ele>63.0</ele><time>2026-04-18T12:55:44.944Z</time></trkpt><trkpt lat="43.35716966666667" lon="10.787084166666666"><ele>62.0</ele><time>2026-04-18T12:55:46.047Z</time></trkpt><trkpt lat="43.35713366666667" lon="10.786791999999998"><ele>61.0</ele><time>2026-04-18T12:55:46.985Z</time></trkpt><trkpt lat="43.357093166666665" lon="10.786501166666667"><ele>60.0</ele><time>2026-04-18T12:55:47.935Z</time></trkpt><trkpt lat="43.357049999999994" lon="10.7862085"><ele>60.33333333333333</ele><time>2026-04-18T12:55:48.952Z</time></trkpt><trkpt lat="43.35700433333333" lon="10.785909833333335"><ele>60.666666666666664</ele><time>2026-04-18T12:55:49.964Z</time></trkpt><trkpt lat="43.356961500000004" lon="10.785604166666667"><ele>61.0</ele><time>2026-04-18T12:55:50.948Z</time></trkpt><trkpt lat="43.356938666666665" lon="10.785449999999999"><ele>60.5</ele><time>2026-04-18T12:55:51.947Z</time></trkpt><trkpt lat="43.35689233333333" lon="10.785137666666666"><ele>60.0</ele><time>2026-04-18T12:55:52.956Z</time></trkpt><trkpt lat="43.356844833333334" lon="10.7848205"><ele>60.0</ele><time>2026-04-18T12:55:53.953Z</time></trkpt><trkpt lat="43.356795999999996" lon="10.784501666666664"><ele>60.0</ele><time>2026-04-18T12:55:54.972Z</time></trkpt><trkpt lat="43.35674616666667" lon="10.784183333333333"><ele>60.0</ele><time>2026-04-18T12:55:55.939Z</time></trkpt><trkpt lat="43.35669683333334" lon="10.783865833333333"><ele>60.0</ele><time>2026-04-18T12:55:56.949Z</time></trkpt><trkpt lat="43.35664849999999" lon="10.783549666666667"><ele>59.5</ele><time>2026-04-18T12:55:57.948Z</time></trkpt><trkpt lat="43.356601000000005" lon="10.783234166666668"><ele>59.0</ele><time>2026-04-18T12:55:58.968Z</time></trkpt><trkpt lat="43.356557666666674" lon="10.782919166666666"><ele>58.5</ele><time>2026-04-18T12:55:59.939Z</time></trkpt><trkpt lat="43.35652116666667" lon="10.782604333333333"><ele>58.0</ele><time>2026-04-18T12:56:00.947Z</time></trkpt><trkpt lat="43.35648483333333" lon="10.782131833333334"><ele>58.0</ele><time>2026-04-18T12:56:01.944Z</time></trkpt><trkpt lat="43.35647716666667" lon="10.781974666666667"><ele>58.0</ele><time>2026-04-18T12:56:02.953Z</time></trkpt><trkpt lat="43.35646716666667" lon="10.781661166666666"><ele>58.0</ele><time>2026-04-18T12:56:03.96Z</time></trkpt><trkpt lat="43.356458833333335" lon="10.781348166666664"><ele>58.5</ele><time>2026-04-18T12:56:04.947Z</time></trkpt><trkpt lat="43.35645133333334" lon="10.781035333333334"><ele>59.0</ele><time>2026-04-18T12:56:05.945Z</time></trkpt><trkpt lat="43.356443999999996" lon="10.7807215"><ele>59.5</ele><time>2026-04-18T12:56:06.946Z</time></trkpt><trkpt lat="43.35643616666666" lon="10.780406666666666"><ele>60.0</ele><time>2026-04-18T12:56:07.941Z</time></trkpt><trkpt lat="43.35642750000001" lon="10.780090499999998"><ele>60.0</ele><time>2026-04-18T12:56:09.007Z</time></trkpt><trkpt lat="43.35641633333333" lon="10.779773666666665"><ele>60.0</ele><time>2026-04-18T12:56:09.951Z</time></trkpt><trkpt lat="43.356404000000005" lon="10.779457833333332"><ele>58.5</ele><time>2026-04-18T12:56:10.943Z</time></trkpt><trkpt lat="43.35637499999999" lon="10.778989333333334"><ele>57.0</ele><time>2026-04-18T12:56:11.935Z</time></trkpt><trkpt lat="43.35635766666666" lon="10.778835666666666"><ele>57.0</ele><time>2026-04-18T12:56:12.939Z</time></trkpt><trkpt lat="43.35630583333333" lon="10.778534333333335"><ele>57.0</ele><time>2026-04-18T12:56:13.949Z</time></trkpt><trkpt lat="43.356236666666675" lon="10.7782405"><ele>57.5</ele><time>2026-04-18T12:56:14.936Z</time></trkpt><trkpt lat="43.356091666666664" lon="10.777820666666667"><ele>58.0</ele><time>2026-04-18T12:56:15.956Z</time></trkpt><trkpt lat="43.35603433333334" lon="10.777686166666669"><ele>60.0</ele><time>2026-04-18T12:56:16.971Z</time></trkpt><trkpt lat="43.355905666666665" lon="10.777429833333333"><ele>62.0</ele><time>2026-04-18T12:56:17.939Z</time></trkpt><trkpt lat="43.355784451930624" lon="10.777166291184983"><ele>62.0</ele><time>2026-04-18T12:56:18.956Z</time></trkpt><trkpt lat="43.355656683244554" lon="10.776914744196171"><ele>62.0</ele><time>2026-04-18T12:56:19.947Z</time></trkpt><trkpt lat="43.35540616666667" lon="10.776791833333334"><ele>61.0</ele><time>2026-04-18T12:56:20.957Z</time></trkpt><trkpt lat="43.35522016666667" lon="10.776642666666664"><ele>60.0</ele><time>2026-04-18T12:56:21.943Z</time></trkpt><trkpt lat="43.355040333333335" lon="10.776524333333336"><ele>59.0</ele><time>2026-04-18T12:56:22.947Z</time></trkpt><trkpt lat="43.354877833333326" lon="10.776420666666668"><ele>59.0</ele><time>2026-04-18T12:56:23.952Z</time></trkpt><trkpt lat="43.35473416666667" lon="10.776330666666668"><ele>59.0</ele><time>2026-04-18T12:56:24.965Z</time></trkpt><trkpt lat="43.35461316666666" lon="10.776254999999999"><ele>59.0</ele><time>2026-04-18T12:56:25.949Z</time></trkpt><trkpt lat="43.354527166666664" lon="10.776199666666665"><ele>59.0</ele><time>2026-04-18T12:56:26.937Z</time></trkpt><trkpt lat="43.35446733333333" lon="10.776161666666667"><ele>59.2</ele><time>2026-04-18T12:56:27.941Z</time></trkpt><trkpt lat="43.35435333333333" lon="10.77609"><ele>59.400000000000006</ele><time>2026-04-18T12:56:29.993Z</time></trkpt><trkpt lat="43.35428916666667" lon="10.776050166666668"><ele>59.6</ele><time>2026-04-18T12:56:30.948Z</time></trkpt><trkpt lat="43.35421833333333" lon="10.776006833333334"><ele>59.8</ele><time>2026-04-18T12:56:31.944Z</time></trkpt><trkpt lat="43.354134499999994" lon="10.775955999999999"><ele>60.0</ele><time>2026-04-18T12:56:32.957Z</time></trkpt><trkpt lat="43.354040166666664" lon="10.775895666666669"><ele>60.0</ele><time>2026-04-18T12:56:34.08Z</time></trkpt><trkpt lat="43.353941333333324" lon="10.775824833333337"><ele>60.0</ele><time>2026-04-18T12:56:34.948Z</time></trkpt><trkpt lat="43.35384066666667" lon="10.775739833333335"><ele>60.0</ele><time>2026-04-18T12:56:35.949Z</time></trkpt><trkpt lat="43.35374199999999" lon="10.775637166666668"><ele>60.0</ele><time>2026-04-18T12:56:36.962Z</time></trkpt><trkpt lat="43.35364833333333" lon="10.7755195"><ele>59.25</ele><time>2026-04-18T12:56:37.953Z</time></trkpt><trkpt lat="43.35356033333334" lon="10.775390166666668"><ele>58.5</ele><time>2026-04-18T12:56:38.948Z</time></trkpt><trkpt lat="43.35347616666666" lon="10.775253166666667"><ele>57.75</ele><time>2026-04-18T12:56:39.954Z</time></trkpt><trkpt lat="43.353392" lon="10.775113"><ele>57.0</ele><time>2026-04-18T12:56:40.945Z</time></trkpt><trkpt lat="43.35330716666667" lon="10.7749705"><ele>57.0</ele><time>2026-04-18T12:56:41.964Z</time></trkpt><trkpt lat="43.3532205" lon="10.7748255"><ele>57.0</ele><time>2026-04-18T12:56:42.957Z</time></trkpt><trkpt lat="43.35313233333333" lon="10.774678333333334"><ele>57.0</ele><time>2026-04-18T12:56:43.957Z</time></trkpt><trkpt lat="43.35304233333333" lon="10.774529333333332"><ele>57.0</ele><time>2026-04-18T12:56:44.943Z</time></trkpt><trkpt lat="43.352952666666674" lon="10.774375000000003"><ele>56.66666666666667</ele><time>2026-04-18T12:56:45.947Z</time></trkpt><trkpt lat="43.352861499999996" lon="10.774217833333335"><ele>56.333333333333336</ele><time>2026-04-18T12:56:47.304Z</time></trkpt><trkpt lat="43.352673" lon="10.773899333333334"><ele>56.0</ele><time>2026-04-18T12:56:48.936Z</time></trkpt><trkpt lat="43.35257733333333" lon="10.773738500000002"><ele>56.0</ele><time>2026-04-18T12:56:49.949Z</time></trkpt><trkpt lat="43.352484833333335" lon="10.773572999999999"><ele>56.0</ele><time>2026-04-18T12:56:50.939Z</time></trkpt><trkpt lat="43.35239216666667" lon="10.773406833333336"><ele>56.0</ele><time>2026-04-18T12:56:51.949Z</time></trkpt><trkpt lat="43.352298000000005" lon="10.773240333333334"><ele>55.333333333333336</ele><time>2026-04-18T12:56:52.947Z</time></trkpt><trkpt lat="43.352202999999996" lon="10.773073333333333"><ele>54.66666666666667</ele><time>2026-04-18T12:56:53.951Z</time></trkpt><trkpt lat="43.35210683333333" lon="10.772905833333335"><ele>54.0</ele><time>2026-04-18T12:56:54.977Z</time></trkpt><trkpt lat="43.352011166666664" lon="10.772739999999999"><ele>54.33333333333333</ele><time>2026-04-18T12:56:55.945Z</time></trkpt><trkpt lat="43.3519155" lon="10.772576666666664"><ele>54.666666666666664</ele><time>2026-04-18T12:56:56.939Z</time></trkpt><trkpt lat="43.35182033333334" lon="10.772414666666668"><ele>55.0</ele><time>2026-04-18T12:56:57.945Z</time></trkpt><trkpt lat="43.35172516666666" lon="10.7722535"><ele>55.0</ele><time>2026-04-18T12:56:58.965Z</time></trkpt><trkpt lat="43.35163033333333" lon="10.772091166666668"><ele>55.0</ele><time>2026-04-18T12:56:59.948Z</time></trkpt><trkpt lat="43.35153566666666" lon="10.771928500000001"><ele>55.0</ele><time>2026-04-18T12:57:00.944Z</time></trkpt><trkpt lat="43.35144083333333" lon="10.771765833333331"><ele>54.5</ele><time>2026-04-18T12:57:01.94Z</time></trkpt><trkpt lat="43.351345666666674" lon="10.771603166666665"><ele>54.0</ele><time>2026-04-18T12:57:03.159Z</time></trkpt><trkpt lat="43.351158166666664" lon="10.7712805"><ele>54.0</ele><time>2026-04-18T12:57:04.94Z</time></trkpt><trkpt lat="43.35106733333334" lon="10.771123499999998"><ele>54.0</ele><time>2026-04-18T12:57:05.949Z</time></trkpt><trkpt lat="43.350978500000004" lon="10.770969666666666"><ele>54.0</ele><time>2026-04-18T12:57:06.953Z</time></trkpt><trkpt lat="43.350893666666664" lon="10.770821166666666"><ele>54.0</ele><time>2026-04-18T12:57:07.968Z</time></trkpt><trkpt lat="43.35081316666666" lon="10.770674333333332"><ele>54.5</ele><time>2026-04-18T12:57:08.957Z</time></trkpt><trkpt lat="43.350735666666665" lon="10.770526666666669"><ele>55.0</ele><time>2026-04-18T12:57:09.957Z</time></trkpt><trkpt lat="43.3506595" lon="10.770377333333332"><ele>55.5</ele><time>2026-04-18T12:57:10.952Z</time></trkpt><trkpt lat="43.35058266666667" lon="10.770226500000001"><ele>56.0</ele><time>2026-04-18T12:57:11.968Z</time></trkpt><trkpt lat="43.35050549999999" lon="10.7700725"><ele>56.0</ele><time>2026-04-18T12:57:12.947Z</time></trkpt><trkpt lat="43.35042733333333" lon="10.769916"><ele>56.0</ele><time>2026-04-18T12:57:13.951Z</time></trkpt><trkpt lat="43.3503485" lon="10.769757166666666"><ele>56.0</ele><time>2026-04-18T12:57:14.95Z</time></trkpt><trkpt lat="43.35026833333333" lon="10.769596333333334"><ele>56.0</ele><time>2026-04-18T12:57:15.965Z</time></trkpt><trkpt lat="43.35018766666667" lon="10.769434"><ele>56.0</ele><time>2026-04-18T12:57:16.952Z</time></trkpt><trkpt lat="43.35010649999999" lon="10.769269999999999"><ele>56.0</ele><time>2026-04-18T12:57:17.948Z</time></trkpt><trkpt lat="43.350024166666664" lon="10.769105166666668"><ele>56.0</ele><time>2026-04-18T12:57:18.944Z</time></trkpt><trkpt lat="43.34994116666667" lon="10.768939666666665"><ele>56.0</ele><time>2026-04-18T12:57:19.939Z</time></trkpt><trkpt lat="43.34985866666666" lon="10.7687745"><ele>56.0</ele><time>2026-04-18T12:57:20.955Z</time></trkpt><trkpt lat="43.349780333333335" lon="10.768609166666666"><ele>56.0</ele><time>2026-04-18T12:57:21.94Z</time></trkpt><trkpt lat="43.34971099999999" lon="10.768440166666668"><ele>56.0</ele><time>2026-04-18T12:57:22.953Z</time></trkpt><trkpt lat="43.34962866666666" lon="10.768182166666667"><ele>55.8</ele><time>2026-04-18T12:57:23.954Z</time></trkpt><trkpt lat="43.34960800000001" lon="10.7680955"><ele>55.599999999999994</ele><time>2026-04-18T12:57:24.953Z</time></trkpt><trkpt lat="43.34957333333333" lon="10.767923166666666"><ele>55.4</ele><time>2026-04-18T12:57:25.96Z</time></trkpt><trkpt lat="43.34954466666667" lon="10.767754166666668"><ele>55.2</ele><time>2026-04-18T12:57:26.943Z</time></trkpt><trkpt lat="43.34952016666666" lon="10.767588833333333"><ele>55.0</ele><time>2026-04-18T12:57:27.952Z</time></trkpt><trkpt lat="43.349501333333336" lon="10.767427333333334"><ele>55.0</ele><time>2026-04-18T12:57:28.973Z</time></trkpt><trkpt lat="43.34949183333333" lon="10.767274666666665"><ele>55.0</ele><time>2026-04-18T12:57:29.941Z</time></trkpt><trkpt lat="43.34949066666666" lon="10.767132499999999"><ele>55.0</ele><time>2026-04-18T12:57:30.953Z</time></trkpt><trkpt lat="43.34949616666667" lon="10.767003499999998"><ele>55.0</ele><time>2026-04-18T12:57:31.941Z</time></trkpt><trkpt lat="43.34950533333334" lon="10.766887666666666"><ele>55.0</ele><time>2026-04-18T12:57:32.972Z</time></trkpt><trkpt lat="43.34951383333334" lon="10.766778333333331"><ele>55.2</ele><time>2026-04-18T12:57:33.936Z</time></trkpt><trkpt lat="43.349514166666665" lon="10.766666166666667"><ele>55.4</ele><time>2026-04-18T12:57:34.952Z</time></trkpt><trkpt lat="43.34950016666667" lon="10.766546166666666"><ele>55.599999999999994</ele><time>2026-04-18T12:57:35.949Z</time></trkpt><trkpt lat="43.34946916666666" lon="10.766424333333335"><ele>55.8</ele><time>2026-04-18T12:57:36.957Z</time></trkpt><trkpt lat="43.3494215" lon="10.766308"><ele>56.0</ele><time>2026-04-18T12:57:37.96Z</time></trkpt><trkpt lat="43.349363" lon="10.766195666666665"><ele>56.0</ele><time>2026-04-18T12:57:38.954Z</time></trkpt><trkpt lat="43.34929716666667" lon="10.766086666666668"><ele>55.99999999999999</ele><time>2026-04-18T12:57:39.953Z</time></trkpt><trkpt lat="43.349225999999994" lon="10.765979833333331"><ele>55.99999999999999</ele><time>2026-04-18T12:57:40.951Z</time></trkpt><trkpt lat="43.349152000000004" lon="10.765872666666667"><ele>56.0</ele><time>2026-04-18T12:57:41.981Z</time></trkpt><trkpt lat="43.34907716666667" lon="10.765761833333332"><ele>56.0</ele><time>2026-04-18T12:57:42.949Z</time></trkpt><trkpt lat="43.349002166666665" lon="10.765645333333335"><ele>56.0</ele><time>2026-04-18T12:57:43.955Z</time></trkpt><trkpt lat="43.34892483333333" lon="10.765517833333334"><ele>56.0</ele><time>2026-04-18T12:57:44.945Z</time></trkpt><trkpt lat="43.34884466666668" lon="10.765375333333335"><ele>56.0</ele><time>2026-04-18T12:57:45.968Z</time></trkpt><trkpt lat="43.34876266666667" lon="10.765221499999999"><ele>56.0</ele><time>2026-04-18T12:57:46.985Z</time></trkpt><trkpt lat="43.34867983333333" lon="10.765057"><ele>57.333333333333336</ele><time>2026-04-18T12:57:48.01Z</time></trkpt><trkpt lat="43.34860066666667" lon="10.764879333333331"><ele>58.66666666666667</ele><time>2026-04-18T12:57:48.944Z</time></trkpt><trkpt lat="43.34852866666667" lon="10.764690166666666"><ele>60.0</ele><time>2026-04-18T12:57:49.96Z</time></trkpt><trkpt lat="43.34846183333334" lon="10.764496166666667"><ele>61.66666666666667</ele><time>2026-04-18T12:57:50.988Z</time></trkpt><trkpt lat="43.348398166666655" lon="10.764300333333331"><ele>63.333333333333336</ele><time>2026-04-18T12:57:51.948Z</time></trkpt><trkpt lat="43.348335" lon="10.7641045"><ele>65.0</ele><time>2026-04-18T12:57:52.948Z</time></trkpt><trkpt lat="43.348271000000004" lon="10.763909666666665"><ele>65.0</ele><time>2026-04-18T12:57:53.949Z</time></trkpt><trkpt lat="43.34820683333334" lon="10.763715333333334"><ele>65.0</ele><time>2026-04-18T12:57:54.94Z</time></trkpt><trkpt lat="43.348142166666676" lon="10.763518166666666"><ele>65.0</ele><time>2026-04-18T12:57:55.949Z</time></trkpt><trkpt lat="43.34807766666667" lon="10.763316000000001"><ele>63.0</ele><time>2026-04-18T12:57:56.948Z</time></trkpt><trkpt lat="43.348014" lon="10.763111"><ele>61.0</ele><time>2026-04-18T12:57:57.952Z</time></trkpt><trkpt lat="43.34795183333334" lon="10.762903500000002"><ele>59.0</ele><time>2026-04-18T12:57:59.081Z</time></trkpt><trkpt lat="43.34789183333334" lon="10.762693500000001"><ele>58.66666666666667</ele><time>2026-04-18T12:57:59.943Z</time></trkpt><trkpt lat="43.34783666666667" lon="10.762480333333333"><ele>58.33333333333333</ele><time>2026-04-18T12:58:00.942Z</time></trkpt><trkpt lat="43.34778783333333" lon="10.762263333333332"><ele>58.0</ele><time>2026-04-18T12:58:01.952Z</time></trkpt><trkpt lat="43.3477455" lon="10.762045"><ele>58.33333333333333</ele><time>2026-04-18T12:58:02.944Z</time></trkpt><trkpt lat="43.34771049999999" lon="10.761824333333333"><ele>58.66666666666667</ele><time>2026-04-18T12:58:03.946Z</time></trkpt><trkpt lat="43.34768283333333" lon="10.761600500000002"><ele>59.0</ele><time>2026-04-18T12:58:04.945Z</time></trkpt><trkpt lat="43.34765766666666" lon="10.7613745"><ele>59.0</ele><time>2026-04-18T12:58:05.965Z</time></trkpt><trkpt lat="43.34763266666667" lon="10.761146499999999"><ele>59.0</ele><time>2026-04-18T12:58:06.963Z</time></trkpt><trkpt lat="43.34760733333332" lon="10.760917"><ele>59.0</ele><time>2026-04-18T12:58:07.974Z</time></trkpt><trkpt lat="43.34758133333333" lon="10.760686"><ele>58.66666666666667</ele><time>2026-04-18T12:58:09.017Z</time></trkpt><trkpt lat="43.34755400000001" lon="10.760453833333335"><ele>58.33333333333333</ele><time>2026-04-18T12:58:09.95Z</time></trkpt><trkpt lat="43.34752233333334" lon="10.7602215"><ele>58.0</ele><time>2026-04-18T12:58:10.965Z</time></trkpt><trkpt lat="43.34745666666666" lon="10.759878833333334"><ele>57.75</ele><time>2026-04-18T12:58:11.964Z</time></trkpt><trkpt lat="43.34739133333334" lon="10.759660666666665"><ele>57.5</ele><time>2026-04-18T12:58:12.953Z</time></trkpt><trkpt lat="43.34731466666667" lon="10.759450666666664"><ele>57.25</ele><time>2026-04-18T12:58:13.945Z</time></trkpt><trkpt lat="43.347272999999994" lon="10.759349000000002"><ele>57.0</ele><time>2026-04-18T12:58:14.947Z</time></trkpt><trkpt lat="43.3471395" lon="10.759055833333331"><ele>57.0</ele><time>2026-04-18T12:58:15.969Z</time></trkpt><trkpt lat="43.347092833333335" lon="10.758961333333332"><ele>57.0</ele><time>2026-04-18T12:58:16.949Z</time></trkpt><trkpt lat="43.34699966666667" lon="10.7587765"><ele>57.0</ele><time>2026-04-18T12:58:17.959Z</time></trkpt><trkpt lat="43.34690483333333" lon="10.758595333333336"><ele>57.0</ele><time>2026-04-18T12:58:18.953Z</time></trkpt><trkpt lat="43.3468095" lon="10.758417333333334"><ele>58.33333333333333</ele><time>2026-04-18T12:58:20.084Z</time></trkpt><trkpt lat="43.34671499999999" lon="10.758241333333336"><ele>59.666666666666664</ele><time>2026-04-18T12:58:20.941Z</time></trkpt><trkpt lat="43.34662133333333" lon="10.758064833333334"><ele>61.0</ele><time>2026-04-18T12:58:21.952Z</time></trkpt><trkpt lat="43.346528333333325" lon="10.757888833333332"><ele>61.0</ele><time>2026-04-18T12:58:22.945Z</time></trkpt><trkpt lat="43.3464345" lon="10.757713"><ele>61.0</ele><time>2026-04-18T12:58:23.944Z</time></trkpt><trkpt lat="43.34633966666667" lon="10.757536333333332"><ele>61.0</ele><time>2026-04-18T12:58:24.942Z</time></trkpt><trkpt lat="43.34624399999999" lon="10.757360000000002"><ele>59.666666666666664</ele><time>2026-04-18T12:58:25.939Z</time></trkpt><trkpt lat="43.3461455" lon="10.757185333333334"><ele>58.33333333333333</ele><time>2026-04-18T12:58:26.947Z</time></trkpt><trkpt lat="43.346042833333335" lon="10.757016333333334"><ele>57.0</ele><time>2026-04-18T12:58:27.953Z</time></trkpt><trkpt lat="43.34593616666666" lon="10.756856833333332"><ele>57.0</ele><time>2026-04-18T12:58:28.985Z</time></trkpt><trkpt lat="43.345828833333336" lon="10.756708333333332"><ele>57.0</ele><time>2026-04-18T12:58:29.94Z</time></trkpt><trkpt lat="43.34572150000001" lon="10.756570833333335"><ele>57.0</ele><time>2026-04-18T12:58:30.941Z</time></trkpt><trkpt lat="43.3456175" lon="10.756443"><ele>57.0</ele><time>2026-04-18T12:58:31.942Z</time></trkpt><trkpt lat="43.3455215" lon="10.756325333333333"><ele>56.8</ele><time>2026-04-18T12:58:32.968Z</time></trkpt><trkpt lat="43.345436166666666" lon="10.7562195"><ele>56.6</ele><time>2026-04-18T12:58:33.945Z</time></trkpt><trkpt lat="43.3453645" lon="10.756129"><ele>56.39999999999999</ele><time>2026-04-18T12:58:35.022Z</time></trkpt><trkpt lat="43.34530899999999" lon="10.756056333333333"><ele>56.199999999999996</ele><time>2026-04-18T12:58:35.942Z</time></trkpt><trkpt lat="43.34526433333334" lon="10.755993999999998"><ele>56.0</ele><time>2026-04-18T12:58:36.961Z</time></trkpt><trkpt lat="43.345208166666666" lon="10.7558555"><ele>56.0</ele><time>2026-04-18T12:58:38.949Z</time></trkpt><trkpt lat="43.345218833333334" lon="10.755702833333332"><ele>55.99999999999999</ele><time>2026-04-18T12:58:40.961Z</time></trkpt><trkpt lat="43.34526266666667" lon="10.7556045"><ele>55.99999999999999</ele><time>2026-04-18T12:58:41.967Z</time></trkpt><trkpt lat="43.34529916666667" lon="10.755514999999997"><ele>56.0</ele><time>2026-04-18T12:58:43.943Z</time></trkpt><trkpt lat="43.34530183333333" lon="10.755390333333331"><ele>56.0</ele><time>2026-04-18T12:58:45.965Z</time></trkpt><trkpt lat="43.34525749999999" lon="10.755284333333336"><ele>56.0</ele><time>2026-04-18T12:58:47.937Z</time></trkpt><trkpt lat="43.34518583333333" lon="10.755218833333332"><ele>55.99999999999999</ele><time>2026-04-18T12:58:49.964Z</time></trkpt><trkpt lat="43.345099833333336" lon="10.755162499999997"><ele>55.99999999999999</ele><time>2026-04-18T12:58:51.945Z</time></trkpt><trkpt lat="43.34499433333334" lon="10.755066"><ele>56.0</ele><time>2026-04-18T12:58:54.068Z</time></trkpt><trkpt lat="43.34494050000001" lon="10.75497"><ele>56.0</ele><time>2026-04-18T12:58:55.949Z</time></trkpt><trkpt lat="43.3449135" lon="10.754883500000002"><ele>56.0</ele><time>2026-04-18T12:58:56.948Z</time></trkpt><trkpt lat="43.34489283333334" lon="10.754782666666665"><ele>55.99999999999999</ele><time>2026-04-18T12:58:57.963Z</time></trkpt><trkpt lat="43.34486933333333" lon="10.754672499999998"><ele>55.99999999999999</ele><time>2026-04-18T12:58:58.948Z</time></trkpt><trkpt lat="43.344839666666665" lon="10.754553833333333"><ele>56.0</ele><time>2026-04-18T12:58:59.956Z</time></trkpt><trkpt lat="43.34480616666666" lon="10.754426999999998"><ele>56.0</ele><time>2026-04-18T12:59:00.941Z</time></trkpt><trkpt lat="43.3447695" lon="10.754295166666669"><ele>56.199999999999996</ele><time>2026-04-18T12:59:01.946Z</time></trkpt><trkpt lat="43.3447305" lon="10.754158833333333"><ele>56.39999999999999</ele><time>2026-04-18T12:59:02.981Z</time></trkpt><trkpt lat="43.34468716666667" lon="10.754018666666665"><ele>56.6</ele><time>2026-04-18T12:59:03.943Z</time></trkpt><trkpt lat="43.34463533333333" lon="10.753878"><ele>56.8</ele><time>2026-04-18T12:59:04.954Z</time></trkpt><trkpt lat="43.344573833333335" lon="10.753740666666666"><ele>57.0</ele><time>2026-04-18T12:59:05.953Z</time></trkpt><trkpt lat="43.34450316666667" lon="10.753605999999998"><ele>57.0</ele><time>2026-04-18T12:59:06.969Z</time></trkpt><trkpt lat="43.344423166666665" lon="10.753472666666667"><ele>57.0</ele><time>2026-04-18T12:59:07.947Z</time></trkpt><trkpt lat="43.34433366666667" lon="10.753338499999998"><ele>57.0</ele><time>2026-04-18T12:59:08.953Z</time></trkpt><trkpt lat="43.344239" lon="10.753198999999999"><ele>57.0</ele><time>2026-04-18T12:59:09.95Z</time></trkpt><trkpt lat="43.34408233333334" lon="10.7529765"><ele>57.0</ele><time>2026-04-18T12:59:10.957Z</time></trkpt><trkpt lat="43.34396933333334" lon="10.752817499999999"><ele>57.0</ele><time>2026-04-18T12:59:11.968Z</time></trkpt><trkpt lat="43.34385266666667" lon="10.7526505"><ele>57.0</ele><time>2026-04-18T12:59:12.946Z</time></trkpt><trkpt lat="43.343733500000006" lon="10.7524795"><ele>57.0</ele><time>2026-04-18T12:59:13.951Z</time></trkpt><trkpt lat="43.343673" lon="10.752393333333336"><ele>57.0</ele><time>2026-04-18T12:59:14.954Z</time></trkpt><trkpt lat="43.34355033333333" lon="10.752219833333333"><ele>57.0</ele><time>2026-04-18T12:59:15.949Z</time></trkpt><trkpt lat="43.34342633333333" lon="10.752043833333335"><ele>57.0</ele><time>2026-04-18T12:59:16.943Z</time></trkpt><trkpt lat="43.343301833333335" lon="10.751865666666665"><ele>57.0</ele><time>2026-04-18T12:59:17.949Z</time></trkpt><trkpt lat="43.343177" lon="10.751686500000002"><ele>57.0</ele><time>2026-04-18T12:59:18.957Z</time></trkpt><trkpt lat="43.34305183333333" lon="10.751507"><ele>57.0</ele><time>2026-04-18T12:59:19.966Z</time></trkpt><trkpt lat="43.342926000000006" lon="10.751327166666666"><ele>56.66666666666667</ele><time>2026-04-18T12:59:20.947Z</time></trkpt><trkpt lat="43.34280066666667" lon="10.751145000000001"><ele>56.333333333333336</ele><time>2026-04-18T12:59:21.953Z</time></trkpt><trkpt lat="43.34267666666667" lon="10.750963666666667"><ele>56.0</ele><time>2026-04-18T12:59:22.949Z</time></trkpt><trkpt lat="43.34255383333334" lon="10.750785833333335"><ele>56.0</ele><time>2026-04-18T12:59:23.965Z</time></trkpt><trkpt lat="43.342433833333345" lon="10.750610666666667"><ele>56.0</ele><time>2026-04-18T12:59:24.95Z</time></trkpt><trkpt lat="43.34231549999999" lon="10.750440166666666"><ele>56.0</ele><time>2026-04-18T12:59:25.985Z</time></trkpt><trkpt lat="43.34219950000001" lon="10.750271999999999"><ele>55.66666666666667</ele><time>2026-04-18T12:59:26.945Z</time></trkpt><trkpt lat="43.342085833333336" lon="10.750107"><ele>55.33333333333333</ele><time>2026-04-18T12:59:27.964Z</time></trkpt><trkpt lat="43.34197416666665" lon="10.749944833333332"><ele>55.0</ele><time>2026-04-18T12:59:28.977Z</time></trkpt><trkpt lat="43.341864333333326" lon="10.749787666666668"><ele>55.0</ele><time>2026-04-18T12:59:29.944Z</time></trkpt><trkpt lat="43.34175766666667" lon="10.749634666666667"><ele>55.0</ele><time>2026-04-18T12:59:30.95Z</time></trkpt><trkpt lat="43.341654166666665" lon="10.749488000000001"><ele>55.0</ele><time>2026-04-18T12:59:31.954Z</time></trkpt><trkpt lat="43.34155583333333" lon="10.749351833333332"><ele>55.0</ele><time>2026-04-18T12:59:32.978Z</time></trkpt><trkpt lat="43.34146049999999" lon="10.749233"><ele>54.75</ele><time>2026-04-18T12:59:33.947Z</time></trkpt><trkpt lat="43.34136266666666" lon="10.749133333333335"><ele>54.5</ele><time>2026-04-18T12:59:34.954Z</time></trkpt><trkpt lat="43.34126316666668" lon="10.749043833333333"><ele>54.25</ele><time>2026-04-18T12:59:35.941Z</time></trkpt><trkpt lat="43.34116233333332" lon="10.748959"><ele>54.0</ele><time>2026-04-18T12:59:36.961Z</time></trkpt><trkpt lat="43.341011333333334" lon="10.748837333333332"><ele>54.0</ele><time>2026-04-18T12:59:37.985Z</time></trkpt><trkpt lat="43.34091033333333" lon="10.748758166666669"><ele>54.0</ele><time>2026-04-18T12:59:38.951Z</time></trkpt><trkpt lat="43.340756666666664" lon="10.748638333333334"><ele>54.0</ele><time>2026-04-18T12:59:40.957Z</time></trkpt><trkpt lat="43.34065166666666" lon="10.748560666666666"><ele>54.0</ele><time>2026-04-18T12:59:41.937Z</time></trkpt><trkpt lat="43.34054283333334" lon="10.7484885"><ele>54.25</ele><time>2026-04-18T12:59:42.943Z</time></trkpt><trkpt lat="43.340430500000004" lon="10.748422000000001"><ele>54.5</ele><time>2026-04-18T12:59:43.958Z</time></trkpt><trkpt lat="43.340315499999996" lon="10.748359"><ele>54.75</ele><time>2026-04-18T12:59:44.959Z</time></trkpt><trkpt lat="43.34019883333333" lon="10.748299000000001"><ele>55.0</ele><time>2026-04-18T12:59:45.961Z</time></trkpt><trkpt lat="43.34001966666666" lon="10.748214333333332"><ele>55.0</ele><time>2026-04-18T12:59:46.945Z</time></trkpt><trkpt lat="43.33989866666667" lon="10.748157333333333"><ele>55.0</ele><time>2026-04-18T12:59:47.946Z</time></trkpt><trkpt lat="43.33977616666666" lon="10.748103166666667"><ele>55.0</ele><time>2026-04-18T12:59:48.946Z</time></trkpt><trkpt lat="43.33965416666667" lon="10.748048833333334"><ele>55.0</ele><time>2026-04-18T12:59:49.978Z</time></trkpt><trkpt lat="43.33953316666666" lon="10.747999499999999"><ele>55.0</ele><time>2026-04-18T12:59:50.952Z</time></trkpt><trkpt lat="43.33941516666667" lon="10.74795"><ele>55.0</ele><time>2026-04-18T12:59:51.947Z</time></trkpt><trkpt lat="43.33929866666667" lon="10.747905666666668"><ele>55.0</ele><time>2026-04-18T12:59:52.95Z</time></trkpt><trkpt lat="43.339184166666676" lon="10.747864833333331"><ele>55.0</ele><time>2026-04-18T12:59:53.964Z</time></trkpt><trkpt lat="43.339071" lon="10.74782733333333"><ele>55.0</ele><time>2026-04-18T12:59:54.947Z</time></trkpt><trkpt lat="43.33895766666666" lon="10.747799166666669"><ele>55.0</ele><time>2026-04-18T12:59:55.959Z</time></trkpt><trkpt lat="43.33884433333333" lon="10.747785666666667"><ele>55.0</ele><time>2026-04-18T12:59:56.954Z</time></trkpt><trkpt lat="43.33873199999999" lon="10.747781333333334"><ele>55.0</ele><time>2026-04-18T12:59:57.967Z</time></trkpt><trkpt lat="43.33862049999999" lon="10.747785666666667"><ele>54.4</ele><time>2026-04-18T12:59:58.977Z</time></trkpt><trkpt lat="43.33851116666666" lon="10.747792333333333"><ele>53.8</ele><time>2026-04-18T12:59:59.945Z</time></trkpt><trkpt lat="43.33840416666667" lon="10.7478025"><ele>53.2</ele><time>2026-04-18T13:00:00.95Z</time></trkpt><trkpt lat="43.338299166666665" lon="10.74781083333333"><ele>52.6</ele><time>2026-04-18T13:00:01.955Z</time></trkpt><trkpt lat="43.33819483333333" lon="10.747819"><ele>52.0</ele><time>2026-04-18T13:00:02.979Z</time></trkpt><trkpt lat="43.338091333333324" lon="10.747822666666664"><ele>52.25</ele><time>2026-04-18T13:00:04.002Z</time></trkpt><trkpt lat="43.337988333333335" lon="10.747824833333333"><ele>52.5</ele><time>2026-04-18T13:00:04.95Z</time></trkpt><trkpt lat="43.3377825" lon="10.747814166666666"><ele>52.75</ele><time>2026-04-18T13:00:07.081Z</time></trkpt><trkpt lat="43.33768" lon="10.747798333333334"><ele>53.0</ele><time>2026-04-18T13:00:07.995Z</time></trkpt><trkpt lat="43.33752766666667" lon="10.747758"><ele>53.0</ele><time>2026-04-18T13:00:09.946Z</time></trkpt><trkpt lat="43.33742699999999" lon="10.7477185"><ele>53.0</ele><time>2026-04-18T13:00:10.969Z</time></trkpt><trkpt lat="43.33732716666667" lon="10.747663833333336"><ele>53.0</ele><time>2026-04-18T13:00:11.937Z</time></trkpt><trkpt lat="43.33723216666667" lon="10.747594499999998"><ele>53.0</ele><time>2026-04-18T13:00:12.951Z</time></trkpt><trkpt lat="43.33709616666667" lon="10.747462666666667"><ele>53.75</ele><time>2026-04-18T13:00:13.944Z</time></trkpt><trkpt lat="43.33700950000001" lon="10.747359"><ele>54.5</ele><time>2026-04-18T13:00:14.964Z</time></trkpt><trkpt lat="43.33691999999999" lon="10.747254833333335"><ele>55.25</ele><time>2026-04-18T13:00:15.938Z</time></trkpt><trkpt lat="43.33682900000001" lon="10.747143666666666"><ele>56.0</ele><time>2026-04-18T13:00:16.952Z</time></trkpt><trkpt lat="43.33673733333333" lon="10.74702916666667"><ele>55.333333333333336</ele><time>2026-04-18T13:00:17.954Z</time></trkpt><trkpt lat="43.33659983333334" lon="10.746852333333335"><ele>54.66666666666667</ele><time>2026-04-18T13:00:19.967Z</time></trkpt><trkpt lat="43.33646050000001" lon="10.746662"><ele>54.0</ele><time>2026-04-18T13:00:20.943Z</time></trkpt><trkpt lat="43.336375" lon="10.74651416666667"><ele>54.0</ele><time>2026-04-18T13:00:21.957Z</time></trkpt><trkpt lat="43.33629916666667" lon="10.746355666666668"><ele>54.0</ele><time>2026-04-18T13:00:22.938Z</time></trkpt><trkpt lat="43.33623550000001" lon="10.746191333333336"><ele>54.0</ele><time>2026-04-18T13:00:23.938Z</time></trkpt><trkpt lat="43.33620883333334" lon="10.746106666666666"><ele>54.0</ele><time>2026-04-18T13:00:24.946Z</time></trkpt><trkpt lat="43.336135666666664" lon="10.745853833333335"><ele>54.25</ele><time>2026-04-18T13:00:25.942Z</time></trkpt><trkpt lat="43.33608483333334" lon="10.745688333333332"><ele>54.5</ele><time>2026-04-18T13:00:26.948Z</time></trkpt><trkpt lat="43.336032666666675" lon="10.745526333333332"><ele>54.75</ele><time>2026-04-18T13:00:27.961Z</time></trkpt><trkpt lat="43.33600799999999" lon="10.745445166666666"><ele>55.0</ele><time>2026-04-18T13:00:28.943Z</time></trkpt><trkpt lat="43.3359635" lon="10.745282000000001"><ele>56.0</ele><time>2026-04-18T13:00:29.944Z</time></trkpt><trkpt lat="43.33585666666666" lon="10.744880666666665"><ele>57.0</ele><time>2026-04-18T13:00:31.954Z</time></trkpt><trkpt lat="43.335813666666674" lon="10.744724666666665"><ele>58.0</ele><time>2026-04-18T13:00:32.974Z</time></trkpt><trkpt lat="43.33577066666667" lon="10.744570833333334"><ele>58.0</ele><time>2026-04-18T13:00:34.005Z</time></trkpt><trkpt lat="43.33572833333333" lon="10.744418833333336"><ele>58.0</ele><time>2026-04-18T13:00:34.951Z</time></trkpt><trkpt lat="43.33568616666666" lon="10.744269833333332"><ele>58.0</ele><time>2026-04-18T13:00:35.945Z</time></trkpt><trkpt lat="43.33564533333333" lon="10.744124"><ele>58.0</ele><time>2026-04-18T13:00:36.972Z</time></trkpt><trkpt lat="43.33560550000001" lon="10.743979999999999"><ele>57.2</ele><time>2026-04-18T13:00:38.002Z</time></trkpt><trkpt lat="43.33556466666667" lon="10.743837666666666"><ele>56.4</ele><time>2026-04-18T13:00:38.958Z</time></trkpt><trkpt lat="43.33552466666667" lon="10.7436975"><ele>55.60000000000001</ele><time>2026-04-18T13:00:39.95Z</time></trkpt><trkpt lat="43.33548533333333" lon="10.743560166666668"><ele>54.800000000000004</ele><time>2026-04-18T13:00:40.949Z</time></trkpt><trkpt lat="43.33544766666667" lon="10.743425666666667"><ele>54.0</ele><time>2026-04-18T13:00:41.953Z</time></trkpt><trkpt lat="43.3354205" lon="10.743288666666666"><ele>54.0</ele><time>2026-04-18T13:00:42.955Z</time></trkpt><trkpt lat="43.33540683333334" lon="10.743151"><ele>54.00000000000001</ele><time>2026-04-18T13:00:43.945Z</time></trkpt><trkpt lat="43.33540733333333" lon="10.743015500000002"><ele>54.00000000000001</ele><time>2026-04-18T13:00:44.955Z</time></trkpt><trkpt lat="43.33541966666667" lon="10.742880833333333"><ele>54.0</ele><time>2026-04-18T13:00:45.946Z</time></trkpt><trkpt lat="43.335443500000004" lon="10.742748666666666"><ele>54.0</ele><time>2026-04-18T13:00:46.942Z</time></trkpt><trkpt lat="43.33547116666667" lon="10.742617333333332"><ele>54.0</ele><time>2026-04-18T13:00:47.943Z</time></trkpt><trkpt lat="43.33549750000001" lon="10.742483666666665"><ele>54.00000000000001</ele><time>2026-04-18T13:00:48.959Z</time></trkpt><trkpt lat="43.33552483333333" lon="10.742345166666667"><ele>54.00000000000001</ele><time>2026-04-18T13:00:49.983Z</time></trkpt><trkpt lat="43.33555483333333" lon="10.7421995"><ele>54.0</ele><time>2026-04-18T13:00:50.949Z</time></trkpt><trkpt lat="43.33558733333332" lon="10.742042"><ele>54.0</ele><time>2026-04-18T13:00:51.946Z</time></trkpt><trkpt lat="43.33562266666666" lon="10.741870333333335"><ele>55.75</ele><time>2026-04-18T13:00:52.955Z</time></trkpt><trkpt lat="43.33565883333334" lon="10.741688333333332"><ele>57.5</ele><time>2026-04-18T13:00:53.954Z</time></trkpt><trkpt lat="43.335697166666655" lon="10.7415015"><ele>59.25</ele><time>2026-04-18T13:00:54.956Z</time></trkpt><trkpt lat="43.33573733333333" lon="10.741314000000001"><ele>61.0</ele><time>2026-04-18T13:00:55.947Z</time></trkpt><trkpt lat="43.33577716666667" lon="10.741124833333334"><ele>59.5</ele><time>2026-04-18T13:00:56.946Z</time></trkpt><trkpt lat="43.335815000000004" lon="10.740932999999998"><ele>58.0</ele><time>2026-04-18T13:00:57.973Z</time></trkpt><trkpt lat="43.335834000000006" lon="10.7408365"><ele>56.5</ele><time>2026-04-18T13:00:58.953Z</time></trkpt><trkpt lat="43.335891666666676" lon="10.740544166666666"><ele>55.0</ele><time>2026-04-18T13:00:59.947Z</time></trkpt><trkpt lat="43.33592983333333" lon="10.740346499999998"><ele>54.5</ele><time>2026-04-18T13:01:00.958Z</time></trkpt><trkpt lat="43.335968" lon="10.740147166666668"><ele>54.0</ele><time>2026-04-18T13:01:01.949Z</time></trkpt><trkpt lat="43.335984833333335" lon="10.740047"><ele>53.5</ele><time>2026-04-18T13:01:02.952Z</time></trkpt><trkpt lat="43.33602316666667" lon="10.739851166666666"><ele>53.0</ele><time>2026-04-18T13:01:03.954Z</time></trkpt><trkpt lat="43.33608133333334" lon="10.739565333333333"><ele>52.5</ele><time>2026-04-18T13:01:04.95Z</time></trkpt><trkpt lat="43.336122833333334" lon="10.739378500000003"><ele>52.0</ele><time>2026-04-18T13:01:05.938Z</time></trkpt><trkpt lat="43.336168" lon="10.739190166666667"><ele>51.5</ele><time>2026-04-18T13:01:06.973Z</time></trkpt><trkpt lat="43.336190833333326" lon="10.739094666666665"><ele>51.0</ele><time>2026-04-18T13:01:07.945Z</time></trkpt><trkpt lat="43.336262000000005" lon="10.738804"><ele>51.0</ele><time>2026-04-18T13:01:08.955Z</time></trkpt><trkpt lat="43.33630799999999" lon="10.738606833333332"><ele>51.0</ele><time>2026-04-18T13:01:09.96Z</time></trkpt><trkpt lat="43.33634783333334" lon="10.738406500000002"><ele>51.0</ele><time>2026-04-18T13:01:10.959Z</time></trkpt><trkpt lat="43.33637866666667" lon="10.738202333333334"><ele>54.33333333333333</ele><time>2026-04-18T13:01:11.943Z</time></trkpt><trkpt lat="43.3364025" lon="10.737995666666666"><ele>57.666666666666664</ele><time>2026-04-18T13:01:12.942Z</time></trkpt><trkpt lat="43.33641833333333" lon="10.737787333333332"><ele>61.0</ele><time>2026-04-18T13:01:13.942Z</time></trkpt><trkpt lat="43.336424333333326" lon="10.7375795"><ele>61.0</ele><time>2026-04-18T13:01:14.972Z</time></trkpt><trkpt lat="43.33642416666667" lon="10.737373333333336"><ele>61.0</ele><time>2026-04-18T13:01:15.945Z</time></trkpt><trkpt lat="43.33642183333333" lon="10.737170333333333"><ele>61.0</ele><time>2026-04-18T13:01:16.943Z</time></trkpt><trkpt lat="43.33641966666667" lon="10.736971833333333"><ele>61.0</ele><time>2026-04-18T13:01:17.942Z</time></trkpt><trkpt lat="43.33641883333333" lon="10.736778499999998"><ele>61.25</ele><time>2026-04-18T13:01:18.96Z</time></trkpt><trkpt lat="43.336417166666656" lon="10.73658666666667"><ele>61.5</ele><time>2026-04-18T13:01:19.983Z</time></trkpt><trkpt lat="43.33641599999999" lon="10.73649"><ele>61.75</ele><time>2026-04-18T13:01:20.938Z</time></trkpt><trkpt lat="43.3364045" lon="10.73619633333333"><ele>62.0</ele><time>2026-04-18T13:01:21.951Z</time></trkpt><trkpt lat="43.336388166666666" lon="10.736004333333335"><ele>58.5</ele><time>2026-04-18T13:01:22.959Z</time></trkpt><trkpt lat="43.33636683333334" lon="10.735819000000001"><ele>55.0</ele><time>2026-04-18T13:01:23.976Z</time></trkpt><trkpt lat="43.33633266666667" lon="10.735643166666666"><ele>51.5</ele><time>2026-04-18T13:01:24.951Z</time></trkpt><trkpt lat="43.336301361029115" lon="10.735465890626767"><ele>48.0</ele><time>2026-04-18T13:01:25.943Z</time></trkpt><trkpt lat="43.33622633333332" lon="10.735313"><ele>49.25</ele><time>2026-04-18T13:01:26.947Z</time></trkpt><trkpt lat="43.33615683333334" lon="10.735154"><ele>50.5</ele><time>2026-04-18T13:01:27.97Z</time></trkpt><trkpt lat="43.33611966666667" lon="10.735073666666665"><ele>51.75</ele><time>2026-04-18T13:01:28.954Z</time></trkpt><trkpt lat="43.336042666666664" lon="10.734909999999998"><ele>53.0</ele><time>2026-04-18T13:01:29.947Z</time></trkpt><trkpt lat="43.335922" lon="10.734657333333333"><ele>53.0</ele><time>2026-04-18T13:01:30.95Z</time></trkpt><trkpt lat="43.335839" lon="10.734485333333335"><ele>53.0</ele><time>2026-04-18T13:01:31.962Z</time></trkpt><trkpt lat="43.33575533333333" lon="10.734313000000002"><ele>53.0</ele><time>2026-04-18T13:01:32.948Z</time></trkpt><trkpt lat="43.335669499999995" lon="10.734138666666668"><ele>52.25</ele><time>2026-04-18T13:01:33.95Z</time></trkpt><trkpt lat="43.33558366666666" lon="10.733961666666668"><ele>51.5</ele><time>2026-04-18T13:01:34.952Z</time></trkpt><trkpt lat="43.33549883333333" lon="10.733780999999999"><ele>50.75</ele><time>2026-04-18T13:01:35.958Z</time></trkpt><trkpt lat="43.33545733333334" lon="10.733689166666668"><ele>50.0</ele><time>2026-04-18T13:01:36.988Z</time></trkpt><trkpt lat="43.33534083333334" lon="10.733411166666667"><ele>50.0</ele><time>2026-04-18T13:01:37.953Z</time></trkpt><trkpt lat="43.33527083333333" lon="10.733221833333335"><ele>50.0</ele><time>2026-04-18T13:01:38.958Z</time></trkpt><trkpt lat="43.335204499999996" lon="10.733030666666664"><ele>50.0</ele><time>2026-04-18T13:01:39.954Z</time></trkpt><trkpt lat="43.335139" lon="10.7328415"><ele>51.25</ele><time>2026-04-18T13:01:40.972Z</time></trkpt><trkpt lat="43.33508383333333" lon="10.73265"><ele>52.5</ele><time>2026-04-18T13:01:41.946Z</time></trkpt><trkpt lat="43.33505183333334" lon="10.732449999999998"><ele>53.75</ele><time>2026-04-18T13:01:42.951Z</time></trkpt><trkpt lat="43.335039333333334" lon="10.732245833333332"><ele>55.0</ele><time>2026-04-18T13:01:43.95Z</time></trkpt><trkpt lat="43.33504616666668" lon="10.732042666666667"><ele>55.25</ele><time>2026-04-18T13:01:44.976Z</time></trkpt><trkpt lat="43.33505983333333" lon="10.731842166666667"><ele>55.5</ele><time>2026-04-18T13:01:45.941Z</time></trkpt><trkpt lat="43.33507249999999" lon="10.7316445"><ele>55.75</ele><time>2026-04-18T13:01:46.955Z</time></trkpt><trkpt lat="43.335078833333334" lon="10.731546999999999"><ele>56.0</ele><time>2026-04-18T13:01:47.967Z</time></trkpt><trkpt lat="43.33509383333334" lon="10.731353999999998"><ele>56.0</ele><time>2026-04-18T13:01:48.967Z</time></trkpt><trkpt lat="43.335112" lon="10.731162500000002"><ele>56.0</ele><time>2026-04-18T13:01:49.983Z</time></trkpt><trkpt lat="43.33512833333332" lon="10.730971166666665"><ele>56.0</ele><time>2026-04-18T13:01:50.947Z</time></trkpt><trkpt lat="43.33514466666667" lon="10.730778999999998"><ele>56.0</ele><time>2026-04-18T13:01:51.938Z</time></trkpt><trkpt lat="43.33516983333334" lon="10.730489666666665"><ele>55.75</ele><time>2026-04-18T13:01:52.968Z</time></trkpt><trkpt lat="43.335187" lon="10.730294833333335"><ele>55.5</ele><time>2026-04-18T13:01:53.983Z</time></trkpt><trkpt lat="43.33519583333334" lon="10.730196833333332"><ele>55.25</ele><time>2026-04-18T13:01:54.951Z</time></trkpt><trkpt lat="43.335207499999996" lon="10.730000333333331"><ele>55.0</ele><time>2026-04-18T13:01:55.948Z</time></trkpt><trkpt lat="43.3352115" lon="10.729804666666666"><ele>55.0</ele><time>2026-04-18T13:01:56.952Z</time></trkpt><trkpt lat="43.335203500000006" lon="10.729612666666666"><ele>55.0</ele><time>2026-04-18T13:01:57.971Z</time></trkpt><trkpt lat="43.335177333333334" lon="10.729337500000002"><ele>55.0</ele><time>2026-04-18T13:01:58.951Z</time></trkpt><trkpt lat="43.33515083333334" lon="10.729163166666668"><ele>55.2</ele><time>2026-04-18T13:01:59.944Z</time></trkpt><trkpt lat="43.33513766666667" lon="10.729078000000001"><ele>55.4</ele><time>2026-04-18T13:02:00.959Z</time></trkpt><trkpt lat="43.335114000000004" lon="10.728911333333334"><ele>55.599999999999994</ele><time>2026-04-18T13:02:01.971Z</time></trkpt><trkpt lat="43.335091" lon="10.728746"><ele>55.8</ele><time>2026-04-18T13:02:02.942Z</time></trkpt><trkpt lat="43.33506916666667" lon="10.728577999999999"><ele>56.0</ele><time>2026-04-18T13:02:03.939Z</time></trkpt><trkpt lat="43.33504800000001" lon="10.728405666666667"><ele>56.333333333333336</ele><time>2026-04-18T13:02:04.951Z</time></trkpt><trkpt lat="43.335018999999996" lon="10.728138333333334"><ele>56.66666666666667</ele><time>2026-04-18T13:02:05.961Z</time></trkpt><trkpt lat="43.33499816666668" lon="10.727955833333333"><ele>57.0</ele><time>2026-04-18T13:02:06.947Z</time></trkpt><trkpt lat="43.334977166666675" lon="10.727770833333333"><ele>57.25</ele><time>2026-04-18T13:02:07.943Z</time></trkpt><trkpt lat="43.33495433333332" lon="10.727584666666667"><ele>57.5</ele><time>2026-04-18T13:02:08.951Z</time></trkpt><trkpt lat="43.334930333333325" lon="10.727397666666665"><ele>57.75</ele><time>2026-04-18T13:02:09.963Z</time></trkpt><trkpt lat="43.33490633333332" lon="10.727211166666667"><ele>58.0</ele><time>2026-04-18T13:02:10.94Z</time></trkpt><trkpt lat="43.33488066666667" lon="10.727025"><ele>58.5</ele><time>2026-04-18T13:02:11.947Z</time></trkpt><trkpt lat="43.33485616666667" lon="10.726837166666666"><ele>59.0</ele><time>2026-04-18T13:02:12.945Z</time></trkpt><trkpt lat="43.33482966666667" lon="10.726648"><ele>59.5</ele><time>2026-04-18T13:02:13.948Z</time></trkpt><trkpt lat="43.33481700000001" lon="10.726552833333335"><ele>60.0</ele><time>2026-04-18T13:02:14.981Z</time></trkpt><trkpt lat="43.334792666666665" lon="10.726362500000002"><ele>60.0</ele><time>2026-04-18T13:02:15.95Z</time></trkpt><trkpt lat="43.33476399999999" lon="10.726174499999997"><ele>60.0</ele><time>2026-04-18T13:02:16.951Z</time></trkpt><trkpt lat="43.33473883333333" lon="10.725988500000001"><ele>60.0</ele><time>2026-04-18T13:02:17.949Z</time></trkpt><trkpt lat="43.33470466666666" lon="10.725711666666665"><ele>58.25</ele><time>2026-04-18T13:02:18.962Z</time></trkpt><trkpt lat="43.33467716666668" lon="10.725532"><ele>56.5</ele><time>2026-04-18T13:02:19.947Z</time></trkpt><trkpt lat="43.33464633333333" lon="10.725358000000002"><ele>54.75</ele><time>2026-04-18T13:02:20.947Z</time></trkpt><trkpt lat="43.334628" lon="10.725274666666666"><ele>53.0</ele><time>2026-04-18T13:02:21.939Z</time></trkpt><trkpt lat="43.334559000000006" lon="10.725043666666666"><ele>53.0</ele><time>2026-04-18T13:02:22.96Z</time></trkpt><trkpt lat="43.3344955" lon="10.724905999999997"><ele>53.0</ele><time>2026-04-18T13:02:23.971Z</time></trkpt><trkpt lat="43.33442533333333" lon="10.724776166666667"><ele>53.0</ele><time>2026-04-18T13:02:24.947Z</time></trkpt><trkpt lat="43.33435433333334" lon="10.724648333333334"><ele>53.0</ele><time>2026-04-18T13:02:25.954Z</time></trkpt><trkpt lat="43.3342405" lon="10.724460833333334"><ele>54.25</ele><time>2026-04-18T13:02:27.976Z</time></trkpt><trkpt lat="43.334163999999994" lon="10.724332166666665"><ele>55.5</ele><time>2026-04-18T13:02:28.959Z</time></trkpt><trkpt lat="43.3340905" lon="10.724193833333334"><ele>56.75</ele><time>2026-04-18T13:02:29.944Z</time></trkpt><trkpt lat="43.33402366666666" lon="10.724042666666666"><ele>58.0</ele><time>2026-04-18T13:02:30.959Z</time></trkpt><trkpt lat="43.333942166666674" lon="10.723794999999999"><ele>58.0</ele><time>2026-04-18T13:02:31.97Z</time></trkpt><trkpt lat="43.333898500000004" lon="10.723622833333332"><ele>58.0</ele><time>2026-04-18T13:02:32.938Z</time></trkpt><trkpt lat="43.33387899999999" lon="10.723533833333333"><ele>58.0</ele><time>2026-04-18T13:02:33.944Z</time></trkpt><trkpt lat="43.3338175" lon="10.723260833333331"><ele>58.0</ele><time>2026-04-18T13:02:34.96Z</time></trkpt><trkpt lat="43.33377600000001" lon="10.723074"><ele>56.0</ele><time>2026-04-18T13:02:35.975Z</time></trkpt><trkpt lat="43.33373616666666" lon="10.722885499999999"><ele>54.0</ele><time>2026-04-18T13:02:36.971Z</time></trkpt><trkpt lat="43.33369433333334" lon="10.722697000000002"><ele>52.0</ele><time>2026-04-18T13:02:37.94Z</time></trkpt><trkpt lat="43.33367383333333" lon="10.722603166666666"><ele>50.0</ele><time>2026-04-18T13:02:38.957Z</time></trkpt><trkpt lat="43.333632333333334" lon="10.722415666666667"><ele>50.0</ele><time>2026-04-18T13:02:39.957Z</time></trkpt><trkpt lat="43.33359183333334" lon="10.722228"><ele>50.0</ele><time>2026-04-18T13:02:40.971Z</time></trkpt><trkpt lat="43.33354933333333" lon="10.722040166666666"><ele>50.0</ele><time>2026-04-18T13:02:41.957Z</time></trkpt><trkpt lat="43.333485" lon="10.721756000000001"><ele>50.0</ele><time>2026-04-18T13:02:42.958Z</time></trkpt><trkpt lat="43.333442" lon="10.721564666666666"><ele>50.0</ele><time>2026-04-18T13:02:43.943Z</time></trkpt><trkpt lat="43.33339899999999" lon="10.721372333333333"><ele>50.0</ele><time>2026-04-18T13:02:44.983Z</time></trkpt><trkpt lat="43.33335650000001" lon="10.721177666666664"><ele>50.0</ele><time>2026-04-18T13:02:45.951Z</time></trkpt><trkpt lat="43.333314666666666" lon="10.720980166666669"><ele>49.66666666666667</ele><time>2026-04-18T13:02:46.947Z</time></trkpt><trkpt lat="43.333271333333336" lon="10.720780166666668"><ele>49.33333333333333</ele><time>2026-04-18T13:02:47.955Z</time></trkpt><trkpt lat="43.33324916666667" lon="10.720679500000001"><ele>49.0</ele><time>2026-04-18T13:02:48.978Z</time></trkpt><trkpt lat="43.3331815" lon="10.720373833333333"><ele>49.0</ele><time>2026-04-18T13:02:49.951Z</time></trkpt><trkpt lat="43.3331585" lon="10.720271166666663"><ele>49.0</ele><time>2026-04-18T13:02:50.959Z</time></trkpt><trkpt lat="43.333111166666676" lon="10.720065"><ele>49.0</ele><time>2026-04-18T13:02:51.949Z</time></trkpt><trkpt lat="43.33306416666667" lon="10.719859000000001"><ele>49.0</ele><time>2026-04-18T13:02:52.96Z</time></trkpt><trkpt lat="43.33299616666667" lon="10.719553333333334"><ele>48.5</ele><time>2026-04-18T13:02:53.939Z</time></trkpt><trkpt lat="43.33297416666666" lon="10.719453999999999"><ele>48.0</ele><time>2026-04-18T13:02:54.945Z</time></trkpt><trkpt lat="43.332931499999994" lon="10.719259166666665"><ele>47.5</ele><time>2026-04-18T13:02:55.948Z</time></trkpt><trkpt lat="43.33289400000001" lon="10.719066166666668"><ele>47.0</ele><time>2026-04-18T13:02:56.963Z</time></trkpt><trkpt lat="43.3328665" lon="10.718872833333334"><ele>47.0</ele><time>2026-04-18T13:02:57.959Z</time></trkpt><trkpt lat="43.332845666666664" lon="10.718680500000001"><ele>47.0</ele><time>2026-04-18T13:02:58.948Z</time></trkpt><trkpt lat="43.33283" lon="10.7184905"><ele>47.0</ele><time>2026-04-18T13:02:59.956Z</time></trkpt><trkpt lat="43.33281683333333" lon="10.718300166666666"><ele>47.0</ele><time>2026-04-18T13:03:00.956Z</time></trkpt><trkpt lat="43.33279983333334" lon="10.718011666666666"><ele>48.25</ele><time>2026-04-18T13:03:01.984Z</time></trkpt><trkpt lat="43.332789166666664" lon="10.717814666666667"><ele>49.5</ele><time>2026-04-18T13:03:02.945Z</time></trkpt><trkpt lat="43.332784000000004" lon="10.717715666666667"><ele>50.75</ele><time>2026-04-18T13:03:03.949Z</time></trkpt><trkpt lat="43.33277333333334" lon="10.717517166666667"><ele>52.0</ele><time>2026-04-18T13:03:04.956Z</time></trkpt><trkpt lat="43.33276216666667" lon="10.717318"><ele>52.25</ele><time>2026-04-18T13:03:05.953Z</time></trkpt><trkpt lat="43.33274283333334" lon="10.717016000000001"><ele>52.5</ele><time>2026-04-18T13:03:06.945Z</time></trkpt><trkpt lat="43.33273583333333" lon="10.716914666666666"><ele>52.75</ele><time>2026-04-18T13:03:07.951Z</time></trkpt><trkpt lat="43.33272133333334" lon="10.716710333333333"><ele>53.0</ele><time>2026-04-18T13:03:08.949Z</time></trkpt><trkpt lat="43.332707" lon="10.716502666666669"><ele>53.0</ele><time>2026-04-18T13:03:09.956Z</time></trkpt><trkpt lat="43.332693166666665" lon="10.716290833333334"><ele>53.0</ele><time>2026-04-18T13:03:10.943Z</time></trkpt><trkpt lat="43.3326705" lon="10.715964166666666"><ele>53.0</ele><time>2026-04-18T13:03:11.947Z</time></trkpt><trkpt lat="43.33266283333334" lon="10.715853333333333"><ele>53.0</ele><time>2026-04-18T13:03:12.944Z</time></trkpt><trkpt lat="43.332646999999994" lon="10.715629333333332"><ele>53.0</ele><time>2026-04-18T13:03:13.961Z</time></trkpt><trkpt lat="43.33262433333333" lon="10.715287833333331"><ele>53.0</ele><time>2026-04-18T13:03:14.99Z</time></trkpt><trkpt lat="43.33260849999999" lon="10.715057999999997"><ele>51.25</ele><time>2026-04-18T13:03:15.94Z</time></trkpt><trkpt lat="43.33260033333333" lon="10.7149425"><ele>49.5</ele><time>2026-04-18T13:03:16.956Z</time></trkpt><trkpt lat="43.33258416666666" lon="10.714711333333332"><ele>47.75</ele><time>2026-04-18T13:03:17.96Z</time></trkpt><trkpt lat="43.332565833333334" lon="10.714481333333334"><ele>46.0</ele><time>2026-04-18T13:03:18.949Z</time></trkpt><trkpt lat="43.33254733333333" lon="10.714252833333333"><ele>45.66666666666667</ele><time>2026-04-18T13:03:19.943Z</time></trkpt><trkpt lat="43.33252933333333" lon="10.714025833333334"><ele>45.333333333333336</ele><time>2026-04-18T13:03:20.944Z</time></trkpt><trkpt lat="43.332511000000004" lon="10.713802333333335"><ele>45.0</ele><time>2026-04-18T13:03:21.948Z</time></trkpt><trkpt lat="43.33248483333333" lon="10.713585"><ele>46.0</ele><time>2026-04-18T13:03:22.968Z</time></trkpt><trkpt lat="43.332443666666656" lon="10.713374166666666"><ele>47.0</ele><time>2026-04-18T13:03:23.976Z</time></trkpt><trkpt lat="43.33238883333333" lon="10.713170333333334"><ele>48.0</ele><time>2026-04-18T13:03:24.951Z</time></trkpt><trkpt lat="43.332321333333326" lon="10.712974"><ele>48.0</ele><time>2026-04-18T13:03:25.948Z</time></trkpt><trkpt lat="43.332241999999994" lon="10.712786999999999"><ele>48.0</ele><time>2026-04-18T13:03:26.956Z</time></trkpt><trkpt lat="43.33215283333334" lon="10.712608333333334"><ele>48.0</ele><time>2026-04-18T13:03:27.976Z</time></trkpt><trkpt lat="43.33205816666667" lon="10.712435166666667"><ele>48.0</ele><time>2026-04-18T13:03:28.947Z</time></trkpt><trkpt lat="43.33196066666666" lon="10.712264999999999"><ele>48.0</ele><time>2026-04-18T13:03:29.955Z</time></trkpt><trkpt lat="43.331859666666666" lon="10.712098166666665"><ele>48.0</ele><time>2026-04-18T13:03:30.956Z</time></trkpt><trkpt lat="43.3317565" lon="10.711935333333333"><ele>47.666666666666664</ele><time>2026-04-18T13:03:31.981Z</time></trkpt><trkpt lat="43.33165266666666" lon="10.711774166666665"><ele>47.33333333333333</ele><time>2026-04-18T13:03:32.947Z</time></trkpt><trkpt lat="43.33155133333333" lon="10.711610499999997"><ele>47.0</ele><time>2026-04-18T13:03:33.952Z</time></trkpt><trkpt lat="43.3314505" lon="10.711446"><ele>46.33333333333333</ele><time>2026-04-18T13:03:34.952Z</time></trkpt><trkpt lat="43.33134916666666" lon="10.711280666666669"><ele>45.666666666666664</ele><time>2026-04-18T13:03:35.971Z</time></trkpt><trkpt lat="43.33124533333333" lon="10.711114166666668"><ele>45.0</ele><time>2026-04-18T13:03:36.959Z</time></trkpt><trkpt lat="43.33113916666667" lon="10.710944166666664"><ele>46.33333333333333</ele><time>2026-04-18T13:03:37.945Z</time></trkpt><trkpt lat="43.331032" lon="10.710772166666668"><ele>47.666666666666664</ele><time>2026-04-18T13:03:38.943Z</time></trkpt><trkpt lat="43.33092533333334" lon="10.710598666666664"><ele>49.0</ele><time>2026-04-18T13:03:39.965Z</time></trkpt><trkpt lat="43.330822500000004" lon="10.710421499999999"><ele>48.0</ele><time>2026-04-18T13:03:40.98Z</time></trkpt><trkpt lat="43.33072516666666" lon="10.710241166666666"><ele>47.0</ele><time>2026-04-18T13:03:41.947Z</time></trkpt><trkpt lat="43.330633500000005" lon="10.710056666666667"><ele>46.0</ele><time>2026-04-18T13:03:42.948Z</time></trkpt><trkpt lat="43.330550666666674" lon="10.709866333333332"><ele>46.0</ele><time>2026-04-18T13:03:43.972Z</time></trkpt><trkpt lat="43.33048016666667" lon="10.709668166666665"><ele>46.0</ele><time>2026-04-18T13:03:44.953Z</time></trkpt><trkpt lat="43.33041983333332" lon="10.709463999999999"><ele>46.0</ele><time>2026-04-18T13:03:45.944Z</time></trkpt><trkpt lat="43.33036566666666" lon="10.709256000000002"><ele>46.333333333333336</ele><time>2026-04-18T13:03:46.954Z</time></trkpt><trkpt lat="43.33031283333333" lon="10.709047166666668"><ele>46.666666666666664</ele><time>2026-04-18T13:03:47.953Z</time></trkpt><trkpt lat="43.330261" lon="10.708837333333333"><ele>47.0</ele><time>2026-04-18T13:03:48.98Z</time></trkpt><trkpt lat="43.33021000000001" lon="10.7086265"><ele>47.666666666666664</ele><time>2026-04-18T13:03:49.948Z</time></trkpt><trkpt lat="43.330133833333335" lon="10.708308333333333"><ele>48.33333333333333</ele><time>2026-04-18T13:03:50.95Z</time></trkpt><trkpt lat="43.330081500000006" lon="10.708088166666668"><ele>49.0</ele><time>2026-04-18T13:03:51.962Z</time></trkpt><trkpt lat="43.3300545" lon="10.7079745"><ele>50.0</ele><time>2026-04-18T13:03:52.975Z</time></trkpt><trkpt lat="43.329974166666666" lon="10.707624833333332"><ele>51.0</ele><time>2026-04-18T13:03:53.943Z</time></trkpt><trkpt lat="43.329927" lon="10.707388166666666"><ele>52.0</ele><time>2026-04-18T13:03:54.948Z</time></trkpt><trkpt lat="43.329889333333334" lon="10.707148333333334"><ele>52.75</ele><time>2026-04-18T13:03:55.948Z</time></trkpt><trkpt lat="43.32986433333334" lon="10.706907"><ele>53.5</ele><time>2026-04-18T13:03:56.98Z</time></trkpt><trkpt lat="43.32985699999999" lon="10.706786333333332"><ele>54.25</ele><time>2026-04-18T13:03:57.956Z</time></trkpt><trkpt lat="43.32984799999999" lon="10.706545166666668"><ele>55.0</ele><time>2026-04-18T13:03:58.948Z</time></trkpt><trkpt lat="43.329843333333336" lon="10.706309333333333"><ele>55.0</ele><time>2026-04-18T13:03:59.953Z</time></trkpt><trkpt lat="43.329844" lon="10.706078500000002"><ele>55.0</ele><time>2026-04-18T13:04:00.957Z</time></trkpt><trkpt lat="43.3298495" lon="10.705739666666666"><ele>55.0</ele><time>2026-04-18T13:04:01.988Z</time></trkpt><trkpt lat="43.32985099999999" lon="10.705628500000001"><ele>55.0</ele><time>2026-04-18T13:04:02.944Z</time></trkpt><trkpt lat="43.329852333333335" lon="10.705300333333332"><ele>55.0</ele><time>2026-04-18T13:04:03.944Z</time></trkpt><trkpt lat="43.329851999999995" lon="10.705192"><ele>55.0</ele><time>2026-04-18T13:04:04.956Z</time></trkpt><trkpt lat="43.32985099999999" lon="10.704975666666668"><ele>53.666666666666664</ele><time>2026-04-18T13:04:05.976Z</time></trkpt><trkpt lat="43.32984750000001" lon="10.70476"><ele>52.33333333333333</ele><time>2026-04-18T13:04:06.948Z</time></trkpt><trkpt lat="43.329829000000004" lon="10.704437666666669"><ele>51.0</ele><time>2026-04-18T13:04:07.957Z</time></trkpt><trkpt lat="43.32981616666666" lon="10.704331166666668"><ele>51.0</ele><time>2026-04-18T13:04:08.944Z</time></trkpt><trkpt lat="43.32978433333332" lon="10.704117833333331"><ele>51.0</ele><time>2026-04-18T13:04:09.97Z</time></trkpt><trkpt lat="43.32974483333334" lon="10.703904499999998"><ele>51.0</ele><time>2026-04-18T13:04:10.948Z</time></trkpt><trkpt lat="43.32969716666666" lon="10.703689833333332"><ele>49.0</ele><time>2026-04-18T13:04:11.956Z</time></trkpt><trkpt lat="43.32964383333333" lon="10.703469166666665"><ele>47.0</ele><time>2026-04-18T13:04:12.949Z</time></trkpt><trkpt lat="43.329586500000005" lon="10.703240999999998"><ele>45.0</ele><time>2026-04-18T13:04:13.964Z</time></trkpt><trkpt lat="43.3295265" lon="10.703009166666666"><ele>45.0</ele><time>2026-04-18T13:04:14.958Z</time></trkpt><trkpt lat="43.329468" lon="10.702773833333334"><ele>45.0</ele><time>2026-04-18T13:04:15.944Z</time></trkpt><trkpt lat="43.32941066666667" lon="10.702539166666668"><ele>45.0</ele><time>2026-04-18T13:04:16.948Z</time></trkpt><trkpt lat="43.32935316666667" lon="10.702308999999998"><ele>45.333333333333336</ele><time>2026-04-18T13:04:17.968Z</time></trkpt><trkpt lat="43.32929583333333" lon="10.702084166666667"><ele>45.66666666666667</ele><time>2026-04-18T13:04:18.984Z</time></trkpt><trkpt lat="43.32924" lon="10.701863166666666"><ele>46.0</ele><time>2026-04-18T13:04:19.96Z</time></trkpt><trkpt lat="43.32919033333332" lon="10.7016435"><ele>47.0</ele><time>2026-04-18T13:04:20.969Z</time></trkpt><trkpt lat="43.32915266666667" lon="10.701424000000001"><ele>48.0</ele><time>2026-04-18T13:04:22.044Z</time></trkpt><trkpt lat="43.32912666666666" lon="10.701202833333332"><ele>49.0</ele><time>2026-04-18T13:04:22.956Z</time></trkpt><trkpt lat="43.32911116666667" lon="10.700982666666668"><ele>50.0</ele><time>2026-04-18T13:04:23.94Z</time></trkpt><trkpt lat="43.32910516666667" lon="10.700765833333334"><ele>51.0</ele><time>2026-04-18T13:04:24.95Z</time></trkpt><trkpt lat="43.329108500000004" lon="10.700552833333331"><ele>52.0</ele><time>2026-04-18T13:04:26.04Z</time></trkpt><trkpt lat="43.32912083333334" lon="10.700343666666667"><ele>52.0</ele><time>2026-04-18T13:04:26.968Z</time></trkpt><trkpt lat="43.32915433333333" lon="10.700035833333333"><ele>52.0</ele><time>2026-04-18T13:04:27.949Z</time></trkpt><trkpt lat="43.329186" lon="10.699831999999999"><ele>52.0</ele><time>2026-04-18T13:04:28.952Z</time></trkpt><trkpt lat="43.329224833333335" lon="10.699630833333334"><ele>52.0</ele><time>2026-04-18T13:04:29.944Z</time></trkpt><trkpt lat="43.329273666666666" lon="10.69943516666667"><ele>52.0</ele><time>2026-04-18T13:04:30.965Z</time></trkpt><trkpt lat="43.32933" lon="10.699243999999998"><ele>52.0</ele><time>2026-04-18T13:04:31.948Z</time></trkpt><trkpt lat="43.329392999999996" lon="10.699056499999998"><ele>50.0</ele><time>2026-04-18T13:04:32.949Z</time></trkpt><trkpt lat="43.32945983333334" lon="10.698870499999998"><ele>48.0</ele><time>2026-04-18T13:04:33.954Z</time></trkpt><trkpt lat="43.329527166666665" lon="10.69868433333333"><ele>46.0</ele><time>2026-04-18T13:04:34.959Z</time></trkpt><trkpt lat="43.32959166666666" lon="10.698495500000002"><ele>46.333333333333336</ele><time>2026-04-18T13:04:35.972Z</time></trkpt><trkpt lat="43.329656166666666" lon="10.698308"><ele>46.666666666666664</ele><time>2026-04-18T13:04:36.958Z</time></trkpt><trkpt lat="43.329721166666666" lon="10.698121333333333"><ele>47.0</ele><time>2026-04-18T13:04:37.942Z</time></trkpt><trkpt lat="43.329787" lon="10.697936333333333"><ele>46.0</ele><time>2026-04-18T13:04:38.958Z</time></trkpt><trkpt lat="43.3298515" lon="10.697750833333336"><ele>45.0</ele><time>2026-04-18T13:04:39.965Z</time></trkpt><trkpt lat="43.329912666666665" lon="10.697564833333335"><ele>44.0</ele><time>2026-04-18T13:04:40.948Z</time></trkpt><trkpt lat="43.32996933333334" lon="10.697379166666668"><ele>43.0</ele><time>2026-04-18T13:04:41.954Z</time></trkpt><trkpt lat="43.32999483333333" lon="10.697285499999998"><ele>43.0</ele><time>2026-04-18T13:04:42.941Z</time></trkpt><trkpt lat="43.33006399999999" lon="10.697003333333335"><ele>43.0</ele><time>2026-04-18T13:04:43.965Z</time></trkpt><trkpt lat="43.33008466666667" lon="10.696908833333335"><ele>43.0</ele><time>2026-04-18T13:04:44.945Z</time></trkpt><trkpt lat="43.33012166666667" lon="10.696718833333334"><ele>43.0</ele><time>2026-04-18T13:04:45.945Z</time></trkpt><trkpt lat="43.33015333333332" lon="10.696528166666667"><ele>43.0</ele><time>2026-04-18T13:04:46.952Z</time></trkpt><trkpt lat="43.3301825" lon="10.696338333333332"><ele>43.0</ele><time>2026-04-18T13:04:47.961Z</time></trkpt><trkpt lat="43.330219166666666" lon="10.696053666666666"><ele>43.0</ele><time>2026-04-18T13:04:48.937Z</time></trkpt><trkpt lat="43.33023983333332" lon="10.695864666666667"><ele>43.25</ele><time>2026-04-18T13:04:49.941Z</time></trkpt><trkpt lat="43.33025883333333" lon="10.695676166666665"><ele>43.5</ele><time>2026-04-18T13:04:50.956Z</time></trkpt><trkpt lat="43.330278833333324" lon="10.695487833333335"><ele>43.75</ele><time>2026-04-18T13:04:51.958Z</time></trkpt><trkpt lat="43.33028816666667" lon="10.695393000000001"><ele>44.0</ele><time>2026-04-18T13:04:52.98Z</time></trkpt><trkpt lat="43.330307" lon="10.695201333333335"><ele>44.0</ele><time>2026-04-18T13:04:54.013Z</time></trkpt><trkpt lat="43.3303225" lon="10.6950065"><ele>44.0</ele><time>2026-04-18T13:04:54.949Z</time></trkpt><trkpt lat="43.33033099999999" lon="10.694808166666666"><ele>44.0</ele><time>2026-04-18T13:04:55.957Z</time></trkpt><trkpt lat="43.33033083333333" lon="10.6946075"><ele>44.0</ele><time>2026-04-18T13:04:57.168Z</time></trkpt><trkpt lat="43.33030466666668" lon="10.694201166666668"><ele>44.666666666666664</ele><time>2026-04-18T13:04:59.022Z</time></trkpt><trkpt lat="43.33026733333333" lon="10.693893"><ele>45.333333333333336</ele><time>2026-04-18T13:04:59.949Z</time></trkpt><trkpt lat="43.33023549999999" lon="10.693686500000002"><ele>46.0</ele><time>2026-04-18T13:05:00.957Z</time></trkpt><trkpt lat="43.33019966666667" lon="10.693480333333332"><ele>46.0</ele><time>2026-04-18T13:05:01.968Z</time></trkpt><trkpt lat="43.330162333333334" lon="10.693274833333332"><ele>46.0</ele><time>2026-04-18T13:05:02.945Z</time></trkpt><trkpt lat="43.33012466666667" lon="10.693069500000002"><ele>46.0</ele><time>2026-04-18T13:05:03.94Z</time></trkpt><trkpt lat="43.330105833333334" lon="10.692966333333334"><ele>46.0</ele><time>2026-04-18T13:05:04.954Z</time></trkpt><trkpt lat="43.33004899999999" lon="10.692655833333333"><ele>46.0</ele><time>2026-04-18T13:05:05.978Z</time></trkpt><trkpt lat="43.3300285" lon="10.692552333333333"><ele>46.0</ele><time>2026-04-18T13:05:06.95Z</time></trkpt><trkpt lat="43.32996333333334" lon="10.692240833333337"><ele>46.0</ele><time>2026-04-18T13:05:07.958Z</time></trkpt><trkpt lat="43.329914166666676" lon="10.692031833333333"><ele>44.66666666666667</ele><time>2026-04-18T13:05:08.95Z</time></trkpt><trkpt lat="43.32986016666667" lon="10.691819999999998"><ele>43.333333333333336</ele><time>2026-04-18T13:05:09.969Z</time></trkpt><trkpt lat="43.32980200000001" lon="10.691607333333332"><ele>42.0</ele><time>2026-04-18T13:05:10.941Z</time></trkpt><trkpt lat="43.329737666666674" lon="10.691395666666665"><ele>41.75</ele><time>2026-04-18T13:05:11.944Z</time></trkpt><trkpt lat="43.32966583333334" lon="10.691186333333333"><ele>41.5</ele><time>2026-04-18T13:05:12.953Z</time></trkpt><trkpt lat="43.3295885" lon="10.690980000000001"><ele>41.25</ele><time>2026-04-18T13:05:13.973Z</time></trkpt><trkpt lat="43.329548499999994" lon="10.690877333333333"><ele>41.0</ele><time>2026-04-18T13:05:14.946Z</time></trkpt><trkpt lat="43.329468500000004" lon="10.690672833333334"><ele>41.0</ele><time>2026-04-18T13:05:15.956Z</time></trkpt><trkpt lat="43.329346666666666" lon="10.6903665"><ele>41.0</ele><time>2026-04-18T13:05:16.949Z</time></trkpt><trkpt lat="43.32926466666667" lon="10.690159833333334"><ele>41.0</ele><time>2026-04-18T13:05:17.97Z</time></trkpt><trkpt lat="43.329223166666665" lon="10.690055166666665"><ele>41.33333333333333</ele><time>2026-04-18T13:05:18.952Z</time></trkpt><trkpt lat="43.32913683333333" lon="10.689841666666666"><ele>41.666666666666664</ele><time>2026-04-18T13:05:19.946Z</time></trkpt><trkpt lat="43.329046333333324" lon="10.6896205"><ele>42.0</ele><time>2026-04-18T13:05:20.945Z</time></trkpt><trkpt lat="43.32895366666666" lon="10.689389833333333"><ele>41.666666666666664</ele><time>2026-04-18T13:05:21.962Z</time></trkpt><trkpt lat="43.32886166666667" lon="10.689150166666666"><ele>41.33333333333333</ele><time>2026-04-18T13:05:22.984Z</time></trkpt><trkpt lat="43.328773500000004" lon="10.6889065"><ele>41.0</ele><time>2026-04-18T13:05:23.944Z</time></trkpt><trkpt lat="43.32869066666667" lon="10.6886605"><ele>41.666666666666664</ele><time>2026-04-18T13:05:24.957Z</time></trkpt><trkpt lat="43.32857883333333" lon="10.688288833333337"><ele>42.333333333333336</ele><time>2026-04-18T13:05:25.95Z</time></trkpt><trkpt lat="43.328546" lon="10.688162833333335"><ele>43.0</ele><time>2026-04-18T13:05:26.973Z</time></trkpt><trkpt lat="43.32846316666667" lon="10.687781666666668"><ele>43.333333333333336</ele><time>2026-04-18T13:05:27.949Z</time></trkpt><trkpt lat="43.32842099999999" lon="10.687525500000001"><ele>43.666666666666664</ele><time>2026-04-18T13:05:28.941Z</time></trkpt><trkpt lat="43.3283935" lon="10.6872675"><ele>44.0</ele><time>2026-04-18T13:05:30.046Z</time></trkpt><trkpt lat="43.32838533333334" lon="10.687137833333335"><ele>44.33333333333333</ele><time>2026-04-18T13:05:30.951Z</time></trkpt><trkpt lat="43.32837766666666" lon="10.686879666666668"><ele>44.666666666666664</ele><time>2026-04-18T13:05:31.952Z</time></trkpt><trkpt lat="43.32838016666666" lon="10.686623166666669"><ele>45.0</ele><time>2026-04-18T13:05:32.95Z</time></trkpt><trkpt lat="43.32839316666667" lon="10.686369166666667"><ele>45.0</ele><time>2026-04-18T13:05:33.949Z</time></trkpt><trkpt lat="43.32841516666667" lon="10.686118166666667"><ele>45.0</ele><time>2026-04-18T13:05:34.957Z</time></trkpt><trkpt lat="43.32844749999999" lon="10.685870666666665"><ele>45.0</ele><time>2026-04-18T13:05:35.96Z</time></trkpt><trkpt lat="43.32848883333333" lon="10.685628000000001"><ele>45.0</ele><time>2026-04-18T13:05:36.948Z</time></trkpt><trkpt lat="43.328537999999995" lon="10.685390166666664"><ele>45.0</ele><time>2026-04-18T13:05:37.957Z</time></trkpt><trkpt lat="43.32859233333334" lon="10.685155833333331"><ele>45.0</ele><time>2026-04-18T13:05:38.961Z</time></trkpt><trkpt lat="43.3286485" lon="10.684924333333333"><ele>44.666666666666664</ele><time>2026-04-18T13:05:39.982Z</time></trkpt><trkpt lat="43.32870533333333" lon="10.684694333333335"><ele>44.33333333333333</ele><time>2026-04-18T13:05:40.958Z</time></trkpt><trkpt lat="43.32876266666667" lon="10.684465833333334"><ele>44.0</ele><time>2026-04-18T13:05:41.957Z</time></trkpt><trkpt lat="43.32881933333333" lon="10.684238"><ele>44.0</ele><time>2026-04-18T13:05:42.953Z</time></trkpt><trkpt lat="43.32887933333333" lon="10.684011833333335"><ele>44.0</ele><time>2026-04-18T13:05:43.969Z</time></trkpt><trkpt lat="43.32893916666667" lon="10.68378616666667"><ele>44.0</ele><time>2026-04-18T13:05:44.949Z</time></trkpt><trkpt lat="43.32899633333333" lon="10.683560333333332"><ele>43.33333333333333</ele><time>2026-04-18T13:05:45.942Z</time></trkpt><trkpt lat="43.32905149999999" lon="10.683333999999999"><ele>42.666666666666664</ele><time>2026-04-18T13:05:46.946Z</time></trkpt><trkpt lat="43.3291295" lon="10.682993166666666"><ele>42.0</ele><time>2026-04-18T13:05:47.983Z</time></trkpt><trkpt lat="43.3291545" lon="10.682879333333334"><ele>41.333333333333336</ele><time>2026-04-18T13:05:48.949Z</time></trkpt><trkpt lat="43.32920333333333" lon="10.682651666666667"><ele>40.66666666666667</ele><time>2026-04-18T13:05:49.95Z</time></trkpt><trkpt lat="43.32927516666667" lon="10.682310666666668"><ele>40.0</ele><time>2026-04-18T13:05:50.946Z</time></trkpt><trkpt lat="43.329320666666675" lon="10.6820835"><ele>40.0</ele><time>2026-04-18T13:05:51.957Z</time></trkpt><trkpt lat="43.32934266666666" lon="10.681969833333335"><ele>40.0</ele><time>2026-04-18T13:05:52.953Z</time></trkpt><trkpt lat="43.329406166666665" lon="10.681627500000001"><ele>40.0</ele><time>2026-04-18T13:05:53.949Z</time></trkpt><trkpt lat="43.32942633333334" lon="10.681513166666665"><ele>40.0</ele><time>2026-04-18T13:05:54.946Z</time></trkpt><trkpt lat="43.329483333333336" lon="10.681169333333331"><ele>39.5</ele><time>2026-04-18T13:05:55.957Z</time></trkpt><trkpt lat="43.329519499999996" lon="10.680940166666668"><ele>39.0</ele><time>2026-04-18T13:05:56.989Z</time></trkpt><trkpt lat="43.32955366666666" lon="10.680710500000004"><ele>38.5</ele><time>2026-04-18T13:05:57.946Z</time></trkpt><trkpt lat="43.32957" lon="10.680595666666665"><ele>38.0</ele><time>2026-04-18T13:05:58.941Z</time></trkpt><trkpt lat="43.32960183333333" lon="10.680366000000001"><ele>38.33333333333333</ele><time>2026-04-18T13:05:59.95Z</time></trkpt><trkpt lat="43.329631166666665" lon="10.6801365"><ele>38.666666666666664</ele><time>2026-04-18T13:06:00.969Z</time></trkpt><trkpt lat="43.32965850000001" lon="10.679906666666666"><ele>39.0</ele><time>2026-04-18T13:06:01.945Z</time></trkpt><trkpt lat="43.32968333333333" lon="10.679676666666667"><ele>39.0</ele><time>2026-04-18T13:06:02.949Z</time></trkpt><trkpt lat="43.329705166666656" lon="10.679446333333333"><ele>39.0</ele><time>2026-04-18T13:06:03.954Z</time></trkpt><trkpt lat="43.329725833333335" lon="10.679216"><ele>39.0</ele><time>2026-04-18T13:06:04.97Z</time></trkpt><trkpt lat="43.32974550000001" lon="10.678985666666666"><ele>42.0</ele><time>2026-04-18T13:06:05.945Z</time></trkpt><trkpt lat="43.32976300000001" lon="10.678755666666666"><ele>45.0</ele><time>2026-04-18T13:06:06.953Z</time></trkpt><trkpt lat="43.32977866666666" lon="10.678525833333333"><ele>48.0</ele><time>2026-04-18T13:06:07.944Z</time></trkpt><trkpt lat="43.32979233333334" lon="10.678296166666666"><ele>48.33333333333333</ele><time>2026-04-18T13:06:08.958Z</time></trkpt><trkpt lat="43.32980883333333" lon="10.677951166666666"><ele>48.666666666666664</ele><time>2026-04-18T13:06:09.949Z</time></trkpt><trkpt lat="43.32981799999999" lon="10.677721166666666"><ele>49.0</ele><time>2026-04-18T13:06:10.942Z</time></trkpt><trkpt lat="43.32982733333333" lon="10.677491333333334"><ele>46.33333333333333</ele><time>2026-04-18T13:06:11.947Z</time></trkpt><trkpt lat="43.32983583333333" lon="10.677261166666666"><ele>43.666666666666664</ele><time>2026-04-18T13:06:12.957Z</time></trkpt><trkpt lat="43.3298425" lon="10.677031"><ele>41.0</ele><time>2026-04-18T13:06:13.985Z</time></trkpt><trkpt lat="43.329846333333336" lon="10.676800833333333"><ele>40.25</ele><time>2026-04-18T13:06:14.954Z</time></trkpt><trkpt lat="43.32984750000001" lon="10.676570666666665"><ele>39.5</ele><time>2026-04-18T13:06:15.947Z</time></trkpt><trkpt lat="43.32984683333334" lon="10.676455833333334"><ele>38.75</ele><time>2026-04-18T13:06:16.95Z</time></trkpt><trkpt lat="43.32984366666666" lon="10.676226166666666"><ele>38.0</ele><time>2026-04-18T13:06:17.974Z</time></trkpt><trkpt lat="43.329840166666656" lon="10.675996166666668"><ele>38.0</ele><time>2026-04-18T13:06:18.953Z</time></trkpt><trkpt lat="43.329837166666664" lon="10.675765833333333"><ele>38.0</ele><time>2026-04-18T13:06:19.967Z</time></trkpt><trkpt lat="43.329831333333345" lon="10.675534833333332"><ele>38.0</ele><time>2026-04-18T13:06:20.957Z</time></trkpt><trkpt lat="43.32982333333332" lon="10.675304166666667"><ele>38.0</ele><time>2026-04-18T13:06:21.958Z</time></trkpt><trkpt lat="43.32981366666666" lon="10.675073833333332"><ele>38.0</ele><time>2026-04-18T13:06:22.954Z</time></trkpt><trkpt lat="43.32979566666666" lon="10.674731000000001"><ele>38.0</ele><time>2026-04-18T13:06:23.955Z</time></trkpt><trkpt lat="43.3297815" lon="10.674504666666667"><ele>38.0</ele><time>2026-04-18T13:06:24.946Z</time></trkpt><trkpt lat="43.329766" lon="10.674279333333333"><ele>38.0</ele><time>2026-04-18T13:06:25.957Z</time></trkpt><trkpt lat="43.32975816666667" lon="10.674167166666667"><ele>38.0</ele><time>2026-04-18T13:06:26.953Z</time></trkpt><trkpt lat="43.32974116666666" lon="10.673943499999998"><ele>38.0</ele><time>2026-04-18T13:06:27.955Z</time></trkpt><trkpt lat="43.329713999999996" lon="10.673612333333331"><ele>37.666666666666664</ele><time>2026-04-18T13:06:28.952Z</time></trkpt><trkpt lat="43.329693500000005" lon="10.673396333333335"><ele>37.333333333333336</ele><time>2026-04-18T13:06:29.95Z</time></trkpt><trkpt lat="43.3296725" lon="10.673183500000002"><ele>37.0</ele><time>2026-04-18T13:06:30.978Z</time></trkpt><trkpt lat="43.32964950000001" lon="10.672973666666666"><ele>37.25</ele><time>2026-04-18T13:06:31.956Z</time></trkpt><trkpt lat="43.329624166666655" lon="10.6727675"><ele>37.5</ele><time>2026-04-18T13:06:32.939Z</time></trkpt><trkpt lat="43.32959850000001" lon="10.672565333333335"><ele>37.75</ele><time>2026-04-18T13:06:33.959Z</time></trkpt><trkpt lat="43.32957216666667" lon="10.672368333333335"><ele>38.0</ele><time>2026-04-18T13:06:34.985Z</time></trkpt><trkpt lat="43.32955916666667" lon="10.672272166666668"><ele>38.0</ele><time>2026-04-18T13:06:35.949Z</time></trkpt><trkpt lat="43.32951966666667" lon="10.671995666666666"><ele>38.0</ele><time>2026-04-18T13:06:36.944Z</time></trkpt><trkpt lat="43.32949416666667" lon="10.671821333333332"><ele>38.0</ele><time>2026-04-18T13:06:37.95Z</time></trkpt><trkpt lat="43.32946916666666" lon="10.671655333333335"><ele>38.0</ele><time>2026-04-18T13:06:38.957Z</time></trkpt><trkpt lat="43.32944483333333" lon="10.6714975"><ele>38.0</ele><time>2026-04-18T13:06:39.99Z</time></trkpt><trkpt lat="43.32939983333334" lon="10.671205166666667"><ele>38.0</ele><time>2026-04-18T13:06:41.954Z</time></trkpt><trkpt lat="43.32938083333334" lon="10.6710675"><ele>38.0</ele><time>2026-04-18T13:06:42.961Z</time></trkpt><trkpt lat="43.32936516666667" lon="10.670935166666666"><ele>37.8</ele><time>2026-04-18T13:06:43.962Z</time></trkpt><trkpt lat="43.329349666666666" lon="10.670743999999997"><ele>37.599999999999994</ele><time>2026-04-18T13:06:45.946Z</time></trkpt><trkpt lat="43.329348333333336" lon="10.670620166666668"><ele>37.400000000000006</ele><time>2026-04-18T13:06:46.958Z</time></trkpt><trkpt lat="43.329352500000006" lon="10.670501333333334"><ele>37.2</ele><time>2026-04-18T13:06:47.97Z</time></trkpt><trkpt lat="43.32934683333333" lon="10.670388666666666"><ele>37.0</ele><time>2026-04-18T13:06:48.943Z</time></trkpt><trkpt lat="43.32932683333333" lon="10.670279999999998"><ele>36.6</ele><time>2026-04-18T13:06:49.945Z</time></trkpt><trkpt lat="43.329297333333336" lon="10.670170833333335"><ele>36.2</ele><time>2026-04-18T13:06:50.953Z</time></trkpt><trkpt lat="43.329262" lon="10.670054"><ele>35.8</ele><time>2026-04-18T13:06:51.968Z</time></trkpt><trkpt lat="43.329227833333334" lon="10.669924166666666"><ele>35.4</ele><time>2026-04-18T13:06:53.098Z</time></trkpt><trkpt lat="43.32919816666666" lon="10.669780333333332"><ele>35.0</ele><time>2026-04-18T13:06:53.949Z</time></trkpt><trkpt lat="43.32917016666667" lon="10.669626000000001"><ele>35.0</ele><time>2026-04-18T13:06:54.942Z</time></trkpt><trkpt lat="43.3291425" lon="10.669463833333335"><ele>35.0</ele><time>2026-04-18T13:06:55.963Z</time></trkpt><trkpt lat="43.32909983333334" lon="10.6692075"><ele>35.0</ele><time>2026-04-18T13:06:56.978Z</time></trkpt><trkpt lat="43.329072499999995" lon="10.669031333333333"><ele>35.0</ele><time>2026-04-18T13:06:57.949Z</time></trkpt><trkpt lat="43.32905866666666" lon="10.668942333333334"><ele>34.75</ele><time>2026-04-18T13:06:58.945Z</time></trkpt><trkpt lat="43.3290325" lon="10.668763666666667"><ele>34.5</ele><time>2026-04-18T13:06:59.949Z</time></trkpt><trkpt lat="43.3290065" lon="10.668586999999999"><ele>34.25</ele><time>2026-04-18T13:07:00.949Z</time></trkpt><trkpt lat="43.328980833333326" lon="10.668414166666667"><ele>34.0</ele><time>2026-04-18T13:07:01.954Z</time></trkpt><trkpt lat="43.32895499999999" lon="10.66824483333333"><ele>34.5</ele><time>2026-04-18T13:07:02.953Z</time></trkpt><trkpt lat="43.32893000000001" lon="10.668079666666666"><ele>35.0</ele><time>2026-04-18T13:07:03.946Z</time></trkpt><trkpt lat="43.328906" lon="10.667916833333333"><ele>35.5</ele><time>2026-04-18T13:07:04.974Z</time></trkpt><trkpt lat="43.3288815" lon="10.667754833333333"><ele>36.0</ele><time>2026-04-18T13:07:05.953Z</time></trkpt><trkpt lat="43.32884416666668" lon="10.667513000000001"><ele>36.25</ele><time>2026-04-18T13:07:06.953Z</time></trkpt><trkpt lat="43.328819499999994" lon="10.667351499999999"><ele>36.5</ele><time>2026-04-18T13:07:07.946Z</time></trkpt><trkpt lat="43.3287945" lon="10.667188500000002"><ele>36.75</ele><time>2026-04-18T13:07:08.967Z</time></trkpt><trkpt lat="43.32876866666667" lon="10.667024166666666"><ele>37.0</ele><time>2026-04-18T13:07:09.968Z</time></trkpt><trkpt lat="43.32874233333333" lon="10.666858166666668"><ele>37.0</ele><time>2026-04-18T13:07:10.939Z</time></trkpt><trkpt lat="43.32871566666666" lon="10.666691"><ele>37.0</ele><time>2026-04-18T13:07:11.95Z</time></trkpt><trkpt lat="43.328675999999994" lon="10.666438"><ele>37.0</ele><time>2026-04-18T13:07:13.978Z</time></trkpt><trkpt lat="43.328649666666664" lon="10.666268333333335"><ele>37.0</ele><time>2026-04-18T13:07:14.952Z</time></trkpt><trkpt lat="43.32862416666667" lon="10.666097666666667"><ele>37.333333333333336</ele><time>2026-04-18T13:07:15.945Z</time></trkpt><trkpt lat="43.32860383333333" lon="10.665923999999999"><ele>37.666666666666664</ele><time>2026-04-18T13:07:16.954Z</time></trkpt><trkpt lat="43.328581666666665" lon="10.6656585"><ele>38.0</ele><time>2026-04-18T13:07:17.949Z</time></trkpt><trkpt lat="43.32856683333333" lon="10.665480333333333"><ele>38.0</ele><time>2026-04-18T13:07:18.955Z</time></trkpt><trkpt lat="43.32855416666666" lon="10.665301"><ele>38.0</ele><time>2026-04-18T13:07:19.947Z</time></trkpt><trkpt lat="43.32854166666666" lon="10.665120333333332"><ele>38.0</ele><time>2026-04-18T13:07:20.957Z</time></trkpt><trkpt lat="43.328530833333325" lon="10.664938333333335"><ele>38.0</ele><time>2026-04-18T13:07:21.962Z</time></trkpt><trkpt lat="43.328520499999996" lon="10.664755333333336"><ele>38.0</ele><time>2026-04-18T13:07:22.947Z</time></trkpt><trkpt lat="43.32851183333334" lon="10.664571666666665"><ele>38.0</ele><time>2026-04-18T13:07:23.951Z</time></trkpt><trkpt lat="43.32850833333333" lon="10.664479499999999"><ele>38.0</ele><time>2026-04-18T13:07:24.95Z</time></trkpt><trkpt lat="43.328503" lon="10.664294500000002"><ele>38.0</ele><time>2026-04-18T13:07:25.948Z</time></trkpt><trkpt lat="43.328504" lon="10.664109333333332"><ele>37.25</ele><time>2026-04-18T13:07:26.945Z</time></trkpt><trkpt lat="43.32851483333334" lon="10.663924666666666"><ele>36.5</ele><time>2026-04-18T13:07:27.958Z</time></trkpt><trkpt lat="43.328557" lon="10.663655000000002"><ele>35.75</ele><time>2026-04-18T13:07:28.954Z</time></trkpt><trkpt lat="43.328579000000005" lon="10.663567499999997"><ele>35.0</ele><time>2026-04-18T13:07:29.967Z</time></trkpt><trkpt lat="43.328629166666666" lon="10.663396833333335"><ele>35.0</ele><time>2026-04-18T13:07:30.985Z</time></trkpt><trkpt lat="43.328725333333324" lon="10.663155500000002"><ele>35.0</ele><time>2026-04-18T13:07:31.951Z</time></trkpt><trkpt lat="43.32880566666666" lon="10.663008166666668"><ele>35.0</ele><time>2026-04-18T13:07:32.958Z</time></trkpt><trkpt lat="43.32889766666667" lon="10.662873500000002"><ele>35.0</ele><time>2026-04-18T13:07:33.954Z</time></trkpt><trkpt lat="43.328998666666664" lon="10.662751666666667"><ele>35.0</ele><time>2026-04-18T13:07:34.979Z</time></trkpt><trkpt lat="43.32911033333333" lon="10.662640999999999"><ele>35.0</ele><time>2026-04-18T13:07:35.945Z</time></trkpt><trkpt lat="43.32923000000001" lon="10.662539666666666"><ele>35.0</ele><time>2026-04-18T13:07:36.947Z</time></trkpt><trkpt lat="43.32935633333334" lon="10.662451666666668"><ele>35.0</ele><time>2026-04-18T13:07:37.948Z</time></trkpt><trkpt lat="43.329487" lon="10.662376833333335"><ele>35.0</ele><time>2026-04-18T13:07:38.971Z</time></trkpt><trkpt lat="43.3296205" lon="10.662310833333335"><ele>35.0</ele><time>2026-04-18T13:07:40.074Z</time></trkpt><trkpt lat="43.32975616666666" lon="10.662247333333333"><ele>35.0</ele><time>2026-04-18T13:07:40.949Z</time></trkpt><trkpt lat="43.329824666666674" lon="10.662216"><ele>36.0</ele><time>2026-04-18T13:07:42.054Z</time></trkpt><trkpt lat="43.33003283333334" lon="10.6621185"><ele>37.0</ele><time>2026-04-18T13:07:42.958Z</time></trkpt><trkpt lat="43.330177166666665" lon="10.662051"><ele>38.0</ele><time>2026-04-18T13:07:43.978Z</time></trkpt><trkpt lat="43.33032666666666" lon="10.661978333333332"><ele>37.33333333333333</ele><time>2026-04-18T13:07:44.949Z</time></trkpt><trkpt lat="43.330482166666656" lon="10.661902333333334"><ele>36.666666666666664</ele><time>2026-04-18T13:07:46.03Z</time></trkpt><trkpt lat="43.33056083333332" lon="10.661861500000002"><ele>36.0</ele><time>2026-04-18T13:07:46.963Z</time></trkpt><trkpt lat="43.33079433333334" lon="10.661722166666667"><ele>37.333333333333336</ele><time>2026-04-18T13:07:47.965Z</time></trkpt><trkpt lat="43.33094616666667" lon="10.661615666666668"><ele>38.66666666666667</ele><time>2026-04-18T13:07:48.963Z</time></trkpt><trkpt lat="43.33109433333334" lon="10.661499333333332"><ele>40.0</ele><time>2026-04-18T13:07:49.952Z</time></trkpt><trkpt lat="43.331238" lon="10.661374833333333"><ele>40.0</ele><time>2026-04-18T13:07:50.973Z</time></trkpt><trkpt lat="43.33130849999999" lon="10.661312000000002"><ele>40.0</ele><time>2026-04-18T13:07:51.978Z</time></trkpt><trkpt lat="43.331447499999996" lon="10.661185666666665"><ele>40.0</ele><time>2026-04-18T13:07:52.948Z</time></trkpt><trkpt lat="43.33158166666667" lon="10.661056333333333"><ele>40.0</ele><time>2026-04-18T13:07:53.954Z</time></trkpt><trkpt lat="43.331709" lon="10.660921499999999"><ele>38.66666666666667</ele><time>2026-04-18T13:07:54.952Z</time></trkpt><trkpt lat="43.331829666666664" lon="10.660781"><ele>37.333333333333336</ele><time>2026-04-18T13:07:55.957Z</time></trkpt><trkpt lat="43.331999333333336" lon="10.660563666666668"><ele>36.0</ele><time>2026-04-18T13:07:56.991Z</time></trkpt><trkpt lat="43.33210616666667" lon="10.660417166666667"><ele>36.75</ele><time>2026-04-18T13:07:57.945Z</time></trkpt><trkpt lat="43.3322075" lon="10.660266833333333"><ele>37.5</ele><time>2026-04-18T13:07:58.949Z</time></trkpt><trkpt lat="43.332305166666664" lon="10.6601125"><ele>38.25</ele><time>2026-04-18T13:07:59.962Z</time></trkpt><trkpt lat="43.33240116666666" lon="10.659953499999999"><ele>39.0</ele><time>2026-04-18T13:08:00.966Z</time></trkpt><trkpt lat="43.332496000000006" lon="10.659789833333331"><ele>39.0</ele><time>2026-04-18T13:08:01.954Z</time></trkpt><trkpt lat="43.332590166666655" lon="10.659623166666664"><ele>39.0</ele><time>2026-04-18T13:08:02.942Z</time></trkpt><trkpt lat="43.332682999999996" lon="10.659454999999998"><ele>39.0</ele><time>2026-04-18T13:08:03.967Z</time></trkpt><trkpt lat="43.33277516666667" lon="10.659287666666668"><ele>37.666666666666664</ele><time>2026-04-18T13:08:04.97Z</time></trkpt><trkpt lat="43.33286483333333" lon="10.659120499999998"><ele>36.33333333333333</ele><time>2026-04-18T13:08:05.951Z</time></trkpt><trkpt lat="43.332954666666666" lon="10.658952833333334"><ele>35.0</ele><time>2026-04-18T13:08:06.947Z</time></trkpt><trkpt lat="43.333047500000006" lon="10.658782166666667"><ele>34.0</ele><time>2026-04-18T13:08:07.954Z</time></trkpt><trkpt lat="43.33314333333333" lon="10.658608166666665"><ele>33.0</ele><time>2026-04-18T13:08:08.975Z</time></trkpt><trkpt lat="43.33324233333333" lon="10.65843"><ele>32.0</ele><time>2026-04-18T13:08:09.952Z</time></trkpt><trkpt lat="43.3333435" lon="10.658245166666667"><ele>32.0</ele><time>2026-04-18T13:08:10.947Z</time></trkpt><trkpt lat="43.33344716666667" lon="10.658054499999999"><ele>32.0</ele><time>2026-04-18T13:08:11.958Z</time></trkpt><trkpt lat="43.33355233333333" lon="10.657861500000001"><ele>32.0</ele><time>2026-04-18T13:08:12.979Z</time></trkpt><trkpt lat="43.33365816666666" lon="10.657668666666666"><ele>32.0</ele><time>2026-04-18T13:08:13.99Z</time></trkpt><trkpt lat="43.3337635" lon="10.657478166666666"><ele>32.0</ele><time>2026-04-18T13:08:14.947Z</time></trkpt><trkpt lat="43.33381633333333" lon="10.65738383333333"><ele>32.0</ele><time>2026-04-18T13:08:15.956Z</time></trkpt><trkpt lat="43.3339735" lon="10.657101166666667"><ele>32.33333333333333</ele><time>2026-04-18T13:08:16.951Z</time></trkpt><trkpt lat="43.3340775" lon="10.656912499999999"><ele>32.666666666666664</ele><time>2026-04-18T13:08:17.958Z</time></trkpt><trkpt lat="43.334181333333326" lon="10.656722833333333"><ele>33.0</ele><time>2026-04-18T13:08:19Z</time></trkpt><trkpt lat="43.33428533333334" lon="10.656532833333332"><ele>33.0</ele><time>2026-04-18T13:08:19.953Z</time></trkpt><trkpt lat="43.334389333333334" lon="10.656341833333334"><ele>33.0</ele><time>2026-04-18T13:08:21.374Z</time></trkpt><trkpt lat="43.334546333333336" lon="10.656053333333334"><ele>33.0</ele><time>2026-04-18T13:08:22.958Z</time></trkpt><trkpt lat="43.334651666666666" lon="10.655859833333333"><ele>33.0</ele><time>2026-04-18T13:08:23.952Z</time></trkpt><trkpt lat="43.33475866666666" lon="10.655661833333333"><ele>33.0</ele><time>2026-04-18T13:08:24.947Z</time></trkpt><trkpt lat="43.33487" lon="10.655456166666667"><ele>33.0</ele><time>2026-04-18T13:08:25.948Z</time></trkpt><trkpt lat="43.33504316666667" lon="10.655137666666667"><ele>33.0</ele><time>2026-04-18T13:08:26.946Z</time></trkpt><trkpt lat="43.3351585" lon="10.654926"><ele>33.0</ele><time>2026-04-18T13:08:27.947Z</time></trkpt><trkpt lat="43.33521533333332" lon="10.654821499999999"><ele>33.0</ele><time>2026-04-18T13:08:28.948Z</time></trkpt><trkpt lat="43.33532766666668" lon="10.654615999999999"><ele>32.0</ele><time>2026-04-18T13:08:29.95Z</time></trkpt><trkpt lat="43.33543783333333" lon="10.654415833333333"><ele>31.0</ele><time>2026-04-18T13:08:30.944Z</time></trkpt><trkpt lat="43.33559733333333" lon="10.654133000000002"><ele>30.0</ele><time>2026-04-18T13:08:31.961Z</time></trkpt><trkpt lat="43.33569783333334" lon="10.653959000000002"><ele>30.75</ele><time>2026-04-18T13:08:32.954Z</time></trkpt><trkpt lat="43.33579200000001" lon="10.653798333333334"><ele>31.5</ele><time>2026-04-18T13:08:33.963Z</time></trkpt><trkpt lat="43.33587983333334" lon="10.653651833333333"><ele>32.25</ele><time>2026-04-18T13:08:34.948Z</time></trkpt><trkpt lat="43.33596250000001" lon="10.653515999999998"><ele>33.0</ele><time>2026-04-18T13:08:35.956Z</time></trkpt><trkpt lat="43.33604050000001" lon="10.653390000000002"><ele>33.0</ele><time>2026-04-18T13:08:36.949Z</time></trkpt><trkpt lat="43.33611283333333" lon="10.653276333333334"><ele>33.0</ele><time>2026-04-18T13:08:37.955Z</time></trkpt><trkpt lat="43.33618" lon="10.653176000000002"><ele>33.0</ele><time>2026-04-18T13:08:38.968Z</time></trkpt><trkpt lat="43.33624333333334" lon="10.653096333333334"><ele>33.0</ele><time>2026-04-18T13:08:39.958Z</time></trkpt><trkpt lat="43.336305666666675" lon="10.65304283333333"><ele>33.0</ele><time>2026-04-18T13:08:40.955Z</time></trkpt><trkpt lat="43.33637050000001" lon="10.653012833333333"><ele>33.0</ele><time>2026-04-18T13:08:41.951Z</time></trkpt><trkpt lat="43.33646666666667" lon="10.652985666666666"><ele>33.0</ele><time>2026-04-18T13:08:43.945Z</time></trkpt><trkpt lat="43.336529" lon="10.652948333333331"><ele>33.0</ele><time>2026-04-18T13:08:44.964Z</time></trkpt><trkpt lat="43.336579666666665" lon="10.6528835"><ele>33.0</ele><time>2026-04-18T13:08:45.947Z</time></trkpt><trkpt lat="43.33661183333333" lon="10.652797166666668"><ele>33.0</ele><time>2026-04-18T13:08:46.97Z</time></trkpt><trkpt lat="43.336626833333334" lon="10.652696166666665"><ele>33.0</ele><time>2026-04-18T13:08:47.974Z</time></trkpt><trkpt lat="43.3366405" lon="10.652585500000002"><ele>33.0</ele><time>2026-04-18T13:08:48.961Z</time></trkpt><trkpt lat="43.33666833333333" lon="10.652470999999998"><ele>33.0</ele><time>2026-04-18T13:08:49.954Z</time></trkpt><trkpt lat="43.336716166666676" lon="10.652359666666667"><ele>33.0</ele><time>2026-04-18T13:08:50.951Z</time></trkpt><trkpt lat="43.336783" lon="10.652254666666666"><ele>33.0</ele><time>2026-04-18T13:08:51.987Z</time></trkpt><trkpt lat="43.33685816666666" lon="10.6521475"><ele>33.0</ele><time>2026-04-18T13:08:53.104Z</time></trkpt><trkpt lat="43.33693516666667" lon="10.652031166666667"><ele>33.0</ele><time>2026-04-18T13:08:53.952Z</time></trkpt><trkpt lat="43.337017" lon="10.651907833333333"><ele>32.75</ele><time>2026-04-18T13:08:54.958Z</time></trkpt><trkpt lat="43.33710483333333" lon="10.651777333333333"><ele>32.5</ele><time>2026-04-18T13:08:55.979Z</time></trkpt><trkpt lat="43.33719783333332" lon="10.651639666666666"><ele>32.25</ele><time>2026-04-18T13:08:56.944Z</time></trkpt><trkpt lat="43.337295833333336" lon="10.651494666666666"><ele>32.0</ele><time>2026-04-18T13:08:57.955Z</time></trkpt><trkpt lat="43.33739816666667" lon="10.651345166666665"><ele>32.0</ele><time>2026-04-18T13:08:58.951Z</time></trkpt><trkpt lat="43.33750366666666" lon="10.651194166666668"><ele>32.0</ele><time>2026-04-18T13:08:59.966Z</time></trkpt><trkpt lat="43.337611" lon="10.651040499999999"><ele>32.0</ele><time>2026-04-18T13:09:00.943Z</time></trkpt><trkpt lat="43.337719500000006" lon="10.650883333333335"><ele>31.666666666666664</ele><time>2026-04-18T13:09:02.119Z</time></trkpt><trkpt lat="43.3378295" lon="10.650722666666665"><ele>31.333333333333336</ele><time>2026-04-18T13:09:02.945Z</time></trkpt><trkpt lat="43.33794066666666" lon="10.650558333333334"><ele>31.0</ele><time>2026-04-18T13:09:03.962Z</time></trkpt><trkpt lat="43.33805233333332" lon="10.650389833333334"><ele>31.333333333333336</ele><time>2026-04-18T13:09:04.97Z</time></trkpt><trkpt lat="43.33816266666666" lon="10.650214833333333"><ele>31.666666666666664</ele><time>2026-04-18T13:09:05.946Z</time></trkpt><trkpt lat="43.33826900000001" lon="10.650031"><ele>32.0</ele><time>2026-04-18T13:09:06.965Z</time></trkpt><trkpt lat="43.33837100000001" lon="10.649840500000002"><ele>32.0</ele><time>2026-04-18T13:09:07.949Z</time></trkpt><trkpt lat="43.33846783333333" lon="10.649643666666668"><ele>32.0</ele><time>2026-04-18T13:09:08.979Z</time></trkpt><trkpt lat="43.33855966666666" lon="10.649441666666666"><ele>32.0</ele><time>2026-04-18T13:09:09.95Z</time></trkpt><trkpt lat="43.33864566666666" lon="10.649234666666667"><ele>32.0</ele><time>2026-04-18T13:09:10.947Z</time></trkpt><trkpt lat="43.338724" lon="10.649021000000001"><ele>32.0</ele><time>2026-04-18T13:09:11.95Z</time></trkpt><trkpt lat="43.33879783333333" lon="10.648803500000001"><ele>32.0</ele><time>2026-04-18T13:09:12.97Z</time></trkpt><trkpt lat="43.33886783333334" lon="10.648582166666666"><ele>32.0</ele><time>2026-04-18T13:09:13.947Z</time></trkpt><trkpt lat="43.338935166666666" lon="10.648358166666666"><ele>32.0</ele><time>2026-04-18T13:09:14.97Z</time></trkpt><trkpt lat="43.338998499999995" lon="10.648130333333333"><ele>32.0</ele><time>2026-04-18T13:09:15.947Z</time></trkpt><trkpt lat="43.33905766666666" lon="10.647900333333334"><ele>32.0</ele><time>2026-04-18T13:09:16.941Z</time></trkpt><trkpt lat="43.33911499999999" lon="10.6476705"><ele>32.0</ele><time>2026-04-18T13:09:17.987Z</time></trkpt><trkpt lat="43.339171500000006" lon="10.647444166666666"><ele>32.0</ele><time>2026-04-18T13:09:19.019Z</time></trkpt><trkpt lat="43.33925133333334" lon="10.647107000000002"><ele>32.0</ele><time>2026-04-18T13:09:19.957Z</time></trkpt><trkpt lat="43.339277333333335" lon="10.646994833333334"><ele>32.0</ele><time>2026-04-18T13:09:20.966Z</time></trkpt><trkpt lat="43.33932916666666" lon="10.646774666666667"><ele>32.0</ele><time>2026-04-18T13:09:21.958Z</time></trkpt><trkpt lat="43.33938033333334" lon="10.646560499999998"><ele>32.0</ele><time>2026-04-18T13:09:22.955Z</time></trkpt><trkpt lat="43.33943116666666" lon="10.646349"><ele>32.0</ele><time>2026-04-18T13:09:23.955Z</time></trkpt><trkpt lat="43.33948116666667" lon="10.646138666666666"><ele>32.0</ele><time>2026-04-18T13:09:24.955Z</time></trkpt><trkpt lat="43.339529999999996" lon="10.645929833333334"><ele>32.0</ele><time>2026-04-18T13:09:25.956Z</time></trkpt><trkpt lat="43.33962499999999" lon="10.645526666666669"><ele>31.75</ele><time>2026-04-18T13:09:27.959Z</time></trkpt><trkpt lat="43.339671" lon="10.645332166666668"><ele>31.5</ele><time>2026-04-18T13:09:28.948Z</time></trkpt><trkpt lat="43.33971583333334" lon="10.645144333333333"><ele>31.25</ele><time>2026-04-18T13:09:29.981Z</time></trkpt><trkpt lat="43.339760999999996" lon="10.644965166666667"><ele>31.0</ele><time>2026-04-18T13:09:30.949Z</time></trkpt><trkpt lat="43.33980366666666" lon="10.644798166666666"><ele>31.0</ele><time>2026-04-18T13:09:31.946Z</time></trkpt><trkpt lat="43.33984" lon="10.644661000000001"><ele>31.0</ele><time>2026-04-18T13:09:32.95Z</time></trkpt><trkpt lat="43.33986733333333" lon="10.644558666666667"><ele>31.0</ele><time>2026-04-18T13:09:33.958Z</time></trkpt><trkpt lat="43.33990416666668" lon="10.644424666666666"><ele>31.0</ele><time>2026-04-18T13:09:36.01Z</time></trkpt><trkpt lat="43.3399535" lon="10.6443175"><ele>31.0</ele><time>2026-04-18T13:09:37.955Z</time></trkpt><trkpt lat="43.340042499999996" lon="10.644278999999997"><ele>31.000000000000004</ele><time>2026-04-18T13:09:39.954Z</time></trkpt><trkpt lat="43.340103" lon="10.644318666666667"><ele>31.0</ele><time>2026-04-18T13:09:40.951Z</time></trkpt><trkpt lat="43.340140000000005" lon="10.644396333333335"><ele>31.0</ele><time>2026-04-18T13:09:42.954Z</time></trkpt><trkpt lat="43.34012484259267" lon="10.644501576170288"><ele>31.0</ele><time>2026-04-18T13:09:43.947Z</time></trkpt><trkpt lat="43.34014129031411" lon="10.644638921254918"><ele>31.000000000000004</ele><time>2026-04-18T13:09:45.951Z</time></trkpt><trkpt lat="43.34015585212971" lon="10.644760518299055"><ele>31.0</ele><time>2026-04-18T13:09:47.947Z</time></trkpt><trkpt lat="43.340167104000194" lon="10.644854475591073"><ele>31.0</ele><time>2026-04-18T13:09:50.958Z</time></trkpt><trkpt lat="43.34027566666667" lon="10.644823333333333"><ele>31.0</ele><time>2026-04-18T13:10:06.956Z</time></trkpt><trkpt lat="43.34036099682249" lon="10.644865745086292"><ele>31.0</ele><time>2026-04-18T13:10:10.951Z</time></trkpt><trkpt lat="43.340425162886106" lon="10.64491020185128"><ele>31.0</ele><time>2026-04-18T13:10:12.979Z</time></trkpt><trkpt lat="43.34050822714229" lon="10.644974424219866"><ele>31.0</ele><time>2026-04-18T13:10:14.955Z</time></trkpt><trkpt lat="43.3406258631112" lon="10.64507995481136"><ele>31.333333333333336</ele><time>2026-04-18T13:10:16.979Z</time></trkpt><trkpt lat="43.340681321537" lon="10.645129708461322"><ele>31.666666666666668</ele><time>2026-04-18T13:10:17.986Z</time></trkpt><trkpt lat="43.34074505009857" lon="10.645186881547977"><ele>32.0</ele><time>2026-04-18T13:10:18.954Z</time></trkpt><trkpt lat="43.340814815611026" lon="10.645250980110212"><ele>32.333333333333336</ele><time>2026-04-18T13:10:19.96Z</time></trkpt><trkpt lat="43.34088701649402" lon="10.645321711630718"><ele>32.666666666666664</ele><time>2026-04-18T13:10:20.974Z</time></trkpt><trkpt lat="43.34096160120603" lon="10.645395937942453"><ele>33.0</ele><time>2026-04-18T13:10:21.964Z</time></trkpt><trkpt lat="43.34103832782745" lon="10.645471501718276"><ele>33.0</ele><time>2026-04-18T13:10:22.954Z</time></trkpt><trkpt lat="43.34111712223819" lon="10.645545918689626"><ele>33.0</ele><time>2026-04-18T13:10:23.947Z</time></trkpt><trkpt lat="43.34119794861656" lon="10.645621949874755"><ele>33.0</ele><time>2026-04-18T13:10:24.964Z</time></trkpt><trkpt lat="43.341281517895474" lon="10.645700669269344"><ele>33.0</ele><time>2026-04-18T13:10:25.967Z</time></trkpt><trkpt lat="43.341367488503074" lon="10.64578712674699"><ele>33.0</ele><time>2026-04-18T13:10:26.96Z</time></trkpt><trkpt lat="43.34145496103464" lon="10.64587670371695"><ele>32.75</ele><time>2026-04-18T13:10:27.959Z</time></trkpt><trkpt lat="43.34154118734685" lon="10.645965072726847"><ele>32.5</ele><time>2026-04-18T13:10:28.959Z</time></trkpt><trkpt lat="43.34166927457989" lon="10.64608909074569"><ele>32.25</ele><time>2026-04-18T13:10:30.946Z</time></trkpt><trkpt lat="43.34175607273442" lon="10.64617005744924"><ele>32.0</ele><time>2026-04-18T13:10:31.946Z</time></trkpt><trkpt lat="43.341848535651415" lon="10.64624423228206"><ele>32.0</ele><time>2026-04-18T13:10:32.958Z</time></trkpt><trkpt lat="43.341945386121765" lon="10.646307575545949"><ele>32.0</ele><time>2026-04-18T13:10:33.98Z</time></trkpt><trkpt lat="43.342052096749654" lon="10.646362389966658"><ele>32.0</ele><time>2026-04-18T13:10:34.964Z</time></trkpt><trkpt lat="43.34216592186591" lon="10.646409105247157"><ele>32.0</ele><time>2026-04-18T13:10:35.96Z</time></trkpt><trkpt lat="43.34234843439238" lon="10.646473167041288"><ele>33.0</ele><time>2026-04-18T13:10:36.957Z</time></trkpt><trkpt lat="43.34247180891651" lon="10.646513313642888"><ele>34.0</ele><time>2026-04-18T13:10:37.959Z</time></trkpt><trkpt lat="43.34259484218051" lon="10.646557559556637"><ele>35.0</ele><time>2026-04-18T13:10:38.97Z</time></trkpt><trkpt lat="43.34271963032096" lon="10.646604268625627"><ele>36.0</ele><time>2026-04-18T13:10:39.95Z</time></trkpt><trkpt lat="43.3428475" lon="10.646632333333331"><ele>36.0</ele><time>2026-04-18T13:10:40.952Z</time></trkpt><trkpt lat="43.342970333333334" lon="10.64667466666667"><ele>36.0</ele><time>2026-04-18T13:10:41.948Z</time></trkpt><trkpt lat="43.3430935" lon="10.646697333333334"><ele>36.0</ele><time>2026-04-18T13:10:42.995Z</time></trkpt><trkpt lat="43.34321783333333" lon="10.64669866666667"><ele>36.0</ele><time>2026-04-18T13:10:44Z</time></trkpt><trkpt lat="43.343342166666666" lon="10.646699499999999"><ele>37.0</ele><time>2026-04-18T13:10:45.005Z</time></trkpt><trkpt lat="43.34359416666666" lon="10.646706333333334"><ele>38.0</ele><time>2026-04-18T13:10:46.971Z</time></trkpt><trkpt lat="43.34372199999999" lon="10.646715666666667"><ele>39.0</ele><time>2026-04-18T13:10:47.959Z</time></trkpt><trkpt lat="43.34385133333333" lon="10.646734833333335"><ele>39.0</ele><time>2026-04-18T13:10:48.955Z</time></trkpt><trkpt lat="43.343985" lon="10.646768666666667"><ele>39.0</ele><time>2026-04-18T13:10:49.947Z</time></trkpt><trkpt lat="43.34405400000001" lon="10.646789333333333"><ele>39.0</ele><time>2026-04-18T13:10:50.981Z</time></trkpt><trkpt lat="43.344194833333326" lon="10.64682883333333"><ele>39.0</ele><time>2026-04-18T13:10:51.994Z</time></trkpt><trkpt lat="43.34440916666667" lon="10.646884499999999"><ele>39.0</ele><time>2026-04-18T13:10:52.96Z</time></trkpt><trkpt lat="43.344480999999995" lon="10.646903166666666"><ele>39.0</ele><time>2026-04-18T13:10:54.035Z</time></trkpt><trkpt lat="43.34469383333334" lon="10.646960833333331"><ele>39.0</ele><time>2026-04-18T13:10:54.959Z</time></trkpt><trkpt lat="43.34483283333334" lon="10.647002666666667"><ele>39.0</ele><time>2026-04-18T13:10:55.992Z</time></trkpt><trkpt lat="43.34490166666666" lon="10.647024666666667"><ele>39.0</ele><time>2026-04-18T13:10:56.956Z</time></trkpt><trkpt lat="43.34510616666667" lon="10.647097666666664"><ele>39.0</ele><time>2026-04-18T13:10:57.943Z</time></trkpt><trkpt lat="43.34523816666666" lon="10.647156500000001"><ele>39.0</ele><time>2026-04-18T13:10:58.955Z</time></trkpt><trkpt lat="43.345364999999994" lon="10.647211333333333"><ele>39.0</ele><time>2026-04-18T13:10:59.987Z</time></trkpt><trkpt lat="43.34548783333334" lon="10.647245666666667"><ele>39.0</ele><time>2026-04-18T13:11:00.963Z</time></trkpt><trkpt lat="43.34560849999999" lon="10.647275666666667"><ele>39.0</ele><time>2026-04-18T13:11:01.954Z</time></trkpt><trkpt lat="43.34573233333334" lon="10.647305666666666"><ele>39.0</ele><time>2026-04-18T13:11:02.964Z</time></trkpt><trkpt lat="43.345862999999994" lon="10.64734"><ele>39.75</ele><time>2026-04-18T13:11:03.963Z</time></trkpt><trkpt lat="43.34600316666666" lon="10.647370166666667"><ele>40.5</ele><time>2026-04-18T13:11:04.965Z</time></trkpt><trkpt lat="43.3461485" lon="10.647392666666669"><ele>41.25</ele><time>2026-04-18T13:11:05.948Z</time></trkpt><trkpt lat="43.34629266666667" lon="10.647428833333333"><ele>42.0</ele><time>2026-04-18T13:11:06.956Z</time></trkpt><trkpt lat="43.34643466666667" lon="10.647476500000002"><ele>42.0</ele><time>2026-04-18T13:11:07.973Z</time></trkpt><trkpt lat="43.34657333333333" lon="10.647537"><ele>42.0</ele><time>2026-04-18T13:11:08.996Z</time></trkpt><trkpt lat="43.34670544065771" lon="10.647622370365548"><ele>42.0</ele><time>2026-04-18T13:11:09.96Z</time></trkpt><trkpt lat="43.3468505" lon="10.647656500000002"><ele>42.0</ele><time>2026-04-18T13:11:10.963Z</time></trkpt><trkpt lat="43.34698555011247" lon="10.64773443034476"><ele>42.0</ele><time>2026-04-18T13:11:11.962Z</time></trkpt><trkpt lat="43.3471252805238" lon="10.647792318648715"><ele>42.0</ele><time>2026-04-18T13:11:12.955Z</time></trkpt><trkpt lat="43.34726655166073" lon="10.647850845243171"><ele>42.0</ele><time>2026-04-18T13:11:13.946Z</time></trkpt><trkpt lat="43.34741039045031" lon="10.647910577997523"><ele>42.0</ele><time>2026-04-18T13:11:14.956Z</time></trkpt><trkpt lat="43.347557951148985" lon="10.647972138166073"><ele>41.0</ele><time>2026-04-18T13:11:15.951Z</time></trkpt><trkpt lat="43.34771316666667" lon="10.648014833333331"><ele>40.0</ele><time>2026-04-18T13:11:16.971Z</time></trkpt><trkpt lat="43.34786366666667" lon="10.648080333333334"><ele>39.0</ele><time>2026-04-18T13:11:17.95Z</time></trkpt><trkpt lat="43.348007892751184" lon="10.648166375323472"><ele>39.333333333333336</ele><time>2026-04-18T13:11:18.945Z</time></trkpt><trkpt lat="43.34816166666666" lon="10.648208499999999"><ele>39.66666666666667</ele><time>2026-04-18T13:11:19.955Z</time></trkpt><trkpt lat="43.348236" lon="10.648240166666668"><ele>40.0</ele><time>2026-04-18T13:11:20.972Z</time></trkpt><trkpt lat="43.34845816666666" lon="10.648334666666665"><ele>40.0</ele><time>2026-04-18T13:11:21.955Z</time></trkpt><trkpt lat="43.34860533333333" lon="10.648397333333333"><ele>40.0</ele><time>2026-04-18T13:11:23.027Z</time></trkpt><trkpt lat="43.34867883333333" lon="10.648428500000001"><ele>40.0</ele><time>2026-04-18T13:11:23.948Z</time></trkpt><trkpt lat="43.34889583333334" lon="10.648518666666666"><ele>40.0</ele><time>2026-04-18T13:11:24.955Z</time></trkpt><trkpt lat="43.34903783333333" lon="10.648577333333334"><ele>40.0</ele><time>2026-04-18T13:11:25.944Z</time></trkpt><trkpt lat="43.34910783333333" lon="10.648606"><ele>40.0</ele><time>2026-04-18T13:11:26.955Z</time></trkpt><trkpt lat="43.34924433333334" lon="10.648662833333333"><ele>40.0</ele><time>2026-04-18T13:11:27.951Z</time></trkpt><trkpt lat="43.34937166666667" lon="10.6487165"><ele>40.0</ele><time>2026-04-18T13:11:28.959Z</time></trkpt><trkpt lat="43.34953744672795" lon="10.648816290793416"><ele>40.0</ele><time>2026-04-18T13:11:29.983Z</time></trkpt><trkpt lat="43.349642557526174" lon="10.648865401003725"><ele>40.0</ele><time>2026-04-18T13:11:30.968Z</time></trkpt><trkpt lat="43.34974471501545" lon="10.648914062615045"><ele>40.0</ele><time>2026-04-18T13:11:31.95Z</time></trkpt><trkpt lat="43.349851333333326" lon="10.648940999999997"><ele>40.8</ele><time>2026-04-18T13:11:33.045Z</time></trkpt><trkpt lat="43.34995050000001" lon="10.6489915"><ele>41.6</ele><time>2026-04-18T13:11:33.976Z</time></trkpt><trkpt lat="43.35004833333334" lon="10.649040999999999"><ele>42.400000000000006</ele><time>2026-04-18T13:11:34.96Z</time></trkpt><trkpt lat="43.350144" lon="10.649089"><ele>43.2</ele><time>2026-04-18T13:11:35.946Z</time></trkpt><trkpt lat="43.35023783333333" lon="10.649136166666665"><ele>44.0</ele><time>2026-04-18T13:11:36.953Z</time></trkpt><trkpt lat="43.35033033333334" lon="10.649183000000003"><ele>44.0</ele><time>2026-04-18T13:11:37.966Z</time></trkpt><trkpt lat="43.35042383333332" lon="10.6492295"><ele>44.0</ele><time>2026-04-18T13:11:38.955Z</time></trkpt><trkpt lat="43.350517999999994" lon="10.649277833333334"><ele>44.0</ele><time>2026-04-18T13:11:39.954Z</time></trkpt><trkpt lat="43.35061316666667" lon="10.649327833333333"><ele>44.0</ele><time>2026-04-18T13:11:40.951Z</time></trkpt><trkpt lat="43.35070883333333" lon="10.649378833333333"><ele>44.0</ele><time>2026-04-18T13:11:41.978Z</time></trkpt><trkpt lat="43.35080383333334" lon="10.649429333333336"><ele>43.400000000000006</ele><time>2026-04-18T13:11:42.944Z</time></trkpt><trkpt lat="43.35089750000001" lon="10.649479166666667"><ele>42.8</ele><time>2026-04-18T13:11:44.003Z</time></trkpt><trkpt lat="43.35098883333333" lon="10.6495275"><ele>42.2</ele><time>2026-04-18T13:11:44.951Z</time></trkpt><trkpt lat="43.3511215" lon="10.649592666666667"><ele>41.599999999999994</ele><time>2026-04-18T13:11:46.981Z</time></trkpt><trkpt lat="43.35120816666666" lon="10.649633666666666"><ele>41.0</ele><time>2026-04-18T13:11:47.955Z</time></trkpt><trkpt lat="43.351294" lon="10.649674833333332"><ele>42.0</ele><time>2026-04-18T13:11:48.961Z</time></trkpt><trkpt lat="43.35142716666666" lon="10.649741666666667"><ele>43.0</ele><time>2026-04-18T13:11:49.951Z</time></trkpt><trkpt lat="43.35156833333333" lon="10.649813833333333"><ele>44.0</ele><time>2026-04-18T13:11:51.956Z</time></trkpt><trkpt lat="43.35166616666667" lon="10.649863666666667"><ele>45.0</ele><time>2026-04-18T13:11:52.96Z</time></trkpt><trkpt lat="43.351767" lon="10.649914000000003"><ele>45.0</ele><time>2026-04-18T13:11:53.96Z</time></trkpt><trkpt lat="43.351872" lon="10.649966166666664"><ele>45.0</ele><time>2026-04-18T13:11:54.972Z</time></trkpt><trkpt lat="43.35198383333333" lon="10.6500215"><ele>45.0</ele><time>2026-04-18T13:11:55.955Z</time></trkpt><trkpt lat="43.352101833333336" lon="10.650079666666667"><ele>45.0</ele><time>2026-04-18T13:11:56.952Z</time></trkpt><trkpt lat="43.35221983333332" lon="10.650137333333332"><ele>45.333333333333336</ele><time>2026-04-18T13:11:57.948Z</time></trkpt><trkpt lat="43.352335333333336" lon="10.650194833333336"><ele>45.66666666666667</ele><time>2026-04-18T13:11:58.961Z</time></trkpt><trkpt lat="43.352505" lon="10.650279499999998"><ele>46.0</ele><time>2026-04-18T13:11:59.973Z</time></trkpt><trkpt lat="43.35267166666665" lon="10.650365500000001"><ele>46.0</ele><time>2026-04-18T13:12:01.951Z</time></trkpt><trkpt lat="43.35278216666667" lon="10.6504245"><ele>46.0</ele><time>2026-04-18T13:12:02.947Z</time></trkpt><trkpt lat="43.352890333333335" lon="10.650481500000001"><ele>46.0</ele><time>2026-04-18T13:12:03.984Z</time></trkpt><trkpt lat="43.35299583333333" lon="10.650535500000002"><ele>46.0</ele><time>2026-04-18T13:12:04.956Z</time></trkpt><trkpt lat="43.35309666666667" lon="10.650587333333332"><ele>46.4</ele><time>2026-04-18T13:12:05.952Z</time></trkpt><trkpt lat="43.35319200000001" lon="10.650635333333334"><ele>46.8</ele><time>2026-04-18T13:12:06.96Z</time></trkpt><trkpt lat="43.35328033333334" lon="10.650679833333335"><ele>47.199999999999996</ele><time>2026-04-18T13:12:07.977Z</time></trkpt><trkpt lat="43.35339766666666" lon="10.650738666666665"><ele>47.599999999999994</ele><time>2026-04-18T13:12:08.998Z</time></trkpt><trkpt lat="43.353489" lon="10.650784"><ele>48.0</ele><time>2026-04-18T13:12:10.955Z</time></trkpt><trkpt lat="43.353567000000005" lon="10.650821"><ele>48.0</ele><time>2026-04-18T13:12:12.948Z</time></trkpt><trkpt lat="43.353653833333325" lon="10.650862166666666"><ele>48.0</ele><time>2026-04-18T13:12:15.964Z</time></trkpt><trkpt lat="43.35372049999999" lon="10.650892666666667"><ele>48.0</ele><time>2026-04-18T13:12:17.96Z</time></trkpt><trkpt lat="43.35383616666666" lon="10.650942333333335"><ele>48.0</ele><time>2026-04-18T13:12:19.948Z</time></trkpt><trkpt lat="43.353945" lon="10.650983"><ele>48.0</ele><time>2026-04-18T13:12:21.96Z</time></trkpt><trkpt lat="43.35400766666667" lon="10.651004"><ele>48.25</ele><time>2026-04-18T13:12:22.944Z</time></trkpt><trkpt lat="43.35407883333334" lon="10.651027500000001"><ele>48.5</ele><time>2026-04-18T13:12:24.053Z</time></trkpt><trkpt lat="43.3542315" lon="10.651076166666666"><ele>48.75</ele><time>2026-04-18T13:12:25.952Z</time></trkpt><trkpt lat="43.35439283333333" lon="10.651125833333333"><ele>49.0</ele><time>2026-04-18T13:12:28.151Z</time></trkpt><trkpt lat="43.35456366666667" lon="10.651182166666668"><ele>49.0</ele><time>2026-04-18T13:12:29.98Z</time></trkpt><trkpt lat="43.35466116666666" lon="10.651212500000002"><ele>49.0</ele><time>2026-04-18T13:12:30.953Z</time></trkpt><trkpt lat="43.35481299999999" lon="10.651264833333334"><ele>49.0</ele><time>2026-04-18T13:12:32.966Z</time></trkpt><trkpt lat="43.35492216666666" lon="10.651302833333332"><ele>49.0</ele><time>2026-04-18T13:12:33.987Z</time></trkpt><trkpt lat="43.355037333333335" lon="10.651343"><ele>49.5</ele><time>2026-04-18T13:12:34.951Z</time></trkpt><trkpt lat="43.3551465" lon="10.65138166666667"><ele>50.0</ele><time>2026-04-18T13:12:35.948Z</time></trkpt><trkpt lat="43.35524833333334" lon="10.6514185"><ele>50.5</ele><time>2026-04-18T13:12:36.952Z</time></trkpt><trkpt lat="43.35538833333333" lon="10.651469500000001"><ele>51.0</ele><time>2026-04-18T13:12:37.98Z</time></trkpt><trkpt lat="43.355566333333336" lon="10.651532000000001"><ele>52.0</ele><time>2026-04-18T13:12:40.017Z</time></trkpt><trkpt lat="43.355656" lon="10.6515565"><ele>53.0</ele><time>2026-04-18T13:12:40.948Z</time></trkpt><trkpt lat="43.355748" lon="10.651580333333333"><ele>53.99999999999999</ele><time>2026-04-18T13:12:41.973Z</time></trkpt><trkpt lat="43.35584233333334" lon="10.651605833333335"><ele>55.0</ele><time>2026-04-18T13:12:42.972Z</time></trkpt><trkpt lat="43.355938833333326" lon="10.651635166666667"><ele>56.0</ele><time>2026-04-18T13:12:43.949Z</time></trkpt><trkpt lat="43.356038999999996" lon="10.651666"><ele>56.0</ele><time>2026-04-18T13:12:44.948Z</time></trkpt><trkpt lat="43.356239" lon="10.651756"><ele>56.0</ele><time>2026-04-18T13:12:46.952Z</time></trkpt><trkpt lat="43.35644083333334" lon="10.651886000000001"><ele>56.0</ele><time>2026-04-18T13:12:48.961Z</time></trkpt><trkpt lat="43.356542999999995" lon="10.651956333333333"><ele>55.75</ele><time>2026-04-18T13:12:49.965Z</time></trkpt><trkpt lat="43.356647499999994" lon="10.652024333333335"><ele>55.5</ele><time>2026-04-18T13:12:50.984Z</time></trkpt><trkpt lat="43.3567545" lon="10.652089"><ele>55.25</ele><time>2026-04-18T13:12:51.957Z</time></trkpt><trkpt lat="43.35686333333333" lon="10.652152166666667"><ele>55.0</ele><time>2026-04-18T13:12:52.944Z</time></trkpt><trkpt lat="43.35697149999999" lon="10.652220166666666"><ele>55.0</ele><time>2026-04-18T13:12:54.062Z</time></trkpt><trkpt lat="43.357081333333326" lon="10.652288500000001"><ele>55.0</ele><time>2026-04-18T13:12:54.976Z</time></trkpt><trkpt lat="43.35719183333334" lon="10.65236"><ele>55.0</ele><time>2026-04-18T13:12:55.956Z</time></trkpt><trkpt lat="43.35730133333333" lon="10.652434666666666"><ele>55.0</ele><time>2026-04-18T13:12:56.949Z</time></trkpt><trkpt lat="43.35740116941416" lon="10.652538054004543"><ele>56.25</ele><time>2026-04-18T13:12:57.96Z</time></trkpt><trkpt lat="43.3575180516944" lon="10.65260957900596"><ele>57.5</ele><time>2026-04-18T13:12:58.976Z</time></trkpt><trkpt lat="43.357633095090996" lon="10.652681325127359"><ele>58.75</ele><time>2026-04-18T13:12:59.96Z</time></trkpt><trkpt lat="43.357758166666656" lon="10.652722000000002"><ele>60.0</ele><time>2026-04-18T13:13:00.959Z</time></trkpt><trkpt lat="43.357874499999994" lon="10.652775333333333"><ele>59.0</ele><time>2026-04-18T13:13:01.962Z</time></trkpt><trkpt lat="43.35799416666667" lon="10.652821166666667"><ele>58.0</ele><time>2026-04-18T13:13:02.944Z</time></trkpt><trkpt lat="43.35811916666666" lon="10.652858666666669"><ele>57.0</ele><time>2026-04-18T13:13:03.953Z</time></trkpt><trkpt lat="43.358183999999994" lon="10.652874666666667"><ele>56.0</ele><time>2026-04-18T13:13:04.958Z</time></trkpt><trkpt lat="43.35831483333333" lon="10.652898999999998"><ele>56.0</ele><time>2026-04-18T13:13:05.948Z</time></trkpt><trkpt lat="43.358445" lon="10.652915499999999"><ele>56.0</ele><time>2026-04-18T13:13:06.958Z</time></trkpt><trkpt lat="43.35863466543327" lon="10.652964631335003"><ele>56.0</ele><time>2026-04-18T13:13:07.992Z</time></trkpt><trkpt lat="43.35876032398595" lon="10.652980394293293"><ele>57.25</ele><time>2026-04-18T13:13:08.957Z</time></trkpt><trkpt lat="43.3588865" lon="10.652983166666669"><ele>58.5</ele><time>2026-04-18T13:13:09.958Z</time></trkpt><trkpt lat="43.359010000000005" lon="10.653024"><ele>59.75</ele><time>2026-04-18T13:13:10.961Z</time></trkpt><trkpt lat="43.35912683333333" lon="10.653087000000001"><ele>61.0</ele><time>2026-04-18T13:13:11.977Z</time></trkpt><trkpt lat="43.35924083333333" lon="10.653152"><ele>61.0</ele><time>2026-04-18T13:13:12.961Z</time></trkpt><trkpt lat="43.35935566666667" lon="10.653207000000002"><ele>61.0</ele><time>2026-04-18T13:13:13.957Z</time></trkpt><trkpt lat="43.359529333333334" lon="10.653268166666665"><ele>61.0</ele><time>2026-04-18T13:13:15.972Z</time></trkpt><trkpt lat="43.35970633333333" lon="10.653305"><ele>61.5</ele><time>2026-04-18T13:13:16.987Z</time></trkpt><trkpt lat="43.359826000000005" lon="10.653321166666666"><ele>62.0</ele><time>2026-04-18T13:13:17.957Z</time></trkpt><trkpt lat="43.35993975417627" lon="10.653363587100946"><ele>62.5</ele><time>2026-04-18T13:13:18.951Z</time></trkpt><trkpt lat="43.360104" lon="10.653373166666665"><ele>63.0</ele><time>2026-04-18T13:13:20.988Z</time></trkpt><trkpt lat="43.36025166666666" lon="10.653432000000002"><ele>63.0</ele><time>2026-04-18T13:13:21.948Z</time></trkpt><trkpt lat="43.360346" lon="10.653486500000001"><ele>63.0</ele><time>2026-04-18T13:13:22.957Z</time></trkpt><trkpt lat="43.36049549999999" lon="10.653563"><ele>63.0</ele><time>2026-04-18T13:13:24.985Z</time></trkpt><trkpt lat="43.36059683333333" lon="10.653609166666667"><ele>63.0</ele><time>2026-04-18T13:13:25.956Z</time></trkpt><trkpt lat="43.360745567425994" lon="10.6537071618507"><ele>63.2</ele><time>2026-04-18T13:13:26.962Z</time></trkpt><trkpt lat="43.360857833333334" lon="10.653725333333334"><ele>63.4</ele><time>2026-04-18T13:13:27.961Z</time></trkpt><trkpt lat="43.36096183333334" lon="10.653769833333335"><ele>63.60000000000001</ele><time>2026-04-18T13:13:28.976Z</time></trkpt><trkpt lat="43.36106083333334" lon="10.653833999999998"><ele>63.800000000000004</ele><time>2026-04-18T13:13:29.946Z</time></trkpt><trkpt lat="43.36115233333334" lon="10.653918833333332"><ele>64.0</ele><time>2026-04-18T13:13:30.952Z</time></trkpt><trkpt lat="43.36124333333334" lon="10.654"><ele>64.0</ele><time>2026-04-18T13:13:31.952Z</time></trkpt><trkpt lat="43.36133233333333" lon="10.654077833333334"><ele>64.0</ele><time>2026-04-18T13:13:32.96Z</time></trkpt><trkpt lat="43.36141316666667" lon="10.654164333333332"><ele>64.0</ele><time>2026-04-18T13:13:33.997Z</time></trkpt><trkpt lat="43.361520333333324" lon="10.654312666666664"><ele>64.0</ele><time>2026-04-18T13:13:35.958Z</time></trkpt><trkpt lat="43.36158650000001" lon="10.654418333333334"><ele>64.8</ele><time>2026-04-18T13:13:36.956Z</time></trkpt><trkpt lat="43.36168766666666" lon="10.654561166666667"><ele>65.60000000000001</ele><time>2026-04-18T13:13:37.977Z</time></trkpt><trkpt lat="43.361759666666664" lon="10.654638333333333"><ele>66.4</ele><time>2026-04-18T13:13:38.954Z</time></trkpt><trkpt lat="43.36183123063202" lon="10.654718645775894"><ele>67.2</ele><time>2026-04-18T13:13:39.945Z</time></trkpt><trkpt lat="43.36192433333334" lon="10.654729333333334"><ele>68.0</ele><time>2026-04-18T13:13:40.969Z</time></trkpt><trkpt lat="43.3620175" lon="10.654748166666666"><ele>68.0</ele><time>2026-04-18T13:13:41.98Z</time></trkpt><trkpt lat="43.36210866666667" lon="10.654780000000002"><ele>68.0</ele><time>2026-04-18T13:13:42.999Z</time></trkpt><trkpt lat="43.36219216666667" lon="10.654828833333331"><ele>68.0</ele><time>2026-04-18T13:13:43.949Z</time></trkpt><trkpt lat="43.36226616666666" lon="10.654881000000001"><ele>68.0</ele><time>2026-04-18T13:13:44.954Z</time></trkpt><trkpt lat="43.362413833333335" lon="10.6549455"><ele>68.0</ele><time>2026-04-18T13:13:46.948Z</time></trkpt><trkpt lat="43.36257916666667" lon="10.654909666666667"><ele>70.6</ele><time>2026-04-18T13:13:48.944Z</time></trkpt><trkpt lat="43.362667166666675" lon="10.654893166666668"><ele>73.19999999999999</ele><time>2026-04-18T13:13:49.977Z</time></trkpt><trkpt lat="43.362755666666665" lon="10.654886500000002"><ele>75.8</ele><time>2026-04-18T13:13:50.969Z</time></trkpt><trkpt lat="43.36292316666666" lon="10.6549265"><ele>78.39999999999999</ele><time>2026-04-18T13:13:52.954Z</time></trkpt><trkpt lat="43.36299399999999" lon="10.654983333333334"><ele>81.0</ele><time>2026-04-18T13:13:53.964Z</time></trkpt><trkpt lat="43.36305083333333" lon="10.655057"><ele>82.6</ele><time>2026-04-18T13:13:54.977Z</time></trkpt><trkpt lat="43.36309983333334" lon="10.655128666666666"><ele>84.19999999999999</ele><time>2026-04-18T13:13:55.951Z</time></trkpt><trkpt lat="43.36320550000001" lon="10.655210333333331"><ele>85.80000000000001</ele><time>2026-04-18T13:13:57.965Z</time></trkpt><trkpt lat="43.363298333333326" lon="10.655199000000001"><ele>87.4</ele><time>2026-04-18T13:13:59.965Z</time></trkpt><trkpt lat="43.363365333333334" lon="10.655189833333333"><ele>89.0</ele><time>2026-04-18T13:14:00.949Z</time></trkpt><trkpt lat="43.36347049999999" lon="10.655209833333334"><ele>89.0</ele><time>2026-04-18T13:14:01.95Z</time></trkpt><trkpt lat="43.36355933333332" lon="10.655251333333334"><ele>89.0</ele><time>2026-04-18T13:14:03.977Z</time></trkpt><trkpt lat="43.36363766666667" lon="10.6552935"><ele>89.0</ele><time>2026-04-18T13:14:04.96Z</time></trkpt><trkpt lat="43.3637465" lon="10.655247333333335"><ele>89.0</ele><time>2026-04-18T13:14:06.965Z</time></trkpt><trkpt lat="43.36378723587854" lon="10.655079009647826"><ele>89.0</ele><time>2026-04-18T13:14:08.946Z</time></trkpt><trkpt lat="43.363760589473735" lon="10.65497361605359"><ele>89.0</ele><time>2026-04-18T13:14:09.954Z</time></trkpt><trkpt lat="43.3637098623762" lon="10.654902191438337"><ele>89.0</ele><time>2026-04-18T13:14:10.964Z</time></trkpt><trkpt lat="43.36366076076398" lon="10.654826976434991"><ele>89.0</ele><time>2026-04-18T13:14:11.981Z</time></trkpt><trkpt lat="43.36361857696332" lon="10.654751209850748"><ele>89.0</ele><time>2026-04-18T13:14:13.007Z</time></trkpt><trkpt lat="43.36358200114426" lon="10.65466439340099"><ele>89.0</ele><time>2026-04-18T13:14:13.949Z</time></trkpt><trkpt lat="43.36353783333334" lon="10.654593333333331"><ele>89.0</ele><time>2026-04-18T13:14:14.954Z</time></trkpt><trkpt lat="43.36348783333333" lon="10.654483166666667"><ele>90.66666666666667</ele><time>2026-04-18T13:14:16.96Z</time></trkpt><trkpt lat="43.36342033333334" lon="10.6543995"><ele>92.33333333333334</ele><time>2026-04-18T13:14:17.957Z</time></trkpt><trkpt lat="43.363322000000004" lon="10.654341333333331"><ele>94.0</ele><time>2026-04-18T13:14:19.981Z</time></trkpt><trkpt lat="43.36328155224884" lon="10.654269308600924"><ele>95.66666666666667</ele><time>2026-04-18T13:14:22.117Z</time></trkpt><trkpt lat="43.3632765" lon="10.654159333333332"><ele>97.33333333333333</ele><time>2026-04-18T13:14:24.999Z</time></trkpt><trkpt lat="43.36335049999999" lon="10.654171666666665"><ele>99.0</ele><time>2026-04-18T13:14:26.958Z</time></trkpt><trkpt lat="43.363419666666665" lon="10.654219333333332"><ele>99.0</ele><time>2026-04-18T13:14:28.979Z</time></trkpt><trkpt lat="43.363510999999995" lon="10.654240166666668"><ele>99.0</ele><time>2026-04-18T13:14:30.945Z</time></trkpt><trkpt lat="43.36360716666667" lon="10.654269666666668"><ele>99.0</ele><time>2026-04-18T13:14:32.981Z</time></trkpt><trkpt lat="43.363722833333334" lon="10.654298333333333"><ele>99.0</ele><time>2026-04-18T13:14:34.961Z</time></trkpt><trkpt lat="43.36381433333332" lon="10.654328"><ele>99.0</ele><time>2026-04-18T13:14:36.967Z</time></trkpt><trkpt lat="43.36387566666667" lon="10.654357"><ele>99.5</ele><time>2026-04-18T13:14:37.978Z</time></trkpt><trkpt lat="43.36396800000001" lon="10.654420499999999"><ele>100.0</ele><time>2026-04-18T13:14:38.961Z</time></trkpt><trkpt lat="43.364032" lon="10.654480499999998"><ele>100.5</ele><time>2026-04-18T13:14:40.042Z</time></trkpt><trkpt lat="43.364093000000004" lon="10.654553166666668"><ele>101.0</ele><time>2026-04-18T13:14:40.957Z</time></trkpt><trkpt lat="43.3641495" lon="10.654632499999998"><ele>101.5</ele><time>2026-04-18T13:14:41.989Z</time></trkpt><trkpt lat="43.36420566666668" lon="10.654711833333334"><ele>102.0</ele><time>2026-04-18T13:14:42.955Z</time></trkpt><trkpt lat="43.364270166666664" lon="10.654777666666666"><ele>102.0</ele><time>2026-04-18T13:14:43.946Z</time></trkpt><trkpt lat="43.36434216666667" lon="10.654828499999999"><ele>102.0</ele><time>2026-04-18T13:14:44.966Z</time></trkpt><trkpt lat="43.36449433333334" lon="10.654903666666668"><ele>102.0</ele><time>2026-04-18T13:14:47.006Z</time></trkpt><trkpt lat="43.36457216666666" lon="10.654928"><ele>102.0</ele><time>2026-04-18T13:14:48.025Z</time></trkpt><trkpt lat="43.36465033333334" lon="10.654939333333333"><ele>102.0</ele><time>2026-04-18T13:14:48.961Z</time></trkpt><trkpt lat="43.3647255" lon="10.654951500000001"><ele>103.83333333333333</ele><time>2026-04-18T13:14:49.987Z</time></trkpt><trkpt lat="43.364798" lon="10.654971333333334"><ele>105.66666666666666</ele><time>2026-04-18T13:14:51.001Z</time></trkpt><trkpt lat="43.364865333333334" lon="10.655002500000002"><ele>107.5</ele><time>2026-04-18T13:14:51.948Z</time></trkpt><trkpt lat="43.364987500000005" lon="10.655069"><ele>109.33333333333333</ele><time>2026-04-18T13:14:53.966Z</time></trkpt><trkpt lat="43.3650705" lon="10.655074833333332"><ele>111.16666666666666</ele><time>2026-04-18T13:14:55.948Z</time></trkpt><trkpt lat="43.36515233333333" lon="10.655037666666665"><ele>113.0</ele><time>2026-04-18T13:14:56.949Z</time></trkpt><trkpt lat="43.365277166666665" lon="10.654981000000001"><ele>112.99999999999999</ele><time>2026-04-18T13:14:58.998Z</time></trkpt><trkpt lat="43.365347166666666" lon="10.6549455"><ele>113.0</ele><time>2026-04-18T13:14:59.958Z</time></trkpt><trkpt lat="43.365415500000005" lon="10.654911"><ele>113.0</ele><time>2026-04-18T13:15:00.965Z</time></trkpt><trkpt lat="43.36554883333333" lon="10.654856833333334"><ele>113.0</ele><time>2026-04-18T13:15:02.99Z</time></trkpt><trkpt lat="43.365614333333326" lon="10.654835666666667"><ele>112.99999999999999</ele><time>2026-04-18T13:15:03.965Z</time></trkpt><trkpt lat="43.365679833333324" lon="10.654814666666669"><ele>113.0</ele><time>2026-04-18T13:15:04.959Z</time></trkpt><trkpt lat="43.365746333333334" lon="10.654802166666665"><ele>113.0</ele><time>2026-04-18T13:15:05.954Z</time></trkpt><trkpt lat="43.36581316666667" lon="10.654798333333334"><ele>113.00000000000001</ele><time>2026-04-18T13:15:06.981Z</time></trkpt><trkpt lat="43.365907345115225" lon="10.654840808402774"><ele>113.00000000000001</ele><time>2026-04-18T13:15:08.953Z</time></trkpt><trkpt lat="43.36605816666667" lon="10.654841166666666"><ele>113.0</ele><time>2026-04-18T13:15:10.965Z</time></trkpt><trkpt lat="43.366147166666664" lon="10.654740833333337"><ele>113.0</ele><time>2026-04-18T13:15:13.023Z</time></trkpt><trkpt lat="43.366164" lon="10.6546515"><ele>112.99999999999999</ele><time>2026-04-18T13:15:13.949Z</time></trkpt><trkpt lat="43.36616300000001" lon="10.654555166666666"><ele>113.0</ele><time>2026-04-18T13:15:14.974Z</time></trkpt><trkpt lat="43.366162" lon="10.654460666666667"><ele>113.0</ele><time>2026-04-18T13:15:15.981Z</time></trkpt><trkpt lat="43.36616949999999" lon="10.654370833333333"><ele>113.0</ele><time>2026-04-18T13:15:16.959Z</time></trkpt><trkpt lat="43.366181999999995" lon="10.654285833333333"><ele>112.99999999999999</ele><time>2026-04-18T13:15:17.953Z</time></trkpt><trkpt lat="43.366231000000006" lon="10.654131"><ele>113.0</ele><time>2026-04-18T13:15:19.983Z</time></trkpt><trkpt lat="43.366264666666666" lon="10.654050500000002"><ele>113.83333333333333</ele><time>2026-04-18T13:15:20.958Z</time></trkpt><trkpt lat="43.36630066666667" lon="10.653964499999997"><ele>114.66666666666666</ele><time>2026-04-18T13:15:21.949Z</time></trkpt><trkpt lat="43.36633466666667" lon="10.653867166666666"><ele>115.5</ele><time>2026-04-18T13:15:22.949Z</time></trkpt><trkpt lat="43.366362166666676" lon="10.653759500000001"><ele>116.33333333333334</ele><time>2026-04-18T13:15:23.978Z</time></trkpt><trkpt lat="43.36637916666667" lon="10.653647333333334"><ele>117.16666666666667</ele><time>2026-04-18T13:15:24.952Z</time></trkpt><trkpt lat="43.36640016666667" lon="10.653539166666667"><ele>118.0</ele><time>2026-04-18T13:15:25.954Z</time></trkpt><trkpt lat="43.366432" lon="10.653438833333333"><ele>120.00000000000001</ele><time>2026-04-18T13:15:26.95Z</time></trkpt><trkpt lat="43.36648366666667" lon="10.653361666666669"><ele>122.0</ele><time>2026-04-18T13:15:27.97Z</time></trkpt><trkpt lat="43.366550833333335" lon="10.653315166666669"><ele>124.0</ele><time>2026-04-18T13:15:28.974Z</time></trkpt><trkpt lat="43.36662416666666" lon="10.653295166666664"><ele>126.0</ele><time>2026-04-18T13:15:29.95Z</time></trkpt><trkpt lat="43.36674316666666" lon="10.653294166666667"><ele>128.0</ele><time>2026-04-18T13:15:31.945Z</time></trkpt><trkpt lat="43.36682716666666" lon="10.653288833333335"><ele>130.0</ele><time>2026-04-18T13:15:32.989Z</time></trkpt><trkpt lat="43.366916833333335" lon="10.653281833333331"><ele>130.0</ele><time>2026-04-18T13:15:34.011Z</time></trkpt><trkpt lat="43.367013" lon="10.6532695"><ele>130.0</ele><time>2026-04-18T13:15:34.946Z</time></trkpt><trkpt lat="43.36711533333333" lon="10.653250666666667"><ele>130.0</ele><time>2026-04-18T13:15:35.954Z</time></trkpt><trkpt lat="43.36727033333333" lon="10.653213666666666"><ele>130.0</ele><time>2026-04-18T13:15:36.981Z</time></trkpt><trkpt lat="43.367422000000005" lon="10.653161833333334"><ele>129.6</ele><time>2026-04-18T13:15:38.949Z</time></trkpt><trkpt lat="43.36752133333333" lon="10.653126"><ele>129.2</ele><time>2026-04-18T13:15:39.954Z</time></trkpt><trkpt lat="43.367667166666656" lon="10.653070833333333"><ele>128.8</ele><time>2026-04-18T13:15:40.966Z</time></trkpt><trkpt lat="43.36775916666667" lon="10.653037500000002"><ele>128.4</ele><time>2026-04-18T13:15:41.975Z</time></trkpt><trkpt lat="43.36784616666667" lon="10.653020499999998"><ele>128.0</ele><time>2026-04-18T13:15:42.953Z</time></trkpt><trkpt lat="43.36792616666666" lon="10.653027166666668"><ele>128.0</ele><time>2026-04-18T13:15:43.946Z</time></trkpt><trkpt lat="43.36799800000001" lon="10.6530545"><ele>127.99999999999999</ele><time>2026-04-18T13:15:44.965Z</time></trkpt><trkpt lat="43.36806833333333" lon="10.653071333333333"><ele>128.0</ele><time>2026-04-18T13:15:45.959Z</time></trkpt><trkpt lat="43.36813716666667" lon="10.653054000000001"><ele>128.0</ele><time>2026-04-18T13:15:46.958Z</time></trkpt><trkpt lat="43.36819516666666" lon="10.653001999999999"><ele>127.99999999999999</ele><time>2026-04-18T13:15:47.955Z</time></trkpt><trkpt lat="43.36823583333334" lon="10.652919666666666"><ele>128.0</ele><time>2026-04-18T13:15:48.953Z</time></trkpt><trkpt lat="43.368267333333336" lon="10.6528265"><ele>128.0</ele><time>2026-04-18T13:15:49.994Z</time></trkpt><trkpt lat="43.36831283333333" lon="10.652743500000001"><ele>131.16666666666666</ele><time>2026-04-18T13:15:50.959Z</time></trkpt><trkpt lat="43.368374166666676" lon="10.652673000000002"><ele>134.33333333333331</ele><time>2026-04-18T13:15:51.951Z</time></trkpt><trkpt lat="43.36844133333334" lon="10.652606166666665"><ele>137.5</ele><time>2026-04-18T13:15:52.959Z</time></trkpt><trkpt lat="43.36851266666666" lon="10.652548999999999"><ele>140.66666666666666</ele><time>2026-04-18T13:15:53.975Z</time></trkpt><trkpt lat="43.368589500000006" lon="10.652511166666667"><ele>143.83333333333334</ele><time>2026-04-18T13:15:54.978Z</time></trkpt><trkpt lat="43.36866849999999" lon="10.652502166666666"><ele>147.0</ele><time>2026-04-18T13:15:55.958Z</time></trkpt><trkpt lat="43.368741" lon="10.6525275"><ele>147.0</ele><time>2026-04-18T13:15:56.958Z</time></trkpt><trkpt lat="43.3687861509616" lon="10.65260656368316"><ele>147.0</ele><time>2026-04-18T13:15:57.963Z</time></trkpt><trkpt lat="43.36882917017881" lon="10.65268324791906"><ele>147.0</ele><time>2026-04-18T13:15:58.998Z</time></trkpt><trkpt lat="43.36888133333334" lon="10.652748"><ele>147.0</ele><time>2026-04-18T13:15:59.957Z</time></trkpt><trkpt lat="43.36891671536466" lon="10.652837933519127"><ele>147.0</ele><time>2026-04-18T13:16:00.96Z</time></trkpt><trkpt lat="43.36897535953622" lon="10.652913383836825"><ele>147.0</ele><time>2026-04-18T13:16:01.961Z</time></trkpt><trkpt lat="43.369044093030254" lon="10.65296311518856"><ele>147.0</ele><time>2026-04-18T13:16:03.178Z</time></trkpt><trkpt lat="43.36917907638582" lon="10.652997452736221"><ele>145.2</ele><time>2026-04-18T13:16:04.958Z</time></trkpt><trkpt lat="43.36929733333333" lon="10.652974333333336"><ele>143.39999999999998</ele><time>2026-04-18T13:16:06.984Z</time></trkpt><trkpt lat="43.369425500000006" lon="10.652949666666666"><ele>141.60000000000002</ele><time>2026-04-18T13:16:08.961Z</time></trkpt><trkpt lat="43.36949316666668" lon="10.652937166666666"><ele>139.8</ele><time>2026-04-18T13:16:09.963Z</time></trkpt><trkpt lat="43.36956433333333" lon="10.6529195"><ele>138.0</ele><time>2026-04-18T13:16:11.179Z</time></trkpt><trkpt lat="43.3696445" lon="10.652898333333333"><ele>138.16666666666666</ele><time>2026-04-18T13:16:12.093Z</time></trkpt><trkpt lat="43.369722" lon="10.652873166666666"><ele>138.33333333333334</ele><time>2026-04-18T13:16:12.961Z</time></trkpt><trkpt lat="43.369791666666664" lon="10.652845166666667"><ele>138.5</ele><time>2026-04-18T13:16:13.966Z</time></trkpt><trkpt lat="43.36985233333333" lon="10.652816499999998"><ele>138.66666666666669</ele><time>2026-04-18T13:16:14.971Z</time></trkpt><trkpt lat="43.369956833333326" lon="10.652742999999997"><ele>138.83333333333334</ele><time>2026-04-18T13:16:16.954Z</time></trkpt><trkpt lat="43.37005583333333" lon="10.652675333333333"><ele>139.0</ele><time>2026-04-18T13:16:18.965Z</time></trkpt><trkpt lat="43.37015200000001" lon="10.652639166666665"><ele>141.83333333333334</ele><time>2026-04-18T13:16:20.994Z</time></trkpt><trkpt lat="43.37026533333332" lon="10.652650999999999"><ele>144.66666666666669</ele><time>2026-04-18T13:16:22.96Z</time></trkpt><trkpt lat="43.37032883333333" lon="10.652664666666666"><ele>147.5</ele><time>2026-04-18T13:16:23.975Z</time></trkpt><trkpt lat="43.37042833333333" lon="10.65269033333333"><ele>150.33333333333334</ele><time>2026-04-18T13:16:25.949Z</time></trkpt><trkpt lat="43.37049616666667" lon="10.652701833333333"><ele>153.16666666666666</ele><time>2026-04-18T13:16:26.958Z</time></trkpt><trkpt lat="43.37056433333334" lon="10.652707000000001"><ele>156.0</ele><time>2026-04-18T13:16:27.959Z</time></trkpt><trkpt lat="43.37063" lon="10.652701833333333"><ele>156.0</ele><time>2026-04-18T13:16:28.958Z</time></trkpt><trkpt lat="43.370743833333336" lon="10.652649666666665"><ele>156.0</ele><time>2026-04-18T13:16:30.962Z</time></trkpt><trkpt lat="43.37081666666667" lon="10.652575333333335"><ele>156.0</ele><time>2026-04-18T13:16:31.962Z</time></trkpt><trkpt lat="43.37090883333334" lon="10.652475166666667"><ele>156.0</ele><time>2026-04-18T13:16:33.956Z</time></trkpt><trkpt lat="43.370953166666666" lon="10.6523645"><ele>156.0</ele><time>2026-04-18T13:16:35.96Z</time></trkpt><trkpt lat="43.37094417346098" lon="10.652261540089905"><ele>156.0</ele><time>2026-04-18T13:16:37.946Z</time></trkpt><trkpt lat="43.37083265988508" lon="10.652209978859409"><ele>156.0</ele><time>2026-04-18T13:16:39.962Z</time></trkpt><trkpt lat="43.370732729271694" lon="10.652256309346186"><ele>156.0</ele><time>2026-04-18T13:16:41.964Z</time></trkpt><trkpt lat="43.37064869374525" lon="10.652229769881917"><ele>156.0</ele><time>2026-04-18T13:16:43.958Z</time></trkpt><trkpt lat="43.37058149149934" lon="10.652136635987956"><ele>156.0</ele><time>2026-04-18T13:16:45.945Z</time></trkpt><trkpt lat="43.37053133255836" lon="10.652062866946311"><ele>157.0</ele><time>2026-04-18T13:16:47.961Z</time></trkpt><trkpt lat="43.370462529877344" lon="10.651998381395309"><ele>158.0</ele><time>2026-04-18T13:16:48.964Z</time></trkpt><trkpt lat="43.37035372112924" lon="10.65194678150529"><ele>159.0</ele><time>2026-04-18T13:16:50.959Z</time></trkpt><trkpt lat="43.370227879098955" lon="10.651964900716942"><ele>160.0</ele><time>2026-04-18T13:16:52.955Z</time></trkpt><trkpt lat="43.37016677354561" lon="10.651992901032429"><ele>161.0</ele><time>2026-04-18T13:16:53.992Z</time></trkpt><trkpt lat="43.37010503762798" lon="10.652015813739238"><ele>161.0</ele><time>2026-04-18T13:16:54.956Z</time></trkpt><trkpt lat="43.36997179278473" lon="10.652059910173522"><ele>161.0</ele><time>2026-04-18T13:16:56.963Z</time></trkpt><trkpt lat="43.3699009234994" lon="10.65207959649807"><ele>161.0</ele><time>2026-04-18T13:16:57.977Z</time></trkpt><trkpt lat="43.369832326447835" lon="10.652098868731812"><ele>161.0</ele><time>2026-04-18T13:16:58.95Z</time></trkpt><trkpt lat="43.369761" lon="10.652124166666665"><ele>161.0</ele><time>2026-04-18T13:16:59.961Z</time></trkpt><trkpt lat="43.36963447605031" lon="10.652031378683898"><ele>160.20000000000002</ele><time>2026-04-18T13:17:01.972Z</time></trkpt><trkpt lat="43.36953916666666" lon="10.651962"><ele>159.4</ele><time>2026-04-18T13:17:03.965Z</time></trkpt><trkpt lat="43.369482000000005" lon="10.651895833333333"><ele>158.6</ele><time>2026-04-18T13:17:04.965Z</time></trkpt><trkpt lat="43.369431166666665" lon="10.6518315"><ele>157.8</ele><time>2026-04-18T13:17:05.957Z</time></trkpt><trkpt lat="43.36936383333334" lon="10.651651666666666"><ele>157.0</ele><time>2026-04-18T13:17:07.95Z</time></trkpt><trkpt lat="43.36938416666666" lon="10.651475999999999"><ele>158.5</ele><time>2026-04-18T13:17:09.954Z</time></trkpt><trkpt lat="43.36941433333333" lon="10.651368833333333"><ele>160.0</ele><time>2026-04-18T13:17:10.97Z</time></trkpt><trkpt lat="43.36945116666667" lon="10.651261833333333"><ele>161.5</ele><time>2026-04-18T13:17:11.949Z</time></trkpt><trkpt lat="43.369488" lon="10.651162166666666"><ele>163.0</ele><time>2026-04-18T13:17:12.962Z</time></trkpt><trkpt lat="43.36952733333332" lon="10.651070333333333"><ele>164.5</ele><time>2026-04-18T13:17:13.955Z</time></trkpt><trkpt lat="43.36957533333332" lon="10.650991166666666"><ele>166.0</ele><time>2026-04-18T13:17:14.963Z</time></trkpt><trkpt lat="43.36963366666667" lon="10.650927833333332"><ele>168.0</ele><time>2026-04-18T13:17:15.96Z</time></trkpt><trkpt lat="43.369706" lon="10.650880833333334"><ele>170.0</ele><time>2026-04-18T13:17:16.962Z</time></trkpt><trkpt lat="43.369783166666664" lon="10.650845"><ele>172.0</ele><time>2026-04-18T13:17:17.957Z</time></trkpt><trkpt lat="43.36986533333334" lon="10.650821166666667"><ele>174.0</ele><time>2026-04-18T13:17:18.974Z</time></trkpt><trkpt lat="43.36995149999999" lon="10.650814166666665"><ele>176.0</ele><time>2026-04-18T13:17:19.955Z</time></trkpt><trkpt lat="43.37004100000001" lon="10.650821666666664"><ele>178.0</ele><time>2026-04-18T13:17:20.949Z</time></trkpt><trkpt lat="43.37013183333334" lon="10.65083"><ele>178.0</ele><time>2026-04-18T13:17:21.96Z</time></trkpt><trkpt lat="43.370223" lon="10.650839833333334"><ele>178.0</ele><time>2026-04-18T13:17:22.957Z</time></trkpt><trkpt lat="43.37031466666667" lon="10.650863000000001"><ele>178.0</ele><time>2026-04-18T13:17:23.982Z</time></trkpt><trkpt lat="43.37044299999999" lon="10.650915000000003"><ele>178.0</ele><time>2026-04-18T13:17:25.963Z</time></trkpt><trkpt lat="43.37056066666668" lon="10.650949500000001"><ele>178.0</ele><time>2026-04-18T13:17:26.959Z</time></trkpt><trkpt lat="43.37068316666667" lon="10.650862333333334"><ele>178.0</ele><time>2026-04-18T13:17:28.966Z</time></trkpt><trkpt lat="43.370733833333325" lon="10.650787333333335"><ele>178.0</ele><time>2026-04-18T13:17:29.952Z</time></trkpt><trkpt lat="43.37079016666667" lon="10.650707499999998"><ele>178.0</ele><time>2026-04-18T13:17:30.952Z</time></trkpt><trkpt lat="43.37085083333333" lon="10.650616166666667"><ele>178.0</ele><time>2026-04-18T13:17:31.97Z</time></trkpt><trkpt lat="43.37091566666666" lon="10.65051416666667"><ele>178.0</ele><time>2026-04-18T13:17:32.99Z</time></trkpt><trkpt lat="43.37098833333333" lon="10.650407833333334"><ele>178.0</ele><time>2026-04-18T13:17:33.957Z</time></trkpt><trkpt lat="43.371063166666666" lon="10.650301333333335"><ele>178.0</ele><time>2026-04-18T13:17:34.95Z</time></trkpt><trkpt lat="43.3711745" lon="10.650145666666667"><ele>178.0</ele><time>2026-04-18T13:17:36.95Z</time></trkpt><trkpt lat="43.371248333333334" lon="10.650044999999999"><ele>178.0</ele><time>2026-04-18T13:17:37.972Z</time></trkpt><trkpt lat="43.3713205" lon="10.649948166666665"><ele>177.8</ele><time>2026-04-18T13:17:38.951Z</time></trkpt><trkpt lat="43.37138916666667" lon="10.64984583333333"><ele>177.60000000000002</ele><time>2026-04-18T13:17:39.948Z</time></trkpt><trkpt lat="43.37145333333333" lon="10.6497355"><ele>177.39999999999998</ele><time>2026-04-18T13:17:40.991Z</time></trkpt><trkpt lat="43.37152016666667" lon="10.649563166666667"><ele>177.2</ele><time>2026-04-18T13:17:41.959Z</time></trkpt><trkpt lat="43.37154366666667" lon="10.649447333333333"><ele>177.0</ele><time>2026-04-18T13:17:42.957Z</time></trkpt><trkpt lat="43.37155316666668" lon="10.649336666666667"><ele>177.0</ele><time>2026-04-18T13:17:43.952Z</time></trkpt><trkpt lat="43.3715915" lon="10.649160500000002"><ele>177.0</ele><time>2026-04-18T13:17:46.007Z</time></trkpt><trkpt lat="43.371691666666656" lon="10.649068499999998"><ele>177.0</ele><time>2026-04-18T13:17:47.962Z</time></trkpt><trkpt lat="43.37176049999999" lon="10.649058666666667"><ele>177.0</ele><time>2026-04-18T13:17:48.976Z</time></trkpt><trkpt lat="43.371889499999995" lon="10.6490545"><ele>177.0</ele><time>2026-04-18T13:17:50.954Z</time></trkpt><trkpt lat="43.37205666666667" lon="10.649043500000001"><ele>177.0</ele><time>2026-04-18T13:17:51.958Z</time></trkpt><trkpt lat="43.37218033333333" lon="10.6490365"><ele>177.0</ele><time>2026-04-18T13:17:52.954Z</time></trkpt><trkpt lat="43.37230566666667" lon="10.649030666666667"><ele>177.0</ele><time>2026-04-18T13:17:54.088Z</time></trkpt><trkpt lat="43.37242883333333" lon="10.649026000000001"><ele>177.25</ele><time>2026-04-18T13:17:54.956Z</time></trkpt><trkpt lat="43.372545833333334" lon="10.649018333333334"><ele>177.5</ele><time>2026-04-18T13:17:55.952Z</time></trkpt><trkpt lat="43.37265833333333" lon="10.649014166666667"><ele>177.75</ele><time>2026-04-18T13:17:56.955Z</time></trkpt><trkpt lat="43.37276883333334" lon="10.649009333333334"><ele>178.0</ele><time>2026-04-18T13:17:57.955Z</time></trkpt><trkpt lat="43.372879499999996" lon="10.648998833333334"><ele>178.0</ele><time>2026-04-18T13:17:58.947Z</time></trkpt><trkpt lat="43.372995499999995" lon="10.648992500000002"><ele>178.0</ele><time>2026-04-18T13:17:59.957Z</time></trkpt><trkpt lat="43.373232166666675" lon="10.6489815"><ele>178.0</ele><time>2026-04-18T13:18:01.975Z</time></trkpt><trkpt lat="43.37334716666666" lon="10.648976166666667"><ele>178.5</ele><time>2026-04-18T13:18:02.983Z</time></trkpt><trkpt lat="43.373461999999996" lon="10.648968333333336"><ele>179.0</ele><time>2026-04-18T13:18:04.028Z</time></trkpt><trkpt lat="43.37357716666667" lon="10.648959666666668"><ele>179.5</ele><time>2026-04-18T13:18:04.962Z</time></trkpt><trkpt lat="43.37369183333333" lon="10.648952999999997"><ele>180.0</ele><time>2026-04-18T13:18:05.975Z</time></trkpt><trkpt lat="43.373846333333326" lon="10.648944666666667"><ele>180.4</ele><time>2026-04-18T13:18:07.958Z</time></trkpt><trkpt lat="43.373972" lon="10.648923666666667"><ele>180.8</ele><time>2026-04-18T13:18:08.956Z</time></trkpt><trkpt lat="43.374046666666665" lon="10.6488895"><ele>181.2</ele><time>2026-04-18T13:18:09.962Z</time></trkpt><trkpt lat="43.37411733333334" lon="10.6488385"><ele>181.6</ele><time>2026-04-18T13:18:10.982Z</time></trkpt><trkpt lat="43.37419166666667" lon="10.648778333333333"><ele>182.0</ele><time>2026-04-18T13:18:11.962Z</time></trkpt><trkpt lat="43.374362000000005" lon="10.648617666666667"><ele>182.0</ele><time>2026-04-18T13:18:13.96Z</time></trkpt><trkpt lat="43.374511" lon="10.648483166666665"><ele>182.0</ele><time>2026-04-18T13:18:15.963Z</time></trkpt><trkpt lat="43.374619333333335" lon="10.648387166666664"><ele>182.0</ele><time>2026-04-18T13:18:16.947Z</time></trkpt><trkpt lat="43.37476983333333" lon="10.648250166666665"><ele>180.75</ele><time>2026-04-18T13:18:17.955Z</time></trkpt><trkpt lat="43.374860999999996" lon="10.648168833333333"><ele>179.5</ele><time>2026-04-18T13:18:18.968Z</time></trkpt><trkpt lat="43.37494466666667" lon="10.648091666666668"><ele>178.25</ele><time>2026-04-18T13:18:19.959Z</time></trkpt><trkpt lat="43.3750205" lon="10.648017333333334"><ele>177.0</ele><time>2026-04-18T13:18:20.957Z</time></trkpt><trkpt lat="43.37516266666666" lon="10.647888333333334"><ele>177.0</ele><time>2026-04-18T13:18:22.966Z</time></trkpt><trkpt lat="43.375264833333325" lon="10.647821500000001"><ele>177.0</ele><time>2026-04-18T13:18:24.967Z</time></trkpt><trkpt lat="43.37533516666667" lon="10.647796"><ele>177.0</ele><time>2026-04-18T13:18:25.955Z</time></trkpt><trkpt lat="43.375409999999995" lon="10.647786"><ele>177.0</ele><time>2026-04-18T13:18:26.966Z</time></trkpt><trkpt lat="43.375539499999995" lon="10.647793166666668"><ele>177.0</ele><time>2026-04-18T13:18:27.958Z</time></trkpt><trkpt lat="43.375639333333325" lon="10.647804166666667"><ele>176.8</ele><time>2026-04-18T13:18:28.963Z</time></trkpt><trkpt lat="43.375741166666664" lon="10.647815166666666"><ele>176.6</ele><time>2026-04-18T13:18:29.96Z</time></trkpt><trkpt lat="43.37585033333333" lon="10.64782733333333"><ele>176.4</ele><time>2026-04-18T13:18:30.966Z</time></trkpt><trkpt lat="43.37595533333333" lon="10.647841666666665"><ele>176.20000000000002</ele><time>2026-04-18T13:18:31.979Z</time></trkpt><trkpt lat="43.37605083333333" lon="10.647854500000003"><ele>176.0</ele><time>2026-04-18T13:18:32.978Z</time></trkpt><trkpt lat="43.37613516666667" lon="10.6478695"><ele>176.0</ele><time>2026-04-18T13:18:33.954Z</time></trkpt><trkpt lat="43.376209833333334" lon="10.647868833333334"><ele>176.0</ele><time>2026-04-18T13:18:34.966Z</time></trkpt><trkpt lat="43.37630649999999" lon="10.647814166666667"><ele>176.0</ele><time>2026-04-18T13:18:36.989Z</time></trkpt><trkpt lat="43.37636500000001" lon="10.647757999999998"><ele>176.0</ele><time>2026-04-18T13:18:37.959Z</time></trkpt><trkpt lat="43.37641255330362" lon="10.647677827045504"><ele>176.0</ele><time>2026-04-18T13:18:38.97Z</time></trkpt><trkpt lat="43.376482923157496" lon="10.647636340769713"><ele>176.0</ele><time>2026-04-18T13:18:39.965Z</time></trkpt><trkpt lat="43.37655500000001" lon="10.647661833333332"><ele>179.0</ele><time>2026-04-18T13:18:40.984Z</time></trkpt><trkpt lat="43.37661866666667" lon="10.647673833333332"><ele>182.0</ele><time>2026-04-18T13:18:41.951Z</time></trkpt><trkpt lat="43.37671999999999" lon="10.647702166666667"><ele>185.0</ele><time>2026-04-18T13:18:42.954Z</time></trkpt><trkpt lat="43.37679683333334" lon="10.6477155"><ele>188.0</ele><time>2026-04-18T13:18:43.956Z</time></trkpt><trkpt lat="43.376881999999995" lon="10.6477205"><ele>191.00000000000003</ele><time>2026-04-18T13:18:44.984Z</time></trkpt><trkpt lat="43.37698166666667" lon="10.647712499999999"><ele>194.0</ele><time>2026-04-18T13:18:45.959Z</time></trkpt><trkpt lat="43.377086999999996" lon="10.647680999999999"><ele>193.0</ele><time>2026-04-18T13:18:46.958Z</time></trkpt><trkpt lat="43.377193999999996" lon="10.647657666666666"><ele>192.0</ele><time>2026-04-18T13:18:47.951Z</time></trkpt><trkpt lat="43.37735333333334" lon="10.647621833333336"><ele>191.0</ele><time>2026-04-18T13:18:50.01Z</time></trkpt><trkpt lat="43.377458" lon="10.647599166666666"><ele>190.0</ele><time>2026-04-18T13:18:50.963Z</time></trkpt><trkpt lat="43.377601500000004" lon="10.647573499999998"><ele>190.0</ele><time>2026-04-18T13:18:51.963Z</time></trkpt><trkpt lat="43.3776805912819" lon="10.647536654060556"><ele>190.0</ele><time>2026-04-18T13:18:52.981Z</time></trkpt><trkpt lat="43.377753076603106" lon="10.64750399490626"><ele>190.0</ele><time>2026-04-18T13:18:54Z</time></trkpt><trkpt lat="43.377832166666664" lon="10.647484666666665"><ele>190.0</ele><time>2026-04-18T13:18:54.951Z</time></trkpt><trkpt lat="43.37790150000001" lon="10.647410666666667"><ele>190.0</ele><time>2026-04-18T13:18:55.96Z</time></trkpt><trkpt lat="43.37797166666666" lon="10.647328333333332"><ele>190.0</ele><time>2026-04-18T13:18:56.959Z</time></trkpt><trkpt lat="43.37804616666667" lon="10.647251166666667"><ele>188.4</ele><time>2026-04-18T13:18:57.99Z</time></trkpt><trkpt lat="43.378116340807146" lon="10.647150410841173"><ele>186.8</ele><time>2026-04-18T13:18:58.952Z</time></trkpt><trkpt lat="43.37820532525957" lon="10.647064551600954"><ele>185.2</ele><time>2026-04-18T13:18:59.964Z</time></trkpt><trkpt lat="43.37830583333333" lon="10.647004666666666"><ele>183.6</ele><time>2026-04-18T13:19:00.96Z</time></trkpt><trkpt lat="43.37839233333334" lon="10.646911333333334"><ele>182.0</ele><time>2026-04-18T13:19:01.986Z</time></trkpt><trkpt lat="43.378477333333336" lon="10.646813499999999"><ele>182.8</ele><time>2026-04-18T13:19:02.958Z</time></trkpt><trkpt lat="43.37856583333334" lon="10.646722166666665"><ele>183.6</ele><time>2026-04-18T13:19:03.959Z</time></trkpt><trkpt lat="43.3786615" lon="10.6466495"><ele>184.4</ele><time>2026-04-18T13:19:04.964Z</time></trkpt><trkpt lat="43.37875867537081" lon="10.646575702472232"><ele>185.20000000000002</ele><time>2026-04-18T13:19:05.985Z</time></trkpt><trkpt lat="43.37886055260363" lon="10.646516621939464"><ele>186.0</ele><time>2026-04-18T13:19:06.96Z</time></trkpt><trkpt lat="43.37896662869929" lon="10.646462540519575"><ele>186.0</ele><time>2026-04-18T13:19:07.964Z</time></trkpt><trkpt lat="43.37907312205945" lon="10.646420965397208"><ele>186.0</ele><time>2026-04-18T13:19:08.962Z</time></trkpt><trkpt lat="43.37917687939547" lon="10.64637910592298"><ele>186.0</ele><time>2026-04-18T13:19:09.97Z</time></trkpt><trkpt lat="43.37929300000001" lon="10.646343454520318"><ele>186.0</ele><time>2026-04-18T13:19:10.973Z</time></trkpt><trkpt lat="43.37939756366687" lon="10.646340580477128"><ele>186.0</ele><time>2026-04-18T13:19:11.953Z</time></trkpt><trkpt lat="43.37949747241063" lon="10.64632312861276"><ele>186.0</ele><time>2026-04-18T13:19:12.964Z</time></trkpt><trkpt lat="43.379591513960506" lon="10.646290932911104"><ele>186.0</ele><time>2026-04-18T13:19:13.98Z</time></trkpt><trkpt lat="43.37968380106572" lon="10.646234828053815"><ele>186.0</ele><time>2026-04-18T13:19:14.984Z</time></trkpt><trkpt lat="43.37978620658494" lon="10.646168633018068"><ele>186.0</ele><time>2026-04-18T13:19:15.959Z</time></trkpt><trkpt lat="43.379900849771595" lon="10.646096642374445"><ele>186.0</ele><time>2026-04-18T13:19:16.957Z</time></trkpt><trkpt lat="43.3800281706206" lon="10.646062146217723"><ele>189.75</ele><time>2026-04-18T13:19:17.957Z</time></trkpt><trkpt lat="43.380148545779285" lon="10.646060137114157"><ele>193.5</ele><time>2026-04-18T13:19:18.988Z</time></trkpt><trkpt lat="43.380265525651424" lon="10.646042368020758"><ele>197.25</ele><time>2026-04-18T13:19:20.104Z</time></trkpt><trkpt lat="43.380382467292954" lon="10.6460304680816"><ele>201.0</ele><time>2026-04-18T13:19:20.948Z</time></trkpt><trkpt lat="43.38048921409538" lon="10.646032333058427"><ele>199.60000000000002</ele><time>2026-04-18T13:19:21.956Z</time></trkpt><trkpt lat="43.38057602243997" lon="10.646024566926938"><ele>198.2</ele><time>2026-04-18T13:19:22.964Z</time></trkpt><trkpt lat="43.380689412538146" lon="10.64600635065331"><ele>196.8</ele><time>2026-04-18T13:19:24.959Z</time></trkpt><trkpt lat="43.38075175858212" lon="10.645982410253644"><ele>195.39999999999998</ele><time>2026-04-18T13:19:25.959Z</time></trkpt><trkpt lat="43.380808704667245" lon="10.645932444545165"><ele>194.0</ele><time>2026-04-18T13:19:26.96Z</time></trkpt><trkpt lat="43.38089421483951" lon="10.645789187278895"><ele>194.0</ele><time>2026-04-18T13:19:27.995Z</time></trkpt><trkpt lat="43.38094342081645" lon="10.645679665724675"><ele>194.0</ele><time>2026-04-18T13:19:28.953Z</time></trkpt><trkpt lat="43.380986414889215" lon="10.64558266598879"><ele>194.0</ele><time>2026-04-18T13:19:29.963Z</time></trkpt><trkpt lat="43.381042515267325" lon="10.645453476330186"><ele>194.0</ele><time>2026-04-18T13:19:30.958Z</time></trkpt><trkpt lat="43.38108212190037" lon="10.645338608653152"><ele>194.0</ele><time>2026-04-18T13:19:31.976Z</time></trkpt><trkpt lat="43.38114350000001" lon="10.645282666666667"><ele>194.00000000000003</ele><time>2026-04-18T13:19:33.955Z</time></trkpt><trkpt lat="43.38120050000001" lon="10.645359166666665"><ele>194.0</ele><time>2026-04-18T13:19:36.964Z</time></trkpt><trkpt lat="43.381275666666674" lon="10.645432000000001"><ele>194.0</ele><time>2026-04-18T13:19:38.972Z</time></trkpt><trkpt lat="43.381381833333336" lon="10.645522999999999"><ele>194.0</ele><time>2026-04-18T13:19:40.956Z</time></trkpt><trkpt lat="43.3814405" lon="10.645566333333331"><ele>194.00000000000003</ele><time>2026-04-18T13:19:41.954Z</time></trkpt><trkpt lat="43.38150566666667" lon="10.645592166666665"><ele>194.0</ele><time>2026-04-18T13:19:42.953Z</time></trkpt><trkpt lat="43.38157849999999" lon="10.645601333333332"><ele>193.79999999999998</ele><time>2026-04-18T13:19:43.975Z</time></trkpt><trkpt lat="43.381652833333334" lon="10.645582333333333"><ele>193.6</ele><time>2026-04-18T13:19:44.992Z</time></trkpt><trkpt lat="43.3817425" lon="10.645507666666665"><ele>193.4</ele><time>2026-04-18T13:19:46.959Z</time></trkpt><trkpt lat="43.381809000000004" lon="10.645409666666668"><ele>193.2</ele><time>2026-04-18T13:19:47.964Z</time></trkpt><trkpt lat="43.38188533333334" lon="10.645300166666667"><ele>193.0</ele><time>2026-04-18T13:19:49.953Z</time></trkpt><trkpt lat="43.38195366666667" lon="10.645194666666665"><ele>195.60000000000002</ele><time>2026-04-18T13:19:51.956Z</time></trkpt><trkpt lat="43.38201983333333" lon="10.64510766666667"><ele>198.20000000000002</ele><time>2026-04-18T13:19:53.967Z</time></trkpt><trkpt lat="43.38207383333334" lon="10.645014666666668"><ele>200.8</ele><time>2026-04-18T13:19:55.956Z</time></trkpt><trkpt lat="43.38216183333334" lon="10.644944500000001"><ele>203.4</ele><time>2026-04-18T13:19:57.947Z</time></trkpt><trkpt lat="43.38228266666667" lon="10.644931000000001"><ele>206.0</ele><time>2026-04-18T13:19:59.961Z</time></trkpt><trkpt lat="43.38240583333333" lon="10.644904333333333"><ele>206.33333333333334</ele><time>2026-04-18T13:20:01.984Z</time></trkpt><trkpt lat="43.382473" lon="10.644868"><ele>206.66666666666669</ele><time>2026-04-18T13:20:02.95Z</time></trkpt><trkpt lat="43.38254833333333" lon="10.644814833333331"><ele>207.0</ele><time>2026-04-18T13:20:03.964Z</time></trkpt><trkpt lat="43.382621333333326" lon="10.64475183333333"><ele>207.33333333333331</ele><time>2026-04-18T13:20:04.96Z</time></trkpt><trkpt lat="43.382687000000004" lon="10.644680500000002"><ele>207.66666666666666</ele><time>2026-04-18T13:20:05.979Z</time></trkpt><trkpt lat="43.382760999999995" lon="10.644547333333334"><ele>208.0</ele><time>2026-04-18T13:20:07.956Z</time></trkpt><trkpt lat="43.382784333333326" lon="10.644439499999999"><ele>210.60000000000002</ele><time>2026-04-18T13:20:08.955Z</time></trkpt><trkpt lat="43.38279583333333" lon="10.644330666666667"><ele>213.20000000000002</ele><time>2026-04-18T13:20:09.976Z</time></trkpt><trkpt lat="43.38282649999999" lon="10.644180833333333"><ele>215.8</ele><time>2026-04-18T13:20:10.98Z</time></trkpt><trkpt lat="43.38286" lon="10.64409466666667"><ele>218.4</ele><time>2026-04-18T13:20:11.959Z</time></trkpt><trkpt lat="43.382891" lon="10.644013666666668"><ele>221.0</ele><time>2026-04-18T13:20:12.957Z</time></trkpt><trkpt lat="43.382953264976436" lon="10.643867500218724"><ele>219.8</ele><time>2026-04-18T13:20:14.988Z</time></trkpt><trkpt lat="43.38301904994989" lon="10.643836435607946"><ele>218.60000000000002</ele><time>2026-04-18T13:20:15.957Z</time></trkpt><trkpt lat="43.38313783333333" lon="10.64382725788607"><ele>217.4</ele><time>2026-04-18T13:20:17.961Z</time></trkpt><trkpt lat="43.38322933565252" lon="10.64382035784951"><ele>216.2</ele><time>2026-04-18T13:20:19.962Z</time></trkpt><trkpt lat="43.38333983333334" lon="10.643769833333334"><ele>215.0</ele><time>2026-04-18T13:20:21.957Z</time></trkpt><trkpt lat="43.38336883333333" lon="10.643691500000001"><ele>217.33333333333334</ele><time>2026-04-18T13:20:22.982Z</time></trkpt><trkpt lat="43.3833905" lon="10.64360783333333"><ele>219.66666666666669</ele><time>2026-04-18T13:20:23.956Z</time></trkpt><trkpt lat="43.383458999999995" lon="10.643500666666668"><ele>222.0</ele><time>2026-04-18T13:20:25.953Z</time></trkpt><trkpt lat="43.38352016666666" lon="10.643461166666668"><ele>224.33333333333331</ele><time>2026-04-18T13:20:26.986Z</time></trkpt><trkpt lat="43.38361283333334" lon="10.643364833333331"><ele>226.66666666666666</ele><time>2026-04-18T13:20:28.956Z</time></trkpt><trkpt lat="43.38365733333333" lon="10.643269333333333"><ele>229.0</ele><time>2026-04-18T13:20:30.968Z</time></trkpt><trkpt lat="43.383686166666664" lon="10.643169"><ele>229.0</ele><time>2026-04-18T13:20:32Z</time></trkpt><trkpt lat="43.383728999999995" lon="10.643039833333335"><ele>228.99999999999997</ele><time>2026-04-18T13:20:33.961Z</time></trkpt><trkpt lat="43.383775" lon="10.642908499999999"><ele>228.99999999999997</ele><time>2026-04-18T13:20:35.988Z</time></trkpt><trkpt lat="43.38382883333333" lon="10.642832166666668"><ele>229.0</ele><time>2026-04-18T13:20:38.024Z</time></trkpt><trkpt lat="43.38395555413905" lon="10.642728224040537"><ele>229.0</ele><time>2026-04-18T13:20:40.082Z</time></trkpt><trkpt lat="43.38403473028894" lon="10.642686890023171"><ele>230.6</ele><time>2026-04-18T13:20:41.973Z</time></trkpt><trkpt lat="43.38413566072101" lon="10.642609243224683"><ele>232.2</ele><time>2026-04-18T13:20:43.976Z</time></trkpt><trkpt lat="43.38421675508374" lon="10.64251675792242"><ele>233.79999999999998</ele><time>2026-04-18T13:20:45.961Z</time></trkpt><trkpt lat="43.384283843610106" lon="10.642415252671439"><ele>235.39999999999998</ele><time>2026-04-18T13:20:48.056Z</time></trkpt><trkpt lat="43.384341785197705" lon="10.642322252073821"><ele>237.0</ele><time>2026-04-18T13:20:48.969Z</time></trkpt><trkpt lat="43.38444439328757" lon="10.642241117351658"><ele>237.0</ele><time>2026-04-18T13:20:50.965Z</time></trkpt><trkpt lat="43.38451601318071" lon="10.642192215175069"><ele>237.0</ele><time>2026-04-18T13:20:52.997Z</time></trkpt><trkpt lat="43.38461697164762" lon="10.642119301577312"><ele>237.0</ele><time>2026-04-18T13:20:54.949Z</time></trkpt><trkpt lat="43.38470943862202" lon="10.64203807055906"><ele>237.0</ele><time>2026-04-18T13:20:56.959Z</time></trkpt><trkpt lat="43.384805696153684" lon="10.641942891842797"><ele>237.0</ele><time>2026-04-18T13:20:58.957Z</time></trkpt><trkpt lat="43.38489330084127" lon="10.641856268895319"><ele>238.33333333333334</ele><time>2026-04-18T13:21:00.153Z</time></trkpt><trkpt lat="43.38495059950297" lon="10.64180020306817"><ele>239.66666666666669</ele><time>2026-04-18T13:21:00.978Z</time></trkpt><trkpt lat="43.38500442565384" lon="10.641747866957445"><ele>241.0</ele><time>2026-04-18T13:21:01.964Z</time></trkpt><trkpt lat="43.3851044150302" lon="10.641652654317046"><ele>242.33333333333334</ele><time>2026-04-18T13:21:03.956Z</time></trkpt><trkpt lat="43.38516926979621" lon="10.641591534816206"><ele>243.66666666666669</ele><time>2026-04-18T13:21:05.985Z</time></trkpt><trkpt lat="43.38523888426244" lon="10.641527022120297"><ele>245.0</ele><time>2026-04-18T13:21:07.967Z</time></trkpt><trkpt lat="43.385323916492624" lon="10.641448998896417"><ele>245.00000000000003</ele><time>2026-04-18T13:21:09.981Z</time></trkpt><trkpt lat="43.38540493912749" lon="10.641397639802783"><ele>245.0</ele><time>2026-04-18T13:21:12.962Z</time></trkpt><trkpt lat="43.385468565909804" lon="10.641389376725716"><ele>245.0</ele><time>2026-04-18T13:21:14.96Z</time></trkpt><trkpt lat="43.38552383333334" lon="10.641465166666668"><ele>245.0</ele><time>2026-04-18T13:21:16.948Z</time></trkpt><trkpt lat="43.38560716666666" lon="10.641543500000001"><ele>245.00000000000003</ele><time>2026-04-18T13:21:18.988Z</time></trkpt><trkpt lat="43.38568616666666" lon="10.641634166666664"><ele>245.0</ele><time>2026-04-18T13:21:20.954Z</time></trkpt><trkpt lat="43.385746" lon="10.641761666666666"><ele>246.4</ele><time>2026-04-18T13:21:22.988Z</time></trkpt><trkpt lat="43.38578149999999" lon="10.641880166666665"><ele>247.8</ele><time>2026-04-18T13:21:24.958Z</time></trkpt><trkpt lat="43.38579716666666" lon="10.641964833333336"><ele>249.2</ele><time>2026-04-18T13:21:25.955Z</time></trkpt><trkpt lat="43.38578103370595" lon="10.64205265012039"><ele>250.6</ele><time>2026-04-18T13:21:26.977Z</time></trkpt><trkpt lat="43.385759112135105" lon="10.642228264114552"><ele>252.0</ele><time>2026-04-18T13:21:28.957Z</time></trkpt><trkpt lat="43.38573678016954" lon="10.642381559532726"><ele>252.0</ele><time>2026-04-18T13:21:29.969Z</time></trkpt><trkpt lat="43.38572072772881" lon="10.6424948052789"><ele>252.0</ele><time>2026-04-18T13:21:30.972Z</time></trkpt><trkpt lat="43.385707726783735" lon="10.642606828964695"><ele>252.0</ele><time>2026-04-18T13:21:31.972Z</time></trkpt><trkpt lat="43.38570244903921" lon="10.642717166666667"><ele>252.0</ele><time>2026-04-18T13:21:32.956Z</time></trkpt><trkpt lat="43.38571656614536" lon="10.642867737398111"><ele>252.0</ele><time>2026-04-18T13:21:34.973Z</time></trkpt><trkpt lat="43.38575066666667" lon="10.642954166666668"><ele>252.0</ele><time>2026-04-18T13:21:36.002Z</time></trkpt><trkpt lat="43.38577016666667" lon="10.6430375"><ele>252.0</ele><time>2026-04-18T13:21:36.957Z</time></trkpt><trkpt lat="43.38581600000001" lon="10.643184000000002"><ele>252.0</ele><time>2026-04-18T13:21:38.969Z</time></trkpt><trkpt lat="43.38586183333334" lon="10.643308666666668"><ele>252.0</ele><time>2026-04-18T13:21:40.961Z</time></trkpt><trkpt lat="43.385914666666665" lon="10.643390333333333"><ele>252.0</ele><time>2026-04-18T13:21:43.011Z</time></trkpt><trkpt lat="43.38598483333333" lon="10.643421"><ele>252.0</ele><time>2026-04-18T13:21:44.954Z</time></trkpt><trkpt lat="43.38608250000001" lon="10.643429000000001"><ele>252.0</ele><time>2026-04-18T13:21:46.95Z</time></trkpt><trkpt lat="43.386204666666664" lon="10.643449333333333"><ele>252.0</ele><time>2026-04-18T13:21:48.965Z</time></trkpt><trkpt lat="43.3862725" lon="10.643460666666666"><ele>252.0</ele><time>2026-04-18T13:21:49.952Z</time></trkpt><trkpt lat="43.38634366666667" lon="10.643471333333332"><ele>252.0</ele><time>2026-04-18T13:21:50.956Z</time></trkpt><trkpt lat="43.38641899999999" lon="10.643483333333332"><ele>252.0</ele><time>2026-04-18T13:21:51.964Z</time></trkpt><trkpt lat="43.38650183333333" lon="10.643497333333334"><ele>252.0</ele><time>2026-04-18T13:21:52.952Z</time></trkpt><trkpt lat="43.38659316666667" lon="10.6435115"><ele>253.6</ele><time>2026-04-18T13:21:53.954Z</time></trkpt><trkpt lat="43.386689666666676" lon="10.643528166666666"><ele>255.2</ele><time>2026-04-18T13:21:54.952Z</time></trkpt><trkpt lat="43.38678883333334" lon="10.643544000000002"><ele>256.8</ele><time>2026-04-18T13:21:55.957Z</time></trkpt><trkpt lat="43.38689383333334" lon="10.643560500000001"><ele>258.4</ele><time>2026-04-18T13:21:56.989Z</time></trkpt><trkpt lat="43.387003666666665" lon="10.643578166666668"><ele>260.0</ele><time>2026-04-18T13:21:57.957Z</time></trkpt><trkpt lat="43.38711216666667" lon="10.643597833333335"><ele>260.2</ele><time>2026-04-18T13:21:58.953Z</time></trkpt><trkpt lat="43.38721266666666" lon="10.643615833333335"><ele>260.4</ele><time>2026-04-18T13:21:59.951Z</time></trkpt><trkpt lat="43.38730583333333" lon="10.6436345"><ele>260.6</ele><time>2026-04-18T13:22:00.96Z</time></trkpt><trkpt lat="43.3873885" lon="10.643657666666664"><ele>260.8</ele><time>2026-04-18T13:22:01.961Z</time></trkpt><trkpt lat="43.387458833333326" lon="10.643686999999998"><ele>261.0</ele><time>2026-04-18T13:22:02.957Z</time></trkpt><trkpt lat="43.387565166666676" lon="10.643727999999998"><ele>261.0</ele><time>2026-04-18T13:22:04.973Z</time></trkpt><trkpt lat="43.387657999999995" lon="10.6436435"><ele>261.0</ele><time>2026-04-18T13:22:07.012Z</time></trkpt><trkpt lat="43.38766616666667" lon="10.643501833333335"><ele>261.0</ele><time>2026-04-18T13:22:08.967Z</time></trkpt><trkpt lat="43.387682500000004" lon="10.643347166666668"><ele>261.0</ele><time>2026-04-18T13:22:10.959Z</time></trkpt><trkpt lat="43.387689333333334" lon="10.643201500000002"><ele>261.0</ele><time>2026-04-18T13:22:12.957Z</time></trkpt><trkpt lat="43.38769683333334" lon="10.643100333333331"><ele>262.3333333333333</ele><time>2026-04-18T13:22:14.956Z</time></trkpt><trkpt lat="43.387705000000004" lon="10.642978666666666"><ele>263.6666666666667</ele><time>2026-04-18T13:22:16.957Z</time></trkpt><trkpt lat="43.387713000000005" lon="10.642847833333335"><ele>265.0</ele><time>2026-04-18T13:22:18.968Z</time></trkpt><trkpt lat="43.38772316666667" lon="10.642706166666668"><ele>266.33333333333337</ele><time>2026-04-18T13:22:20.954Z</time></trkpt><trkpt lat="43.38772949999999" lon="10.642591000000001"><ele>267.6666666666667</ele><time>2026-04-18T13:22:21.969Z</time></trkpt><trkpt lat="43.387733666666655" lon="10.642501000000001"><ele>269.0</ele><time>2026-04-18T13:22:22.997Z</time></trkpt><trkpt lat="43.38773883333334" lon="10.642412333333334"><ele>270.2</ele><time>2026-04-18T13:22:23.96Z</time></trkpt><trkpt lat="43.38775016666666" lon="10.642258833333335"><ele>271.4</ele><time>2026-04-18T13:22:25.959Z</time></trkpt><trkpt lat="43.387772833333344" lon="10.642114"><ele>272.6</ele><time>2026-04-18T13:22:27.964Z</time></trkpt><trkpt lat="43.38782833333333" lon="10.641993500000002"><ele>273.8</ele><time>2026-04-18T13:22:29.964Z</time></trkpt><trkpt lat="43.38789083333333" lon="10.641940833333337"><ele>275.0</ele><time>2026-04-18T13:22:31.964Z</time></trkpt><trkpt lat="43.38797733333334" lon="10.64192266666667"><ele>277.4</ele><time>2026-04-18T13:22:33.972Z</time></trkpt><trkpt lat="43.388077833333334" lon="10.641944666666665"><ele>279.8</ele><time>2026-04-18T13:22:35.965Z</time></trkpt><trkpt lat="43.38818633333334" lon="10.641973"><ele>282.2</ele><time>2026-04-18T13:22:37.954Z</time></trkpt><trkpt lat="43.38827716666667" lon="10.641995"><ele>284.6</ele><time>2026-04-18T13:22:38.965Z</time></trkpt><trkpt lat="43.38836716666666" lon="10.642016666666665"><ele>287.0</ele><time>2026-04-18T13:22:40.961Z</time></trkpt><trkpt lat="43.38847616666667" lon="10.642049833333333"><ele>287.0</ele><time>2026-04-18T13:22:42.971Z</time></trkpt><trkpt lat="43.38859166666666" lon="10.642087499999997"><ele>287.0</ele><time>2026-04-18T13:22:44.965Z</time></trkpt><trkpt lat="43.38867499999999" lon="10.642109833333333"><ele>287.0</ele><time>2026-04-18T13:22:46.953Z</time></trkpt><trkpt lat="43.38875483333333" lon="10.642117"><ele>287.0</ele><time>2026-04-18T13:22:49Z</time></trkpt><trkpt lat="43.388847166666665" lon="10.642105833333336"><ele>287.0</ele><time>2026-04-18T13:22:51.965Z</time></trkpt><trkpt lat="43.38894033333333" lon="10.642081333333332"><ele>288.4</ele><time>2026-04-18T13:22:53.958Z</time></trkpt><trkpt lat="43.38901666666667" lon="10.642052499999998"><ele>289.79999999999995</ele><time>2026-04-18T13:22:55.965Z</time></trkpt><trkpt lat="43.38908083333334" lon="10.642025166666667"><ele>291.2</ele><time>2026-04-18T13:22:57.962Z</time></trkpt><trkpt lat="43.38922083333333" lon="10.641975166666668"><ele>292.59999999999997</ele><time>2026-04-18T13:22:59.96Z</time></trkpt><trkpt lat="43.3892835" lon="10.641962166666667"><ele>294.0</ele><time>2026-04-18T13:23:00.989Z</time></trkpt><trkpt lat="43.38938316666666" lon="10.641953166666667"><ele>297.0</ele><time>2026-04-18T13:23:02.958Z</time></trkpt><trkpt lat="43.389452166666665" lon="10.6419485"><ele>300.0</ele><time>2026-04-18T13:23:03.957Z</time></trkpt><trkpt lat="43.38956266666667" lon="10.641938666666665"><ele>303.0</ele><time>2026-04-18T13:23:04.986Z</time></trkpt><trkpt lat="43.38968016666666" lon="10.641921333333334"><ele>306.0</ele><time>2026-04-18T13:23:06.967Z</time></trkpt><trkpt lat="43.389759" lon="10.6419055"><ele>309.0</ele><time>2026-04-18T13:23:07.969Z</time></trkpt><trkpt lat="43.389838833333336" lon="10.641901333333331"><ele>310.0</ele><time>2026-04-18T13:23:08.969Z</time></trkpt><trkpt lat="43.38995883333333" lon="10.641929666666666"><ele>311.0</ele><time>2026-04-18T13:23:09.973Z</time></trkpt><trkpt lat="43.390039666666674" lon="10.641957333333336"><ele>312.0</ele><time>2026-04-18T13:23:10.953Z</time></trkpt><trkpt lat="43.390123333333335" lon="10.641984833333334"><ele>313.0</ele><time>2026-04-18T13:23:11.953Z</time></trkpt><trkpt lat="43.390210499999995" lon="10.641999166666668"><ele>314.0</ele><time>2026-04-18T13:23:12.961Z</time></trkpt><trkpt lat="43.39030250000001" lon="10.642011333333334"><ele>312.59999999999997</ele><time>2026-04-18T13:23:13.961Z</time></trkpt><trkpt lat="43.390399333333335" lon="10.642025499999999"><ele>311.2</ele><time>2026-04-18T13:23:14.958Z</time></trkpt><trkpt lat="43.39049450000001" lon="10.642050333333334"><ele>309.79999999999995</ele><time>2026-04-18T13:23:15.949Z</time></trkpt><trkpt lat="43.390583333333346" lon="10.642064666666665"><ele>308.4</ele><time>2026-04-18T13:23:16.961Z</time></trkpt><trkpt lat="43.3906685" lon="10.642083500000002"><ele>307.0</ele><time>2026-04-18T13:23:17.978Z</time></trkpt><trkpt lat="43.390752" lon="10.642082333333335"><ele>307.0</ele><time>2026-04-18T13:23:19.015Z</time></trkpt><trkpt lat="43.39087566666667" lon="10.642035166666668"><ele>307.0</ele><time>2026-04-18T13:23:20.956Z</time></trkpt><trkpt lat="43.39095033333333" lon="10.641968999999998"><ele>307.0</ele><time>2026-04-18T13:23:21.981Z</time></trkpt><trkpt lat="43.391051166666664" lon="10.6418635"><ele>307.0</ele><time>2026-04-18T13:23:22.985Z</time></trkpt><trkpt lat="43.39120249999999" lon="10.641807833333333"><ele>307.3333333333333</ele><time>2026-04-18T13:23:24.955Z</time></trkpt><trkpt lat="43.39126849999999" lon="10.641834666666666"><ele>307.66666666666663</ele><time>2026-04-18T13:23:25.981Z</time></trkpt><trkpt lat="43.3913205" lon="10.641886166666666"><ele>308.0</ele><time>2026-04-18T13:23:27.005Z</time></trkpt><trkpt lat="43.391436999999996" lon="10.641964666666668"><ele>308.3333333333333</ele><time>2026-04-18T13:23:28.949Z</time></trkpt><trkpt lat="43.39151066666666" lon="10.641975833333333"><ele>308.6666666666667</ele><time>2026-04-18T13:23:29.965Z</time></trkpt><trkpt lat="43.391590166666674" lon="10.641972333333333"><ele>309.0</ele><time>2026-04-18T13:23:30.977Z</time></trkpt><trkpt lat="43.391673499999996" lon="10.6419775"><ele>309.0</ele><time>2026-04-18T13:23:31.965Z</time></trkpt><trkpt lat="43.39176183333334" lon="10.641978"><ele>309.0</ele><time>2026-04-18T13:23:32.957Z</time></trkpt><trkpt lat="43.39185466666666" lon="10.641979666666668"><ele>309.0</ele><time>2026-04-18T13:23:33.97Z</time></trkpt><trkpt lat="43.39194633333334" lon="10.641978"><ele>309.0</ele><time>2026-04-18T13:23:34.982Z</time></trkpt><trkpt lat="43.39210833333333" lon="10.641980333333334"><ele>309.0</ele><time>2026-04-18T13:23:36.957Z</time></trkpt><trkpt lat="43.39217766666667" lon="10.64197666666667"><ele>310.8333333333333</ele><time>2026-04-18T13:23:37.964Z</time></trkpt><trkpt lat="43.39224099999999" lon="10.641974000000001"><ele>312.6666666666667</ele><time>2026-04-18T13:23:38.973Z</time></trkpt><trkpt lat="43.392353500000006" lon="10.641962999999999"><ele>314.5</ele><time>2026-04-18T13:23:41.026Z</time></trkpt><trkpt lat="43.39245116666666" lon="10.641932333333335"><ele>316.33333333333337</ele><time>2026-04-18T13:23:42.973Z</time></trkpt><trkpt lat="43.39253216666666" lon="10.641883166666666"><ele>318.1666666666667</ele><time>2026-04-18T13:23:44.957Z</time></trkpt><trkpt lat="43.392592666666665" lon="10.641822666666666"><ele>320.0</ele><time>2026-04-18T13:23:47.977Z</time></trkpt><trkpt lat="43.39263133333334" lon="10.6417335"><ele>321.6666666666667</ele><time>2026-04-18T13:23:50.963Z</time></trkpt><trkpt lat="43.39265466666667" lon="10.641648666666667"><ele>323.33333333333337</ele><time>2026-04-18T13:23:52.966Z</time></trkpt><trkpt lat="43.392688" lon="10.6415255"><ele>325.0</ele><time>2026-04-18T13:23:55.975Z</time></trkpt><trkpt lat="43.39271116666667" lon="10.641435999999999"><ele>326.6666666666667</ele><time>2026-04-18T13:23:57.965Z</time></trkpt><trkpt lat="43.3927425" lon="10.641315500000001"><ele>328.3333333333333</ele><time>2026-04-18T13:23:59.963Z</time></trkpt><trkpt lat="43.392777499999994" lon="10.641185666666669"><ele>330.0</ele><time>2026-04-18T13:24:02.958Z</time></trkpt><trkpt lat="43.392803333333326" lon="10.641084833333332"><ele>331.5</ele><time>2026-04-18T13:24:04.981Z</time></trkpt><trkpt lat="43.392830000000004" lon="10.640986000000002"><ele>333.0</ele><time>2026-04-18T13:24:06.966Z</time></trkpt><trkpt lat="43.39285566666667" lon="10.640880166666665"><ele>334.5</ele><time>2026-04-18T13:24:08.983Z</time></trkpt><trkpt lat="43.39289133333333" lon="10.640737333333334"><ele>336.0</ele><time>2026-04-18T13:24:10.953Z</time></trkpt><trkpt lat="43.39292600000001" lon="10.640630833333333"><ele>337.5</ele><time>2026-04-18T13:24:12.965Z</time></trkpt><trkpt lat="43.3929575" lon="10.640551499999999"><ele>339.0</ele><time>2026-04-18T13:24:14.954Z</time></trkpt><trkpt lat="43.392998000000006" lon="10.640480333333334"><ele>340.8333333333333</ele><time>2026-04-18T13:24:15.964Z</time></trkpt><trkpt lat="43.393066" lon="10.640410333333334"><ele>342.6666666666667</ele><time>2026-04-18T13:24:17.954Z</time></trkpt><trkpt lat="43.393136999999996" lon="10.640375666666667"><ele>344.5</ele><time>2026-04-18T13:24:20.958Z</time></trkpt><trkpt lat="43.39321289873901" lon="10.640406371728067"><ele>346.33333333333337</ele><time>2026-04-18T13:24:24.962Z</time></trkpt><trkpt lat="43.393281250640996" lon="10.640486958153499"><ele>348.1666666666667</ele><time>2026-04-18T13:24:27.957Z</time></trkpt><trkpt lat="43.39333683753739" lon="10.64055795455155"><ele>350.0</ele><time>2026-04-18T13:24:31.077Z</time></trkpt><trkpt lat="43.39338136518719" lon="10.640619250117663"><ele>350.0</ele><time>2026-04-18T13:24:34.994Z</time></trkpt><trkpt lat="43.393432575543656" lon="10.64068995838087"><ele>350.0</ele><time>2026-04-18T13:24:37.97Z</time></trkpt><trkpt lat="43.39348627561359" lon="10.640766285644657"><ele>350.0</ele><time>2026-04-18T13:24:42.974Z</time></trkpt><trkpt lat="43.39354867172757" lon="10.640854973154473"><ele>350.0</ele><time>2026-04-18T13:24:46.97Z</time></trkpt><trkpt lat="43.393611954079624" lon="10.640944920281616"><ele>350.0</ele><time>2026-04-18T13:24:49.967Z</time></trkpt><trkpt lat="43.39367245781541" lon="10.641031903179746"><ele>350.0</ele><time>2026-04-18T13:24:52.953Z</time></trkpt><trkpt lat="43.393728795376454" lon="10.641124269525182"><ele>350.6666666666667</ele><time>2026-04-18T13:24:55.984Z</time></trkpt><trkpt lat="43.39376833303698" lon="10.641194824955592"><ele>351.33333333333337</ele><time>2026-04-18T13:24:57.96Z</time></trkpt><trkpt lat="43.39381821552377" lon="10.64126874855488"><ele>352.0</ele><time>2026-04-18T13:25:01.108Z</time></trkpt><trkpt lat="43.39390596592892" lon="10.64131348872368"><ele>352.6666666666667</ele><time>2026-04-18T13:25:02.963Z</time></trkpt><trkpt lat="43.394019907123706" lon="10.641305084909044"><ele>353.3333333333333</ele><time>2026-04-18T13:25:05.966Z</time></trkpt><trkpt lat="43.39410516666667" lon="10.641270666666665"><ele>354.0</ele><time>2026-04-18T13:25:07.97Z</time></trkpt><trkpt lat="43.39418333333333" lon="10.641258"><ele>354.0</ele><time>2026-04-18T13:25:09.957Z</time></trkpt><trkpt lat="43.39426816666667" lon="10.641242666666669"><ele>354.0</ele><time>2026-04-18T13:25:10.967Z</time></trkpt><trkpt lat="43.39435433333333" lon="10.6412235"><ele>354.0</ele><time>2026-04-18T13:25:12.97Z</time></trkpt><trkpt lat="43.394490499999996" lon="10.641196333333335"><ele>354.0</ele><time>2026-04-18T13:25:14.958Z</time></trkpt><trkpt lat="43.39459716666667" lon="10.641175833333334"><ele>354.0</ele><time>2026-04-18T13:25:16.978Z</time></trkpt><trkpt lat="43.39469733333334" lon="10.641165"><ele>354.8333333333333</ele><time>2026-04-18T13:25:18.966Z</time></trkpt><trkpt lat="43.39478016666667" lon="10.641148666666668"><ele>355.6666666666667</ele><time>2026-04-18T13:25:21.982Z</time></trkpt><trkpt lat="43.394853" lon="10.641123"><ele>356.5</ele><time>2026-04-18T13:25:23.955Z</time></trkpt><trkpt lat="43.394968333333324" lon="10.641078499999999"><ele>357.33333333333337</ele><time>2026-04-18T13:25:25.991Z</time></trkpt><trkpt lat="43.39504516666666" lon="10.641057333333334"><ele>358.1666666666667</ele><time>2026-04-18T13:25:27.971Z</time></trkpt><trkpt lat="43.395127833333326" lon="10.6410405"><ele>359.0</ele><time>2026-04-18T13:25:28.966Z</time></trkpt><trkpt lat="43.39523883333333" lon="10.641033166666666"><ele>362.0</ele><time>2026-04-18T13:25:30.987Z</time></trkpt><trkpt lat="43.395320166666664" lon="10.6410275"><ele>365.0</ele><time>2026-04-18T13:25:32.963Z</time></trkpt><trkpt lat="43.3954265" lon="10.641030999999998"><ele>368.0</ele><time>2026-04-18T13:25:34.994Z</time></trkpt><trkpt lat="43.395501333333335" lon="10.641036833333333"><ele>371.0</ele><time>2026-04-18T13:25:36.959Z</time></trkpt><trkpt lat="43.395568133242385" lon="10.64100321998391"><ele>374.0</ele><time>2026-04-18T13:25:39.955Z</time></trkpt><trkpt lat="43.3956447919895" lon="10.640991698124964"><ele>377.0</ele><time>2026-04-18T13:25:41.961Z</time></trkpt><trkpt lat="43.39573662774928" lon="10.640977895151918"><ele>377.20000000000005</ele><time>2026-04-18T13:25:43.949Z</time></trkpt><trkpt lat="43.395827556568214" lon="10.640968868383274"><ele>377.4</ele><time>2026-04-18T13:25:45.971Z</time></trkpt><trkpt lat="43.39591292879672" lon="10.64095970822414"><ele>377.6</ele><time>2026-04-18T13:25:47.986Z</time></trkpt><trkpt lat="43.396006368056184" lon="10.640945128940725"><ele>377.79999999999995</ele><time>2026-04-18T13:25:49.963Z</time></trkpt><trkpt lat="43.39614138103141" lon="10.640919025211875"><ele>378.0</ele><time>2026-04-18T13:25:51.994Z</time></trkpt><trkpt lat="43.39625916523865" lon="10.640887490393075"><ele>377.4</ele><time>2026-04-18T13:25:53.967Z</time></trkpt><trkpt lat="43.39634016078473" lon="10.640859549863913"><ele>376.79999999999995</ele><time>2026-04-18T13:25:55.98Z</time></trkpt><trkpt lat="43.39643704886492" lon="10.64082465147207"><ele>376.2</ele><time>2026-04-18T13:25:57.959Z</time></trkpt><trkpt lat="43.39652701516533" lon="10.640786346809518"><ele>375.6</ele><time>2026-04-18T13:25:59.972Z</time></trkpt><trkpt lat="43.39662372459387" lon="10.640749652973016"><ele>375.0</ele><time>2026-04-18T13:26:01.955Z</time></trkpt><trkpt lat="43.39669613537503" lon="10.640731334350486"><ele>375.0</ele><time>2026-04-18T13:26:02.954Z</time></trkpt><trkpt lat="43.396762116565064" lon="10.640736511126002"><ele>375.0</ele><time>2026-04-18T13:26:04.992Z</time></trkpt><trkpt lat="43.396842686745806" lon="10.64077383357461"><ele>375.0</ele><time>2026-04-18T13:26:07.965Z</time></trkpt><trkpt lat="43.39691800000001" lon="10.640825166666664"><ele>375.0</ele><time>2026-04-18T13:26:10.959Z</time></trkpt><trkpt lat="43.39700633333334" lon="10.640855333333331"><ele>375.0</ele><time>2026-04-18T13:26:13.969Z</time></trkpt><trkpt lat="43.39710366666666" lon="10.640891166666664"><ele>375.0</ele><time>2026-04-18T13:26:16.99Z</time></trkpt><trkpt lat="43.39717316666667" lon="10.6409115"><ele>375.2</ele><time>2026-04-18T13:26:18.959Z</time></trkpt><trkpt lat="43.39726283333333" lon="10.6409285"><ele>375.4</ele><time>2026-04-18T13:26:20.974Z</time></trkpt><trkpt lat="43.3973425" lon="10.640938999999998"><ele>375.6</ele><time>2026-04-18T13:26:22.962Z</time></trkpt><trkpt lat="43.39744300000001" lon="10.640946333333332"><ele>375.8</ele><time>2026-04-18T13:26:24.967Z</time></trkpt><trkpt lat="43.39753916666667" lon="10.640951500000002"><ele>376.0</ele><time>2026-04-18T13:26:26.959Z</time></trkpt><trkpt lat="43.39763166666666" lon="10.640932000000001"><ele>376.0</ele><time>2026-04-18T13:26:28.95Z</time></trkpt><trkpt lat="43.39772610137296" lon="10.640924486504852"><ele>376.0</ele><time>2026-04-18T13:26:30.954Z</time></trkpt><trkpt lat="43.397815635656386" lon="10.640885948040978"><ele>376.0</ele><time>2026-04-18T13:26:32.954Z</time></trkpt><trkpt lat="43.39789623519679" lon="10.640823914521697"><ele>376.0</ele><time>2026-04-18T13:26:34.95Z</time></trkpt><trkpt lat="43.39797116666667" lon="10.640749666666666"><ele>376.0</ele><time>2026-04-18T13:26:36.968Z</time></trkpt><trkpt lat="43.39806416666667" lon="10.640694833333336"><ele>376.4</ele><time>2026-04-18T13:26:38.992Z</time></trkpt><trkpt lat="43.398175166666675" lon="10.640639833333335"><ele>376.8</ele><time>2026-04-18T13:26:40.956Z</time></trkpt><trkpt lat="43.39823716666667" lon="10.640621166666664"><ele>377.2</ele><time>2026-04-18T13:26:41.959Z</time></trkpt><trkpt lat="43.3983385" lon="10.640599166666668"><ele>377.59999999999997</ele><time>2026-04-18T13:26:42.975Z</time></trkpt><trkpt lat="43.39842133333333" lon="10.640588"><ele>378.0</ele><time>2026-04-18T13:26:43.954Z</time></trkpt><trkpt lat="43.398515333333336" lon="10.640579166666665"><ele>378.0</ele><time>2026-04-18T13:26:44.955Z</time></trkpt><trkpt lat="43.398615666666664" lon="10.640576166666666"><ele>378.0</ele><time>2026-04-18T13:26:45.961Z</time></trkpt><trkpt lat="43.39876983333334" lon="10.640571833333334"><ele>378.0</ele><time>2026-04-18T13:26:47.967Z</time></trkpt><trkpt lat="43.398876" lon="10.640584333333335"><ele>378.0</ele><time>2026-04-18T13:26:48.963Z</time></trkpt><trkpt lat="43.3989825" lon="10.640612833333334"><ele>380.0</ele><time>2026-04-18T13:26:49.959Z</time></trkpt><trkpt lat="43.39913316666666" lon="10.640680666666666"><ele>382.0</ele><time>2026-04-18T13:26:50.977Z</time></trkpt><trkpt lat="43.399225166666675" lon="10.640724333333333"><ele>384.0</ele><time>2026-04-18T13:26:51.995Z</time></trkpt><trkpt lat="43.39931166666667" lon="10.640771166666665"><ele>386.0</ele><time>2026-04-18T13:26:52.966Z</time></trkpt><trkpt lat="43.39946133333333" lon="10.640896166666668"><ele>385.99999999999994</ele><time>2026-04-18T13:26:54.969Z</time></trkpt><trkpt lat="43.39952916666667" lon="10.640959000000002"><ele>386.0</ele><time>2026-04-18T13:26:55.993Z</time></trkpt><trkpt lat="43.3995945" lon="10.641013333333333"><ele>386.0</ele><time>2026-04-18T13:26:56.963Z</time></trkpt><trkpt lat="43.39966066666666" lon="10.641055999999999"><ele>386.0</ele><time>2026-04-18T13:26:57.961Z</time></trkpt><trkpt lat="43.399728833333334" lon="10.6410815"><ele>385.99999999999994</ele><time>2026-04-18T13:26:58.974Z</time></trkpt><trkpt lat="43.39983454540293" lon="10.641064697265776"><ele>386.0</ele><time>2026-04-18T13:27:01.013Z</time></trkpt><trkpt lat="43.39982933916047" lon="10.640915570199436"><ele>386.0</ele><time>2026-04-18T13:27:03.055Z</time></trkpt><trkpt lat="43.39974650723121" lon="10.64084097130924"><ele>386.0</ele><time>2026-04-18T13:27:05.004Z</time></trkpt><trkpt lat="43.39965260785918" lon="10.6407261566056"><ele>386.0</ele><time>2026-04-18T13:27:06.962Z</time></trkpt><trkpt lat="43.39959749999999" lon="10.640659000000001"><ele>386.0</ele><time>2026-04-18T13:27:07.984Z</time></trkpt><trkpt lat="43.399553166666664" lon="10.640523666666663"><ele>386.0</ele><time>2026-04-18T13:27:09.959Z</time></trkpt><trkpt lat="43.39956146963765" lon="10.640394117003687"><ele>388.20000000000005</ele><time>2026-04-18T13:27:10.977Z</time></trkpt><trkpt lat="43.3995817641605" lon="10.640212896607865"><ele>390.40000000000003</ele><time>2026-04-18T13:27:12.987Z</time></trkpt><trkpt lat="43.39956607621369" lon="10.639999164981637"><ele>392.6</ele><time>2026-04-18T13:27:14.955Z</time></trkpt><trkpt lat="43.39954780053593" lon="10.639891649270115"><ele>394.8</ele><time>2026-04-18T13:27:15.964Z</time></trkpt><trkpt lat="43.39952533970935" lon="10.639789970417633"><ele>397.0</ele><time>2026-04-18T13:27:16.979Z</time></trkpt><trkpt lat="43.399501617259766" lon="10.639689937323293"><ele>397.0</ele><time>2026-04-18T13:27:18.008Z</time></trkpt><trkpt lat="43.399475162802005" lon="10.63958451830656"><ele>397.0</ele><time>2026-04-18T13:27:18.96Z</time></trkpt><trkpt lat="43.3994285" lon="10.639484166666668"><ele>397.0</ele><time>2026-04-18T13:27:20.06Z</time></trkpt><trkpt lat="43.39939533333333" lon="10.639371833333332"><ele>397.0</ele><time>2026-04-18T13:27:20.981Z</time></trkpt><trkpt lat="43.399297999999995" lon="10.639145333333333"><ele>397.0</ele><time>2026-04-18T13:27:22.956Z</time></trkpt><trkpt lat="43.39923766666668" lon="10.639038833333332"><ele>400.0</ele><time>2026-04-18T13:27:23.969Z</time></trkpt><trkpt lat="43.39918866884137" lon="10.638924014328234"><ele>403.0</ele><time>2026-04-18T13:27:25.064Z</time></trkpt><trkpt lat="43.39912711080045" lon="10.638829199450315"><ele>406.0</ele><time>2026-04-18T13:27:25.984Z</time></trkpt><trkpt lat="43.39906679415961" lon="10.638736296641492"><ele>409.0</ele><time>2026-04-18T13:27:26.962Z</time></trkpt><trkpt lat="43.399009239954836" lon="10.638647648698141"><ele>412.0</ele><time>2026-04-18T13:27:27.968Z</time></trkpt><trkpt lat="43.39895297047139" lon="10.638560979489101"><ele>414.40000000000003</ele><time>2026-04-18T13:27:29.068Z</time></trkpt><trkpt lat="43.39888695795318" lon="10.638435552505907"><ele>416.8</ele><time>2026-04-18T13:27:31.01Z</time></trkpt><trkpt lat="43.39887340754993" lon="10.63833302149135"><ele>419.2</ele><time>2026-04-18T13:27:31.969Z</time></trkpt><trkpt lat="43.39888039198069" lon="10.638175663850554"><ele>421.6</ele><time>2026-04-18T13:27:32.964Z</time></trkpt><trkpt lat="43.3988932842012" lon="10.638007624844015"><ele>424.0</ele><time>2026-04-18T13:27:34.973Z</time></trkpt><trkpt lat="43.39889503829219" lon="10.637889016940267"><ele>424.6</ele><time>2026-04-18T13:27:35.967Z</time></trkpt><trkpt lat="43.398875436161276" lon="10.63775725066226"><ele>425.2</ele><time>2026-04-18T13:27:37.053Z</time></trkpt><trkpt lat="43.39884278003441" lon="10.6376308251084"><ele>425.80000000000007</ele><time>2026-04-18T13:27:38.081Z</time></trkpt><trkpt lat="43.398796300588344" lon="10.637443153930919"><ele>426.40000000000003</ele><time>2026-04-18T13:27:38.98Z</time></trkpt><trkpt lat="43.39876706696919" lon="10.637321867314837"><ele>427.0</ele><time>2026-04-18T13:27:40.024Z</time></trkpt><trkpt lat="43.39873122975273" lon="10.637205555982936"><ele>428.25</ele><time>2026-04-18T13:27:40.961Z</time></trkpt><trkpt lat="43.39863886556382" lon="10.636985172250768"><ele>429.5</ele><time>2026-04-18T13:27:42.996Z</time></trkpt><trkpt lat="43.39852679226582" lon="10.636865075561644"><ele>430.75</ele><time>2026-04-18T13:27:44.965Z</time></trkpt><trkpt lat="43.39844835481871" lon="10.636798938967832"><ele>432.0</ele><time>2026-04-18T13:27:45.96Z</time></trkpt><trkpt lat="43.39833087576226" lon="10.636707757899813"><ele>434.20000000000005</ele><time>2026-04-18T13:27:46.988Z</time></trkpt><trkpt lat="43.39825499613316" lon="10.636643077047092"><ele>436.40000000000003</ele><time>2026-04-18T13:27:47.969Z</time></trkpt><trkpt lat="43.39817133333333" lon="10.636594833333334"><ele>438.59999999999997</ele><time>2026-04-18T13:27:48.96Z</time></trkpt><trkpt lat="43.3980975" lon="10.636527999999998"><ele>440.79999999999995</ele><time>2026-04-18T13:27:49.956Z</time></trkpt><trkpt lat="43.39798088263844" lon="10.636356530501605"><ele>443.0</ele><time>2026-04-18T13:27:52.003Z</time></trkpt><trkpt lat="43.39791980369002" lon="10.636270784383322"><ele>444.0</ele><time>2026-04-18T13:27:52.951Z</time></trkpt><trkpt lat="43.39786535789538" lon="10.636185240059518"><ele>444.99999999999994</ele><time>2026-04-18T13:27:53.955Z</time></trkpt><trkpt lat="43.39780937868209" lon="10.636095491314018"><ele>445.99999999999994</ele><time>2026-04-18T13:27:54.972Z</time></trkpt><trkpt lat="43.39772346928213" lon="10.635958649626296"><ele>447.0</ele><time>2026-04-18T13:27:56.96Z</time></trkpt><trkpt lat="43.39766577404422" lon="10.635868069493226"><ele>448.0</ele><time>2026-04-18T13:27:57.96Z</time></trkpt><trkpt lat="43.39760718159219" lon="10.635777248297503"><ele>450.5</ele><time>2026-04-18T13:27:58.961Z</time></trkpt><trkpt lat="43.397507810099256" lon="10.635639283964018"><ele>453.0</ele><time>2026-04-18T13:28:00.005Z</time></trkpt><trkpt lat="43.397443916105566" lon="10.635549438391564"><ele>455.5</ele><time>2026-04-18T13:28:00.96Z</time></trkpt><trkpt lat="43.39735916666667" lon="10.635404833333332"><ele>458.0</ele><time>2026-04-18T13:28:02.964Z</time></trkpt><trkpt lat="43.397345363847485" lon="10.63522522857203"><ele>459.66666666666663</ele><time>2026-04-18T13:28:03.979Z</time></trkpt><trkpt lat="43.39734003921571" lon="10.635101248859312"><ele>461.3333333333333</ele><time>2026-04-18T13:28:05.013Z</time></trkpt><trkpt lat="43.3973361945117" lon="10.634977419949879"><ele>463.0</ele><time>2026-04-18T13:28:05.965Z</time></trkpt><trkpt lat="43.39733578429735" lon="10.634855358703671"><ele>464.66666666666663</ele><time>2026-04-18T13:28:06.959Z</time></trkpt><trkpt lat="43.39733788821264" lon="10.63473793398372"><ele>466.3333333333333</ele><time>2026-04-18T13:28:07.976Z</time></trkpt><trkpt lat="43.39734027550903" lon="10.63463305759359"><ele>468.0</ele><time>2026-04-18T13:28:08.982Z</time></trkpt><trkpt lat="43.39734241839069" lon="10.634538918449735"><ele>468.2</ele><time>2026-04-18T13:28:09.954Z</time></trkpt><trkpt lat="43.39734536143897" lon="10.634451791761798"><ele>468.4</ele><time>2026-04-18T13:28:10.96Z</time></trkpt><trkpt lat="43.3973602828234" lon="10.6342875540523"><ele>468.59999999999997</ele><time>2026-04-18T13:28:13.002Z</time></trkpt><trkpt lat="43.397399135251035" lon="10.634107117430373"><ele>468.79999999999995</ele><time>2026-04-18T13:28:14.964Z</time></trkpt><trkpt lat="43.3974245160032" lon="10.63399858083014"><ele>469.0</ele><time>2026-04-18T13:28:15.961Z</time></trkpt><trkpt lat="43.39745764165539" lon="10.633830380441033"><ele>469.0</ele><time>2026-04-18T13:28:18.016Z</time></trkpt><trkpt lat="43.39749444028737" lon="10.63364279204747"><ele>469.0</ele><time>2026-04-18T13:28:19.028Z</time></trkpt><trkpt lat="43.397518670865466" lon="10.63351742161243"><ele>469.0</ele><time>2026-04-18T13:28:19.957Z</time></trkpt><trkpt lat="43.39755266863362" lon="10.633338487470278"><ele>469.0</ele><time>2026-04-18T13:28:22.004Z</time></trkpt><trkpt lat="43.39757462398034" lon="10.633221227579613"><ele>468.79999999999995</ele><time>2026-04-18T13:28:22.968Z</time></trkpt><trkpt lat="43.3975968588002" lon="10.63310382573709"><ele>468.59999999999997</ele><time>2026-04-18T13:28:23.962Z</time></trkpt><trkpt lat="43.39762040268616" lon="10.632984632539971"><ele>468.4</ele><time>2026-04-18T13:28:24.977Z</time></trkpt><trkpt lat="43.39764314023014" lon="10.632869520625071"><ele>468.2</ele><time>2026-04-18T13:28:25.957Z</time></trkpt><trkpt lat="43.39766484066254" lon="10.632759393997528"><ele>468.0</ele><time>2026-04-18T13:28:26.956Z</time></trkpt><trkpt lat="43.397698075919834" lon="10.632590561251353"><ele>468.0</ele><time>2026-04-18T13:28:27.964Z</time></trkpt><trkpt lat="43.397733245490265" lon="10.632411902017997"><ele>467.99999999999994</ele><time>2026-04-18T13:28:30.009Z</time></trkpt><trkpt lat="43.39775704881873" lon="10.63229098315421"><ele>467.99999999999994</ele><time>2026-04-18T13:28:30.965Z</time></trkpt><trkpt lat="43.39777831195737" lon="10.632163343983397"><ele>468.0</ele><time>2026-04-18T13:28:31.96Z</time></trkpt><trkpt lat="43.39779877528096" lon="10.632042254648656"><ele>468.0</ele><time>2026-04-18T13:28:32.965Z</time></trkpt><trkpt lat="43.39782646112339" lon="10.63193942234044"><ele>468.75</ele><time>2026-04-18T13:28:33.977Z</time></trkpt><trkpt lat="43.397861436908336" lon="10.631842153414379"><ele>469.5</ele><time>2026-04-18T13:28:34.961Z</time></trkpt><trkpt lat="43.39792380471977" lon="10.631700077973678"><ele>470.25</ele><time>2026-04-18T13:28:35.962Z</time></trkpt><trkpt lat="43.39802415487691" lon="10.631515717822293"><ele>471.0</ele><time>2026-04-18T13:28:37.992Z</time></trkpt><trkpt lat="43.39807347003447" lon="10.631415715100633"><ele>471.3333333333333</ele><time>2026-04-18T13:28:38.989Z</time></trkpt><trkpt lat="43.39811905642174" lon="10.631315173642044"><ele>471.66666666666663</ele><time>2026-04-18T13:28:39.958Z</time></trkpt><trkpt lat="43.39815949173652" lon="10.631212282022744"><ele>472.0</ele><time>2026-04-18T13:28:40.96Z</time></trkpt><trkpt lat="43.39819575249765" lon="10.631108351349708"><ele>472.3333333333333</ele><time>2026-04-18T13:28:41.973Z</time></trkpt><trkpt lat="43.398229276524276" lon="10.630992626100117"><ele>472.66666666666663</ele><time>2026-04-18T13:28:42.982Z</time></trkpt><trkpt lat="43.39824570982684" lon="10.630859871663803"><ele>473.0</ele><time>2026-04-18T13:28:43.953Z</time></trkpt><trkpt lat="43.39822532960653" lon="10.630645975318782"><ele>474.2</ele><time>2026-04-18T13:28:45.964Z</time></trkpt><trkpt lat="43.3981585" lon="10.630459"><ele>475.4</ele><time>2026-04-18T13:28:47.005Z</time></trkpt><trkpt lat="43.39814675288964" lon="10.630329279841124"><ele>476.59999999999997</ele><time>2026-04-18T13:28:47.959Z</time></trkpt><trkpt lat="43.39813562794705" lon="10.630210804522758"><ele>477.79999999999995</ele><time>2026-04-18T13:28:48.961Z</time></trkpt><trkpt lat="43.398131596878436" lon="10.630090549147194"><ele>479.0</ele><time>2026-04-18T13:28:49.963Z</time></trkpt><trkpt lat="43.39814141526338" lon="10.629856033707982"><ele>480.99999999999994</ele><time>2026-04-18T13:28:51.97Z</time></trkpt><trkpt lat="43.398145949524334" lon="10.629734147963063"><ele>483.0</ele><time>2026-04-18T13:28:52.968Z</time></trkpt><trkpt lat="43.39814942660608" lon="10.629610672185027"><ele>485.0</ele><time>2026-04-18T13:28:53.956Z</time></trkpt><trkpt lat="43.39815282919034" lon="10.629489841474287"><ele>487.0</ele><time>2026-04-18T13:28:54.981Z</time></trkpt><trkpt lat="43.39815536992965" lon="10.629370155040577"><ele>488.99999999999994</ele><time>2026-04-18T13:28:55.962Z</time></trkpt><trkpt lat="43.39815786529508" lon="10.629251273289121"><ele>491.0</ele><time>2026-04-18T13:28:56.957Z</time></trkpt><trkpt lat="43.39816030095713" lon="10.629135235673132"><ele>491.66666666666663</ele><time>2026-04-18T13:28:57.962Z</time></trkpt><trkpt lat="43.39816075029936" lon="10.629019999999999"><ele>492.3333333333333</ele><time>2026-04-18T13:28:58.967Z</time></trkpt><trkpt lat="43.39815853272542" lon="10.628907190318058"><ele>493.0</ele><time>2026-04-18T13:29:00.109Z</time></trkpt><trkpt lat="43.398156509419074" lon="10.62879659621407"><ele>493.66666666666663</ele><time>2026-04-18T13:29:00.963Z</time></trkpt><trkpt lat="43.3981585333736" lon="10.628685652559906"><ele>494.3333333333333</ele><time>2026-04-18T13:29:01.96Z</time></trkpt><trkpt lat="43.398167011306526" lon="10.628571910606391"><ele>495.0</ele><time>2026-04-18T13:29:02.961Z</time></trkpt><trkpt lat="43.3981688155665" lon="10.628453719760168"><ele>495.3333333333333</ele><time>2026-04-18T13:29:03.99Z</time></trkpt><trkpt lat="43.39816199867337" lon="10.628336865120822"><ele>495.66666666666663</ele><time>2026-04-18T13:29:04.956Z</time></trkpt><trkpt lat="43.398153891418275" lon="10.628238331843647"><ele>496.0</ele><time>2026-04-18T13:29:05.963Z</time></trkpt><trkpt lat="43.39815005027765" lon="10.628085666666667"><ele>496.3333333333333</ele><time>2026-04-18T13:29:08.189Z</time></trkpt><trkpt lat="43.398152427226286" lon="10.62797641050994"><ele>496.66666666666663</ele><time>2026-04-18T13:29:09.953Z</time></trkpt><trkpt lat="43.39815618439087" lon="10.627857412724252"><ele>497.0</ele><time>2026-04-18T13:29:11.956Z</time></trkpt><trkpt lat="43.398141833333334" lon="10.627769166666665"><ele>497.66666666666663</ele><time>2026-04-18T13:29:13.956Z</time></trkpt><trkpt lat="43.39815616931911" lon="10.627625968395584"><ele>498.3333333333333</ele><time>2026-04-18T13:29:16.995Z</time></trkpt><trkpt lat="43.39813187663195" lon="10.627542610070709"><ele>499.0</ele><time>2026-04-18T13:29:18.952Z</time></trkpt><trkpt lat="43.39807585622895" lon="10.627395938667743"><ele>499.66666666666663</ele><time>2026-04-18T13:29:20.984Z</time></trkpt><trkpt lat="43.398044822325936" lon="10.627320318393185"><ele>500.3333333333333</ele><time>2026-04-18T13:29:21.964Z</time></trkpt><trkpt lat="43.39801745833418" lon="10.627241279028917"><ele>501.0</ele><time>2026-04-18T13:29:22.959Z</time></trkpt><trkpt lat="43.39799132988812" lon="10.627162065022464"><ele>502.0</ele><time>2026-04-18T13:29:23.961Z</time></trkpt><trkpt lat="43.39796982504433" lon="10.627006133052207"><ele>503.0</ele><time>2026-04-18T13:29:25.968Z</time></trkpt><trkpt lat="43.39802171931078" lon="10.626811430950774"><ele>504.0</ele><time>2026-04-18T13:29:27.969Z</time></trkpt><trkpt lat="43.39813380634788" lon="10.626651839164943"><ele>505.0</ele><time>2026-04-18T13:29:29.97Z</time></trkpt><trkpt lat="43.39820165250074" lon="10.626580769413506"><ele>506.2</ele><time>2026-04-18T13:29:30.955Z</time></trkpt><trkpt lat="43.398279488573976" lon="10.626513652558488"><ele>507.4</ele><time>2026-04-18T13:29:31.957Z</time></trkpt><trkpt lat="43.39836096112312" lon="10.626441973927943"><ele>508.6</ele><time>2026-04-18T13:29:32.958Z</time></trkpt><trkpt lat="43.39843923311749" lon="10.62636109008751"><ele>509.8</ele><time>2026-04-18T13:29:34.096Z</time></trkpt><trkpt lat="43.39853787889467" lon="10.626228777859243"><ele>511.0</ele><time>2026-04-18T13:29:35.966Z</time></trkpt><trkpt lat="43.39859008192983" lon="10.626075443060596"><ele>512.8333333333334</ele><time>2026-04-18T13:29:36.965Z</time></trkpt><trkpt lat="43.39856683333334" lon="10.625985500000002"><ele>514.6666666666667</ele><time>2026-04-18T13:29:37.984Z</time></trkpt><trkpt lat="43.39853157786584" lon="10.625888869253075"><ele>516.5</ele><time>2026-04-18T13:29:39.962Z</time></trkpt><trkpt lat="43.398442833333334" lon="10.625880666666667"><ele>518.3333333333334</ele><time>2026-04-18T13:29:42.958Z</time></trkpt><trkpt lat="43.39836357403372" lon="10.62586972273368"><ele>520.1666666666666</ele><time>2026-04-18T13:29:45.972Z</time></trkpt><trkpt lat="43.3982778370957" lon="10.625879399099208"><ele>522.0</ele><time>2026-04-18T13:29:47.961Z</time></trkpt><trkpt lat="43.39818304227344" lon="10.62582258773937"><ele>522.0</ele><time>2026-04-18T13:29:49.983Z</time></trkpt><trkpt lat="43.39813000000001" lon="10.625772"><ele>522.0</ele><time>2026-04-18T13:29:50.977Z</time></trkpt><trkpt lat="43.398101666666655" lon="10.625686333333332"><ele>522.0</ele><time>2026-04-18T13:29:51.961Z</time></trkpt><trkpt lat="43.398109692959856" lon="10.625537858779705"><ele>522.0</ele><time>2026-04-18T13:29:53.977Z</time></trkpt><trkpt lat="43.398106613321" lon="10.625430317886353"><ele>522.0</ele><time>2026-04-18T13:29:54.988Z</time></trkpt><trkpt lat="43.39810442453549" lon="10.625322010732273"><ele>522.0</ele><time>2026-04-18T13:29:55.957Z</time></trkpt><trkpt lat="43.39810425019003" lon="10.625224500000002"><ele>523.2</ele><time>2026-04-18T13:29:56.965Z</time></trkpt><trkpt lat="43.398106547404254" lon="10.625065559477372"><ele>524.4000000000001</ele><time>2026-04-18T13:29:58.982Z</time></trkpt><trkpt lat="43.39811394470393" lon="10.624898830508796"><ele>525.5999999999999</ele><time>2026-04-18T13:30:00.978Z</time></trkpt><trkpt lat="43.39811951428747" lon="10.624761989743856"><ele>526.8</ele><time>2026-04-18T13:30:02.97Z</time></trkpt><trkpt lat="43.39812233538951" lon="10.624617729228282"><ele>528.0</ele><time>2026-04-18T13:30:04.959Z</time></trkpt><trkpt lat="43.39812151972843" lon="10.624459333176722"><ele>528.6666666666666</ele><time>2026-04-18T13:30:06.963Z</time></trkpt><trkpt lat="43.39811527210564" lon="10.624340046439876"><ele>529.3333333333334</ele><time>2026-04-18T13:30:09.113Z</time></trkpt><trkpt lat="43.39809026997511" lon="10.62417490147374"><ele>530.0</ele><time>2026-04-18T13:30:10.962Z</time></trkpt><trkpt lat="43.39807416120062" lon="10.624086201578214"><ele>530.6666666666667</ele><time>2026-04-18T13:30:11.985Z</time></trkpt><trkpt lat="43.39803783333333" lon="10.62400833333333"><ele>531.3333333333334</ele><time>2026-04-18T13:30:13.021Z</time></trkpt><trkpt lat="43.3980235" lon="10.623918166666666"><ele>532.0</ele><time>2026-04-18T13:30:13.961Z</time></trkpt><trkpt lat="43.39804066475201" lon="10.623823882146414"><ele>532.0</ele><time>2026-04-18T13:30:14.961Z</time></trkpt><trkpt lat="43.39805191126164" lon="10.623731872237178"><ele>532.0</ele><time>2026-04-18T13:30:15.976Z</time></trkpt><trkpt lat="43.39808115061321" lon="10.62364299322255"><ele>532.0</ele><time>2026-04-18T13:30:16.99Z</time></trkpt><trkpt lat="43.398157621148385" lon="10.623530422238897"><ele>532.0</ele><time>2026-04-18T13:30:17.961Z</time></trkpt><trkpt lat="43.39820607869571" lon="10.623447333654644"><ele>532.0</ele><time>2026-04-18T13:30:18.965Z</time></trkpt><trkpt lat="43.39827448915969" lon="10.62332719137232"><ele>532.0</ele><time>2026-04-18T13:30:21.005Z</time></trkpt><trkpt lat="43.398315153741805" lon="10.623251503413186"><ele>532.3333333333334</ele><time>2026-04-18T13:30:21.958Z</time></trkpt><trkpt lat="43.39836862734542" lon="10.623149688816818"><ele>532.6666666666667</ele><time>2026-04-18T13:30:22.958Z</time></trkpt><trkpt lat="43.39841436909108" lon="10.623057795163758"><ele>533.0</ele><time>2026-04-18T13:30:24.981Z</time></trkpt><trkpt lat="43.398458990489246" lon="10.62291674355289"><ele>533.3333333333334</ele><time>2026-04-18T13:30:26.967Z</time></trkpt><trkpt lat="43.39846993044611" lon="10.622830025696029"><ele>533.6666666666666</ele><time>2026-04-18T13:30:27.962Z</time></trkpt><trkpt lat="43.398457166666674" lon="10.622739833333332"><ele>534.0</ele><time>2026-04-18T13:30:28.982Z</time></trkpt><trkpt lat="43.39847506518617" lon="10.622641881573447"><ele>534.3333333333334</ele><time>2026-04-18T13:30:29.996Z</time></trkpt><trkpt lat="43.39846615101868" lon="10.62252842559492"><ele>534.6666666666666</ele><time>2026-04-18T13:30:30.957Z</time></trkpt><trkpt lat="43.39845794876458" lon="10.622394675197892"><ele>535.0</ele><time>2026-04-18T13:30:31.97Z</time></trkpt><trkpt lat="43.39847150469043" lon="10.622276670588407"><ele>535.3333333333333</ele><time>2026-04-18T13:30:32.96Z</time></trkpt><trkpt lat="43.39850342932255" lon="10.622167260418458"><ele>535.6666666666666</ele><time>2026-04-18T13:30:34.014Z</time></trkpt><trkpt lat="43.3985451372055" lon="10.622064378739527"><ele>536.0</ele><time>2026-04-18T13:30:34.971Z</time></trkpt><trkpt lat="43.39859494971404" lon="10.621969577860897"><ele>536.0</ele><time>2026-04-18T13:30:35.966Z</time></trkpt><trkpt lat="43.39864717160844" lon="10.621871791929497"><ele>536.0</ele><time>2026-04-18T13:30:36.961Z</time></trkpt><trkpt lat="43.39869829825038" lon="10.621776057187704"><ele>536.0</ele><time>2026-04-18T13:30:37.998Z</time></trkpt><trkpt lat="43.398749568847364" lon="10.621678869133115"><ele>536.0</ele><time>2026-04-18T13:30:38.958Z</time></trkpt><trkpt lat="43.39878992302671" lon="10.621562117009397"><ele>536.0</ele><time>2026-04-18T13:30:39.958Z</time></trkpt><trkpt lat="43.398794859547586" lon="10.621434371604327"><ele>536.0</ele><time>2026-04-18T13:30:40.961Z</time></trkpt><trkpt lat="43.39878622220202" lon="10.621308531009296"><ele>536.0</ele><time>2026-04-18T13:30:41.965Z</time></trkpt><trkpt lat="43.39877275919936" lon="10.621193299393267"><ele>536.0</ele><time>2026-04-18T13:30:42.961Z</time></trkpt><trkpt lat="43.398773386416856" lon="10.62107700825197"><ele>536.0</ele><time>2026-04-18T13:30:43.958Z</time></trkpt><trkpt lat="43.39878612010681" lon="10.620967611242119"><ele>536.0</ele><time>2026-04-18T13:30:44.971Z</time></trkpt><trkpt lat="43.39881492027022" lon="10.62086392728937"><ele>536.0</ele><time>2026-04-18T13:30:45.96Z</time></trkpt><trkpt lat="43.398857821448395" lon="10.62076708161053"><ele>536.0</ele><time>2026-04-18T13:30:46.962Z</time></trkpt><trkpt lat="43.39893409022939" lon="10.620623333611558"><ele>536.1666666666666</ele><time>2026-04-18T13:30:48.033Z</time></trkpt><trkpt lat="43.39898662551691" lon="10.620532774900315"><ele>536.3333333333333</ele><time>2026-04-18T13:30:48.97Z</time></trkpt><trkpt lat="43.3990410680752" lon="10.620440637445775"><ele>536.5</ele><time>2026-04-18T13:30:49.978Z</time></trkpt><trkpt lat="43.399096039573855" lon="10.620345264536033"><ele>536.6666666666666</ele><time>2026-04-18T13:30:50.96Z</time></trkpt><trkpt lat="43.39914988133253" lon="10.620241583259736"><ele>536.8333333333334</ele><time>2026-04-18T13:30:51.962Z</time></trkpt><trkpt lat="43.3992012811309" lon="10.620135481495392"><ele>537.0</ele><time>2026-04-18T13:30:52.97Z</time></trkpt><trkpt lat="43.399272659839944" lon="10.61997733952114"><ele>536.2</ele><time>2026-04-18T13:30:55.001Z</time></trkpt><trkpt lat="43.39931833906862" lon="10.61987226077578"><ele>535.4000000000001</ele><time>2026-04-18T13:30:55.966Z</time></trkpt><trkpt lat="43.399363835242625" lon="10.619764305847122"><ele>534.5999999999999</ele><time>2026-04-18T13:30:56.967Z</time></trkpt><trkpt lat="43.39941123273379" lon="10.619652302765127"><ele>533.8</ele><time>2026-04-18T13:30:57.967Z</time></trkpt><trkpt lat="43.399449608050816" lon="10.619520706068286"><ele>533.0</ele><time>2026-04-18T13:30:58.992Z</time></trkpt><trkpt lat="43.399466923455904" lon="10.61938690182508"><ele>532.8333333333333</ele><time>2026-04-18T13:30:59.958Z</time></trkpt><trkpt lat="43.39947790189804" lon="10.619265855500807"><ele>532.6666666666666</ele><time>2026-04-18T13:31:00.961Z</time></trkpt><trkpt lat="43.39948581776415" lon="10.619157282094717"><ele>532.5</ele><time>2026-04-18T13:31:02.05Z</time></trkpt><trkpt lat="43.39949292899247" lon="10.619059744947956"><ele>532.3333333333334</ele><time>2026-04-18T13:31:02.973Z</time></trkpt><trkpt lat="43.39950100781308" lon="10.618930592450248"><ele>532.1666666666667</ele><time>2026-04-18T13:31:03.96Z</time></trkpt><trkpt lat="43.399507116098476" lon="10.618821272807349"><ele>532.0</ele><time>2026-04-18T13:31:06.049Z</time></trkpt><trkpt lat="43.399498166666675" lon="10.618679333333334"><ele>532.0</ele><time>2026-04-18T13:31:07.997Z</time></trkpt><trkpt lat="43.399513999999996" lon="10.618583999999998"><ele>532.0</ele><time>2026-04-18T13:31:10.955Z</time></trkpt><trkpt lat="43.399577446967065" lon="10.618556037721133"><ele>532.0</ele><time>2026-04-18T13:31:13.966Z</time></trkpt><trkpt lat="43.399675499999994" lon="10.618613333333334"><ele>532.0</ele><time>2026-04-18T13:31:16.956Z</time></trkpt><trkpt lat="43.399766833333324" lon="10.618688999999998"><ele>532.0</ele><time>2026-04-18T13:31:17.966Z</time></trkpt><trkpt lat="43.399933499999996" lon="10.6188035"><ele>533.25</ele><time>2026-04-18T13:31:19.974Z</time></trkpt><trkpt lat="43.400025998242334" lon="10.618895437505035"><ele>534.5</ele><time>2026-04-18T13:31:20.961Z</time></trkpt><trkpt lat="43.40018799999999" lon="10.619000999999999"><ele>535.75</ele><time>2026-04-18T13:31:22.961Z</time></trkpt><trkpt lat="43.40029366666666" lon="10.619089333333333"><ele>537.0</ele><time>2026-04-18T13:31:23.966Z</time></trkpt><trkpt lat="43.400402666666665" lon="10.619172833333336"><ele>535.0</ele><time>2026-04-18T13:31:24.995Z</time></trkpt><trkpt lat="43.40051446509813" lon="10.61926218350619"><ele>533.0</ele><time>2026-04-18T13:31:25.957Z</time></trkpt><trkpt lat="43.40064134241226" lon="10.619294532712148"><ele>531.0</ele><time>2026-04-18T13:31:26.961Z</time></trkpt><trkpt lat="43.400764202542575" lon="10.619308380540067"><ele>529.0</ele><time>2026-04-18T13:31:27.97Z</time></trkpt><trkpt lat="43.40087745426804" lon="10.619314960063445"><ele>529.0</ele><time>2026-04-18T13:31:28.99Z</time></trkpt><trkpt lat="43.40098785602884" lon="10.619316613694277"><ele>529.0</ele><time>2026-04-18T13:31:30.018Z</time></trkpt><trkpt lat="43.40109462391795" lon="10.619279038602768"><ele>529.0</ele><time>2026-04-18T13:31:30.959Z</time></trkpt><trkpt lat="43.40118480029093" lon="10.619223608852476"><ele>529.0</ele><time>2026-04-18T13:31:31.961Z</time></trkpt><trkpt lat="43.401314666666664" lon="10.619158166666667"><ele>526.0</ele><time>2026-04-18T13:31:32.974Z</time></trkpt><trkpt lat="43.401410500000004" lon="10.619191666666666"><ele>523.0</ele><time>2026-04-18T13:31:33.97Z</time></trkpt><trkpt lat="43.40150566666666" lon="10.619257000000001"><ele>520.0</ele><time>2026-04-18T13:31:34.958Z</time></trkpt><trkpt lat="43.40161216666667" lon="10.619338666666668"><ele>517.0</ele><time>2026-04-18T13:31:35.968Z</time></trkpt><trkpt lat="43.40172866666667" lon="10.619424333333333"><ele>517.0</ele><time>2026-04-18T13:31:36.986Z</time></trkpt><trkpt lat="43.40178933333333" lon="10.619469499999997"><ele>517.0</ele><time>2026-04-18T13:31:37.962Z</time></trkpt><trkpt lat="43.40197416666666" lon="10.619599166666667"><ele>517.0</ele><time>2026-04-18T13:31:38.976Z</time></trkpt><trkpt lat="43.40209750000001" lon="10.619683333333333"><ele>517.0</ele><time>2026-04-18T13:31:39.956Z</time></trkpt><trkpt lat="43.402220666666665" lon="10.619775"><ele>512.75</ele><time>2026-04-18T13:31:40.971Z</time></trkpt><trkpt lat="43.402280000000005" lon="10.6198305"><ele>508.5</ele><time>2026-04-18T13:31:41.997Z</time></trkpt><trkpt lat="43.40245066666667" lon="10.620024666666666"><ele>504.25</ele><time>2026-04-18T13:31:42.962Z</time></trkpt><trkpt lat="43.402553999999995" lon="10.620175166666668"><ele>500.0</ele><time>2026-04-18T13:31:43.966Z</time></trkpt><trkpt lat="43.40259833333333" lon="10.620258166666668"><ele>499.3333333333333</ele><time>2026-04-18T13:31:44.978Z</time></trkpt><trkpt lat="43.40271716666667" lon="10.620506"><ele>498.66666666666663</ele><time>2026-04-18T13:31:45.977Z</time></trkpt><trkpt lat="43.402785333333334" lon="10.620659666666667"><ele>498.0</ele><time>2026-04-18T13:31:46.961Z</time></trkpt><trkpt lat="43.40283916666667" lon="10.6208135"><ele>498.0</ele><time>2026-04-18T13:31:47.962Z</time></trkpt><trkpt lat="43.40288927718797" lon="10.62097905210572"><ele>498.0</ele><time>2026-04-18T13:31:48.965Z</time></trkpt><trkpt lat="43.402899587203606" lon="10.621167743632286"><ele>498.0</ele><time>2026-04-18T13:31:49.981Z</time></trkpt><trkpt lat="43.40289200000001" lon="10.621365333333332"><ele>498.0</ele><time>2026-04-18T13:31:50.961Z</time></trkpt><trkpt lat="43.40290616666666" lon="10.621570833333333"><ele>496.75</ele><time>2026-04-18T13:31:51.964Z</time></trkpt><trkpt lat="43.4029235" lon="10.621777833333333"><ele>495.5</ele><time>2026-04-18T13:31:52.965Z</time></trkpt><trkpt lat="43.402935666666664" lon="10.621982833333334"><ele>494.25</ele><time>2026-04-18T13:31:53.974Z</time></trkpt><trkpt lat="43.40295273120268" lon="10.622181994774428"><ele>493.0</ele><time>2026-04-18T13:31:54.979Z</time></trkpt><trkpt lat="43.40294472513571" lon="10.622366562735126"><ele>492.5</ele><time>2026-04-18T13:31:55.949Z</time></trkpt><trkpt lat="43.40291272224206" lon="10.622535331343427"><ele>492.0</ele><time>2026-04-18T13:31:56.966Z</time></trkpt><trkpt lat="43.40285516666666" lon="10.622680166666665"><ele>491.5</ele><time>2026-04-18T13:31:57.966Z</time></trkpt><trkpt lat="43.40280633333333" lon="10.622824166666666"><ele>491.0</ele><time>2026-04-18T13:31:58.997Z</time></trkpt><trkpt lat="43.40277296111335" lon="10.622971703271833"><ele>490.8</ele><time>2026-04-18T13:31:59.971Z</time></trkpt><trkpt lat="43.402737836659526" lon="10.623108849786915"><ele>490.6</ele><time>2026-04-18T13:32:00.959Z</time></trkpt><trkpt lat="43.402722547346535" lon="10.623249254769405"><ele>490.4</ele><time>2026-04-18T13:32:01.973Z</time></trkpt><trkpt lat="43.4027015" lon="10.623395833333333"><ele>490.2</ele><time>2026-04-18T13:32:02.99Z</time></trkpt><trkpt lat="43.40271366666666" lon="10.623542666666665"><ele>490.0</ele><time>2026-04-18T13:32:04.014Z</time></trkpt><trkpt lat="43.402731833333334" lon="10.623671833333333"><ele>490.00000000000006</ele><time>2026-04-18T13:32:04.958Z</time></trkpt><trkpt lat="43.402752" lon="10.623779500000001"><ele>490.0</ele><time>2026-04-18T13:32:05.961Z</time></trkpt><trkpt lat="43.402775999999996" lon="10.623874"><ele>490.0</ele><time>2026-04-18T13:32:06.974Z</time></trkpt><trkpt lat="43.40279816666666" lon="10.623969333333333"><ele>490.0</ele><time>2026-04-18T13:32:07.981Z</time></trkpt><trkpt lat="43.402816833333326" lon="10.624070333333336"><ele>490.00000000000006</ele><time>2026-04-18T13:32:08.963Z</time></trkpt><trkpt lat="43.402832999999994" lon="10.624173833333334"><ele>490.0</ele><time>2026-04-18T13:32:09.962Z</time></trkpt><trkpt lat="43.40285050000001" lon="10.624277333333335"><ele>490.00000000000006</ele><time>2026-04-18T13:32:10.962Z</time></trkpt><trkpt lat="43.40287283333334" lon="10.62438"><ele>490.0</ele><time>2026-04-18T13:32:11.975Z</time></trkpt><trkpt lat="43.402902499999996" lon="10.624482833333332"><ele>490.0</ele><time>2026-04-18T13:32:12.97Z</time></trkpt><trkpt lat="43.40294316666667" lon="10.624588500000002"><ele>490.0</ele><time>2026-04-18T13:32:13.962Z</time></trkpt><trkpt lat="43.402993333333335" lon="10.624695999999998"><ele>490.00000000000006</ele><time>2026-04-18T13:32:14.98Z</time></trkpt><trkpt lat="43.403043833333335" lon="10.624807500000001"><ele>490.0</ele><time>2026-04-18T13:32:16.002Z</time></trkpt><trkpt lat="43.40308633333334" lon="10.624924166666665"><ele>490.50000000000006</ele><time>2026-04-18T13:32:16.969Z</time></trkpt><trkpt lat="43.40311866666666" lon="10.625038833333335"><ele>491.0</ele><time>2026-04-18T13:32:17.969Z</time></trkpt><trkpt lat="43.403143666666665" lon="10.625148833333332"><ele>491.5</ele><time>2026-04-18T13:32:18.968Z</time></trkpt><trkpt lat="43.40316616666667" lon="10.625253999999998"><ele>492.0</ele><time>2026-04-18T13:32:19.982Z</time></trkpt><trkpt lat="43.40320083333333" lon="10.625352666666666"><ele>492.50000000000006</ele><time>2026-04-18T13:32:20.962Z</time></trkpt><trkpt lat="43.40324783333334" lon="10.625445333333335"><ele>493.0</ele><time>2026-04-18T13:32:21.963Z</time></trkpt><trkpt lat="43.40330283333332" lon="10.6255345"><ele>489.83333333333337</ele><time>2026-04-18T13:32:22.966Z</time></trkpt><trkpt lat="43.403361" lon="10.6256245"><ele>486.6666666666667</ele><time>2026-04-18T13:32:23.986Z</time></trkpt><trkpt lat="43.40341866666666" lon="10.625718166666665"><ele>483.5</ele><time>2026-04-18T13:32:24.956Z</time></trkpt><trkpt lat="43.403476500000004" lon="10.625815333333334"><ele>480.33333333333337</ele><time>2026-04-18T13:32:26.026Z</time></trkpt><trkpt lat="43.403531666666666" lon="10.625914166666666"><ele>477.1666666666667</ele><time>2026-04-18T13:32:26.964Z</time></trkpt><trkpt lat="43.40358566666667" lon="10.62601233333333"><ele>474.0</ele><time>2026-04-18T13:32:27.978Z</time></trkpt><trkpt lat="43.40364066666666" lon="10.626110000000002"><ele>475.79999999999995</ele><time>2026-04-18T13:32:28.971Z</time></trkpt><trkpt lat="43.40369833333333" lon="10.626214166666667"><ele>477.59999999999997</ele><time>2026-04-18T13:32:29.971Z</time></trkpt><trkpt lat="43.40375816666667" lon="10.6263235"><ele>479.4</ele><time>2026-04-18T13:32:30.97Z</time></trkpt><trkpt lat="43.403816000000006" lon="10.626434999999999"><ele>481.2</ele><time>2026-04-18T13:32:31.957Z</time></trkpt><trkpt lat="43.40387333333333" lon="10.626542500000001"><ele>483.0</ele><time>2026-04-18T13:32:32.962Z</time></trkpt><trkpt lat="43.40398149999999" lon="10.626733833333333"><ele>483.0</ele><time>2026-04-18T13:32:34.979Z</time></trkpt><trkpt lat="43.40402640340705" lon="10.626830603618867"><ele>482.99999999999994</ele><time>2026-04-18T13:32:35.965Z</time></trkpt><trkpt lat="43.4041551072729" lon="10.626989757163459"><ele>482.99999999999994</ele><time>2026-04-18T13:32:37.969Z</time></trkpt><trkpt lat="43.40422575461675" lon="10.627071198795255"><ele>483.0</ele><time>2026-04-18T13:32:38.957Z</time></trkpt><trkpt lat="43.40429737120975" lon="10.627148444172402"><ele>483.0</ele><time>2026-04-18T13:32:39.972Z</time></trkpt><trkpt lat="43.404375" lon="10.627207166666668"><ele>480.2</ele><time>2026-04-18T13:32:40.983Z</time></trkpt><trkpt lat="43.404435916408566" lon="10.62729474349799"><ele>477.4</ele><time>2026-04-18T13:32:41.998Z</time></trkpt><trkpt lat="43.404515236813495" lon="10.627349173157702"><ele>474.59999999999997</ele><time>2026-04-18T13:32:42.965Z</time></trkpt><trkpt lat="43.40460617983598" lon="10.627377479252843"><ele>471.79999999999995</ele><time>2026-04-18T13:32:43.959Z</time></trkpt><trkpt lat="43.404699154716695" lon="10.627394093170562"><ele>469.0</ele><time>2026-04-18T13:32:44.978Z</time></trkpt><trkpt lat="43.40479675321135" lon="10.627406183389128"><ele>469.0</ele><time>2026-04-18T13:32:45.957Z</time></trkpt><trkpt lat="43.405001364089706" lon="10.62743913768012"><ele>469.0</ele><time>2026-04-18T13:32:47.964Z</time></trkpt><trkpt lat="43.40510721593457" lon="10.627473879145217"><ele>469.0</ele><time>2026-04-18T13:32:49.066Z</time></trkpt><trkpt lat="43.40528650590824" lon="10.627637057601936"><ele>469.0</ele><time>2026-04-18T13:32:51.014Z</time></trkpt><trkpt lat="43.40536483333334" lon="10.627757166666665"><ele>469.0</ele><time>2026-04-18T13:32:51.957Z</time></trkpt><trkpt lat="43.40541033333334" lon="10.627916166666667"><ele>469.0</ele><time>2026-04-18T13:32:52.965Z</time></trkpt><trkpt lat="43.40545166666667" lon="10.628069833333333"><ele>469.0</ele><time>2026-04-18T13:32:53.987Z</time></trkpt><trkpt lat="43.405497166666656" lon="10.628200499999998"><ele>465.79999999999995</ele><time>2026-04-18T13:32:54.958Z</time></trkpt><trkpt lat="43.40554533333334" lon="10.628298500000001"><ele>462.59999999999997</ele><time>2026-04-18T13:32:55.965Z</time></trkpt><trkpt lat="43.405575942106445" lon="10.628382604891982"><ele>459.4</ele><time>2026-04-18T13:32:57.214Z</time></trkpt><trkpt lat="43.40566588266477" lon="10.628465538963065"><ele>456.2</ele><time>2026-04-18T13:32:59.001Z</time></trkpt><trkpt lat="43.40579245438654" lon="10.628512979202272"><ele>453.0</ele><time>2026-04-18T13:33:01.959Z</time></trkpt><trkpt lat="43.40586205067422" lon="10.628527246280404"><ele>453.0</ele><time>2026-04-18T13:33:02.995Z</time></trkpt><trkpt lat="43.40593983398073" lon="10.628543204231207"><ele>452.99999999999994</ele><time>2026-04-18T13:33:03.961Z</time></trkpt><trkpt lat="43.40602685419607" lon="10.628565691311508"><ele>452.99999999999994</ele><time>2026-04-18T13:33:04.954Z</time></trkpt><trkpt lat="43.406123961356904" lon="10.628591631507733"><ele>453.0</ele><time>2026-04-18T13:33:05.967Z</time></trkpt><trkpt lat="43.406227279581316" lon="10.628619230862416"><ele>453.0</ele><time>2026-04-18T13:33:06.983Z</time></trkpt><trkpt lat="43.40632965943479" lon="10.628648383570095"><ele>450.4</ele><time>2026-04-18T13:33:07.957Z</time></trkpt><trkpt lat="43.40642661860231" lon="10.628677650553772"><ele>447.79999999999995</ele><time>2026-04-18T13:33:08.962Z</time></trkpt><trkpt lat="43.40651358312367" lon="10.628713047005123"><ele>445.2</ele><time>2026-04-18T13:33:09.963Z</time></trkpt><trkpt lat="43.40658888846316" lon="10.628788567555192"><ele>442.6</ele><time>2026-04-18T13:33:10.983Z</time></trkpt><trkpt lat="43.406669166666674" lon="10.628879166666666"><ele>440.0</ele><time>2026-04-18T13:33:11.966Z</time></trkpt><trkpt lat="43.40673816666668" lon="10.629004666666667"><ele>440.0</ele><time>2026-04-18T13:33:12.958Z</time></trkpt><trkpt lat="43.40681583333333" lon="10.629134166666665"><ele>440.0</ele><time>2026-04-18T13:33:13.958Z</time></trkpt><trkpt lat="43.4068975" lon="10.629263166666666"><ele>440.0</ele><time>2026-04-18T13:33:14.977Z</time></trkpt><trkpt lat="43.406980666666676" lon="10.629393833333333"><ele>440.0</ele><time>2026-04-18T13:33:15.98Z</time></trkpt><trkpt lat="43.407021666666665" lon="10.629461499999998"><ele>440.0</ele><time>2026-04-18T13:33:16.971Z</time></trkpt><trkpt lat="43.407104833333335" lon="10.629597"><ele>434.0</ele><time>2026-04-18T13:33:17.971Z</time></trkpt><trkpt lat="43.40722010827609" lon="10.629819401083811"><ele>428.0</ele><time>2026-04-18T13:33:19.276Z</time></trkpt><trkpt lat="43.40741016666666" lon="10.630099166666666"><ele>428.0</ele><time>2026-04-18T13:33:20.962Z</time></trkpt><trkpt lat="43.40748845526403" lon="10.630261789391588"><ele>428.0</ele><time>2026-04-18T13:33:21.955Z</time></trkpt><trkpt lat="43.40758112861892" lon="10.63041270491429"><ele>428.0</ele><time>2026-04-18T13:33:22.961Z</time></trkpt><trkpt lat="43.407628160145954" lon="10.630488446834594"><ele>428.0</ele><time>2026-04-18T13:33:23.959Z</time></trkpt><trkpt lat="43.40772371038714" lon="10.630637925667708"><ele>428.66666666666663</ele><time>2026-04-18T13:33:24.975Z</time></trkpt><trkpt lat="43.40781783333333" lon="10.630775166666668"><ele>429.33333333333337</ele><time>2026-04-18T13:33:25.963Z</time></trkpt><trkpt lat="43.40796149999999" lon="10.6310635"><ele>430.0</ele><time>2026-04-18T13:33:27.983Z</time></trkpt><trkpt lat="43.408033418044205" lon="10.631211875385802"><ele>426.6666666666667</ele><time>2026-04-18T13:33:28.999Z</time></trkpt><trkpt lat="43.40814297367737" lon="10.631321817835303"><ele>423.33333333333337</ele><time>2026-04-18T13:33:29.959Z</time></trkpt><trkpt lat="43.40832441550253" lon="10.631456985237294"><ele>420.0</ele><time>2026-04-18T13:33:30.963Z</time></trkpt><trkpt lat="43.40844235884571" lon="10.63153888733677"><ele>420.0</ele><time>2026-04-18T13:33:31.978Z</time></trkpt><trkpt lat="43.40855118888372" lon="10.631617769204652"><ele>420.0</ele><time>2026-04-18T13:33:32.954Z</time></trkpt><trkpt lat="43.40865455595895" lon="10.631696766244145"><ele>420.0</ele><time>2026-04-18T13:33:33.972Z</time></trkpt><trkpt lat="43.40877241661643" lon="10.631755322939958"><ele>420.0</ele><time>2026-04-18T13:33:34.968Z</time></trkpt><trkpt lat="43.4089620322344" lon="10.631751363406156"><ele>416.75</ele><time>2026-04-18T13:33:36.991Z</time></trkpt><trkpt lat="43.40908679332413" lon="10.631718233040923"><ele>413.5</ele><time>2026-04-18T13:33:38.006Z</time></trkpt><trkpt lat="43.409210340622366" lon="10.631684368164082"><ele>410.25</ele><time>2026-04-18T13:33:38.965Z</time></trkpt><trkpt lat="43.40933536422445" lon="10.631650098610825"><ele>407.0</ele><time>2026-04-18T13:33:39.955Z</time></trkpt><trkpt lat="43.40945676765803" lon="10.631617233396597"><ele>407.0</ele><time>2026-04-18T13:33:40.978Z</time></trkpt><trkpt lat="43.40957163208447" lon="10.63158678740561"><ele>407.0</ele><time>2026-04-18T13:33:41.966Z</time></trkpt><trkpt lat="43.40967269795244" lon="10.631563662881204"><ele>407.0</ele><time>2026-04-18T13:33:42.959Z</time></trkpt><trkpt lat="43.40975532476121" lon="10.631552709501701"><ele>407.0</ele><time>2026-04-18T13:33:43.97Z</time></trkpt><trkpt lat="43.40990883333334" lon="10.631605999999998"><ele>406.20000000000005</ele><time>2026-04-18T13:33:45.968Z</time></trkpt><trkpt lat="43.40995533333333" lon="10.631705833333335"><ele>405.4</ele><time>2026-04-18T13:33:46.97Z</time></trkpt><trkpt lat="43.410005166666664" lon="10.631823833333332"><ele>404.6</ele><time>2026-04-18T13:33:47.963Z</time></trkpt><trkpt lat="43.41005233333334" lon="10.631949666666666"><ele>403.79999999999995</ele><time>2026-04-18T13:33:48.978Z</time></trkpt><trkpt lat="43.41009516666666" lon="10.632075833333333"><ele>403.0</ele><time>2026-04-18T13:33:49.974Z</time></trkpt><trkpt lat="43.41013416666666" lon="10.632196833333333"><ele>403.0</ele><time>2026-04-18T13:33:50.971Z</time></trkpt><trkpt lat="43.410179" lon="10.63231183333333"><ele>403.0</ele><time>2026-04-18T13:33:51.967Z</time></trkpt><trkpt lat="43.41022802926059" lon="10.63243272786991"><ele>403.0</ele><time>2026-04-18T13:33:52.972Z</time></trkpt><trkpt lat="43.410308295334325" lon="10.632537697414165"><ele>403.0</ele><time>2026-04-18T13:33:53.992Z</time></trkpt><trkpt lat="43.41041560876706" lon="10.632614764304282"><ele>403.0</ele><time>2026-04-18T13:33:54.967Z</time></trkpt><trkpt lat="43.41053094957651" lon="10.632675560522326"><ele>398.75</ele><time>2026-04-18T13:33:55.972Z</time></trkpt><trkpt lat="43.41065221938631" lon="10.632729803994316"><ele>394.5</ele><time>2026-04-18T13:33:56.959Z</time></trkpt><trkpt lat="43.41077137571085" lon="10.63277549444337"><ele>390.25</ele><time>2026-04-18T13:33:57.987Z</time></trkpt><trkpt lat="43.41088756186694" lon="10.632827956801709"><ele>386.0</ele><time>2026-04-18T13:33:58.958Z</time></trkpt><trkpt lat="43.41099349999999" lon="10.6329115"><ele>386.0</ele><time>2026-04-18T13:33:59.967Z</time></trkpt><trkpt lat="43.41109133333333" lon="10.633128666666668"><ele>386.0</ele><time>2026-04-18T13:34:01.975Z</time></trkpt><trkpt lat="43.411137666666676" lon="10.633285666666666"><ele>386.0</ele><time>2026-04-18T13:34:02.979Z</time></trkpt><trkpt lat="43.411184999999996" lon="10.633441833333332"><ele>386.0</ele><time>2026-04-18T13:34:03.964Z</time></trkpt><trkpt lat="43.41125916666667" lon="10.633659666666665"><ele>387.0</ele><time>2026-04-18T13:34:04.964Z</time></trkpt><trkpt lat="43.41129883333333" lon="10.633807333333333"><ele>388.0</ele><time>2026-04-18T13:34:05.963Z</time></trkpt><trkpt lat="43.41132699999999" lon="10.633965333333332"><ele>389.0</ele><time>2026-04-18T13:34:06.986Z</time></trkpt><trkpt lat="43.41135500000001" lon="10.634130999999998"><ele>390.0</ele><time>2026-04-18T13:34:07.968Z</time></trkpt><trkpt lat="43.4113935" lon="10.634302666666667"><ele>387.75</ele><time>2026-04-18T13:34:08.971Z</time></trkpt><trkpt lat="43.411455333333336" lon="10.634470166666665"><ele>385.5</ele><time>2026-04-18T13:34:09.968Z</time></trkpt><trkpt lat="43.4115315" lon="10.634631000000002"><ele>383.25</ele><time>2026-04-18T13:34:10.993Z</time></trkpt><trkpt lat="43.41160983333332" lon="10.634787166666667"><ele>381.0</ele><time>2026-04-18T13:34:11.958Z</time></trkpt><trkpt lat="43.41167900000001" lon="10.6349395"><ele>381.0</ele><time>2026-04-18T13:34:12.971Z</time></trkpt><trkpt lat="43.41174649999999" lon="10.635076833333335"><ele>381.0</ele><time>2026-04-18T13:34:13.958Z</time></trkpt><trkpt lat="43.4118525" lon="10.635333"><ele>381.0</ele><time>2026-04-18T13:34:15.965Z</time></trkpt><trkpt lat="43.41187016666667" lon="10.635543666666669"><ele>381.6</ele><time>2026-04-18T13:34:17.967Z</time></trkpt><trkpt lat="43.41188866666666" lon="10.635753333333334"><ele>382.20000000000005</ele><time>2026-04-18T13:34:18.969Z</time></trkpt><trkpt lat="43.411911999999994" lon="10.635880333333334"><ele>382.79999999999995</ele><time>2026-04-18T13:34:19.976Z</time></trkpt><trkpt lat="43.41193833333333" lon="10.635990333333332"><ele>383.4</ele><time>2026-04-18T13:34:20.966Z</time></trkpt><trkpt lat="43.41196216666667" lon="10.636095000000001"><ele>384.0</ele><time>2026-04-18T13:34:21.968Z</time></trkpt><trkpt lat="43.41199700000001" lon="10.636199"><ele>384.0</ele><time>2026-04-18T13:34:22.963Z</time></trkpt><trkpt lat="43.41205572641256" lon="10.636365771077209"><ele>384.0</ele><time>2026-04-18T13:34:24.963Z</time></trkpt><trkpt lat="43.41211182133383" lon="10.636472128346819"><ele>384.0</ele><time>2026-04-18T13:34:25.963Z</time></trkpt><trkpt lat="43.41218009550271" lon="10.636578922725386"><ele>384.0</ele><time>2026-04-18T13:34:26.971Z</time></trkpt><trkpt lat="43.412257614740156" lon="10.636692374128003"><ele>384.0</ele><time>2026-04-18T13:34:27.984Z</time></trkpt><trkpt lat="43.41234522278036" lon="10.636819379018485"><ele>380.6666666666667</ele><time>2026-04-18T13:34:28.96Z</time></trkpt><trkpt lat="43.41243895563333" lon="10.636953563464507"><ele>377.33333333333337</ele><time>2026-04-18T13:34:29.97Z</time></trkpt><trkpt lat="43.4125337323725" lon="10.637090553601777"><ele>374.0</ele><time>2026-04-18T13:34:30.971Z</time></trkpt><trkpt lat="43.41266706137185" lon="10.637297274340993"><ele>373.0</ele><time>2026-04-18T13:34:31.98Z</time></trkpt><trkpt lat="43.41270914356161" lon="10.637364374024171"><ele>372.0</ele><time>2026-04-18T13:34:32.969Z</time></trkpt><trkpt lat="43.412789787538415" lon="10.637495654888706"><ele>371.0</ele><time>2026-04-18T13:34:33.963Z</time></trkpt><trkpt lat="43.412868760524084" lon="10.637614075754103"><ele>370.0</ele><time>2026-04-18T13:34:34.964Z</time></trkpt><trkpt lat="43.41300457280834" lon="10.637756709053237"><ele>368.8</ele><time>2026-04-18T13:34:35.975Z</time></trkpt><trkpt lat="43.413129369908305" lon="10.637799742637107"><ele>367.6</ele><time>2026-04-18T13:34:37.974Z</time></trkpt><trkpt lat="43.413219724246495" lon="10.637824202421065"><ele>366.4</ele><time>2026-04-18T13:34:38.968Z</time></trkpt><trkpt lat="43.41330061555446" lon="10.63784713741235"><ele>365.2</ele><time>2026-04-18T13:34:40.994Z</time></trkpt><trkpt lat="43.413401171308024" lon="10.63787564779991"><ele>364.0</ele><time>2026-04-18T13:34:43.961Z</time></trkpt><trkpt lat="43.41351222396703" lon="10.637909923727337"><ele>364.16666666666663</ele><time>2026-04-18T13:34:45.968Z</time></trkpt><trkpt lat="43.41362858834061" lon="10.637965530458684"><ele>364.3333333333333</ele><time>2026-04-18T13:34:47.973Z</time></trkpt><trkpt lat="43.41368380937965" lon="10.63801453750203"><ele>364.5</ele><time>2026-04-18T13:34:48.976Z</time></trkpt><trkpt lat="43.41374301565218" lon="10.638081641722602"><ele>364.6666666666667</ele><time>2026-04-18T13:34:49.96Z</time></trkpt><trkpt lat="43.413809931512965" lon="10.638155345286227"><ele>364.83333333333337</ele><time>2026-04-18T13:34:50.96Z</time></trkpt><trkpt lat="43.41388419071115" lon="10.638226209931494"><ele>365.0</ele><time>2026-04-18T13:34:51.964Z</time></trkpt><trkpt lat="43.413967553161775" lon="10.638288612660611"><ele>365.0</ele><time>2026-04-18T13:34:52.972Z</time></trkpt><trkpt lat="43.41405450885985" lon="10.63833454123665"><ele>365.0</ele><time>2026-04-18T13:34:53.977Z</time></trkpt><trkpt lat="43.41414224397499" lon="10.638378531977562"><ele>365.0</ele><time>2026-04-18T13:34:54.968Z</time></trkpt><trkpt lat="43.41422514192606" lon="10.638419182928148"><ele>365.0</ele><time>2026-04-18T13:34:55.964Z</time></trkpt><trkpt lat="43.41430716666667" lon="10.638485500000002"><ele>365.0</ele><time>2026-04-18T13:34:56.966Z</time></trkpt><trkpt lat="43.41436633333333" lon="10.6385945"><ele>363.0</ele><time>2026-04-18T13:34:57.984Z</time></trkpt><trkpt lat="43.414464" lon="10.638747666666665"><ele>361.0</ele><time>2026-04-18T13:34:58.962Z</time></trkpt><trkpt lat="43.41457774930536" lon="10.63889707496533"><ele>359.0</ele><time>2026-04-18T13:35:00.963Z</time></trkpt><trkpt lat="43.41472470183027" lon="10.639009637902953"><ele>359.0</ele><time>2026-04-18T13:35:01.995Z</time></trkpt><trkpt lat="43.414824121663415" lon="10.639078532149332"><ele>359.0</ele><time>2026-04-18T13:35:02.977Z</time></trkpt><trkpt lat="43.41492101952718" lon="10.639150111516475"><ele>359.0</ele><time>2026-04-18T13:35:03.955Z</time></trkpt><trkpt lat="43.41501675732484" lon="10.639223870171419"><ele>359.0</ele><time>2026-04-18T13:35:04.968Z</time></trkpt><trkpt lat="43.415113134035266" lon="10.639299468432988"><ele>359.0</ele><time>2026-04-18T13:35:05.976Z</time></trkpt><trkpt lat="43.415211666666664" lon="10.639370166666668"><ele>360.5</ele><time>2026-04-18T13:35:07.004Z</time></trkpt><trkpt lat="43.415330833333336" lon="10.639531"><ele>362.0</ele><time>2026-04-18T13:35:08.967Z</time></trkpt><trkpt lat="43.4154065" lon="10.6396375"><ele>363.5</ele><time>2026-04-18T13:35:09.974Z</time></trkpt><trkpt lat="43.41548533333333" lon="10.639727666666667"><ele>365.0</ele><time>2026-04-18T13:35:10.993Z</time></trkpt><trkpt lat="43.41560060688214" lon="10.639854937300418"><ele>365.0</ele><time>2026-04-18T13:35:11.982Z</time></trkpt><trkpt lat="43.41577367490689" lon="10.639992577816965"><ele>365.0</ele><time>2026-04-18T13:35:13.97Z</time></trkpt><trkpt lat="43.415863414453504" lon="10.640053355248744"><ele>365.0</ele><time>2026-04-18T13:35:14.986Z</time></trkpt><trkpt lat="43.41596140790619" lon="10.64011158126279"><ele>365.0</ele><time>2026-04-18T13:35:15.963Z</time></trkpt><trkpt lat="43.416070669088505" lon="10.64015215991733"><ele>365.0</ele><time>2026-04-18T13:35:16.973Z</time></trkpt><trkpt lat="43.41618061829868" lon="10.640175161736678"><ele>365.0</ele><time>2026-04-18T13:35:17.955Z</time></trkpt><trkpt lat="43.41628192154557" lon="10.640192983561073"><ele>365.0</ele><time>2026-04-18T13:35:18.98Z</time></trkpt><trkpt lat="43.416373676651396" lon="10.640200644574405"><ele>365.0</ele><time>2026-04-18T13:35:19.975Z</time></trkpt><trkpt lat="43.41645615476103" lon="10.640219489769542"><ele>365.0</ele><time>2026-04-18T13:35:20.964Z</time></trkpt><trkpt lat="43.41660235676497" lon="10.640294265755365"><ele>367.4</ele><time>2026-04-18T13:35:22.964Z</time></trkpt><trkpt lat="43.416677666666665" lon="10.640356"><ele>369.8</ele><time>2026-04-18T13:35:23.988Z</time></trkpt><trkpt lat="43.41674416666666" lon="10.6404555"><ele>372.20000000000005</ele><time>2026-04-18T13:35:24.956Z</time></trkpt><trkpt lat="43.416828833333334" lon="10.640562166666665"><ele>374.6</ele><time>2026-04-18T13:35:25.963Z</time></trkpt><trkpt lat="43.41692233333333" lon="10.640678166666666"><ele>377.0</ele><time>2026-04-18T13:35:26.966Z</time></trkpt><trkpt lat="43.417022166666655" lon="10.640792833333334"><ele>377.0</ele><time>2026-04-18T13:35:27.988Z</time></trkpt><trkpt lat="43.41711294386486" lon="10.640927669349107"><ele>377.0</ele><time>2026-04-18T13:35:28.962Z</time></trkpt><trkpt lat="43.41721192557283" lon="10.641059720353983"><ele>377.0</ele><time>2026-04-18T13:35:29.965Z</time></trkpt><trkpt lat="43.41726271052623" lon="10.641123140404007"><ele>377.0</ele><time>2026-04-18T13:35:30.963Z</time></trkpt><trkpt lat="43.41736982611946" lon="10.641244946448996"><ele>373.0</ele><time>2026-04-18T13:35:31.976Z</time></trkpt><trkpt lat="43.41753633333333" lon="10.6414095"><ele>369.0</ele><time>2026-04-18T13:35:32.974Z</time></trkpt><trkpt lat="43.417635999999995" lon="10.641533666666666"><ele>365.0</ele><time>2026-04-18T13:35:33.969Z</time></trkpt><trkpt lat="43.417727500000005" lon="10.641661833333334"><ele>365.0</ele><time>2026-04-18T13:35:34.96Z</time></trkpt><trkpt lat="43.417807999999994" lon="10.641793833333335"><ele>365.0</ele><time>2026-04-18T13:35:35.971Z</time></trkpt><trkpt lat="43.41788766666667" lon="10.641913333333331"><ele>365.0</ele><time>2026-04-18T13:35:36.959Z</time></trkpt><trkpt lat="43.41797333333334" lon="10.642014333333334"><ele>365.0</ele><time>2026-04-18T13:35:37.97Z</time></trkpt><trkpt lat="43.41807000000001" lon="10.642097"><ele>365.75</ele><time>2026-04-18T13:35:38.969Z</time></trkpt><trkpt lat="43.4181715" lon="10.642174333333333"><ele>366.5</ele><time>2026-04-18T13:35:39.973Z</time></trkpt><trkpt lat="43.418266833333334" lon="10.642267166666667"><ele>367.25</ele><time>2026-04-18T13:35:40.992Z</time></trkpt><trkpt lat="43.418352999999996" lon="10.642372166666666"><ele>368.0</ele><time>2026-04-18T13:35:41.967Z</time></trkpt><trkpt lat="43.41849833333334" lon="10.642506500000001"><ele>368.0</ele><time>2026-04-18T13:35:43.972Z</time></trkpt><trkpt lat="43.41866341472102" lon="10.642642365696462"><ele>368.0</ele><time>2026-04-18T13:35:44.996Z</time></trkpt><trkpt lat="43.41877966913777" lon="10.642728620779335"><ele>368.0</ele><time>2026-04-18T13:35:45.977Z</time></trkpt><trkpt lat="43.41889093583885" lon="10.642825346449692"><ele>370.0</ele><time>2026-04-18T13:35:46.961Z</time></trkpt><trkpt lat="43.41900110421326" lon="10.64292762224245"><ele>372.0</ele><time>2026-04-18T13:35:47.972Z</time></trkpt><trkpt lat="43.41911774679171" lon="10.643027043285871"><ele>374.0</ele><time>2026-04-18T13:35:48.98Z</time></trkpt><trkpt lat="43.419236009454366" lon="10.643109234353675"><ele>376.0</ele><time>2026-04-18T13:35:49.968Z</time></trkpt><trkpt lat="43.41934743716774" lon="10.643180044502287"><ele>376.0</ele><time>2026-04-18T13:35:50.972Z</time></trkpt><trkpt lat="43.41945261025866" lon="10.643244274829232"><ele>376.0</ele><time>2026-04-18T13:35:51.96Z</time></trkpt><trkpt lat="43.4195930874604" lon="10.643342999422897"><ele>376.0</ele><time>2026-04-18T13:35:53.981Z</time></trkpt><trkpt lat="43.419689333333324" lon="10.643417166666666"><ele>376.0</ele><time>2026-04-18T13:35:54.971Z</time></trkpt><trkpt lat="43.41976150000001" lon="10.643545666666666"><ele>377.3333333333333</ele><time>2026-04-18T13:35:55.96Z</time></trkpt><trkpt lat="43.419838500000004" lon="10.643679666666667"><ele>378.6666666666667</ele><time>2026-04-18T13:35:56.961Z</time></trkpt><trkpt lat="43.419979" lon="10.643889999999999"><ele>380.0</ele><time>2026-04-18T13:35:57.984Z</time></trkpt><trkpt lat="43.42008616666667" lon="10.644037833333334"><ele>380.0</ele><time>2026-04-18T13:35:58.963Z</time></trkpt><trkpt lat="43.42019633333333" lon="10.644180833333333"><ele>380.0</ele><time>2026-04-18T13:35:59.961Z</time></trkpt><trkpt lat="43.42031" lon="10.644303500000001"><ele>380.0</ele><time>2026-04-18T13:36:00.973Z</time></trkpt><trkpt lat="43.42036750000001" lon="10.644362833333332"><ele>380.0</ele><time>2026-04-18T13:36:02.096Z</time></trkpt><trkpt lat="43.420554666666675" lon="10.644516833333334"><ele>377.6666666666667</ele><time>2026-04-18T13:36:03.008Z</time></trkpt><trkpt lat="43.42067189528746" lon="10.644641286994359"><ele>375.3333333333333</ele><time>2026-04-18T13:36:03.97Z</time></trkpt><trkpt lat="43.42080048349859" lon="10.644751744997746"><ele>373.0</ele><time>2026-04-18T13:36:04.964Z</time></trkpt><trkpt lat="43.42093416666667" lon="10.644860333333336"><ele>373.0</ele><time>2026-04-18T13:36:05.988Z</time></trkpt><trkpt lat="43.421042184936816" lon="10.645017414754196"><ele>373.0</ele><time>2026-04-18T13:36:06.96Z</time></trkpt><trkpt lat="43.42116755256364" lon="10.645156995807127"><ele>373.0</ele><time>2026-04-18T13:36:07.964Z</time></trkpt><trkpt lat="43.4212969052545" lon="10.645284412508888"><ele>371.5</ele><time>2026-04-18T13:36:08.969Z</time></trkpt><trkpt lat="43.4214195291341" lon="10.645398256644448"><ele>370.0</ele><time>2026-04-18T13:36:09.977Z</time></trkpt><trkpt lat="43.421534249249284" lon="10.645498650831792"><ele>368.5</ele><time>2026-04-18T13:36:11.004Z</time></trkpt><trkpt lat="43.42165025266451" lon="10.645593049412387"><ele>367.0</ele><time>2026-04-18T13:36:11.968Z</time></trkpt><trkpt lat="43.4217717256248" lon="10.645679906853557"><ele>367.0</ele><time>2026-04-18T13:36:12.966Z</time></trkpt><trkpt lat="43.421834041804864" lon="10.645717741414852"><ele>367.0</ele><time>2026-04-18T13:36:13.972Z</time></trkpt><trkpt lat="43.42195540447676" lon="10.645787321205646"><ele>367.0</ele><time>2026-04-18T13:36:15.005Z</time></trkpt><trkpt lat="43.42207538682306" lon="10.645850494001014"><ele>367.0</ele><time>2026-04-18T13:36:15.965Z</time></trkpt><trkpt lat="43.42219434251949" lon="10.645911567808676"><ele>365.25</ele><time>2026-04-18T13:36:16.962Z</time></trkpt><trkpt lat="43.42230989058585" lon="10.645974285746428"><ele>363.5</ele><time>2026-04-18T13:36:17.96Z</time></trkpt><trkpt lat="43.422429723193744" lon="10.646041195289651"><ele>361.75</ele><time>2026-04-18T13:36:18.986Z</time></trkpt><trkpt lat="43.42254945451157" lon="10.646110281176655"><ele>360.0</ele><time>2026-04-18T13:36:19.962Z</time></trkpt><trkpt lat="43.42267749999999" lon="10.646178166666669"><ele>355.3333333333333</ele><time>2026-04-18T13:36:20.971Z</time></trkpt><trkpt lat="43.422807666666664" lon="10.646264166666667"><ele>350.66666666666663</ele><time>2026-04-18T13:36:21.972Z</time></trkpt><trkpt lat="43.42294366666666" lon="10.646349166666667"><ele>346.0</ele><time>2026-04-18T13:36:22.956Z</time></trkpt><trkpt lat="43.423155333333334" lon="10.646484333333335"><ele>346.0</ele><time>2026-04-18T13:36:23.969Z</time></trkpt><trkpt lat="43.42329180449517" lon="10.646589416416028"><ele>346.0</ele><time>2026-04-18T13:36:24.959Z</time></trkpt><trkpt lat="43.42343214483453" lon="10.64666966790832"><ele>346.0</ele><time>2026-04-18T13:36:25.965Z</time></trkpt><trkpt lat="43.42356683232709" lon="10.646745023345902"><ele>346.0</ele><time>2026-04-18T13:36:26.982Z</time></trkpt><trkpt lat="43.423694355798816" lon="10.646816370649333"><ele>346.0</ele><time>2026-04-18T13:36:27.968Z</time></trkpt><trkpt lat="43.423812984853186" lon="10.646882741415478"><ele>346.0</ele><time>2026-04-18T13:36:28.966Z</time></trkpt><trkpt lat="43.424031676738466" lon="10.647022019721126"><ele>337.3333333333333</ele><time>2026-04-18T13:36:30.978Z</time></trkpt><trkpt lat="43.42424220126101" lon="10.647190050918635"><ele>328.6666666666667</ele><time>2026-04-18T13:36:32.964Z</time></trkpt><trkpt lat="43.42435136773284" lon="10.647289129805554"><ele>320.0</ele><time>2026-04-18T13:36:33.966Z</time></trkpt><trkpt lat="43.42446015859663" lon="10.647395605159788"><ele>320.0</ele><time>2026-04-18T13:36:34.962Z</time></trkpt><trkpt lat="43.42456376189054" lon="10.647504483468555"><ele>320.0</ele><time>2026-04-18T13:36:35.984Z</time></trkpt><trkpt lat="43.42466495611066" lon="10.647620483141415"><ele>320.0</ele><time>2026-04-18T13:36:36.963Z</time></trkpt><trkpt lat="43.42476583333333" lon="10.647727166666668"><ele>320.0</ele><time>2026-04-18T13:36:37.962Z</time></trkpt><trkpt lat="43.42482766666667" lon="10.647873666666666"><ele>316.5</ele><time>2026-04-18T13:36:38.96Z</time></trkpt><trkpt lat="43.42486066666667" lon="10.648035333333333"><ele>313.0</ele><time>2026-04-18T13:36:39.978Z</time></trkpt><trkpt lat="43.424898795097874" lon="10.648203745215723"><ele>309.5</ele><time>2026-04-18T13:36:41.001Z</time></trkpt><trkpt lat="43.42490617487344" lon="10.648295820289013"><ele>306.0</ele><time>2026-04-18T13:36:41.965Z</time></trkpt><trkpt lat="43.42491248001823" lon="10.648559642808847"><ele>305.5</ele><time>2026-04-18T13:36:42.969Z</time></trkpt><trkpt lat="43.424917398530624" lon="10.648716144091699"><ele>305.0</ele><time>2026-04-18T13:36:43.976Z</time></trkpt><trkpt lat="43.42491783333333" lon="10.648867166666665"><ele>304.5</ele><time>2026-04-18T13:36:44.986Z</time></trkpt><trkpt lat="43.42496666666666" lon="10.649007666666668"><ele>304.0</ele><time>2026-04-18T13:36:45.969Z</time></trkpt><trkpt lat="43.4250415" lon="10.6491355"><ele>304.0</ele><time>2026-04-18T13:36:46.973Z</time></trkpt><trkpt lat="43.42511675796184" lon="10.649273698100005"><ele>304.0</ele><time>2026-04-18T13:36:47.965Z</time></trkpt><trkpt lat="43.42520699356434" lon="10.649380153284225"><ele>304.0</ele><time>2026-04-18T13:36:48.992Z</time></trkpt><trkpt lat="43.42529916666667" lon="10.649463833333334"><ele>304.0</ele><time>2026-04-18T13:36:49.967Z</time></trkpt><trkpt lat="43.425351" lon="10.649588999999999"><ele>303.4</ele><time>2026-04-18T13:36:50.973Z</time></trkpt><trkpt lat="43.425405876543365" lon="10.64971281078844"><ele>302.79999999999995</ele><time>2026-04-18T13:36:51.964Z</time></trkpt><trkpt lat="43.42542972412812" lon="10.64987116502047"><ele>302.20000000000005</ele><time>2026-04-18T13:36:52.981Z</time></trkpt><trkpt lat="43.42540331002718" lon="10.650029795862235"><ele>301.6</ele><time>2026-04-18T13:36:53.962Z</time></trkpt><trkpt lat="43.42537100237982" lon="10.65015080127857"><ele>301.0</ele><time>2026-04-18T13:36:54.97Z</time></trkpt><trkpt lat="43.42535333033056" lon="10.650242946931408"><ele>298.2</ele><time>2026-04-18T13:36:55.976Z</time></trkpt><trkpt lat="43.4253424886648" lon="10.650426042884648"><ele>295.40000000000003</ele><time>2026-04-18T13:36:57.968Z</time></trkpt><trkpt lat="43.42534018327527" lon="10.650532410709609"><ele>292.6</ele><time>2026-04-18T13:36:58.969Z</time></trkpt><trkpt lat="43.42534223437932" lon="10.650647374215028"><ele>289.8</ele><time>2026-04-18T13:36:59.965Z</time></trkpt><trkpt lat="43.42534116666667" lon="10.650768166666667"><ele>287.0</ele><time>2026-04-18T13:37:00.973Z</time></trkpt><trkpt lat="43.42536499999999" lon="10.650886333333334"><ele>287.0</ele><time>2026-04-18T13:37:01.961Z</time></trkpt><trkpt lat="43.42539433333333" lon="10.650994833333334"><ele>287.0</ele><time>2026-04-18T13:37:02.978Z</time></trkpt><trkpt lat="43.425433000000005" lon="10.6510945"><ele>287.0</ele><time>2026-04-18T13:37:03.969Z</time></trkpt><trkpt lat="43.425484833333336" lon="10.65118183333333"><ele>287.0</ele><time>2026-04-18T13:37:04.965Z</time></trkpt><trkpt lat="43.42553416407581" lon="10.651280672547285"><ele>287.0</ele><time>2026-04-18T13:37:05.988Z</time></trkpt><trkpt lat="43.42563548500109" lon="10.651389045940851"><ele>284.0</ele><time>2026-04-18T13:37:07.971Z</time></trkpt><trkpt lat="43.42569471259716" lon="10.651449765611073"><ele>281.0</ele><time>2026-04-18T13:37:08.962Z</time></trkpt><trkpt lat="43.425771410420204" lon="10.651508009173634"><ele>278.0</ele><time>2026-04-18T13:37:09.975Z</time></trkpt><trkpt lat="43.42583035803233" lon="10.65154654836812"><ele>275.0</ele><time>2026-04-18T13:37:10.958Z</time></trkpt><trkpt lat="43.42590044531453" lon="10.651588244314343"><ele>272.0</ele><time>2026-04-18T13:37:11.964Z</time></trkpt><trkpt lat="43.425977226517475" lon="10.651634014988781"><ele>269.0</ele><time>2026-04-18T13:37:12.973Z</time></trkpt><trkpt lat="43.42605109071486" lon="10.651683149829545"><ele>269.0</ele><time>2026-04-18T13:37:13.971Z</time></trkpt><trkpt lat="43.42612361067046" lon="10.65173765824413"><ele>269.0</ele><time>2026-04-18T13:37:15Z</time></trkpt><trkpt lat="43.426202166666656" lon="10.651796666666668"><ele>269.0</ele><time>2026-04-18T13:37:15.965Z</time></trkpt><trkpt lat="43.42626333333333" lon="10.651892000000002"><ele>269.0</ele><time>2026-04-18T13:37:16.964Z</time></trkpt><trkpt lat="43.4263355" lon="10.651976833333334"><ele>269.0</ele><time>2026-04-18T13:37:17.964Z</time></trkpt><trkpt lat="43.42638899176179" lon="10.652082962188107"><ele>265.59999999999997</ele><time>2026-04-18T13:37:18.993Z</time></trkpt><trkpt lat="43.42646032539202" lon="10.652179561601423"><ele>262.2</ele><time>2026-04-18T13:37:19.96Z</time></trkpt><trkpt lat="43.426547496389794" lon="10.6522691743911"><ele>258.79999999999995</ele><time>2026-04-18T13:37:20.968Z</time></trkpt><trkpt lat="43.42664917287338" lon="10.65233328839398"><ele>255.39999999999998</ele><time>2026-04-18T13:37:21.968Z</time></trkpt><trkpt lat="43.42674691507562" lon="10.652368754883184"><ele>252.0</ele><time>2026-04-18T13:37:22.962Z</time></trkpt><trkpt lat="43.426822788208675" lon="10.652384910379658"><ele>252.0</ele><time>2026-04-18T13:37:23.973Z</time></trkpt><trkpt lat="43.42693348671636" lon="10.652408481415115"><ele>252.0</ele><time>2026-04-18T13:37:25.961Z</time></trkpt><trkpt lat="43.427034042543966" lon="10.652436937802536"><ele>252.0</ele><time>2026-04-18T13:37:28.963Z</time></trkpt><trkpt lat="43.427130856226924" lon="10.652476315066707"><ele>252.0</ele><time>2026-04-18T13:37:30.974Z</time></trkpt><trkpt lat="43.42719332993093" lon="10.652501628640156"><ele>252.0</ele><time>2026-04-18T13:37:31.976Z</time></trkpt><trkpt lat="43.427260360782284" lon="10.652529966120408"><ele>250.33333333333334</ele><time>2026-04-18T13:37:32.973Z</time></trkpt><trkpt lat="43.42733009214751" lon="10.652564403746826"><ele>248.66666666666669</ele><time>2026-04-18T13:37:33.967Z</time></trkpt><trkpt lat="43.42739975842623" lon="10.652606712996743"><ele>247.0</ele><time>2026-04-18T13:37:34.96Z</time></trkpt><trkpt lat="43.42747766666667" lon="10.652645833333334"><ele>245.33333333333334</ele><time>2026-04-18T13:37:35.992Z</time></trkpt><trkpt lat="43.42752766666667" lon="10.6527415"><ele>243.66666666666669</ele><time>2026-04-18T13:37:36.969Z</time></trkpt><trkpt lat="43.427579229453265" lon="10.652840234206701"><ele>242.0</ele><time>2026-04-18T13:37:37.964Z</time></trkpt><trkpt lat="43.4276372651957" lon="10.652959353885041"><ele>240.0</ele><time>2026-04-18T13:37:38.961Z</time></trkpt><trkpt lat="43.42765634991149" lon="10.653105406580721"><ele>238.0</ele><time>2026-04-18T13:37:39.982Z</time></trkpt><trkpt lat="43.42764138741198" lon="10.653252935413228"><ele>236.0</ele><time>2026-04-18T13:37:40.966Z</time></trkpt><trkpt lat="43.427599643268785" lon="10.653398553963985"><ele>234.0</ele><time>2026-04-18T13:37:41.968Z</time></trkpt><trkpt lat="43.427497231687326" lon="10.653593920173286"><ele>232.0</ele><time>2026-04-18T13:37:43.979Z</time></trkpt><trkpt lat="43.42741957232011" lon="10.653705180899749"><ele>230.0</ele><time>2026-04-18T13:37:44.97Z</time></trkpt><trkpt lat="43.427354236675015" lon="10.65380219442517"><ele>228.0</ele><time>2026-04-18T13:37:45.963Z</time></trkpt><trkpt lat="43.427306953355405" lon="10.653880862898754"><ele>226.0</ele><time>2026-04-18T13:37:46.978Z</time></trkpt><trkpt lat="43.42726873166788" lon="10.653950867463232"><ele>224.0</ele><time>2026-04-18T13:37:47.969Z</time></trkpt><trkpt lat="43.42723223966091" lon="10.654022693091255"><ele>222.0</ele><time>2026-04-18T13:37:49.005Z</time></trkpt><trkpt lat="43.42719912153367" lon="10.654104780120758"><ele>222.0</ele><time>2026-04-18T13:37:49.969Z</time></trkpt><trkpt lat="43.427174900694105" lon="10.654187491244151"><ele>222.0</ele><time>2026-04-18T13:37:50.976Z</time></trkpt><trkpt lat="43.42716687870917" lon="10.654294824638068"><ele>222.0</ele><time>2026-04-18T13:37:51.975Z</time></trkpt><trkpt lat="43.42716533333334" lon="10.6544185"><ele>222.0</ele><time>2026-04-18T13:37:52.994Z</time></trkpt><trkpt lat="43.427217999999996" lon="10.654532666666666"><ele>222.0</ele><time>2026-04-18T13:37:53.96Z</time></trkpt><trkpt lat="43.42726360873216" lon="10.654657723166451"><ele>222.0</ele><time>2026-04-18T13:37:54.969Z</time></trkpt><trkpt lat="43.42734317838666" lon="10.654769143923698"><ele>219.6</ele><time>2026-04-18T13:37:55.974Z</time></trkpt><trkpt lat="43.427430674027704" lon="10.654842255892763"><ele>217.2</ele><time>2026-04-18T13:37:56.973Z</time></trkpt><trkpt lat="43.42751681993287" lon="10.654895416333941"><ele>214.8</ele><time>2026-04-18T13:37:57.969Z</time></trkpt><trkpt lat="43.427608370733886" lon="10.654945134397403"><ele>212.4</ele><time>2026-04-18T13:37:58.973Z</time></trkpt><trkpt lat="43.42769879860225" lon="10.654991739082242"><ele>210.0</ele><time>2026-04-18T13:37:59.961Z</time></trkpt><trkpt lat="43.42779174608331" lon="10.655039609320403"><ele>210.0</ele><time>2026-04-18T13:38:00.984Z</time></trkpt><trkpt lat="43.42788538036514" lon="10.65508906921523"><ele>210.0</ele><time>2026-04-18T13:38:01.966Z</time></trkpt><trkpt lat="43.42797879515918" lon="10.655144287151058"><ele>210.0</ele><time>2026-04-18T13:38:02.957Z</time></trkpt><trkpt lat="43.42807081271041" lon="10.655201186240424"><ele>210.0</ele><time>2026-04-18T13:38:03.968Z</time></trkpt><trkpt lat="43.42816057343066" lon="10.655256693614835"><ele>210.0</ele><time>2026-04-18T13:38:04.974Z</time></trkpt><trkpt lat="43.42824736756815" lon="10.655319474645532"><ele>206.8</ele><time>2026-04-18T13:38:05.989Z</time></trkpt><trkpt lat="43.428335" lon="10.655384833333335"><ele>203.6</ele><time>2026-04-18T13:38:06.97Z</time></trkpt><trkpt lat="43.42841133333333" lon="10.655489166666666"><ele>200.39999999999998</ele><time>2026-04-18T13:38:07.97Z</time></trkpt><trkpt lat="43.428478999999996" lon="10.655602166666666"><ele>197.2</ele><time>2026-04-18T13:38:08.966Z</time></trkpt><trkpt lat="43.428538333333336" lon="10.655719333333332"><ele>194.0</ele><time>2026-04-18T13:38:09.994Z</time></trkpt><trkpt lat="43.42859583333333" lon="10.655827166666665"><ele>194.0</ele><time>2026-04-18T13:38:10.988Z</time></trkpt><trkpt lat="43.428649261355545" lon="10.655942495096223"><ele>194.0</ele><time>2026-04-18T13:38:11.974Z</time></trkpt><trkpt lat="43.42872420901668" lon="10.65604058987318"><ele>194.0</ele><time>2026-04-18T13:38:12.965Z</time></trkpt><trkpt lat="43.428859438050424" lon="10.65615431018462"><ele>194.0</ele><time>2026-04-18T13:38:13.985Z</time></trkpt><trkpt lat="43.42896118622962" lon="10.6562028735856"><ele>192.33333333333334</ele><time>2026-04-18T13:38:14.992Z</time></trkpt><trkpt lat="43.4290655348472" lon="10.656241986649833"><ele>190.66666666666669</ele><time>2026-04-18T13:38:15.969Z</time></trkpt><trkpt lat="43.42915431057509" lon="10.656272815296154"><ele>189.0</ele><time>2026-04-18T13:38:16.965Z</time></trkpt><trkpt lat="43.42923389520328" lon="10.65631902876691"><ele>187.33333333333334</ele><time>2026-04-18T13:38:17.978Z</time></trkpt><trkpt lat="43.42930249999999" lon="10.656380666666665"><ele>185.66666666666669</ele><time>2026-04-18T13:38:19.002Z</time></trkpt><trkpt lat="43.42934783333334" lon="10.656451166666665"><ele>184.0</ele><time>2026-04-18T13:38:19.956Z</time></trkpt><trkpt lat="43.42943133700446" lon="10.656652459116554"><ele>184.0</ele><time>2026-04-18T13:38:21.968Z</time></trkpt><trkpt lat="43.42951346447741" lon="10.656684935882158"><ele>184.0</ele><time>2026-04-18T13:38:22.997Z</time></trkpt><trkpt lat="43.429609700549385" lon="10.656725597453812"><ele>184.0</ele><time>2026-04-18T13:38:23.965Z</time></trkpt><trkpt lat="43.42977321372379" lon="10.656813695706571"><ele>184.0</ele><time>2026-04-18T13:38:25.969Z</time></trkpt><trkpt lat="43.42989259688946" lon="10.656888933135663"><ele>183.66666666666669</ele><time>2026-04-18T13:38:26.989Z</time></trkpt><trkpt lat="43.430021901086725" lon="10.656975578503046"><ele>183.33333333333334</ele><time>2026-04-18T13:38:27.995Z</time></trkpt><trkpt lat="43.430160396233575" lon="10.657069467681739"><ele>183.0</ele><time>2026-04-18T13:38:28.965Z</time></trkpt><trkpt lat="43.43030740885752" lon="10.657171292396686"><ele>183.0</ele><time>2026-04-18T13:38:29.97Z</time></trkpt><trkpt lat="43.43046096347769" lon="10.657277648333556"><ele>183.0</ele><time>2026-04-18T13:38:30.978Z</time></trkpt><trkpt lat="43.430622716295076" lon="10.65738481555819"><ele>183.0</ele><time>2026-04-18T13:38:31.986Z</time></trkpt><trkpt lat="43.43078864747114" lon="10.65749364267586"><ele>182.66666666666666</ele><time>2026-04-18T13:38:32.961Z</time></trkpt><trkpt lat="43.43095889843267" lon="10.657605302706875"><ele>182.33333333333331</ele><time>2026-04-18T13:38:33.967Z</time></trkpt><trkpt lat="43.43113358228014" lon="10.657720108668327"><ele>182.0</ele><time>2026-04-18T13:38:34.972Z</time></trkpt><trkpt lat="43.43131369181686" lon="10.657839129923207"><ele>181.66666666666666</ele><time>2026-04-18T13:38:35.997Z</time></trkpt><trkpt lat="43.43149465239658" lon="10.657960015025804"><ele>181.33333333333334</ele><time>2026-04-18T13:38:36.969Z</time></trkpt><trkpt lat="43.43167358946499" lon="10.65808356549808"><ele>181.0</ele><time>2026-04-18T13:38:37.965Z</time></trkpt><trkpt lat="43.43185286616545" lon="10.658205424346702"><ele>181.0</ele><time>2026-04-18T13:38:38.976Z</time></trkpt><trkpt lat="43.43202944903125" lon="10.658323576853656"><ele>181.0</ele><time>2026-04-18T13:38:39.987Z</time></trkpt><trkpt lat="43.432202659018635" lon="10.65844397063733"><ele>181.0</ele><time>2026-04-18T13:38:40.961Z</time></trkpt><trkpt lat="43.432373466658255" lon="10.658558607626084"><ele>180.0</ele><time>2026-04-18T13:38:41.97Z</time></trkpt><trkpt lat="43.43253988658328" lon="10.658670299802262"><ele>179.0</ele><time>2026-04-18T13:38:42.979Z</time></trkpt><trkpt lat="43.432697312516744" lon="10.65877248763913"><ele>178.0</ele><time>2026-04-18T13:38:43.988Z</time></trkpt><trkpt lat="43.4328425" lon="10.658869333333332"><ele>178.0</ele><time>2026-04-18T13:38:44.967Z</time></trkpt><trkpt lat="43.432948999999994" lon="10.659027833333335"><ele>178.0</ele><time>2026-04-18T13:38:45.964Z</time></trkpt><trkpt lat="43.43303083333334" lon="10.659187666666666"><ele>178.0</ele><time>2026-04-18T13:38:46.958Z</time></trkpt><trkpt lat="43.43310533333334" lon="10.659329666666668"><ele>178.0</ele><time>2026-04-18T13:38:47.978Z</time></trkpt><trkpt lat="43.43318299999999" lon="10.659455833333334"><ele>177.75</ele><time>2026-04-18T13:38:48.967Z</time></trkpt><trkpt lat="43.43326350534668" lon="10.65958319416399"><ele>177.5</ele><time>2026-04-18T13:38:49.97Z</time></trkpt><trkpt lat="43.43344346013634" lon="10.65970544542837"><ele>177.25</ele><time>2026-04-18T13:38:50.978Z</time></trkpt><trkpt lat="43.43351090249965" lon="10.65972766935988"><ele>177.0</ele><time>2026-04-18T13:38:51.969Z</time></trkpt><trkpt lat="43.43365079752112" lon="10.659769137661483"><ele>178.0</ele><time>2026-04-18T13:38:52.989Z</time></trkpt><trkpt lat="43.433873995111504" lon="10.659831846061453"><ele>179.0</ele><time>2026-04-18T13:38:53.966Z</time></trkpt><trkpt lat="43.434031617875384" lon="10.659876422224645"><ele>180.0</ele><time>2026-04-18T13:38:54.963Z</time></trkpt><trkpt lat="43.434112984582995" lon="10.65990310847391"><ele>180.0</ele><time>2026-04-18T13:38:55.977Z</time></trkpt><trkpt lat="43.43436563301929" lon="10.660001887681776"><ele>180.0</ele><time>2026-04-18T13:38:56.983Z</time></trkpt><trkpt lat="43.434539248344414" lon="10.660081309943735"><ele>180.0</ele><time>2026-04-18T13:38:57.968Z</time></trkpt><trkpt lat="43.43462573843482" lon="10.660128780685854"><ele>180.33333333333334</ele><time>2026-04-18T13:38:58.975Z</time></trkpt><trkpt lat="43.43480065941009" lon="10.660237603437887"><ele>180.66666666666669</ele><time>2026-04-18T13:38:59.966Z</time></trkpt><trkpt lat="43.43497761149987" lon="10.660364773157688"><ele>181.0</ele><time>2026-04-18T13:39:00.985Z</time></trkpt><trkpt lat="43.43524707830568" lon="10.660563192650866"><ele>179.66666666666669</ele><time>2026-04-18T13:39:01.991Z</time></trkpt><trkpt lat="43.43542651402831" lon="10.660699405973663"><ele>178.33333333333334</ele><time>2026-04-18T13:39:02.961Z</time></trkpt><trkpt lat="43.43560544337535" lon="10.660835234800425"><ele>177.0</ele><time>2026-04-18T13:39:03.968Z</time></trkpt><trkpt lat="43.435783420723624" lon="10.660969671748257"><ele>177.0</ele><time>2026-04-18T13:39:04.973Z</time></trkpt><trkpt lat="43.43595977564762" lon="10.661100085984076"><ele>177.0</ele><time>2026-04-18T13:39:05.987Z</time></trkpt><trkpt lat="43.43613270153857" lon="10.661229575043015"><ele>177.0</ele><time>2026-04-18T13:39:06.963Z</time></trkpt><trkpt lat="43.436302330876764" lon="10.661361734755564"><ele>175.33333333333334</ele><time>2026-04-18T13:39:07.969Z</time></trkpt><trkpt lat="43.43646896168394" lon="10.661491558149688"><ele>173.66666666666669</ele><time>2026-04-18T13:39:08.974Z</time></trkpt><trkpt lat="43.43663878918737" lon="10.661617459518213"><ele>172.0</ele><time>2026-04-18T13:39:10.009Z</time></trkpt><trkpt lat="43.436813829218586" lon="10.661731680123552"><ele>172.0</ele><time>2026-04-18T13:39:10.965Z</time></trkpt><trkpt lat="43.43699928455917" lon="10.661822691720753"><ele>172.0</ele><time>2026-04-18T13:39:11.963Z</time></trkpt><trkpt lat="43.437093567642876" lon="10.661860401927992"><ele>172.0</ele><time>2026-04-18T13:39:12.967Z</time></trkpt><trkpt lat="43.437372482234174" lon="10.661961222098908"><ele>170.33333333333334</ele><time>2026-04-18T13:39:13.989Z</time></trkpt><trkpt lat="43.43756005271871" lon="10.66202641311853"><ele>168.66666666666666</ele><time>2026-04-18T13:39:14.957Z</time></trkpt><trkpt lat="43.437747845777515" lon="10.66209212174821"><ele>167.0</ele><time>2026-04-18T13:39:15.962Z</time></trkpt><trkpt lat="43.43793458585644" lon="10.662159929438932"><ele>168.0</ele><time>2026-04-18T13:39:16.974Z</time></trkpt><trkpt lat="43.43812332488191" lon="10.662230580671645"><ele>169.0</ele><time>2026-04-18T13:39:17.985Z</time></trkpt><trkpt lat="43.4383099211802" lon="10.66230042958009"><ele>170.0</ele><time>2026-04-18T13:39:18.987Z</time></trkpt><trkpt lat="43.43840238944867" lon="10.66233504351176"><ele>170.0</ele><time>2026-04-18T13:39:19.979Z</time></trkpt><trkpt lat="43.43866626655738" lon="10.662450049374787"><ele>170.0</ele><time>2026-04-18T13:39:20.972Z</time></trkpt><trkpt lat="43.43874649661182" lon="10.662498684983365"><ele>170.0</ele><time>2026-04-18T13:39:21.975Z</time></trkpt><trkpt lat="43.43896851732399" lon="10.662696659883215"><ele>169.66666666666666</ele><time>2026-04-18T13:39:22.999Z</time></trkpt><trkpt lat="43.43911283333333" lon="10.662845166666665"><ele>169.33333333333334</ele><time>2026-04-18T13:39:23.962Z</time></trkpt><trkpt lat="43.439234252823795" lon="10.663035783704782"><ele>169.0</ele><time>2026-04-18T13:39:24.963Z</time></trkpt><trkpt lat="43.43938116666667" lon="10.663204166666665"><ele>169.0</ele><time>2026-04-18T13:39:25.966Z</time></trkpt><trkpt lat="43.43951816666666" lon="10.663391333333333"><ele>169.0</ele><time>2026-04-18T13:39:26.995Z</time></trkpt><trkpt lat="43.439655666666674" lon="10.663574500000001"><ele>169.0</ele><time>2026-04-18T13:39:27.977Z</time></trkpt><trkpt lat="43.43979116666666" lon="10.663758166666666"><ele>167.66666666666669</ele><time>2026-04-18T13:39:28.964Z</time></trkpt><trkpt lat="43.439929" lon="10.663940333333334"><ele>166.33333333333334</ele><time>2026-04-18T13:39:29.966Z</time></trkpt><trkpt lat="43.4400735" lon="10.6641155"><ele>165.0</ele><time>2026-04-18T13:39:30.986Z</time></trkpt><trkpt lat="43.44021586227233" lon="10.664307265079993"><ele>165.0</ele><time>2026-04-18T13:39:31.978Z</time></trkpt><trkpt lat="43.440299196079515" lon="10.664388463356495"><ele>165.0</ele><time>2026-04-18T13:39:32.967Z</time></trkpt><trkpt lat="43.440479492761355" lon="10.66453612260378"><ele>165.0</ele><time>2026-04-18T13:39:33.968Z</time></trkpt><trkpt lat="43.44067596851079" lon="10.664661672049927"><ele>163.5</ele><time>2026-04-18T13:39:34.983Z</time></trkpt><trkpt lat="43.44088995303229" lon="10.664759932040699"><ele>162.0</ele><time>2026-04-18T13:39:35.962Z</time></trkpt><trkpt lat="43.44111151716333" lon="10.664833650802018"><ele>161.5</ele><time>2026-04-18T13:39:36.96Z</time></trkpt><trkpt lat="43.44144634496498" lon="10.66493885493605"><ele>161.0</ele><time>2026-04-18T13:39:37.973Z</time></trkpt><trkpt lat="43.44167465938067" lon="10.665009399974126"><ele>161.0</ele><time>2026-04-18T13:39:39.075Z</time></trkpt><trkpt lat="43.44190600444159" lon="10.665080794084615"><ele>161.0</ele><time>2026-04-18T13:39:39.994Z</time></trkpt><trkpt lat="43.442138861165674" lon="10.665153801335432"><ele>160.0</ele><time>2026-04-18T13:39:40.966Z</time></trkpt><trkpt lat="43.442372986164806" lon="10.665228442409857"><ele>159.0</ele><time>2026-04-18T13:39:41.972Z</time></trkpt><trkpt lat="43.44260734216658" lon="10.665303157222814"><ele>159.0</ele><time>2026-04-18T13:39:42.964Z</time></trkpt><trkpt lat="43.44284188965134" lon="10.665376499201022"><ele>159.0</ele><time>2026-04-18T13:39:43.991Z</time></trkpt><trkpt lat="43.44307579898765" lon="10.66544884596685"><ele>158.33333333333334</ele><time>2026-04-18T13:39:44.965Z</time></trkpt><trkpt lat="43.443192640497365" lon="10.665484780757046"><ele>157.66666666666669</ele><time>2026-04-18T13:39:45.97Z</time></trkpt><trkpt lat="43.44342628346509" lon="10.66555663462456"><ele>157.0</ele><time>2026-04-18T13:39:46.958Z</time></trkpt><trkpt lat="43.44365894826208" lon="10.665634055639108"><ele>157.0</ele><time>2026-04-18T13:39:47.982Z</time></trkpt><trkpt lat="43.44389112579544" lon="10.665717961689428"><ele>157.0</ele><time>2026-04-18T13:39:48.957Z</time></trkpt><trkpt lat="43.44412426452995" lon="10.665811984188666"><ele>157.0</ele><time>2026-04-18T13:39:49.967Z</time></trkpt><trkpt lat="43.44435936493712" lon="10.665906623394568"><ele>157.0</ele><time>2026-04-18T13:39:50.961Z</time></trkpt><trkpt lat="43.44459729272586" lon="10.666002242962591"><ele>156.5</ele><time>2026-04-18T13:39:51.975Z</time></trkpt><trkpt lat="43.444837568737405" lon="10.666097330219154"><ele>156.0</ele><time>2026-04-18T13:39:52.983Z</time></trkpt><trkpt lat="43.44507807686001" lon="10.666192104786834"><ele>154.5</ele><time>2026-04-18T13:39:53.959Z</time></trkpt><trkpt lat="43.445318924968284" lon="10.666287014223478"><ele>153.0</ele><time>2026-04-18T13:39:54.97Z</time></trkpt><trkpt lat="43.445561032321834" lon="10.666379387839228"><ele>153.0</ele><time>2026-04-18T13:39:55.97Z</time></trkpt><trkpt lat="43.445803379321" lon="10.66647200592559"><ele>153.0</ele><time>2026-04-18T13:39:56.978Z</time></trkpt><trkpt lat="43.446054999999994" lon="10.666521499999998"><ele>152.0</ele><time>2026-04-18T13:39:57.998Z</time></trkpt><trkpt lat="43.4462965" lon="10.666620833333331"><ele>151.0</ele><time>2026-04-18T13:39:58.982Z</time></trkpt><trkpt lat="43.44653866666666" lon="10.666718833333332"><ele>151.0</ele><time>2026-04-18T13:39:59.972Z</time></trkpt><trkpt lat="43.4467835" lon="10.666817833333335"><ele>151.0</ele><time>2026-04-18T13:40:00.999Z</time></trkpt><trkpt lat="43.44702833333334" lon="10.666915333333336"><ele>150.5</ele><time>2026-04-18T13:40:01.957Z</time></trkpt><trkpt lat="43.447269000000006" lon="10.667010999999999"><ele>150.0</ele><time>2026-04-18T13:40:02.961Z</time></trkpt><trkpt lat="43.447505333333325" lon="10.667107166666664"><ele>150.0</ele><time>2026-04-18T13:40:03.961Z</time></trkpt><trkpt lat="43.447737833333335" lon="10.667204166666666"><ele>150.0</ele><time>2026-04-18T13:40:04.978Z</time></trkpt><trkpt lat="43.44796733333333" lon="10.667297000000001"><ele>150.0</ele><time>2026-04-18T13:40:05.958Z</time></trkpt><trkpt lat="43.44819366666667" lon="10.667386"><ele>150.0</ele><time>2026-04-18T13:40:06.961Z</time></trkpt><trkpt lat="43.44841733333333" lon="10.667464833333334"><ele>150.0</ele><time>2026-04-18T13:40:07.975Z</time></trkpt><trkpt lat="43.44864033333333" lon="10.667526666666665"><ele>150.0</ele><time>2026-04-18T13:40:08.98Z</time></trkpt><trkpt lat="43.448965" lon="10.667578833333335"><ele>150.33333333333334</ele><time>2026-04-18T13:40:09.991Z</time></trkpt><trkpt lat="43.449163500000004" lon="10.667585666666666"><ele>150.66666666666669</ele><time>2026-04-18T13:40:10.963Z</time></trkpt><trkpt lat="43.44925883333334" lon="10.667582999999997"><ele>151.0</ele><time>2026-04-18T13:40:11.982Z</time></trkpt><trkpt lat="43.44944233333334" lon="10.667549333333332"><ele>151.0</ele><time>2026-04-18T13:40:12.979Z</time></trkpt><trkpt lat="43.44962066666667" lon="10.667477000000002"><ele>151.0</ele><time>2026-04-18T13:40:13.992Z</time></trkpt><trkpt lat="43.44979816666667" lon="10.66739233333333"><ele>151.0</ele><time>2026-04-18T13:40:14.983Z</time></trkpt><trkpt lat="43.449974000000005" lon="10.667310999999998"><ele>150.33333333333334</ele><time>2026-04-18T13:40:15.974Z</time></trkpt><trkpt lat="43.45015016666666" lon="10.667250500000002"><ele>149.66666666666666</ele><time>2026-04-18T13:40:16.974Z</time></trkpt><trkpt lat="43.45032916666668" lon="10.667220333333335"><ele>149.0</ele><time>2026-04-18T13:40:17.972Z</time></trkpt><trkpt lat="43.450509333333336" lon="10.667224833333334"><ele>149.0</ele><time>2026-04-18T13:40:18.978Z</time></trkpt><trkpt lat="43.45068500000001" lon="10.667251333333336"><ele>149.0</ele><time>2026-04-18T13:40:19.975Z</time></trkpt><trkpt lat="43.45085616666667" lon="10.6672885"><ele>149.0</ele><time>2026-04-18T13:40:20.964Z</time></trkpt><trkpt lat="43.45102366666667" lon="10.667322166666668"><ele>149.0</ele><time>2026-04-18T13:40:21.974Z</time></trkpt><trkpt lat="43.451187499999996" lon="10.667355666666667"><ele>149.0</ele><time>2026-04-18T13:40:23.007Z</time></trkpt><trkpt lat="43.45134983333334" lon="10.66739"><ele>149.0</ele><time>2026-04-18T13:40:24.142Z</time></trkpt><trkpt lat="43.45150983333333" lon="10.667422333333331"><ele>149.66666666666666</ele><time>2026-04-18T13:40:25.06Z</time></trkpt><trkpt lat="43.451668166666664" lon="10.667454833333332"><ele>150.33333333333334</ele><time>2026-04-18T13:40:25.981Z</time></trkpt><trkpt lat="43.451903333333334" lon="10.667501833333331"><ele>151.0</ele><time>2026-04-18T13:40:27.003Z</time></trkpt><trkpt lat="43.452056999999996" lon="10.667527833333333"><ele>150.5</ele><time>2026-04-18T13:40:27.971Z</time></trkpt><trkpt lat="43.45220616666667" lon="10.667543333333334"><ele>150.0</ele><time>2026-04-18T13:40:28.97Z</time></trkpt><trkpt lat="43.4522795" lon="10.667550166666668"><ele>149.5</ele><time>2026-04-18T13:40:29.975Z</time></trkpt><trkpt lat="43.45242383333333" lon="10.667560833333335"><ele>149.0</ele><time>2026-04-18T13:40:30.99Z</time></trkpt><trkpt lat="43.45256633333333" lon="10.667563666666666"><ele>149.0</ele><time>2026-04-18T13:40:31.975Z</time></trkpt><trkpt lat="43.452707333333336" lon="10.667563"><ele>149.0</ele><time>2026-04-18T13:40:33.042Z</time></trkpt><trkpt lat="43.452847500000004" lon="10.667558166666666"><ele>149.0</ele><time>2026-04-18T13:40:33.97Z</time></trkpt><trkpt lat="43.452989333333335" lon="10.667553166666668"><ele>149.0</ele><time>2026-04-18T13:40:34.979Z</time></trkpt><trkpt lat="43.45313516666666" lon="10.667552833333332"><ele>148.66666666666666</ele><time>2026-04-18T13:40:35.975Z</time></trkpt><trkpt lat="43.453288499999985" lon="10.667559333333335"><ele>148.33333333333334</ele><time>2026-04-18T13:40:36.967Z</time></trkpt><trkpt lat="43.453447000000004" lon="10.667575333333332"><ele>148.0</ele><time>2026-04-18T13:40:37.98Z</time></trkpt><trkpt lat="43.45360733333333" lon="10.667597666666666"><ele>148.0</ele><time>2026-04-18T13:40:38.974Z</time></trkpt><trkpt lat="43.45377033333333" lon="10.6676215"><ele>148.0</ele><time>2026-04-18T13:40:39.987Z</time></trkpt><trkpt lat="43.453937499999995" lon="10.667649833333334"><ele>148.0</ele><time>2026-04-18T13:40:40.972Z</time></trkpt><trkpt lat="43.45410933333333" lon="10.667680166666667"><ele>147.0</ele><time>2026-04-18T13:40:41.974Z</time></trkpt><trkpt lat="43.45428766666667" lon="10.667715166666667"><ele>146.0</ele><time>2026-04-18T13:40:42.972Z</time></trkpt><trkpt lat="43.45447366666667" lon="10.667751166666667"><ele>145.0</ele><time>2026-04-18T13:40:44.008Z</time></trkpt><trkpt lat="43.4546615" lon="10.667784333333335"><ele>144.66666666666669</ele><time>2026-04-18T13:40:44.967Z</time></trkpt><trkpt lat="43.4548465" lon="10.667817166666667"><ele>144.33333333333334</ele><time>2026-04-18T13:40:45.971Z</time></trkpt><trkpt lat="43.45502766666667" lon="10.667849833333332"><ele>144.0</ele><time>2026-04-18T13:40:46.976Z</time></trkpt><trkpt lat="43.45520533333334" lon="10.667882333333333"><ele>144.0</ele><time>2026-04-18T13:40:47.994Z</time></trkpt><trkpt lat="43.45538066666666" lon="10.6679175"><ele>144.0</ele><time>2026-04-18T13:40:48.972Z</time></trkpt><trkpt lat="43.455557" lon="10.667966666666667"><ele>144.0</ele><time>2026-04-18T13:40:49.971Z</time></trkpt><trkpt lat="43.455735999999995" lon="10.668036166666665"><ele>143.66666666666666</ele><time>2026-04-18T13:40:50.971Z</time></trkpt><trkpt lat="43.455917166666666" lon="10.668129500000001"><ele>143.33333333333331</ele><time>2026-04-18T13:40:51.992Z</time></trkpt><trkpt lat="43.45609833333333" lon="10.668247000000001"><ele>143.0</ele><time>2026-04-18T13:40:53.103Z</time></trkpt><trkpt lat="43.456282333333334" lon="10.668376833333332"><ele>142.66666666666666</ele><time>2026-04-18T13:40:54.043Z</time></trkpt><trkpt lat="43.45647066666667" lon="10.668507499999999"><ele>142.33333333333334</ele><time>2026-04-18T13:40:54.971Z</time></trkpt><trkpt lat="43.45666383333334" lon="10.668640833333333"><ele>142.0</ele><time>2026-04-18T13:40:55.97Z</time></trkpt><trkpt lat="43.45686116666667" lon="10.668779166666665"><ele>141.5</ele><time>2026-04-18T13:40:56.985Z</time></trkpt><trkpt lat="43.45706133333333" lon="10.668922499999999"><ele>141.0</ele><time>2026-04-18T13:40:57.969Z</time></trkpt><trkpt lat="43.45726466666667" lon="10.669070999999999"><ele>140.5</ele><time>2026-04-18T13:40:58.97Z</time></trkpt><trkpt lat="43.457471500000004" lon="10.669223833333334"><ele>140.0</ele><time>2026-04-18T13:40:59.974Z</time></trkpt><trkpt lat="43.45768416666667" lon="10.669376833333336"><ele>139.5</ele><time>2026-04-18T13:41:00.999Z</time></trkpt><trkpt lat="43.45789933333334" lon="10.669533000000003"><ele>139.0</ele><time>2026-04-18T13:41:01.97Z</time></trkpt><trkpt lat="43.45811666666667" lon="10.669691833333331"><ele>139.0</ele><time>2026-04-18T13:41:02.967Z</time></trkpt><trkpt lat="43.45832696380986" lon="10.669874748690617"><ele>139.0</ele><time>2026-04-18T13:41:04.059Z</time></trkpt><trkpt lat="43.4585490224106" lon="10.67003478793163"><ele>139.0</ele><time>2026-04-18T13:41:04.99Z</time></trkpt><trkpt lat="43.45877220281889" lon="10.67019578707483"><ele>139.0</ele><time>2026-04-18T13:41:05.963Z</time></trkpt><trkpt lat="43.45899914042871" lon="10.670360401050393"><ele>137.0</ele><time>2026-04-18T13:41:06.967Z</time></trkpt><trkpt lat="43.459238000000006" lon="10.670503"><ele>135.0</ele><time>2026-04-18T13:41:07.967Z</time></trkpt><trkpt lat="43.459468833333325" lon="10.670671166666667"><ele>136.0</ele><time>2026-04-18T13:41:08.978Z</time></trkpt><trkpt lat="43.459699666666666" lon="10.670841000000001"><ele>137.0</ele><time>2026-04-18T13:41:09.968Z</time></trkpt><trkpt lat="43.45993216666667" lon="10.671005333333335"><ele>135.0</ele><time>2026-04-18T13:41:11.023Z</time></trkpt><trkpt lat="43.46016283333333" lon="10.671171833333336"><ele>133.0</ele><time>2026-04-18T13:41:11.962Z</time></trkpt><trkpt lat="43.460392666666664" lon="10.671338666666669"><ele>132.5</ele><time>2026-04-18T13:41:12.978Z</time></trkpt><trkpt lat="43.46062266666666" lon="10.6715025"><ele>132.0</ele><time>2026-04-18T13:41:13.985Z</time></trkpt><trkpt lat="43.46085333333334" lon="10.6716645"><ele>132.0</ele><time>2026-04-18T13:41:14.971Z</time></trkpt><trkpt lat="43.46108233333332" lon="10.671827333333333"><ele>132.0</ele><time>2026-04-18T13:41:15.977Z</time></trkpt><trkpt lat="43.461300007675504" lon="10.672008412952401"><ele>131.5</ele><time>2026-04-18T13:41:16.982Z</time></trkpt><trkpt lat="43.46152159196183" lon="10.67216759299042"><ele>131.0</ele><time>2026-04-18T13:41:18.002Z</time></trkpt><trkpt lat="43.46173912231903" lon="10.672323469891811"><ele>131.0</ele><time>2026-04-18T13:41:18.967Z</time></trkpt><trkpt lat="43.461952911553766" lon="10.672476665998069"><ele>131.0</ele><time>2026-04-18T13:41:19.97Z</time></trkpt><trkpt lat="43.462172166666676" lon="10.672607999999999"><ele>130.5</ele><time>2026-04-18T13:41:20.98Z</time></trkpt><trkpt lat="43.462384333333326" lon="10.672758500000002"><ele>130.0</ele><time>2026-04-18T13:41:21.983Z</time></trkpt><trkpt lat="43.462597333333335" lon="10.672910333333334"><ele>130.0</ele><time>2026-04-18T13:41:22.959Z</time></trkpt><trkpt lat="43.46281183333333" lon="10.673065666666666"><ele>130.0</ele><time>2026-04-18T13:41:23.967Z</time></trkpt><trkpt lat="43.463029999999996" lon="10.673223"><ele>131.0</ele><time>2026-04-18T13:41:24.964Z</time></trkpt><trkpt lat="43.46325266666666" lon="10.673382499999999"><ele>132.0</ele><time>2026-04-18T13:41:25.986Z</time></trkpt><trkpt lat="43.46348033333334" lon="10.673543166666665"><ele>130.0</ele><time>2026-04-18T13:41:26.988Z</time></trkpt><trkpt lat="43.463710000000006" lon="10.673703166666668"><ele>128.0</ele><time>2026-04-18T13:41:27.963Z</time></trkpt><trkpt lat="43.4639291423005" lon="10.673882880527186"><ele>128.0</ele><time>2026-04-18T13:41:28.972Z</time></trkpt><trkpt lat="43.46415916666667" lon="10.674024166666667"><ele>128.0</ele><time>2026-04-18T13:41:29.971Z</time></trkpt><trkpt lat="43.464374833333345" lon="10.674195166666669"><ele>128.0</ele><time>2026-04-18T13:41:30.98Z</time></trkpt><trkpt lat="43.46458066666667" lon="10.674381499999999"><ele>128.0</ele><time>2026-04-18T13:41:31.968Z</time></trkpt><trkpt lat="43.464771500000005" lon="10.674588333333334"><ele>127.0</ele><time>2026-04-18T13:41:32.968Z</time></trkpt><trkpt lat="43.464950833333326" lon="10.674807333333334"><ele>126.0</ele><time>2026-04-18T13:41:33.975Z</time></trkpt><trkpt lat="43.46511316666667" lon="10.675046833333333"><ele>125.5</ele><time>2026-04-18T13:41:34.994Z</time></trkpt><trkpt lat="43.46525433333333" lon="10.675307666666667"><ele>125.0</ele><time>2026-04-18T13:41:35.966Z</time></trkpt><trkpt lat="43.465376" lon="10.675585333333332"><ele>126.5</ele><time>2026-04-18T13:41:36.963Z</time></trkpt><trkpt lat="43.465487" lon="10.675873999999999"><ele>128.0</ele><time>2026-04-18T13:41:37.962Z</time></trkpt><trkpt lat="43.465600333333335" lon="10.676168"><ele>128.0</ele><time>2026-04-18T13:41:38.983Z</time></trkpt><trkpt lat="43.46571600000001" lon="10.676469166666667"><ele>128.0</ele><time>2026-04-18T13:41:39.972Z</time></trkpt><trkpt lat="43.46583316666667" lon="10.676772000000001"><ele>126.5</ele><time>2026-04-18T13:41:40.983Z</time></trkpt><trkpt lat="43.46594666666667" lon="10.677074000000001"><ele>125.0</ele><time>2026-04-18T13:41:41.97Z</time></trkpt><trkpt lat="43.466058833333335" lon="10.677371"><ele>125.0</ele><time>2026-04-18T13:41:42.976Z</time></trkpt><trkpt lat="43.46617033333333" lon="10.677661833333332"><ele>125.0</ele><time>2026-04-18T13:41:43.994Z</time></trkpt><trkpt lat="43.466279333333325" lon="10.677949333333332"><ele>127.0</ele><time>2026-04-18T13:41:44.976Z</time></trkpt><trkpt lat="43.46638816666666" lon="10.678235500000001"><ele>129.0</ele><time>2026-04-18T13:41:45.975Z</time></trkpt><trkpt lat="43.466561333333324" lon="10.678653999999998"><ele>126.33333333333334</ele><time>2026-04-18T13:41:46.983Z</time></trkpt><trkpt lat="43.46662283333334" lon="10.678789166666666"><ele>123.66666666666667</ele><time>2026-04-18T13:41:47.98Z</time></trkpt><trkpt lat="43.466754333333334" lon="10.679055000000002"><ele>121.0</ele><time>2026-04-18T13:41:48.967Z</time></trkpt><trkpt lat="43.466933988023555" lon="10.679480320979676"><ele>121.0</ele><time>2026-04-18T13:41:49.966Z</time></trkpt><trkpt lat="43.46706678111934" lon="10.679761785861967"><ele>121.0</ele><time>2026-04-18T13:41:50.971Z</time></trkpt><trkpt lat="43.46728499999999" lon="10.679977166666667"><ele>121.0</ele><time>2026-04-18T13:41:51.994Z</time></trkpt><trkpt lat="43.467442833333344" lon="10.680243333333332"><ele>121.0</ele><time>2026-04-18T13:41:52.963Z</time></trkpt><trkpt lat="43.467601333333334" lon="10.680504166666667"><ele>120.0</ele><time>2026-04-18T13:41:53.961Z</time></trkpt><trkpt lat="43.467758" lon="10.680767666666668"><ele>119.0</ele><time>2026-04-18T13:41:54.988Z</time></trkpt><trkpt lat="43.4679135" lon="10.6810275"><ele>122.5</ele><time>2026-04-18T13:41:55.975Z</time></trkpt><trkpt lat="43.46799083333334" lon="10.681155166666667"><ele>126.0</ele><time>2026-04-18T13:41:56.981Z</time></trkpt><trkpt lat="43.46821799999999" lon="10.681533333333334"><ele>126.0</ele><time>2026-04-18T13:41:57.97Z</time></trkpt><trkpt lat="43.46836233333334" lon="10.6817815"><ele>126.0</ele><time>2026-04-18T13:41:58.96Z</time></trkpt><trkpt lat="43.46849383333333" lon="10.682020666666665"><ele>126.0</ele><time>2026-04-18T13:41:59.983Z</time></trkpt><trkpt lat="43.46855266666666" lon="10.682136166666666"><ele>124.66666666666666</ele><time>2026-04-18T13:42:00.963Z</time></trkpt><trkpt lat="43.468688500000006" lon="10.682464999999999"><ele>123.33333333333333</ele><time>2026-04-18T13:42:01.963Z</time></trkpt><trkpt lat="43.468736500000006" lon="10.682683500000001"><ele>122.0</ele><time>2026-04-18T13:42:02.968Z</time></trkpt><trkpt lat="43.46874850000001" lon="10.682905499999999"><ele>121.33333333333333</ele><time>2026-04-18T13:42:03.978Z</time></trkpt><trkpt lat="43.468730333333326" lon="10.683127000000002"><ele>120.66666666666666</ele><time>2026-04-18T13:42:04.997Z</time></trkpt><trkpt lat="43.468697999999996" lon="10.683344"><ele>120.0</ele><time>2026-04-18T13:42:05.969Z</time></trkpt><trkpt lat="43.468672500000004" lon="10.683553333333336"><ele>119.25</ele><time>2026-04-18T13:42:06.975Z</time></trkpt><trkpt lat="43.468669" lon="10.683751166666665"><ele>118.5</ele><time>2026-04-18T13:42:08.079Z</time></trkpt><trkpt lat="43.46870066666667" lon="10.683938"><ele>117.75</ele><time>2026-04-18T13:42:09Z</time></trkpt><trkpt lat="43.468756" lon="10.684114499999998"><ele>117.0</ele><time>2026-04-18T13:42:09.966Z</time></trkpt><trkpt lat="43.46883566666667" lon="10.684273166666665"><ele>117.0</ele><time>2026-04-18T13:42:10.966Z</time></trkpt><trkpt lat="43.468946833333334" lon="10.684407166666665"><ele>117.0</ele><time>2026-04-18T13:42:11.972Z</time></trkpt><trkpt lat="43.46908066666666" lon="10.684529666666666"><ele>117.0</ele><time>2026-04-18T13:42:12.988Z</time></trkpt><trkpt lat="43.469226666666664" lon="10.684656833333333"><ele>117.0</ele><time>2026-04-18T13:42:13.976Z</time></trkpt><trkpt lat="43.469381999999996" lon="10.684790666666668"><ele>117.0</ele><time>2026-04-18T13:42:14.966Z</time></trkpt><trkpt lat="43.469464" lon="10.6848595"><ele>117.0</ele><time>2026-04-18T13:42:15.959Z</time></trkpt><trkpt lat="43.46971433333333" lon="10.685078500000001"><ele>115.66666666666666</ele><time>2026-04-18T13:42:16.983Z</time></trkpt><trkpt lat="43.469891000000004" lon="10.6852305"><ele>114.33333333333333</ele><time>2026-04-18T13:42:18.008Z</time></trkpt><trkpt lat="43.469983" lon="10.685305999999999"><ele>113.0</ele><time>2026-04-18T13:42:18.972Z</time></trkpt><trkpt lat="43.470173833333334" lon="10.685451166666667"><ele>113.0</ele><time>2026-04-18T13:42:19.969Z</time></trkpt><trkpt lat="43.4703735" lon="10.685591333333331"><ele>113.0</ele><time>2026-04-18T13:42:20.974Z</time></trkpt><trkpt lat="43.47058133333333" lon="10.68572666666667"><ele>113.5</ele><time>2026-04-18T13:42:21.995Z</time></trkpt><trkpt lat="43.4707905" lon="10.685864333333333"><ele>114.0</ele><time>2026-04-18T13:42:22.972Z</time></trkpt><trkpt lat="43.47100183333333" lon="10.686006666666666"><ele>113.5</ele><time>2026-04-18T13:42:23.967Z</time></trkpt><trkpt lat="43.47120616666666" lon="10.686170333333333"><ele>113.0</ele><time>2026-04-18T13:42:24.965Z</time></trkpt><trkpt lat="43.47139816666666" lon="10.686362"><ele>113.0</ele><time>2026-04-18T13:42:25.987Z</time></trkpt><trkpt lat="43.47157650000001" lon="10.686581333333335"><ele>113.0</ele><time>2026-04-18T13:42:26.996Z</time></trkpt><trkpt lat="43.471741333333334" lon="10.686826499999999"><ele>112.0</ele><time>2026-04-18T13:42:27.973Z</time></trkpt><trkpt lat="43.471894999999996" lon="10.687092333333332"><ele>111.0</ele><time>2026-04-18T13:42:28.967Z</time></trkpt><trkpt lat="43.472043166666666" lon="10.687368166666666"><ele>110.5</ele><time>2026-04-18T13:42:29.989Z</time></trkpt><trkpt lat="43.47219083333333" lon="10.687646333333332"><ele>110.0</ele><time>2026-04-18T13:42:30.968Z</time></trkpt><trkpt lat="43.47233116666667" lon="10.687931666666667"><ele>110.0</ele><time>2026-04-18T13:42:31.968Z</time></trkpt><trkpt lat="43.472463166666664" lon="10.688223666666666"><ele>110.0</ele><time>2026-04-18T13:42:32.972Z</time></trkpt><trkpt lat="43.472588166666675" lon="10.688521333333332"><ele>109.0</ele><time>2026-04-18T13:42:33.983Z</time></trkpt><trkpt lat="43.472711" lon="10.688822"><ele>108.0</ele><time>2026-04-18T13:42:35Z</time></trkpt><trkpt lat="43.472832000000004" lon="10.689125666666666"><ele>110.0</ele><time>2026-04-18T13:42:35.975Z</time></trkpt><trkpt lat="43.472955166666665" lon="10.689429833333335"><ele>112.0</ele><time>2026-04-18T13:42:37.044Z</time></trkpt><trkpt lat="43.47307766666667" lon="10.689737333333335"><ele>112.0</ele><time>2026-04-18T13:42:37.967Z</time></trkpt><trkpt lat="43.4731995" lon="10.6900485"><ele>112.0</ele><time>2026-04-18T13:42:38.988Z</time></trkpt><trkpt lat="43.473320666666666" lon="10.6903665"><ele>110.0</ele><time>2026-04-18T13:42:39.973Z</time></trkpt><trkpt lat="43.47344216666667" lon="10.690689166666667"><ele>108.0</ele><time>2026-04-18T13:42:40.968Z</time></trkpt><trkpt lat="43.47356299999999" lon="10.691012333333333"><ele>108.0</ele><time>2026-04-18T13:42:41.975Z</time></trkpt><trkpt lat="43.47368166666667" lon="10.6913315"><ele>108.0</ele><time>2026-04-18T13:42:42.992Z</time></trkpt><trkpt lat="43.47379866666667" lon="10.691645666666668"><ele>108.5</ele><time>2026-04-18T13:42:43.963Z</time></trkpt><trkpt lat="43.473913499999995" lon="10.691955666666669"><ele>109.0</ele><time>2026-04-18T13:42:44.966Z</time></trkpt><trkpt lat="43.47402950000001" lon="10.692259166666668"><ele>109.0</ele><time>2026-04-18T13:42:45.98Z</time></trkpt><trkpt lat="43.47414233333334" lon="10.6925595"><ele>109.0</ele><time>2026-04-18T13:42:46.983Z</time></trkpt><trkpt lat="43.474256" lon="10.692854166666665"><ele>107.5</ele><time>2026-04-18T13:42:47.976Z</time></trkpt><trkpt lat="43.4743675" lon="10.693145"><ele>106.0</ele><time>2026-04-18T13:42:48.964Z</time></trkpt><trkpt lat="43.47447233333334" lon="10.693432833333334"><ele>105.33333333333334</ele><time>2026-04-18T13:42:49.978Z</time></trkpt><trkpt lat="43.47457883333333" lon="10.693710166666664"><ele>104.66666666666666</ele><time>2026-04-18T13:42:50.973Z</time></trkpt><trkpt lat="43.474681666666655" lon="10.693979999999998"><ele>104.0</ele><time>2026-04-18T13:42:51.97Z</time></trkpt><trkpt lat="43.474786166666675" lon="10.694243833333331"><ele>104.0</ele><time>2026-04-18T13:42:52.973Z</time></trkpt><trkpt lat="43.4749" lon="10.694502"><ele>104.0</ele><time>2026-04-18T13:42:53.969Z</time></trkpt><trkpt lat="43.475026" lon="10.694758166666668"><ele>104.0</ele><time>2026-04-18T13:42:54.973Z</time></trkpt><trkpt lat="43.47516116666667" lon="10.695011166666665"><ele>105.0</ele><time>2026-04-18T13:42:55.967Z</time></trkpt><trkpt lat="43.475301" lon="10.695262833333333"><ele>106.0</ele><time>2026-04-18T13:42:56.979Z</time></trkpt><trkpt lat="43.47544316666667" lon="10.695515333333333"><ele>106.0</ele><time>2026-04-18T13:42:57.975Z</time></trkpt><trkpt lat="43.47558766666666" lon="10.69576666666667"><ele>106.0</ele><time>2026-04-18T13:42:58.97Z</time></trkpt><trkpt lat="43.475730000000006" lon="10.696017666666666"><ele>104.0</ele><time>2026-04-18T13:42:59.979Z</time></trkpt><trkpt lat="43.47587133333333" lon="10.696273499999998"><ele>102.0</ele><time>2026-04-18T13:43:00.98Z</time></trkpt><trkpt lat="43.476016333333334" lon="10.696532999999999"><ele>102.0</ele><time>2026-04-18T13:43:01.964Z</time></trkpt><trkpt lat="43.47616766666667" lon="10.6967915"><ele>102.0</ele><time>2026-04-18T13:43:02.964Z</time></trkpt><trkpt lat="43.476332" lon="10.697041333333333"><ele>101.0</ele><time>2026-04-18T13:43:03.972Z</time></trkpt><trkpt lat="43.476502833333335" lon="10.697283333333333"><ele>100.0</ele><time>2026-04-18T13:43:04.994Z</time></trkpt><trkpt lat="43.47668066666667" lon="10.697514666666667"><ele>100.0</ele><time>2026-04-18T13:43:05.966Z</time></trkpt><trkpt lat="43.47685583333334" lon="10.697744833333335"><ele>100.0</ele><time>2026-04-18T13:43:06.977Z</time></trkpt><trkpt lat="43.477033666666664" lon="10.697971500000001"><ele>98.0</ele><time>2026-04-18T13:43:07.981Z</time></trkpt><trkpt lat="43.4772125" lon="10.698199166666667"><ele>96.0</ele><time>2026-04-18T13:43:08.962Z</time></trkpt><trkpt lat="43.47739266666668" lon="10.698428833333333"><ele>95.0</ele><time>2026-04-18T13:43:09.961Z</time></trkpt><trkpt lat="43.47757433333333" lon="10.698660666666667"><ele>94.0</ele><time>2026-04-18T13:43:10.965Z</time></trkpt><trkpt lat="43.47775750000001" lon="10.698895333333333"><ele>95.5</ele><time>2026-04-18T13:43:11.98Z</time></trkpt><trkpt lat="43.477943999999994" lon="10.699129833333332"><ele>97.0</ele><time>2026-04-18T13:43:12.975Z</time></trkpt><trkpt lat="43.47813033333333" lon="10.699365666666665"><ele>96.5</ele><time>2026-04-18T13:43:13.975Z</time></trkpt><trkpt lat="43.478317" lon="10.699602666666665"><ele>96.0</ele><time>2026-04-18T13:43:14.965Z</time></trkpt><trkpt lat="43.47850350000001" lon="10.699841833333336"><ele>96.0</ele><time>2026-04-18T13:43:15.961Z</time></trkpt><trkpt lat="43.478691500000004" lon="10.700081166666665"><ele>96.0</ele><time>2026-04-18T13:43:16.991Z</time></trkpt><trkpt lat="43.47888116666666" lon="10.7003215"><ele>94.5</ele><time>2026-04-18T13:43:17.973Z</time></trkpt><trkpt lat="43.47907383333333" lon="10.700563166666667"><ele>93.0</ele><time>2026-04-18T13:43:18.972Z</time></trkpt><trkpt lat="43.47936483333333" lon="10.700928500000002"><ele>92.5</ele><time>2026-04-18T13:43:19.969Z</time></trkpt><trkpt lat="43.47955733333333" lon="10.701172833333333"><ele>92.0</ele><time>2026-04-18T13:43:20.973Z</time></trkpt><trkpt lat="43.47974983333334" lon="10.701416500000002"><ele>92.0</ele><time>2026-04-18T13:43:22.101Z</time></trkpt><trkpt lat="43.47994216666666" lon="10.701660499999997"><ele>92.0</ele><time>2026-04-18T13:43:22.965Z</time></trkpt><trkpt lat="43.4800385" lon="10.7017835"><ele>92.0</ele><time>2026-04-18T13:43:23.975Z</time></trkpt><trkpt lat="43.480233" lon="10.702032"><ele>91.0</ele><time>2026-04-18T13:43:24.965Z</time></trkpt><trkpt lat="43.480429833333325" lon="10.702283000000001"><ele>90.0</ele><time>2026-04-18T13:43:25.988Z</time></trkpt><trkpt lat="43.48062816666667" lon="10.702535166666667"><ele>89.0</ele><time>2026-04-18T13:43:26.969Z</time></trkpt><trkpt lat="43.48082633333333" lon="10.702789"><ele>88.0</ele><time>2026-04-18T13:43:27.973Z</time></trkpt><trkpt lat="43.48112450000001" lon="10.703168666666667"><ele>88.66666666666666</ele><time>2026-04-18T13:43:28.964Z</time></trkpt><trkpt lat="43.481324" lon="10.703420833333334"><ele>89.33333333333333</ele><time>2026-04-18T13:43:29.988Z</time></trkpt><trkpt lat="43.48142616666667" lon="10.703546333333335"><ele>90.0</ele><time>2026-04-18T13:43:30.964Z</time></trkpt><trkpt lat="43.48172766666667" lon="10.703923833333333"><ele>90.0</ele><time>2026-04-18T13:43:31.971Z</time></trkpt><trkpt lat="43.48182716666667" lon="10.704047500000001"><ele>90.0</ele><time>2026-04-18T13:43:32.976Z</time></trkpt><trkpt lat="43.482103653514145" lon="10.70442120398137"><ele>90.33333333333333</ele><time>2026-04-18T13:43:33.978Z</time></trkpt><trkpt lat="43.48227748039738" lon="10.70464241228014"><ele>90.66666666666666</ele><time>2026-04-18T13:43:35.015Z</time></trkpt><trkpt lat="43.48235855674172" lon="10.704745588343402"><ele>91.0</ele><time>2026-04-18T13:43:35.964Z</time></trkpt><trkpt lat="43.48252" lon="10.704922"><ele>91.0</ele><time>2026-04-18T13:43:36.974Z</time></trkpt><trkpt lat="43.48265783333333" lon="10.705100999999999"><ele>91.0</ele><time>2026-04-18T13:43:37.969Z</time></trkpt><trkpt lat="43.48278466666667" lon="10.705265"><ele>91.0</ele><time>2026-04-18T13:43:38.981Z</time></trkpt><trkpt lat="43.48296366666667" lon="10.705482333333336"><ele>91.25</ele><time>2026-04-18T13:43:39.966Z</time></trkpt><trkpt lat="43.48308449999999" lon="10.705605"><ele>91.5</ele><time>2026-04-18T13:43:40.969Z</time></trkpt><trkpt lat="43.483147666666675" lon="10.7056615"><ele>91.75</ele><time>2026-04-18T13:43:41.977Z</time></trkpt><trkpt lat="43.48326434705306" lon="10.705788395469375"><ele>92.0</ele><time>2026-04-18T13:43:42.996Z</time></trkpt><trkpt lat="43.48339129063941" lon="10.705891717222443"><ele>92.0</ele><time>2026-04-18T13:43:43.972Z</time></trkpt><trkpt lat="43.48351998877974" lon="10.705990221060553"><ele>92.0</ele><time>2026-04-18T13:43:44.964Z</time></trkpt><trkpt lat="43.483647403761516" lon="10.706086937472886"><ele>92.0</ele><time>2026-04-18T13:43:45.969Z</time></trkpt><trkpt lat="43.48377507408116" lon="10.706183847659382"><ele>92.0</ele><time>2026-04-18T13:43:46.99Z</time></trkpt><trkpt lat="43.483902981494786" lon="10.706281446968033"><ele>90.33333333333334</ele><time>2026-04-18T13:43:47.966Z</time></trkpt><trkpt lat="43.484030521468256" lon="10.706378848258424"><ele>88.66666666666667</ele><time>2026-04-18T13:43:48.976Z</time></trkpt><trkpt lat="43.484158872359515" lon="10.706476054191507"><ele>87.0</ele><time>2026-04-18T13:43:49.977Z</time></trkpt><trkpt lat="43.48435127086324" lon="10.706619160386783"><ele>87.0</ele><time>2026-04-18T13:43:50.982Z</time></trkpt><trkpt lat="43.48441503480662" lon="10.706667251635087"><ele>87.0</ele><time>2026-04-18T13:43:52.014Z</time></trkpt><trkpt lat="43.48454146085632" lon="10.706762603039094"><ele>87.0</ele><time>2026-04-18T13:43:52.966Z</time></trkpt><trkpt lat="43.48466740093588" lon="10.706857585849688"><ele>87.0</ele><time>2026-04-18T13:43:53.964Z</time></trkpt><trkpt lat="43.48479398140301" lon="10.706953050771931"><ele>87.0</ele><time>2026-04-18T13:43:54.969Z</time></trkpt><trkpt lat="43.48492816666667" lon="10.707031666666667"><ele>87.0</ele><time>2026-04-18T13:43:55.982Z</time></trkpt><trkpt lat="43.485054833333336" lon="10.707128833333336"><ele>87.0</ele><time>2026-04-18T13:43:56.976Z</time></trkpt><trkpt lat="43.48518083333334" lon="10.707225166666667"><ele>87.0</ele><time>2026-04-18T13:43:57.965Z</time></trkpt><trkpt lat="43.485304" lon="10.707318500000001"><ele>87.0</ele><time>2026-04-18T13:43:58.966Z</time></trkpt><trkpt lat="43.48542116666666" lon="10.707409500000002"><ele>87.0</ele><time>2026-04-18T13:43:59.984Z</time></trkpt><trkpt lat="43.485528499999994" lon="10.707493166666666"><ele>87.0</ele><time>2026-04-18T13:44:00.968Z</time></trkpt><trkpt lat="43.48562533333333" lon="10.707564833333333"><ele>87.0</ele><time>2026-04-18T13:44:01.973Z</time></trkpt><trkpt lat="43.48570899999999" lon="10.707627833333333"><ele>87.83333333333333</ele><time>2026-04-18T13:44:02.969Z</time></trkpt><trkpt lat="43.485772499999996" lon="10.707676166666667"><ele>88.66666666666667</ele><time>2026-04-18T13:44:03.988Z</time></trkpt><trkpt lat="43.485837999999994" lon="10.707715166666667"><ele>89.5</ele><time>2026-04-18T13:44:05.963Z</time></trkpt><trkpt lat="43.48588716666667" lon="10.707642833333333"><ele>90.33333333333334</ele><time>2026-04-18T13:44:09.981Z</time></trkpt><trkpt lat="43.48580633333333" lon="10.7076635"><ele>91.16666666666667</ele><time>2026-04-18T13:44:24.961Z</time></trkpt><trkpt lat="43.48572049999999" lon="10.707602166666666"><ele>92.0</ele><time>2026-04-18T13:44:26.972Z</time></trkpt><trkpt lat="43.48565133333333" lon="10.707543"><ele>92.0</ele><time>2026-04-18T13:44:27.969Z</time></trkpt><trkpt lat="43.485571" lon="10.707473999999998"><ele>92.0</ele><time>2026-04-18T13:44:28.979Z</time></trkpt><trkpt lat="43.485476166666665" lon="10.707397333333331"><ele>92.0</ele><time>2026-04-18T13:44:30.107Z</time></trkpt><trkpt lat="43.48537066666666" lon="10.707319166666665"><ele>92.0</ele><time>2026-04-18T13:44:30.967Z</time></trkpt><trkpt lat="43.4851995" lon="10.707195166666667"><ele>91.5</ele><time>2026-04-18T13:44:31.961Z</time></trkpt><trkpt lat="43.48513866666667" lon="10.707150999999998"><ele>91.0</ele><time>2026-04-18T13:44:32.976Z</time></trkpt><trkpt lat="43.48501216666667" lon="10.707059666666664"><ele>90.5</ele><time>2026-04-18T13:44:33.993Z</time></trkpt><trkpt lat="43.48487933333334" lon="10.706961000000002"><ele>90.0</ele><time>2026-04-18T13:44:34.968Z</time></trkpt><trkpt lat="43.48474066666666" lon="10.706856166666668"><ele>90.0</ele><time>2026-04-18T13:44:35.972Z</time></trkpt><trkpt lat="43.48459716666666" lon="10.706748999999999"><ele>90.0</ele><time>2026-04-18T13:44:36.972Z</time></trkpt><trkpt lat="43.48444683333334" lon="10.706636500000002"><ele>90.0</ele><time>2026-04-18T13:44:37.981Z</time></trkpt><trkpt lat="43.48429049999999" lon="10.706518833333332"><ele>89.0</ele><time>2026-04-18T13:44:38.985Z</time></trkpt><trkpt lat="43.48413033333333" lon="10.706399833333334"><ele>88.0</ele><time>2026-04-18T13:44:39.972Z</time></trkpt><trkpt lat="43.48397083333333" lon="10.7062785"><ele>87.0</ele><time>2026-04-18T13:44:40.961Z</time></trkpt><trkpt lat="43.48373616666667" lon="10.70609916666667"><ele>88.66666666666667</ele><time>2026-04-18T13:44:41.972Z</time></trkpt><trkpt lat="43.48358333333334" lon="10.705984666666666"><ele>90.33333333333334</ele><time>2026-04-18T13:44:43.008Z</time></trkpt><trkpt lat="43.483433500000004" lon="10.7058655"><ele>92.0</ele><time>2026-04-18T13:44:43.96Z</time></trkpt><trkpt lat="43.483285666666674" lon="10.705740666666667"><ele>92.0</ele><time>2026-04-18T13:44:44.966Z</time></trkpt><trkpt lat="43.48321266666667" lon="10.705677"><ele>92.0</ele><time>2026-04-18T13:44:45.969Z</time></trkpt><trkpt lat="43.48300183333333" lon="10.705468833333335"><ele>92.0</ele><time>2026-04-18T13:44:47.1Z</time></trkpt><trkpt lat="43.482868666666675" lon="10.705314333333336"><ele>91.66666666666667</ele><time>2026-04-18T13:44:47.963Z</time></trkpt><trkpt lat="43.48273616666667" lon="10.705153833333334"><ele>91.33333333333333</ele><time>2026-04-18T13:44:48.969Z</time></trkpt><trkpt lat="43.48260333333332" lon="10.704989499999998"><ele>91.0</ele><time>2026-04-18T13:44:50.072Z</time></trkpt><trkpt lat="43.4824715" lon="10.704821333333332"><ele>91.0</ele><time>2026-04-18T13:44:50.997Z</time></trkpt><trkpt lat="43.48233799999999" lon="10.704650833333334"><ele>91.0</ele><time>2026-04-18T13:44:51.974Z</time></trkpt><trkpt lat="43.48220266666667" lon="10.7044785"><ele>91.0</ele><time>2026-04-18T13:44:52.964Z</time></trkpt><trkpt lat="43.48213366666667" lon="10.704391833333332"><ele>90.5</ele><time>2026-04-18T13:44:53.972Z</time></trkpt><trkpt lat="43.481995000000005" lon="10.704216333333333"><ele>90.0</ele><time>2026-04-18T13:44:54.985Z</time></trkpt><trkpt lat="43.48178333333334" lon="10.703949499999998"><ele>90.0</ele><time>2026-04-18T13:44:55.986Z</time></trkpt><trkpt lat="43.481641499999995" lon="10.703771833333333"><ele>90.0</ele><time>2026-04-18T13:44:56.975Z</time></trkpt><trkpt lat="43.48150033333333" lon="10.703592499999997"><ele>90.0</ele><time>2026-04-18T13:44:57.971Z</time></trkpt><trkpt lat="43.48135933333333" lon="10.703413166666667"><ele>89.33333333333333</ele><time>2026-04-18T13:44:58.968Z</time></trkpt><trkpt lat="43.481220666666665" lon="10.703232166666666"><ele>88.66666666666666</ele><time>2026-04-18T13:45:00.006Z</time></trkpt><trkpt lat="43.48108216666667" lon="10.703053833333334"><ele>88.0</ele><time>2026-04-18T13:45:00.963Z</time></trkpt><trkpt lat="43.480943333333336" lon="10.70287816666667"><ele>88.66666666666666</ele><time>2026-04-18T13:45:01.977Z</time></trkpt><trkpt lat="43.480806333333334" lon="10.702702166666665"><ele>89.33333333333333</ele><time>2026-04-18T13:45:02.966Z</time></trkpt><trkpt lat="43.48073800000001" lon="10.7026145"><ele>90.0</ele><time>2026-04-18T13:45:03.993Z</time></trkpt><trkpt lat="43.480531000000006" lon="10.702350999999998"><ele>90.0</ele><time>2026-04-18T13:45:04.973Z</time></trkpt><trkpt lat="43.48046133333334" lon="10.702261166666664"><ele>90.0</ele><time>2026-04-18T13:45:05.97Z</time></trkpt><trkpt lat="43.4803205" lon="10.702080333333333"><ele>90.0</ele><time>2026-04-18T13:45:06.975Z</time></trkpt><trkpt lat="43.48010466666667" lon="10.701807666666665"><ele>90.66666666666667</ele><time>2026-04-18T13:45:07.981Z</time></trkpt><trkpt lat="43.48003333333333" lon="10.701717666666665"><ele>91.33333333333334</ele><time>2026-04-18T13:45:08.99Z</time></trkpt><trkpt lat="43.479893666666676" lon="10.701539166666667"><ele>92.0</ele><time>2026-04-18T13:45:10.029Z</time></trkpt><trkpt lat="43.479755499999996" lon="10.701365"><ele>92.0</ele><time>2026-04-18T13:45:10.973Z</time></trkpt><trkpt lat="43.47961900000001" lon="10.701194833333332"><ele>92.0</ele><time>2026-04-18T13:45:11.98Z</time></trkpt><trkpt lat="43.479487" lon="10.701027500000002"><ele>92.0</ele><time>2026-04-18T13:45:13.013Z</time></trkpt><trkpt lat="43.479359499999994" lon="10.700862500000001"><ele>92.33333333333334</ele><time>2026-04-18T13:45:13.964Z</time></trkpt><trkpt lat="43.47923383333334" lon="10.700700333333334"><ele>92.66666666666667</ele><time>2026-04-18T13:45:14.97Z</time></trkpt><trkpt lat="43.4790435" lon="10.700459666666665"><ele>93.0</ele><time>2026-04-18T13:45:15.973Z</time></trkpt><trkpt lat="43.47891283333333" lon="10.70029816666667"><ele>93.33333333333333</ele><time>2026-04-18T13:45:16.999Z</time></trkpt><trkpt lat="43.47884649999999" lon="10.700215166666666"><ele>93.66666666666666</ele><time>2026-04-18T13:45:17.966Z</time></trkpt><trkpt lat="43.4787105" lon="10.700045499999998"><ele>94.0</ele><time>2026-04-18T13:45:19.001Z</time></trkpt><trkpt lat="43.47850283333334" lon="10.6997835"><ele>94.66666666666666</ele><time>2026-04-18T13:45:20.071Z</time></trkpt><trkpt lat="43.478432000000005" lon="10.699695666666667"><ele>95.33333333333333</ele><time>2026-04-18T13:45:20.993Z</time></trkpt><trkpt lat="43.47828883333333" lon="10.699518166666667"><ele>96.0</ele><time>2026-04-18T13:45:21.967Z</time></trkpt><trkpt lat="43.478149" lon="10.699340500000002"><ele>96.33333333333334</ele><time>2026-04-18T13:45:22.962Z</time></trkpt><trkpt lat="43.47801466666667" lon="10.6991685"><ele>96.66666666666667</ele><time>2026-04-18T13:45:23.97Z</time></trkpt><trkpt lat="43.4778915" lon="10.699014499999999"><ele>97.0</ele><time>2026-04-18T13:45:24.99Z</time></trkpt><trkpt lat="43.477782666666656" lon="10.698880833333332"><ele>96.75</ele><time>2026-04-18T13:45:25.98Z</time></trkpt><trkpt lat="43.47769016666666" lon="10.698766166666667"><ele>96.5</ele><time>2026-04-18T13:45:26.978Z</time></trkpt><trkpt lat="43.477622000000004" lon="10.698667333333331"><ele>96.25</ele><time>2026-04-18T13:45:27.973Z</time></trkpt><trkpt lat="43.47758066666667" lon="10.69849933333333"><ele>96.0</ele><time>2026-04-18T13:45:29.97Z</time></trkpt><trkpt lat="43.47765866330855" lon="10.698345296032404"><ele>96.0</ele><time>2026-04-18T13:45:31.97Z</time></trkpt><trkpt lat="43.47771" lon="10.698242999999998"><ele>96.0</ele><time>2026-04-18T13:45:32.978Z</time></trkpt><trkpt lat="43.47778866666666" lon="10.698155999999999"><ele>96.0</ele><time>2026-04-18T13:45:33.993Z</time></trkpt><trkpt lat="43.477886240953396" lon="10.698095473665326"><ele>96.0</ele><time>2026-04-18T13:45:34.973Z</time></trkpt><trkpt lat="43.477974501795394" lon="10.698022054842177"><ele>96.0</ele><time>2026-04-18T13:45:35.961Z</time></trkpt><trkpt lat="43.478061583675405" lon="10.697953582612291"><ele>96.0</ele><time>2026-04-18T13:45:36.97Z</time></trkpt><trkpt lat="43.47814716833941" lon="10.697887328848733"><ele>96.0</ele><time>2026-04-18T13:45:38Z</time></trkpt><trkpt lat="43.47823066862375" lon="10.697823886132358"><ele>96.0</ele><time>2026-04-18T13:45:38.962Z</time></trkpt><trkpt lat="43.47831367966189" lon="10.697760815333295"><ele>96.0</ele><time>2026-04-18T13:45:39.974Z</time></trkpt><trkpt lat="43.47839923729718" lon="10.69769580956381"><ele>96.0</ele><time>2026-04-18T13:45:40.97Z</time></trkpt><trkpt lat="43.47848804753049" lon="10.697628332586312"><ele>96.66666666666666</ele><time>2026-04-18T13:45:41.975Z</time></trkpt><trkpt lat="43.4785812791286" lon="10.697550822632198"><ele>97.33333333333333</ele><time>2026-04-18T13:45:43.018Z</time></trkpt><trkpt lat="43.478715229487214" lon="10.697408765554963"><ele>98.0</ele><time>2026-04-18T13:45:43.97Z</time></trkpt><trkpt lat="43.478819356448156" lon="10.69720414276908"><ele>100.0</ele><time>2026-04-18T13:45:46.074Z</time></trkpt><trkpt lat="43.47887964373075" lon="10.696953237521216"><ele>102.0</ele><time>2026-04-18T13:45:47.005Z</time></trkpt><trkpt lat="43.47891166095818" lon="10.696770740579367"><ele>104.0</ele><time>2026-04-18T13:45:47.973Z</time></trkpt><trkpt lat="43.47892866666666" lon="10.696573999999998"><ele>104.0</ele><time>2026-04-18T13:45:48.969Z</time></trkpt><trkpt lat="43.47894633333334" lon="10.696475333333334"><ele>104.0</ele><time>2026-04-18T13:45:49.983Z</time></trkpt><trkpt lat="43.478984999999994" lon="10.696274000000003"><ele>104.0</ele><time>2026-04-18T13:45:50.986Z</time></trkpt><trkpt lat="43.47905166666666" lon="10.695976166666666"><ele>104.25</ele><time>2026-04-18T13:45:51.964Z</time></trkpt><trkpt lat="43.47910033333333" lon="10.695788499999999"><ele>104.5</ele><time>2026-04-18T13:45:52.973Z</time></trkpt><trkpt lat="43.47915249999999" lon="10.695609833333332"><ele>104.75</ele><time>2026-04-18T13:45:53.97Z</time></trkpt><trkpt lat="43.479206833333336" lon="10.695439833333333"><ele>105.0</ele><time>2026-04-18T13:45:55.09Z</time></trkpt><trkpt lat="43.479263499999995" lon="10.695278166666666"><ele>104.5</ele><time>2026-04-18T13:45:55.994Z</time></trkpt><trkpt lat="43.479324833333344" lon="10.695123999999998"><ele>104.0</ele><time>2026-04-18T13:45:56.979Z</time></trkpt><trkpt lat="43.479391666666665" lon="10.694975"><ele>103.5</ele><time>2026-04-18T13:45:57.961Z</time></trkpt><trkpt lat="43.47946483333333" lon="10.694833166666667"><ele>103.0</ele><time>2026-04-18T13:45:58.973Z</time></trkpt><trkpt lat="43.479542666666674" lon="10.694698999999998"><ele>104.0</ele><time>2026-04-18T13:45:59.99Z</time></trkpt><trkpt lat="43.479622166666665" lon="10.694575833333333"><ele>105.0</ele><time>2026-04-18T13:46:00.962Z</time></trkpt><trkpt lat="43.47969966666666" lon="10.694461333333333"><ele>106.0</ele><time>2026-04-18T13:46:01.966Z</time></trkpt><trkpt lat="43.479776166666674" lon="10.694351333333335"><ele>107.0</ele><time>2026-04-18T13:46:02.974Z</time></trkpt><trkpt lat="43.47985666666666" lon="10.694242333333333"><ele>107.0</ele><time>2026-04-18T13:46:03.988Z</time></trkpt><trkpt lat="43.47994066666667" lon="10.694137166666666"><ele>107.0</ele><time>2026-04-18T13:46:04.976Z</time></trkpt><trkpt lat="43.48002783333333" lon="10.694039000000002"><ele>107.0</ele><time>2026-04-18T13:46:05.965Z</time></trkpt><trkpt lat="43.48016233333333" lon="10.69391283333333"><ele>107.0</ele><time>2026-04-18T13:46:08.003Z</time></trkpt><trkpt lat="43.48025833333333" lon="10.693853333333335"><ele>107.0</ele><time>2026-04-18T13:46:08.967Z</time></trkpt><trkpt lat="43.48040933949286" lon="10.693811208404755"><ele>106.99999999999999</ele><time>2026-04-18T13:46:10.037Z</time></trkpt><trkpt lat="43.48049816666666" lon="10.693742499999999"><ele>106.99999999999999</ele><time>2026-04-18T13:46:10.981Z</time></trkpt><trkpt lat="43.480580833333335" lon="10.693678"><ele>107.0</ele><time>2026-04-18T13:46:11.985Z</time></trkpt><trkpt lat="43.48064683333334" lon="10.693592166666669"><ele>107.0</ele><time>2026-04-18T13:46:13.01Z</time></trkpt><trkpt lat="43.48069583333333" lon="10.693490000000002"><ele>106.8</ele><time>2026-04-18T13:46:13.97Z</time></trkpt><trkpt lat="43.48075410574792" lon="10.693393947739322"><ele>106.6</ele><time>2026-04-18T13:46:14.968Z</time></trkpt><trkpt lat="43.48082509940177" lon="10.693227518775977"><ele>106.39999999999999</ele><time>2026-04-18T13:46:16.991Z</time></trkpt><trkpt lat="43.48087605982912" lon="10.693099902566313"><ele>106.19999999999999</ele><time>2026-04-18T13:46:17.961Z</time></trkpt><trkpt lat="43.48092779703796" lon="10.692962847867769"><ele>106.0</ele><time>2026-04-18T13:46:18.98Z</time></trkpt><trkpt lat="43.48097147332508" lon="10.692805680497854"><ele>106.25</ele><time>2026-04-18T13:46:19.994Z</time></trkpt><trkpt lat="43.481005962660454" lon="10.692635875104155"><ele>106.5</ele><time>2026-04-18T13:46:21.002Z</time></trkpt><trkpt lat="43.481029582628665" lon="10.692454954908252"><ele>106.75</ele><time>2026-04-18T13:46:21.966Z</time></trkpt><trkpt lat="43.481052046822164" lon="10.692272951829686"><ele>107.0</ele><time>2026-04-18T13:46:22.976Z</time></trkpt><trkpt lat="43.48107901783182" lon="10.692090000216385"><ele>107.5</ele><time>2026-04-18T13:46:23.966Z</time></trkpt><trkpt lat="43.48111016949669" lon="10.691909024716145"><ele>108.0</ele><time>2026-04-18T13:46:24.994Z</time></trkpt><trkpt lat="43.48116210906445" lon="10.69163609244052"><ele>108.5</ele><time>2026-04-18T13:46:25.978Z</time></trkpt><trkpt lat="43.481179478592935" lon="10.691544819136997"><ele>109.0</ele><time>2026-04-18T13:46:26.966Z</time></trkpt><trkpt lat="43.48121453803465" lon="10.691360588443109"><ele>109.0</ele><time>2026-04-18T13:46:27.965Z</time></trkpt><trkpt lat="43.481249328946674" lon="10.691174369341473"><ele>109.0</ele><time>2026-04-18T13:46:28.994Z</time></trkpt><trkpt lat="43.48128437762125" lon="10.690986044262141"><ele>109.0</ele><time>2026-04-18T13:46:29.971Z</time></trkpt><trkpt lat="43.48131969700889" lon="10.690796264533004"><ele>109.0</ele><time>2026-04-18T13:46:30.972Z</time></trkpt><trkpt lat="43.481355091980554" lon="10.690606078662997"><ele>109.5</ele><time>2026-04-18T13:46:31.971Z</time></trkpt><trkpt lat="43.48138678264654" lon="10.690416732927835"><ele>110.0</ele><time>2026-04-18T13:46:32.977Z</time></trkpt><trkpt lat="43.48141463291046" lon="10.690230180707106"><ele>110.5</ele><time>2026-04-18T13:46:33.965Z</time></trkpt><trkpt lat="43.481431563420735" lon="10.690047187893695"><ele>111.0</ele><time>2026-04-18T13:46:34.975Z</time></trkpt><trkpt lat="43.481436769492426" lon="10.689778848307938"><ele>111.0</ele><time>2026-04-18T13:46:35.965Z</time></trkpt><trkpt lat="43.48142858997132" lon="10.689600304267746"><ele>111.0</ele><time>2026-04-18T13:46:36.966Z</time></trkpt><trkpt lat="43.48142192648953" lon="10.68951037328185"><ele>111.0</ele><time>2026-04-18T13:46:37.997Z</time></trkpt><trkpt lat="43.4814077556278" lon="10.689330059018252"><ele>111.0</ele><time>2026-04-18T13:46:38.971Z</time></trkpt><trkpt lat="43.48139496713782" lon="10.689147009781681"><ele>111.75</ele><time>2026-04-18T13:46:39.967Z</time></trkpt><trkpt lat="43.48138217566325" lon="10.688960612218171"><ele>112.5</ele><time>2026-04-18T13:46:40.965Z</time></trkpt><trkpt lat="43.48136704516529" lon="10.688770650568731"><ele>113.25</ele><time>2026-04-18T13:46:41.998Z</time></trkpt><trkpt lat="43.481351648973096" lon="10.688578437019084"><ele>114.0</ele><time>2026-04-18T13:46:42.965Z</time></trkpt><trkpt lat="43.4813215" lon="10.688390333333333"><ele>114.75</ele><time>2026-04-18T13:46:43.965Z</time></trkpt><trkpt lat="43.481316666666665" lon="10.688199000000003"><ele>115.5</ele><time>2026-04-18T13:46:44.977Z</time></trkpt><trkpt lat="43.48131866666666" lon="10.688006333333332"><ele>116.25</ele><time>2026-04-18T13:46:45.994Z</time></trkpt><trkpt lat="43.48133200000001" lon="10.687811"><ele>117.0</ele><time>2026-04-18T13:46:46.974Z</time></trkpt><trkpt lat="43.48135800000001" lon="10.687615500000001"><ele>117.0</ele><time>2026-04-18T13:46:47.977Z</time></trkpt><trkpt lat="43.481392" lon="10.687420333333334"><ele>117.0</ele><time>2026-04-18T13:46:48.97Z</time></trkpt><trkpt lat="43.48142866666667" lon="10.687222666666665"><ele>117.0</ele><time>2026-04-18T13:46:49.986Z</time></trkpt><trkpt lat="43.48146183333333" lon="10.687021"><ele>117.0</ele><time>2026-04-18T13:46:50.974Z</time></trkpt><trkpt lat="43.481495833333334" lon="10.686811166666667"><ele>116.0</ele><time>2026-04-18T13:46:51.973Z</time></trkpt><trkpt lat="43.481532666666666" lon="10.686599333333332"><ele>115.0</ele><time>2026-04-18T13:46:52.972Z</time></trkpt><trkpt lat="43.48157516666667" lon="10.68639016666667"><ele>114.0</ele><time>2026-04-18T13:46:53.966Z</time></trkpt><trkpt lat="43.48162416666667" lon="10.686188833333333"><ele>113.66666666666666</ele><time>2026-04-18T13:46:54.987Z</time></trkpt><trkpt lat="43.48167183333334" lon="10.685993166666668"><ele>113.33333333333333</ele><time>2026-04-18T13:46:55.971Z</time></trkpt><trkpt lat="43.481728818735824" lon="10.685801877767219"><ele>113.0</ele><time>2026-04-18T13:46:56.97Z</time></trkpt><trkpt lat="43.4817125" lon="10.685492833333333"><ele>113.0</ele><time>2026-04-18T13:46:57.967Z</time></trkpt><trkpt lat="43.48170266666666" lon="10.685388666666665"><ele>113.0</ele><time>2026-04-18T13:46:58.981Z</time></trkpt><trkpt lat="43.48167316666666" lon="10.685175833333336"><ele>113.0</ele><time>2026-04-18T13:46:59.974Z</time></trkpt><trkpt lat="43.48163966666666" lon="10.684958666666668"><ele>113.0</ele><time>2026-04-18T13:47:00.964Z</time></trkpt><trkpt lat="43.481605499999986" lon="10.684741666666664"><ele>113.66666666666666</ele><time>2026-04-18T13:47:01.974Z</time></trkpt><trkpt lat="43.48156833333334" lon="10.684525333333333"><ele>114.33333333333334</ele><time>2026-04-18T13:47:02.982Z</time></trkpt><trkpt lat="43.48152199999999" lon="10.6843075"><ele>115.0</ele><time>2026-04-18T13:47:04.006Z</time></trkpt><trkpt lat="43.48142233333333" lon="10.683990333333334"><ele>115.33333333333334</ele><time>2026-04-18T13:47:04.966Z</time></trkpt><trkpt lat="43.481343" lon="10.683792166666668"><ele>115.66666666666666</ele><time>2026-04-18T13:47:05.978Z</time></trkpt><trkpt lat="43.481264499999995" lon="10.683598833333335"><ele>116.0</ele><time>2026-04-18T13:47:06.971Z</time></trkpt><trkpt lat="43.48119233333333" lon="10.683398666666669"><ele>116.0</ele><time>2026-04-18T13:47:08.007Z</time></trkpt><trkpt lat="43.48114600000001" lon="10.683187333333334"><ele>116.0</ele><time>2026-04-18T13:47:08.97Z</time></trkpt><trkpt lat="43.48113133333333" lon="10.682965333333335"><ele>116.0</ele><time>2026-04-18T13:47:09.971Z</time></trkpt><trkpt lat="43.4811415" lon="10.682736499999997"><ele>116.66666666666666</ele><time>2026-04-18T13:47:10.966Z</time></trkpt><trkpt lat="43.4811575" lon="10.682500999999998"><ele>117.33333333333334</ele><time>2026-04-18T13:47:11.997Z</time></trkpt><trkpt lat="43.48117250000001" lon="10.682257"><ele>118.0</ele><time>2026-04-18T13:47:12.98Z</time></trkpt><trkpt lat="43.48118833333333" lon="10.682005833333335"><ele>118.33333333333334</ele><time>2026-04-18T13:47:13.978Z</time></trkpt><trkpt lat="43.481204" lon="10.681746166666667"><ele>118.66666666666666</ele><time>2026-04-18T13:47:14.983Z</time></trkpt><trkpt lat="43.48121983333334" lon="10.681477500000002"><ele>119.0</ele><time>2026-04-18T13:47:15.991Z</time></trkpt><trkpt lat="43.48123833333334" lon="10.681203666666667"><ele>119.0</ele><time>2026-04-18T13:47:17.021Z</time></trkpt><trkpt lat="43.48125633333334" lon="10.680930000000002"><ele>119.0</ele><time>2026-04-18T13:47:17.97Z</time></trkpt><trkpt lat="43.48126949999999" lon="10.6806615"><ele>119.0</ele><time>2026-04-18T13:47:18.977Z</time></trkpt><trkpt lat="43.48128199999999" lon="10.680399333333332"><ele>119.66666666666666</ele><time>2026-04-18T13:47:19.961Z</time></trkpt><trkpt lat="43.48131241873743" lon="10.680141605032496"><ele>120.33333333333334</ele><time>2026-04-18T13:47:21.006Z</time></trkpt><trkpt lat="43.48131316666666" lon="10.679876833333333"><ele>121.0</ele><time>2026-04-18T13:47:21.972Z</time></trkpt><trkpt lat="43.48133083333334" lon="10.679609333333334"><ele>121.66666666666667</ele><time>2026-04-18T13:47:22.966Z</time></trkpt><trkpt lat="43.48134783333333" lon="10.679344166666665"><ele>122.33333333333334</ele><time>2026-04-18T13:47:23.971Z</time></trkpt><trkpt lat="43.481361666666665" lon="10.679085333333335"><ele>123.0</ele><time>2026-04-18T13:47:24.981Z</time></trkpt><trkpt lat="43.48137666666667" lon="10.678833833333332"><ele>123.66666666666666</ele><time>2026-04-18T13:47:25.974Z</time></trkpt><trkpt lat="43.481390833333336" lon="10.678587999999998"><ele>124.33333333333333</ele><time>2026-04-18T13:47:26.965Z</time></trkpt><trkpt lat="43.48141466666666" lon="10.678346833333334"><ele>125.0</ele><time>2026-04-18T13:47:27.985Z</time></trkpt><trkpt lat="43.48144933333332" lon="10.678105000000002"><ele>125.0</ele><time>2026-04-18T13:47:28.996Z</time></trkpt><trkpt lat="43.481499666666664" lon="10.677864833333334"><ele>125.0</ele><time>2026-04-18T13:47:29.978Z</time></trkpt><trkpt lat="43.48156466666666" lon="10.6776255"><ele>125.0</ele><time>2026-04-18T13:47:30.967Z</time></trkpt><trkpt lat="43.48163433333334" lon="10.677383833333334"><ele>125.66666666666666</ele><time>2026-04-18T13:47:31.974Z</time></trkpt><trkpt lat="43.48170833333334" lon="10.677141500000001"><ele>126.33333333333334</ele><time>2026-04-18T13:47:32.978Z</time></trkpt><trkpt lat="43.481784166666664" lon="10.676896333333332"><ele>127.0</ele><time>2026-04-18T13:47:33.979Z</time></trkpt><trkpt lat="43.48186049999999" lon="10.676647333333335"><ele>128.0</ele><time>2026-04-18T13:47:34.966Z</time></trkpt><trkpt lat="43.481937833333326" lon="10.676394833333333"><ele>129.0</ele><time>2026-04-18T13:47:35.978Z</time></trkpt><trkpt lat="43.48201699999999" lon="10.676139833333332"><ele>130.0</ele><time>2026-04-18T13:47:36.985Z</time></trkpt><trkpt lat="43.482096166666665" lon="10.675887333333334"><ele>131.33333333333334</ele><time>2026-04-18T13:47:38.006Z</time></trkpt><trkpt lat="43.48217366666666" lon="10.6756425"><ele>132.66666666666666</ele><time>2026-04-18T13:47:38.97Z</time></trkpt><trkpt lat="43.48224866666666" lon="10.6754025"><ele>134.0</ele><time>2026-04-18T13:47:39.976Z</time></trkpt><trkpt lat="43.482311166666655" lon="10.675163666666668"><ele>135.66666666666666</ele><time>2026-04-18T13:47:40.973Z</time></trkpt><trkpt lat="43.48235266666667" lon="10.674927833333333"><ele>137.33333333333334</ele><time>2026-04-18T13:47:41.998Z</time></trkpt><trkpt lat="43.482372500000004" lon="10.674698833333332"><ele>139.0</ele><time>2026-04-18T13:47:42.98Z</time></trkpt><trkpt lat="43.48236283333334" lon="10.674479666666667"><ele>138.5</ele><time>2026-04-18T13:47:43.974Z</time></trkpt><trkpt lat="43.48232616666666" lon="10.674276999999998"><ele>138.0</ele><time>2026-04-18T13:47:44.972Z</time></trkpt><trkpt lat="43.482279166666665" lon="10.6741025"><ele>137.5</ele><time>2026-04-18T13:47:45.998Z</time></trkpt><trkpt lat="43.4822185" lon="10.673906"><ele>137.0</ele><time>2026-04-18T13:47:47.971Z</time></trkpt><trkpt lat="43.48219833333333" lon="10.673821333333334"><ele>137.0</ele><time>2026-04-18T13:47:48.972Z</time></trkpt><trkpt lat="43.48209883333334" lon="10.673779000000001"><ele>137.0</ele><time>2026-04-18T13:47:53.983Z</time></trkpt><trkpt lat="43.48200583462921" lon="10.673757527959431"><ele>137.0</ele><time>2026-04-18T13:47:55.969Z</time></trkpt><trkpt lat="43.48188400000001" lon="10.673754666666666"><ele>137.0</ele><time>2026-04-18T13:47:57.973Z</time></trkpt><trkpt lat="43.48181116666667" lon="10.673738833333335"><ele>137.0</ele><time>2026-04-18T13:47:58.988Z</time></trkpt><trkpt lat="43.48173583333334" lon="10.673716833333332"><ele>137.0</ele><time>2026-04-18T13:48:00.011Z</time></trkpt><trkpt lat="43.481660999999995" lon="10.6736765"><ele>137.0</ele><time>2026-04-18T13:48:01.042Z</time></trkpt><trkpt lat="43.48159216666666" lon="10.673614333333335"><ele>137.0</ele><time>2026-04-18T13:48:01.971Z</time></trkpt><trkpt lat="43.481529" lon="10.673531166666665"><ele>137.0</ele><time>2026-04-18T13:48:02.988Z</time></trkpt><trkpt lat="43.48147349999999" lon="10.673429500000003"><ele>137.0</ele><time>2026-04-18T13:48:03.993Z</time></trkpt><trkpt lat="43.48142633333333" lon="10.673311666666667"><ele>137.0</ele><time>2026-04-18T13:48:04.977Z</time></trkpt><trkpt lat="43.48137866666666" lon="10.673184166666665"><ele>137.0</ele><time>2026-04-18T13:48:05.965Z</time></trkpt><trkpt lat="43.48132999999999" lon="10.673050666666665"><ele>137.0</ele><time>2026-04-18T13:48:06.978Z</time></trkpt><trkpt lat="43.481281333333335" lon="10.672912833333331"><ele>137.0</ele><time>2026-04-18T13:48:08.006Z</time></trkpt><trkpt lat="43.481233833333334" lon="10.672769666666666"><ele>137.0</ele><time>2026-04-18T13:48:08.975Z</time></trkpt><trkpt lat="43.48119116666667" lon="10.672620833333333"><ele>138.75</ele><time>2026-04-18T13:48:09.972Z</time></trkpt><trkpt lat="43.48115299999999" lon="10.672469333333334"><ele>140.5</ele><time>2026-04-18T13:48:10.975Z</time></trkpt><trkpt lat="43.4811155" lon="10.672315166666666"><ele>142.25</ele><time>2026-04-18T13:48:11.994Z</time></trkpt><trkpt lat="43.48107816666667" lon="10.672158333333334"><ele>144.0</ele><time>2026-04-18T13:48:12.971Z</time></trkpt><trkpt lat="43.481039833333334" lon="10.6720015"><ele>145.6</ele><time>2026-04-18T13:48:14.046Z</time></trkpt><trkpt lat="43.48100183333332" lon="10.671846666666667"><ele>147.2</ele><time>2026-04-18T13:48:14.98Z</time></trkpt><trkpt lat="43.48098110400707" lon="10.671694064458677"><ele>148.79999999999998</ele><time>2026-04-18T13:48:15.99Z</time></trkpt><trkpt lat="43.480947498402934" lon="10.671556925732968"><ele>150.4</ele><time>2026-04-18T13:48:16.969Z</time></trkpt><trkpt lat="43.48091666229698" lon="10.6714251228531"><ele>152.0</ele><time>2026-04-18T13:48:17.974Z</time></trkpt><trkpt lat="43.480888758640155" lon="10.671296416083521"><ele>152.0</ele><time>2026-04-18T13:48:18.973Z</time></trkpt><trkpt lat="43.480851833333325" lon="10.671174"><ele>152.0</ele><time>2026-04-18T13:48:19.99Z</time></trkpt><trkpt lat="43.480852000000006" lon="10.671044833333335"><ele>152.0</ele><time>2026-04-18T13:48:20.97Z</time></trkpt><trkpt lat="43.48088931308156" lon="10.670923865947918"><ele>152.0</ele><time>2026-04-18T13:48:21.974Z</time></trkpt><trkpt lat="43.48090350000001" lon="10.6707865"><ele>152.0</ele><time>2026-04-18T13:48:22.977Z</time></trkpt><trkpt lat="43.480935" lon="10.670656666666664"><ele>153.2</ele><time>2026-04-18T13:48:23.977Z</time></trkpt><trkpt lat="43.480949333333335" lon="10.670526333333331"><ele>154.39999999999998</ele><time>2026-04-18T13:48:24.999Z</time></trkpt><trkpt lat="43.480939000000006" lon="10.670398833333335"><ele>155.60000000000002</ele><time>2026-04-18T13:48:25.966Z</time></trkpt><trkpt lat="43.480903000000005" lon="10.670276999999999"><ele>156.8</ele><time>2026-04-18T13:48:26.982Z</time></trkpt><trkpt lat="43.480841666666656" lon="10.670162166666668"><ele>158.0</ele><time>2026-04-18T13:48:27.983Z</time></trkpt><trkpt lat="43.48076533333333" lon="10.670045000000002"><ele>158.0</ele><time>2026-04-18T13:48:28.991Z</time></trkpt><trkpt lat="43.48068549999999" lon="10.669918333333332"><ele>158.0</ele><time>2026-04-18T13:48:29.972Z</time></trkpt><trkpt lat="43.48060133333333" lon="10.669785666666666"><ele>158.0</ele><time>2026-04-18T13:48:30.972Z</time></trkpt><trkpt lat="43.4805145" lon="10.669647999999999"><ele>158.0</ele><time>2026-04-18T13:48:31.962Z</time></trkpt><trkpt lat="43.48042483333333" lon="10.669503666666666"><ele>157.25</ele><time>2026-04-18T13:48:32.982Z</time></trkpt><trkpt lat="43.48033366666667" lon="10.669354833333333"><ele>156.5</ele><time>2026-04-18T13:48:33.965Z</time></trkpt><trkpt lat="43.48024350000001" lon="10.669203166666666"><ele>155.75</ele><time>2026-04-18T13:48:34.979Z</time></trkpt><trkpt lat="43.480159666666665" lon="10.669048000000002"><ele>155.0</ele><time>2026-04-18T13:48:35.967Z</time></trkpt><trkpt lat="43.48008033333334" lon="10.668893666666667"><ele>155.0</ele><time>2026-04-18T13:48:36.983Z</time></trkpt><trkpt lat="43.480006833333334" lon="10.668742000000002"><ele>155.0</ele><time>2026-04-18T13:48:37.966Z</time></trkpt><trkpt lat="43.47993666666667" lon="10.668595000000002"><ele>155.0</ele><time>2026-04-18T13:48:38.97Z</time></trkpt><trkpt lat="43.47986099999999" lon="10.668461833333334"><ele>155.0</ele><time>2026-04-18T13:48:39.976Z</time></trkpt><trkpt lat="43.4797725" lon="10.668359666666666"><ele>155.2</ele><time>2026-04-18T13:48:40.979Z</time></trkpt><trkpt lat="43.479678" lon="10.668304333333332"><ele>155.4</ele><time>2026-04-18T13:48:42.003Z</time></trkpt><trkpt lat="43.47958388961919" lon="10.668278478951668"><ele>155.6</ele><time>2026-04-18T13:48:42.974Z</time></trkpt><trkpt lat="43.47948751477037" lon="10.668313611290808"><ele>155.8</ele><time>2026-04-18T13:48:43.967Z</time></trkpt><trkpt lat="43.479405955459804" lon="10.668364401617081"><ele>156.0</ele><time>2026-04-18T13:48:44.976Z</time></trkpt><trkpt lat="43.479334965511356" lon="10.668421245853445"><ele>156.0</ele><time>2026-04-18T13:48:45.986Z</time></trkpt><trkpt lat="43.479266951480184" lon="10.668475948682438"><ele>156.0</ele><time>2026-04-18T13:48:46.962Z</time></trkpt><trkpt lat="43.479204333333335" lon="10.668541333333334"><ele>156.0</ele><time>2026-04-18T13:48:47.967Z</time></trkpt><trkpt lat="43.4791285" lon="10.668570666666668"><ele>156.0</ele><time>2026-04-18T13:48:48.972Z</time></trkpt><trkpt lat="43.47905000000001" lon="10.668581333333334"><ele>156.0</ele><time>2026-04-18T13:48:49.982Z</time></trkpt><trkpt lat="43.47896966666667" lon="10.668578333333334"><ele>156.0</ele><time>2026-04-18T13:48:50.972Z</time></trkpt><trkpt lat="43.47888549999999" lon="10.668574999999999"><ele>156.0</ele><time>2026-04-18T13:48:51.971Z</time></trkpt><trkpt lat="43.47879833333333" lon="10.668562833333333"><ele>156.0</ele><time>2026-04-18T13:48:52.979Z</time></trkpt><trkpt lat="43.47870533333333" lon="10.6685395"><ele>156.0</ele><time>2026-04-18T13:48:53.982Z</time></trkpt><trkpt lat="43.478603166666666" lon="10.66851366666667"><ele>156.0</ele><time>2026-04-18T13:48:55.012Z</time></trkpt><trkpt lat="43.4784975" lon="10.668484333333332"><ele>156.0</ele><time>2026-04-18T13:48:55.985Z</time></trkpt><trkpt lat="43.478390999999995" lon="10.668454666666666"><ele>156.0</ele><time>2026-04-18T13:48:56.967Z</time></trkpt><trkpt lat="43.47828549999999" lon="10.668421999999998"><ele>156.0</ele><time>2026-04-18T13:48:57.979Z</time></trkpt><trkpt lat="43.47818316666667" lon="10.668392500000001"><ele>156.0</ele><time>2026-04-18T13:48:58.995Z</time></trkpt><trkpt lat="43.47808491116472" lon="10.668345490375941"><ele>156.0</ele><time>2026-04-18T13:49:00.022Z</time></trkpt><trkpt lat="43.4779803117149" lon="10.668327676283706"><ele>156.0</ele><time>2026-04-18T13:49:00.983Z</time></trkpt><trkpt lat="43.47787551133694" lon="10.668329235702846"><ele>156.6</ele><time>2026-04-18T13:49:01.972Z</time></trkpt><trkpt lat="43.477772532213685" lon="10.66834777039746"><ele>157.2</ele><time>2026-04-18T13:49:02.987Z</time></trkpt><trkpt lat="43.477666405294315" lon="10.668370126257349"><ele>157.8</ele><time>2026-04-18T13:49:04.007Z</time></trkpt><trkpt lat="43.47755474026385" lon="10.66839364873027"><ele>158.4</ele><time>2026-04-18T13:49:04.968Z</time></trkpt><trkpt lat="43.477437476154144" lon="10.668420962080834"><ele>159.0</ele><time>2026-04-18T13:49:05.971Z</time></trkpt><trkpt lat="43.47731245889077" lon="10.66845094929121"><ele>159.0</ele><time>2026-04-18T13:49:06.984Z</time></trkpt><trkpt lat="43.477175121180665" lon="10.66848389177182"><ele>159.0</ele><time>2026-04-18T13:49:07.977Z</time></trkpt><trkpt lat="43.477028631009446" lon="10.668518839260711"><ele>159.0</ele><time>2026-04-18T13:49:08.976Z</time></trkpt><trkpt lat="43.47687757478662" lon="10.668561839071877"><ele>159.0</ele><time>2026-04-18T13:49:09.975Z</time></trkpt><trkpt lat="43.47672345472308" lon="10.66860696157021"><ele>158.0</ele><time>2026-04-18T13:49:10.974Z</time></trkpt><trkpt lat="43.47656658520877" lon="10.668652476961496"><ele>157.0</ele><time>2026-04-18T13:49:11.99Z</time></trkpt><trkpt lat="43.47640730339217" lon="10.668698722051559"><ele>156.0</ele><time>2026-04-18T13:49:12.963Z</time></trkpt><trkpt lat="43.47624817105842" lon="10.668745974889342"><ele>156.0</ele><time>2026-04-18T13:49:13.975Z</time></trkpt><trkpt lat="43.47608954922661" lon="10.668793189571707"><ele>156.0</ele><time>2026-04-18T13:49:14.967Z</time></trkpt><trkpt lat="43.47593497281154" lon="10.668839874654815"><ele>156.0</ele><time>2026-04-18T13:49:15.995Z</time></trkpt><trkpt lat="43.47578531388316" lon="10.668884422932608"><ele>156.0</ele><time>2026-04-18T13:49:16.969Z</time></trkpt><trkpt lat="43.47564221607783" lon="10.66893192775715"><ele>156.0</ele><time>2026-04-18T13:49:17.967Z</time></trkpt><trkpt lat="43.4755085" lon="10.668988833333334"><ele>156.0</ele><time>2026-04-18T13:49:18.975Z</time></trkpt><trkpt lat="43.475378166666665" lon="10.668981166666667"><ele>156.0</ele><time>2026-04-18T13:49:19.967Z</time></trkpt><trkpt lat="43.47526883333333" lon="10.668928000000003"><ele>158.5</ele><time>2026-04-18T13:49:20.976Z</time></trkpt><trkpt lat="43.47518516666668" lon="10.668843833333336"><ele>161.0</ele><time>2026-04-18T13:49:21.977Z</time></trkpt><trkpt lat="43.47510916666667" lon="10.668754166666666"><ele>163.5</ele><time>2026-04-18T13:49:22.971Z</time></trkpt><trkpt lat="43.474952973057896" lon="10.668552535100654"><ele>166.0</ele><time>2026-04-18T13:49:25.007Z</time></trkpt><trkpt lat="43.474858655837835" lon="10.668471317116746"><ele>166.0</ele><time>2026-04-18T13:49:25.972Z</time></trkpt><trkpt lat="43.474753056652396" lon="10.668407064407189"><ele>166.0</ele><time>2026-04-18T13:49:26.974Z</time></trkpt><trkpt lat="43.47463835978788" lon="10.668350787040117"><ele>166.0</ele><time>2026-04-18T13:49:27.981Z</time></trkpt><trkpt lat="43.474515956742316" lon="10.668294587850879"><ele>166.0</ele><time>2026-04-18T13:49:28.994Z</time></trkpt><trkpt lat="43.47438784091775" lon="10.668239725463263"><ele>167.25</ele><time>2026-04-18T13:49:29.967Z</time></trkpt><trkpt lat="43.47426297942902" lon="10.668187997125502"><ele>168.5</ele><time>2026-04-18T13:49:30.969Z</time></trkpt><trkpt lat="43.47414899793993" lon="10.668139207419797"><ele>169.75</ele><time>2026-04-18T13:49:31.975Z</time></trkpt><trkpt lat="43.474046425740745" lon="10.668093225373669"><ele>171.0</ele><time>2026-04-18T13:49:32.994Z</time></trkpt><trkpt lat="43.47391906731591" lon="10.668034756828945"><ele>171.0</ele><time>2026-04-18T13:49:33.967Z</time></trkpt><trkpt lat="43.47385348146108" lon="10.668003525970047"><ele>171.0</ele><time>2026-04-18T13:49:34.971Z</time></trkpt><trkpt lat="43.47373807781681" lon="10.667947407801107"><ele>171.0</ele><time>2026-04-18T13:49:36.991Z</time></trkpt><trkpt lat="43.47367655161453" lon="10.667917489029433"><ele>171.0</ele><time>2026-04-18T13:49:37.974Z</time></trkpt><trkpt lat="43.47361376895035" lon="10.667886959214437"><ele>171.0</ele><time>2026-04-18T13:49:38.983Z</time></trkpt><trkpt lat="43.473518590710015" lon="10.667837624836462"><ele>171.0</ele><time>2026-04-18T13:49:40.979Z</time></trkpt><trkpt lat="43.47345299418283" lon="10.667802295651162"><ele>172.28571428571428</ele><time>2026-04-18T13:49:41.966Z</time></trkpt><trkpt lat="43.473385068302456" lon="10.66776048001246"><ele>173.57142857142856</ele><time>2026-04-18T13:49:42.977Z</time></trkpt><trkpt lat="43.47331528530947" lon="10.667712270842555"><ele>174.85714285714283</ele><time>2026-04-18T13:49:43.982Z</time></trkpt><trkpt lat="43.47325262490009" lon="10.667660122611764"><ele>176.14285714285714</ele><time>2026-04-18T13:49:44.988Z</time></trkpt><trkpt lat="43.473196403872755" lon="10.66759633147013"><ele>177.42857142857144</ele><time>2026-04-18T13:49:45.99Z</time></trkpt><trkpt lat="43.47315169866227" lon="10.667526456531924"><ele>178.7142857142857</ele><time>2026-04-18T13:49:46.982Z</time></trkpt><trkpt lat="43.47311730653969" lon="10.66745121702211"><ele>180.0</ele><time>2026-04-18T13:49:47.977Z</time></trkpt><trkpt lat="43.473083632705944" lon="10.667372448982128"><ele>180.0</ele><time>2026-04-18T13:49:48.97Z</time></trkpt><trkpt lat="43.47304792956199" lon="10.667297495943695"><ele>180.0</ele><time>2026-04-18T13:49:49.991Z</time></trkpt><trkpt lat="43.47298747807598" lon="10.667169762038915"><ele>180.0</ele><time>2026-04-18T13:49:51.975Z</time></trkpt><trkpt lat="43.47292601648701" lon="10.667048403223536"><ele>180.0</ele><time>2026-04-18T13:49:53.983Z</time></trkpt><trkpt lat="43.472832709949046" lon="10.666915089448151"><ele>180.0</ele><time>2026-04-18T13:49:55.967Z</time></trkpt><trkpt lat="43.47277261963166" lon="10.666851884526011"><ele>181.16666666666666</ele><time>2026-04-18T13:49:56.971Z</time></trkpt><trkpt lat="43.472706583801575" lon="10.666790449636347"><ele>182.33333333333334</ele><time>2026-04-18T13:49:57.965Z</time></trkpt><trkpt lat="43.47263307346708" lon="10.666728578183355"><ele>183.5</ele><time>2026-04-18T13:49:58.989Z</time></trkpt><trkpt lat="43.47255529916915" lon="10.666664555381939"><ele>184.66666666666669</ele><time>2026-04-18T13:49:59.966Z</time></trkpt><trkpt lat="43.472472661223385" lon="10.666597687022415"><ele>185.83333333333334</ele><time>2026-04-18T13:50:00.975Z</time></trkpt><trkpt lat="43.472387894950636" lon="10.666535496443398"><ele>187.0</ele><time>2026-04-18T13:50:01.967Z</time></trkpt><trkpt lat="43.47229942615793" lon="10.666472135758829"><ele>187.0</ele><time>2026-04-18T13:50:02.988Z</time></trkpt><trkpt lat="43.47220730682197" lon="10.666405068916552"><ele>187.0</ele><time>2026-04-18T13:50:03.966Z</time></trkpt><trkpt lat="43.47210667953049" lon="10.66632811915463"><ele>187.0</ele><time>2026-04-18T13:50:04.969Z</time></trkpt><trkpt lat="43.471996895310966" lon="10.666244164726084"><ele>187.0</ele><time>2026-04-18T13:50:05.976Z</time></trkpt><trkpt lat="43.47188186179034" lon="10.66615619640579"><ele>188.25</ele><time>2026-04-18T13:50:06.987Z</time></trkpt><trkpt lat="43.47177055901569" lon="10.666070694019785"><ele>189.5</ele><time>2026-04-18T13:50:07.967Z</time></trkpt><trkpt lat="43.47166044647887" lon="10.665985205127239"><ele>190.75</ele><time>2026-04-18T13:50:08.968Z</time></trkpt><trkpt lat="43.47155068300338" lon="10.665899987262685"><ele>192.0</ele><time>2026-04-18T13:50:09.989Z</time></trkpt><trkpt lat="43.47138065579688" lon="10.665767981935133"><ele>192.5</ele><time>2026-04-18T13:50:10.984Z</time></trkpt><trkpt lat="43.47126318180342" lon="10.665677071614747"><ele>193.0</ele><time>2026-04-18T13:50:11.964Z</time></trkpt><trkpt lat="43.47114227017159" lon="10.665583689229758"><ele>193.5</ele><time>2026-04-18T13:50:12.964Z</time></trkpt><trkpt lat="43.47102350023861" lon="10.665491960939239"><ele>194.0</ele><time>2026-04-18T13:50:13.979Z</time></trkpt><trkpt lat="43.470914271744974" lon="10.66541016511087"><ele>194.0</ele><time>2026-04-18T13:50:14.976Z</time></trkpt><trkpt lat="43.470827525793496" lon="10.665346688338213"><ele>194.0</ele><time>2026-04-18T13:50:15.986Z</time></trkpt><trkpt lat="43.47076701956057" lon="10.665297696949507"><ele>194.0</ele><time>2026-04-18T13:50:16.982Z</time></trkpt><trkpt lat="43.470686530912104" lon="10.66520499387749"><ele>194.0</ele><time>2026-04-18T13:50:18.98Z</time></trkpt><trkpt lat="43.47060828909721" lon="10.665065004656535"><ele>194.0</ele><time>2026-04-18T13:50:20.978Z</time></trkpt><trkpt lat="43.470565655681185" lon="10.664981901448913"><ele>195.16666666666669</ele><time>2026-04-18T13:50:21.983Z</time></trkpt><trkpt lat="43.470507051556055" lon="10.664860291799618"><ele>196.33333333333334</ele><time>2026-04-18T13:50:23.991Z</time></trkpt><trkpt lat="43.47047079920978" lon="10.664780395023255"><ele>197.5</ele><time>2026-04-18T13:50:24.981Z</time></trkpt><trkpt lat="43.470434727899104" lon="10.664699909023902"><ele>198.66666666666669</ele><time>2026-04-18T13:50:25.968Z</time></trkpt><trkpt lat="43.47039670791839" lon="10.664614335952749"><ele>199.83333333333334</ele><time>2026-04-18T13:50:26.971Z</time></trkpt><trkpt lat="43.470356619726594" lon="10.66452410786804"><ele>201.0</ele><time>2026-04-18T13:50:27.969Z</time></trkpt><trkpt lat="43.470321126960705" lon="10.664437163607417"><ele>204.60000000000002</ele><time>2026-04-18T13:50:28.99Z</time></trkpt><trkpt lat="43.47029513301562" lon="10.664348001456274"><ele>208.2</ele><time>2026-04-18T13:50:29.98Z</time></trkpt><trkpt lat="43.47028011797985" lon="10.664260030691834"><ele>211.79999999999998</ele><time>2026-04-18T13:50:30.975Z</time></trkpt><trkpt lat="43.47027519013165" lon="10.664083944655925"><ele>215.39999999999998</ele><time>2026-04-18T13:50:33Z</time></trkpt><trkpt lat="43.47028332299276" lon="10.66393655367684"><ele>219.0</ele><time>2026-04-18T13:50:33.975Z</time></trkpt><trkpt lat="43.470289978722434" lon="10.663827936885118"><ele>219.0</ele><time>2026-04-18T13:50:34.985Z</time></trkpt><trkpt lat="43.470295980266386" lon="10.66371361324018"><ele>219.0</ele><time>2026-04-18T13:50:35.988Z</time></trkpt><trkpt lat="43.470299886809215" lon="10.663599155920584"><ele>219.0</ele><time>2026-04-18T13:50:37.007Z</time></trkpt><trkpt lat="43.47030354445741" lon="10.663488547891289"><ele>219.0</ele><time>2026-04-18T13:50:40.936Z</time></trkpt><trkpt lat="43.47021811404887" lon="10.663069720275727"><ele>220.0</ele><time>2026-04-18T13:50:41.984Z</time></trkpt><trkpt lat="43.47017478392618" lon="10.663001581306409"><ele>220.99999999999997</ele><time>2026-04-18T13:50:42.979Z</time></trkpt><trkpt lat="43.47009571851132" lon="10.662890315589717"><ele>221.99999999999997</ele><time>2026-04-18T13:50:44.987Z</time></trkpt><trkpt lat="43.47002149253671" lon="10.662795932381993"><ele>223.0</ele><time>2026-04-18T13:50:46.977Z</time></trkpt><trkpt lat="43.46993389551039" lon="10.662684547031452"><ele>224.0</ele><time>2026-04-18T13:50:48.98Z</time></trkpt><trkpt lat="43.469882534375515" lon="10.662619237604686"><ele>224.79999999999998</ele><time>2026-04-18T13:50:50.009Z</time></trkpt><trkpt lat="43.46979587319639" lon="10.662509569583234"><ele>225.59999999999997</ele><time>2026-04-18T13:50:51.972Z</time></trkpt><trkpt lat="43.469731790664376" lon="10.662429703776473"><ele>226.4</ele><time>2026-04-18T13:50:52.975Z</time></trkpt><trkpt lat="43.469628532785656" lon="10.662303177450703"><ele>227.2</ele><time>2026-04-18T13:50:53.999Z</time></trkpt><trkpt lat="43.46955386824453" lon="10.66222058757225"><ele>228.0</ele><time>2026-04-18T13:50:54.982Z</time></trkpt><trkpt lat="43.469486342827956" lon="10.662137251210291"><ele>229.2</ele><time>2026-04-18T13:50:55.971Z</time></trkpt><trkpt lat="43.46939517690381" lon="10.662010270914916"><ele>230.4</ele><time>2026-04-18T13:50:57.976Z</time></trkpt><trkpt lat="43.469340406345886" lon="10.66192843283857"><ele>231.59999999999997</ele><time>2026-04-18T13:50:58.973Z</time></trkpt><trkpt lat="43.46928785906112" lon="10.661842391055972"><ele>232.79999999999998</ele><time>2026-04-18T13:51:00.032Z</time></trkpt><trkpt lat="43.4692416659408" lon="10.661744344201763"><ele>234.0</ele><time>2026-04-18T13:51:00.98Z</time></trkpt><trkpt lat="43.46919578274527" lon="10.661631318021517"><ele>234.0</ele><time>2026-04-18T13:51:01.985Z</time></trkpt><trkpt lat="43.469144304643606" lon="10.661512038947286"><ele>233.99999999999997</ele><time>2026-04-18T13:51:03.012Z</time></trkpt><trkpt lat="43.46909216065903" lon="10.661393028820404"><ele>233.99999999999997</ele><time>2026-04-18T13:51:03.979Z</time></trkpt><trkpt lat="43.4690408779588" lon="10.661276590941588"><ele>234.0</ele><time>2026-04-18T13:51:04.974Z</time></trkpt><trkpt lat="43.46898966724522" lon="10.661160316502777"><ele>234.0</ele><time>2026-04-18T13:51:05.971Z</time></trkpt><trkpt lat="43.4689373074406" lon="10.661044697952443"><ele>233.79999999999998</ele><time>2026-04-18T13:51:07.005Z</time></trkpt><trkpt lat="43.46888461783399" lon="10.660931884818831"><ele>233.59999999999997</ele><time>2026-04-18T13:51:07.981Z</time></trkpt><trkpt lat="43.468829562688484" lon="10.660821268151699"><ele>233.4</ele><time>2026-04-18T13:51:08.972Z</time></trkpt><trkpt lat="43.468772278303085" lon="10.660717342460778"><ele>233.2</ele><time>2026-04-18T13:51:09.981Z</time></trkpt><trkpt lat="43.46871058002048" lon="10.660616941034007"><ele>233.0</ele><time>2026-04-18T13:51:10.995Z</time></trkpt><trkpt lat="43.46864665818495" lon="10.660518027783207"><ele>233.60000000000002</ele><time>2026-04-18T13:51:12Z</time></trkpt><trkpt lat="43.468579583521" lon="10.66041887857297"><ele>234.20000000000002</ele><time>2026-04-18T13:51:12.973Z</time></trkpt><trkpt lat="43.46851148115299" lon="10.660319807232526"><ele>234.8</ele><time>2026-04-18T13:51:13.968Z</time></trkpt><trkpt lat="43.46844172298197" lon="10.660218327157539"><ele>235.4</ele><time>2026-04-18T13:51:14.988Z</time></trkpt><trkpt lat="43.468370495152385" lon="10.660114709096494"><ele>236.0</ele><time>2026-04-18T13:51:16Z</time></trkpt><trkpt lat="43.46829742718828" lon="10.660009748621194"><ele>237.60000000000002</ele><time>2026-04-18T13:51:16.971Z</time></trkpt><trkpt lat="43.46822257490636" lon="10.65990272051492"><ele>239.20000000000002</ele><time>2026-04-18T13:51:17.975Z</time></trkpt><trkpt lat="43.46814716294605" lon="10.659794892067335"><ele>240.79999999999998</ele><time>2026-04-18T13:51:18.988Z</time></trkpt><trkpt lat="43.46807194683513" lon="10.659687343685942"><ele>242.39999999999998</ele><time>2026-04-18T13:51:20Z</time></trkpt><trkpt lat="43.467997709565815" lon="10.659581194838589"><ele>244.0</ele><time>2026-04-18T13:51:20.976Z</time></trkpt><trkpt lat="43.46792513156383" lon="10.659477418657747"><ele>246.16666666666666</ele><time>2026-04-18T13:51:21.981Z</time></trkpt><trkpt lat="43.46785883046724" lon="10.659382056876021"><ele>248.33333333333331</ele><time>2026-04-18T13:51:22.982Z</time></trkpt><trkpt lat="43.467807190400684" lon="10.659307106510765"><ele>250.5</ele><time>2026-04-18T13:51:23.997Z</time></trkpt><trkpt lat="43.46775065067707" lon="10.659225044690382"><ele>252.66666666666669</ele><time>2026-04-18T13:51:25.978Z</time></trkpt><trkpt lat="43.46769335643086" lon="10.659142741232387"><ele>254.83333333333334</ele><time>2026-04-18T13:51:28.968Z</time></trkpt><trkpt lat="43.467633411575626" lon="10.659061266883189"><ele>257.0</ele><time>2026-04-18T13:51:30.974Z</time></trkpt><trkpt lat="43.46755420636013" lon="10.658963495618307"><ele>257.0</ele><time>2026-04-18T13:51:33.015Z</time></trkpt><trkpt lat="43.467462294589154" lon="10.65886253021971"><ele>257.0</ele><time>2026-04-18T13:51:34.968Z</time></trkpt><trkpt lat="43.46741189164121" lon="10.658807695366265"><ele>257.0</ele><time>2026-04-18T13:51:35.983Z</time></trkpt><trkpt lat="43.467360449035" lon="10.658751729428422"><ele>257.0</ele><time>2026-04-18T13:51:36.995Z</time></trkpt><trkpt lat="43.467305717899904" lon="10.658692185846514"><ele>257.0</ele><time>2026-04-18T13:51:37.98Z</time></trkpt><trkpt lat="43.46724630761339" lon="10.658628747722293"><ele>257.0</ele><time>2026-04-18T13:51:38.976Z</time></trkpt><trkpt lat="43.46718287157038" lon="10.658561543811729"><ele>258.1666666666667</ele><time>2026-04-18T13:51:39.979Z</time></trkpt><trkpt lat="43.46711572749915" lon="10.658490410453217"><ele>259.33333333333337</ele><time>2026-04-18T13:51:41Z</time></trkpt><trkpt lat="43.46704526121799" lon="10.65841575730113"><ele>260.5</ele><time>2026-04-18T13:51:41.971Z</time></trkpt><trkpt lat="43.46697326757519" lon="10.658339486171107"><ele>261.6666666666667</ele><time>2026-04-18T13:51:42.967Z</time></trkpt><trkpt lat="43.466901123695514" lon="10.658263055896255"><ele>262.8333333333333</ele><time>2026-04-18T13:51:43.972Z</time></trkpt><trkpt lat="43.466830331077105" lon="10.658188056961597"><ele>264.0</ele><time>2026-04-18T13:51:44.985Z</time></trkpt><trkpt lat="43.466761503466834" lon="10.658115139928643"><ele>264.85714285714283</ele><time>2026-04-18T13:51:45.967Z</time></trkpt><trkpt lat="43.466693830943115" lon="10.658043446926468"><ele>265.7142857142857</ele><time>2026-04-18T13:51:46.968Z</time></trkpt><trkpt lat="43.46663255548379" lon="10.65797853024435"><ele>266.57142857142856</ele><time>2026-04-18T13:51:47.964Z</time></trkpt><trkpt lat="43.46657898056505" lon="10.657921711506878"><ele>267.42857142857144</ele><time>2026-04-18T13:51:48.98Z</time></trkpt><trkpt lat="43.46652592082043" lon="10.657865271147406"><ele>268.2857142857143</ele><time>2026-04-18T13:51:49.997Z</time></trkpt><trkpt lat="43.46646948954836" lon="10.65780751449023"><ele>269.1428571428571</ele><time>2026-04-18T13:51:50.977Z</time></trkpt><trkpt lat="43.46640963612821" lon="10.65774676599741"><ele>270.0</ele><time>2026-04-18T13:51:51.984Z</time></trkpt><trkpt lat="43.46635455988979" lon="10.65767880854149"><ele>270.6666666666667</ele><time>2026-04-18T13:51:52.976Z</time></trkpt><trkpt lat="43.466302564591295" lon="10.657602250742233"><ele>271.3333333333333</ele><time>2026-04-18T13:51:54.003Z</time></trkpt><trkpt lat="43.466267646260725" lon="10.657513027644942"><ele>272.0</ele><time>2026-04-18T13:51:54.973Z</time></trkpt><trkpt lat="43.46624457563094" lon="10.657420253879021"><ele>272.66666666666663</ele><time>2026-04-18T13:51:55.976Z</time></trkpt><trkpt lat="43.46622686323984" lon="10.657334716740738"><ele>273.3333333333333</ele><time>2026-04-18T13:51:56.968Z</time></trkpt><trkpt lat="43.46620931882203" lon="10.657250510357473"><ele>274.0</ele><time>2026-04-18T13:51:58.099Z</time></trkpt><trkpt lat="43.46617322278295" lon="10.657089678029564"><ele>275.4</ele><time>2026-04-18T13:51:59.969Z</time></trkpt><trkpt lat="43.46613676374927" lon="10.656933332225174"><ele>276.79999999999995</ele><time>2026-04-18T13:52:01.983Z</time></trkpt><trkpt lat="43.46610269334458" lon="10.656787229486975"><ele>278.20000000000005</ele><time>2026-04-18T13:52:03.977Z</time></trkpt><trkpt lat="43.46607215439527" lon="10.656656885183542"><ele>279.6</ele><time>2026-04-18T13:52:05.976Z</time></trkpt><trkpt lat="43.46604274143106" lon="10.656531787959025"><ele>281.0</ele><time>2026-04-18T13:52:07.972Z</time></trkpt><trkpt lat="43.466011576647745" lon="10.656399239979887"><ele>281.0</ele><time>2026-04-18T13:52:09.974Z</time></trkpt><trkpt lat="43.465962166666664" lon="10.656260000000001"><ele>281.0</ele><time>2026-04-18T13:52:11.982Z</time></trkpt><trkpt lat="43.46594041278984" lon="10.656095233876334"><ele>281.0</ele><time>2026-04-18T13:52:13.98Z</time></trkpt><trkpt lat="43.46590170344783" lon="10.655929573532505"><ele>281.0</ele><time>2026-04-18T13:52:16.013Z</time></trkpt><trkpt lat="43.46588288484114" lon="10.655846636521973"><ele>281.0</ele><time>2026-04-18T13:52:16.981Z</time></trkpt><trkpt lat="43.46586360873812" lon="10.65576168332957"><ele>282.0</ele><time>2026-04-18T13:52:17.977Z</time></trkpt><trkpt lat="43.465843584636424" lon="10.655673433588392"><ele>283.0</ele><time>2026-04-18T13:52:18.997Z</time></trkpt><trkpt lat="43.46582315663965" lon="10.65558340379031"><ele>284.0</ele><time>2026-04-18T13:52:19.973Z</time></trkpt><trkpt lat="43.46580257082965" lon="10.655492678445112"><ele>285.0</ele><time>2026-04-18T13:52:20.974Z</time></trkpt><trkpt lat="43.46578175846128" lon="10.655400954621612"><ele>286.0</ele><time>2026-04-18T13:52:21.972Z</time></trkpt><trkpt lat="43.4657502962102" lon="10.655262294905247"><ele>287.0</ele><time>2026-04-18T13:52:22.981Z</time></trkpt><trkpt lat="43.4657289889061" lon="10.655170017469336"><ele>287.8</ele><time>2026-04-18T13:52:24.011Z</time></trkpt><trkpt lat="43.465696218421904" lon="10.655029636492634"><ele>288.6</ele><time>2026-04-18T13:52:26.052Z</time></trkpt><trkpt lat="43.46566184044599" lon="10.654882369388236"><ele>289.40000000000003</ele><time>2026-04-18T13:52:26.977Z</time></trkpt><trkpt lat="43.4656255896417" lon="10.654727079688431"><ele>290.2</ele><time>2026-04-18T13:52:28.969Z</time></trkpt><trkpt lat="43.465600030918054" lon="10.654617592151476"><ele>291.0</ele><time>2026-04-18T13:52:29.972Z</time></trkpt><trkpt lat="43.465573735461064" lon="10.654504948792502"><ele>291.8</ele><time>2026-04-18T13:52:30.977Z</time></trkpt><trkpt lat="43.46554661584365" lon="10.654388774799948"><ele>292.6</ele><time>2026-04-18T13:52:31.988Z</time></trkpt><trkpt lat="43.46551884137281" lon="10.65426979564072"><ele>293.4</ele><time>2026-04-18T13:52:32.976Z</time></trkpt><trkpt lat="43.46549078625255" lon="10.654150555162317"><ele>294.2</ele><time>2026-04-18T13:52:33.973Z</time></trkpt><trkpt lat="43.465462275681126" lon="10.65403111823687"><ele>295.0</ele><time>2026-04-18T13:52:34.979Z</time></trkpt><trkpt lat="43.46543271788314" lon="10.653907294233777"><ele>295.6</ele><time>2026-04-18T13:52:35.984Z</time></trkpt><trkpt lat="43.46540300723148" lon="10.653783021858908"><ele>296.2</ele><time>2026-04-18T13:52:36.966Z</time></trkpt><trkpt lat="43.46537554126935" lon="10.653657869881952"><ele>296.8</ele><time>2026-04-18T13:52:37.964Z</time></trkpt><trkpt lat="43.4653477377044" lon="10.653531179494045"><ele>297.4</ele><time>2026-04-18T13:52:38.975Z</time></trkpt><trkpt lat="43.46531908432765" lon="10.653400616964051"><ele>298.0</ele><time>2026-04-18T13:52:39.988Z</time></trkpt><trkpt lat="43.46528885311681" lon="10.653267708833376"><ele>298.5</ele><time>2026-04-18T13:52:40.997Z</time></trkpt><trkpt lat="43.465258286993766" lon="10.65314417247887"><ele>299.0</ele><time>2026-04-18T13:52:41.973Z</time></trkpt><trkpt lat="43.46523018800281" lon="10.6530306073175"><ele>299.5</ele><time>2026-04-18T13:52:43.044Z</time></trkpt><trkpt lat="43.46520360236497" lon="10.652923158458302"><ele>300.0</ele><time>2026-04-18T13:52:43.969Z</time></trkpt><trkpt lat="43.46517692569624" lon="10.652815341648779"><ele>300.5</ele><time>2026-04-18T13:52:45.085Z</time></trkpt><trkpt lat="43.465150162463694" lon="10.652707175224396"><ele>301.0</ele><time>2026-04-18T13:52:45.968Z</time></trkpt><trkpt lat="43.46512832867748" lon="10.652599889520111"><ele>301.6</ele><time>2026-04-18T13:52:46.976Z</time></trkpt><trkpt lat="43.465123244785886" lon="10.652487492765378"><ele>302.20000000000005</ele><time>2026-04-18T13:52:47.969Z</time></trkpt><trkpt lat="43.46513724211248" lon="10.652375884282012"><ele>302.79999999999995</ele><time>2026-04-18T13:52:49.094Z</time></trkpt><trkpt lat="43.465153221886695" lon="10.652255160026455"><ele>303.4</ele><time>2026-04-18T13:52:49.984Z</time></trkpt><trkpt lat="43.46518462443178" lon="10.652064166937228"><ele>304.0</ele><time>2026-04-18T13:52:50.964Z</time></trkpt><trkpt lat="43.46520610770814" lon="10.651930649813691"><ele>304.4</ele><time>2026-04-18T13:52:51.973Z</time></trkpt><trkpt lat="43.46522519697502" lon="10.651794256011442"><ele>304.79999999999995</ele><time>2026-04-18T13:52:52.988Z</time></trkpt><trkpt lat="43.46524272999524" lon="10.651658768110407"><ele>305.20000000000005</ele><time>2026-04-18T13:52:54.004Z</time></trkpt><trkpt lat="43.46526018957521" lon="10.651523847650259"><ele>305.6</ele><time>2026-04-18T13:52:54.969Z</time></trkpt><trkpt lat="43.46527756498229" lon="10.651389577581835"><ele>306.0</ele><time>2026-04-18T13:52:55.968Z</time></trkpt><trkpt lat="43.46529483182651" lon="10.651256146718344"><ele>306.40000000000003</ele><time>2026-04-18T13:52:56.988Z</time></trkpt><trkpt lat="43.46531200175019" lon="10.65112346445586"><ele>306.8</ele><time>2026-04-18T13:52:57.978Z</time></trkpt><trkpt lat="43.465312666666655" lon="10.650988833333335"><ele>307.20000000000005</ele><time>2026-04-18T13:52:58.969Z</time></trkpt><trkpt lat="43.465329666666676" lon="10.650859666666669"><ele>307.6</ele><time>2026-04-18T13:52:59.97Z</time></trkpt><trkpt lat="43.46534516666667" lon="10.650731333333333"><ele>308.0</ele><time>2026-04-18T13:53:00.997Z</time></trkpt><trkpt lat="43.46536166666667" lon="10.650605333333333"><ele>308.0</ele><time>2026-04-18T13:53:01.996Z</time></trkpt><trkpt lat="43.46537700000001" lon="10.650489"><ele>308.0</ele><time>2026-04-18T13:53:02.973Z</time></trkpt><trkpt lat="43.4653855" lon="10.650384"><ele>308.0</ele><time>2026-04-18T13:53:03.971Z</time></trkpt><trkpt lat="43.46540421808122" lon="10.650295192055564"><ele>308.0</ele><time>2026-04-18T13:53:04.971Z</time></trkpt><trkpt lat="43.46541644137603" lon="10.650156008780794"><ele>308.0</ele><time>2026-04-18T13:53:06.963Z</time></trkpt><trkpt lat="43.465432395312476" lon="10.650043934436582"><ele>308.0</ele><time>2026-04-18T13:53:08.978Z</time></trkpt><trkpt lat="43.465467727590564" lon="10.649887402681545"><ele>307.83333333333337</ele><time>2026-04-18T13:53:11.012Z</time></trkpt><trkpt lat="43.46549359119168" lon="10.649770184965186"><ele>307.6666666666667</ele><time>2026-04-18T13:53:11.988Z</time></trkpt><trkpt lat="43.46551618456451" lon="10.649660237610865"><ele>307.5</ele><time>2026-04-18T13:53:13.977Z</time></trkpt><trkpt lat="43.465537742960855" lon="10.649555485591938"><ele>307.3333333333333</ele><time>2026-04-18T13:53:15Z</time></trkpt><trkpt lat="43.46556236618401" lon="10.649440301419059"><ele>307.16666666666663</ele><time>2026-04-18T13:53:16.966Z</time></trkpt><trkpt lat="43.46558950249666" lon="10.649313361289511"><ele>307.0</ele><time>2026-04-18T13:53:17.978Z</time></trkpt><trkpt lat="43.46563163903444" lon="10.649116252113377"><ele>307.0</ele><time>2026-04-18T13:53:19.971Z</time></trkpt><trkpt lat="43.46565518514409" lon="10.649006106497906"><ele>307.0</ele><time>2026-04-18T13:53:20.966Z</time></trkpt><trkpt lat="43.46568001203121" lon="10.648889969578713"><ele>307.0</ele><time>2026-04-18T13:53:21.984Z</time></trkpt><trkpt lat="43.46570567484385" lon="10.64876787499199"><ele>307.0</ele><time>2026-04-18T13:53:22.989Z</time></trkpt><trkpt lat="43.46573018426842" lon="10.648638932248547"><ele>307.0</ele><time>2026-04-18T13:53:24.009Z</time></trkpt><trkpt lat="43.46575239817454" lon="10.648504214464912"><ele>304.6</ele><time>2026-04-18T13:53:24.973Z</time></trkpt><trkpt lat="43.46577225324006" lon="10.648367317302244"><ele>302.2</ele><time>2026-04-18T13:53:25.976Z</time></trkpt><trkpt lat="43.46579039425472" lon="10.648227999486801"><ele>299.8</ele><time>2026-04-18T13:53:26.977Z</time></trkpt><trkpt lat="43.465790500000004" lon="10.648082333333331"><ele>297.4</ele><time>2026-04-18T13:53:27.985Z</time></trkpt><trkpt lat="43.46580833333334" lon="10.647937500000001"><ele>295.0</ele><time>2026-04-18T13:53:28.969Z</time></trkpt><trkpt lat="43.465826666666665" lon="10.647788666666669"><ele>293.25</ele><time>2026-04-18T13:53:29.977Z</time></trkpt><trkpt lat="43.46586331090284" lon="10.64763792256013"><ele>291.5</ele><time>2026-04-18T13:53:30.977Z</time></trkpt><trkpt lat="43.46588440544361" lon="10.647477785166942"><ele>289.75</ele><time>2026-04-18T13:53:32Z</time></trkpt><trkpt lat="43.46590471693467" lon="10.647310766320436"><ele>288.0</ele><time>2026-04-18T13:53:33.004Z</time></trkpt><trkpt lat="43.46592382139304" lon="10.647136942092116"><ele>287.25</ele><time>2026-04-18T13:53:33.968Z</time></trkpt><trkpt lat="43.46593894083232" lon="10.646959614290054"><ele>286.5</ele><time>2026-04-18T13:53:35.071Z</time></trkpt><trkpt lat="43.46595252397661" lon="10.646782268898082"><ele>285.75</ele><time>2026-04-18T13:53:35.989Z</time></trkpt><trkpt lat="43.46596845844971" lon="10.646600215844034"><ele>285.0</ele><time>2026-04-18T13:53:36.967Z</time></trkpt><trkpt lat="43.46599037523412" lon="10.646408154130967"><ele>285.0</ele><time>2026-04-18T13:53:37.982Z</time></trkpt><trkpt lat="43.46600350000001" lon="10.646204833333334"><ele>285.0</ele><time>2026-04-18T13:53:38.968Z</time></trkpt><trkpt lat="43.46605695191586" lon="10.646001735560963"><ele>285.0</ele><time>2026-04-18T13:53:39.977Z</time></trkpt><trkpt lat="43.466101760399745" lon="10.645791515003996"><ele>285.75</ele><time>2026-04-18T13:53:41.009Z</time></trkpt><trkpt lat="43.46612534512929" lon="10.645689595840947"><ele>286.5</ele><time>2026-04-18T13:53:41.977Z</time></trkpt><trkpt lat="43.466171402409" lon="10.645492207484764"><ele>287.25</ele><time>2026-04-18T13:53:42.972Z</time></trkpt><trkpt lat="43.46621370128629" lon="10.645299823368235"><ele>288.0</ele><time>2026-04-18T13:53:43.992Z</time></trkpt><trkpt lat="43.46625492449028" lon="10.645112306265146"><ele>289.25</ele><time>2026-04-18T13:53:44.978Z</time></trkpt><trkpt lat="43.466282666666665" lon="10.644922833333332"><ele>290.5</ele><time>2026-04-18T13:53:45.976Z</time></trkpt><trkpt lat="43.466330500000005" lon="10.644743166666666"><ele>291.75</ele><time>2026-04-18T13:53:46.97Z</time></trkpt><trkpt lat="43.46638633333333" lon="10.644567500000003"><ele>293.0</ele><time>2026-04-18T13:53:47.977Z</time></trkpt><trkpt lat="43.46644633333334" lon="10.644394499999999"><ele>294.0</ele><time>2026-04-18T13:53:49Z</time></trkpt><trkpt lat="43.46650883333333" lon="10.644222666666666"><ele>295.0</ele><time>2026-04-18T13:53:49.981Z</time></trkpt><trkpt lat="43.46657100000001" lon="10.644051333333335"><ele>296.0</ele><time>2026-04-18T13:53:50.977Z</time></trkpt><trkpt lat="43.46663133333333" lon="10.643878166666665"><ele>297.0</ele><time>2026-04-18T13:53:51.976Z</time></trkpt><trkpt lat="43.46670758255509" lon="10.643715828586567"><ele>298.25</ele><time>2026-04-18T13:53:52.996Z</time></trkpt><trkpt lat="43.46675199999999" lon="10.643541333333333"><ele>299.5</ele><time>2026-04-18T13:53:53.999Z</time></trkpt><trkpt lat="43.46680766666667" lon="10.643389666666666"><ele>300.75</ele><time>2026-04-18T13:53:54.968Z</time></trkpt><trkpt lat="43.46686" lon="10.643253166666666"><ele>302.0</ele><time>2026-04-18T13:53:55.969Z</time></trkpt><trkpt lat="43.46690416666667" lon="10.643130000000001"><ele>302.0</ele><time>2026-04-18T13:53:57.089Z</time></trkpt><trkpt lat="43.46694872369037" lon="10.643022929060075"><ele>302.0</ele><time>2026-04-18T13:53:57.977Z</time></trkpt><trkpt lat="43.4669529810348" lon="10.642913792547683"><ele>302.0</ele><time>2026-04-18T13:53:58.965Z</time></trkpt><trkpt lat="43.466931011376744" lon="10.642831266159988"><ele>302.0</ele><time>2026-04-18T13:53:59.969Z</time></trkpt><trkpt lat="43.46691762279822" lon="10.642715848710447"><ele>302.0</ele><time>2026-04-18T13:54:01.997Z</time></trkpt><trkpt lat="43.466956606445194" lon="10.64263510929851"><ele>302.0</ele><time>2026-04-18T13:54:03.972Z</time></trkpt><trkpt lat="43.46699633333333" lon="10.642560666666668"><ele>302.8571428571429</ele><time>2026-04-18T13:54:06.968Z</time></trkpt><trkpt lat="43.467057999999994" lon="10.642493000000002"><ele>303.7142857142857</ele><time>2026-04-18T13:54:11.969Z</time></trkpt><trkpt lat="43.467121833333344" lon="10.642421333333333"><ele>304.57142857142856</ele><time>2026-04-18T13:54:15.013Z</time></trkpt><trkpt lat="43.46717066666667" lon="10.642359333333332"><ele>305.42857142857144</ele><time>2026-04-18T13:54:16.978Z</time></trkpt><trkpt lat="43.46723398381553" lon="10.642309428600573"><ele>306.2857142857143</ele><time>2026-04-18T13:54:19Z</time></trkpt><trkpt lat="43.467282452113125" lon="10.642241703528102"><ele>307.14285714285717</ele><time>2026-04-18T13:54:20.978Z</time></trkpt><trkpt lat="43.46732963883431" lon="10.642169003166083"><ele>308.0</ele><time>2026-04-18T13:54:23.092Z</time></trkpt><trkpt lat="43.467376444186115" lon="10.642090580715378"><ele>308.6666666666667</ele><time>2026-04-18T13:54:24.969Z</time></trkpt><trkpt lat="43.46742074305293" lon="10.642004945387002"><ele>309.33333333333337</ele><time>2026-04-18T13:54:26.972Z</time></trkpt><trkpt lat="43.46746445780656" lon="10.641912612593357"><ele>310.0</ele><time>2026-04-18T13:54:29.133Z</time></trkpt><trkpt lat="43.46749150000001" lon="10.641809333333333"><ele>310.6666666666667</ele><time>2026-04-18T13:54:30.994Z</time></trkpt><trkpt lat="43.467526666666664" lon="10.641728666666666"><ele>311.3333333333333</ele><time>2026-04-18T13:54:32.978Z</time></trkpt><trkpt lat="43.467566500000004" lon="10.641622666666668"><ele>312.0</ele><time>2026-04-18T13:54:36.002Z</time></trkpt><trkpt lat="43.46762164785378" lon="10.641519488664445"><ele>313.1666666666667</ele><time>2026-04-18T13:54:38.978Z</time></trkpt><trkpt lat="43.46765531766525" lon="10.64142921730394"><ele>314.3333333333333</ele><time>2026-04-18T13:54:40.984Z</time></trkpt><trkpt lat="43.467695814798205" lon="10.64131973265653"><ele>315.5</ele><time>2026-04-18T13:54:42.977Z</time></trkpt><trkpt lat="43.46773971213593" lon="10.641200578003941"><ele>316.66666666666663</ele><time>2026-04-18T13:54:45.014Z</time></trkpt><trkpt lat="43.467767" lon="10.6410795"><ele>317.8333333333333</ele><time>2026-04-18T13:54:46.965Z</time></trkpt><trkpt lat="43.467818047361625" lon="10.640985570845322"><ele>319.0</ele><time>2026-04-18T13:54:49.008Z</time></trkpt><trkpt lat="43.46785156519229" lon="10.640889619022449"><ele>320.0</ele><time>2026-04-18T13:54:50.973Z</time></trkpt><trkpt lat="43.467891495800366" lon="10.640775309208744"><ele>321.0</ele><time>2026-04-18T13:54:53.01Z</time></trkpt><trkpt lat="43.467923333333324" lon="10.640636833333334"><ele>322.0</ele><time>2026-04-18T13:54:54.965Z</time></trkpt><trkpt lat="43.46797466666667" lon="10.640505333333333"><ele>323.0</ele><time>2026-04-18T13:54:56.98Z</time></trkpt><trkpt lat="43.468014499999995" lon="10.640400166666666"><ele>324.0</ele><time>2026-04-18T13:54:57.962Z</time></trkpt><trkpt lat="43.46807733333333" lon="10.640261666666667"><ele>325.6</ele><time>2026-04-18T13:54:59.983Z</time></trkpt><trkpt lat="43.468152833333335" lon="10.640138166666668"><ele>327.2</ele><time>2026-04-18T13:55:01.968Z</time></trkpt><trkpt lat="43.468239999999994" lon="10.640041166666666"><ele>328.8</ele><time>2026-04-18T13:55:03.966Z</time></trkpt><trkpt lat="43.46831283333333" lon="10.639984499999999"><ele>330.40000000000003</ele><time>2026-04-18T13:55:06.012Z</time></trkpt><trkpt lat="43.468412" lon="10.639922333333335"><ele>332.0</ele><time>2026-04-18T13:55:07.979Z</time></trkpt><trkpt lat="43.46850666666666" lon="10.639871333333334"><ele>332.0</ele><time>2026-04-18T13:55:10.001Z</time></trkpt><trkpt lat="43.46860100000001" lon="10.639821500000002"><ele>332.0</ele><time>2026-04-18T13:55:11.982Z</time></trkpt><trkpt lat="43.46869866666666" lon="10.639773833333333"><ele>332.0</ele><time>2026-04-18T13:55:14.005Z</time></trkpt><trkpt lat="43.468791333333336" lon="10.639722500000001"><ele>332.0</ele><time>2026-04-18T13:55:15.974Z</time></trkpt><trkpt lat="43.468880000000006" lon="10.639664000000002"><ele>332.0</ele><time>2026-04-18T13:55:17.989Z</time></trkpt><trkpt lat="43.468971833333335" lon="10.639596166666667"><ele>332.20000000000005</ele><time>2026-04-18T13:55:19.986Z</time></trkpt><trkpt lat="43.46906483333334" lon="10.639514666666665"><ele>332.4</ele><time>2026-04-18T13:55:21.981Z</time></trkpt><trkpt lat="43.46915683333334" lon="10.639423833333334"><ele>332.6</ele><time>2026-04-18T13:55:23.968Z</time></trkpt><trkpt lat="43.4692561694002" lon="10.63935261396901"><ele>332.79999999999995</ele><time>2026-04-18T13:55:25.973Z</time></trkpt><trkpt lat="43.46933914865515" lon="10.639267753473492"><ele>333.0</ele><time>2026-04-18T13:55:27.97Z</time></trkpt><trkpt lat="43.46941104960517" lon="10.63917548321108"><ele>333.0</ele><time>2026-04-18T13:55:29.966Z</time></trkpt><trkpt lat="43.46946639517912" lon="10.63906265542255"><ele>333.0</ele><time>2026-04-18T13:55:31.982Z</time></trkpt><trkpt lat="43.469507878075376" lon="10.63893963881257"><ele>333.0</ele><time>2026-04-18T13:55:33.982Z</time></trkpt><trkpt lat="43.46953449211107" lon="10.638840450200805"><ele>333.0</ele><time>2026-04-18T13:55:35.969Z</time></trkpt><trkpt lat="43.46955590429266" lon="10.638720772277583"><ele>333.0</ele><time>2026-04-18T13:55:37.974Z</time></trkpt><trkpt lat="43.469583981440366" lon="10.638594524199148"><ele>335.4</ele><time>2026-04-18T13:55:40.011Z</time></trkpt><trkpt lat="43.469617166666666" lon="10.638457666666666"><ele>337.79999999999995</ele><time>2026-04-18T13:55:41.972Z</time></trkpt><trkpt lat="43.46968749999999" lon="10.638350833333334"><ele>340.2</ele><time>2026-04-18T13:55:44.001Z</time></trkpt><trkpt lat="43.4697475" lon="10.638289"><ele>342.6</ele><time>2026-04-18T13:55:44.971Z</time></trkpt><trkpt lat="43.46982766666666" lon="10.638213333333333"><ele>345.0</ele><time>2026-04-18T13:55:46.982Z</time></trkpt><trkpt lat="43.469893333333324" lon="10.638153666666664"><ele>345.0</ele><time>2026-04-18T13:55:49.018Z</time></trkpt><trkpt lat="43.46999433333334" lon="10.638078666666669"><ele>345.0</ele><time>2026-04-18T13:55:50.969Z</time></trkpt><trkpt lat="43.47010916666666" lon="10.638012166666666"><ele>345.0</ele><time>2026-04-18T13:55:53.011Z</time></trkpt><trkpt lat="43.470172000000005" lon="10.63798"><ele>345.0</ele><time>2026-04-18T13:55:53.973Z</time></trkpt><trkpt lat="43.47023866666667" lon="10.637947999999998"><ele>345.0</ele><time>2026-04-18T13:55:54.973Z</time></trkpt><trkpt lat="43.47030783333333" lon="10.637912333333334"><ele>345.0</ele><time>2026-04-18T13:55:55.974Z</time></trkpt><trkpt lat="43.47038116666666" lon="10.637877"><ele>345.0</ele><time>2026-04-18T13:55:56.998Z</time></trkpt><trkpt lat="43.4704565" lon="10.637842666666664"><ele>345.0</ele><time>2026-04-18T13:55:57.977Z</time></trkpt><trkpt lat="43.4705315" lon="10.637802833333335"><ele>345.0</ele><time>2026-04-18T13:55:58.97Z</time></trkpt><trkpt lat="43.47060683333334" lon="10.637761333333332"><ele>345.0</ele><time>2026-04-18T13:55:59.966Z</time></trkpt><trkpt lat="43.470684166666665" lon="10.637723999999999"><ele>345.0</ele><time>2026-04-18T13:56:00.981Z</time></trkpt><trkpt lat="43.470761666666675" lon="10.637697333333332"><ele>345.7142857142857</ele><time>2026-04-18T13:56:01.97Z</time></trkpt><trkpt lat="43.47083683333334" lon="10.637667833333333"><ele>346.42857142857144</ele><time>2026-04-18T13:56:02.978Z</time></trkpt><trkpt lat="43.47090333333333" lon="10.637616666666668"><ele>347.1428571428571</ele><time>2026-04-18T13:56:03.984Z</time></trkpt><trkpt lat="43.47096133333333" lon="10.637553833333333"><ele>347.8571428571429</ele><time>2026-04-18T13:56:04.978Z</time></trkpt><trkpt lat="43.47101583333333" lon="10.637489333333335"><ele>348.57142857142856</ele><time>2026-04-18T13:56:05.995Z</time></trkpt><trkpt lat="43.47107316666668" lon="10.637433"><ele>349.2857142857143</ele><time>2026-04-18T13:56:06.965Z</time></trkpt><trkpt lat="43.47113333333334" lon="10.637378499999999"><ele>350.0</ele><time>2026-04-18T13:56:07.969Z</time></trkpt><trkpt lat="43.47119683333334" lon="10.637321333333334"><ele>350.0</ele><time>2026-04-18T13:56:08.985Z</time></trkpt><trkpt lat="43.471262333333335" lon="10.637255000000001"><ele>350.0</ele><time>2026-04-18T13:56:10.013Z</time></trkpt><trkpt lat="43.47133266666666" lon="10.637183"><ele>350.0</ele><time>2026-04-18T13:56:10.97Z</time></trkpt><trkpt lat="43.47141033333334" lon="10.637112333333334"><ele>350.0</ele><time>2026-04-18T13:56:11.981Z</time></trkpt><trkpt lat="43.471492999999995" lon="10.63704133333333"><ele>350.0</ele><time>2026-04-18T13:56:12.982Z</time></trkpt><trkpt lat="43.47157999999999" lon="10.636975833333334"><ele>351.2</ele><time>2026-04-18T13:56:14.008Z</time></trkpt><trkpt lat="43.47166516666666" lon="10.636911666666666"><ele>352.4</ele><time>2026-04-18T13:56:14.972Z</time></trkpt><trkpt lat="43.47174816666667" lon="10.636845000000003"><ele>353.6</ele><time>2026-04-18T13:56:15.969Z</time></trkpt><trkpt lat="43.47183199999999" lon="10.636778499999998"><ele>354.8</ele><time>2026-04-18T13:56:16.968Z</time></trkpt><trkpt lat="43.471918499999994" lon="10.636718"><ele>356.0</ele><time>2026-04-18T13:56:17.981Z</time></trkpt><trkpt lat="43.47200466666666" lon="10.636656166666667"><ele>356.0</ele><time>2026-04-18T13:56:18.981Z</time></trkpt><trkpt lat="43.47208633333333" lon="10.636587166666668"><ele>356.0</ele><time>2026-04-18T13:56:19.975Z</time></trkpt><trkpt lat="43.472165499999996" lon="10.636518"><ele>356.0</ele><time>2026-04-18T13:56:20.982Z</time></trkpt><trkpt lat="43.472242666666666" lon="10.636451333333332"><ele>356.0</ele><time>2026-04-18T13:56:21.976Z</time></trkpt><trkpt lat="43.47231833333334" lon="10.636387500000001"><ele>356.0</ele><time>2026-04-18T13:56:22.969Z</time></trkpt><trkpt lat="43.47238949999999" lon="10.636326"><ele>355.0</ele><time>2026-04-18T13:56:23.965Z</time></trkpt><trkpt lat="43.47245083333334" lon="10.636268500000002"><ele>354.0</ele><time>2026-04-18T13:56:24.982Z</time></trkpt><trkpt lat="43.47253716666667" lon="10.636176166666667"><ele>353.0</ele><time>2026-04-18T13:56:27.006Z</time></trkpt><trkpt lat="43.472374666666674" lon="10.636134499999999"><ele>352.0</ele><time>2026-04-18T13:56:44.98Z</time></trkpt><trkpt lat="43.47226066666667" lon="10.636149666666665"><ele>352.0</ele><time>2026-04-18T13:56:46.981Z</time></trkpt><trkpt lat="43.4721955" lon="10.636144666666667"><ele>352.0</ele><time>2026-04-18T13:56:48.006Z</time></trkpt><trkpt lat="43.47212616666667" lon="10.636129"><ele>352.0</ele><time>2026-04-18T13:56:48.966Z</time></trkpt><trkpt lat="43.47205433333334" lon="10.636099000000002"><ele>352.0</ele><time>2026-04-18T13:56:49.966Z</time></trkpt><trkpt lat="43.471983333333334" lon="10.636049333333336"><ele>352.0</ele><time>2026-04-18T13:56:50.974Z</time></trkpt><trkpt lat="43.471915499999994" lon="10.635979666666666"><ele>352.0</ele><time>2026-04-18T13:56:51.99Z</time></trkpt><trkpt lat="43.47185283333333" lon="10.6358925"><ele>353.6</ele><time>2026-04-18T13:56:52.999Z</time></trkpt><trkpt lat="43.47179616666667" lon="10.635791999999999"><ele>355.20000000000005</ele><time>2026-04-18T13:56:53.973Z</time></trkpt><trkpt lat="43.47174316666666" lon="10.635681"><ele>356.8</ele><time>2026-04-18T13:56:54.966Z</time></trkpt><trkpt lat="43.471690833333334" lon="10.635562666666665"><ele>358.4</ele><time>2026-04-18T13:56:55.981Z</time></trkpt><trkpt lat="43.471639833333334" lon="10.635437833333333"><ele>360.0</ele><time>2026-04-18T13:56:57.007Z</time></trkpt><trkpt lat="43.471590166666665" lon="10.635309333333332"><ele>360.6</ele><time>2026-04-18T13:56:57.966Z</time></trkpt><trkpt lat="43.471540166666664" lon="10.635177500000001"><ele>361.2</ele><time>2026-04-18T13:56:58.968Z</time></trkpt><trkpt lat="43.471488833333325" lon="10.635044"><ele>361.79999999999995</ele><time>2026-04-18T13:56:59.986Z</time></trkpt><trkpt lat="43.471436499999996" lon="10.634908"><ele>362.4</ele><time>2026-04-18T13:57:01.002Z</time></trkpt><trkpt lat="43.4713825" lon="10.63477"><ele>363.0</ele><time>2026-04-18T13:57:01.966Z</time></trkpt><trkpt lat="43.47132716666667" lon="10.634628500000002"><ele>360.25</ele><time>2026-04-18T13:57:02.977Z</time></trkpt><trkpt lat="43.471270000000004" lon="10.634481333333333"><ele>357.5</ele><time>2026-04-18T13:57:03.978Z</time></trkpt><trkpt lat="43.471208" lon="10.634324499999998"><ele>354.75</ele><time>2026-04-18T13:57:04.983Z</time></trkpt><trkpt lat="43.47114133333333" lon="10.634156499999998"><ele>352.0</ele><time>2026-04-18T13:57:05.972Z</time></trkpt><trkpt lat="43.471072166666666" lon="10.633978000000003"><ele>352.0</ele><time>2026-04-18T13:57:06.973Z</time></trkpt><trkpt lat="43.47100050000001" lon="10.633790833333334"><ele>352.0</ele><time>2026-04-18T13:57:07.975Z</time></trkpt><trkpt lat="43.47092816666667" lon="10.633601833333334"><ele>352.0</ele><time>2026-04-18T13:57:08.987Z</time></trkpt><trkpt lat="43.47085516666666" lon="10.633414999999998"><ele>354.3333333333333</ele><time>2026-04-18T13:57:09.998Z</time></trkpt><trkpt lat="43.47077966666667" lon="10.633233499999998"><ele>356.6666666666667</ele><time>2026-04-18T13:57:10.97Z</time></trkpt><trkpt lat="43.47070653454525" lon="10.633048696549977"><ele>359.0</ele><time>2026-04-18T13:57:11.97Z</time></trkpt><trkpt lat="43.47060211668967" lon="10.632893635057828"><ele>356.33333333333337</ele><time>2026-04-18T13:57:12.979Z</time></trkpt><trkpt lat="43.47042016666666" lon="10.632695833333331"><ele>353.6666666666667</ele><time>2026-04-18T13:57:13.984Z</time></trkpt><trkpt lat="43.47030633333334" lon="10.632553666666668"><ele>351.0</ele><time>2026-04-18T13:57:14.969Z</time></trkpt><trkpt lat="43.47019700000001" lon="10.632408500000002"><ele>351.0</ele><time>2026-04-18T13:57:15.97Z</time></trkpt><trkpt lat="43.470104433758806" lon="10.632244255819577"><ele>351.0</ele><time>2026-04-18T13:57:16.967Z</time></trkpt><trkpt lat="43.47005288940687" lon="10.632164897017198"><ele>351.0</ele><time>2026-04-18T13:57:18.003Z</time></trkpt><trkpt lat="43.46993360100792" lon="10.632035083742187"><ele>351.0</ele><time>2026-04-18T13:57:18.967Z</time></trkpt><trkpt lat="43.4698003250385" lon="10.631945621402688"><ele>348.0</ele><time>2026-04-18T13:57:19.968Z</time></trkpt><trkpt lat="43.46966657194837" lon="10.631899840910636"><ele>345.0</ele><time>2026-04-18T13:57:20.99Z</time></trkpt><trkpt lat="43.46954733333334" lon="10.631881666666668"><ele>342.0</ele><time>2026-04-18T13:57:22.011Z</time></trkpt><trkpt lat="43.46945533333332" lon="10.631812666666667"><ele>339.0</ele><time>2026-04-18T13:57:22.97Z</time></trkpt><trkpt lat="43.469388499999994" lon="10.631658333333334"><ele>339.0</ele><time>2026-04-18T13:57:23.97Z</time></trkpt><trkpt lat="43.469388333333335" lon="10.631535"><ele>339.0</ele><time>2026-04-18T13:57:24.983Z</time></trkpt><trkpt lat="43.469391333333334" lon="10.631328666666665"><ele>339.0</ele><time>2026-04-18T13:57:27.013Z</time></trkpt><trkpt lat="43.469352294261235" lon="10.63111061833684"><ele>339.0</ele><time>2026-04-18T13:57:27.974Z</time></trkpt><trkpt lat="43.46930764837921" lon="10.630975479365317"><ele>341.0</ele><time>2026-04-18T13:57:28.972Z</time></trkpt><trkpt lat="43.46925133333335" lon="10.630848333333333"><ele>343.0</ele><time>2026-04-18T13:57:29.983Z</time></trkpt><trkpt lat="43.469222666666674" lon="10.630706166666668"><ele>345.0</ele><time>2026-04-18T13:57:31.014Z</time></trkpt><trkpt lat="43.46921283333333" lon="10.630562833333334"><ele>347.0</ele><time>2026-04-18T13:57:32.023Z</time></trkpt><trkpt lat="43.46923466666667" lon="10.630427833333332"><ele>349.0</ele><time>2026-04-18T13:57:32.981Z</time></trkpt><trkpt lat="43.46928983333334" lon="10.630316"><ele>351.0</ele><time>2026-04-18T13:57:33.972Z</time></trkpt><trkpt lat="43.46935866666666" lon="10.630224333333336"><ele>353.0</ele><time>2026-04-18T13:57:35.004Z</time></trkpt><trkpt lat="43.46941916666666" lon="10.630122666666667"><ele>355.0</ele><time>2026-04-18T13:57:35.979Z</time></trkpt><trkpt lat="43.469463666666655" lon="10.630004333333334"><ele>357.0</ele><time>2026-04-18T13:57:36.975Z</time></trkpt><trkpt lat="43.46948933333333" lon="10.629876166666667"><ele>359.0</ele><time>2026-04-18T13:57:37.962Z</time></trkpt><trkpt lat="43.46949366666666" lon="10.629756833333332"><ele>359.0</ele><time>2026-04-18T13:57:38.971Z</time></trkpt><trkpt lat="43.469474999999996" lon="10.629663833333334"><ele>359.0</ele><time>2026-04-18T13:57:40.015Z</time></trkpt><trkpt lat="43.46944971741289" lon="10.629583493772447"><ele>359.0</ele><time>2026-04-18T13:57:40.97Z</time></trkpt><trkpt lat="43.4693942555386" lon="10.629541865116861"><ele>359.0</ele><time>2026-04-18T13:57:41.983Z</time></trkpt><trkpt lat="43.469329178355736" lon="10.629523859483069"><ele>359.0</ele><time>2026-04-18T13:57:42.994Z</time></trkpt><trkpt lat="43.46925412700089" lon="10.629527681272307"><ele>359.0</ele><time>2026-04-18T13:57:44.007Z</time></trkpt><trkpt lat="43.469184785718305" lon="10.629576673635205"><ele>359.0</ele><time>2026-04-18T13:57:44.972Z</time></trkpt><trkpt lat="43.46912708896886" lon="10.629636126199403"><ele>359.0</ele><time>2026-04-18T13:57:45.976Z</time></trkpt><trkpt lat="43.46906583528951" lon="10.629699081556124"><ele>359.0</ele><time>2026-04-18T13:57:46.987Z</time></trkpt><trkpt lat="43.468999944363354" lon="10.629758765732733"><ele>359.0</ele><time>2026-04-18T13:57:47.998Z</time></trkpt><trkpt lat="43.468923692566825" lon="10.62981542929554"><ele>359.0</ele><time>2026-04-18T13:57:48.987Z</time></trkpt><trkpt lat="43.468841206797556" lon="10.629875741792965"><ele>359.0</ele><time>2026-04-18T13:57:49.972Z</time></trkpt><trkpt lat="43.46875601387777" lon="10.629953857189102"><ele>359.0</ele><time>2026-04-18T13:57:50.985Z</time></trkpt><trkpt lat="43.46864323963957" lon="10.63011797376405"><ele>360.25</ele><time>2026-04-18T13:57:52.975Z</time></trkpt><trkpt lat="43.46855883787962" lon="10.630338386041178"><ele>361.5</ele><time>2026-04-18T13:57:53.975Z</time></trkpt><trkpt lat="43.46851934589323" lon="10.630497802426076"><ele>362.75</ele><time>2026-04-18T13:57:54.975Z</time></trkpt><trkpt lat="43.46848627827735" lon="10.630660840739084"><ele>364.0</ele><time>2026-04-18T13:57:55.982Z</time></trkpt><trkpt lat="43.468453539745546" lon="10.630823794815655"><ele>364.0</ele><time>2026-04-18T13:57:56.966Z</time></trkpt><trkpt lat="43.468425833333335" lon="10.630983833333335"><ele>364.0</ele><time>2026-04-18T13:57:57.982Z</time></trkpt><trkpt lat="43.46836316666666" lon="10.631115333333332"><ele>364.0</ele><time>2026-04-18T13:57:58.97Z</time></trkpt><trkpt lat="43.46828133333334" lon="10.631209666666667"><ele>364.0</ele><time>2026-04-18T13:57:59.979Z</time></trkpt><trkpt lat="43.468094666666666" lon="10.631239833333332"><ele>364.25</ele><time>2026-04-18T13:58:01.978Z</time></trkpt><trkpt lat="43.46799666666667" lon="10.631194833333332"><ele>364.5</ele><time>2026-04-18T13:58:02.973Z</time></trkpt><trkpt lat="43.46789637489748" lon="10.63111390971144"><ele>364.75</ele><time>2026-04-18T13:58:03.98Z</time></trkpt><trkpt lat="43.467781262344644" lon="10.631049325009444"><ele>365.0</ele><time>2026-04-18T13:58:04.999Z</time></trkpt><trkpt lat="43.46765534832592" lon="10.630993094458814"><ele>365.0</ele><time>2026-04-18T13:58:05.974Z</time></trkpt><trkpt lat="43.467528371235794" lon="10.630938632051446"><ele>365.0</ele><time>2026-04-18T13:58:07.059Z</time></trkpt><trkpt lat="43.46740359389408" lon="10.63088028449206"><ele>365.0</ele><time>2026-04-18T13:58:07.976Z</time></trkpt><trkpt lat="43.4672828194508" lon="10.630815764948597"><ele>365.0</ele><time>2026-04-18T13:58:08.991Z</time></trkpt><trkpt lat="43.46715781634982" lon="10.630761677746621"><ele>364.75</ele><time>2026-04-18T13:58:09.967Z</time></trkpt><trkpt lat="43.46702542128625" lon="10.63075049988684"><ele>364.5</ele><time>2026-04-18T13:58:10.978Z</time></trkpt><trkpt lat="43.466891095665744" lon="10.63077651670927"><ele>364.25</ele><time>2026-04-18T13:58:11.991Z</time></trkpt><trkpt lat="43.466760102788065" lon="10.630827069491685"><ele>364.0</ele><time>2026-04-18T13:58:12.987Z</time></trkpt><trkpt lat="43.466634101510714" lon="10.630880863568489"><ele>364.0</ele><time>2026-04-18T13:58:13.978Z</time></trkpt><trkpt lat="43.466514133782844" lon="10.630924014487256"><ele>364.0</ele><time>2026-04-18T13:58:14.983Z</time></trkpt><trkpt lat="43.46634266666667" lon="10.630945666666667"><ele>364.0</ele><time>2026-04-18T13:58:16.983Z</time></trkpt><trkpt lat="43.46623783333333" lon="10.6308955"><ele>364.0</ele><time>2026-04-18T13:58:18.01Z</time></trkpt><trkpt lat="43.4661465" lon="10.630825"><ele>363.75</ele><time>2026-04-18T13:58:18.983Z</time></trkpt><trkpt lat="43.46605566666667" lon="10.630771666666666"><ele>363.5</ele><time>2026-04-18T13:58:19.973Z</time></trkpt><trkpt lat="43.46595716666667" lon="10.63074783333333"><ele>363.25</ele><time>2026-04-18T13:58:20.987Z</time></trkpt><trkpt lat="43.465790816182626" lon="10.630754358237072"><ele>363.0</ele><time>2026-04-18T13:58:22.006Z</time></trkpt><trkpt lat="43.465619948155386" lon="10.63086053804404"><ele>363.0</ele><time>2026-04-18T13:58:23.971Z</time></trkpt><trkpt lat="43.46549773419644" lon="10.630934929179677"><ele>363.0</ele><time>2026-04-18T13:58:24.97Z</time></trkpt><trkpt lat="43.465305066821905" lon="10.631043872288274"><ele>363.0</ele><time>2026-04-18T13:58:26.087Z</time></trkpt><trkpt lat="43.46517884298495" lon="10.631110858580838"><ele>362.0</ele><time>2026-04-18T13:58:26.974Z</time></trkpt><trkpt lat="43.46506436642618" lon="10.631172058030774"><ele>361.0</ele><time>2026-04-18T13:58:27.97Z</time></trkpt><trkpt lat="43.46483303503244" lon="10.631227611847947"><ele>360.0</ele><time>2026-04-18T13:58:31.021Z</time></trkpt><trkpt lat="43.46476098397666" lon="10.631212596326284"><ele>359.0</ele><time>2026-04-18T13:58:31.978Z</time></trkpt><trkpt lat="43.46466064703353" lon="10.63116017875959"><ele>355.25</ele><time>2026-04-18T13:58:33.976Z</time></trkpt><trkpt lat="43.46457638262123" lon="10.631103707929748"><ele>351.5</ele><time>2026-04-18T13:58:35.986Z</time></trkpt><trkpt lat="43.46445980613885" lon="10.631021373677823"><ele>347.75</ele><time>2026-04-18T13:58:37.971Z</time></trkpt><trkpt lat="43.46439165524407" lon="10.630976292855655"><ele>344.0</ele><time>2026-04-18T13:58:39.196Z</time></trkpt><trkpt lat="43.46424415249215" lon="10.630890285940081"><ele>344.0</ele><time>2026-04-18T13:58:40.975Z</time></trkpt><trkpt lat="43.46416386675503" lon="10.630855716718646"><ele>344.0</ele><time>2026-04-18T13:58:41.979Z</time></trkpt><trkpt lat="43.46407666423326" lon="10.630834970014769"><ele>344.0</ele><time>2026-04-18T13:58:42.983Z</time></trkpt><trkpt lat="43.463989379505364" lon="10.630835525385022"><ele>344.0</ele><time>2026-04-18T13:58:44Z</time></trkpt><trkpt lat="43.46386494294733" lon="10.630854340381381"><ele>344.0</ele><time>2026-04-18T13:58:44.981Z</time></trkpt><trkpt lat="43.46372848553186" lon="10.630905897615671"><ele>342.33333333333337</ele><time>2026-04-18T13:58:46.988Z</time></trkpt><trkpt lat="43.46366085790726" lon="10.630953472993667"><ele>340.6666666666667</ele><time>2026-04-18T13:58:47.991Z</time></trkpt><trkpt lat="43.463605425515475" lon="10.631031599149692"><ele>339.0</ele><time>2026-04-18T13:58:48.972Z</time></trkpt><trkpt lat="43.46356447864307" lon="10.631115687112"><ele>337.3333333333333</ele><time>2026-04-18T13:58:49.975Z</time></trkpt><trkpt lat="43.46353289150958" lon="10.631214518261979"><ele>335.66666666666663</ele><time>2026-04-18T13:58:50.988Z</time></trkpt><trkpt lat="43.4635080669331" lon="10.631313244758783"><ele>334.0</ele><time>2026-04-18T13:58:51.999Z</time></trkpt><trkpt lat="43.46348436640823" lon="10.631410354870704"><ele>334.0</ele><time>2026-04-18T13:58:52.973Z</time></trkpt><trkpt lat="43.46346134737803" lon="10.631505081643766"><ele>334.0</ele><time>2026-04-18T13:58:53.976Z</time></trkpt><trkpt lat="43.46343812469683" lon="10.631600646307476"><ele>334.0</ele><time>2026-04-18T13:58:54.979Z</time></trkpt><trkpt lat="43.46341321498432" lon="10.631703153253472"><ele>334.0</ele><time>2026-04-18T13:58:55.99Z</time></trkpt><trkpt lat="43.46338665784714" lon="10.63181243997998"><ele>334.0</ele><time>2026-04-18T13:58:57.025Z</time></trkpt><trkpt lat="43.46334654695955" lon="10.631979301315683"><ele>334.0</ele><time>2026-04-18T13:58:58.972Z</time></trkpt><trkpt lat="43.463307233248685" lon="10.632143476839708"><ele>333.5</ele><time>2026-04-18T13:58:59.98Z</time></trkpt><trkpt lat="43.46328277060691" lon="10.63224563375022"><ele>333.0</ele><time>2026-04-18T13:59:00.993Z</time></trkpt><trkpt lat="43.46326076289415" lon="10.632337538833427"><ele>332.5</ele><time>2026-04-18T13:59:01.98Z</time></trkpt><trkpt lat="43.463228940711645" lon="10.632446704555258"><ele>332.0</ele><time>2026-04-18T13:59:03.98Z</time></trkpt><trkpt lat="43.46317031605046" lon="10.632534950848251"><ele>331.5</ele><time>2026-04-18T13:59:05.98Z</time></trkpt><trkpt lat="43.463092499999995" lon="10.632540166666669"><ele>331.0</ele><time>2026-04-18T13:59:07.984Z</time></trkpt><trkpt lat="43.463048666666666" lon="10.632423333333334"><ele>331.0</ele><time>2026-04-18T13:59:09.976Z</time></trkpt><trkpt lat="43.4630235" lon="10.632312833333332"><ele>331.0</ele><time>2026-04-18T13:59:13.973Z</time></trkpt><trkpt lat="43.463001000000006" lon="10.632225166666666"><ele>331.0</ele><time>2026-04-18T13:59:15.976Z</time></trkpt><trkpt lat="43.4629805" lon="10.632073333333336"><ele>331.0</ele><time>2026-04-18T13:59:18.012Z</time></trkpt><trkpt lat="43.46297383333334" lon="10.631978833333335"><ele>331.0</ele><time>2026-04-18T13:59:18.972Z</time></trkpt><trkpt lat="43.46296783333334" lon="10.631879166666666"><ele>331.0</ele><time>2026-04-18T13:59:19.984Z</time></trkpt><trkpt lat="43.4629625" lon="10.631778"><ele>330.8333333333333</ele><time>2026-04-18T13:59:20.982Z</time></trkpt><trkpt lat="43.4629585" lon="10.631679499999999"><ele>330.66666666666663</ele><time>2026-04-18T13:59:22.015Z</time></trkpt><trkpt lat="43.46295683333332" lon="10.631589166666666"><ele>330.5</ele><time>2026-04-18T13:59:23.028Z</time></trkpt><trkpt lat="43.46296181408949" lon="10.631455572091143"><ele>330.3333333333333</ele><time>2026-04-18T13:59:24.986Z</time></trkpt><trkpt lat="43.462958279176576" lon="10.631348248633575"><ele>330.1666666666667</ele><time>2026-04-18T13:59:27.978Z</time></trkpt><trkpt lat="43.46295471855123" lon="10.631240144514543"><ele>330.0</ele><time>2026-04-18T13:59:31.972Z</time></trkpt><trkpt lat="43.46295060363169" lon="10.6311152115343"><ele>326.0</ele><time>2026-04-18T13:59:33.992Z</time></trkpt><trkpt lat="43.46294678775386" lon="10.630944142194753"><ele>322.0</ele><time>2026-04-18T13:59:35.983Z</time></trkpt><trkpt lat="43.46294457440529" lon="10.630838170279985"><ele>318.0</ele><time>2026-04-18T13:59:36.977Z</time></trkpt><trkpt lat="43.462942184762646" lon="10.630723757800734"><ele>314.0</ele><time>2026-04-18T13:59:37.992Z</time></trkpt><trkpt lat="43.46292316666666" lon="10.6306045"><ele>310.0</ele><time>2026-04-18T13:59:39.005Z</time></trkpt><trkpt lat="43.4629235" lon="10.630480833333335"><ele>310.0</ele><time>2026-04-18T13:59:40.005Z</time></trkpt><trkpt lat="43.4629435307736" lon="10.630355867495826"><ele>310.0</ele><time>2026-04-18T13:59:40.984Z</time></trkpt><trkpt lat="43.46294752634436" lon="10.630229383198387"><ele>310.0</ele><time>2026-04-18T13:59:41.979Z</time></trkpt><trkpt lat="43.4629365" lon="10.630104333333335"><ele>310.0</ele><time>2026-04-18T13:59:42.988Z</time></trkpt><trkpt lat="43.462942166666664" lon="10.629984166666668"><ele>310.0</ele><time>2026-04-18T13:59:43.977Z</time></trkpt><trkpt lat="43.46294816666667" lon="10.629871833333333"><ele>310.0</ele><time>2026-04-18T13:59:44.993Z</time></trkpt><trkpt lat="43.46295283333334" lon="10.629769666666668"><ele>310.2</ele><time>2026-04-18T13:59:45.979Z</time></trkpt><trkpt lat="43.46295700000001" lon="10.629681833333333"><ele>310.4</ele><time>2026-04-18T13:59:46.992Z</time></trkpt><trkpt lat="43.46295866666666" lon="10.629566333333333"><ele>310.6</ele><time>2026-04-18T13:59:48.98Z</time></trkpt><trkpt lat="43.4629235" lon="10.629491166666666"><ele>310.8</ele><time>2026-04-18T13:59:50.996Z</time></trkpt><trkpt lat="43.46296497273289" lon="10.629583920609345"><ele>311.0</ele><time>2026-04-18T14:00:10.976Z</time></trkpt><trkpt lat="43.462698841580064" lon="10.629543577709766"><ele>311.0</ele><time>2026-04-18T14:00:13.988Z</time></trkpt><trkpt lat="43.46266392411201" lon="10.629619412052204"><ele>311.0</ele><time>2026-04-18T14:00:14.973Z</time></trkpt><trkpt lat="43.46260851156765" lon="10.629757591234592"><ele>311.0</ele><time>2026-04-18T14:00:16.992Z</time></trkpt><trkpt lat="43.46254632225121" lon="10.629912668558715"><ele>311.0</ele><time>2026-04-18T14:00:18.981Z</time></trkpt><trkpt lat="43.46252310450359" lon="10.630003718681023"><ele>311.0</ele><time>2026-04-18T14:00:19.977Z</time></trkpt><trkpt lat="43.46249832386008" lon="10.630104250075789"><ele>311.0</ele><time>2026-04-18T14:00:20.993Z</time></trkpt><trkpt lat="43.46247183998246" lon="10.630215600928773"><ele>311.0</ele><time>2026-04-18T14:00:22.008Z</time></trkpt><trkpt lat="43.46244909343279" lon="10.630323312228569"><ele>311.0</ele><time>2026-04-18T14:00:22.972Z</time></trkpt><trkpt lat="43.46291783333332" lon="10.630894166666666"><ele>310.75</ele><time>2026-04-18T14:00:24.981Z</time></trkpt><trkpt lat="43.462922500000005" lon="10.631120666666668"><ele>310.5</ele><time>2026-04-18T14:00:25.996Z</time></trkpt><trkpt lat="43.462925666666656" lon="10.631279833333334"><ele>310.25</ele><time>2026-04-18T14:00:26.992Z</time></trkpt><trkpt lat="43.46293633333333" lon="10.631508"><ele>310.0</ele><time>2026-04-18T14:00:28.976Z</time></trkpt><trkpt lat="43.462945000000005" lon="10.631655999999998"><ele>314.2</ele><time>2026-04-18T14:00:29.977Z</time></trkpt><trkpt lat="43.46295166666667" lon="10.63181"><ele>318.4</ele><time>2026-04-18T14:00:30.972Z</time></trkpt><trkpt lat="43.46295933333334" lon="10.631966666666665"><ele>322.6</ele><time>2026-04-18T14:00:31.982Z</time></trkpt><trkpt lat="43.46297183333333" lon="10.632116833333336"><ele>326.8</ele><time>2026-04-18T14:00:33.06Z</time></trkpt><trkpt lat="43.462989666666665" lon="10.632254333333332"><ele>331.0</ele><time>2026-04-18T14:00:34Z</time></trkpt><trkpt lat="43.46301016666666" lon="10.6323755"><ele>331.0</ele><time>2026-04-18T14:00:34.974Z</time></trkpt><trkpt lat="43.463041000000004" lon="10.632474166666668"><ele>331.0</ele><time>2026-04-18T14:00:35.973Z</time></trkpt><trkpt lat="43.46311233333333" lon="10.632557833333331"><ele>331.0</ele><time>2026-04-18T14:00:36.975Z</time></trkpt><trkpt lat="43.46319533333334" lon="10.632537166666667"><ele>331.0</ele><time>2026-04-18T14:00:39.012Z</time></trkpt><trkpt lat="43.46325566666666" lon="10.63241833333333"><ele>331.0</ele><time>2026-04-18T14:00:39.97Z</time></trkpt><trkpt lat="43.46328449999999" lon="10.632306833333333"><ele>331.0</ele><time>2026-04-18T14:00:40.989Z</time></trkpt><trkpt lat="43.46333133333333" lon="10.632114166666668"><ele>331.75</ele><time>2026-04-18T14:00:42.992Z</time></trkpt><trkpt lat="43.46336633333333" lon="10.631971500000002"><ele>332.5</ele><time>2026-04-18T14:00:43.983Z</time></trkpt><trkpt lat="43.463403333333325" lon="10.631820333333334"><ele>333.25</ele><time>2026-04-18T14:00:44.974Z</time></trkpt><trkpt lat="43.463443000000005" lon="10.631660833333335"><ele>334.0</ele><time>2026-04-18T14:00:45.984Z</time></trkpt><trkpt lat="43.463484833333325" lon="10.6314935"><ele>334.0</ele><time>2026-04-18T14:00:46.994Z</time></trkpt><trkpt lat="43.46352933333333" lon="10.6313285"><ele>334.0</ele><time>2026-04-18T14:00:47.977Z</time></trkpt><trkpt lat="43.46357833333333" lon="10.631180500000001"><ele>334.0</ele><time>2026-04-18T14:00:48.992Z</time></trkpt><trkpt lat="43.46363933333334" lon="10.631058333333332"><ele>334.0</ele><time>2026-04-18T14:00:49.982Z</time></trkpt><trkpt lat="43.463757" lon="10.630934166666668"><ele>336.0</ele><time>2026-04-18T14:00:50.993Z</time></trkpt><trkpt lat="43.4638525" lon="10.630892666666668"><ele>338.0</ele><time>2026-04-18T14:00:52.034Z</time></trkpt><trkpt lat="43.463958" lon="10.630876333333333"><ele>340.0</ele><time>2026-04-18T14:00:53.038Z</time></trkpt><trkpt lat="43.46406633333333" lon="10.630874166666668"><ele>342.0</ele><time>2026-04-18T14:00:53.981Z</time></trkpt><trkpt lat="43.46417866666667" lon="10.630895666666666"><ele>344.0</ele><time>2026-04-18T14:00:54.99Z</time></trkpt><trkpt lat="43.464293000000005" lon="10.6309455"><ele>344.0</ele><time>2026-04-18T14:00:56.008Z</time></trkpt><trkpt lat="43.46440599999999" lon="10.631017833333333"><ele>344.0</ele><time>2026-04-18T14:00:56.981Z</time></trkpt><trkpt lat="43.46451833333333" lon="10.631094333333333"><ele>344.0</ele><time>2026-04-18T14:00:57.98Z</time></trkpt><trkpt lat="43.46462483333333" lon="10.631164833333333"><ele>344.0</ele><time>2026-04-18T14:00:58.97Z</time></trkpt><trkpt lat="43.46471972693323" lon="10.631240891248881"><ele>345.79999999999995</ele><time>2026-04-18T14:00:59.986Z</time></trkpt><trkpt lat="43.46482516157138" lon="10.631272864438097"><ele>347.59999999999997</ele><time>2026-04-18T14:01:01.037Z</time></trkpt><trkpt lat="43.46493008905729" lon="10.631269111071504"><ele>349.4</ele><time>2026-04-18T14:01:01.976Z</time></trkpt><trkpt lat="43.46503250000001" lon="10.631222500000002"><ele>351.2</ele><time>2026-04-18T14:01:02.994Z</time></trkpt><trkpt lat="43.465133333333334" lon="10.631174833333334"><ele>353.0</ele><time>2026-04-18T14:01:03.994Z</time></trkpt><trkpt lat="43.465232833333324" lon="10.631115833333336"><ele>353.0</ele><time>2026-04-18T14:01:04.977Z</time></trkpt><trkpt lat="43.4653375" lon="10.631055499999999"><ele>353.0</ele><time>2026-04-18T14:01:05.986Z</time></trkpt><trkpt lat="43.46544666666667" lon="10.630991666666667"><ele>353.0</ele><time>2026-04-18T14:01:06.976Z</time></trkpt><trkpt lat="43.46554916666667" lon="10.630931666666667"><ele>353.0</ele><time>2026-04-18T14:01:07.989Z</time></trkpt><trkpt lat="43.46564333333334" lon="10.630876"><ele>353.0</ele><time>2026-04-18T14:01:08.971Z</time></trkpt><trkpt lat="43.46577133333333" lon="10.630800833333334"><ele>354.6666666666667</ele><time>2026-04-18T14:01:10.977Z</time></trkpt><trkpt lat="43.46584733333334" lon="10.630768666666665"><ele>356.33333333333337</ele><time>2026-04-18T14:01:11.973Z</time></trkpt><trkpt lat="43.46591333333334" lon="10.6307525"><ele>358.0</ele><time>2026-04-18T14:01:12.988Z</time></trkpt><trkpt lat="43.46600916666666" lon="10.63074933333333"><ele>359.6666666666667</ele><time>2026-04-18T14:01:14.981Z</time></trkpt><trkpt lat="43.466078" lon="10.630661333333332"><ele>361.3333333333333</ele><time>2026-04-18T14:01:19.985Z</time></trkpt><trkpt lat="43.466048833333325" lon="10.630546"><ele>363.0</ele><time>2026-04-18T14:01:23.993Z</time></trkpt><trkpt lat="43.46604349999999" lon="10.630410166666666"><ele>363.4</ele><time>2026-04-18T14:01:26.979Z</time></trkpt><trkpt lat="43.466052499999996" lon="10.6302735"><ele>363.79999999999995</ele><time>2026-04-18T14:01:28.984Z</time></trkpt><trkpt lat="43.46606983333333" lon="10.630123666666668"><ele>364.2</ele><time>2026-04-18T14:01:30.972Z</time></trkpt><trkpt lat="43.466061999999994" lon="10.629964666666668"><ele>364.6</ele><time>2026-04-18T14:01:32.977Z</time></trkpt><trkpt lat="43.46602583333333" lon="10.629847833333333"><ele>365.0</ele><time>2026-04-18T14:01:34.006Z</time></trkpt><trkpt lat="43.4659915" lon="10.629771333333334"><ele>365.0</ele><time>2026-04-18T14:01:34.977Z</time></trkpt><trkpt lat="43.46589983333333" lon="10.629623666666664"><ele>365.0</ele><time>2026-04-18T14:01:36.972Z</time></trkpt><trkpt lat="43.46585033333334" lon="10.629547833333334"><ele>365.0</ele><time>2026-04-18T14:01:37.988Z</time></trkpt><trkpt lat="43.465812301329755" lon="10.62945573383753"><ele>365.0</ele><time>2026-04-18T14:01:39.015Z</time></trkpt><trkpt lat="43.46574933333333" lon="10.629394166666668"><ele>365.0</ele><time>2026-04-18T14:01:39.986Z</time></trkpt><trkpt lat="43.465697166666665" lon="10.629317666666667"><ele>365.0</ele><time>2026-04-18T14:01:40.97Z</time></trkpt><trkpt lat="43.46565314227998" lon="10.629224690427172"><ele>364.0</ele><time>2026-04-18T14:01:42.095Z</time></trkpt><trkpt lat="43.46559170827715" lon="10.62915582834207"><ele>363.0</ele><time>2026-04-18T14:01:43.01Z</time></trkpt><trkpt lat="43.46552039215563" lon="10.62910123723885"><ele>362.0</ele><time>2026-04-18T14:01:43.976Z</time></trkpt><trkpt lat="43.465445333333335" lon="10.629069333333332"><ele>361.0</ele><time>2026-04-18T14:01:44.977Z</time></trkpt><trkpt lat="43.46538133333333" lon="10.629005500000002"><ele>360.0</ele><time>2026-04-18T14:01:45.976Z</time></trkpt><trkpt lat="43.465336710889225" lon="10.62891270223608"><ele>359.0</ele><time>2026-04-18T14:01:47.003Z</time></trkpt><trkpt lat="43.46525476261256" lon="10.628785962671943"><ele>359.0</ele><time>2026-04-18T14:01:48.987Z</time></trkpt><trkpt lat="43.46517284482234" lon="10.628653943579979"><ele>359.0</ele><time>2026-04-18T14:01:49.974Z</time></trkpt><trkpt lat="43.46512380679627" lon="10.628562852119762"><ele>359.0</ele><time>2026-04-18T14:01:51.008Z</time></trkpt><trkpt lat="43.46508153919288" lon="10.6284708411388"><ele>359.0</ele><time>2026-04-18T14:01:51.981Z</time></trkpt><trkpt lat="43.46504016666666" lon="10.628386666666666"><ele>359.0</ele><time>2026-04-18T14:01:52.977Z</time></trkpt><trkpt lat="43.465047333333324" lon="10.62824316666667"><ele>360.33333333333337</ele><time>2026-04-18T14:01:54.981Z</time></trkpt><trkpt lat="43.465077833333325" lon="10.628155833333334"><ele>361.6666666666667</ele><time>2026-04-18T14:01:55.993Z</time></trkpt><trkpt lat="43.4651175" lon="10.628073666666667"><ele>363.0</ele><time>2026-04-18T14:01:56.986Z</time></trkpt><trkpt lat="43.465183333333336" lon="10.6279415"><ele>364.3333333333333</ele><time>2026-04-18T14:01:57.981Z</time></trkpt><trkpt lat="43.465229833333325" lon="10.627850333333333"><ele>365.66666666666663</ele><time>2026-04-18T14:01:58.973Z</time></trkpt><trkpt lat="43.465278999999995" lon="10.627761999999999"><ele>367.0</ele><time>2026-04-18T14:02:00.002Z</time></trkpt><trkpt lat="43.465387" lon="10.6276025"><ele>367.8</ele><time>2026-04-18T14:02:01.969Z</time></trkpt><trkpt lat="43.46543933333334" lon="10.627535833333331"><ele>368.6</ele><time>2026-04-18T14:02:02.976Z</time></trkpt><trkpt lat="43.46551066666666" lon="10.6274075"><ele>369.40000000000003</ele><time>2026-04-18T14:02:04.978Z</time></trkpt><trkpt lat="43.46555605041519" lon="10.627338333333334"><ele>370.20000000000005</ele><time>2026-04-18T14:02:05.973Z</time></trkpt><trkpt lat="43.46552561418715" lon="10.62717793421904"><ele>371.0</ele><time>2026-04-18T14:02:08.005Z</time></trkpt><trkpt lat="43.46545429753609" lon="10.627134456771854"><ele>371.0</ele><time>2026-04-18T14:02:08.978Z</time></trkpt><trkpt lat="43.465336474068906" lon="10.627085245724583"><ele>371.0</ele><time>2026-04-18T14:02:10.983Z</time></trkpt><trkpt lat="43.46527027049108" lon="10.627069400047613"><ele>371.0</ele><time>2026-04-18T14:02:11.998Z</time></trkpt><trkpt lat="43.46520066444164" lon="10.627055162379662"><ele>371.0</ele><time>2026-04-18T14:02:13.022Z</time></trkpt><trkpt lat="43.46513769525029" lon="10.627042984557836"><ele>371.0</ele><time>2026-04-18T14:02:13.993Z</time></trkpt><trkpt lat="43.46501983615205" lon="10.627018768869533"><ele>371.0</ele><time>2026-04-18T14:02:15.993Z</time></trkpt><trkpt lat="43.46490136497015" lon="10.626995369855846"><ele>368.75</ele><time>2026-04-18T14:02:17.973Z</time></trkpt><trkpt lat="43.46478878944531" lon="10.626970149929326"><ele>366.5</ele><time>2026-04-18T14:02:19.99Z</time></trkpt><trkpt lat="43.46467466666666" lon="10.626931000000003"><ele>364.25</ele><time>2026-04-18T14:02:22.025Z</time></trkpt><trkpt lat="43.464586" lon="10.626840499999998"><ele>362.0</ele><time>2026-04-18T14:02:23.973Z</time></trkpt><trkpt lat="43.464508333333335" lon="10.626734833333334"><ele>362.0</ele><time>2026-04-18T14:02:25.974Z</time></trkpt><trkpt lat="43.4644630036253" lon="10.626597995477718"><ele>362.0</ele><time>2026-04-18T14:02:27.974Z</time></trkpt><trkpt lat="43.4644392587668" lon="10.626483485556598"><ele>362.0</ele><time>2026-04-18T14:02:29.997Z</time></trkpt><trkpt lat="43.46442062339397" lon="10.626305834431436"><ele>362.0</ele><time>2026-04-18T14:02:31.978Z</time></trkpt><trkpt lat="43.46440066666667" lon="10.626206500000002"><ele>362.0</ele><time>2026-04-18T14:02:32.984Z</time></trkpt><trkpt lat="43.4644075" lon="10.6261"><ele>363.0</ele><time>2026-04-18T14:02:34.017Z</time></trkpt><trkpt lat="43.46444683333334" lon="10.625944333333333"><ele>364.0</ele><time>2026-04-18T14:02:34.973Z</time></trkpt><trkpt lat="43.46455718061994" lon="10.625774710423222"><ele>365.0</ele><time>2026-04-18T14:02:36.978Z</time></trkpt><trkpt lat="43.464599833333324" lon="10.625672833333331"><ele>366.0</ele><time>2026-04-18T14:02:38.01Z</time></trkpt><trkpt lat="43.464682833333335" lon="10.625549999999999"><ele>371.1666666666667</ele><time>2026-04-18T14:02:39.986Z</time></trkpt><trkpt lat="43.464740166666665" lon="10.625415666666667"><ele>376.33333333333337</ele><time>2026-04-18T14:02:40.987Z</time></trkpt><trkpt lat="43.46477299710824" lon="10.625310772985948"><ele>381.5</ele><time>2026-04-18T14:02:41.998Z</time></trkpt><trkpt lat="43.46475960103659" lon="10.62520039228488"><ele>386.6666666666667</ele><time>2026-04-18T14:02:42.969Z</time></trkpt><trkpt lat="43.464739830871224" lon="10.625092515927323"><ele>391.83333333333337</ele><time>2026-04-18T14:02:43.993Z</time></trkpt><trkpt lat="43.46471933333334" lon="10.624990666666667"><ele>397.0</ele><time>2026-04-18T14:02:44.982Z</time></trkpt><trkpt lat="43.46477783333333" lon="10.624838666666667"><ele>397.0</ele><time>2026-04-18T14:02:47.005Z</time></trkpt><trkpt lat="43.46483883333333" lon="10.624746666666665"><ele>397.0</ele><time>2026-04-18T14:02:47.982Z</time></trkpt><trkpt lat="43.464903500000005" lon="10.624654833333334"><ele>397.0</ele><time>2026-04-18T14:02:48.978Z</time></trkpt><trkpt lat="43.465001666666666" lon="10.624518499999999"><ele>397.0</ele><time>2026-04-18T14:02:49.975Z</time></trkpt><trkpt lat="43.46506183333333" lon="10.624427333333331"><ele>397.0</ele><time>2026-04-18T14:02:51.014Z</time></trkpt><trkpt lat="43.465117666666664" lon="10.624334666666668"><ele>393.75</ele><time>2026-04-18T14:02:51.987Z</time></trkpt><trkpt lat="43.46517833333334" lon="10.624173833333334"><ele>390.5</ele><time>2026-04-18T14:02:53.982Z</time></trkpt><trkpt lat="43.465234166666676" lon="10.624004500000002"><ele>387.25</ele><time>2026-04-18T14:02:55.018Z</time></trkpt><trkpt lat="43.465341824365034" lon="10.623811201661189"><ele>384.0</ele><time>2026-04-18T14:02:56.982Z</time></trkpt><trkpt lat="43.46538533333334" lon="10.623698999999998"><ele>387.2</ele><time>2026-04-18T14:02:57.974Z</time></trkpt><trkpt lat="43.46544733333334" lon="10.6236"><ele>390.4</ele><time>2026-04-18T14:02:58.981Z</time></trkpt><trkpt lat="43.465498666666655" lon="10.623492166666663"><ele>393.6</ele><time>2026-04-18T14:02:59.998Z</time></trkpt><trkpt lat="43.465542333333325" lon="10.623379666666665"><ele>396.8</ele><time>2026-04-18T14:03:00.974Z</time></trkpt><trkpt lat="43.465585499999996" lon="10.623266833333332"><ele>400.0</ele><time>2026-04-18T14:03:01.969Z</time></trkpt><trkpt lat="43.46563833333333" lon="10.623173166666666"><ele>400.00000000000006</ele><time>2026-04-18T14:03:02.983Z</time></trkpt><trkpt lat="43.465691" lon="10.623100166666665"><ele>400.0</ele><time>2026-04-18T14:03:03.986Z</time></trkpt><trkpt lat="43.465749499999994" lon="10.623054166666668"><ele>400.0</ele><time>2026-04-18T14:03:04.974Z</time></trkpt><trkpt lat="43.4658885" lon="10.623003500000001"><ele>400.0</ele><time>2026-04-18T14:03:06.977Z</time></trkpt><trkpt lat="43.465962166666664" lon="10.622982833333333"><ele>400.00000000000006</ele><time>2026-04-18T14:03:08.006Z</time></trkpt><trkpt lat="43.466033" lon="10.622966166666668"><ele>400.0</ele><time>2026-04-18T14:03:08.983Z</time></trkpt><trkpt lat="43.466175166666666" lon="10.622911833333335"><ele>400.0</ele><time>2026-04-18T14:03:10.977Z</time></trkpt><trkpt lat="43.46624116666667" lon="10.6228565"><ele>400.0</ele><time>2026-04-18T14:03:12.002Z</time></trkpt><trkpt lat="43.46630533333333" lon="10.622791500000002"><ele>400.0</ele><time>2026-04-18T14:03:13.003Z</time></trkpt><trkpt lat="43.46639933333333" lon="10.622681833333337"><ele>400.0</ele><time>2026-04-18T14:03:14.981Z</time></trkpt><trkpt lat="43.466454108110355" lon="10.62254327837475"><ele>400.0</ele><time>2026-04-18T14:03:16.001Z</time></trkpt><trkpt lat="43.46647250978769" lon="10.6224492765414"><ele>400.50000000000006</ele><time>2026-04-18T14:03:16.995Z</time></trkpt><trkpt lat="43.466485" lon="10.6223445"><ele>401.0</ele><time>2026-04-18T14:03:17.985Z</time></trkpt><trkpt lat="43.46647616666667" lon="10.622232666666665"><ele>401.5</ele><time>2026-04-18T14:03:18.969Z</time></trkpt><trkpt lat="43.46647916666667" lon="10.622112833333333"><ele>402.0</ele><time>2026-04-18T14:03:19.985Z</time></trkpt><trkpt lat="43.46649300000001" lon="10.621991833333334"><ele>402.50000000000006</ele><time>2026-04-18T14:03:21.003Z</time></trkpt><trkpt lat="43.466511499999996" lon="10.621876"><ele>403.0</ele><time>2026-04-18T14:03:21.982Z</time></trkpt><trkpt lat="43.466528251073605" lon="10.621702416405673"><ele>403.0</ele><time>2026-04-18T14:03:23.987Z</time></trkpt><trkpt lat="43.46657797321519" lon="10.62154769625206"><ele>403.0</ele><time>2026-04-18T14:03:25.003Z</time></trkpt><trkpt lat="43.46662528996112" lon="10.621477742071143"><ele>403.0</ele><time>2026-04-18T14:03:25.978Z</time></trkpt><trkpt lat="43.466669830808115" lon="10.621413330193475"><ele>403.0</ele><time>2026-04-18T14:03:26.984Z</time></trkpt><trkpt lat="43.46671754858543" lon="10.621343302483655"><ele>403.0</ele><time>2026-04-18T14:03:27.978Z</time></trkpt><trkpt lat="43.46680981832101" lon="10.62122286177242"><ele>403.00000000000006</ele><time>2026-04-18T14:03:30.03Z</time></trkpt><trkpt lat="43.46688866492081" lon="10.621159379806748"><ele>403.0</ele><time>2026-04-18T14:03:31.983Z</time></trkpt><trkpt lat="43.46690748158675" lon="10.621069155046825"><ele>403.0</ele><time>2026-04-18T14:03:32.981Z</time></trkpt><trkpt lat="43.466921560177454" lon="10.62098372596372"><ele>403.0</ele><time>2026-04-18T14:03:34.209Z</time></trkpt><trkpt lat="43.46689816666667" lon="10.6208005"><ele>403.00000000000006</ele><time>2026-04-18T14:03:35.977Z</time></trkpt><trkpt lat="43.46684216666666" lon="10.620716833333331"><ele>403.0</ele><time>2026-04-18T14:03:36.986Z</time></trkpt><trkpt lat="43.46678516666666" lon="10.620631833333334"><ele>403.59999999999997</ele><time>2026-04-18T14:03:38.008Z</time></trkpt><trkpt lat="43.466690166666666" lon="10.620459666666665"><ele>404.2</ele><time>2026-04-18T14:03:39.976Z</time></trkpt><trkpt lat="43.466662" lon="10.620362"><ele>404.8</ele><time>2026-04-18T14:03:40.988Z</time></trkpt><trkpt lat="43.46665916666667" lon="10.620254333333332"><ele>405.4</ele><time>2026-04-18T14:03:42.002Z</time></trkpt><trkpt lat="43.466671" lon="10.620143833333334"><ele>406.0</ele><time>2026-04-18T14:03:42.97Z</time></trkpt><trkpt lat="43.466684666666666" lon="10.620033999999999"><ele>406.00000000000006</ele><time>2026-04-18T14:03:43.984Z</time></trkpt><trkpt lat="43.466698" lon="10.619927166666665"><ele>406.0</ele><time>2026-04-18T14:03:44.975Z</time></trkpt><trkpt lat="43.466709666666674" lon="10.6198235"><ele>406.0</ele><time>2026-04-18T14:03:45.991Z</time></trkpt><trkpt lat="43.466719" lon="10.619722500000002"><ele>406.0</ele><time>2026-04-18T14:03:46.984Z</time></trkpt><trkpt lat="43.466723" lon="10.619620166666667"><ele>406.00000000000006</ele><time>2026-04-18T14:03:47.974Z</time></trkpt><trkpt lat="43.46672133333333" lon="10.619515166666666"><ele>406.0</ele><time>2026-04-18T14:03:48.979Z</time></trkpt><trkpt lat="43.4667095" lon="10.619406"><ele>407.20000000000005</ele><time>2026-04-18T14:03:49.99Z</time></trkpt><trkpt lat="43.466691833333336" lon="10.619295166666666"><ele>408.40000000000003</ele><time>2026-04-18T14:03:51.018Z</time></trkpt><trkpt lat="43.46667216666666" lon="10.6191265"><ele>409.6</ele><time>2026-04-18T14:03:52.977Z</time></trkpt><trkpt lat="43.46666983333333" lon="10.618957499999999"><ele>410.8</ele><time>2026-04-18T14:03:53.987Z</time></trkpt><trkpt lat="43.4666725" lon="10.618848166666664"><ele>412.0</ele><time>2026-04-18T14:03:55.003Z</time></trkpt><trkpt lat="43.46666883333334" lon="10.618744"><ele>414.1666666666667</ele><time>2026-04-18T14:03:55.986Z</time></trkpt><trkpt lat="43.46663916666666" lon="10.618645666666664"><ele>416.33333333333337</ele><time>2026-04-18T14:03:56.991Z</time></trkpt><trkpt lat="43.466587" lon="10.618560666666667"><ele>418.5</ele><time>2026-04-18T14:03:57.987Z</time></trkpt><trkpt lat="43.46655011273155" lon="10.618461945585803"><ele>420.66666666666663</ele><time>2026-04-18T14:03:58.991Z</time></trkpt><trkpt lat="43.46649475667757" lon="10.61838505013311"><ele>422.8333333333333</ele><time>2026-04-18T14:03:59.979Z</time></trkpt><trkpt lat="43.46644562612347" lon="10.618318533363006"><ele>425.0</ele><time>2026-04-18T14:04:00.982Z</time></trkpt><trkpt lat="43.46640461092111" lon="10.618234188024802"><ele>425.0</ele><time>2026-04-18T14:04:01.985Z</time></trkpt><trkpt lat="43.46636696232505" lon="10.618146010840002"><ele>425.0</ele><time>2026-04-18T14:04:02.991Z</time></trkpt><trkpt lat="43.466318234154706" lon="10.618062228519527"><ele>425.0</ele><time>2026-04-18T14:04:03.979Z</time></trkpt><trkpt lat="43.46627088055101" lon="10.617985476767883"><ele>425.0</ele><time>2026-04-18T14:04:04.984Z</time></trkpt><trkpt lat="43.46622677786038" lon="10.617906857940405"><ele>425.0</ele><time>2026-04-18T14:04:06.096Z</time></trkpt><trkpt lat="43.46619358280589" lon="10.617825347210852"><ele>425.0</ele><time>2026-04-18T14:04:06.987Z</time></trkpt><trkpt lat="43.46616602026251" lon="10.617737898555065"><ele>425.0</ele><time>2026-04-18T14:04:08.006Z</time></trkpt><trkpt lat="43.466135419754764" lon="10.617645138605102"><ele>423.16666666666663</ele><time>2026-04-18T14:04:08.97Z</time></trkpt><trkpt lat="43.46610366526041" lon="10.617554732490179"><ele>421.3333333333333</ele><time>2026-04-18T14:04:09.972Z</time></trkpt><trkpt lat="43.46606925714635" lon="10.617463000147795"><ele>419.5</ele><time>2026-04-18T14:04:10.974Z</time></trkpt><trkpt lat="43.46603427966867" lon="10.617369817545184"><ele>417.66666666666663</ele><time>2026-04-18T14:04:12Z</time></trkpt><trkpt lat="43.465997693319835" lon="10.617272348677094"><ele>415.8333333333333</ele><time>2026-04-18T14:04:12.981Z</time></trkpt><trkpt lat="43.46596134165453" lon="10.617173879902907"><ele>414.0</ele><time>2026-04-18T14:04:13.979Z</time></trkpt><trkpt lat="43.46592698480505" lon="10.617078989573383"><ele>414.0</ele><time>2026-04-18T14:04:14.978Z</time></trkpt><trkpt lat="43.465894437874255" lon="10.616986590193099"><ele>414.0</ele><time>2026-04-18T14:04:16.004Z</time></trkpt><trkpt lat="43.46586245505464" lon="10.616893461025661"><ele>414.0</ele><time>2026-04-18T14:04:16.983Z</time></trkpt><trkpt lat="43.46582985828826" lon="10.616793570965422"><ele>414.0</ele><time>2026-04-18T14:04:17.978Z</time></trkpt><trkpt lat="43.46579783427526" lon="10.61669371646228"><ele>414.0</ele><time>2026-04-18T14:04:18.98Z</time></trkpt><trkpt lat="43.465768678261995" lon="10.616595683199225"><ele>414.0</ele><time>2026-04-18T14:04:19.999Z</time></trkpt><trkpt lat="43.46573149999999" lon="10.616504333333333"><ele>417.0</ele><time>2026-04-18T14:04:21.023Z</time></trkpt><trkpt lat="43.46570650000001" lon="10.6163995"><ele>420.0</ele><time>2026-04-18T14:04:21.978Z</time></trkpt><trkpt lat="43.46569084730096" lon="10.616284960012752"><ele>423.0</ele><time>2026-04-18T14:04:22.975Z</time></trkpt><trkpt lat="43.46566441136547" lon="10.616176731480572"><ele>426.0</ele><time>2026-04-18T14:04:23.978Z</time></trkpt><trkpt lat="43.46563836415672" lon="10.616067096591012"><ele>429.0</ele><time>2026-04-18T14:04:25.016Z</time></trkpt><trkpt lat="43.46561299946867" lon="10.615957054928426"><ele>432.0</ele><time>2026-04-18T14:04:25.987Z</time></trkpt><trkpt lat="43.465594332855" lon="10.6158505498218"><ele>433.5</ele><time>2026-04-18T14:04:26.974Z</time></trkpt><trkpt lat="43.46558069360754" lon="10.615757855253277"><ele>435.0</ele><time>2026-04-18T14:04:27.981Z</time></trkpt><trkpt lat="43.46557066666666" lon="10.615655166666667"><ele>436.5</ele><time>2026-04-18T14:04:28.995Z</time></trkpt><trkpt lat="43.46561883333334" lon="10.615567833333335"><ele>438.0</ele><time>2026-04-18T14:04:29.97Z</time></trkpt><trkpt lat="43.465675" lon="10.615487"><ele>439.5</ele><time>2026-04-18T14:04:30.989Z</time></trkpt><trkpt lat="43.46572983333334" lon="10.615405166666669"><ele>441.0</ele><time>2026-04-18T14:04:31.995Z</time></trkpt><trkpt lat="43.46577366666667" lon="10.615312833333332"><ele>441.20000000000005</ele><time>2026-04-18T14:04:32.99Z</time></trkpt><trkpt lat="43.4658" lon="10.6152075"><ele>441.40000000000003</ele><time>2026-04-18T14:04:34Z</time></trkpt><trkpt lat="43.465806" lon="10.615095000000002"><ele>441.6</ele><time>2026-04-18T14:04:34.981Z</time></trkpt><trkpt lat="43.46581909542927" lon="10.61491706712285"><ele>441.8</ele><time>2026-04-18T14:04:36.987Z</time></trkpt><trkpt lat="43.46584320195778" lon="10.61475290599827"><ele>442.0</ele><time>2026-04-18T14:04:38.02Z</time></trkpt><trkpt lat="43.46585566666666" lon="10.614638833333334"><ele>442.00000000000006</ele><time>2026-04-18T14:04:38.99Z</time></trkpt><trkpt lat="43.4659035" lon="10.614541333333333"><ele>442.0</ele><time>2026-04-18T14:04:39.984Z</time></trkpt><trkpt lat="43.46595399999999" lon="10.6144455"><ele>442.0</ele><time>2026-04-18T14:04:40.999Z</time></trkpt><trkpt lat="43.46600566666666" lon="10.614347833333332"><ele>442.0</ele><time>2026-04-18T14:04:41.999Z</time></trkpt><trkpt lat="43.466053499999994" lon="10.614249"><ele>442.00000000000006</ele><time>2026-04-18T14:04:42.986Z</time></trkpt><trkpt lat="43.466103000000004" lon="10.614149999999999"><ele>442.0</ele><time>2026-04-18T14:04:43.976Z</time></trkpt><trkpt lat="43.46615316666666" lon="10.614052333333332"><ele>443.50000000000006</ele><time>2026-04-18T14:04:44.98Z</time></trkpt><trkpt lat="43.466204" lon="10.613958500000003"><ele>445.0</ele><time>2026-04-18T14:04:46.012Z</time></trkpt><trkpt lat="43.466244999999994" lon="10.613862666666666"><ele>446.5</ele><time>2026-04-18T14:04:47.019Z</time></trkpt><trkpt lat="43.46626916666667" lon="10.613762833333332"><ele>448.0</ele><time>2026-04-18T14:04:47.97Z</time></trkpt><trkpt lat="43.466277000000005" lon="10.613672166666666"><ele>449.50000000000006</ele><time>2026-04-18T14:04:48.982Z</time></trkpt><trkpt lat="43.4662365" lon="10.6135165"><ele>451.0</ele><time>2026-04-18T14:04:50.98Z</time></trkpt><trkpt lat="43.46613533333334" lon="10.613422333333332"><ele>451.0</ele><time>2026-04-18T14:04:52.983Z</time></trkpt><trkpt lat="43.4660245" lon="10.613441"><ele>451.0</ele><time>2026-04-18T14:04:54.991Z</time></trkpt><trkpt lat="43.465956999999996" lon="10.613563166666665"><ele>451.0</ele><time>2026-04-18T14:04:56.978Z</time></trkpt><trkpt lat="43.46586390355056" lon="10.613664189071285"><ele>451.0</ele><time>2026-04-18T14:04:59.007Z</time></trkpt><trkpt lat="43.46578010526936" lon="10.613780519294297"><ele>451.0</ele><time>2026-04-18T14:05:00.987Z</time></trkpt><trkpt lat="43.46573456450376" lon="10.613843917771119"><ele>451.0</ele><time>2026-04-18T14:05:01.984Z</time></trkpt><trkpt lat="43.46568794021006" lon="10.613910261736036"><ele>451.0</ele><time>2026-04-18T14:05:02.992Z</time></trkpt><trkpt lat="43.465640895953655" lon="10.613977203108915"><ele>451.0</ele><time>2026-04-18T14:05:03.976Z</time></trkpt><trkpt lat="43.46559390927693" lon="10.614044062710377"><ele>451.0</ele><time>2026-04-18T14:05:04.986Z</time></trkpt><trkpt lat="43.465547588244796" lon="10.614109975076989"><ele>451.0</ele><time>2026-04-18T14:05:05.972Z</time></trkpt><trkpt lat="43.46550375577011" lon="10.614172346429688"><ele>451.0</ele><time>2026-04-18T14:05:07.002Z</time></trkpt><trkpt lat="43.46541784313584" lon="10.614295435857503"><ele>455.0</ele><time>2026-04-18T14:05:08.984Z</time></trkpt><trkpt lat="43.46533372680557" lon="10.614416413052142"><ele>459.0</ele><time>2026-04-18T14:05:10.996Z</time></trkpt><trkpt lat="43.465249069325886" lon="10.614539179029522"><ele>463.0</ele><time>2026-04-18T14:05:12.98Z</time></trkpt><trkpt lat="43.46516734080328" lon="10.614660442145048"><ele>467.0</ele><time>2026-04-18T14:05:14.981Z</time></trkpt><trkpt lat="43.46508732517121" lon="10.614781322144054"><ele>467.0</ele><time>2026-04-18T14:05:16.979Z</time></trkpt><trkpt lat="43.46500561493746" lon="10.614906437054692"><ele>467.0</ele><time>2026-04-18T14:05:18.984Z</time></trkpt><trkpt lat="43.46492873461323" lon="10.615030240813649"><ele>467.0</ele><time>2026-04-18T14:05:20.975Z</time></trkpt><trkpt lat="43.46486055741936" lon="10.615146550159457"><ele>467.0</ele><time>2026-04-18T14:05:22.979Z</time></trkpt><trkpt lat="43.464794665595335" lon="10.615263388216066"><ele>468.75</ele><time>2026-04-18T14:05:25.121Z</time></trkpt><trkpt lat="43.4647306018896" lon="10.615387129237746"><ele>470.5</ele><time>2026-04-18T14:05:26.989Z</time></trkpt><trkpt lat="43.4646659739149" lon="10.615518264234378"><ele>472.25</ele><time>2026-04-18T14:05:29.01Z</time></trkpt><trkpt lat="43.46460379718125" lon="10.615651044760975"><ele>474.0</ele><time>2026-04-18T14:05:30.98Z</time></trkpt><trkpt lat="43.46454276839059" lon="10.61578640056384"><ele>474.0</ele><time>2026-04-18T14:05:33.004Z</time></trkpt><trkpt lat="43.46448525868297" lon="10.615916327128154"><ele>474.0</ele><time>2026-04-18T14:05:34.986Z</time></trkpt><trkpt lat="43.464447666666665" lon="10.616012333333332"><ele>474.0</ele><time>2026-04-18T14:05:36.993Z</time></trkpt><trkpt lat="43.46439783333334" lon="10.6160995"><ele>474.0</ele><time>2026-04-18T14:05:37.992Z</time></trkpt><trkpt lat="43.46434983333334" lon="10.6162285"><ele>474.0</ele><time>2026-04-18T14:05:39.981Z</time></trkpt><trkpt lat="43.46431066666668" lon="10.616420333333334"><ele>470.6</ele><time>2026-04-18T14:05:42.974Z</time></trkpt><trkpt lat="43.464255042934866" lon="10.616541715140452"><ele>467.2</ele><time>2026-04-18T14:05:44.996Z</time></trkpt><trkpt lat="43.46420317026465" lon="10.616666273604558"><ele>463.80000000000007</ele><time>2026-04-18T14:05:46.981Z</time></trkpt><trkpt lat="43.46414883333333" lon="10.616752666666665"><ele>460.40000000000003</ele><time>2026-04-18T14:05:48.992Z</time></trkpt><trkpt lat="43.46407333144097" lon="10.616695299450864"><ele>457.0</ele><time>2026-04-18T14:05:51.984Z</time></trkpt><trkpt lat="43.46405067993201" lon="10.616593427269258"><ele>457.00000000000006</ele><time>2026-04-18T14:05:54.981Z</time></trkpt><trkpt lat="43.46401883271149" lon="10.616514601089724"><ele>457.0</ele><time>2026-04-18T14:05:55.98Z</time></trkpt><trkpt lat="43.46397483333333" lon="10.616399833333332"><ele>457.0</ele><time>2026-04-18T14:05:57.988Z</time></trkpt><trkpt lat="43.46394416666667" lon="10.61626966666667"><ele>457.0</ele><time>2026-04-18T14:05:59.989Z</time></trkpt><trkpt lat="43.463895333333326" lon="10.616146833333334"><ele>457.00000000000006</ele><time>2026-04-18T14:06:01.988Z</time></trkpt><trkpt lat="43.46384733333333" lon="10.616064500000002"><ele>457.0</ele><time>2026-04-18T14:06:03.983Z</time></trkpt><trkpt lat="43.46381665506445" lon="10.615976484953759"><ele>459.6666666666667</ele><time>2026-04-18T14:06:04.977Z</time></trkpt><trkpt lat="43.463772836936485" lon="10.615863298306197"><ele>462.33333333333337</ele><time>2026-04-18T14:06:07.004Z</time></trkpt><trkpt lat="43.46372946195256" lon="10.61575980868031"><ele>465.0</ele><time>2026-04-18T14:06:08.985Z</time></trkpt><trkpt lat="43.46368284694761" lon="10.615665959409528"><ele>467.66666666666663</ele><time>2026-04-18T14:06:10.997Z</time></trkpt><trkpt lat="43.463631554867185" lon="10.615571853743198"><ele>470.3333333333333</ele><time>2026-04-18T14:06:12.983Z</time></trkpt><trkpt lat="43.46359288337887" lon="10.615502756424162"><ele>473.0</ele><time>2026-04-18T14:06:14.981Z</time></trkpt><trkpt lat="43.46354365346645" lon="10.615422683330486"><ele>472.99999999999994</ele><time>2026-04-18T14:06:17.98Z</time></trkpt><trkpt lat="43.46349815123349" lon="10.615354101288068"><ele>473.0</ele><time>2026-04-18T14:06:20.015Z</time></trkpt><trkpt lat="43.46343934478583" lon="10.615271176522823"><ele>473.0</ele><time>2026-04-18T14:06:21.985Z</time></trkpt><trkpt lat="43.463348014245156" lon="10.615167875975224"><ele>473.0</ele><time>2026-04-18T14:06:25.143Z</time></trkpt><trkpt lat="43.463275385991615" lon="10.61512941953656"><ele>472.99999999999994</ele><time>2026-04-18T14:06:26.974Z</time></trkpt><trkpt lat="43.46320649999999" lon="10.615138739943454"><ele>473.0</ele><time>2026-04-18T14:06:29.976Z</time></trkpt><trkpt lat="43.46319481909298" lon="10.615275994951169"><ele>472.99999999999994</ele><time>2026-04-18T14:06:32.011Z</time></trkpt><trkpt lat="43.46320004137788" lon="10.615380829054317"><ele>473.0</ele><time>2026-04-18T14:06:35.981Z</time></trkpt><trkpt lat="43.463202498268544" lon="10.615471009846058"><ele>473.0</ele><time>2026-04-18T14:06:38.99Z</time></trkpt><trkpt lat="43.4631997998269" lon="10.615372224723654"><ele>473.0</ele><time>2026-04-18T14:07:15.008Z</time></trkpt><trkpt lat="43.463201926159364" lon="10.615282746720078"><ele>472.99999999999994</ele><time>2026-04-18T14:07:18.985Z</time></trkpt><trkpt lat="43.463215000000005" lon="10.615193666666668"><ele>473.0</ele><time>2026-04-18T14:07:21.975Z</time></trkpt><trkpt lat="43.4633365" lon="10.615184666666668"><ele>472.99999999999994</ele><time>2026-04-18T14:07:26.991Z</time></trkpt><trkpt lat="43.46337783333334" lon="10.615260833333332"><ele>473.0</ele><time>2026-04-18T14:07:28.988Z</time></trkpt><trkpt lat="43.46342316666667" lon="10.6153565"><ele>473.0</ele><time>2026-04-18T14:07:30.971Z</time></trkpt><trkpt lat="43.46348133333333" lon="10.615457666666668"><ele>473.0</ele><time>2026-04-18T14:07:32.977Z</time></trkpt><trkpt lat="43.463545499999995" lon="10.615559333333334"><ele>472.99999999999994</ele><time>2026-04-18T14:07:34.981Z</time></trkpt><trkpt lat="43.4636105" lon="10.615659166666669"><ele>473.0</ele><time>2026-04-18T14:07:37.014Z</time></trkpt><trkpt lat="43.463667833333325" lon="10.615751166666668"><ele>473.0</ele><time>2026-04-18T14:07:38.972Z</time></trkpt><trkpt lat="43.463716833333336" lon="10.615842666666667"><ele>472.99999999999994</ele><time>2026-04-18T14:07:41Z</time></trkpt><trkpt lat="43.46377466666666" lon="10.615943333333334"><ele>472.99999999999994</ele><time>2026-04-18T14:07:42.981Z</time></trkpt><trkpt lat="43.46384016666666" lon="10.616057999999997"><ele>473.0</ele><time>2026-04-18T14:07:44.984Z</time></trkpt><trkpt lat="43.463905000000004" lon="10.616167833333336"><ele>473.0</ele><time>2026-04-18T14:07:46.986Z</time></trkpt><trkpt lat="43.463935166666666" lon="10.616262166666669"><ele>470.3333333333333</ele><time>2026-04-18T14:07:48.973Z</time></trkpt><trkpt lat="43.463959166666676" lon="10.616347499999998"><ele>467.66666666666663</ele><time>2026-04-18T14:07:50.013Z</time></trkpt><trkpt lat="43.46398466666666" lon="10.616459666666666"><ele>465.0</ele><time>2026-04-18T14:07:51.993Z</time></trkpt><trkpt lat="43.46401" lon="10.616572"><ele>462.33333333333337</ele><time>2026-04-18T14:07:53.98Z</time></trkpt><trkpt lat="43.464032499999995" lon="10.616673"><ele>459.6666666666667</ele><time>2026-04-18T14:07:55.984Z</time></trkpt><trkpt lat="43.46407933333333" lon="10.616763333333333"><ele>457.0</ele><time>2026-04-18T14:07:59.033Z</time></trkpt><trkpt lat="43.46420522665638" lon="10.61674097962581"><ele>457.0</ele><time>2026-04-18T14:08:25.99Z</time></trkpt><trkpt lat="43.46424384264136" lon="10.61666721026282"><ele>457.00000000000006</ele><time>2026-04-18T14:08:30.988Z</time></trkpt><trkpt lat="43.464275588060396" lon="10.616588228165616"><ele>457.00000000000006</ele><time>2026-04-18T14:08:34.987Z</time></trkpt><trkpt lat="43.464238650820555" lon="10.616675725278132"><ele>457.0</ele><time>2026-04-18T14:10:06.012Z</time></trkpt><trkpt lat="43.46418220354794" lon="10.61676636926203"><ele>457.0</ele><time>2026-04-18T14:10:23.008Z</time></trkpt><trkpt lat="43.46404566666667" lon="10.61662533333333"><ele>457.00000000000006</ele><time>2026-04-18T14:10:36.983Z</time></trkpt><trkpt lat="43.46402316666666" lon="10.616526500000003"><ele>457.0</ele><time>2026-04-18T14:10:41.023Z</time></trkpt><trkpt lat="43.46399400000001" lon="10.616419833333335"><ele>457.00000000000006</ele><time>2026-04-18T14:10:45.005Z</time></trkpt><trkpt lat="43.4639695" lon="10.616318666666666"><ele>457.00000000000006</ele><time>2026-04-18T14:10:50.98Z</time></trkpt><trkpt lat="43.46393783333333" lon="10.616216166666666"><ele>457.0</ele><time>2026-04-18T14:10:54.99Z</time></trkpt><trkpt lat="43.463908833333335" lon="10.616135999999997"><ele>457.00000000000006</ele><time>2026-04-18T14:10:59.034Z</time></trkpt><trkpt lat="43.463872666666674" lon="10.616062833333334"><ele>457.00000000000006</ele><time>2026-04-18T14:11:03.311Z</time></trkpt><trkpt lat="43.46380666666668" lon="10.615959666666667"><ele>459.6666666666667</ele><time>2026-04-18T14:11:05.999Z</time></trkpt><trkpt lat="43.46377016872949" lon="10.615856913974953"><ele>462.33333333333337</ele><time>2026-04-18T14:11:08.982Z</time></trkpt><trkpt lat="43.46372300973919" lon="10.615746759349248"><ele>465.0</ele><time>2026-04-18T14:11:11.982Z</time></trkpt><trkpt lat="43.46368426068228" lon="10.615668615114428"><ele>467.66666666666663</ele><time>2026-04-18T14:11:13.991Z</time></trkpt><trkpt lat="43.46363935688981" lon="10.615585707823936"><ele>470.3333333333333</ele><time>2026-04-18T14:11:15.983Z</time></trkpt><trkpt lat="43.46358994313552" lon="10.615497852911659"><ele>473.0</ele><time>2026-04-18T14:11:18.003Z</time></trkpt><trkpt lat="43.46353138521751" lon="10.615404192345917"><ele>475.0</ele><time>2026-04-18T14:11:19.986Z</time></trkpt><trkpt lat="43.46346917198416" lon="10.615312988433681"><ele>476.99999999999994</ele><time>2026-04-18T14:11:21.99Z</time></trkpt><trkpt lat="43.463410910456986" lon="10.615231316749696"><ele>478.99999999999994</ele><time>2026-04-18T14:11:24.011Z</time></trkpt><trkpt lat="43.4633366012556" lon="10.615156161690637"><ele>481.0</ele><time>2026-04-18T14:11:25.984Z</time></trkpt><trkpt lat="43.463229166666665" lon="10.615138739946675"><ele>483.0</ele><time>2026-04-18T14:11:27.971Z</time></trkpt><trkpt lat="43.463187166666664" lon="10.615247"><ele>481.0</ele><time>2026-04-18T14:11:29.983Z</time></trkpt><trkpt lat="43.46320080039926" lon="10.615333138057046"><ele>478.99999999999994</ele><time>2026-04-18T14:11:31.987Z</time></trkpt><trkpt lat="43.4631905" lon="10.615437000000002"><ele>476.99999999999994</ele><time>2026-04-18T14:11:33.997Z</time></trkpt><trkpt lat="43.46319833333334" lon="10.615555833333334"><ele>475.0</ele><time>2026-04-18T14:11:36.016Z</time></trkpt><trkpt lat="43.46320000000001" lon="10.6157075"><ele>473.0</ele><time>2026-04-18T14:11:37.987Z</time></trkpt><trkpt lat="43.46321842492447" lon="10.615865380622372"><ele>473.0</ele><time>2026-04-18T14:11:40.006Z</time></trkpt><trkpt lat="43.463214" lon="10.616010833333332"><ele>472.99999999999994</ele><time>2026-04-18T14:11:41.979Z</time></trkpt><trkpt lat="43.463231666666665" lon="10.616162333333333"><ele>472.99999999999994</ele><time>2026-04-18T14:11:43.983Z</time></trkpt><trkpt lat="43.46323283333333" lon="10.616333166666667"><ele>473.0</ele><time>2026-04-18T14:11:45.98Z</time></trkpt><trkpt lat="43.463222166666675" lon="10.616419833333335"><ele>473.0</ele><time>2026-04-18T14:11:46.992Z</time></trkpt><trkpt lat="43.463207499999996" lon="10.616506666666664"><ele>471.0</ele><time>2026-04-18T14:11:47.994Z</time></trkpt><trkpt lat="43.463182666666675" lon="10.616589"><ele>468.99999999999994</ele><time>2026-04-18T14:11:49.014Z</time></trkpt><trkpt lat="43.46311097022622" lon="10.616679132329775"><ele>466.99999999999994</ele><time>2026-04-18T14:11:50.987Z</time></trkpt><trkpt lat="43.46301039521593" lon="10.616782288434159"><ele>465.0</ele><time>2026-04-18T14:11:53.004Z</time></trkpt><trkpt lat="43.46292942498671" lon="10.616832857169369"><ele>463.0</ele><time>2026-04-18T14:11:53.98Z</time></trkpt><trkpt lat="43.462826269015764" lon="10.616859249466916"><ele>463.0</ele><time>2026-04-18T14:11:55.975Z</time></trkpt><trkpt lat="43.46275779994671" lon="10.616841774073956"><ele>462.99999999999994</ele><time>2026-04-18T14:11:58.017Z</time></trkpt><trkpt lat="43.462696062512144" lon="10.616805836922994"><ele>462.99999999999994</ele><time>2026-04-18T14:11:58.986Z</time></trkpt><trkpt lat="43.462612711665194" lon="10.616741934055367"><ele>463.0</ele><time>2026-04-18T14:12:00.991Z</time></trkpt><trkpt lat="43.46253727646567" lon="10.616635692463658"><ele>463.0</ele><time>2026-04-18T14:12:02.982Z</time></trkpt><trkpt lat="43.4624740475505" lon="10.616512075996315"><ele>463.0</ele><time>2026-04-18T14:12:05.003Z</time></trkpt><trkpt lat="43.462414048550805" lon="10.616396059974575"><ele>462.99999999999994</ele><time>2026-04-18T14:12:07.017Z</time></trkpt><trkpt lat="43.46235072213171" lon="10.616291423560115"><ele>462.99999999999994</ele><time>2026-04-18T14:12:08.983Z</time></trkpt><trkpt lat="43.462293471190335" lon="10.616198161553642"><ele>463.0</ele><time>2026-04-18T14:12:10.997Z</time></trkpt><trkpt lat="43.46223781732038" lon="10.616125487121769"><ele>463.0</ele><time>2026-04-18T14:12:13.986Z</time></trkpt><trkpt lat="43.4621552523226" lon="10.616072896512298"><ele>464.1666666666667</ele><time>2026-04-18T14:14:52Z</time></trkpt><trkpt lat="43.46207829843392" lon="10.616099407646933"><ele>465.33333333333337</ele><time>2026-04-18T14:14:53.984Z</time></trkpt><trkpt lat="43.461987833333325" lon="10.616178500000002"><ele>466.5</ele><time>2026-04-18T14:14:56.99Z</time></trkpt><trkpt lat="43.46194066666666" lon="10.616258666666665"><ele>467.66666666666663</ele><time>2026-04-18T14:14:58.978Z</time></trkpt><trkpt lat="43.46187291929237" lon="10.616331285284295"><ele>468.8333333333333</ele><time>2026-04-18T14:15:01.012Z</time></trkpt><trkpt lat="43.46181763777792" lon="10.616428356389585"><ele>470.0</ele><time>2026-04-18T14:15:02.982Z</time></trkpt><trkpt lat="43.46176408219519" lon="10.616533618161917"><ele>469.99999999999994</ele><time>2026-04-18T14:15:05.013Z</time></trkpt><trkpt lat="43.46171647309033" lon="10.616637035354733"><ele>470.0</ele><time>2026-04-18T14:15:06.985Z</time></trkpt><trkpt lat="43.46169266666667" lon="10.616725833333332"><ele>470.0</ele><time>2026-04-18T14:15:09.001Z</time></trkpt><trkpt lat="43.46170366666667" lon="10.616638666666665"><ele>470.0</ele><time>2026-04-18T14:15:21.1Z</time></trkpt><trkpt lat="43.461758412453435" lon="10.616545142716285"><ele>469.99999999999994</ele><time>2026-04-18T14:15:46.993Z</time></trkpt><trkpt lat="43.46181333333334" lon="10.616466500000001"><ele>470.0</ele><time>2026-04-18T14:15:49.977Z</time></trkpt><trkpt lat="43.461864500000004" lon="10.6163795"><ele>470.0</ele><time>2026-04-18T14:15:52.001Z</time></trkpt><trkpt lat="43.46191" lon="10.616308333333333"><ele>470.0</ele><time>2026-04-18T14:15:54.012Z</time></trkpt><trkpt lat="43.46196416666667" lon="10.616195166666667"><ele>470.0</ele><time>2026-04-18T14:15:55.997Z</time></trkpt><trkpt lat="43.46204516666666" lon="10.616117166666667"><ele>470.0</ele><time>2026-04-18T14:15:57.984Z</time></trkpt><trkpt lat="43.46213116666666" lon="10.616111166666668"><ele>470.0</ele><time>2026-04-18T14:15:59.994Z</time></trkpt><trkpt lat="43.462226333333334" lon="10.616205833333334"><ele>468.8333333333333</ele><time>2026-04-18T14:16:01.989Z</time></trkpt><trkpt lat="43.46230783333334" lon="10.616346500000002"><ele>467.66666666666663</ele><time>2026-04-18T14:16:03.981Z</time></trkpt><trkpt lat="43.4623535" lon="10.616430833333332"><ele>466.5</ele><time>2026-04-18T14:16:05.015Z</time></trkpt><trkpt lat="43.46240166666667" lon="10.616519999999998"><ele>465.33333333333337</ele><time>2026-04-18T14:16:05.997Z</time></trkpt><trkpt lat="43.46245066666667" lon="10.616610833333333"><ele>464.1666666666667</ele><time>2026-04-18T14:16:06.987Z</time></trkpt><trkpt lat="43.46250149999999" lon="10.616690666666667"><ele>463.0</ele><time>2026-04-18T14:16:07.994Z</time></trkpt><trkpt lat="43.46255033333333" lon="10.616772333333332"><ele>463.0</ele><time>2026-04-18T14:16:09.014Z</time></trkpt><trkpt lat="43.46260033333333" lon="10.616853"><ele>462.99999999999994</ele><time>2026-04-18T14:16:09.985Z</time></trkpt><trkpt lat="43.4626555" lon="10.616908166666667"><ele>462.99999999999994</ele><time>2026-04-18T14:16:10.981Z</time></trkpt><trkpt lat="43.462772166666674" lon="10.616951333333335"><ele>463.0</ele><time>2026-04-18T14:16:13.001Z</time></trkpt><trkpt lat="43.462891333333324" lon="10.61692"><ele>463.0</ele><time>2026-04-18T14:16:14.986Z</time></trkpt><trkpt lat="43.46300483333332" lon="10.616851166666667"><ele>462.79999999999995</ele><time>2026-04-18T14:16:17.001Z</time></trkpt><trkpt lat="43.4630575" lon="10.616802666666668"><ele>462.59999999999997</ele><time>2026-04-18T14:16:18.027Z</time></trkpt><trkpt lat="43.46314133333333" lon="10.616695499999999"><ele>462.40000000000003</ele><time>2026-04-18T14:16:20Z</time></trkpt><trkpt lat="43.46320516666667" lon="10.616566666666664"><ele>462.20000000000005</ele><time>2026-04-18T14:16:22.009Z</time></trkpt><trkpt lat="43.463247577112895" lon="10.616501890892177"><ele>462.0</ele><time>2026-04-18T14:16:22.993Z</time></trkpt><trkpt lat="43.46328411899471" lon="10.616326032875241"><ele>462.0</ele><time>2026-04-18T14:16:24.994Z</time></trkpt><trkpt lat="43.46328739204378" lon="10.616224079860196"><ele>462.0</ele><time>2026-04-18T14:16:26.294Z</time></trkpt><trkpt lat="43.463278672267684" lon="10.616025038016968"><ele>462.0</ele><time>2026-04-18T14:16:27.99Z</time></trkpt><trkpt lat="43.463272362355376" lon="10.615925376106219"><ele>462.0</ele><time>2026-04-18T14:16:28.986Z</time></trkpt><trkpt lat="43.46326540836291" lon="10.615827298947693"><ele>462.0</ele><time>2026-04-18T14:16:29.998Z</time></trkpt><trkpt lat="43.46326171728517" lon="10.615725338644479"><ele>462.0</ele><time>2026-04-18T14:16:31.008Z</time></trkpt><trkpt lat="43.46325791450235" lon="10.615620291071533"><ele>463.8333333333333</ele><time>2026-04-18T14:16:31.981Z</time></trkpt><trkpt lat="43.46325410309361" lon="10.615515005273032"><ele>465.66666666666663</ele><time>2026-04-18T14:16:32.99Z</time></trkpt><trkpt lat="43.46325083163177" lon="10.615330479820944"><ele>467.5</ele><time>2026-04-18T14:16:35.001Z</time></trkpt><trkpt lat="43.463252778279646" lon="10.615228693865845"><ele>469.3333333333333</ele><time>2026-04-18T14:16:36.994Z</time></trkpt><trkpt lat="43.46332283333333" lon="10.615188333333334"><ele>471.16666666666663</ele><time>2026-04-18T14:16:38.99Z</time></trkpt><trkpt lat="43.46337833333334" lon="10.615253166666665"><ele>473.0</ele><time>2026-04-18T14:16:40.998Z</time></trkpt><trkpt lat="43.46343316666666" lon="10.615357500000002"><ele>472.99999999999994</ele><time>2026-04-18T14:16:41.984Z</time></trkpt><trkpt lat="43.46347600000001" lon="10.615434"><ele>473.0</ele><time>2026-04-18T14:16:43.006Z</time></trkpt><trkpt lat="43.46352683333333" lon="10.615517"><ele>473.0</ele><time>2026-04-18T14:16:43.991Z</time></trkpt><trkpt lat="43.463581166666664" lon="10.6155995"><ele>473.0</ele><time>2026-04-18T14:16:44.985Z</time></trkpt><trkpt lat="43.46363633333333" lon="10.6156835"><ele>472.99999999999994</ele><time>2026-04-18T14:16:45.989Z</time></trkpt><trkpt lat="43.463691000000004" lon="10.615767166666668"><ele>473.0</ele><time>2026-04-18T14:16:46.988Z</time></trkpt><trkpt lat="43.46374516666666" lon="10.615856"><ele>473.0</ele><time>2026-04-18T14:16:48.003Z</time></trkpt><trkpt lat="43.46377460906085" lon="10.615964637588355"><ele>472.99999999999994</ele><time>2026-04-18T14:16:48.977Z</time></trkpt><trkpt lat="43.46385086748019" lon="10.616169673550365"><ele>472.99999999999994</ele><time>2026-04-18T14:16:50.993Z</time></trkpt><trkpt lat="43.463888110741756" lon="10.616272914499374"><ele>473.0</ele><time>2026-04-18T14:16:52.021Z</time></trkpt><trkpt lat="43.463925709280474" lon="10.616375097491066"><ele>473.0</ele><time>2026-04-18T14:16:52.976Z</time></trkpt><trkpt lat="43.46396333571795" lon="10.616471492310739"><ele>470.7142857142857</ele><time>2026-04-18T14:16:53.997Z</time></trkpt><trkpt lat="43.46399856486934" lon="10.61655868863064"><ele>468.42857142857144</ele><time>2026-04-18T14:16:54.986Z</time></trkpt><trkpt lat="43.464037499999996" lon="10.616628666666669"><ele>466.14285714285717</ele><time>2026-04-18T14:16:56.008Z</time></trkpt><trkpt lat="43.464069" lon="10.616731666666666"><ele>463.8571428571429</ele><time>2026-04-18T14:16:57.992Z</time></trkpt><trkpt lat="43.464126" lon="10.616784166666665"><ele>461.57142857142856</ele><time>2026-04-18T14:17:01.982Z</time></trkpt><trkpt lat="43.46420833513286" lon="10.616735000579062"><ele>459.28571428571433</ele><time>2026-04-18T14:18:51.991Z</time></trkpt><trkpt lat="43.46424562296946" lon="10.616662790370048"><ele>457.00000000000006</ele><time>2026-04-18T14:18:56.983Z</time></trkpt><trkpt lat="43.46428080715797" lon="10.616573506775852"><ele>457.0</ele><time>2026-04-18T14:19:01.988Z</time></trkpt><trkpt lat="43.464310459567145" lon="10.616490488013795"><ele>457.00000000000006</ele><time>2026-04-18T14:19:06.002Z</time></trkpt><trkpt lat="43.464340827198825" lon="10.616399893290026"><ele>457.00000000000006</ele><time>2026-04-18T14:19:09.987Z</time></trkpt><trkpt lat="43.46437469984646" lon="10.616298841442948"><ele>457.0</ele><time>2026-04-18T14:19:13.977Z</time></trkpt><trkpt lat="43.46440539533712" lon="10.616207270466042"><ele>457.0</ele><time>2026-04-18T14:19:18.984Z</time></trkpt><trkpt lat="43.464075666666666" lon="10.615707000000002"><ele>459.4285714285715</ele><time>2026-04-18T14:19:57.998Z</time></trkpt><trkpt lat="43.46407033333333" lon="10.615618333333336"><ele>461.8571428571429</ele><time>2026-04-18T14:20:09.983Z</time></trkpt><trkpt lat="43.46407416666666" lon="10.615530666666666"><ele>464.2857142857143</ele><time>2026-04-18T14:20:14.996Z</time></trkpt><trkpt lat="43.46408799999999" lon="10.6154445"><ele>466.7142857142857</ele><time>2026-04-18T14:20:21.992Z</time></trkpt><trkpt lat="43.46410116666666" lon="10.615356833333333"><ele>469.1428571428571</ele><time>2026-04-18T14:20:29.006Z</time></trkpt><trkpt lat="43.464126" lon="10.6152605"><ele>471.5714285714285</ele><time>2026-04-18T14:20:34.015Z</time></trkpt><trkpt lat="43.4641525" lon="10.615180166666669"><ele>473.99999999999994</ele><time>2026-04-18T14:20:38.995Z</time></trkpt><trkpt lat="43.464183166666665" lon="10.615089499999998"><ele>476.99999999999994</ele><time>2026-04-18T14:20:43.983Z</time></trkpt><trkpt lat="43.46421633333333" lon="10.615014333333333"><ele>480.0</ele><time>2026-04-18T14:20:48.991Z</time></trkpt><trkpt lat="43.464249" lon="10.6149185"><ele>482.99999999999994</ele><time>2026-04-18T14:20:53.99Z</time></trkpt><trkpt lat="43.46426666666666" lon="10.614822666666665"><ele>485.99999999999994</ele><time>2026-04-18T14:20:57.995Z</time></trkpt><trkpt lat="43.46428349999999" lon="10.614719666666666"><ele>489.0</ele><time>2026-04-18T14:21:01.991Z</time></trkpt><trkpt lat="43.46431033333334" lon="10.614635333333336"><ele>491.99999999999994</ele><time>2026-04-18T14:21:06.995Z</time></trkpt><trkpt lat="43.46434766666666" lon="10.614543833333334"><ele>494.99999999999994</ele><time>2026-04-18T14:21:11.087Z</time></trkpt><trkpt lat="43.464371666666665" lon="10.614441500000002"><ele>497.5</ele><time>2026-04-18T14:21:14.984Z</time></trkpt><trkpt lat="43.46438966666666" lon="10.614343666666667"><ele>500.0</ele><time>2026-04-18T14:21:18.995Z</time></trkpt><trkpt lat="43.464410666666666" lon="10.61423283333333"><ele>502.5</ele><time>2026-04-18T14:21:22.984Z</time></trkpt><trkpt lat="43.46443533333333" lon="10.614127166666666"><ele>505.0</ele><time>2026-04-18T14:21:25.991Z</time></trkpt><trkpt lat="43.46445583333334" lon="10.614018666666666"><ele>507.5</ele><time>2026-04-18T14:21:29.984Z</time></trkpt><trkpt lat="43.46447066666667" lon="10.61390566666667"><ele>510.0</ele><time>2026-04-18T14:21:34.024Z</time></trkpt><trkpt lat="43.46449866666667" lon="10.613808666666667"><ele>510.0</ele><time>2026-04-18T14:21:37Z</time></trkpt><trkpt lat="43.46452816666667" lon="10.613715333333333"><ele>510.00000000000006</ele><time>2026-04-18T14:21:39.991Z</time></trkpt><trkpt lat="43.464554500000006" lon="10.613624833333333"><ele>510.0</ele><time>2026-04-18T14:21:42.987Z</time></trkpt><trkpt lat="43.46457183333334" lon="10.613526166666668"><ele>510.0</ele><time>2026-04-18T14:21:46.011Z</time></trkpt><trkpt lat="43.4645935" lon="10.613430833333332"><ele>510.00000000000006</ele><time>2026-04-18T14:21:48.999Z</time></trkpt><trkpt lat="43.464630666666665" lon="10.613352500000001"><ele>510.0</ele><time>2026-04-18T14:21:51.983Z</time></trkpt><trkpt lat="43.464679666666676" lon="10.6132775"><ele>510.0</ele><time>2026-04-18T14:21:55.015Z</time></trkpt><trkpt lat="43.464721999999995" lon="10.613206333333334"><ele>510.5</ele><time>2026-04-18T14:21:59.994Z</time></trkpt><trkpt lat="43.464710333333336" lon="10.613117833333334"><ele>511.0</ele><time>2026-04-18T14:22:19Z</time></trkpt><trkpt lat="43.46467899999999" lon="10.613006666666669"><ele>511.5</ele><time>2026-04-18T14:22:22.995Z</time></trkpt><trkpt lat="43.46465683333332" lon="10.612909333333334"><ele>512.0</ele><time>2026-04-18T14:22:26.988Z</time></trkpt><trkpt lat="43.46464133333334" lon="10.612817333333332"><ele>512.5</ele><time>2026-04-18T14:22:29.986Z</time></trkpt><trkpt lat="43.46463566666666" lon="10.612715666666668"><ele>513.0</ele><time>2026-04-18T14:22:33.983Z</time></trkpt><trkpt lat="43.46462966666666" lon="10.612603999999997"><ele>515.3333333333334</ele><time>2026-04-18T14:22:37.981Z</time></trkpt><trkpt lat="43.464620333333336" lon="10.612495833333334"><ele>517.6666666666666</ele><time>2026-04-18T14:22:42.017Z</time></trkpt><trkpt lat="43.464613166666666" lon="10.6123865"><ele>520.0</ele><time>2026-04-18T14:22:46.024Z</time></trkpt><trkpt lat="43.464606833333335" lon="10.612252833333333"><ele>522.3333333333333</ele><time>2026-04-18T14:22:50.008Z</time></trkpt><trkpt lat="43.464606999999994" lon="10.612153999999997"><ele>524.6666666666666</ele><time>2026-04-18T14:22:53.995Z</time></trkpt><trkpt lat="43.464606833333335" lon="10.612063666666666"><ele>527.0</ele><time>2026-04-18T14:22:56.984Z</time></trkpt><trkpt lat="43.464601333333334" lon="10.611945666666669"><ele>529.1428571428572</ele><time>2026-04-18T14:22:59.991Z</time></trkpt><trkpt lat="43.464602166666666" lon="10.611857000000002"><ele>531.2857142857143</ele><time>2026-04-18T14:23:03.016Z</time></trkpt><trkpt lat="43.464593" lon="10.611748"><ele>533.4285714285714</ele><time>2026-04-18T14:23:07.005Z</time></trkpt><trkpt lat="43.46458283333333" lon="10.611648333333335"><ele>535.5714285714287</ele><time>2026-04-18T14:23:10.988Z</time></trkpt><trkpt lat="43.46458433333334" lon="10.611545999999999"><ele>537.7142857142858</ele><time>2026-04-18T14:23:13.984Z</time></trkpt><trkpt lat="43.46459750000001" lon="10.611441666666668"><ele>539.8571428571429</ele><time>2026-04-18T14:23:18.996Z</time></trkpt><trkpt lat="43.464606" lon="10.611331333333332"><ele>542.0</ele><time>2026-04-18T14:23:22.996Z</time></trkpt><trkpt lat="43.46460333333333" lon="10.611216833333332"><ele>543.0</ele><time>2026-04-18T14:23:26.996Z</time></trkpt><trkpt lat="43.46460066666666" lon="10.611120833333333"><ele>544.0</ele><time>2026-04-18T14:23:29.992Z</time></trkpt><trkpt lat="43.464617499999996" lon="10.611034166666666"><ele>545.0</ele><time>2026-04-18T14:23:33.008Z</time></trkpt><trkpt lat="43.46466166666668" lon="10.610964999999998"><ele>546.0</ele><time>2026-04-18T14:23:35.988Z</time></trkpt><trkpt lat="43.4647185" lon="10.610882833333337"><ele>547.0</ele><time>2026-04-18T14:23:40.002Z</time></trkpt><trkpt lat="43.46476266666667" lon="10.610812166666664"><ele>548.0</ele><time>2026-04-18T14:23:42.986Z</time></trkpt><trkpt lat="43.464804833333325" lon="10.610725166666668"><ele>549.0</ele><time>2026-04-18T14:23:46.991Z</time></trkpt><trkpt lat="43.464852333333326" lon="10.610651166666667"><ele>550.8333333333334</ele><time>2026-04-18T14:23:50.008Z</time></trkpt><trkpt lat="43.464894333333326" lon="10.61057933333333"><ele>552.6666666666666</ele><time>2026-04-18T14:23:52.988Z</time></trkpt><trkpt lat="43.46493183333334" lon="10.61048483333333"><ele>554.5</ele><time>2026-04-18T14:23:55.98Z</time></trkpt><trkpt lat="43.464933833333326" lon="10.610395999999998"><ele>556.3333333333333</ele><time>2026-04-18T14:23:59.015Z</time></trkpt><trkpt lat="43.46497766666666" lon="10.610302000000003"><ele>558.1666666666666</ele><time>2026-04-18T14:24:01.996Z</time></trkpt><trkpt lat="43.465047166666665" lon="10.610222166666665"><ele>560.0</ele><time>2026-04-18T14:24:04.986Z</time></trkpt><trkpt lat="43.46508383333333" lon="10.610107333333334"><ele>560.5714285714286</ele><time>2026-04-18T14:24:07.983Z</time></trkpt><trkpt lat="43.46508650000001" lon="10.610014000000001"><ele>561.1428571428571</ele><time>2026-04-18T14:24:09.987Z</time></trkpt><trkpt lat="43.46510433333332" lon="10.609921666666665"><ele>561.7142857142858</ele><time>2026-04-18T14:24:11.993Z</time></trkpt><trkpt lat="43.465142666666665" lon="10.609839166666665"><ele>562.2857142857142</ele><time>2026-04-18T14:24:13.987Z</time></trkpt><trkpt lat="43.46519016666666" lon="10.609761166666665"><ele>562.8571428571429</ele><time>2026-04-18T14:24:16.029Z</time></trkpt><trkpt lat="43.46523766666666" lon="10.609678166666667"><ele>563.4285714285714</ele><time>2026-04-18T14:24:18.066Z</time></trkpt><trkpt lat="43.46527666666666" lon="10.609586666666667"><ele>564.0</ele><time>2026-04-18T14:24:19.983Z</time></trkpt><trkpt lat="43.46533516666667" lon="10.609504499999998"><ele>564.1666666666666</ele><time>2026-04-18T14:24:21.98Z</time></trkpt><trkpt lat="43.465386666666674" lon="10.6094095"><ele>564.3333333333334</ele><time>2026-04-18T14:24:23.989Z</time></trkpt><trkpt lat="43.465415666666665" lon="10.609309333333332"><ele>564.5</ele><time>2026-04-18T14:24:25.984Z</time></trkpt><trkpt lat="43.4654785" lon="10.609235000000002"><ele>564.6666666666667</ele><time>2026-04-18T14:24:28.022Z</time></trkpt><trkpt lat="43.465552333333335" lon="10.609178333333334"><ele>564.8333333333334</ele><time>2026-04-18T14:24:30.984Z</time></trkpt><trkpt lat="43.46562016666666" lon="10.609095666666667"><ele>565.0</ele><time>2026-04-18T14:24:33.992Z</time></trkpt><trkpt lat="43.465644000000005" lon="10.608997666666667"><ele>566.4285714285713</ele><time>2026-04-18T14:24:37.013Z</time></trkpt><trkpt lat="43.46562883333333" lon="10.608911"><ele>567.8571428571429</ele><time>2026-04-18T14:24:38.985Z</time></trkpt><trkpt lat="43.46559916666667" lon="10.608824499999999"><ele>569.2857142857142</ele><time>2026-04-18T14:24:41.001Z</time></trkpt><trkpt lat="43.465568" lon="10.608699833333333"><ele>570.7142857142857</ele><time>2026-04-18T14:24:42.98Z</time></trkpt><trkpt lat="43.465599000000005" lon="10.608621833333332"><ele>572.1428571428571</ele><time>2026-04-18T14:24:45.004Z</time></trkpt><trkpt lat="43.46567866666666" lon="10.608583666666666"><ele>573.5714285714286</ele><time>2026-04-18T14:24:47.997Z</time></trkpt><trkpt lat="43.465740999999994" lon="10.608567333333333"><ele>575.0</ele><time>2026-04-18T14:24:50.024Z</time></trkpt><trkpt lat="43.46582733333333" lon="10.608558833333332"><ele>575.1666666666666</ele><time>2026-04-18T14:24:52.989Z</time></trkpt><trkpt lat="43.46591483333333" lon="10.608562166666664"><ele>575.3333333333333</ele><time>2026-04-18T14:24:55.989Z</time></trkpt><trkpt lat="43.46599116666666" lon="10.608568333333334"><ele>575.5</ele><time>2026-04-18T14:24:58.988Z</time></trkpt><trkpt lat="43.466079333333326" lon="10.608566"><ele>575.6666666666666</ele><time>2026-04-18T14:25:00.983Z</time></trkpt><trkpt lat="43.46615400000001" lon="10.608572"><ele>575.8333333333334</ele><time>2026-04-18T14:25:03.986Z</time></trkpt><trkpt lat="43.466234833333324" lon="10.608592666666668"><ele>576.0</ele><time>2026-04-18T14:25:07.015Z</time></trkpt><trkpt lat="43.46632533333333" lon="10.608608"><ele>576.3333333333334</ele><time>2026-04-18T14:25:09.992Z</time></trkpt><trkpt lat="43.46639183333333" lon="10.608617833333335"><ele>576.6666666666666</ele><time>2026-04-18T14:25:11.984Z</time></trkpt><trkpt lat="43.466480000000004" lon="10.608612000000003"><ele>577.0</ele><time>2026-04-18T14:25:15.012Z</time></trkpt><trkpt lat="43.46654266666666" lon="10.608557499999998"><ele>577.3333333333333</ele><time>2026-04-18T14:25:17.984Z</time></trkpt><trkpt lat="43.46658066666667" lon="10.6084815"><ele>577.6666666666666</ele><time>2026-04-18T14:25:20.985Z</time></trkpt><trkpt lat="43.46662933333334" lon="10.6083815"><ele>578.0</ele><time>2026-04-18T14:25:23.989Z</time></trkpt><trkpt lat="43.46668116666666" lon="10.608292500000001"><ele>578.0</ele><time>2026-04-18T14:25:26.993Z</time></trkpt><trkpt lat="43.466741666666664" lon="10.608222999999999"><ele>578.0</ele><time>2026-04-18T14:25:29.984Z</time></trkpt><trkpt lat="43.466808" lon="10.608108666666665"><ele>578.0</ele><time>2026-04-18T14:25:33.042Z</time></trkpt><trkpt lat="43.46684799999999" lon="10.607995000000003"><ele>578.0</ele><time>2026-04-18T14:25:36.002Z</time></trkpt><trkpt lat="43.46686416666666" lon="10.6078955"><ele>578.0</ele><time>2026-04-18T14:25:38.98Z</time></trkpt><trkpt lat="43.46691683333333" lon="10.6078295"><ele>578.0</ele><time>2026-04-18T14:25:42.98Z</time></trkpt><trkpt lat="43.46694066666667" lon="10.607745333333332"><ele>577.5</ele><time>2026-04-18T14:25:50.02Z</time></trkpt><trkpt lat="43.46692966666666" lon="10.607619"><ele>577.0</ele><time>2026-04-18T14:26:11.018Z</time></trkpt><trkpt lat="43.46697716666666" lon="10.607531166666668"><ele>576.5</ele><time>2026-04-18T14:26:39.999Z</time></trkpt><trkpt lat="43.46703733333334" lon="10.607503666666664"><ele>576.0</ele><time>2026-04-18T14:26:47.999Z</time></trkpt><trkpt lat="43.46709416666666" lon="10.607550166666666"><ele>575.5</ele><time>2026-04-18T14:26:54.986Z</time></trkpt><trkpt lat="43.46716283333333" lon="10.607513166666667"><ele>575.0</ele><time>2026-04-18T14:26:59.996Z</time></trkpt><trkpt lat="43.46722666666666" lon="10.607441833333333"><ele>574.8333333333333</ele><time>2026-04-18T14:27:16.985Z</time></trkpt><trkpt lat="43.46728616666667" lon="10.6073955"><ele>574.6666666666666</ele><time>2026-04-18T14:27:19.018Z</time></trkpt><trkpt lat="43.467341166666664" lon="10.607343166666665"><ele>574.5</ele><time>2026-04-18T14:27:20.989Z</time></trkpt><trkpt lat="43.467399166666674" lon="10.6072615"><ele>574.3333333333334</ele><time>2026-04-18T14:27:23.985Z</time></trkpt><trkpt lat="43.4674785" lon="10.607192166666668"><ele>574.1666666666667</ele><time>2026-04-18T14:27:26.992Z</time></trkpt><trkpt lat="43.46754250000001" lon="10.6071555"><ele>574.0</ele><time>2026-04-18T14:27:28.985Z</time></trkpt><trkpt lat="43.467609499999995" lon="10.607120833333331"><ele>574.0</ele><time>2026-04-18T14:27:31.001Z</time></trkpt><trkpt lat="43.46768433333333" lon="10.607089833333335"><ele>574.0</ele><time>2026-04-18T14:27:32.993Z</time></trkpt><trkpt lat="43.467764" lon="10.607073999999999"><ele>574.0</ele><time>2026-04-18T14:27:34.991Z</time></trkpt><trkpt lat="43.46783099999999" lon="10.607048166666667"><ele>574.0</ele><time>2026-04-18T14:27:36.982Z</time></trkpt><trkpt lat="43.46788766666667" lon="10.606997999999999"><ele>574.0</ele><time>2026-04-18T14:27:39.001Z</time></trkpt><trkpt lat="43.467956666666666" lon="10.606910999999998"><ele>574.0</ele><time>2026-04-18T14:27:41.013Z</time></trkpt><trkpt lat="43.46801666666667" lon="10.606835499999999"><ele>574.6666666666667</ele><time>2026-04-18T14:27:42.989Z</time></trkpt><trkpt lat="43.468040833333326" lon="10.606755166666668"><ele>575.3333333333334</ele><time>2026-04-18T14:27:45.027Z</time></trkpt><trkpt lat="43.468056499999996" lon="10.606631166666666"><ele>576.0</ele><time>2026-04-18T14:27:46.991Z</time></trkpt><trkpt lat="43.4680715" lon="10.606546166666664"><ele>576.6666666666666</ele><time>2026-04-18T14:27:47.996Z</time></trkpt><trkpt lat="43.46808483333333" lon="10.6064585"><ele>577.3333333333333</ele><time>2026-04-18T14:27:49.99Z</time></trkpt><trkpt lat="43.46808850000001" lon="10.606331666666666"><ele>578.0</ele><time>2026-04-18T14:27:51.99Z</time></trkpt><trkpt lat="43.468076833333335" lon="10.606150666666668"><ele>578.6</ele><time>2026-04-18T14:27:53.981Z</time></trkpt><trkpt lat="43.46807583333332" lon="10.606037499999998"><ele>579.1999999999999</ele><time>2026-04-18T14:27:55.998Z</time></trkpt><trkpt lat="43.46809566666667" lon="10.6058645"><ele>579.8</ele><time>2026-04-18T14:27:58.009Z</time></trkpt><trkpt lat="43.46811266666667" lon="10.605717499999999"><ele>580.4</ele><time>2026-04-18T14:27:59.986Z</time></trkpt><trkpt lat="43.468111833333325" lon="10.605562166666667"><ele>581.0</ele><time>2026-04-18T14:28:02.003Z</time></trkpt><trkpt lat="43.468105833333325" lon="10.605446666666667"><ele>581.2</ele><time>2026-04-18T14:28:03.987Z</time></trkpt><trkpt lat="43.46808616666667" lon="10.605257"><ele>581.4000000000001</ele><time>2026-04-18T14:28:06.014Z</time></trkpt><trkpt lat="43.46805416666667" lon="10.60512216666667"><ele>581.6</ele><time>2026-04-18T14:28:07.993Z</time></trkpt><trkpt lat="43.468033500000004" lon="10.604990166666669"><ele>581.8000000000001</ele><time>2026-04-18T14:28:10.028Z</time></trkpt><trkpt lat="43.468028833333335" lon="10.6048785"><ele>582.0</ele><time>2026-04-18T14:28:11.987Z</time></trkpt><trkpt lat="43.46802133333334" lon="10.604786000000002"><ele>582.0</ele><time>2026-04-18T14:28:14.997Z</time></trkpt><trkpt lat="43.46804099999999" lon="10.6046745"><ele>582.0</ele><time>2026-04-18T14:28:17.994Z</time></trkpt><trkpt lat="43.468072666666664" lon="10.604573"><ele>582.0</ele><time>2026-04-18T14:28:19.982Z</time></trkpt><trkpt lat="43.46808883333333" lon="10.604442166666667"><ele>582.0</ele><time>2026-04-18T14:28:21.982Z</time></trkpt><trkpt lat="43.4681255" lon="10.60436533333333"><ele>582.0</ele><time>2026-04-18T14:28:23.99Z</time></trkpt><trkpt lat="43.46820016666667" lon="10.604284833333335"><ele>582.0</ele><time>2026-04-18T14:28:26.999Z</time></trkpt><trkpt lat="43.468267166666664" lon="10.604219666666665"><ele>581.6666666666666</ele><time>2026-04-18T14:28:28.991Z</time></trkpt><trkpt lat="43.46833916666666" lon="10.604165833333331"><ele>581.3333333333334</ele><time>2026-04-18T14:28:30.987Z</time></trkpt><trkpt lat="43.46840383333333" lon="10.604097333333334"><ele>581.0</ele><time>2026-04-18T14:28:32.987Z</time></trkpt><trkpt lat="43.468426833333325" lon="10.603996166666665"><ele>580.6666666666667</ele><time>2026-04-18T14:28:35.007Z</time></trkpt><trkpt lat="43.46842316666667" lon="10.603882666666669"><ele>580.3333333333334</ele><time>2026-04-18T14:28:36.995Z</time></trkpt><trkpt lat="43.468404166666666" lon="10.603757833333335"><ele>580.0</ele><time>2026-04-18T14:28:38.99Z</time></trkpt><trkpt lat="43.468381666666666" lon="10.603628666666667"><ele>580.0</ele><time>2026-04-18T14:28:40.985Z</time></trkpt><trkpt lat="43.46835666666666" lon="10.603492833333334"><ele>580.0</ele><time>2026-04-18T14:28:42.991Z</time></trkpt><trkpt lat="43.468333833333325" lon="10.603394"><ele>580.0</ele><time>2026-04-18T14:28:44.99Z</time></trkpt><trkpt lat="43.46830033333334" lon="10.603272833333332"><ele>580.0</ele><time>2026-04-18T14:28:46.99Z</time></trkpt><trkpt lat="43.46828166666666" lon="10.6031805"><ele>580.0</ele><time>2026-04-18T14:28:48.004Z</time></trkpt><trkpt lat="43.4682635" lon="10.603057833333333"><ele>580.0</ele><time>2026-04-18T14:28:49.986Z</time></trkpt><trkpt lat="43.46825916666667" lon="10.602950833333333"><ele>580.0</ele><time>2026-04-18T14:28:51.998Z</time></trkpt><trkpt lat="43.4683115" lon="10.602874166666668"><ele>580.0</ele><time>2026-04-18T14:28:53.994Z</time></trkpt><trkpt lat="43.46840866666666" lon="10.6029"><ele>580.0</ele><time>2026-04-18T14:28:57.028Z</time></trkpt><trkpt lat="43.4685075" lon="10.602955499999998"><ele>580.0</ele><time>2026-04-18T14:28:58.987Z</time></trkpt><trkpt lat="43.4685675" lon="10.602986833333333"><ele>580.0</ele><time>2026-04-18T14:28:59.987Z</time></trkpt><trkpt lat="43.46865816666667" lon="10.603031333333336"><ele>580.0</ele><time>2026-04-18T14:29:01Z</time></trkpt><trkpt lat="43.46875016666666" lon="10.603073666666669"><ele>581.5</ele><time>2026-04-18T14:29:02.987Z</time></trkpt><trkpt lat="43.46881249999999" lon="10.6031025"><ele>583.0</ele><time>2026-04-18T14:29:03.985Z</time></trkpt><trkpt lat="43.468879" lon="10.603138666666666"><ele>584.5</ele><time>2026-04-18T14:29:05Z</time></trkpt><trkpt lat="43.468946833333334" lon="10.6031775"><ele>586.0</ele><time>2026-04-18T14:29:06.026Z</time></trkpt><trkpt lat="43.46905216666668" lon="10.603244166666666"><ele>587.5</ele><time>2026-04-18T14:29:06.994Z</time></trkpt><trkpt lat="43.4691605" lon="10.603317333333333"><ele>589.0</ele><time>2026-04-18T14:29:09.004Z</time></trkpt><trkpt lat="43.46926833333334" lon="10.603398666666665"><ele>589.0</ele><time>2026-04-18T14:29:10.014Z</time></trkpt><trkpt lat="43.46934266666667" lon="10.603449166666667"><ele>589.0</ele><time>2026-04-18T14:29:10.99Z</time></trkpt><trkpt lat="43.46942049999999" lon="10.603496666666668"><ele>589.0</ele><time>2026-04-18T14:29:11.987Z</time></trkpt><trkpt lat="43.46953816666667" lon="10.603570333333336"><ele>589.0</ele><time>2026-04-18T14:29:14.016Z</time></trkpt><trkpt lat="43.469614333333325" lon="10.603634333333332"><ele>589.0</ele><time>2026-04-18T14:29:14.983Z</time></trkpt><trkpt lat="43.469729166666674" lon="10.603737666666667"><ele>588.0</ele><time>2026-04-18T14:29:16.001Z</time></trkpt><trkpt lat="43.46980716666667" lon="10.603822666666668"><ele>587.0</ele><time>2026-04-18T14:29:16.987Z</time></trkpt><trkpt lat="43.46989166666667" lon="10.603882833333333"><ele>586.0</ele><time>2026-04-18T14:29:18.103Z</time></trkpt><trkpt lat="43.470025" lon="10.603950833333332"><ele>585.0</ele><time>2026-04-18T14:29:19.986Z</time></trkpt><trkpt lat="43.4701175" lon="10.603981"><ele>584.0</ele><time>2026-04-18T14:29:20.991Z</time></trkpt><trkpt lat="43.470257833333335" lon="10.604016000000003"><ele>584.0</ele><time>2026-04-18T14:29:22.002Z</time></trkpt><trkpt lat="43.47039516666667" lon="10.604045833333332"><ele>584.0</ele><time>2026-04-18T14:29:23.991Z</time></trkpt><trkpt lat="43.47048283333334" lon="10.604068999999999"><ele>584.0</ele><time>2026-04-18T14:29:24.993Z</time></trkpt><trkpt lat="43.470571166666666" lon="10.604085333333334"><ele>584.0</ele><time>2026-04-18T14:29:25.991Z</time></trkpt><trkpt lat="43.470661166666666" lon="10.604082"><ele>584.0</ele><time>2026-04-18T14:29:27.007Z</time></trkpt><trkpt lat="43.47075150000001" lon="10.604063666666665"><ele>583.6666666666666</ele><time>2026-04-18T14:29:27.995Z</time></trkpt><trkpt lat="43.470841666666665" lon="10.604040666666666"><ele>583.3333333333333</ele><time>2026-04-18T14:29:28.992Z</time></trkpt><trkpt lat="43.47093133333333" lon="10.604029666666667"><ele>583.0</ele><time>2026-04-18T14:29:29.996Z</time></trkpt><trkpt lat="43.47102116666667" lon="10.604028333333334"><ele>582.6666666666666</ele><time>2026-04-18T14:29:30.999Z</time></trkpt><trkpt lat="43.47110833333333" lon="10.604046833333333"><ele>582.3333333333334</ele><time>2026-04-18T14:29:31.99Z</time></trkpt><trkpt lat="43.471192" lon="10.604086833333334"><ele>582.0</ele><time>2026-04-18T14:29:32.982Z</time></trkpt><trkpt lat="43.4712775" lon="10.604119666666667"><ele>582.0</ele><time>2026-04-18T14:29:33.999Z</time></trkpt><trkpt lat="43.471366999999994" lon="10.604145833333332"><ele>582.0</ele><time>2026-04-18T14:29:35.003Z</time></trkpt><trkpt lat="43.471458" lon="10.604164166666665"><ele>582.0</ele><time>2026-04-18T14:29:35.994Z</time></trkpt><trkpt lat="43.47154733333333" lon="10.604163166666668"><ele>582.0</ele><time>2026-04-18T14:29:36.988Z</time></trkpt><trkpt lat="43.471629666666665" lon="10.604155666666667"><ele>582.0</ele><time>2026-04-18T14:29:38.003Z</time></trkpt><trkpt lat="43.47170466666666" lon="10.604129333333333"><ele>582.0</ele><time>2026-04-18T14:29:39.007Z</time></trkpt><trkpt lat="43.471804999999996" lon="10.604071166666666"><ele>582.0</ele><time>2026-04-18T14:29:40.031Z</time></trkpt><trkpt lat="43.471907333333334" lon="10.604032166666665"><ele>582.0</ele><time>2026-04-18T14:29:41.984Z</time></trkpt><trkpt lat="43.47201749999999" lon="10.604031166666667"><ele>582.0</ele><time>2026-04-18T14:29:42.998Z</time></trkpt><trkpt lat="43.4720845" lon="10.6040695"><ele>582.0</ele><time>2026-04-18T14:29:44.011Z</time></trkpt><trkpt lat="43.47214183333334" lon="10.604119333333333"><ele>582.0</ele><time>2026-04-18T14:29:44.993Z</time></trkpt><trkpt lat="43.47220349999999" lon="10.604248166666665"><ele>582.8000000000001</ele><time>2026-04-18T14:29:46.989Z</time></trkpt><trkpt lat="43.4722405" lon="10.604349666666668"><ele>583.6</ele><time>2026-04-18T14:29:47.995Z</time></trkpt><trkpt lat="43.47230166666667" lon="10.60451716666667"><ele>584.4000000000001</ele><time>2026-04-18T14:29:49.03Z</time></trkpt><trkpt lat="43.47234566666666" lon="10.604629833333336"><ele>585.2</ele><time>2026-04-18T14:29:49.989Z</time></trkpt><trkpt lat="43.472392000000006" lon="10.604732166666668"><ele>586.0</ele><time>2026-04-18T14:29:50.989Z</time></trkpt><trkpt lat="43.47242833333333" lon="10.604849999999999"><ele>586.0</ele><time>2026-04-18T14:29:51.999Z</time></trkpt><trkpt lat="43.47245216666666" lon="10.604975833333333"><ele>586.0</ele><time>2026-04-18T14:29:52.99Z</time></trkpt><trkpt lat="43.47246933333332" lon="10.6051015"><ele>586.0</ele><time>2026-04-18T14:29:54.001Z</time></trkpt><trkpt lat="43.47249266666666" lon="10.6052205"><ele>586.0</ele><time>2026-04-18T14:29:54.987Z</time></trkpt><trkpt lat="43.47254283333333" lon="10.605381666666666"><ele>586.0</ele><time>2026-04-18T14:29:56.992Z</time></trkpt><trkpt lat="43.47258416666667" lon="10.605479666666668"><ele>586.4</ele><time>2026-04-18T14:29:57.995Z</time></trkpt><trkpt lat="43.47264066666667" lon="10.605560166666665"><ele>586.8</ele><time>2026-04-18T14:29:58.983Z</time></trkpt><trkpt lat="43.47270833333334" lon="10.605633666666666"><ele>587.1999999999999</ele><time>2026-04-18T14:29:59.989Z</time></trkpt><trkpt lat="43.47278566666667" lon="10.6057045"><ele>587.6</ele><time>2026-04-18T14:30:01.015Z</time></trkpt><trkpt lat="43.47286850000001" lon="10.605778333333335"><ele>588.0</ele><time>2026-04-18T14:30:01.996Z</time></trkpt><trkpt lat="43.472949500000006" lon="10.605853999999999"><ele>588.0</ele><time>2026-04-18T14:30:02.996Z</time></trkpt><trkpt lat="43.47302483333333" lon="10.605933666666667"><ele>588.0</ele><time>2026-04-18T14:30:03.997Z</time></trkpt><trkpt lat="43.473133666666676" lon="10.6060445"><ele>588.0</ele><time>2026-04-18T14:30:05Z</time></trkpt><trkpt lat="43.47323683333334" lon="10.606140333333332"><ele>588.0</ele><time>2026-04-18T14:30:06.983Z</time></trkpt><trkpt lat="43.47330466666667" lon="10.606185166666668"><ele>588.0</ele><time>2026-04-18T14:30:07.991Z</time></trkpt><trkpt lat="43.473372833333336" lon="10.606211666666665"><ele>588.0</ele><time>2026-04-18T14:30:08.995Z</time></trkpt><trkpt lat="43.47344283333334" lon="10.606221333333334"><ele>588.0</ele><time>2026-04-18T14:30:10.116Z</time></trkpt><trkpt lat="43.4735165" lon="10.606210166666665"><ele>588.0</ele><time>2026-04-18T14:30:11Z</time></trkpt><trkpt lat="43.47358633333334" lon="10.606186833333334"><ele>588.0</ele><time>2026-04-18T14:30:11.987Z</time></trkpt><trkpt lat="43.47365416666667" lon="10.606165333333333"><ele>588.0</ele><time>2026-04-18T14:30:12.991Z</time></trkpt><trkpt lat="43.473733499999994" lon="10.6061495"><ele>588.0</ele><time>2026-04-18T14:30:14.022Z</time></trkpt><trkpt lat="43.473819000000006" lon="10.606155000000001"><ele>586.3333333333334</ele><time>2026-04-18T14:30:14.993Z</time></trkpt><trkpt lat="43.473910833333335" lon="10.6061615"><ele>584.6666666666666</ele><time>2026-04-18T14:30:16.059Z</time></trkpt><trkpt lat="43.474003333333336" lon="10.606161833333333"><ele>583.0</ele><time>2026-04-18T14:30:16.991Z</time></trkpt><trkpt lat="43.474090499999996" lon="10.606169000000001"><ele>581.3333333333333</ele><time>2026-04-18T14:30:18.016Z</time></trkpt><trkpt lat="43.47417466666668" lon="10.606175333333331"><ele>579.6666666666666</ele><time>2026-04-18T14:30:18.999Z</time></trkpt><trkpt lat="43.47425516666667" lon="10.606173333333334"><ele>578.0</ele><time>2026-04-18T14:30:19.983Z</time></trkpt><trkpt lat="43.47433383333333" lon="10.606149333333335"><ele>577.6666666666666</ele><time>2026-04-18T14:30:20.994Z</time></trkpt><trkpt lat="43.474415" lon="10.606129833333334"><ele>577.3333333333333</ele><time>2026-04-18T14:30:21.998Z</time></trkpt><trkpt lat="43.47450333333333" lon="10.606120166666665"><ele>577.0</ele><time>2026-04-18T14:30:23.034Z</time></trkpt><trkpt lat="43.4745925" lon="10.606119999999997"><ele>576.6666666666666</ele><time>2026-04-18T14:30:23.987Z</time></trkpt><trkpt lat="43.4746765" lon="10.606124666666664"><ele>576.3333333333334</ele><time>2026-04-18T14:30:24.992Z</time></trkpt><trkpt lat="43.47473933333334" lon="10.606134166666667"><ele>576.0</ele><time>2026-04-18T14:30:26.007Z</time></trkpt><trkpt lat="43.474828499999994" lon="10.606150999999999"><ele>576.0</ele><time>2026-04-18T14:30:27.986Z</time></trkpt><trkpt lat="43.4749195" lon="10.606175499999999"><ele>576.0</ele><time>2026-04-18T14:30:29.996Z</time></trkpt><trkpt lat="43.47497700000001" lon="10.606098000000001"><ele>576.0</ele><time>2026-04-18T14:30:48.008Z</time></trkpt><trkpt lat="43.47503283333334" lon="10.606025499999998"><ele>576.0</ele><time>2026-04-18T14:30:52.006Z</time></trkpt><trkpt lat="43.475060666666664" lon="10.605930833333332"><ele>576.0</ele><time>2026-04-18T14:30:57.014Z</time></trkpt><trkpt lat="43.4750325" lon="10.605825166666667"><ele>576.0</ele><time>2026-04-18T14:31:01.006Z</time></trkpt><trkpt lat="43.47500616666666" lon="10.605721333333333"><ele>576.1666666666666</ele><time>2026-04-18T14:31:05.016Z</time></trkpt><trkpt lat="43.4749605" lon="10.605628833333334"><ele>576.3333333333334</ele><time>2026-04-18T14:31:10.075Z</time></trkpt><trkpt lat="43.47494966666667" lon="10.605531333333333"><ele>576.5</ele><time>2026-04-18T14:31:13.003Z</time></trkpt><trkpt lat="43.474938333333334" lon="10.605437"><ele>576.6666666666667</ele><time>2026-04-18T14:31:15.983Z</time></trkpt><trkpt lat="43.47491600000001" lon="10.605341166666664"><ele>576.8333333333334</ele><time>2026-04-18T14:31:18.987Z</time></trkpt><trkpt lat="43.47489483333334" lon="10.605219833333335"><ele>577.0</ele><time>2026-04-18T14:31:22.005Z</time></trkpt><trkpt lat="43.474883500000004" lon="10.605091000000002"><ele>577.0</ele><time>2026-04-18T14:31:24.99Z</time></trkpt><trkpt lat="43.47486416666668" lon="10.604973333333332"><ele>577.0</ele><time>2026-04-18T14:31:26.993Z</time></trkpt><trkpt lat="43.4748465" lon="10.604878833333332"><ele>577.0</ele><time>2026-04-18T14:31:28.99Z</time></trkpt><trkpt lat="43.47482716666667" lon="10.6047775"><ele>577.0</ele><time>2026-04-18T14:31:31.989Z</time></trkpt><trkpt lat="43.47479416666666" lon="10.604685500000002"><ele>577.0</ele><time>2026-04-18T14:31:33.987Z</time></trkpt><trkpt lat="43.474787166666665" lon="10.604582999999998"><ele>577.0</ele><time>2026-04-18T14:31:36.992Z</time></trkpt><trkpt lat="43.474795666666665" lon="10.604496333333334"><ele>577.0</ele><time>2026-04-18T14:31:38.995Z</time></trkpt><trkpt lat="43.47480266666666" lon="10.604397666666667"><ele>577.5</ele><time>2026-04-18T14:31:40.992Z</time></trkpt><trkpt lat="43.47479750000001" lon="10.604288333333335"><ele>578.0</ele><time>2026-04-18T14:31:43.005Z</time></trkpt><trkpt lat="43.474792166666674" lon="10.604196333333334"><ele>578.5</ele><time>2026-04-18T14:31:44.995Z</time></trkpt><trkpt lat="43.474787500000005" lon="10.6040895"><ele>579.0</ele><time>2026-04-18T14:31:48.987Z</time></trkpt><trkpt lat="43.47480050000001" lon="10.603980166666666"><ele>579.5</ele><time>2026-04-18T14:31:53.003Z</time></trkpt><trkpt lat="43.474826500000006" lon="10.603857999999999"><ele>580.0</ele><time>2026-04-18T14:31:56.012Z</time></trkpt><trkpt lat="43.47484483333333" lon="10.603738500000002"><ele>579.6666666666667</ele><time>2026-04-18T14:31:58.001Z</time></trkpt><trkpt lat="43.474854333333326" lon="10.603644666666666"><ele>579.3333333333334</ele><time>2026-04-18T14:32:00.988Z</time></trkpt><trkpt lat="43.47486866666666" lon="10.603548666666665"><ele>579.0</ele><time>2026-04-18T14:32:03.988Z</time></trkpt><trkpt lat="43.474919833333324" lon="10.603444833333334"><ele>578.6666666666666</ele><time>2026-04-18T14:32:06.996Z</time></trkpt><trkpt lat="43.47498816666666" lon="10.603409500000001"><ele>578.3333333333333</ele><time>2026-04-18T14:32:09.02Z</time></trkpt><trkpt lat="43.47508566666667" lon="10.6033865"><ele>578.0</ele><time>2026-04-18T14:32:10.988Z</time></trkpt><trkpt lat="43.47517249999999" lon="10.603378666666668"><ele>578.0</ele><time>2026-04-18T14:32:13.008Z</time></trkpt><trkpt lat="43.47524033333334" lon="10.603382833333335"><ele>578.0</ele><time>2026-04-18T14:32:15.998Z</time></trkpt><trkpt lat="43.47530533333333" lon="10.603375999999999"><ele>578.0</ele><time>2026-04-18T14:32:20.988Z</time></trkpt><trkpt lat="43.47537416666667" lon="10.603360999999998"><ele>578.0</ele><time>2026-04-18T14:32:24.991Z</time></trkpt><trkpt lat="43.47546083333333" lon="10.603343333333331"><ele>578.0</ele><time>2026-04-18T14:32:27.996Z</time></trkpt><trkpt lat="43.475539833333336" lon="10.603332499999999"><ele>578.0</ele><time>2026-04-18T14:32:28.991Z</time></trkpt><trkpt lat="43.475646833333336" lon="10.603333333333333"><ele>577.5</ele><time>2026-04-18T14:32:30.995Z</time></trkpt><trkpt lat="43.4757265" lon="10.603340666666668"><ele>577.0</ele><time>2026-04-18T14:32:31.994Z</time></trkpt><trkpt lat="43.475806666666664" lon="10.603356666666665"><ele>576.5</ele><time>2026-04-18T14:32:32.984Z</time></trkpt><trkpt lat="43.475885500000004" lon="10.603382"><ele>576.0</ele><time>2026-04-18T14:32:34Z</time></trkpt><trkpt lat="43.47595816666667" lon="10.6034115"><ele>575.5</ele><time>2026-04-18T14:32:35.016Z</time></trkpt><trkpt lat="43.47602400000001" lon="10.603451666666668"><ele>575.0</ele><time>2026-04-18T14:32:35.998Z</time></trkpt><trkpt lat="43.47608466666667" lon="10.603500666666665"><ele>575.0</ele><time>2026-04-18T14:32:36.993Z</time></trkpt><trkpt lat="43.47617683333333" lon="10.603594999999999"><ele>575.0</ele><time>2026-04-18T14:32:37.999Z</time></trkpt><trkpt lat="43.4762725" lon="10.603695333333334"><ele>575.0</ele><time>2026-04-18T14:32:40.001Z</time></trkpt><trkpt lat="43.476339666666675" lon="10.6037555"><ele>575.0</ele><time>2026-04-18T14:32:41.001Z</time></trkpt><trkpt lat="43.476448166666664" lon="10.603815833333332"><ele>575.0</ele><time>2026-04-18T14:32:41.987Z</time></trkpt><trkpt lat="43.476558000000004" lon="10.603843833333334"><ele>573.6</ele><time>2026-04-18T14:32:43.992Z</time></trkpt><trkpt lat="43.4766305" lon="10.603840666666668"><ele>572.2</ele><time>2026-04-18T14:32:45.005Z</time></trkpt><trkpt lat="43.47670416666667" lon="10.603823166666666"><ele>570.8</ele><time>2026-04-18T14:32:45.992Z</time></trkpt><trkpt lat="43.47685483333333" lon="10.603756500000001"><ele>569.4</ele><time>2026-04-18T14:32:48.028Z</time></trkpt><trkpt lat="43.4769285" lon="10.603709166666665"><ele>568.0</ele><time>2026-04-18T14:32:48.996Z</time></trkpt><trkpt lat="43.47700366666667" lon="10.603665000000001"><ele>567.1666666666667</ele><time>2026-04-18T14:32:49.996Z</time></trkpt><trkpt lat="43.47708633333333" lon="10.6036335"><ele>566.3333333333334</ele><time>2026-04-18T14:32:51.001Z</time></trkpt><trkpt lat="43.47717566666667" lon="10.603612666666669"><ele>565.5</ele><time>2026-04-18T14:32:52.021Z</time></trkpt><trkpt lat="43.47726516666667" lon="10.603589333333332"><ele>564.6666666666666</ele><time>2026-04-18T14:32:52.991Z</time></trkpt><trkpt lat="43.47735383333333" lon="10.603565166666666"><ele>563.8333333333333</ele><time>2026-04-18T14:32:54.066Z</time></trkpt><trkpt lat="43.477438" lon="10.603529666666669"><ele>563.0</ele><time>2026-04-18T14:32:54.993Z</time></trkpt><trkpt lat="43.477515499999996" lon="10.603481500000003"><ele>562.0</ele><time>2026-04-18T14:32:56.014Z</time></trkpt><trkpt lat="43.47762283333333" lon="10.603374333333333"><ele>561.0</ele><time>2026-04-18T14:32:56.988Z</time></trkpt><trkpt lat="43.47776350000001" lon="10.603181666666668"><ele>560.0</ele><time>2026-04-18T14:32:58.992Z</time></trkpt><trkpt lat="43.47783833333333" lon="10.603078166666668"><ele>559.0</ele><time>2026-04-18T14:33:00.001Z</time></trkpt><trkpt lat="43.47791166666666" lon="10.602977833333334"><ele>556.6</ele><time>2026-04-18T14:33:01.036Z</time></trkpt><trkpt lat="43.47798233333333" lon="10.602887833333334"><ele>554.2</ele><time>2026-04-18T14:33:02.001Z</time></trkpt><trkpt lat="43.4780475" lon="10.602793999999998"><ele>551.8000000000001</ele><time>2026-04-18T14:33:03.001Z</time></trkpt><trkpt lat="43.47810316666667" lon="10.6026895"><ele>549.4</ele><time>2026-04-18T14:33:03.997Z</time></trkpt><trkpt lat="43.47814333333334" lon="10.602571000000001"><ele>547.0</ele><time>2026-04-18T14:33:05.027Z</time></trkpt><trkpt lat="43.478170500000004" lon="10.602440000000001"><ele>547.0</ele><time>2026-04-18T14:33:06.053Z</time></trkpt><trkpt lat="43.47820866666666" lon="10.602316666666665"><ele>547.0</ele><time>2026-04-18T14:33:06.992Z</time></trkpt><trkpt lat="43.478261499999995" lon="10.602206166666669"><ele>547.0</ele><time>2026-04-18T14:33:07.991Z</time></trkpt><trkpt lat="43.47835683333333" lon="10.60206316666667"><ele>547.0</ele><time>2026-04-18T14:33:09.997Z</time></trkpt><trkpt lat="43.47842666666667" lon="10.601983666666667"><ele>547.0</ele><time>2026-04-18T14:33:11Z</time></trkpt><trkpt lat="43.478492333333335" lon="10.601907166666669"><ele>546.6</ele><time>2026-04-18T14:33:11.99Z</time></trkpt><trkpt lat="43.47855316666667" lon="10.601833500000001"><ele>546.2</ele><time>2026-04-18T14:33:13.001Z</time></trkpt><trkpt lat="43.47865333333333" lon="10.601739666666665"><ele>545.8</ele><time>2026-04-18T14:33:14Z</time></trkpt><trkpt lat="43.47873416666667" lon="10.601700833333334"><ele>545.4</ele><time>2026-04-18T14:33:14.986Z</time></trkpt><trkpt lat="43.478820500000005" lon="10.601694666666667"><ele>545.0</ele><time>2026-04-18T14:33:15.988Z</time></trkpt><trkpt lat="43.4789045" lon="10.601718666666667"><ele>544.6</ele><time>2026-04-18T14:33:17.013Z</time></trkpt><trkpt lat="43.47898666666667" lon="10.6017475"><ele>544.2</ele><time>2026-04-18T14:33:18.028Z</time></trkpt><trkpt lat="43.47906866666667" lon="10.601756666666665"><ele>543.8</ele><time>2026-04-18T14:33:19.26Z</time></trkpt><trkpt lat="43.47922916666666" lon="10.601678166666668"><ele>543.4</ele><time>2026-04-18T14:33:20.988Z</time></trkpt><trkpt lat="43.479299499999996" lon="10.6015875"><ele>543.0</ele><time>2026-04-18T14:33:22.017Z</time></trkpt><trkpt lat="43.47936833333333" lon="10.601483"><ele>543.0</ele><time>2026-04-18T14:33:22.997Z</time></trkpt><trkpt lat="43.479442500000005" lon="10.601373333333335"><ele>543.0</ele><time>2026-04-18T14:33:23.984Z</time></trkpt><trkpt lat="43.479571166666666" lon="10.601228"><ele>543.0</ele><time>2026-04-18T14:33:26.025Z</time></trkpt><trkpt lat="43.47966216666667" lon="10.601151333333334"><ele>543.0</ele><time>2026-04-18T14:33:26.993Z</time></trkpt><trkpt lat="43.47974666666667" lon="10.601080500000002"><ele>541.1999999999999</ele><time>2026-04-18T14:33:28.008Z</time></trkpt><trkpt lat="43.479815333333335" lon="10.600998833333332"><ele>539.4</ele><time>2026-04-18T14:33:29.001Z</time></trkpt><trkpt lat="43.479858666666665" lon="10.6008945"><ele>537.5999999999999</ele><time>2026-04-18T14:33:30.008Z</time></trkpt><trkpt lat="43.479882333333336" lon="10.600773166666666"><ele>535.8</ele><time>2026-04-18T14:33:31.016Z</time></trkpt><trkpt lat="43.47989166666666" lon="10.600637333333335"><ele>534.0</ele><time>2026-04-18T14:33:32.003Z</time></trkpt><trkpt lat="43.479899833333334" lon="10.6004965"><ele>534.0</ele><time>2026-04-18T14:33:32.992Z</time></trkpt><trkpt lat="43.47991533333334" lon="10.600359333333332"><ele>534.0</ele><time>2026-04-18T14:33:34.009Z</time></trkpt><trkpt lat="43.47994383333333" lon="10.600229833333332"><ele>534.0</ele><time>2026-04-18T14:33:35.017Z</time></trkpt><trkpt lat="43.479989666666675" lon="10.600110666666668"><ele>534.0</ele><time>2026-04-18T14:33:36.06Z</time></trkpt><trkpt lat="43.48004933333333" lon="10.600001666666667"><ele>534.0</ele><time>2026-04-18T14:33:37.002Z</time></trkpt><trkpt lat="43.48012" lon="10.5999055"><ele>533.2</ele><time>2026-04-18T14:33:37.994Z</time></trkpt><trkpt lat="43.48019949999999" lon="10.599822166666668"><ele>532.4</ele><time>2026-04-18T14:33:39.021Z</time></trkpt><trkpt lat="43.48028566666667" lon="10.599752166666667"><ele>531.6</ele><time>2026-04-18T14:33:39.997Z</time></trkpt><trkpt lat="43.48037850000001" lon="10.599698166666668"><ele>530.8</ele><time>2026-04-18T14:33:40.997Z</time></trkpt><trkpt lat="43.480475999999996" lon="10.599653"><ele>530.0</ele><time>2026-04-18T14:33:41.985Z</time></trkpt><trkpt lat="43.48057716666668" lon="10.599613499999998"><ele>529.2</ele><time>2026-04-18T14:33:43.024Z</time></trkpt><trkpt lat="43.48068150000001" lon="10.599576833333334"><ele>528.4</ele><time>2026-04-18T14:33:43.987Z</time></trkpt><trkpt lat="43.480783833333334" lon="10.599541833333335"><ele>527.6</ele><time>2026-04-18T14:33:45.001Z</time></trkpt><trkpt lat="43.480879" lon="10.5995095"><ele>526.8</ele><time>2026-04-18T14:33:45.989Z</time></trkpt><trkpt lat="43.48097016666667" lon="10.5994835"><ele>526.0</ele><time>2026-04-18T14:33:47.006Z</time></trkpt><trkpt lat="43.48105483333334" lon="10.5994555"><ele>525.4</ele><time>2026-04-18T14:33:48.029Z</time></trkpt><trkpt lat="43.48113516666667" lon="10.599424833333334"><ele>524.8</ele><time>2026-04-18T14:33:48.993Z</time></trkpt><trkpt lat="43.481218000000005" lon="10.599393166666669"><ele>524.1999999999999</ele><time>2026-04-18T14:33:49.995Z</time></trkpt><trkpt lat="43.48130316666667" lon="10.599367666666668"><ele>523.6</ele><time>2026-04-18T14:33:51.004Z</time></trkpt><trkpt lat="43.48139249999999" lon="10.599353"><ele>523.0</ele><time>2026-04-18T14:33:52.017Z</time></trkpt><trkpt lat="43.481532" lon="10.599346166666665"><ele>519.3333333333334</ele><time>2026-04-18T14:33:52.991Z</time></trkpt><trkpt lat="43.48163066666666" lon="10.599342333333334"><ele>515.6666666666666</ele><time>2026-04-18T14:33:53.992Z</time></trkpt><trkpt lat="43.481832000000004" lon="10.599326666666665"><ele>512.0</ele><time>2026-04-18T14:33:56.022Z</time></trkpt><trkpt lat="43.48198166666666" lon="10.599313166666665"><ele>512.0</ele><time>2026-04-18T14:33:57.994Z</time></trkpt><trkpt lat="43.482081833333325" lon="10.599320666666666"><ele>512.0</ele><time>2026-04-18T14:33:59.004Z</time></trkpt><trkpt lat="43.48218416666667" lon="10.599338333333332"><ele>512.0</ele><time>2026-04-18T14:33:59.991Z</time></trkpt><trkpt lat="43.48234333333333" lon="10.599399666666667"><ele>512.0</ele><time>2026-04-18T14:34:01.001Z</time></trkpt><trkpt lat="43.482453666666665" lon="10.599457666666668"><ele>508.25</ele><time>2026-04-18T14:34:01.989Z</time></trkpt><trkpt lat="43.4825635" lon="10.599524333333333"><ele>504.5</ele><time>2026-04-18T14:34:03Z</time></trkpt><trkpt lat="43.482726166666666" lon="10.599621833333332"><ele>500.75</ele><time>2026-04-18T14:34:04.989Z</time></trkpt><trkpt lat="43.4828315" lon="10.599680833333332"><ele>497.0</ele><time>2026-04-18T14:34:06Z</time></trkpt><trkpt lat="43.48293350000001" lon="10.599737999999997"><ele>497.0</ele><time>2026-04-18T14:34:06.997Z</time></trkpt><trkpt lat="43.48303133333334" lon="10.599791333333334"><ele>497.00000000000006</ele><time>2026-04-18T14:34:08.001Z</time></trkpt><trkpt lat="43.48312366666668" lon="10.599841499999998"><ele>497.00000000000006</ele><time>2026-04-18T14:34:08.998Z</time></trkpt><trkpt lat="43.483214" lon="10.599891666666666"><ele>497.0</ele><time>2026-04-18T14:34:10.002Z</time></trkpt><trkpt lat="43.483304833333335" lon="10.599937666666666"><ele>497.0</ele><time>2026-04-18T14:34:11.003Z</time></trkpt><trkpt lat="43.48339599999999" lon="10.599980333333333"><ele>497.0</ele><time>2026-04-18T14:34:12.006Z</time></trkpt><trkpt lat="43.483489999999996" lon="10.600018666666664"><ele>497.00000000000006</ele><time>2026-04-18T14:34:13.011Z</time></trkpt><trkpt lat="43.48358616666666" lon="10.600049666666667"><ele>497.00000000000006</ele><time>2026-04-18T14:34:14.001Z</time></trkpt><trkpt lat="43.48368366666667" lon="10.6000705"><ele>497.0</ele><time>2026-04-18T14:34:14.993Z</time></trkpt><trkpt lat="43.48378299999999" lon="10.600075499999999"><ele>497.0</ele><time>2026-04-18T14:34:15.986Z</time></trkpt><trkpt lat="43.48388249999999" lon="10.600071833333333"><ele>498.20000000000005</ele><time>2026-04-18T14:34:17.012Z</time></trkpt><trkpt lat="43.48398383333333" lon="10.600063666666665"><ele>499.40000000000003</ele><time>2026-04-18T14:34:17.985Z</time></trkpt><trkpt lat="43.48408866666667" lon="10.600050666666668"><ele>500.59999999999997</ele><time>2026-04-18T14:34:18.989Z</time></trkpt><trkpt lat="43.48419533333334" lon="10.600040166666666"><ele>501.79999999999995</ele><time>2026-04-18T14:34:19.99Z</time></trkpt><trkpt lat="43.48430533333334" lon="10.600020833333334"><ele>503.0</ele><time>2026-04-18T14:34:20.996Z</time></trkpt><trkpt lat="43.48442" lon="10.600006166666667"><ele>503.0</ele><time>2026-04-18T14:34:21.987Z</time></trkpt><trkpt lat="43.484536" lon="10.599995666666667"><ele>503.0</ele><time>2026-04-18T14:34:22.997Z</time></trkpt><trkpt lat="43.484652499999996" lon="10.5999835"><ele>503.0</ele><time>2026-04-18T14:34:23.989Z</time></trkpt><trkpt lat="43.48476866666667" lon="10.599971166666668"><ele>503.0</ele><time>2026-04-18T14:34:25.011Z</time></trkpt><trkpt lat="43.48488233333334" lon="10.599954833333335"><ele>503.3333333333333</ele><time>2026-04-18T14:34:26.042Z</time></trkpt><trkpt lat="43.484989500000005" lon="10.599932666666666"><ele>503.66666666666663</ele><time>2026-04-18T14:34:26.984Z</time></trkpt><trkpt lat="43.48508683333333" lon="10.599903333333334"><ele>504.0</ele><time>2026-04-18T14:34:27.991Z</time></trkpt><trkpt lat="43.4851735" lon="10.599866999999998"><ele>504.33333333333337</ele><time>2026-04-18T14:34:28.989Z</time></trkpt><trkpt lat="43.485249666666675" lon="10.599832666666668"><ele>504.6666666666667</ele><time>2026-04-18T14:34:30.001Z</time></trkpt><trkpt lat="43.48531566666667" lon="10.599799166666665"><ele>505.0</ele><time>2026-04-18T14:34:31.043Z</time></trkpt><trkpt lat="43.48537883333333" lon="10.5997705"><ele>505.33333333333337</ele><time>2026-04-18T14:34:31.986Z</time></trkpt><trkpt lat="43.48544183333333" lon="10.599740000000002"><ele>505.6666666666667</ele><time>2026-04-18T14:34:33.012Z</time></trkpt><trkpt lat="43.48550650000001" lon="10.599708166666668"><ele>506.0</ele><time>2026-04-18T14:34:34.023Z</time></trkpt><trkpt lat="43.485573" lon="10.599677166666668"><ele>506.33333333333337</ele><time>2026-04-18T14:34:34.986Z</time></trkpt><trkpt lat="43.48564083333334" lon="10.599647999999997"><ele>506.6666666666667</ele><time>2026-04-18T14:34:35.992Z</time></trkpt><trkpt lat="43.485713" lon="10.599625499999998"><ele>507.0</ele><time>2026-04-18T14:34:36.984Z</time></trkpt><trkpt lat="43.485833500000005" lon="10.599613833333335"><ele>507.0</ele><time>2026-04-18T14:34:38.001Z</time></trkpt><trkpt lat="43.485921166666664" lon="10.5996095"><ele>507.00000000000006</ele><time>2026-04-18T14:34:38.994Z</time></trkpt><trkpt lat="43.486014499999996" lon="10.599613333333332"><ele>507.00000000000006</ele><time>2026-04-18T14:34:40.025Z</time></trkpt><trkpt lat="43.48611316666667" lon="10.599624333333335"><ele>507.0</ele><time>2026-04-18T14:34:40.985Z</time></trkpt><trkpt lat="43.486214999999994" lon="10.599644000000001"><ele>507.0</ele><time>2026-04-18T14:34:41.996Z</time></trkpt><trkpt lat="43.48631866666666" lon="10.599667666666669"><ele>506.0</ele><time>2026-04-18T14:34:42.991Z</time></trkpt><trkpt lat="43.486421166666666" lon="10.599691166666664"><ele>505.00000000000006</ele><time>2026-04-18T14:34:43.985Z</time></trkpt><trkpt lat="43.486521333333336" lon="10.599710666666665"><ele>504.00000000000006</ele><time>2026-04-18T14:34:44.993Z</time></trkpt><trkpt lat="43.48661933333333" lon="10.599720999999999"><ele>503.0</ele><time>2026-04-18T14:34:45.997Z</time></trkpt><trkpt lat="43.48671516666666" lon="10.599714666666667"><ele>502.0</ele><time>2026-04-18T14:34:47.017Z</time></trkpt><trkpt lat="43.48685583333333" lon="10.599671"><ele>502.0</ele><time>2026-04-18T14:34:48.99Z</time></trkpt><trkpt lat="43.48694366666667" lon="10.599611833333332"><ele>502.00000000000006</ele><time>2026-04-18T14:34:49.988Z</time></trkpt><trkpt lat="43.48702750000001" lon="10.599533333333333"><ele>502.00000000000006</ele><time>2026-04-18T14:34:51.014Z</time></trkpt><trkpt lat="43.48711016666666" lon="10.599437666666667"><ele>502.0</ele><time>2026-04-18T14:34:51.989Z</time></trkpt><trkpt lat="43.48719316666667" lon="10.599325666666667"><ele>502.0</ele><time>2026-04-18T14:34:52.99Z</time></trkpt><trkpt lat="43.48727883333333" lon="10.599204999999998"><ele>499.33333333333337</ele><time>2026-04-18T14:34:54.005Z</time></trkpt><trkpt lat="43.48736616666667" lon="10.599085333333335"><ele>496.66666666666663</ele><time>2026-04-18T14:34:54.989Z</time></trkpt><trkpt lat="43.48749183333332" lon="10.5989095"><ele>494.0</ele><time>2026-04-18T14:34:55.998Z</time></trkpt><trkpt lat="43.487631166666674" lon="10.598664"><ele>493.25</ele><time>2026-04-18T14:34:57.991Z</time></trkpt><trkpt lat="43.48768116666667" lon="10.598527666666667"><ele>492.5</ele><time>2026-04-18T14:34:59.002Z</time></trkpt><trkpt lat="43.487751499999995" lon="10.598320500000002"><ele>491.75</ele><time>2026-04-18T14:35:00.996Z</time></trkpt><trkpt lat="43.48780083333333" lon="10.598188333333335"><ele>491.0</ele><time>2026-04-18T14:35:01.997Z</time></trkpt><trkpt lat="43.48785816666667" lon="10.598063999999999"><ele>491.66666666666663</ele><time>2026-04-18T14:35:03.006Z</time></trkpt><trkpt lat="43.4879615" lon="10.5979005"><ele>492.33333333333337</ele><time>2026-04-18T14:35:04.018Z</time></trkpt><trkpt lat="43.488037333333324" lon="10.597809"><ele>493.0</ele><time>2026-04-18T14:35:05.006Z</time></trkpt><trkpt lat="43.488182666666674" lon="10.597628"><ele>493.4</ele><time>2026-04-18T14:35:06.998Z</time></trkpt><trkpt lat="43.488251000000005" lon="10.597535666666667"><ele>493.79999999999995</ele><time>2026-04-18T14:35:08.006Z</time></trkpt><trkpt lat="43.488311833333334" lon="10.5974445"><ele>494.2</ele><time>2026-04-18T14:35:09.028Z</time></trkpt><trkpt lat="43.48836366666666" lon="10.597346333333332"><ele>494.6</ele><time>2026-04-18T14:35:10.001Z</time></trkpt><trkpt lat="43.488406" lon="10.597239666666667"><ele>495.0</ele><time>2026-04-18T14:35:11.001Z</time></trkpt><trkpt lat="43.488444333333334" lon="10.597123500000002"><ele>495.0</ele><time>2026-04-18T14:35:12.014Z</time></trkpt><trkpt lat="43.488488999999994" lon="10.597002833333335"><ele>495.0</ele><time>2026-04-18T14:35:13.022Z</time></trkpt><trkpt lat="43.488542333333335" lon="10.596878"><ele>495.0</ele><time>2026-04-18T14:35:13.997Z</time></trkpt><trkpt lat="43.48860183333333" lon="10.596748999999999"><ele>495.0</ele><time>2026-04-18T14:35:14.995Z</time></trkpt><trkpt lat="43.48866866666667" lon="10.596630000000001"><ele>495.0</ele><time>2026-04-18T14:35:16.003Z</time></trkpt><trkpt lat="43.48874099999999" lon="10.596522999999998"><ele>494.4</ele><time>2026-04-18T14:35:17.017Z</time></trkpt><trkpt lat="43.48882400000001" lon="10.596437166666666"><ele>493.8</ele><time>2026-04-18T14:35:17.997Z</time></trkpt><trkpt lat="43.4889615" lon="10.596365500000001"><ele>493.20000000000005</ele><time>2026-04-18T14:35:19.999Z</time></trkpt><trkpt lat="43.48905283333333" lon="10.596363666666665"><ele>492.6</ele><time>2026-04-18T14:35:21.014Z</time></trkpt><trkpt lat="43.48914033333334" lon="10.596391999999998"><ele>492.0</ele><time>2026-04-18T14:35:22.037Z</time></trkpt><trkpt lat="43.4892235" lon="10.596435333333332"><ele>492.0</ele><time>2026-04-18T14:35:22.99Z</time></trkpt><trkpt lat="43.48930416666667" lon="10.596473"><ele>492.0</ele><time>2026-04-18T14:35:23.995Z</time></trkpt><trkpt lat="43.489388" lon="10.596501833333331"><ele>492.0</ele><time>2026-04-18T14:35:25.013Z</time></trkpt><trkpt lat="43.48947516666667" lon="10.596521166666665"><ele>492.0</ele><time>2026-04-18T14:35:25.988Z</time></trkpt><trkpt lat="43.48956666666667" lon="10.596537499999998"><ele>492.0</ele><time>2026-04-18T14:35:26.997Z</time></trkpt><trkpt lat="43.4896615" lon="10.596546999999997"><ele>492.0</ele><time>2026-04-18T14:35:28.012Z</time></trkpt><trkpt lat="43.48975766666668" lon="10.596554833333334"><ele>492.0</ele><time>2026-04-18T14:35:29.003Z</time></trkpt><trkpt lat="43.48989733333333" lon="10.596552333333333"><ele>492.0</ele><time>2026-04-18T14:35:29.999Z</time></trkpt><trkpt lat="43.4900275" lon="10.596495999999998"><ele>492.0</ele><time>2026-04-18T14:35:31.994Z</time></trkpt><trkpt lat="43.49011183333334" lon="10.596441333333333"><ele>492.0</ele><time>2026-04-18T14:35:33.003Z</time></trkpt><trkpt lat="43.49020166666666" lon="10.596386833333336"><ele>492.0</ele><time>2026-04-18T14:35:33.986Z</time></trkpt><trkpt lat="43.49029533333334" lon="10.596343666666668"><ele>492.00000000000006</ele><time>2026-04-18T14:35:34.998Z</time></trkpt><trkpt lat="43.49038733333333" lon="10.596315166666665"><ele>492.00000000000006</ele><time>2026-04-18T14:35:35.985Z</time></trkpt><trkpt lat="43.490478" lon="10.596308166666665"><ele>492.0</ele><time>2026-04-18T14:35:37.002Z</time></trkpt><trkpt lat="43.49057116666666" lon="10.596321333333332"><ele>492.0</ele><time>2026-04-18T14:35:38.031Z</time></trkpt><trkpt lat="43.49066583333333" lon="10.596339"><ele>491.6</ele><time>2026-04-18T14:35:39.002Z</time></trkpt><trkpt lat="43.49076166666667" lon="10.596350833333334"><ele>491.20000000000005</ele><time>2026-04-18T14:35:39.995Z</time></trkpt><trkpt lat="43.490858333333335" lon="10.596358666666665"><ele>490.8</ele><time>2026-04-18T14:35:40.999Z</time></trkpt><trkpt lat="43.49095333333333" lon="10.596360666666666"><ele>490.4</ele><time>2026-04-18T14:35:41.998Z</time></trkpt><trkpt lat="43.49104716666667" lon="10.596360333333333"><ele>490.0</ele><time>2026-04-18T14:35:43.03Z</time></trkpt><trkpt lat="43.49114133333334" lon="10.596363499999999"><ele>490.0</ele><time>2026-04-18T14:35:43.991Z</time></trkpt><trkpt lat="43.49123683333334" lon="10.596385166666668"><ele>490.0</ele><time>2026-04-18T14:35:45.002Z</time></trkpt><trkpt lat="43.49133483333333" lon="10.596429"><ele>490.0</ele><time>2026-04-18T14:35:46.005Z</time></trkpt><trkpt lat="43.49148733333333" lon="10.596524666666669"><ele>490.0</ele><time>2026-04-18T14:35:47.018Z</time></trkpt><trkpt lat="43.49158366666667" lon="10.596593833333333"><ele>489.2</ele><time>2026-04-18T14:35:47.986Z</time></trkpt><trkpt lat="43.49170266666666" lon="10.596685500000001"><ele>488.4</ele><time>2026-04-18T14:35:50.006Z</time></trkpt><trkpt lat="43.49175616666667" lon="10.596742166666669"><ele>487.6</ele><time>2026-04-18T14:35:51.01Z</time></trkpt><trkpt lat="43.49180633333334" lon="10.596860499999998"><ele>486.8</ele><time>2026-04-18T14:35:52.985Z</time></trkpt><trkpt lat="43.491822000000006" lon="10.596963833333332"><ele>486.0</ele><time>2026-04-18T14:35:54.01Z</time></trkpt><trkpt lat="43.491843" lon="10.597139166666667"><ele>485.5</ele><time>2026-04-18T14:35:56.003Z</time></trkpt><trkpt lat="43.491861166666666" lon="10.597238833333332"><ele>485.0</ele><time>2026-04-18T14:35:56.995Z</time></trkpt><trkpt lat="43.4918865" lon="10.597339666666668"><ele>484.5</ele><time>2026-04-18T14:35:58.003Z</time></trkpt><trkpt lat="43.49190749999999" lon="10.597445333333335"><ele>484.0</ele><time>2026-04-18T14:35:59.005Z</time></trkpt><trkpt lat="43.49192216666667" lon="10.597553333333334"><ele>483.5</ele><time>2026-04-18T14:36:00.022Z</time></trkpt><trkpt lat="43.49193333333332" lon="10.597663833333336"><ele>483.0</ele><time>2026-04-18T14:36:00.994Z</time></trkpt><trkpt lat="43.49194633333333" lon="10.597774666666664"><ele>481.2</ele><time>2026-04-18T14:36:01.989Z</time></trkpt><trkpt lat="43.49196216666666" lon="10.597885"><ele>479.4</ele><time>2026-04-18T14:36:03.007Z</time></trkpt><trkpt lat="43.49199983333333" lon="10.598091833333335"><ele>477.59999999999997</ele><time>2026-04-18T14:36:04.993Z</time></trkpt><trkpt lat="43.49200916666667" lon="10.598241"><ele>475.79999999999995</ele><time>2026-04-18T14:36:06.994Z</time></trkpt><trkpt lat="43.49199900000001" lon="10.598336333333334"><ele>474.0</ele><time>2026-04-18T14:36:08.023Z</time></trkpt><trkpt lat="43.49197683333333" lon="10.598482000000002"><ele>474.0</ele><time>2026-04-18T14:36:08.99Z</time></trkpt><trkpt lat="43.49195383333334" lon="10.598629833333334"><ele>474.0</ele><time>2026-04-18T14:36:10.99Z</time></trkpt><trkpt lat="43.491937666666665" lon="10.598725833333333"><ele>474.0</ele><time>2026-04-18T14:36:12.007Z</time></trkpt><trkpt lat="43.4919145" lon="10.598868"><ele>474.0</ele><time>2026-04-18T14:36:12.99Z</time></trkpt><trkpt lat="43.491903" lon="10.598964833333334"><ele>474.0</ele><time>2026-04-18T14:36:13.999Z</time></trkpt><trkpt lat="43.4919045" lon="10.599064833333333"><ele>474.0</ele><time>2026-04-18T14:36:14.995Z</time></trkpt><trkpt lat="43.491913333333336" lon="10.599167166666666"><ele>473.0</ele><time>2026-04-18T14:36:16.007Z</time></trkpt><trkpt lat="43.49191933333333" lon="10.59927"><ele>472.0</ele><time>2026-04-18T14:36:17.012Z</time></trkpt><trkpt lat="43.4919175" lon="10.599372"><ele>471.0</ele><time>2026-04-18T14:36:17.986Z</time></trkpt><trkpt lat="43.491913333333336" lon="10.599521166666667"><ele>470.0</ele><time>2026-04-18T14:36:19.999Z</time></trkpt><trkpt lat="43.491921000000005" lon="10.599617666666667"><ele>469.0</ele><time>2026-04-18T14:36:21.011Z</time></trkpt><trkpt lat="43.491961499999995" lon="10.599756166666667"><ele>468.0</ele><time>2026-04-18T14:36:21.999Z</time></trkpt><trkpt lat="43.492041" lon="10.599873833333334"><ele>467.8333333333333</ele><time>2026-04-18T14:36:24.002Z</time></trkpt><trkpt lat="43.492112500000005" lon="10.599931166666666"><ele>467.66666666666663</ele><time>2026-04-18T14:36:25.009Z</time></trkpt><trkpt lat="43.492191000000005" lon="10.599973666666665"><ele>467.5</ele><time>2026-04-18T14:36:25.993Z</time></trkpt><trkpt lat="43.492262333333336" lon="10.600022999999998"><ele>467.3333333333333</ele><time>2026-04-18T14:36:26.994Z</time></trkpt><trkpt lat="43.49233666666667" lon="10.600126666666664"><ele>467.16666666666663</ele><time>2026-04-18T14:36:29.006Z</time></trkpt><trkpt lat="43.492373666666666" lon="10.600204666666666"><ele>467.0</ele><time>2026-04-18T14:36:30.995Z</time></trkpt><trkpt lat="43.49240533333333" lon="10.600312333333333"><ele>466.20000000000005</ele><time>2026-04-18T14:36:53.995Z</time></trkpt><trkpt lat="43.492420166666676" lon="10.600410833333335"><ele>465.40000000000003</ele><time>2026-04-18T14:36:56Z</time></trkpt><trkpt lat="43.492475833333344" lon="10.6005685"><ele>464.59999999999997</ele><time>2026-04-18T14:36:57.998Z</time></trkpt><trkpt lat="43.49253383333333" lon="10.600663166666667"><ele>463.79999999999995</ele><time>2026-04-18T14:36:59.991Z</time></trkpt><trkpt lat="43.492648499999994" lon="10.600812499999998"><ele>463.0</ele><time>2026-04-18T14:37:02.001Z</time></trkpt><trkpt lat="43.49271583333333" lon="10.600905833333336"><ele>463.0</ele><time>2026-04-18T14:37:04.033Z</time></trkpt><trkpt lat="43.492784666666665" lon="10.600995000000001"><ele>462.99999999999994</ele><time>2026-04-18T14:37:04.99Z</time></trkpt><trkpt lat="43.49286183333333" lon="10.601069500000003"><ele>462.99999999999994</ele><time>2026-04-18T14:37:07.003Z</time></trkpt><trkpt lat="43.49300366666666" lon="10.601170500000002"><ele>463.0</ele><time>2026-04-18T14:37:09.005Z</time></trkpt><trkpt lat="43.49306583333334" lon="10.6012055"><ele>463.0</ele><time>2026-04-18T14:37:09.995Z</time></trkpt><trkpt lat="43.49312683333332" lon="10.601241333333334"><ele>463.50000000000006</ele><time>2026-04-18T14:37:10.999Z</time></trkpt><trkpt lat="43.49318566666667" lon="10.601279499999999"><ele>464.0</ele><time>2026-04-18T14:37:12.01Z</time></trkpt><trkpt lat="43.493240500000006" lon="10.601325833333332"><ele>464.5</ele><time>2026-04-18T14:37:12.998Z</time></trkpt><trkpt lat="43.493346" lon="10.601445833333331"><ele>465.0</ele><time>2026-04-18T14:37:15.088Z</time></trkpt><trkpt lat="43.493401" lon="10.601510666666664"><ele>465.50000000000006</ele><time>2026-04-18T14:37:16.007Z</time></trkpt><trkpt lat="43.49345633333334" lon="10.601577500000001"><ele>466.0</ele><time>2026-04-18T14:37:17.009Z</time></trkpt><trkpt lat="43.493513666666665" lon="10.601642"><ele>466.00000000000006</ele><time>2026-04-18T14:37:17.997Z</time></trkpt><trkpt lat="43.4935875" lon="10.601750000000001"><ele>466.0</ele><time>2026-04-18T14:37:19.996Z</time></trkpt><trkpt lat="43.493629666666656" lon="10.60182883333333"><ele>466.0</ele><time>2026-04-18T14:37:21.031Z</time></trkpt><trkpt lat="43.49366533333334" lon="10.601912333333331"><ele>466.0</ele><time>2026-04-18T14:37:21.992Z</time></trkpt><trkpt lat="43.49369499999999" lon="10.601998499999999"><ele>466.00000000000006</ele><time>2026-04-18T14:37:23Z</time></trkpt><trkpt lat="43.49372616666667" lon="10.602134000000001"><ele>466.0</ele><time>2026-04-18T14:37:24.005Z</time></trkpt><trkpt lat="43.49373933333333" lon="10.602228166666665"><ele>466.6</ele><time>2026-04-18T14:37:25.027Z</time></trkpt><trkpt lat="43.49374766666667" lon="10.602323"><ele>467.20000000000005</ele><time>2026-04-18T14:37:26.003Z</time></trkpt><trkpt lat="43.49376383333333" lon="10.602512666666666"><ele>467.79999999999995</ele><time>2026-04-18T14:37:28.007Z</time></trkpt><trkpt lat="43.493778000000006" lon="10.602607333333331"><ele>468.4</ele><time>2026-04-18T14:37:29.019Z</time></trkpt><trkpt lat="43.493790666666676" lon="10.602697666666666"><ele>469.0</ele><time>2026-04-18T14:37:30.041Z</time></trkpt><trkpt lat="43.493820166666666" lon="10.602864166666665"><ele>469.0</ele><time>2026-04-18T14:37:32.079Z</time></trkpt><trkpt lat="43.493888166666665" lon="10.602996000000001"><ele>469.0</ele><time>2026-04-18T14:37:34.043Z</time></trkpt><trkpt lat="43.49394283333333" lon="10.603089"><ele>469.0</ele><time>2026-04-18T14:37:35.995Z</time></trkpt><trkpt lat="43.494014666666665" lon="10.603227666666664"><ele>469.0</ele><time>2026-04-18T14:37:38.03Z</time></trkpt><trkpt lat="43.49405050000001" lon="10.603300166666667"><ele>469.0</ele><time>2026-04-18T14:37:38.998Z</time></trkpt><trkpt lat="43.49408816666667" lon="10.603370333333332"><ele>469.0</ele><time>2026-04-18T14:37:39.987Z</time></trkpt><trkpt lat="43.49419249999999" lon="10.603530166666665"><ele>469.0</ele><time>2026-04-18T14:37:42.021Z</time></trkpt><trkpt lat="43.494265" lon="10.603631166666664"><ele>469.0</ele><time>2026-04-18T14:37:43.992Z</time></trkpt><trkpt lat="43.494309" lon="10.603693833333333"><ele>469.0</ele><time>2026-04-18T14:37:46.996Z</time></trkpt><trkpt lat="43.49435233333334" lon="10.603769166666666"><ele>469.0</ele><time>2026-04-18T14:37:50.013Z</time></trkpt><trkpt lat="43.49442716666667" lon="10.6038695"><ele>469.00000000000006</ele><time>2026-04-18T14:37:51.992Z</time></trkpt><trkpt lat="43.49449633333334" lon="10.603926999999999"><ele>469.0</ele><time>2026-04-18T14:37:53.995Z</time></trkpt><trkpt lat="43.494562499999994" lon="10.603983999999999"><ele>469.0</ele><time>2026-04-18T14:37:55.995Z</time></trkpt><trkpt lat="43.49462716666667" lon="10.604038333333332"><ele>469.0</ele><time>2026-04-18T14:37:58.01Z</time></trkpt><trkpt lat="43.494695166666666" lon="10.604077333333331"><ele>469.00000000000006</ele><time>2026-04-18T14:38:00.999Z</time></trkpt><trkpt lat="43.494802" lon="10.604116500000002"><ele>469.0</ele><time>2026-04-18T14:38:04.037Z</time></trkpt><trkpt lat="43.494865" lon="10.604147"><ele>469.0</ele><time>2026-04-18T14:38:05.995Z</time></trkpt><trkpt lat="43.49495100000001" lon="10.604191333333333"><ele>469.0</ele><time>2026-04-18T14:38:08.991Z</time></trkpt><trkpt lat="43.49501000000001" lon="10.604234166666668"><ele>469.0</ele><time>2026-04-18T14:38:12.067Z</time></trkpt><trkpt lat="43.495071666666675" lon="10.604303999999999"><ele>469.0</ele><time>2026-04-18T14:38:16.004Z</time></trkpt><trkpt lat="43.4951245" lon="10.604386"><ele>469.0</ele><time>2026-04-18T14:38:18.995Z</time></trkpt><trkpt lat="43.49516216666666" lon="10.604458833333334"><ele>469.0</ele><time>2026-04-18T14:38:20.992Z</time></trkpt><trkpt lat="43.495205166666665" lon="10.604528833333331"><ele>469.0</ele><time>2026-04-18T14:38:22.998Z</time></trkpt><trkpt lat="43.49527066666666" lon="10.604602499999999"><ele>468.00000000000006</ele><time>2026-04-18T14:38:25.996Z</time></trkpt><trkpt lat="43.495321166666656" lon="10.604670333333335"><ele>467.0</ele><time>2026-04-18T14:38:29.024Z</time></trkpt><trkpt lat="43.49537416666667" lon="10.604745500000002"><ele>466.0</ele><time>2026-04-18T14:38:33.017Z</time></trkpt><trkpt lat="43.495397999999994" lon="10.604864166666669"><ele>465.0</ele><time>2026-04-18T14:38:35.992Z</time></trkpt><trkpt lat="43.495406" lon="10.60498566666667"><ele>464.00000000000006</ele><time>2026-04-18T14:38:38.003Z</time></trkpt><trkpt lat="43.49541016666667" lon="10.605127833333333"><ele>463.0</ele><time>2026-04-18T14:38:40Z</time></trkpt><trkpt lat="43.49542666666667" lon="10.605309"><ele>463.4</ele><time>2026-04-18T14:38:42.024Z</time></trkpt><trkpt lat="43.495459833333335" lon="10.605447333333332"><ele>463.79999999999995</ele><time>2026-04-18T14:38:43.997Z</time></trkpt><trkpt lat="43.495496" lon="10.605542833333333"><ele>464.2</ele><time>2026-04-18T14:38:46.008Z</time></trkpt><trkpt lat="43.495546499999996" lon="10.605699666666666"><ele>464.6</ele><time>2026-04-18T14:38:48Z</time></trkpt><trkpt lat="43.4956095" lon="10.605814500000001"><ele>465.0</ele><time>2026-04-18T14:38:50.016Z</time></trkpt><trkpt lat="43.495654333333334" lon="10.605917166666664"><ele>465.0</ele><time>2026-04-18T14:38:51.991Z</time></trkpt><trkpt lat="43.49568899999999" lon="10.606028166666666"><ele>465.0</ele><time>2026-04-18T14:38:53Z</time></trkpt><trkpt lat="43.49571383333333" lon="10.606135333333336"><ele>465.0</ele><time>2026-04-18T14:38:55.041Z</time></trkpt><trkpt lat="43.495732499999995" lon="10.606238833333334"><ele>465.0</ele><time>2026-04-18T14:38:56.988Z</time></trkpt><trkpt lat="43.4957405" lon="10.606325333333332"><ele>465.0</ele><time>2026-04-18T14:38:59.127Z</time></trkpt><trkpt lat="43.495742" lon="10.606419333333335"><ele>465.0</ele><time>2026-04-18T14:39:04.014Z</time></trkpt><trkpt lat="43.49573566666666" lon="10.606510166666665"><ele>465.0</ele><time>2026-04-18T14:39:07.995Z</time></trkpt><trkpt lat="43.49571816666666" lon="10.606601333333332"><ele>465.42857142857144</ele><time>2026-04-18T14:39:11.991Z</time></trkpt><trkpt lat="43.495708500000006" lon="10.606693499999997"><ele>465.8571428571429</ele><time>2026-04-18T14:39:16.015Z</time></trkpt><trkpt lat="43.49577233333333" lon="10.606745666666665"><ele>466.28571428571433</ele><time>2026-04-18T14:39:25.991Z</time></trkpt><trkpt lat="43.49583533333333" lon="10.606738499999999"><ele>466.7142857142857</ele><time>2026-04-18T14:39:29.996Z</time></trkpt><trkpt lat="43.49590333333334" lon="10.606745166666666"><ele>467.1428571428572</ele><time>2026-04-18T14:39:34.131Z</time></trkpt><trkpt lat="43.49597966666666" lon="10.606743333333334"><ele>467.5714285714286</ele><time>2026-04-18T14:39:38.023Z</time></trkpt><trkpt lat="43.4960715" lon="10.606743500000002"><ele>468.0</ele><time>2026-04-18T14:39:42.042Z</time></trkpt><trkpt lat="43.496161666666666" lon="10.6067515"><ele>468.0</ele><time>2026-04-18T14:39:45.01Z</time></trkpt><trkpt lat="43.49624999999999" lon="10.606765"><ele>468.0</ele><time>2026-04-18T14:39:48Z</time></trkpt><trkpt lat="43.496312" lon="10.606794833333334"><ele>468.0</ele><time>2026-04-18T14:39:50.029Z</time></trkpt><trkpt lat="43.4963835" lon="10.606912333333332"><ele>468.0</ele><time>2026-04-18T14:39:52.996Z</time></trkpt><trkpt lat="43.496393833333336" lon="10.6070155"><ele>468.0</ele><time>2026-04-18T14:39:55.004Z</time></trkpt><trkpt lat="43.496382499999996" lon="10.607143166666667"><ele>468.0</ele><time>2026-04-18T14:39:58.012Z</time></trkpt><trkpt lat="43.496362333333344" lon="10.607263333333334"><ele>467.8571428571429</ele><time>2026-04-18T14:40:01.001Z</time></trkpt><trkpt lat="43.496344" lon="10.607383333333333"><ele>467.7142857142858</ele><time>2026-04-18T14:40:03.996Z</time></trkpt><trkpt lat="43.496331999999995" lon="10.607470999999999"><ele>467.57142857142856</ele><time>2026-04-18T14:40:06.01Z</time></trkpt><trkpt lat="43.496335333333334" lon="10.607563666666666"><ele>467.42857142857144</ele><time>2026-04-18T14:40:08.005Z</time></trkpt><trkpt lat="43.496345999999996" lon="10.607655833333334"><ele>467.2857142857143</ele><time>2026-04-18T14:40:09.998Z</time></trkpt><trkpt lat="43.49635766666667" lon="10.607779500000001"><ele>467.1428571428571</ele><time>2026-04-18T14:40:12.992Z</time></trkpt><trkpt lat="43.49636516666666" lon="10.607870333333336"><ele>466.99999999999994</ele><time>2026-04-18T14:40:15.004Z</time></trkpt><trkpt lat="43.496347" lon="10.607980833333333"><ele>468.16666666666663</ele><time>2026-04-18T14:40:17.997Z</time></trkpt><trkpt lat="43.49630616666666" lon="10.608121333333335"><ele>469.3333333333333</ele><time>2026-04-18T14:40:20.02Z</time></trkpt><trkpt lat="43.496252999999996" lon="10.608217333333336"><ele>470.5</ele><time>2026-04-18T14:40:22.997Z</time></trkpt><trkpt lat="43.496201500000005" lon="10.608300999999999"><ele>471.66666666666663</ele><time>2026-04-18T14:40:26.001Z</time></trkpt><trkpt lat="43.4961485" lon="10.608377333333332"><ele>472.8333333333333</ele><time>2026-04-18T14:40:29.05Z</time></trkpt><trkpt lat="43.496103" lon="10.608469333333336"><ele>474.0</ele><time>2026-04-18T14:40:31.999Z</time></trkpt><trkpt lat="43.496083" lon="10.608570666666665"><ele>471.6</ele><time>2026-04-18T14:40:34.989Z</time></trkpt><trkpt lat="43.49607833333333" lon="10.608680166666666"><ele>469.2</ele><time>2026-04-18T14:40:38.009Z</time></trkpt><trkpt lat="43.4960585" lon="10.608823166666665"><ele>466.80000000000007</ele><time>2026-04-18T14:40:41.022Z</time></trkpt><trkpt lat="43.496010999999996" lon="10.608979333333332"><ele>464.40000000000003</ele><time>2026-04-18T14:40:44.005Z</time></trkpt><trkpt lat="43.49598016666667" lon="10.609080166666669"><ele>462.0</ele><time>2026-04-18T14:40:46.017Z</time></trkpt><trkpt lat="43.495957" lon="10.609178999999997"><ele>462.0</ele><time>2026-04-18T14:40:48.006Z</time></trkpt><trkpt lat="43.495939666666665" lon="10.609285499999999"><ele>462.0</ele><time>2026-04-18T14:40:50.029Z</time></trkpt><trkpt lat="43.49595666666667" lon="10.609424666666667"><ele>462.0</ele><time>2026-04-18T14:40:53.009Z</time></trkpt><trkpt lat="43.49599966666666" lon="10.609541000000002"><ele>462.0</ele><time>2026-04-18T14:40:55.005Z</time></trkpt><trkpt lat="43.49603950000001" lon="10.609618166666666"><ele>462.0</ele><time>2026-04-18T14:40:57.002Z</time></trkpt><trkpt lat="43.49609016666667" lon="10.609689666666668"><ele>462.0</ele><time>2026-04-18T14:41:00.005Z</time></trkpt><trkpt lat="43.49614966666666" lon="10.609768333333333"><ele>460.3333333333333</ele><time>2026-04-18T14:41:03.034Z</time></trkpt><trkpt lat="43.496204166666665" lon="10.609843333333334"><ele>458.66666666666663</ele><time>2026-04-18T14:41:04.996Z</time></trkpt><trkpt lat="43.49624816666666" lon="10.609911833333335"><ele>457.0</ele><time>2026-04-18T14:41:07.023Z</time></trkpt><trkpt lat="43.49629216666667" lon="10.609983666666668"><ele>455.3333333333333</ele><time>2026-04-18T14:41:09.997Z</time></trkpt><trkpt lat="43.49634866666667" lon="10.610059000000001"><ele>453.66666666666663</ele><time>2026-04-18T14:41:12.996Z</time></trkpt><trkpt lat="43.49640383333334" lon="10.610135"><ele>452.0</ele><time>2026-04-18T14:41:16.007Z</time></trkpt><trkpt lat="43.49646166666666" lon="10.610221666666666"><ele>452.16666666666663</ele><time>2026-04-18T14:41:19.004Z</time></trkpt><trkpt lat="43.49651716666667" lon="10.610300166666665"><ele>452.3333333333333</ele><time>2026-04-18T14:41:21.993Z</time></trkpt><trkpt lat="43.49655683333334" lon="10.610371000000002"><ele>452.5</ele><time>2026-04-18T14:41:24.993Z</time></trkpt><trkpt lat="43.49658566666667" lon="10.610455166666668"><ele>452.66666666666663</ele><time>2026-04-18T14:41:28.992Z</time></trkpt><trkpt lat="43.49664299999999" lon="10.610552333333333"><ele>452.8333333333333</ele><time>2026-04-18T14:41:46.998Z</time></trkpt><trkpt lat="43.49668783333334" lon="10.61064116666667"><ele>453.0</ele><time>2026-04-18T14:41:49.002Z</time></trkpt><trkpt lat="43.4967405" lon="10.610734666666668"><ele>452.99999999999994</ele><time>2026-04-18T14:41:50.996Z</time></trkpt><trkpt lat="43.496791833333326" lon="10.610819000000001"><ele>453.0</ele><time>2026-04-18T14:41:53.002Z</time></trkpt><trkpt lat="43.496833" lon="10.610886999999998"><ele>452.99999999999994</ele><time>2026-04-18T14:41:54.997Z</time></trkpt><trkpt lat="43.49687600000001" lon="10.610956166666664"><ele>452.99999999999994</ele><time>2026-04-18T14:41:57.002Z</time></trkpt><trkpt lat="43.496922500000004" lon="10.611035499999998"><ele>453.0</ele><time>2026-04-18T14:41:59.005Z</time></trkpt><trkpt lat="43.49696533333334" lon="10.6111365"><ele>452.99999999999994</ele><time>2026-04-18T14:42:02.026Z</time></trkpt><trkpt lat="43.496984999999995" lon="10.611231833333333"><ele>452.99999999999994</ele><time>2026-04-18T14:42:04.994Z</time></trkpt><trkpt lat="43.49699433333333" lon="10.61134816666667"><ele>450.3333333333333</ele><time>2026-04-18T14:42:07.997Z</time></trkpt><trkpt lat="43.49699566666666" lon="10.611449833333332"><ele>447.66666666666663</ele><time>2026-04-18T14:42:10.009Z</time></trkpt><trkpt lat="43.49699433333333" lon="10.611548"><ele>445.0</ele><time>2026-04-18T14:42:11.997Z</time></trkpt><trkpt lat="43.496992000000006" lon="10.6116595"><ele>442.3333333333333</ele><time>2026-04-18T14:42:15.018Z</time></trkpt><trkpt lat="43.49698983333333" lon="10.611778833333336"><ele>439.66666666666663</ele><time>2026-04-18T14:42:17.001Z</time></trkpt><trkpt lat="43.496996666666675" lon="10.6118835"><ele>437.0</ele><time>2026-04-18T14:42:18.993Z</time></trkpt><trkpt lat="43.4970285" lon="10.611983666666665"><ele>436.66666666666663</ele><time>2026-04-18T14:42:20.998Z</time></trkpt><trkpt lat="43.49706849999999" lon="10.612074833333335"><ele>436.3333333333333</ele><time>2026-04-18T14:42:22.999Z</time></trkpt><trkpt lat="43.49710383333333" lon="10.612153166666667"><ele>436.0</ele><time>2026-04-18T14:42:24.995Z</time></trkpt><trkpt lat="43.49712783333333" lon="10.612255833333332"><ele>435.66666666666663</ele><time>2026-04-18T14:42:28.022Z</time></trkpt><trkpt lat="43.4971605" lon="10.612355333333333"><ele>435.3333333333333</ele><time>2026-04-18T14:42:29.994Z</time></trkpt><trkpt lat="43.497206000000006" lon="10.612436999999998"><ele>435.0</ele><time>2026-04-18T14:42:32.018Z</time></trkpt><trkpt lat="43.497262500000005" lon="10.612509666666664"><ele>435.0</ele><time>2026-04-18T14:42:34.003Z</time></trkpt><trkpt lat="43.497323333333334" lon="10.6125655"><ele>435.0</ele><time>2026-04-18T14:42:36.007Z</time></trkpt><trkpt lat="43.497394" lon="10.612630333333334"><ele>435.0</ele><time>2026-04-18T14:42:39.002Z</time></trkpt><trkpt lat="43.497440999999995" lon="10.612690833333334"><ele>435.0</ele><time>2026-04-18T14:42:41.034Z</time></trkpt><trkpt lat="43.49750766666666" lon="10.612769333333333"><ele>435.0</ele><time>2026-04-18T14:42:42.999Z</time></trkpt><trkpt lat="43.497583" lon="10.612859"><ele>435.0</ele><time>2026-04-18T14:42:46.005Z</time></trkpt><trkpt lat="43.49765550000001" lon="10.612950833333331"><ele>432.6</ele><time>2026-04-18T14:42:47.997Z</time></trkpt><trkpt lat="43.49773966666667" lon="10.61305016666667"><ele>430.2</ele><time>2026-04-18T14:42:50.004Z</time></trkpt><trkpt lat="43.49782783333333" lon="10.613155166666665"><ele>427.79999999999995</ele><time>2026-04-18T14:42:52.003Z</time></trkpt><trkpt lat="43.497898" lon="10.613236666666667"><ele>425.4</ele><time>2026-04-18T14:42:52.999Z</time></trkpt><trkpt lat="43.49796299999999" lon="10.613309166666667"><ele>423.0</ele><time>2026-04-18T14:42:55.004Z</time></trkpt><trkpt lat="43.498036" lon="10.6134035"><ele>422.5</ele><time>2026-04-18T14:42:56.997Z</time></trkpt><trkpt lat="43.498075" lon="10.613488166666667"><ele>422.0</ele><time>2026-04-18T14:42:58.034Z</time></trkpt><trkpt lat="43.49811549999999" lon="10.613609666666665"><ele>421.5</ele><time>2026-04-18T14:43:00.011Z</time></trkpt><trkpt lat="43.49814800000001" lon="10.613729000000001"><ele>421.0</ele><time>2026-04-18T14:43:02.017Z</time></trkpt><trkpt lat="43.49817533333333" lon="10.613815166666665"><ele>420.5</ele><time>2026-04-18T14:43:04.007Z</time></trkpt><trkpt lat="43.49820166666667" lon="10.6139125"><ele>420.0</ele><time>2026-04-18T14:43:05.003Z</time></trkpt><trkpt lat="43.49822983333333" lon="10.614013"><ele>420.0</ele><time>2026-04-18T14:43:07.021Z</time></trkpt><trkpt lat="43.498258" lon="10.614101166666668"><ele>420.0</ele><time>2026-04-18T14:43:07.994Z</time></trkpt><trkpt lat="43.49830433333333" lon="10.614206666666666"><ele>420.0</ele><time>2026-04-18T14:43:10.024Z</time></trkpt><trkpt lat="43.49833866666666" lon="10.614293666666667"><ele>420.0</ele><time>2026-04-18T14:43:12.007Z</time></trkpt><trkpt lat="43.498368666666664" lon="10.614390333333333"><ele>420.0</ele><time>2026-04-18T14:43:16.056Z</time></trkpt><trkpt lat="43.498406833333334" lon="10.614494666666667"><ele>420.0</ele><time>2026-04-18T14:43:19.997Z</time></trkpt><trkpt lat="43.49844083333334" lon="10.614591499999998"><ele>420.0</ele><time>2026-04-18T14:43:22.004Z</time></trkpt><trkpt lat="43.49846949999999" lon="10.614675833333335"><ele>420.0</ele><time>2026-04-18T14:43:24.054Z</time></trkpt><trkpt lat="43.498499333333335" lon="10.614773166666666"><ele>420.0</ele><time>2026-04-18T14:43:27.006Z</time></trkpt><trkpt lat="43.498533" lon="10.614852666666666"><ele>420.0</ele><time>2026-04-18T14:43:28.994Z</time></trkpt><trkpt lat="43.498573" lon="10.614920666666668"><ele>420.0</ele><time>2026-04-18T14:43:30.999Z</time></trkpt><trkpt lat="43.49864233333333" lon="10.614972333333332"><ele>420.0</ele><time>2026-04-18T14:43:33.994Z</time></trkpt><trkpt lat="43.498719" lon="10.614985500000001"><ele>420.0</ele><time>2026-04-18T14:43:36.018Z</time></trkpt><trkpt lat="43.49878183333333" lon="10.614991666666667"><ele>418.7142857142857</ele><time>2026-04-18T14:43:37.023Z</time></trkpt><trkpt lat="43.498859833333334" lon="10.615005333333333"><ele>417.42857142857144</ele><time>2026-04-18T14:43:39.003Z</time></trkpt><trkpt lat="43.4989315" lon="10.615044833333332"><ele>416.1428571428571</ele><time>2026-04-18T14:43:41.999Z</time></trkpt><trkpt lat="43.498986333333335" lon="10.615095499999999"><ele>414.8571428571429</ele><time>2026-04-18T14:43:46.019Z</time></trkpt><trkpt lat="43.49904333333334" lon="10.615155333333332"><ele>413.57142857142856</ele><time>2026-04-18T14:43:50.995Z</time></trkpt><trkpt lat="43.4990885" lon="10.615249500000001"><ele>412.2857142857143</ele><time>2026-04-18T14:43:54.996Z</time></trkpt><trkpt lat="43.49910916666666" lon="10.615339666666667"><ele>411.0</ele><time>2026-04-18T14:43:59.01Z</time></trkpt><trkpt lat="43.499093666666674" lon="10.615442833333335"><ele>410.1666666666667</ele><time>2026-04-18T14:44:05.008Z</time></trkpt><trkpt lat="43.49905533333334" lon="10.615545000000003"><ele>409.33333333333337</ele><time>2026-04-18T14:44:08.999Z</time></trkpt><trkpt lat="43.49901916666666" lon="10.615625333333332"><ele>408.5</ele><time>2026-04-18T14:44:11.991Z</time></trkpt><trkpt lat="43.49897599999999" lon="10.615728"><ele>407.6666666666667</ele><time>2026-04-18T14:44:15.995Z</time></trkpt><trkpt lat="43.49894316666667" lon="10.615810833333335"><ele>406.83333333333337</ele><time>2026-04-18T14:44:19.022Z</time></trkpt><trkpt lat="43.4989115" lon="10.615917166666668"><ele>406.0</ele><time>2026-04-18T14:44:22Z</time></trkpt><trkpt lat="43.4989635" lon="10.616016833333335"><ele>406.00000000000006</ele><time>2026-04-18T14:44:25.004Z</time></trkpt><trkpt lat="43.49902650000001" lon="10.616064333333334"><ele>406.0</ele><time>2026-04-18T14:44:29.021Z</time></trkpt><trkpt lat="43.49910066666666" lon="10.616103166666669"><ele>406.0</ele><time>2026-04-18T14:44:33.991Z</time></trkpt><trkpt lat="43.49917966666667" lon="10.616142333333334"><ele>406.0</ele><time>2026-04-18T14:44:37.002Z</time></trkpt><trkpt lat="43.49925566666668" lon="10.616174333333333"><ele>406.00000000000006</ele><time>2026-04-18T14:44:39.001Z</time></trkpt><trkpt lat="43.49932283333333" lon="10.616190999999999"><ele>406.0</ele><time>2026-04-18T14:44:41.015Z</time></trkpt><trkpt lat="43.499419" lon="10.616197833333336"><ele>404.6</ele><time>2026-04-18T14:44:43.008Z</time></trkpt><trkpt lat="43.49950583333332" lon="10.616205333333333"><ele>403.20000000000005</ele><time>2026-04-18T14:44:44.011Z</time></trkpt><trkpt lat="43.49958533333333" lon="10.616220166666668"><ele>401.79999999999995</ele><time>2026-04-18T14:44:46Z</time></trkpt><trkpt lat="43.499711666666656" lon="10.616265666666667"><ele>400.4</ele><time>2026-04-18T14:44:48.003Z</time></trkpt><trkpt lat="43.49979166666667" lon="10.616295"><ele>399.0</ele><time>2026-04-18T14:44:50.071Z</time></trkpt><trkpt lat="43.49988916666666" lon="10.616283833333334"><ele>399.0</ele><time>2026-04-18T14:44:51.999Z</time></trkpt><trkpt lat="43.499971" lon="10.616237666666667"><ele>399.0</ele><time>2026-04-18T14:44:53.996Z</time></trkpt><trkpt lat="43.5000485" lon="10.616183999999999"><ele>399.0</ele><time>2026-04-18T14:44:56Z</time></trkpt><trkpt lat="43.50012616666666" lon="10.616127666666667"><ele>399.0</ele><time>2026-04-18T14:44:58.022Z</time></trkpt><trkpt lat="43.50020116666666" lon="10.616075166666667"><ele>399.0</ele><time>2026-04-18T14:45:00.007Z</time></trkpt><trkpt lat="43.50029833333333" lon="10.616038499999998"><ele>399.0</ele><time>2026-04-18T14:45:02.006Z</time></trkpt><trkpt lat="43.500373499999995" lon="10.616046999999998"><ele>398.0</ele><time>2026-04-18T14:45:03.995Z</time></trkpt><trkpt lat="43.500440666666655" lon="10.6160875"><ele>397.0</ele><time>2026-04-18T14:45:06.135Z</time></trkpt><trkpt lat="43.50050483333332" lon="10.616145833333333"><ele>396.0</ele><time>2026-04-18T14:45:07.999Z</time></trkpt><trkpt lat="43.50057050000001" lon="10.616214999999999"><ele>395.0</ele><time>2026-04-18T14:45:10.994Z</time></trkpt><trkpt lat="43.50064883333332" lon="10.616243999999998"><ele>394.0</ele><time>2026-04-18T14:45:15.05Z</time></trkpt><trkpt lat="43.500728166666676" lon="10.616247833333334"><ele>393.0</ele><time>2026-04-18T14:45:17Z</time></trkpt><trkpt lat="43.50079099999999" lon="10.616237000000002"><ele>393.00000000000006</ele><time>2026-04-18T14:45:20.005Z</time></trkpt><trkpt lat="43.50085783333334" lon="10.616229166666667"><ele>393.0</ele><time>2026-04-18T14:45:25.004Z</time></trkpt><trkpt lat="43.500923666666665" lon="10.616215166666665"><ele>393.0</ele><time>2026-04-18T14:45:33.005Z</time></trkpt><trkpt lat="43.50098583333333" lon="10.616197833333336"><ele>393.0</ele><time>2026-04-18T14:45:40.028Z</time></trkpt><trkpt lat="43.5010495" lon="10.616189166666667"><ele>393.0</ele><time>2026-04-18T14:45:44.02Z</time></trkpt><trkpt lat="43.50111733333333" lon="10.616175333333334"><ele>393.00000000000006</ele><time>2026-04-18T14:45:48.016Z</time></trkpt><trkpt lat="43.501191166666665" lon="10.61615"><ele>393.0</ele><time>2026-04-18T14:45:52.001Z</time></trkpt><trkpt lat="43.50125316666666" lon="10.616093999999999"><ele>393.3333333333333</ele><time>2026-04-18T14:45:54.992Z</time></trkpt><trkpt lat="43.501310499999995" lon="10.616023833333335"><ele>393.66666666666663</ele><time>2026-04-18T14:45:57.033Z</time></trkpt><trkpt lat="43.50135650000001" lon="10.615956333333335"><ele>394.0</ele><time>2026-04-18T14:45:59.003Z</time></trkpt><trkpt lat="43.50144100000001" lon="10.615837833333336"><ele>394.3333333333333</ele><time>2026-04-18T14:46:02.003Z</time></trkpt><trkpt lat="43.501508" lon="10.615780833333334"><ele>394.66666666666663</ele><time>2026-04-18T14:46:04.004Z</time></trkpt><trkpt lat="43.501569" lon="10.615724666666665"><ele>395.0</ele><time>2026-04-18T14:46:07.006Z</time></trkpt><trkpt lat="43.501647999999996" lon="10.615671833333332"><ele>394.99999999999994</ele><time>2026-04-18T14:46:10.036Z</time></trkpt><trkpt lat="43.50173683333335" lon="10.615647000000003"><ele>395.0</ele><time>2026-04-18T14:46:13.01Z</time></trkpt><trkpt lat="43.50181316666667" lon="10.615641333333333"><ele>395.0</ele><time>2026-04-18T14:46:16.999Z</time></trkpt><trkpt lat="43.50188383333334" lon="10.615642"><ele>395.0</ele><time>2026-04-18T14:46:19.998Z</time></trkpt><trkpt lat="43.501953833333324" lon="10.615638"><ele>394.99999999999994</ele><time>2026-04-18T14:46:23Z</time></trkpt><trkpt lat="43.50202383333334" lon="10.615627666666668"><ele>395.0</ele><time>2026-04-18T14:46:24.996Z</time></trkpt><trkpt lat="43.502115" lon="10.615622333333333"><ele>393.8333333333333</ele><time>2026-04-18T14:46:28Z</time></trkpt><trkpt lat="43.502190999999996" lon="10.6156235"><ele>392.66666666666663</ele><time>2026-04-18T14:46:31.027Z</time></trkpt><trkpt lat="43.50225333333333" lon="10.61564"><ele>391.5</ele><time>2026-04-18T14:46:32.992Z</time></trkpt><trkpt lat="43.50232333333334" lon="10.615667333333333"><ele>390.33333333333337</ele><time>2026-04-18T14:46:41.005Z</time></trkpt><trkpt lat="43.502431166666675" lon="10.615745166666667"><ele>389.1666666666667</ele><time>2026-04-18T14:46:45.008Z</time></trkpt><trkpt lat="43.502496" lon="10.615798666666667"><ele>388.0</ele><time>2026-04-18T14:46:47.002Z</time></trkpt><trkpt lat="43.50256416666666" lon="10.615842166666669"><ele>388.00000000000006</ele><time>2026-04-18T14:46:48.991Z</time></trkpt><trkpt lat="43.502625" lon="10.615868"><ele>388.0</ele><time>2026-04-18T14:46:51.013Z</time></trkpt><trkpt lat="43.50271966666666" lon="10.615871833333332"><ele>388.0</ele><time>2026-04-18T14:46:53.044Z</time></trkpt><trkpt lat="43.502786" lon="10.615808333333332"><ele>388.0</ele><time>2026-04-18T14:46:56Z</time></trkpt><trkpt lat="43.50284683333333" lon="10.615724333333333"><ele>388.00000000000006</ele><time>2026-04-18T14:46:58.015Z</time></trkpt><trkpt lat="43.50289816666667" lon="10.615649"><ele>388.0</ele><time>2026-04-18T14:47:00.009Z</time></trkpt><trkpt lat="43.502953" lon="10.615584"><ele>387.00000000000006</ele><time>2026-04-18T14:47:02.003Z</time></trkpt><trkpt lat="43.503028166666674" lon="10.6155345"><ele>386.0</ele><time>2026-04-18T14:47:05.02Z</time></trkpt><trkpt lat="43.503119500000004" lon="10.615498833333334"><ele>385.0</ele><time>2026-04-18T14:47:07.992Z</time></trkpt><trkpt lat="43.50320683333332" lon="10.615461999999999"><ele>384.0</ele><time>2026-04-18T14:47:10.033Z</time></trkpt><trkpt lat="43.50327866666667" lon="10.615410833333332"><ele>383.0</ele><time>2026-04-18T14:47:11.996Z</time></trkpt><trkpt lat="43.503338333333346" lon="10.6153295"><ele>382.0</ele><time>2026-04-18T14:47:14.013Z</time></trkpt><trkpt lat="43.50337666666666" lon="10.615235833333333"><ele>382.0</ele><time>2026-04-18T14:47:16.001Z</time></trkpt><trkpt lat="43.50340766666667" lon="10.6151445"><ele>382.0</ele><time>2026-04-18T14:47:18.024Z</time></trkpt><trkpt lat="43.50344" lon="10.615055166666666"><ele>382.0</ele><time>2026-04-18T14:47:19.997Z</time></trkpt><trkpt lat="43.50347266666666" lon="10.614972499999999"><ele>382.0</ele><time>2026-04-18T14:47:22.028Z</time></trkpt><trkpt lat="43.503516833333336" lon="10.614905833333333"><ele>382.0</ele><time>2026-04-18T14:47:24.008Z</time></trkpt><trkpt lat="43.50358116666667" lon="10.614853"><ele>382.0</ele><time>2026-04-18T14:47:27.029Z</time></trkpt><trkpt lat="43.503649499999995" lon="10.614823333333334"><ele>382.0</ele><time>2026-04-18T14:47:31.037Z</time></trkpt><trkpt lat="43.50371683333333" lon="10.614793"><ele>379.3333333333333</ele><time>2026-04-18T14:47:36.007Z</time></trkpt><trkpt lat="43.50379666666666" lon="10.614750833333334"><ele>376.66666666666663</ele><time>2026-04-18T14:47:39.994Z</time></trkpt><trkpt lat="43.50387516666666" lon="10.614711666666668"><ele>374.0</ele><time>2026-04-18T14:47:44.016Z</time></trkpt><trkpt lat="43.503964333333336" lon="10.614680333333334"><ele>371.3333333333333</ele><time>2026-04-18T14:47:45.996Z</time></trkpt><trkpt lat="43.50403433333333" lon="10.614682499999999"><ele>368.6666666666667</ele><time>2026-04-18T14:47:48.029Z</time></trkpt><trkpt lat="43.50413233333334" lon="10.614727666666667"><ele>366.0</ele><time>2026-04-18T14:47:50.009Z</time></trkpt><trkpt lat="43.50422516666666" lon="10.614810333333333"><ele>366.0</ele><time>2026-04-18T14:47:52.02Z</time></trkpt><trkpt lat="43.50427766666667" lon="10.614892666666666"><ele>366.0</ele><time>2026-04-18T14:47:54.013Z</time></trkpt><trkpt lat="43.50433183333333" lon="10.614955"><ele>366.0</ele><time>2026-04-18T14:47:56.012Z</time></trkpt><trkpt lat="43.504417166666656" lon="10.614997833333334"><ele>366.0</ele><time>2026-04-18T14:47:59.008Z</time></trkpt><trkpt lat="43.50448750000001" lon="10.615019833333333"><ele>366.0</ele><time>2026-04-18T14:48:01.036Z</time></trkpt><trkpt lat="43.504552499999996" lon="10.61504633333333"><ele>366.0</ele><time>2026-04-18T14:48:02.996Z</time></trkpt><trkpt lat="43.50463266666667" lon="10.615086333333332"><ele>363.57142857142856</ele><time>2026-04-18T14:48:05.997Z</time></trkpt><trkpt lat="43.504692" lon="10.615116"><ele>361.14285714285717</ele><time>2026-04-18T14:48:08.014Z</time></trkpt><trkpt lat="43.504777166666656" lon="10.615142500000001"><ele>358.71428571428567</ele><time>2026-04-18T14:48:11Z</time></trkpt><trkpt lat="43.504845666666675" lon="10.615152166666666"><ele>356.2857142857143</ele><time>2026-04-18T14:48:16.005Z</time></trkpt><trkpt lat="43.504920999999996" lon="10.615129666666666"><ele>353.85714285714283</ele><time>2026-04-18T14:48:22.994Z</time></trkpt><trkpt lat="43.50499883333333" lon="10.6151205"><ele>351.4285714285714</ele><time>2026-04-18T14:48:28.005Z</time></trkpt><trkpt lat="43.505072333333324" lon="10.6151165"><ele>349.0</ele><time>2026-04-18T14:48:33.004Z</time></trkpt><trkpt lat="43.505130333333334" lon="10.615077499999998"><ele>349.0</ele><time>2026-04-18T14:48:41.007Z</time></trkpt><trkpt lat="43.50521483333333" lon="10.61502233333333"><ele>349.0</ele><time>2026-04-18T14:48:45.01Z</time></trkpt><trkpt lat="43.50528883333333" lon="10.614964333333333"><ele>349.0</ele><time>2026-04-18T14:48:47.001Z</time></trkpt><trkpt lat="43.50535416666666" lon="10.614908666666668"><ele>349.0</ele><time>2026-04-18T14:48:49.011Z</time></trkpt><trkpt lat="43.50541799999999" lon="10.614846166666666"><ele>349.0</ele><time>2026-04-18T14:48:51.01Z</time></trkpt><trkpt lat="43.50548533333334" lon="10.614792666666666"><ele>349.0</ele><time>2026-04-18T14:48:53.029Z</time></trkpt><trkpt lat="43.505558833333325" lon="10.6147785"><ele>346.16666666666663</ele><time>2026-04-18T14:48:56.021Z</time></trkpt><trkpt lat="43.50564183333332" lon="10.614798833333333"><ele>343.3333333333333</ele><time>2026-04-18T14:48:58.997Z</time></trkpt><trkpt lat="43.5057215" lon="10.614832999999999"><ele>340.5</ele><time>2026-04-18T14:49:01.016Z</time></trkpt><trkpt lat="43.50578433333333" lon="10.614883166666667"><ele>337.6666666666667</ele><time>2026-04-18T14:49:02.994Z</time></trkpt><trkpt lat="43.50584550000001" lon="10.614929166666665"><ele>334.83333333333337</ele><time>2026-04-18T14:49:05.029Z</time></trkpt><trkpt lat="43.505927" lon="10.614949000000001"><ele>332.0</ele><time>2026-04-18T14:49:08.011Z</time></trkpt><trkpt lat="43.50600066666666" lon="10.6149435"><ele>332.0</ele><time>2026-04-18T14:49:11.005Z</time></trkpt><trkpt lat="43.50605366666667" lon="10.615005833333331"><ele>332.0</ele><time>2026-04-18T14:49:14.024Z</time></trkpt><trkpt lat="43.506121" lon="10.615145"><ele>332.0</ele><time>2026-04-18T14:49:17.005Z</time></trkpt><trkpt lat="43.50621694555687" lon="10.615242687234266"><ele>332.0</ele><time>2026-04-18T14:49:19.057Z</time></trkpt><trkpt lat="43.506278455568584" lon="10.615374408447332"><ele>332.0</ele><time>2026-04-18T14:49:21.006Z</time></trkpt><trkpt lat="43.50633935181679" lon="10.615500175672441"><ele>330.20000000000005</ele><time>2026-04-18T14:49:23.003Z</time></trkpt><trkpt lat="43.506401121769436" lon="10.615625545624736"><ele>328.4</ele><time>2026-04-18T14:49:24.999Z</time></trkpt><trkpt lat="43.50645649999999" lon="10.6157515"><ele>326.6</ele><time>2026-04-18T14:49:27Z</time></trkpt><trkpt lat="43.50653816666666" lon="10.615858"><ele>324.79999999999995</ele><time>2026-04-18T14:49:29.005Z</time></trkpt><trkpt lat="43.50662783333334" lon="10.61595916666667"><ele>323.0</ele><time>2026-04-18T14:49:31.048Z</time></trkpt><trkpt lat="43.50672251125696" lon="10.616049661374253"><ele>323.0</ele><time>2026-04-18T14:49:33.007Z</time></trkpt><trkpt lat="43.50678849999999" lon="10.616085875530883"><ele>323.0</ele><time>2026-04-18T14:49:33.997Z</time></trkpt><trkpt lat="43.50688632005303" lon="10.616084008054642"><ele>323.0</ele><time>2026-04-18T14:49:36.01Z</time></trkpt><trkpt lat="43.50695694146515" lon="10.616074576410238"><ele>323.0</ele><time>2026-04-18T14:49:37.015Z</time></trkpt><trkpt lat="43.507058214259935" lon="10.616057401280745"><ele>323.0</ele><time>2026-04-18T14:49:38.004Z</time></trkpt><trkpt lat="43.507128810762694" lon="10.616048366471137"><ele>323.0</ele><time>2026-04-18T14:49:39.034Z</time></trkpt><trkpt lat="43.50720066654762" lon="10.616038429396001"><ele>321.59999999999997</ele><time>2026-04-18T14:49:39.995Z</time></trkpt><trkpt lat="43.50727377328821" lon="10.616023170859798"><ele>320.2</ele><time>2026-04-18T14:49:41.013Z</time></trkpt><trkpt lat="43.50735231398146" lon="10.61599788185319"><ele>318.8</ele><time>2026-04-18T14:49:42.014Z</time></trkpt><trkpt lat="43.50743486962195" lon="10.615961981673125"><ele>317.4</ele><time>2026-04-18T14:49:43.023Z</time></trkpt><trkpt lat="43.50760433525214" lon="10.615872239500348"><ele>316.0</ele><time>2026-04-18T14:49:45.005Z</time></trkpt><trkpt lat="43.5076919579621" lon="10.615817862543656"><ele>316.0</ele><time>2026-04-18T14:49:46.006Z</time></trkpt><trkpt lat="43.50777437212757" lon="10.615766719623421"><ele>316.0</ele><time>2026-04-18T14:49:47.021Z</time></trkpt><trkpt lat="43.507917922958086" lon="10.615691176227369"><ele>316.0</ele><time>2026-04-18T14:49:49.001Z</time></trkpt><trkpt lat="43.50801806482568" lon="10.61566316017631"><ele>316.0</ele><time>2026-04-18T14:49:51.011Z</time></trkpt><trkpt lat="43.50811038824014" lon="10.61563326262507"><ele>316.0</ele><time>2026-04-18T14:49:52.03Z</time></trkpt><trkpt lat="43.5082119027282" lon="10.615597811670709"><ele>315.8333333333333</ele><time>2026-04-18T14:49:54.007Z</time></trkpt><trkpt lat="43.50829953718769" lon="10.615553078140499"><ele>315.66666666666663</ele><time>2026-04-18T14:49:56.022Z</time></trkpt><trkpt lat="43.50837213420765" lon="10.615500048140074"><ele>315.5</ele><time>2026-04-18T14:49:58.018Z</time></trkpt><trkpt lat="43.50843255498609" lon="10.615426836199477"><ele>315.3333333333333</ele><time>2026-04-18T14:50:00.02Z</time></trkpt><trkpt lat="43.50847454695808" lon="10.615358825985728"><ele>315.1666666666667</ele><time>2026-04-18T14:50:04.022Z</time></trkpt><trkpt lat="43.508530475417665" lon="10.615249466617286"><ele>315.0</ele><time>2026-04-18T14:50:07.009Z</time></trkpt><trkpt lat="43.50855071260924" lon="10.615165329410281"><ele>315.0</ele><time>2026-04-18T14:50:10.004Z</time></trkpt><trkpt lat="43.508631833333325" lon="10.615135666666667"><ele>315.0</ele><time>2026-04-18T14:50:14.025Z</time></trkpt><trkpt lat="43.50871578607417" lon="10.615209483432485"><ele>315.0</ele><time>2026-04-18T14:50:16.017Z</time></trkpt><trkpt lat="43.50876043027046" lon="10.615308178069712"><ele>315.0</ele><time>2026-04-18T14:50:18.041Z</time></trkpt><trkpt lat="43.50879034040412" lon="10.615384944844743"><ele>315.0</ele><time>2026-04-18T14:50:20.047Z</time></trkpt><trkpt lat="43.50881770373615" lon="10.615467682164647"><ele>315.0</ele><time>2026-04-18T14:50:21.01Z</time></trkpt><trkpt lat="43.50883987678581" lon="10.61555981075171"><ele>310.8</ele><time>2026-04-18T14:50:23.006Z</time></trkpt><trkpt lat="43.508856843029825" lon="10.615681124705581"><ele>306.6</ele><time>2026-04-18T14:50:25.006Z</time></trkpt><trkpt lat="43.5088672401246" lon="10.615771006653583"><ele>302.4</ele><time>2026-04-18T14:50:26.009Z</time></trkpt><trkpt lat="43.508899333333325" lon="10.615935666666667"><ele>298.2</ele><time>2026-04-18T14:50:29.01Z</time></trkpt><trkpt lat="43.5089495" lon="10.616044499999997"><ele>294.0</ele><time>2026-04-18T14:50:31.054Z</time></trkpt><trkpt lat="43.50900494471255" lon="10.616159816611129"><ele>293.6666666666667</ele><time>2026-04-18T14:50:33.002Z</time></trkpt><trkpt lat="43.508989649671996" lon="10.616280356090243"><ele>293.3333333333333</ele><time>2026-04-18T14:50:35.006Z</time></trkpt><trkpt lat="43.508917681310265" lon="10.61634249080115"><ele>293.0</ele><time>2026-04-18T14:50:36.003Z</time></trkpt><trkpt lat="43.50884066666667" lon="10.616392666666664"><ele>292.66666666666663</ele><time>2026-04-18T14:50:38.001Z</time></trkpt><trkpt lat="43.508766833333326" lon="10.616485166666665"><ele>292.3333333333333</ele><time>2026-04-18T14:50:39.033Z</time></trkpt><trkpt lat="43.50870966666667" lon="10.6165545"><ele>292.0</ele><time>2026-04-18T14:50:40.007Z</time></trkpt><trkpt lat="43.508647" lon="10.6166265"><ele>291.5</ele><time>2026-04-18T14:50:41.002Z</time></trkpt><trkpt lat="43.508581500000005" lon="10.616699999999998"><ele>291.0</ele><time>2026-04-18T14:50:42.001Z</time></trkpt><trkpt lat="43.50852" lon="10.616775833333334"><ele>290.5</ele><time>2026-04-18T14:50:43.019Z</time></trkpt><trkpt lat="43.508461000000004" lon="10.616854166666668"><ele>290.0</ele><time>2026-04-18T14:50:44.011Z</time></trkpt><trkpt lat="43.50840516666667" lon="10.616935166666666"><ele>289.5</ele><time>2026-04-18T14:50:44.995Z</time></trkpt><trkpt lat="43.50835233333334" lon="10.61701766666667"><ele>289.0</ele><time>2026-04-18T14:50:46.005Z</time></trkpt><trkpt lat="43.50830233333333" lon="10.617098666666667"><ele>289.0</ele><time>2026-04-18T14:50:46.997Z</time></trkpt><trkpt lat="43.5082565" lon="10.617179500000002"><ele>289.0</ele><time>2026-04-18T14:50:47.999Z</time></trkpt><trkpt lat="43.50821423999953" lon="10.61731395847894"><ele>289.0</ele><time>2026-04-18T14:50:49.993Z</time></trkpt><trkpt lat="43.50818441053832" lon="10.617399866608418"><ele>289.0</ele><time>2026-04-18T14:50:51.018Z</time></trkpt><trkpt lat="43.50814031792495" lon="10.61753648450289"><ele>289.0</ele><time>2026-04-18T14:50:52.03Z</time></trkpt><trkpt lat="43.50810739939076" lon="10.617631038126765"><ele>289.0</ele><time>2026-04-18T14:50:53.063Z</time></trkpt><trkpt lat="43.50805833333334" lon="10.617717666666666"><ele>288.2</ele><time>2026-04-18T14:50:54.009Z</time></trkpt><trkpt lat="43.50800233333333" lon="10.617867166666668"><ele>287.4</ele><time>2026-04-18T14:50:56.031Z</time></trkpt><trkpt lat="43.507958617124835" lon="10.618035944118725"><ele>286.6</ele><time>2026-04-18T14:50:57.005Z</time></trkpt><trkpt lat="43.507914245834236" lon="10.618139005826723"><ele>285.8</ele><time>2026-04-18T14:50:58.016Z</time></trkpt><trkpt lat="43.50786540118681" lon="10.618234492824348"><ele>285.0</ele><time>2026-04-18T14:50:59.006Z</time></trkpt><trkpt lat="43.50775974844324" lon="10.618409467938376"><ele>285.0</ele><time>2026-04-18T14:51:01Z</time></trkpt><trkpt lat="43.50769745743395" lon="10.61848829844913"><ele>285.0</ele><time>2026-04-18T14:51:02.01Z</time></trkpt><trkpt lat="43.5076205" lon="10.618543499999998"><ele>285.0</ele><time>2026-04-18T14:51:03.022Z</time></trkpt><trkpt lat="43.507539333333334" lon="10.618613999999997"><ele>285.0</ele><time>2026-04-18T14:51:05.027Z</time></trkpt><trkpt lat="43.50746566666667" lon="10.6186675"><ele>285.0</ele><time>2026-04-18T14:51:14.994Z</time></trkpt><trkpt lat="43.507399800776604" lon="10.618736888370698"><ele>285.0</ele><time>2026-04-18T14:51:17.029Z</time></trkpt><trkpt lat="43.50732718619937" lon="10.618756987844717"><ele>285.57142857142856</ele><time>2026-04-18T14:51:18.003Z</time></trkpt><trkpt lat="43.507260741504766" lon="10.618780400767719"><ele>286.14285714285717</ele><time>2026-04-18T14:51:20.012Z</time></trkpt><trkpt lat="43.50717891728454" lon="10.618832673289376"><ele>286.7142857142857</ele><time>2026-04-18T14:51:22.003Z</time></trkpt><trkpt lat="43.50712426136834" lon="10.618876824735453"><ele>287.2857142857143</ele><time>2026-04-18T14:51:23.002Z</time></trkpt><trkpt lat="43.50706449999999" lon="10.618912"><ele>287.85714285714283</ele><time>2026-04-18T14:51:25.006Z</time></trkpt><trkpt lat="43.507003166666664" lon="10.6189845"><ele>288.42857142857144</ele><time>2026-04-18T14:51:26.998Z</time></trkpt><trkpt lat="43.50695550000001" lon="10.6190535"><ele>289.0</ele><time>2026-04-18T14:51:30.022Z</time></trkpt><trkpt lat="43.50687249999999" lon="10.619164333333334"><ele>289.0</ele><time>2026-04-18T14:51:57.998Z</time></trkpt><trkpt lat="43.506811666666664" lon="10.619199333333333"><ele>289.0</ele><time>2026-04-18T14:52:00.034Z</time></trkpt><trkpt lat="43.50668949999999" lon="10.619255666666668"><ele>289.0</ele><time>2026-04-18T14:52:02.007Z</time></trkpt><trkpt lat="43.50657733333334" lon="10.619297166666668"><ele>289.0</ele><time>2026-04-18T14:52:04.022Z</time></trkpt><trkpt lat="43.506452833333334" lon="10.6192955"><ele>289.0</ele><time>2026-04-18T14:52:06.004Z</time></trkpt><trkpt lat="43.50635916666667" lon="10.619286499999998"><ele>289.0</ele><time>2026-04-18T14:52:08.02Z</time></trkpt><trkpt lat="43.506264166666675" lon="10.619298499999998"><ele>289.0</ele><time>2026-04-18T14:52:09.027Z</time></trkpt><trkpt lat="43.50620216666666" lon="10.619318333333334"><ele>289.0</ele><time>2026-04-18T14:52:09.996Z</time></trkpt><trkpt lat="43.506082166666666" lon="10.619357833333334"><ele>289.0</ele><time>2026-04-18T14:52:12.011Z</time></trkpt><trkpt lat="43.5059625" lon="10.619401000000002"><ele>289.0</ele><time>2026-04-18T14:52:13.995Z</time></trkpt><trkpt lat="43.50588016666668" lon="10.619434333333334"><ele>291.2</ele><time>2026-04-18T14:52:15.995Z</time></trkpt><trkpt lat="43.50577866666666" lon="10.6194565"><ele>293.4</ele><time>2026-04-18T14:52:18.002Z</time></trkpt><trkpt lat="43.505670499999994" lon="10.619449166666667"><ele>295.6</ele><time>2026-04-18T14:52:20Z</time></trkpt><trkpt lat="43.50554650000001" lon="10.6194045"><ele>297.8</ele><time>2026-04-18T14:52:21.995Z</time></trkpt><trkpt lat="43.505483166666664" lon="10.619379499999999"><ele>300.0</ele><time>2026-04-18T14:52:23.007Z</time></trkpt><trkpt lat="43.5054215" lon="10.619359666666666"><ele>301.5</ele><time>2026-04-18T14:52:23.998Z</time></trkpt><trkpt lat="43.505310333333334" lon="10.619324833333334"><ele>303.0</ele><time>2026-04-18T14:52:26.04Z</time></trkpt><trkpt lat="43.50520349999999" lon="10.619338333333333"><ele>304.5</ele><time>2026-04-18T14:52:28.001Z</time></trkpt><trkpt lat="43.505157499999996" lon="10.619408833333333"><ele>306.0</ele><time>2026-04-18T14:52:30.002Z</time></trkpt><trkpt lat="43.505121333333335" lon="10.619500666666665"><ele>307.5</ele><time>2026-04-18T14:52:31.002Z</time></trkpt><trkpt lat="43.5050885" lon="10.619597833333335"><ele>309.0</ele><time>2026-04-18T14:52:32.998Z</time></trkpt><trkpt lat="43.50505266666667" lon="10.619721166666666"><ele>309.0</ele><time>2026-04-18T14:52:34.996Z</time></trkpt><trkpt lat="43.50501033333333" lon="10.619817333333334"><ele>309.0</ele><time>2026-04-18T14:52:37.003Z</time></trkpt><trkpt lat="43.50493653022474" lon="10.619913155403614"><ele>309.0</ele><time>2026-04-18T14:52:41.01Z</time></trkpt><trkpt lat="43.504872560167954" lon="10.61993969231163"><ele>309.0</ele><time>2026-04-18T14:52:43.023Z</time></trkpt><trkpt lat="43.50481766866489" lon="10.620002855794386"><ele>309.0</ele><time>2026-04-18T14:52:45.003Z</time></trkpt><trkpt lat="43.504751304855375" lon="10.620086311888372"><ele>309.0</ele><time>2026-04-18T14:52:47.993Z</time></trkpt><trkpt lat="43.50469217923827" lon="10.620162147721315"><ele>308.0</ele><time>2026-04-18T14:52:51.019Z</time></trkpt><trkpt lat="43.50473851242717" lon="10.620396245740226"><ele>307.0</ele><time>2026-04-18T14:52:53.002Z</time></trkpt><trkpt lat="43.504796760877575" lon="10.620506501778591"><ele>306.0</ele><time>2026-04-18T14:52:56.031Z</time></trkpt><trkpt lat="43.504843656585514" lon="10.620595268657642"><ele>305.0</ele><time>2026-04-18T14:52:58.003Z</time></trkpt><trkpt lat="43.50488824473743" lon="10.620673554864315"><ele>304.0</ele><time>2026-04-18T14:53:01.074Z</time></trkpt><trkpt lat="43.504938840439664" lon="10.620757363283325"><ele>304.0</ele><time>2026-04-18T14:53:06.001Z</time></trkpt><trkpt lat="43.50498734975421" lon="10.620845882287929"><ele>304.0</ele><time>2026-04-18T14:53:09.009Z</time></trkpt><trkpt lat="43.50508383333334" lon="10.620754333333332"><ele>304.0</ele><time>2026-04-18T14:53:15.012Z</time></trkpt><trkpt lat="43.505050166666656" lon="10.620671166666666"><ele>304.0</ele><time>2026-04-18T14:53:34.04Z</time></trkpt><trkpt lat="43.505022666666676" lon="10.620574833333334"><ele>304.0</ele><time>2026-04-18T14:53:42.022Z</time></trkpt><trkpt lat="43.504995166666674" lon="10.620496333333332"><ele>304.0</ele><time>2026-04-18T14:54:07.01Z</time></trkpt><trkpt lat="43.50487027163233" lon="10.620567759745326"><ele>304.0</ele><time>2026-04-18T14:54:09.004Z</time></trkpt><trkpt lat="43.50482986260237" lon="10.62049127120375"><ele>304.0</ele><time>2026-04-18T14:54:14.018Z</time></trkpt><trkpt lat="43.50478970387579" lon="10.620415256496985"><ele>304.0</ele><time>2026-04-18T14:54:21.021Z</time></trkpt><trkpt lat="43.504754500000004" lon="10.6203425"><ele>304.0</ele><time>2026-04-18T14:54:24.011Z</time></trkpt><trkpt lat="43.5047085" lon="10.620266833333336"><ele>304.0</ele><time>2026-04-18T14:54:30.996Z</time></trkpt><trkpt lat="43.50466066666666" lon="10.620208833333333"><ele>304.0</ele><time>2026-04-18T14:54:36.009Z</time></trkpt><trkpt lat="43.5046369536017" lon="10.620126121475177"><ele>304.0</ele><time>2026-04-18T14:54:38.995Z</time></trkpt><trkpt lat="43.50456333333333" lon="10.620094166666668"><ele>305.0</ele><time>2026-04-18T14:54:41.008Z</time></trkpt><trkpt lat="43.50452233333334" lon="10.620019166666667"><ele>306.0</ele><time>2026-04-18T14:54:43.052Z</time></trkpt><trkpt lat="43.504488499999994" lon="10.61994"><ele>307.0</ele><time>2026-04-18T14:54:45.005Z</time></trkpt><trkpt lat="43.50445916666666" lon="10.619862166666666"><ele>308.0</ele><time>2026-04-18T14:54:47.008Z</time></trkpt><trkpt lat="43.50443116666667" lon="10.619783166666664"><ele>309.0</ele><time>2026-04-18T14:54:49.008Z</time></trkpt><trkpt lat="43.50439800000001" lon="10.619696500000002"><ele>310.0</ele><time>2026-04-18T14:54:51.127Z</time></trkpt><trkpt lat="43.50436116666666" lon="10.619563333333334"><ele>311.0</ele><time>2026-04-18T14:54:54.007Z</time></trkpt><trkpt lat="43.50432466666666" lon="10.619443166666667"><ele>312.8</ele><time>2026-04-18T14:54:56.004Z</time></trkpt><trkpt lat="43.504262000000004" lon="10.6193395"><ele>314.6</ele><time>2026-04-18T14:54:58.004Z</time></trkpt><trkpt lat="43.50417766666666" lon="10.619265166666667"><ele>316.4</ele><time>2026-04-18T14:55:00.009Z</time></trkpt><trkpt lat="43.50408333333333" lon="10.619206666666667"><ele>318.2</ele><time>2026-04-18T14:55:02.009Z</time></trkpt><trkpt lat="43.5039865" lon="10.619145833333334"><ele>320.0</ele><time>2026-04-18T14:55:04.041Z</time></trkpt><trkpt lat="43.503887" lon="10.619072666666666"><ele>320.0</ele><time>2026-04-18T14:55:05.998Z</time></trkpt><trkpt lat="43.503787333333335" lon="10.619038833333331"><ele>320.0</ele><time>2026-04-18T14:55:08.027Z</time></trkpt><trkpt lat="43.50369026252759" lon="10.619017731551175"><ele>320.0</ele><time>2026-04-18T14:55:10.006Z</time></trkpt><trkpt lat="43.503604197265574" lon="10.61904572993203"><ele>320.0</ele><time>2026-04-18T14:55:12.043Z</time></trkpt><trkpt lat="43.503521951135866" lon="10.619086966658472"><ele>320.0</ele><time>2026-04-18T14:55:13.996Z</time></trkpt><trkpt lat="43.50346251065733" lon="10.619118699834473"><ele>320.0</ele><time>2026-04-18T14:55:20.007Z</time></trkpt><trkpt lat="43.50338933333334" lon="10.619056333333333"><ele>320.0</ele><time>2026-04-18T14:55:25.041Z</time></trkpt><trkpt lat="43.503320833333326" lon="10.619011666666665"><ele>320.0</ele><time>2026-04-18T14:55:27.001Z</time></trkpt><trkpt lat="43.50323883333334" lon="10.618977500000002"><ele>320.0</ele><time>2026-04-18T14:55:29.022Z</time></trkpt><trkpt lat="43.503155" lon="10.6189525"><ele>320.0</ele><time>2026-04-18T14:55:30.997Z</time></trkpt><trkpt lat="43.50308766666667" lon="10.618935333333333"><ele>320.0</ele><time>2026-04-18T14:55:33.136Z</time></trkpt><trkpt lat="43.50301233333333" lon="10.618920666666668"><ele>320.0</ele><time>2026-04-18T14:55:36.011Z</time></trkpt><trkpt lat="43.50293533333333" lon="10.618913666666668"><ele>320.0</ele><time>2026-04-18T14:55:39.008Z</time></trkpt><trkpt lat="43.50286633333334" lon="10.618906666666666"><ele>313.0</ele><time>2026-04-18T14:55:42.032Z</time></trkpt></trkseg></trk></gpx>